<?xml version="1.0" encoding="UTF-8" standalone="no" ?>
<gpx xmlns="http://www.topografix.com/GPX/1/1" xmlns:xsi="http://www.w3.org/2001/XMLSchema-instance" xsi:schemaLocation="http://www.topografix.com/GPX/1/1 http://www.topografix.com/GPX/1/1/gpx.xsd" version="1.1" creator="VisuGPX - https://www.visugpx.com">
  <metadata>
    <name>The castle of water</name>
    <desc><![CDATA[The castle of water__________________]]></desc>
  </metadata>
  <wpt lat="47.49122" lon="6.76455">
    <ele>364</ele>
    <name><![CDATA[Point de cheminement 1]]></name>
    <desc><![CDATA[]]></desc>
  </wpt>
  <wpt lat="47.5142" lon="6.73823">
    <ele>438.3</ele>
    <name><![CDATA[Point de cheminement 2]]></name>
    <desc><![CDATA[]]></desc>
  </wpt>
  <wpt lat="47.53884" lon="6.74825">
    <ele>483.6</ele>
    <name><![CDATA[Point de cheminement 3]]></name>
    <desc><![CDATA[]]></desc>
  </wpt>
  <wpt lat="47.53496" lon="6.70621">
    <ele>440.9</ele>
    <name><![CDATA[Point de cheminement 4]]></name>
    <desc><![CDATA[]]></desc>
  </wpt>
  <wpt lat="47.51007" lon="6.72718">
    <ele>470.1</ele>
    <name><![CDATA[Point de cheminement 5]]></name>
    <desc><![CDATA[]]></desc>
  </wpt>
  <wpt lat="47.51073" lon="6.76991">
    <ele>425</ele>
    <name><![CDATA[Point de cheminement 6]]></name>
    <desc><![CDATA[]]></desc>
  </wpt>
  <trk>
    <name><![CDATA[18]]></name>
    <desc><![CDATA[]]></desc>
    <trkseg>
      <trkpt lat="47.51745" lon="6.77724">
        <ele>380.6</ele>
        <time>2017-12-17T08:13:15.966Z</time>
      </trkpt>
      <trkpt lat="47.51755" lon="6.77627">
        <ele>393.1</ele>
        <time>2017-12-17T08:13:16.810Z</time>
      </trkpt>
      <trkpt lat="47.51786" lon="6.77501">
        <ele>396</ele>
        <time>2017-12-17T08:13:19.727Z</time>
      </trkpt>
      <trkpt lat="47.51789" lon="6.77495">
        <ele>396.6</ele>
        <time>2017-12-17T08:13:20.726Z</time>
      </trkpt>
      <trkpt lat="47.51789" lon="6.77495">
        <ele>426.9</ele>
        <time>2017-12-17T08:13:41.999Z</time>
      </trkpt>
      <trkpt lat="47.51795" lon="6.77489">
        <ele>430.9</ele>
        <time>2017-12-17T08:13:43.999Z</time>
      </trkpt>
      <trkpt lat="47.51795" lon="6.77489">
        <ele>431</ele>
        <time>2017-12-17T08:14:36.999Z</time>
      </trkpt>
      <trkpt lat="47.51799" lon="6.77474">
        <ele>431.1</ele>
        <time>2017-12-17T08:14:37.999Z</time>
      </trkpt>
      <trkpt lat="47.51799" lon="6.77474">
        <ele>432.5</ele>
        <time>2017-12-17T08:16:11.999Z</time>
      </trkpt>
      <trkpt lat="47.51809" lon="6.77467">
        <ele>432.4</ele>
        <time>2017-12-17T08:16:12.999Z</time>
      </trkpt>
      <trkpt lat="47.51812" lon="6.77468">
        <ele>432.4</ele>
        <time>2017-12-17T08:16:13.999Z</time>
      </trkpt>
      <trkpt lat="47.51813" lon="6.77473">
        <ele>432.4</ele>
        <time>2017-12-17T08:16:14.999Z</time>
      </trkpt>
      <trkpt lat="47.51813" lon="6.77478">
        <ele>432.4</ele>
        <time>2017-12-17T08:16:15.999Z</time>
      </trkpt>
      <trkpt lat="47.5181" lon="6.77479">
        <ele>432.4</ele>
        <time>2017-12-17T08:16:16.999Z</time>
      </trkpt>
      <trkpt lat="47.51807" lon="6.77481">
        <ele>432.3</ele>
        <time>2017-12-17T08:16:17.999Z</time>
      </trkpt>
      <trkpt lat="47.51803" lon="6.77485">
        <ele>432.2</ele>
        <time>2017-12-17T08:16:18.999Z</time>
      </trkpt>
      <trkpt lat="47.51797" lon="6.77488">
        <ele>432.1</ele>
        <time>2017-12-17T08:16:19.999Z</time>
      </trkpt>
      <trkpt lat="47.51793" lon="6.77489">
        <ele>432.1</ele>
        <time>2017-12-17T08:16:20.999Z</time>
      </trkpt>
      <trkpt lat="47.51789" lon="6.7749">
        <ele>432.2</ele>
        <time>2017-12-17T08:16:21.999Z</time>
      </trkpt>
      <trkpt lat="47.51786" lon="6.77491">
        <ele>432.3</ele>
        <time>2017-12-17T08:16:22.999Z</time>
      </trkpt>
      <trkpt lat="47.51783" lon="6.77489">
        <ele>432.4</ele>
        <time>2017-12-17T08:16:23.999Z</time>
      </trkpt>
      <trkpt lat="47.5178" lon="6.77488">
        <ele>432.5</ele>
        <time>2017-12-17T08:16:24.999Z</time>
      </trkpt>
      <trkpt lat="47.51776" lon="6.77487">
        <ele>432.6</ele>
        <time>2017-12-17T08:16:25.999Z</time>
      </trkpt>
      <trkpt lat="47.51774" lon="6.77488">
        <ele>432.8</ele>
        <time>2017-12-17T08:16:26.999Z</time>
      </trkpt>
      <trkpt lat="47.5177" lon="6.77488">
        <ele>432.9</ele>
        <time>2017-12-17T08:16:27.999Z</time>
      </trkpt>
      <trkpt lat="47.51766" lon="6.77487">
        <ele>433.1</ele>
        <time>2017-12-17T08:16:28.999Z</time>
      </trkpt>
      <trkpt lat="47.51762" lon="6.77487">
        <ele>433.2</ele>
        <time>2017-12-17T08:16:29.999Z</time>
      </trkpt>
      <trkpt lat="47.51759" lon="6.77486">
        <ele>433.3</ele>
        <time>2017-12-17T08:16:30.999Z</time>
      </trkpt>
      <trkpt lat="47.51755" lon="6.77485">
        <ele>434.3</ele>
        <time>2017-12-17T08:16:31.999Z</time>
      </trkpt>
      <trkpt lat="47.51751" lon="6.77484">
        <ele>435.4</ele>
        <time>2017-12-17T08:16:32.999Z</time>
      </trkpt>
      <trkpt lat="47.51747" lon="6.77483">
        <ele>436.3</ele>
        <time>2017-12-17T08:16:33.999Z</time>
      </trkpt>
      <trkpt lat="47.51744" lon="6.77483">
        <ele>437.1</ele>
        <time>2017-12-17T08:16:34.999Z</time>
      </trkpt>
      <trkpt lat="47.5174" lon="6.77482">
        <ele>437.1</ele>
        <time>2017-12-17T08:16:35.999Z</time>
      </trkpt>
      <trkpt lat="47.51735" lon="6.77482">
        <ele>437.1</ele>
        <time>2017-12-17T08:16:36.999Z</time>
      </trkpt>
      <trkpt lat="47.51732" lon="6.77484">
        <ele>437.8</ele>
        <time>2017-12-17T08:16:37.999Z</time>
      </trkpt>
      <trkpt lat="47.51728" lon="6.77487">
        <ele>437.9</ele>
        <time>2017-12-17T08:16:38.999Z</time>
      </trkpt>
      <trkpt lat="47.51727" lon="6.77491">
        <ele>437.9</ele>
        <time>2017-12-17T08:16:39.999Z</time>
      </trkpt>
      <trkpt lat="47.51726" lon="6.77496">
        <ele>438</ele>
        <time>2017-12-17T08:16:40.999Z</time>
      </trkpt>
      <trkpt lat="47.51725" lon="6.77501">
        <ele>438</ele>
        <time>2017-12-17T08:16:41.999Z</time>
      </trkpt>
      <trkpt lat="47.51724" lon="6.77506">
        <ele>438.1</ele>
        <time>2017-12-17T08:16:42.999Z</time>
      </trkpt>
      <trkpt lat="47.51723" lon="6.77513">
        <ele>438.2</ele>
        <time>2017-12-17T08:16:43.999Z</time>
      </trkpt>
      <trkpt lat="47.51721" lon="6.77519">
        <ele>438.3</ele>
        <time>2017-12-17T08:16:44.999Z</time>
      </trkpt>
      <trkpt lat="47.5172" lon="6.77526">
        <ele>438.9</ele>
        <time>2017-12-17T08:16:45.999Z</time>
      </trkpt>
      <trkpt lat="47.5172" lon="6.7753">
        <ele>439.4</ele>
        <time>2017-12-17T08:16:46.999Z</time>
      </trkpt>
      <trkpt lat="47.51719" lon="6.77535">
        <ele>440.1</ele>
        <time>2017-12-17T08:16:47.999Z</time>
      </trkpt>
      <trkpt lat="47.51719" lon="6.77542">
        <ele>440.1</ele>
        <time>2017-12-17T08:16:48.999Z</time>
      </trkpt>
      <trkpt lat="47.51718" lon="6.77547">
        <ele>440.1</ele>
        <time>2017-12-17T08:16:49.999Z</time>
      </trkpt>
      <trkpt lat="47.51715" lon="6.77549">
        <ele>440</ele>
        <time>2017-12-17T08:16:50.999Z</time>
      </trkpt>
      <trkpt lat="47.51711" lon="6.77551">
        <ele>440</ele>
        <time>2017-12-17T08:16:51.999Z</time>
      </trkpt>
      <trkpt lat="47.51707" lon="6.7755">
        <ele>439.9</ele>
        <time>2017-12-17T08:16:52.999Z</time>
      </trkpt>
      <trkpt lat="47.51702" lon="6.77547">
        <ele>439.3</ele>
        <time>2017-12-17T08:16:53.999Z</time>
      </trkpt>
      <trkpt lat="47.51698" lon="6.77544">
        <ele>438.7</ele>
        <time>2017-12-17T08:16:54.999Z</time>
      </trkpt>
      <trkpt lat="47.51694" lon="6.7754">
        <ele>439.4</ele>
        <time>2017-12-17T08:16:55.999Z</time>
      </trkpt>
      <trkpt lat="47.5169" lon="6.77537">
        <ele>439.4</ele>
        <time>2017-12-17T08:16:56.999Z</time>
      </trkpt>
      <trkpt lat="47.51685" lon="6.77531">
        <ele>439.7</ele>
        <time>2017-12-17T08:16:57.999Z</time>
      </trkpt>
      <trkpt lat="47.5168" lon="6.77525">
        <ele>439.7</ele>
        <time>2017-12-17T08:16:58.999Z</time>
      </trkpt>
      <trkpt lat="47.51675" lon="6.77518">
        <ele>439.4</ele>
        <time>2017-12-17T08:16:59.999Z</time>
      </trkpt>
      <trkpt lat="47.5167" lon="6.77512">
        <ele>439</ele>
        <time>2017-12-17T08:17:00.999Z</time>
      </trkpt>
      <trkpt lat="47.51665" lon="6.77504">
        <ele>438.3</ele>
        <time>2017-12-17T08:17:01.999Z</time>
      </trkpt>
      <trkpt lat="47.5166" lon="6.77498">
        <ele>438.1</ele>
        <time>2017-12-17T08:17:02.999Z</time>
      </trkpt>
      <trkpt lat="47.51655" lon="6.7749">
        <ele>438.2</ele>
        <time>2017-12-17T08:17:03.999Z</time>
      </trkpt>
      <trkpt lat="47.5165" lon="6.77484">
        <ele>438.1</ele>
        <time>2017-12-17T08:17:04.999Z</time>
      </trkpt>
      <trkpt lat="47.51645" lon="6.77478">
        <ele>438</ele>
        <time>2017-12-17T08:17:05.999Z</time>
      </trkpt>
      <trkpt lat="47.51641" lon="6.77473">
        <ele>438.1</ele>
        <time>2017-12-17T08:17:06.999Z</time>
      </trkpt>
      <trkpt lat="47.51636" lon="6.77466">
        <ele>437.7</ele>
        <time>2017-12-17T08:17:07.999Z</time>
      </trkpt>
      <trkpt lat="47.5163" lon="6.7746">
        <ele>437.5</ele>
        <time>2017-12-17T08:17:08.999Z</time>
      </trkpt>
      <trkpt lat="47.51625" lon="6.77454">
        <ele>437.4</ele>
        <time>2017-12-17T08:17:09.999Z</time>
      </trkpt>
      <trkpt lat="47.5162" lon="6.77448">
        <ele>437</ele>
        <time>2017-12-17T08:17:10.999Z</time>
      </trkpt>
      <trkpt lat="47.51615" lon="6.77441">
        <ele>436.6</ele>
        <time>2017-12-17T08:17:11.999Z</time>
      </trkpt>
      <trkpt lat="47.51609" lon="6.77434">
        <ele>436.2</ele>
        <time>2017-12-17T08:17:12.999Z</time>
      </trkpt>
      <trkpt lat="47.51604" lon="6.77428">
        <ele>436</ele>
        <time>2017-12-17T08:17:13.999Z</time>
      </trkpt>
      <trkpt lat="47.51598" lon="6.77421">
        <ele>435</ele>
        <time>2017-12-17T08:17:14.999Z</time>
      </trkpt>
      <trkpt lat="47.51592" lon="6.77415">
        <ele>434.7</ele>
        <time>2017-12-17T08:17:15.999Z</time>
      </trkpt>
      <trkpt lat="47.51587" lon="6.77409">
        <ele>434.1</ele>
        <time>2017-12-17T08:17:16.999Z</time>
      </trkpt>
      <trkpt lat="47.51582" lon="6.77403">
        <ele>433.5</ele>
        <time>2017-12-17T08:17:17.999Z</time>
      </trkpt>
      <trkpt lat="47.51576" lon="6.77397">
        <ele>433</ele>
        <time>2017-12-17T08:17:18.999Z</time>
      </trkpt>
      <trkpt lat="47.5157" lon="6.77389">
        <ele>432.4</ele>
        <time>2017-12-17T08:17:19.999Z</time>
      </trkpt>
      <trkpt lat="47.51564" lon="6.77382">
        <ele>431.8</ele>
        <time>2017-12-17T08:17:20.999Z</time>
      </trkpt>
      <trkpt lat="47.51558" lon="6.77374">
        <ele>432.2</ele>
        <time>2017-12-17T08:17:21.999Z</time>
      </trkpt>
      <trkpt lat="47.51552" lon="6.77367">
        <ele>432.1</ele>
        <time>2017-12-17T08:17:22.999Z</time>
      </trkpt>
      <trkpt lat="47.51545" lon="6.77359">
        <ele>431.7</ele>
        <time>2017-12-17T08:17:23.999Z</time>
      </trkpt>
      <trkpt lat="47.51539" lon="6.77351">
        <ele>431.3</ele>
        <time>2017-12-17T08:17:24.999Z</time>
      </trkpt>
      <trkpt lat="47.51532" lon="6.77343">
        <ele>430.7</ele>
        <time>2017-12-17T08:17:25.999Z</time>
      </trkpt>
      <trkpt lat="47.51525" lon="6.77335">
        <ele>430</ele>
        <time>2017-12-17T08:17:26.999Z</time>
      </trkpt>
      <trkpt lat="47.51518" lon="6.77326">
        <ele>429.2</ele>
        <time>2017-12-17T08:17:27.999Z</time>
      </trkpt>
      <trkpt lat="47.51512" lon="6.77318">
        <ele>428.8</ele>
        <time>2017-12-17T08:17:28.999Z</time>
      </trkpt>
      <trkpt lat="47.51505" lon="6.77311">
        <ele>428.3</ele>
        <time>2017-12-17T08:17:29.999Z</time>
      </trkpt>
      <trkpt lat="47.515" lon="6.77302">
        <ele>427.7</ele>
        <time>2017-12-17T08:17:30.999Z</time>
      </trkpt>
      <trkpt lat="47.51495" lon="6.77292">
        <ele>427.1</ele>
        <time>2017-12-17T08:17:31.999Z</time>
      </trkpt>
      <trkpt lat="47.51492" lon="6.77282">
        <ele>425.7</ele>
        <time>2017-12-17T08:17:32.999Z</time>
      </trkpt>
      <trkpt lat="47.51491" lon="6.77271">
        <ele>424.8</ele>
        <time>2017-12-17T08:17:33.999Z</time>
      </trkpt>
      <trkpt lat="47.51489" lon="6.77261">
        <ele>424.4</ele>
        <time>2017-12-17T08:17:34.999Z</time>
      </trkpt>
      <trkpt lat="47.51488" lon="6.7725">
        <ele>424.1</ele>
        <time>2017-12-17T08:17:35.999Z</time>
      </trkpt>
      <trkpt lat="47.51488" lon="6.7724">
        <ele>423.9</ele>
        <time>2017-12-17T08:17:36.999Z</time>
      </trkpt>
      <trkpt lat="47.51487" lon="6.7723">
        <ele>423.9</ele>
        <time>2017-12-17T08:17:37.999Z</time>
      </trkpt>
      <trkpt lat="47.51486" lon="6.77221">
        <ele>423.9</ele>
        <time>2017-12-17T08:17:38.999Z</time>
      </trkpt>
      <trkpt lat="47.51482" lon="6.77212">
        <ele>423.3</ele>
        <time>2017-12-17T08:17:39.999Z</time>
      </trkpt>
      <trkpt lat="47.51478" lon="6.77205">
        <ele>422.6</ele>
        <time>2017-12-17T08:17:40.999Z</time>
      </trkpt>
      <trkpt lat="47.51472" lon="6.77202">
        <ele>422.4</ele>
        <time>2017-12-17T08:17:41.999Z</time>
      </trkpt>
      <trkpt lat="47.51466" lon="6.77202">
        <ele>421.8</ele>
        <time>2017-12-17T08:17:42.999Z</time>
      </trkpt>
      <trkpt lat="47.51459" lon="6.77203">
        <ele>421.5</ele>
        <time>2017-12-17T08:17:43.999Z</time>
      </trkpt>
      <trkpt lat="47.51451" lon="6.77206">
        <ele>421.6</ele>
        <time>2017-12-17T08:17:44.999Z</time>
      </trkpt>
      <trkpt lat="47.51444" lon="6.7721">
        <ele>421.8</ele>
        <time>2017-12-17T08:17:45.999Z</time>
      </trkpt>
      <trkpt lat="47.51437" lon="6.77213">
        <ele>421.9</ele>
        <time>2017-12-17T08:17:46.999Z</time>
      </trkpt>
      <trkpt lat="47.5143" lon="6.77216">
        <ele>421.8</ele>
        <time>2017-12-17T08:17:47.999Z</time>
      </trkpt>
      <trkpt lat="47.51423" lon="6.7722">
        <ele>421.6</ele>
        <time>2017-12-17T08:17:48.999Z</time>
      </trkpt>
      <trkpt lat="47.51417" lon="6.77223">
        <ele>421.1</ele>
        <time>2017-12-17T08:17:49.999Z</time>
      </trkpt>
      <trkpt lat="47.51411" lon="6.77227">
        <ele>420.6</ele>
        <time>2017-12-17T08:17:50.999Z</time>
      </trkpt>
      <trkpt lat="47.51406" lon="6.77229">
        <ele>420.7</ele>
        <time>2017-12-17T08:17:51.999Z</time>
      </trkpt>
      <trkpt lat="47.51402" lon="6.77232">
        <ele>420.7</ele>
        <time>2017-12-17T08:17:52.999Z</time>
      </trkpt>
      <trkpt lat="47.51397" lon="6.77235">
        <ele>420.7</ele>
        <time>2017-12-17T08:17:53.999Z</time>
      </trkpt>
      <trkpt lat="47.51393" lon="6.77237">
        <ele>420.9</ele>
        <time>2017-12-17T08:17:54.999Z</time>
      </trkpt>
      <trkpt lat="47.51389" lon="6.7724">
        <ele>420.3</ele>
        <time>2017-12-17T08:17:55.999Z</time>
      </trkpt>
      <trkpt lat="47.51384" lon="6.77243">
        <ele>419.8</ele>
        <time>2017-12-17T08:17:56.999Z</time>
      </trkpt>
      <trkpt lat="47.51379" lon="6.77246">
        <ele>420.1</ele>
        <time>2017-12-17T08:17:57.999Z</time>
      </trkpt>
      <trkpt lat="47.51375" lon="6.77248">
        <ele>420.8</ele>
        <time>2017-12-17T08:17:58.999Z</time>
      </trkpt>
      <trkpt lat="47.51371" lon="6.7725">
        <ele>420.8</ele>
        <time>2017-12-17T08:17:59.999Z</time>
      </trkpt>
      <trkpt lat="47.51369" lon="6.77251">
        <ele>420.9</ele>
        <time>2017-12-17T08:18:00.999Z</time>
      </trkpt>
      <trkpt lat="47.51366" lon="6.77253">
        <ele>420.9</ele>
        <time>2017-12-17T08:18:01.999Z</time>
      </trkpt>
      <trkpt lat="47.51363" lon="6.77256">
        <ele>421</ele>
        <time>2017-12-17T08:18:02.999Z</time>
      </trkpt>
      <trkpt lat="47.5136" lon="6.77258">
        <ele>421</ele>
        <time>2017-12-17T08:18:03.999Z</time>
      </trkpt>
      <trkpt lat="47.51357" lon="6.77261">
        <ele>421.1</ele>
        <time>2017-12-17T08:18:04.999Z</time>
      </trkpt>
      <trkpt lat="47.51355" lon="6.77264">
        <ele>421.2</ele>
        <time>2017-12-17T08:18:05.999Z</time>
      </trkpt>
      <trkpt lat="47.51352" lon="6.77267">
        <ele>421.3</ele>
        <time>2017-12-17T08:18:06.999Z</time>
      </trkpt>
      <trkpt lat="47.5135" lon="6.7727">
        <ele>421.3</ele>
        <time>2017-12-17T08:18:07.999Z</time>
      </trkpt>
      <trkpt lat="47.51347" lon="6.77272">
        <ele>421.4</ele>
        <time>2017-12-17T08:18:08.999Z</time>
      </trkpt>
      <trkpt lat="47.51345" lon="6.77275">
        <ele>421.5</ele>
        <time>2017-12-17T08:18:09.999Z</time>
      </trkpt>
      <trkpt lat="47.51342" lon="6.77276">
        <ele>421.6</ele>
        <time>2017-12-17T08:18:10.999Z</time>
      </trkpt>
      <trkpt lat="47.51339" lon="6.77278">
        <ele>421.8</ele>
        <time>2017-12-17T08:18:11.999Z</time>
      </trkpt>
      <trkpt lat="47.51336" lon="6.77279">
        <ele>421.9</ele>
        <time>2017-12-17T08:18:12.999Z</time>
      </trkpt>
      <trkpt lat="47.51333" lon="6.77281">
        <ele>422</ele>
        <time>2017-12-17T08:18:13.999Z</time>
      </trkpt>
      <trkpt lat="47.51331" lon="6.77281">
        <ele>422.1</ele>
        <time>2017-12-17T08:18:14.999Z</time>
      </trkpt>
      <trkpt lat="47.51329" lon="6.77282">
        <ele>422.2</ele>
        <time>2017-12-17T08:18:15.999Z</time>
      </trkpt>
      <trkpt lat="47.51325" lon="6.77282">
        <ele>422.3</ele>
        <time>2017-12-17T08:18:16.999Z</time>
      </trkpt>
      <trkpt lat="47.51322" lon="6.77282">
        <ele>422.5</ele>
        <time>2017-12-17T08:18:17.999Z</time>
      </trkpt>
      <trkpt lat="47.51319" lon="6.77282">
        <ele>422.7</ele>
        <time>2017-12-17T08:18:18.999Z</time>
      </trkpt>
      <trkpt lat="47.51314" lon="6.77281">
        <ele>423</ele>
        <time>2017-12-17T08:18:20.999Z</time>
      </trkpt>
      <trkpt lat="47.51312" lon="6.77281">
        <ele>423.1</ele>
        <time>2017-12-17T08:18:21.999Z</time>
      </trkpt>
      <trkpt lat="47.51309" lon="6.77281">
        <ele>423.2</ele>
        <time>2017-12-17T08:18:22.999Z</time>
      </trkpt>
      <trkpt lat="47.51307" lon="6.7728">
        <ele>423.4</ele>
        <time>2017-12-17T08:18:23.999Z</time>
      </trkpt>
      <trkpt lat="47.51302" lon="6.77279">
        <ele>423.4</ele>
        <time>2017-12-17T08:18:24.999Z</time>
      </trkpt>
      <trkpt lat="47.51299" lon="6.77278">
        <ele>423.5</ele>
        <time>2017-12-17T08:18:25.999Z</time>
      </trkpt>
      <trkpt lat="47.51297" lon="6.77276">
        <ele>423.5</ele>
        <time>2017-12-17T08:18:26.999Z</time>
      </trkpt>
      <trkpt lat="47.51294" lon="6.77274">
        <ele>423.6</ele>
        <time>2017-12-17T08:18:27.999Z</time>
      </trkpt>
      <trkpt lat="47.51291" lon="6.77272">
        <ele>423.6</ele>
        <time>2017-12-17T08:18:28.999Z</time>
      </trkpt>
      <trkpt lat="47.51288" lon="6.77269">
        <ele>423.7</ele>
        <time>2017-12-17T08:18:29.999Z</time>
      </trkpt>
      <trkpt lat="47.51285" lon="6.77267">
        <ele>423.9</ele>
        <time>2017-12-17T08:18:30.999Z</time>
      </trkpt>
      <trkpt lat="47.51281" lon="6.77265">
        <ele>424</ele>
        <time>2017-12-17T08:18:31.999Z</time>
      </trkpt>
      <trkpt lat="47.5128" lon="6.77264">
        <ele>424.1</ele>
        <time>2017-12-17T08:18:32.999Z</time>
      </trkpt>
      <trkpt lat="47.51277" lon="6.77262">
        <ele>424.2</ele>
        <time>2017-12-17T08:18:33.999Z</time>
      </trkpt>
      <trkpt lat="47.51274" lon="6.7726">
        <ele>424.2</ele>
        <time>2017-12-17T08:18:34.999Z</time>
      </trkpt>
      <trkpt lat="47.51272" lon="6.77259">
        <ele>424.4</ele>
        <time>2017-12-17T08:18:35.999Z</time>
      </trkpt>
      <trkpt lat="47.51269" lon="6.77257">
        <ele>424.5</ele>
        <time>2017-12-17T08:18:36.999Z</time>
      </trkpt>
      <trkpt lat="47.51266" lon="6.77255">
        <ele>424.6</ele>
        <time>2017-12-17T08:18:37.999Z</time>
      </trkpt>
      <trkpt lat="47.51263" lon="6.77251">
        <ele>425.6</ele>
        <time>2017-12-17T08:18:38.999Z</time>
      </trkpt>
      <trkpt lat="47.5126" lon="6.77248">
        <ele>425.6</ele>
        <time>2017-12-17T08:18:39.999Z</time>
      </trkpt>
      <trkpt lat="47.51258" lon="6.77243">
        <ele>426.5</ele>
        <time>2017-12-17T08:18:40.999Z</time>
      </trkpt>
      <trkpt lat="47.51255" lon="6.77238">
        <ele>427.5</ele>
        <time>2017-12-17T08:18:41.999Z</time>
      </trkpt>
      <trkpt lat="47.51251" lon="6.77233">
        <ele>428.8</ele>
        <time>2017-12-17T08:18:42.999Z</time>
      </trkpt>
      <trkpt lat="47.51249" lon="6.77229">
        <ele>429.5</ele>
        <time>2017-12-17T08:18:43.999Z</time>
      </trkpt>
      <trkpt lat="47.51245" lon="6.77224">
        <ele>429.4</ele>
        <time>2017-12-17T08:18:44.999Z</time>
      </trkpt>
      <trkpt lat="47.51242" lon="6.77218">
        <ele>429</ele>
        <time>2017-12-17T08:18:45.999Z</time>
      </trkpt>
      <trkpt lat="47.51239" lon="6.77212">
        <ele>428.6</ele>
        <time>2017-12-17T08:18:46.999Z</time>
      </trkpt>
      <trkpt lat="47.51235" lon="6.77207">
        <ele>428.9</ele>
        <time>2017-12-17T08:18:47.999Z</time>
      </trkpt>
      <trkpt lat="47.51232" lon="6.77201">
        <ele>429.1</ele>
        <time>2017-12-17T08:18:48.999Z</time>
      </trkpt>
      <trkpt lat="47.51229" lon="6.77195">
        <ele>429.3</ele>
        <time>2017-12-17T08:18:49.999Z</time>
      </trkpt>
      <trkpt lat="47.51227" lon="6.77189">
        <ele>430.3</ele>
        <time>2017-12-17T08:18:50.999Z</time>
      </trkpt>
      <trkpt lat="47.51224" lon="6.77182">
        <ele>430.2</ele>
        <time>2017-12-17T08:18:51.999Z</time>
      </trkpt>
      <trkpt lat="47.5122" lon="6.77176">
        <ele>430.7</ele>
        <time>2017-12-17T08:18:52.999Z</time>
      </trkpt>
      <trkpt lat="47.51217" lon="6.7717">
        <ele>430.9</ele>
        <time>2017-12-17T08:18:53.999Z</time>
      </trkpt>
      <trkpt lat="47.51214" lon="6.77164">
        <ele>430</ele>
        <time>2017-12-17T08:18:54.999Z</time>
      </trkpt>
      <trkpt lat="47.51211" lon="6.77158">
        <ele>429.7</ele>
        <time>2017-12-17T08:18:55.999Z</time>
      </trkpt>
      <trkpt lat="47.51208" lon="6.77151">
        <ele>429.1</ele>
        <time>2017-12-17T08:18:56.999Z</time>
      </trkpt>
      <trkpt lat="47.51204" lon="6.77145">
        <ele>428.7</ele>
        <time>2017-12-17T08:18:57.999Z</time>
      </trkpt>
      <trkpt lat="47.51201" lon="6.77137">
        <ele>428</ele>
        <time>2017-12-17T08:18:58.999Z</time>
      </trkpt>
      <trkpt lat="47.51197" lon="6.7713">
        <ele>427.9</ele>
        <time>2017-12-17T08:18:59.999Z</time>
      </trkpt>
      <trkpt lat="47.51194" lon="6.77122">
        <ele>428.4</ele>
        <time>2017-12-17T08:19:00.999Z</time>
      </trkpt>
      <trkpt lat="47.5119" lon="6.77115">
        <ele>428.4</ele>
        <time>2017-12-17T08:19:01.999Z</time>
      </trkpt>
      <trkpt lat="47.51187" lon="6.77109">
        <ele>428</ele>
        <time>2017-12-17T08:19:02.999Z</time>
      </trkpt>
      <trkpt lat="47.51183" lon="6.77101">
        <ele>427.6</ele>
        <time>2017-12-17T08:19:03.999Z</time>
      </trkpt>
      <trkpt lat="47.51179" lon="6.77095">
        <ele>427</ele>
        <time>2017-12-17T08:19:04.999Z</time>
      </trkpt>
      <trkpt lat="47.51175" lon="6.77088">
        <ele>426.2</ele>
        <time>2017-12-17T08:19:05.999Z</time>
      </trkpt>
      <trkpt lat="47.51171" lon="6.7708">
        <ele>426</ele>
        <time>2017-12-17T08:19:06.999Z</time>
      </trkpt>
      <trkpt lat="47.51166" lon="6.77072">
        <ele>426</ele>
        <time>2017-12-17T08:19:07.999Z</time>
      </trkpt>
      <trkpt lat="47.51161" lon="6.77063">
        <ele>426.1</ele>
        <time>2017-12-17T08:19:08.999Z</time>
      </trkpt>
      <trkpt lat="47.51156" lon="6.77056">
        <ele>426.1</ele>
        <time>2017-12-17T08:19:09.999Z</time>
      </trkpt>
      <trkpt lat="47.51151" lon="6.77053">
        <ele>426.6</ele>
        <time>2017-12-17T08:19:10.999Z</time>
      </trkpt>
      <trkpt lat="47.51146" lon="6.77049">
        <ele>426.3</ele>
        <time>2017-12-17T08:19:11.999Z</time>
      </trkpt>
      <trkpt lat="47.51139" lon="6.77043">
        <ele>426.4</ele>
        <time>2017-12-17T08:19:12.999Z</time>
      </trkpt>
      <trkpt lat="47.51133" lon="6.77038">
        <ele>426.1</ele>
        <time>2017-12-17T08:19:13.999Z</time>
      </trkpt>
      <trkpt lat="47.51128" lon="6.77033">
        <ele>425.6</ele>
        <time>2017-12-17T08:19:14.999Z</time>
      </trkpt>
      <trkpt lat="47.51123" lon="6.77029">
        <ele>425.4</ele>
        <time>2017-12-17T08:19:15.999Z</time>
      </trkpt>
      <trkpt lat="47.51118" lon="6.77025">
        <ele>425.1</ele>
        <time>2017-12-17T08:19:16.999Z</time>
      </trkpt>
      <trkpt lat="47.51113" lon="6.7702">
        <ele>424.2</ele>
        <time>2017-12-17T08:19:17.999Z</time>
      </trkpt>
      <trkpt lat="47.51107" lon="6.77015">
        <ele>423.9</ele>
        <time>2017-12-17T08:19:18.999Z</time>
      </trkpt>
      <trkpt lat="47.51101" lon="6.7701">
        <ele>423.8</ele>
        <time>2017-12-17T08:19:19.999Z</time>
      </trkpt>
      <trkpt lat="47.51095" lon="6.77005">
        <ele>423.7</ele>
        <time>2017-12-17T08:19:20.999Z</time>
      </trkpt>
      <trkpt lat="47.5109" lon="6.77">
        <ele>423.6</ele>
        <time>2017-12-17T08:19:21.999Z</time>
      </trkpt>
      <trkpt lat="47.51085" lon="6.76996">
        <ele>424.4</ele>
        <time>2017-12-17T08:19:22.999Z</time>
      </trkpt>
      <trkpt lat="47.5108" lon="6.76992">
        <ele>424.3</ele>
        <time>2017-12-17T08:19:23.999Z</time>
      </trkpt>
      <trkpt lat="47.51075" lon="6.76987">
        <ele>424.3</ele>
        <time>2017-12-17T08:19:24.999Z</time>
      </trkpt>
      <trkpt lat="47.51069" lon="6.76982">
        <ele>424.2</ele>
        <time>2017-12-17T08:19:25.999Z</time>
      </trkpt>
      <trkpt lat="47.51064" lon="6.76978">
        <ele>424.1</ele>
        <time>2017-12-17T08:19:26.999Z</time>
      </trkpt>
      <trkpt lat="47.5106" lon="6.76973">
        <ele>423.8</ele>
        <time>2017-12-17T08:19:27.999Z</time>
      </trkpt>
      <trkpt lat="47.51054" lon="6.76968">
        <ele>423.6</ele>
        <time>2017-12-17T08:19:28.999Z</time>
      </trkpt>
      <trkpt lat="47.51049" lon="6.76964">
        <ele>423.2</ele>
        <time>2017-12-17T08:19:29.999Z</time>
      </trkpt>
      <trkpt lat="47.51044" lon="6.7696">
        <ele>423.2</ele>
        <time>2017-12-17T08:19:30.999Z</time>
      </trkpt>
      <trkpt lat="47.5104" lon="6.76956">
        <ele>423.2</ele>
        <time>2017-12-17T08:19:31.999Z</time>
      </trkpt>
      <trkpt lat="47.51036" lon="6.76953">
        <ele>423.2</ele>
        <time>2017-12-17T08:19:32.999Z</time>
      </trkpt>
      <trkpt lat="47.51032" lon="6.76949">
        <ele>423.3</ele>
        <time>2017-12-17T08:19:33.999Z</time>
      </trkpt>
      <trkpt lat="47.51029" lon="6.76947">
        <ele>423.7</ele>
        <time>2017-12-17T08:19:34.999Z</time>
      </trkpt>
      <trkpt lat="47.51026" lon="6.76943">
        <ele>424.1</ele>
        <time>2017-12-17T08:19:35.999Z</time>
      </trkpt>
      <trkpt lat="47.51022" lon="6.76939">
        <ele>424</ele>
        <time>2017-12-17T08:19:36.999Z</time>
      </trkpt>
      <trkpt lat="47.51018" lon="6.76933">
        <ele>423.9</ele>
        <time>2017-12-17T08:19:37.999Z</time>
      </trkpt>
      <trkpt lat="47.51015" lon="6.76928">
        <ele>423.6</ele>
        <time>2017-12-17T08:19:38.999Z</time>
      </trkpt>
      <trkpt lat="47.51011" lon="6.76926">
        <ele>423.4</ele>
        <time>2017-12-17T08:19:39.999Z</time>
      </trkpt>
      <trkpt lat="47.51007" lon="6.76924">
        <ele>422.7</ele>
        <time>2017-12-17T08:19:40.999Z</time>
      </trkpt>
      <trkpt lat="47.51003" lon="6.76923">
        <ele>422.3</ele>
        <time>2017-12-17T08:19:41.999Z</time>
      </trkpt>
      <trkpt lat="47.51001" lon="6.76919">
        <ele>422.2</ele>
        <time>2017-12-17T08:19:42.999Z</time>
      </trkpt>
      <trkpt lat="47.50999" lon="6.76914">
        <ele>421.4</ele>
        <time>2017-12-17T08:19:43.999Z</time>
      </trkpt>
      <trkpt lat="47.50998" lon="6.76909">
        <ele>421.3</ele>
        <time>2017-12-17T08:19:44.999Z</time>
      </trkpt>
      <trkpt lat="47.50995" lon="6.76903">
        <ele>420.6</ele>
        <time>2017-12-17T08:19:45.999Z</time>
      </trkpt>
      <trkpt lat="47.50991" lon="6.769">
        <ele>420.4</ele>
        <time>2017-12-17T08:19:46.999Z</time>
      </trkpt>
      <trkpt lat="47.50986" lon="6.76897">
        <ele>420.2</ele>
        <time>2017-12-17T08:19:47.999Z</time>
      </trkpt>
      <trkpt lat="47.50981" lon="6.76895">
        <ele>420.5</ele>
        <time>2017-12-17T08:19:48.999Z</time>
      </trkpt>
      <trkpt lat="47.50976" lon="6.76894">
        <ele>420.6</ele>
        <time>2017-12-17T08:19:49.999Z</time>
      </trkpt>
      <trkpt lat="47.5097" lon="6.76893">
        <ele>421.6</ele>
        <time>2017-12-17T08:19:50.999Z</time>
      </trkpt>
      <trkpt lat="47.50966" lon="6.7689">
        <ele>422</ele>
        <time>2017-12-17T08:19:51.999Z</time>
      </trkpt>
      <trkpt lat="47.50963" lon="6.76889">
        <ele>421.4</ele>
        <time>2017-12-17T08:19:52.999Z</time>
      </trkpt>
      <trkpt lat="47.5096" lon="6.76889">
        <ele>421.4</ele>
        <time>2017-12-17T08:19:53.999Z</time>
      </trkpt>
      <trkpt lat="47.50957" lon="6.76886">
        <ele>421.5</ele>
        <time>2017-12-17T08:19:54.999Z</time>
      </trkpt>
      <trkpt lat="47.50953" lon="6.76882">
        <ele>421.8</ele>
        <time>2017-12-17T08:19:55.999Z</time>
      </trkpt>
      <trkpt lat="47.5095" lon="6.76879">
        <ele>421.9</ele>
        <time>2017-12-17T08:19:56.999Z</time>
      </trkpt>
      <trkpt lat="47.50945" lon="6.76875">
        <ele>422.8</ele>
        <time>2017-12-17T08:19:57.999Z</time>
      </trkpt>
      <trkpt lat="47.50942" lon="6.76871">
        <ele>423.7</ele>
        <time>2017-12-17T08:19:58.999Z</time>
      </trkpt>
      <trkpt lat="47.50939" lon="6.76868">
        <ele>424.4</ele>
        <time>2017-12-17T08:19:59.999Z</time>
      </trkpt>
      <trkpt lat="47.50936" lon="6.76864">
        <ele>424.4</ele>
        <time>2017-12-17T08:20:00.999Z</time>
      </trkpt>
      <trkpt lat="47.50933" lon="6.76861">
        <ele>424.5</ele>
        <time>2017-12-17T08:20:01.999Z</time>
      </trkpt>
      <trkpt lat="47.5093" lon="6.76856">
        <ele>424.8</ele>
        <time>2017-12-17T08:20:02.999Z</time>
      </trkpt>
      <trkpt lat="47.50927" lon="6.76853">
        <ele>424.8</ele>
        <time>2017-12-17T08:20:03.999Z</time>
      </trkpt>
      <trkpt lat="47.50926" lon="6.76848">
        <ele>425</ele>
        <time>2017-12-17T08:20:04.999Z</time>
      </trkpt>
      <trkpt lat="47.50923" lon="6.76843">
        <ele>424.8</ele>
        <time>2017-12-17T08:20:05.999Z</time>
      </trkpt>
      <trkpt lat="47.50921" lon="6.76838">
        <ele>424.8</ele>
        <time>2017-12-17T08:20:06.999Z</time>
      </trkpt>
      <trkpt lat="47.50919" lon="6.76834">
        <ele>425</ele>
        <time>2017-12-17T08:20:07.999Z</time>
      </trkpt>
      <trkpt lat="47.50918" lon="6.76832">
        <ele>425.4</ele>
        <time>2017-12-17T08:20:08.999Z</time>
      </trkpt>
      <trkpt lat="47.50916" lon="6.76828">
        <ele>426</ele>
        <time>2017-12-17T08:20:09.999Z</time>
      </trkpt>
      <trkpt lat="47.50914" lon="6.76823">
        <ele>426.7</ele>
        <time>2017-12-17T08:20:10.999Z</time>
      </trkpt>
      <trkpt lat="47.50912" lon="6.76818">
        <ele>427.7</ele>
        <time>2017-12-17T08:20:11.999Z</time>
      </trkpt>
      <trkpt lat="47.5091" lon="6.76814">
        <ele>427.8</ele>
        <time>2017-12-17T08:20:12.999Z</time>
      </trkpt>
      <trkpt lat="47.50908" lon="6.76809">
        <ele>427.8</ele>
        <time>2017-12-17T08:20:13.999Z</time>
      </trkpt>
      <trkpt lat="47.50907" lon="6.76805">
        <ele>428</ele>
        <time>2017-12-17T08:20:14.999Z</time>
      </trkpt>
      <trkpt lat="47.50904" lon="6.768">
        <ele>429.5</ele>
        <time>2017-12-17T08:20:15.999Z</time>
      </trkpt>
      <trkpt lat="47.50902" lon="6.76795">
        <ele>429.6</ele>
        <time>2017-12-17T08:20:16.999Z</time>
      </trkpt>
      <trkpt lat="47.509" lon="6.7679">
        <ele>429.7</ele>
        <time>2017-12-17T08:20:17.999Z</time>
      </trkpt>
      <trkpt lat="47.50898" lon="6.76785">
        <ele>430.8</ele>
        <time>2017-12-17T08:20:18.999Z</time>
      </trkpt>
      <trkpt lat="47.50896" lon="6.76781">
        <ele>430.8</ele>
        <time>2017-12-17T08:20:19.999Z</time>
      </trkpt>
      <trkpt lat="47.50894" lon="6.76776">
        <ele>430.9</ele>
        <time>2017-12-17T08:20:20.999Z</time>
      </trkpt>
      <trkpt lat="47.50893" lon="6.76773">
        <ele>431</ele>
        <time>2017-12-17T08:20:21.999Z</time>
      </trkpt>
      <trkpt lat="47.50891" lon="6.76769">
        <ele>431.1</ele>
        <time>2017-12-17T08:20:22.999Z</time>
      </trkpt>
      <trkpt lat="47.50889" lon="6.76765">
        <ele>431.2</ele>
        <time>2017-12-17T08:20:23.999Z</time>
      </trkpt>
      <trkpt lat="47.50887" lon="6.76759">
        <ele>431.2</ele>
        <time>2017-12-17T08:20:24.999Z</time>
      </trkpt>
      <trkpt lat="47.50885" lon="6.76754">
        <ele>431.3</ele>
        <time>2017-12-17T08:20:25.999Z</time>
      </trkpt>
      <trkpt lat="47.50884" lon="6.76749">
        <ele>431.3</ele>
        <time>2017-12-17T08:20:26.999Z</time>
      </trkpt>
      <trkpt lat="47.50883" lon="6.76745">
        <ele>431.4</ele>
        <time>2017-12-17T08:20:27.999Z</time>
      </trkpt>
      <trkpt lat="47.50881" lon="6.76741">
        <ele>431.5</ele>
        <time>2017-12-17T08:20:28.999Z</time>
      </trkpt>
      <trkpt lat="47.5088" lon="6.76738">
        <ele>431.5</ele>
        <time>2017-12-17T08:20:29.999Z</time>
      </trkpt>
      <trkpt lat="47.50879" lon="6.76734">
        <ele>431.5</ele>
        <time>2017-12-17T08:20:30.999Z</time>
      </trkpt>
      <trkpt lat="47.50878" lon="6.7673">
        <ele>431.6</ele>
        <time>2017-12-17T08:20:31.999Z</time>
      </trkpt>
      <trkpt lat="47.50876" lon="6.76726">
        <ele>431.7</ele>
        <time>2017-12-17T08:20:32.999Z</time>
      </trkpt>
      <trkpt lat="47.50875" lon="6.76722">
        <ele>431.7</ele>
        <time>2017-12-17T08:20:33.999Z</time>
      </trkpt>
      <trkpt lat="47.50874" lon="6.76718">
        <ele>431.7</ele>
        <time>2017-12-17T08:20:34.999Z</time>
      </trkpt>
      <trkpt lat="47.50872" lon="6.76714">
        <ele>431.8</ele>
        <time>2017-12-17T08:20:35.999Z</time>
      </trkpt>
      <trkpt lat="47.50871" lon="6.7671">
        <ele>431.9</ele>
        <time>2017-12-17T08:20:36.999Z</time>
      </trkpt>
      <trkpt lat="47.50869" lon="6.76707">
        <ele>432</ele>
        <time>2017-12-17T08:20:37.999Z</time>
      </trkpt>
      <trkpt lat="47.50868" lon="6.76702">
        <ele>432.1</ele>
        <time>2017-12-17T08:20:38.999Z</time>
      </trkpt>
      <trkpt lat="47.50867" lon="6.76699">
        <ele>432.2</ele>
        <time>2017-12-17T08:20:39.999Z</time>
      </trkpt>
      <trkpt lat="47.50866" lon="6.76695">
        <ele>432.3</ele>
        <time>2017-12-17T08:20:40.999Z</time>
      </trkpt>
      <trkpt lat="47.50864" lon="6.76691">
        <ele>432.4</ele>
        <time>2017-12-17T08:20:41.999Z</time>
      </trkpt>
      <trkpt lat="47.50863" lon="6.76687">
        <ele>432.4</ele>
        <time>2017-12-17T08:20:42.999Z</time>
      </trkpt>
      <trkpt lat="47.50861" lon="6.76682">
        <ele>432.5</ele>
        <time>2017-12-17T08:20:43.999Z</time>
      </trkpt>
      <trkpt lat="47.50859" lon="6.76679">
        <ele>432.6</ele>
        <time>2017-12-17T08:20:44.999Z</time>
      </trkpt>
      <trkpt lat="47.50857" lon="6.76674">
        <ele>432.7</ele>
        <time>2017-12-17T08:20:45.999Z</time>
      </trkpt>
      <trkpt lat="47.50855" lon="6.7667">
        <ele>432.8</ele>
        <time>2017-12-17T08:20:46.999Z</time>
      </trkpt>
      <trkpt lat="47.50853" lon="6.76667">
        <ele>432.9</ele>
        <time>2017-12-17T08:20:47.999Z</time>
      </trkpt>
      <trkpt lat="47.50852" lon="6.76663">
        <ele>433</ele>
        <time>2017-12-17T08:20:48.999Z</time>
      </trkpt>
      <trkpt lat="47.50851" lon="6.7666">
        <ele>433</ele>
        <time>2017-12-17T08:20:49.999Z</time>
      </trkpt>
      <trkpt lat="47.5085" lon="6.76656">
        <ele>433.1</ele>
        <time>2017-12-17T08:20:50.999Z</time>
      </trkpt>
      <trkpt lat="47.50848" lon="6.76652">
        <ele>433.1</ele>
        <time>2017-12-17T08:20:51.999Z</time>
      </trkpt>
      <trkpt lat="47.50846" lon="6.76649">
        <ele>433.2</ele>
        <time>2017-12-17T08:20:52.999Z</time>
      </trkpt>
      <trkpt lat="47.50845" lon="6.76644">
        <ele>433.3</ele>
        <time>2017-12-17T08:20:53.999Z</time>
      </trkpt>
      <trkpt lat="47.50843" lon="6.76641">
        <ele>433.5</ele>
        <time>2017-12-17T08:20:54.999Z</time>
      </trkpt>
      <trkpt lat="47.50841" lon="6.76637">
        <ele>433.6</ele>
        <time>2017-12-17T08:20:55.999Z</time>
      </trkpt>
      <trkpt lat="47.5084" lon="6.76634">
        <ele>433.7</ele>
        <time>2017-12-17T08:20:56.999Z</time>
      </trkpt>
      <trkpt lat="47.50838" lon="6.76631">
        <ele>433.8</ele>
        <time>2017-12-17T08:20:57.999Z</time>
      </trkpt>
      <trkpt lat="47.50836" lon="6.76628">
        <ele>434</ele>
        <time>2017-12-17T08:20:58.999Z</time>
      </trkpt>
      <trkpt lat="47.50834" lon="6.76624">
        <ele>434.1</ele>
        <time>2017-12-17T08:20:59.999Z</time>
      </trkpt>
      <trkpt lat="47.50833" lon="6.76621">
        <ele>434.3</ele>
        <time>2017-12-17T08:21:00.999Z</time>
      </trkpt>
      <trkpt lat="47.50831" lon="6.76616">
        <ele>434.4</ele>
        <time>2017-12-17T08:21:02.999Z</time>
      </trkpt>
      <trkpt lat="47.50829" lon="6.76612">
        <ele>434.6</ele>
        <time>2017-12-17T08:21:03.999Z</time>
      </trkpt>
      <trkpt lat="47.50828" lon="6.76609">
        <ele>434.7</ele>
        <time>2017-12-17T08:21:04.999Z</time>
      </trkpt>
      <trkpt lat="47.50827" lon="6.76605">
        <ele>434.8</ele>
        <time>2017-12-17T08:21:05.999Z</time>
      </trkpt>
      <trkpt lat="47.50825" lon="6.76601">
        <ele>434.9</ele>
        <time>2017-12-17T08:21:06.999Z</time>
      </trkpt>
      <trkpt lat="47.50824" lon="6.76598">
        <ele>435</ele>
        <time>2017-12-17T08:21:07.999Z</time>
      </trkpt>
      <trkpt lat="47.5082" lon="6.76595">
        <ele>435.2</ele>
        <time>2017-12-17T08:21:09.999Z</time>
      </trkpt>
      <trkpt lat="47.50819" lon="6.76596">
        <ele>435.3</ele>
        <time>2017-12-17T08:21:10.999Z</time>
      </trkpt>
      <trkpt lat="47.50816" lon="6.76598">
        <ele>435.4</ele>
        <time>2017-12-17T08:21:11.999Z</time>
      </trkpt>
      <trkpt lat="47.50813" lon="6.76597">
        <ele>435.4</ele>
        <time>2017-12-17T08:21:12.999Z</time>
      </trkpt>
      <trkpt lat="47.50811" lon="6.76595">
        <ele>435.5</ele>
        <time>2017-12-17T08:21:13.999Z</time>
      </trkpt>
      <trkpt lat="47.5081" lon="6.76592">
        <ele>435.6</ele>
        <time>2017-12-17T08:21:14.999Z</time>
      </trkpt>
      <trkpt lat="47.50808" lon="6.76586">
        <ele>435.7</ele>
        <time>2017-12-17T08:21:16.999Z</time>
      </trkpt>
      <trkpt lat="47.50806" lon="6.76586">
        <ele>435.8</ele>
        <time>2017-12-17T08:21:17.999Z</time>
      </trkpt>
      <trkpt lat="47.50804" lon="6.76588">
        <ele>435.9</ele>
        <time>2017-12-17T08:21:18.999Z</time>
      </trkpt>
      <trkpt lat="47.50799" lon="6.7659">
        <ele>435.9</ele>
        <time>2017-12-17T08:21:19.999Z</time>
      </trkpt>
      <trkpt lat="47.50795" lon="6.76592">
        <ele>435.8</ele>
        <time>2017-12-17T08:21:21.999Z</time>
      </trkpt>
      <trkpt lat="47.50793" lon="6.76592">
        <ele>435.8</ele>
        <time>2017-12-17T08:21:22.999Z</time>
      </trkpt>
      <trkpt lat="47.5079" lon="6.76592">
        <ele>436.9</ele>
        <time>2017-12-17T08:21:38.999Z</time>
      </trkpt>
      <trkpt lat="47.50784" lon="6.76594">
        <ele>436.9</ele>
        <time>2017-12-17T08:21:39.999Z</time>
      </trkpt>
      <trkpt lat="47.50784" lon="6.76594">
        <ele>437.3</ele>
        <time>2017-12-17T08:21:50.999Z</time>
      </trkpt>
      <trkpt lat="47.50773" lon="6.76598">
        <ele>437.3</ele>
        <time>2017-12-17T08:21:51.999Z</time>
      </trkpt>
      <trkpt lat="47.50769" lon="6.76597">
        <ele>437.4</ele>
        <time>2017-12-17T08:21:52.999Z</time>
      </trkpt>
      <trkpt lat="47.50767" lon="6.76597">
        <ele>437.4</ele>
        <time>2017-12-17T08:21:53.999Z</time>
      </trkpt>
      <trkpt lat="47.50764" lon="6.76596">
        <ele>437.5</ele>
        <time>2017-12-17T08:21:54.999Z</time>
      </trkpt>
      <trkpt lat="47.50761" lon="6.76596">
        <ele>437.6</ele>
        <time>2017-12-17T08:21:55.999Z</time>
      </trkpt>
      <trkpt lat="47.50758" lon="6.76596">
        <ele>437.7</ele>
        <time>2017-12-17T08:21:56.999Z</time>
      </trkpt>
      <trkpt lat="47.50755" lon="6.76596">
        <ele>437.8</ele>
        <time>2017-12-17T08:21:57.999Z</time>
      </trkpt>
      <trkpt lat="47.50752" lon="6.76597">
        <ele>437.9</ele>
        <time>2017-12-17T08:21:58.999Z</time>
      </trkpt>
      <trkpt lat="47.50749" lon="6.76597">
        <ele>438</ele>
        <time>2017-12-17T08:21:59.999Z</time>
      </trkpt>
      <trkpt lat="47.50746" lon="6.76596">
        <ele>438.1</ele>
        <time>2017-12-17T08:22:00.999Z</time>
      </trkpt>
      <trkpt lat="47.50743" lon="6.76596">
        <ele>438.2</ele>
        <time>2017-12-17T08:22:01.999Z</time>
      </trkpt>
      <trkpt lat="47.5074" lon="6.76596">
        <ele>438.3</ele>
        <time>2017-12-17T08:22:02.999Z</time>
      </trkpt>
      <trkpt lat="47.50737" lon="6.76596">
        <ele>438.4</ele>
        <time>2017-12-17T08:22:03.999Z</time>
      </trkpt>
      <trkpt lat="47.50734" lon="6.76596">
        <ele>438.5</ele>
        <time>2017-12-17T08:22:04.999Z</time>
      </trkpt>
      <trkpt lat="47.50732" lon="6.76596">
        <ele>438.5</ele>
        <time>2017-12-17T08:22:05.999Z</time>
      </trkpt>
      <trkpt lat="47.50729" lon="6.76595">
        <ele>438.6</ele>
        <time>2017-12-17T08:22:06.999Z</time>
      </trkpt>
      <trkpt lat="47.50726" lon="6.76594">
        <ele>438.7</ele>
        <time>2017-12-17T08:22:07.999Z</time>
      </trkpt>
      <trkpt lat="47.50723" lon="6.76594">
        <ele>438.7</ele>
        <time>2017-12-17T08:22:08.999Z</time>
      </trkpt>
      <trkpt lat="47.5072" lon="6.76593">
        <ele>438.7</ele>
        <time>2017-12-17T08:22:09.999Z</time>
      </trkpt>
      <trkpt lat="47.50717" lon="6.76593">
        <ele>438.8</ele>
        <time>2017-12-17T08:22:10.999Z</time>
      </trkpt>
      <trkpt lat="47.50714" lon="6.76592">
        <ele>438.8</ele>
        <time>2017-12-17T08:22:11.999Z</time>
      </trkpt>
      <trkpt lat="47.50711" lon="6.76591">
        <ele>438.9</ele>
        <time>2017-12-17T08:22:12.999Z</time>
      </trkpt>
      <trkpt lat="47.50708" lon="6.76591">
        <ele>439</ele>
        <time>2017-12-17T08:22:13.999Z</time>
      </trkpt>
      <trkpt lat="47.50705" lon="6.7659">
        <ele>439</ele>
        <time>2017-12-17T08:22:14.999Z</time>
      </trkpt>
      <trkpt lat="47.50702" lon="6.7659">
        <ele>439</ele>
        <time>2017-12-17T08:22:15.999Z</time>
      </trkpt>
      <trkpt lat="47.50699" lon="6.76589">
        <ele>439.2</ele>
        <time>2017-12-17T08:22:16.999Z</time>
      </trkpt>
      <trkpt lat="47.50696" lon="6.76589">
        <ele>439.3</ele>
        <time>2017-12-17T08:22:17.999Z</time>
      </trkpt>
      <trkpt lat="47.50694" lon="6.76589">
        <ele>439.4</ele>
        <time>2017-12-17T08:22:18.999Z</time>
      </trkpt>
      <trkpt lat="47.50691" lon="6.76588">
        <ele>439.5</ele>
        <time>2017-12-17T08:22:19.999Z</time>
      </trkpt>
      <trkpt lat="47.50687" lon="6.76588">
        <ele>439.5</ele>
        <time>2017-12-17T08:22:20.999Z</time>
      </trkpt>
      <trkpt lat="47.50684" lon="6.76588">
        <ele>439.6</ele>
        <time>2017-12-17T08:22:21.999Z</time>
      </trkpt>
      <trkpt lat="47.50682" lon="6.76588">
        <ele>439.7</ele>
        <time>2017-12-17T08:22:22.999Z</time>
      </trkpt>
      <trkpt lat="47.50679" lon="6.76589">
        <ele>439.8</ele>
        <time>2017-12-17T08:22:23.999Z</time>
      </trkpt>
      <trkpt lat="47.50676" lon="6.76589">
        <ele>439.8</ele>
        <time>2017-12-17T08:22:24.999Z</time>
      </trkpt>
      <trkpt lat="47.50673" lon="6.7659">
        <ele>439.9</ele>
        <time>2017-12-17T08:22:25.999Z</time>
      </trkpt>
      <trkpt lat="47.50671" lon="6.7659">
        <ele>440</ele>
        <time>2017-12-17T08:22:26.999Z</time>
      </trkpt>
      <trkpt lat="47.50667" lon="6.76591">
        <ele>440.1</ele>
        <time>2017-12-17T08:22:27.999Z</time>
      </trkpt>
      <trkpt lat="47.50664" lon="6.76592">
        <ele>440.2</ele>
        <time>2017-12-17T08:22:28.999Z</time>
      </trkpt>
      <trkpt lat="47.50662" lon="6.76593">
        <ele>440.3</ele>
        <time>2017-12-17T08:22:29.999Z</time>
      </trkpt>
      <trkpt lat="47.50659" lon="6.76594">
        <ele>440.4</ele>
        <time>2017-12-17T08:22:30.999Z</time>
      </trkpt>
      <trkpt lat="47.50657" lon="6.76595">
        <ele>440.5</ele>
        <time>2017-12-17T08:22:31.999Z</time>
      </trkpt>
      <trkpt lat="47.50654" lon="6.76597">
        <ele>440.6</ele>
        <time>2017-12-17T08:22:32.999Z</time>
      </trkpt>
      <trkpt lat="47.50651" lon="6.76598">
        <ele>440.6</ele>
        <time>2017-12-17T08:22:33.999Z</time>
      </trkpt>
      <trkpt lat="47.50649" lon="6.76599">
        <ele>440.7</ele>
        <time>2017-12-17T08:22:34.999Z</time>
      </trkpt>
      <trkpt lat="47.50646" lon="6.766">
        <ele>440.8</ele>
        <time>2017-12-17T08:22:35.999Z</time>
      </trkpt>
      <trkpt lat="47.50644" lon="6.76601">
        <ele>440.8</ele>
        <time>2017-12-17T08:22:36.999Z</time>
      </trkpt>
      <trkpt lat="47.5064" lon="6.76603">
        <ele>440.9</ele>
        <time>2017-12-17T08:22:37.999Z</time>
      </trkpt>
      <trkpt lat="47.50637" lon="6.76604">
        <ele>440.9</ele>
        <time>2017-12-17T08:22:38.999Z</time>
      </trkpt>
      <trkpt lat="47.50635" lon="6.76605">
        <ele>441</ele>
        <time>2017-12-17T08:22:39.999Z</time>
      </trkpt>
      <trkpt lat="47.50632" lon="6.76606">
        <ele>441.1</ele>
        <time>2017-12-17T08:22:40.999Z</time>
      </trkpt>
      <trkpt lat="47.50629" lon="6.76608">
        <ele>441.2</ele>
        <time>2017-12-17T08:22:41.999Z</time>
      </trkpt>
      <trkpt lat="47.50627" lon="6.7661">
        <ele>441.3</ele>
        <time>2017-12-17T08:22:42.999Z</time>
      </trkpt>
      <trkpt lat="47.50624" lon="6.76612">
        <ele>441.4</ele>
        <time>2017-12-17T08:22:43.999Z</time>
      </trkpt>
      <trkpt lat="47.50622" lon="6.76613">
        <ele>441.4</ele>
        <time>2017-12-17T08:22:44.999Z</time>
      </trkpt>
      <trkpt lat="47.50619" lon="6.76615">
        <ele>441.5</ele>
        <time>2017-12-17T08:22:45.999Z</time>
      </trkpt>
      <trkpt lat="47.50617" lon="6.76616">
        <ele>441.6</ele>
        <time>2017-12-17T08:22:46.999Z</time>
      </trkpt>
      <trkpt lat="47.50615" lon="6.76617">
        <ele>441.6</ele>
        <time>2017-12-17T08:22:47.999Z</time>
      </trkpt>
      <trkpt lat="47.50612" lon="6.76619">
        <ele>441.7</ele>
        <time>2017-12-17T08:22:48.999Z</time>
      </trkpt>
      <trkpt lat="47.5061" lon="6.76621">
        <ele>441.9</ele>
        <time>2017-12-17T08:22:49.999Z</time>
      </trkpt>
      <trkpt lat="47.50607" lon="6.76622">
        <ele>441.9</ele>
        <time>2017-12-17T08:22:50.999Z</time>
      </trkpt>
      <trkpt lat="47.50604" lon="6.76624">
        <ele>442.1</ele>
        <time>2017-12-17T08:22:51.999Z</time>
      </trkpt>
      <trkpt lat="47.50602" lon="6.76625">
        <ele>442.2</ele>
        <time>2017-12-17T08:22:52.999Z</time>
      </trkpt>
      <trkpt lat="47.50599" lon="6.76625">
        <ele>442.2</ele>
        <time>2017-12-17T08:22:53.999Z</time>
      </trkpt>
      <trkpt lat="47.50596" lon="6.76627">
        <ele>442.3</ele>
        <time>2017-12-17T08:22:54.999Z</time>
      </trkpt>
      <trkpt lat="47.50592" lon="6.76628">
        <ele>442.4</ele>
        <time>2017-12-17T08:22:55.999Z</time>
      </trkpt>
      <trkpt lat="47.5059" lon="6.76629">
        <ele>442.5</ele>
        <time>2017-12-17T08:22:56.999Z</time>
      </trkpt>
      <trkpt lat="47.50587" lon="6.76629">
        <ele>442.6</ele>
        <time>2017-12-17T08:22:57.999Z</time>
      </trkpt>
      <trkpt lat="47.50585" lon="6.7663">
        <ele>442.7</ele>
        <time>2017-12-17T08:22:58.999Z</time>
      </trkpt>
      <trkpt lat="47.50582" lon="6.76631">
        <ele>442.8</ele>
        <time>2017-12-17T08:22:59.999Z</time>
      </trkpt>
      <trkpt lat="47.50579" lon="6.76632">
        <ele>442.8</ele>
        <time>2017-12-17T08:23:00.999Z</time>
      </trkpt>
      <trkpt lat="47.50577" lon="6.76633">
        <ele>442.9</ele>
        <time>2017-12-17T08:23:01.999Z</time>
      </trkpt>
      <trkpt lat="47.50575" lon="6.76634">
        <ele>443</ele>
        <time>2017-12-17T08:23:02.999Z</time>
      </trkpt>
      <trkpt lat="47.50572" lon="6.76635">
        <ele>443.1</ele>
        <time>2017-12-17T08:23:03.999Z</time>
      </trkpt>
      <trkpt lat="47.5057" lon="6.76636">
        <ele>443.2</ele>
        <time>2017-12-17T08:23:04.999Z</time>
      </trkpt>
      <trkpt lat="47.50568" lon="6.76636">
        <ele>443.3</ele>
        <time>2017-12-17T08:23:05.999Z</time>
      </trkpt>
      <trkpt lat="47.50564" lon="6.76637">
        <ele>443.4</ele>
        <time>2017-12-17T08:23:06.999Z</time>
      </trkpt>
      <trkpt lat="47.50561" lon="6.76638">
        <ele>443.5</ele>
        <time>2017-12-17T08:23:07.999Z</time>
      </trkpt>
      <trkpt lat="47.50559" lon="6.76638">
        <ele>443.6</ele>
        <time>2017-12-17T08:23:08.999Z</time>
      </trkpt>
      <trkpt lat="47.50555" lon="6.76638">
        <ele>443.7</ele>
        <time>2017-12-17T08:23:09.999Z</time>
      </trkpt>
      <trkpt lat="47.50552" lon="6.76639">
        <ele>443.8</ele>
        <time>2017-12-17T08:23:10.999Z</time>
      </trkpt>
      <trkpt lat="47.5055" lon="6.7664">
        <ele>443.8</ele>
        <time>2017-12-17T08:23:11.999Z</time>
      </trkpt>
      <trkpt lat="47.50547" lon="6.7664">
        <ele>443.9</ele>
        <time>2017-12-17T08:23:12.999Z</time>
      </trkpt>
      <trkpt lat="47.50544" lon="6.76641">
        <ele>443.9</ele>
        <time>2017-12-17T08:23:13.999Z</time>
      </trkpt>
      <trkpt lat="47.50541" lon="6.76641">
        <ele>444</ele>
        <time>2017-12-17T08:23:14.999Z</time>
      </trkpt>
      <trkpt lat="47.50538" lon="6.76642">
        <ele>444</ele>
        <time>2017-12-17T08:23:15.999Z</time>
      </trkpt>
      <trkpt lat="47.50535" lon="6.76643">
        <ele>444.1</ele>
        <time>2017-12-17T08:23:16.999Z</time>
      </trkpt>
      <trkpt lat="47.50531" lon="6.76644">
        <ele>444.1</ele>
        <time>2017-12-17T08:23:17.999Z</time>
      </trkpt>
      <trkpt lat="47.50528" lon="6.76645">
        <ele>444.8</ele>
        <time>2017-12-17T08:23:18.999Z</time>
      </trkpt>
      <trkpt lat="47.50523" lon="6.76646">
        <ele>445.1</ele>
        <time>2017-12-17T08:23:19.999Z</time>
      </trkpt>
      <trkpt lat="47.50519" lon="6.76647">
        <ele>445.3</ele>
        <time>2017-12-17T08:23:20.999Z</time>
      </trkpt>
      <trkpt lat="47.50515" lon="6.76648">
        <ele>445.5</ele>
        <time>2017-12-17T08:23:21.999Z</time>
      </trkpt>
      <trkpt lat="47.50511" lon="6.76649">
        <ele>445.6</ele>
        <time>2017-12-17T08:23:22.999Z</time>
      </trkpt>
      <trkpt lat="47.50507" lon="6.76651">
        <ele>445.3</ele>
        <time>2017-12-17T08:23:23.999Z</time>
      </trkpt>
      <trkpt lat="47.50503" lon="6.76652">
        <ele>445.3</ele>
        <time>2017-12-17T08:23:24.999Z</time>
      </trkpt>
      <trkpt lat="47.50499" lon="6.76654">
        <ele>445.2</ele>
        <time>2017-12-17T08:23:25.999Z</time>
      </trkpt>
      <trkpt lat="47.50495" lon="6.76656">
        <ele>445.4</ele>
        <time>2017-12-17T08:23:26.999Z</time>
      </trkpt>
      <trkpt lat="47.50491" lon="6.76657">
        <ele>445.9</ele>
        <time>2017-12-17T08:23:27.999Z</time>
      </trkpt>
      <trkpt lat="47.50488" lon="6.76659">
        <ele>446.2</ele>
        <time>2017-12-17T08:23:28.999Z</time>
      </trkpt>
      <trkpt lat="47.50483" lon="6.7666">
        <ele>445.8</ele>
        <time>2017-12-17T08:23:29.999Z</time>
      </trkpt>
      <trkpt lat="47.50479" lon="6.76661">
        <ele>445.4</ele>
        <time>2017-12-17T08:23:30.999Z</time>
      </trkpt>
      <trkpt lat="47.50475" lon="6.76662">
        <ele>444.9</ele>
        <time>2017-12-17T08:23:31.999Z</time>
      </trkpt>
      <trkpt lat="47.5047" lon="6.76663">
        <ele>444.1</ele>
        <time>2017-12-17T08:23:32.999Z</time>
      </trkpt>
      <trkpt lat="47.50467" lon="6.76665">
        <ele>442.9</ele>
        <time>2017-12-17T08:23:33.999Z</time>
      </trkpt>
      <trkpt lat="47.50462" lon="6.76667">
        <ele>442.5</ele>
        <time>2017-12-17T08:23:34.999Z</time>
      </trkpt>
      <trkpt lat="47.50458" lon="6.76668">
        <ele>442.5</ele>
        <time>2017-12-17T08:23:35.999Z</time>
      </trkpt>
      <trkpt lat="47.50455" lon="6.7667">
        <ele>442.1</ele>
        <time>2017-12-17T08:23:36.999Z</time>
      </trkpt>
      <trkpt lat="47.5045" lon="6.76671">
        <ele>442.6</ele>
        <time>2017-12-17T08:23:37.999Z</time>
      </trkpt>
      <trkpt lat="47.50446" lon="6.76673">
        <ele>443.1</ele>
        <time>2017-12-17T08:23:38.999Z</time>
      </trkpt>
      <trkpt lat="47.50442" lon="6.76674">
        <ele>443</ele>
        <time>2017-12-17T08:23:39.999Z</time>
      </trkpt>
      <trkpt lat="47.50438" lon="6.76675">
        <ele>442.8</ele>
        <time>2017-12-17T08:23:40.999Z</time>
      </trkpt>
      <trkpt lat="47.50434" lon="6.76676">
        <ele>442.5</ele>
        <time>2017-12-17T08:23:41.999Z</time>
      </trkpt>
      <trkpt lat="47.5043" lon="6.76678">
        <ele>442.5</ele>
        <time>2017-12-17T08:23:42.999Z</time>
      </trkpt>
      <trkpt lat="47.50426" lon="6.76679">
        <ele>443.3</ele>
        <time>2017-12-17T08:23:43.999Z</time>
      </trkpt>
      <trkpt lat="47.50424" lon="6.7668">
        <ele>443.9</ele>
        <time>2017-12-17T08:23:44.999Z</time>
      </trkpt>
      <trkpt lat="47.5042" lon="6.76682">
        <ele>444.1</ele>
        <time>2017-12-17T08:23:45.999Z</time>
      </trkpt>
      <trkpt lat="47.50416" lon="6.76684">
        <ele>444.4</ele>
        <time>2017-12-17T08:23:46.999Z</time>
      </trkpt>
      <trkpt lat="47.50412" lon="6.76686">
        <ele>444.2</ele>
        <time>2017-12-17T08:23:47.999Z</time>
      </trkpt>
      <trkpt lat="47.50408" lon="6.76687">
        <ele>443.8</ele>
        <time>2017-12-17T08:23:48.999Z</time>
      </trkpt>
      <trkpt lat="47.50404" lon="6.76688">
        <ele>443.7</ele>
        <time>2017-12-17T08:23:49.999Z</time>
      </trkpt>
      <trkpt lat="47.504" lon="6.7669">
        <ele>443.7</ele>
        <time>2017-12-17T08:23:50.999Z</time>
      </trkpt>
      <trkpt lat="47.50396" lon="6.76692">
        <ele>443.7</ele>
        <time>2017-12-17T08:23:51.999Z</time>
      </trkpt>
      <trkpt lat="47.50392" lon="6.76694">
        <ele>443.7</ele>
        <time>2017-12-17T08:23:52.999Z</time>
      </trkpt>
      <trkpt lat="47.50389" lon="6.76695">
        <ele>443.7</ele>
        <time>2017-12-17T08:23:53.999Z</time>
      </trkpt>
      <trkpt lat="47.50385" lon="6.76697">
        <ele>443.4</ele>
        <time>2017-12-17T08:23:54.999Z</time>
      </trkpt>
      <trkpt lat="47.50381" lon="6.76699">
        <ele>443.2</ele>
        <time>2017-12-17T08:23:55.999Z</time>
      </trkpt>
      <trkpt lat="47.50378" lon="6.76701">
        <ele>443.2</ele>
        <time>2017-12-17T08:23:56.999Z</time>
      </trkpt>
      <trkpt lat="47.50374" lon="6.76703">
        <ele>443</ele>
        <time>2017-12-17T08:23:57.999Z</time>
      </trkpt>
      <trkpt lat="47.5037" lon="6.76704">
        <ele>443</ele>
        <time>2017-12-17T08:23:58.999Z</time>
      </trkpt>
      <trkpt lat="47.50367" lon="6.76706">
        <ele>443.2</ele>
        <time>2017-12-17T08:23:59.999Z</time>
      </trkpt>
      <trkpt lat="47.50364" lon="6.76707">
        <ele>443.8</ele>
        <time>2017-12-17T08:24:00.999Z</time>
      </trkpt>
      <trkpt lat="47.5036" lon="6.76709">
        <ele>444.2</ele>
        <time>2017-12-17T08:24:01.999Z</time>
      </trkpt>
      <trkpt lat="47.50356" lon="6.76711">
        <ele>444.2</ele>
        <time>2017-12-17T08:24:02.999Z</time>
      </trkpt>
      <trkpt lat="47.50353" lon="6.76712">
        <ele>444.2</ele>
        <time>2017-12-17T08:24:03.999Z</time>
      </trkpt>
      <trkpt lat="47.50349" lon="6.76714">
        <ele>444.2</ele>
        <time>2017-12-17T08:24:04.999Z</time>
      </trkpt>
      <trkpt lat="47.50346" lon="6.76715">
        <ele>444.1</ele>
        <time>2017-12-17T08:24:05.999Z</time>
      </trkpt>
      <trkpt lat="47.50343" lon="6.76716">
        <ele>444</ele>
        <time>2017-12-17T08:24:06.999Z</time>
      </trkpt>
      <trkpt lat="47.50339" lon="6.76717">
        <ele>443.9</ele>
        <time>2017-12-17T08:24:07.999Z</time>
      </trkpt>
      <trkpt lat="47.50335" lon="6.76719">
        <ele>444</ele>
        <time>2017-12-17T08:24:08.999Z</time>
      </trkpt>
      <trkpt lat="47.50332" lon="6.76721">
        <ele>443.9</ele>
        <time>2017-12-17T08:24:09.999Z</time>
      </trkpt>
      <trkpt lat="47.50329" lon="6.76722">
        <ele>443.9</ele>
        <time>2017-12-17T08:24:10.999Z</time>
      </trkpt>
      <trkpt lat="47.50325" lon="6.76724">
        <ele>443.9</ele>
        <time>2017-12-17T08:24:11.999Z</time>
      </trkpt>
      <trkpt lat="47.50321" lon="6.76725">
        <ele>443.7</ele>
        <time>2017-12-17T08:24:12.999Z</time>
      </trkpt>
      <trkpt lat="47.50318" lon="6.76727">
        <ele>443.6</ele>
        <time>2017-12-17T08:24:13.999Z</time>
      </trkpt>
      <trkpt lat="47.50315" lon="6.76728">
        <ele>443.5</ele>
        <time>2017-12-17T08:24:14.999Z</time>
      </trkpt>
      <trkpt lat="47.50311" lon="6.7673">
        <ele>443.2</ele>
        <time>2017-12-17T08:24:15.999Z</time>
      </trkpt>
      <trkpt lat="47.50308" lon="6.76732">
        <ele>443.3</ele>
        <time>2017-12-17T08:24:16.999Z</time>
      </trkpt>
      <trkpt lat="47.50304" lon="6.76733">
        <ele>443.2</ele>
        <time>2017-12-17T08:24:17.999Z</time>
      </trkpt>
      <trkpt lat="47.503" lon="6.76735">
        <ele>442.8</ele>
        <time>2017-12-17T08:24:18.999Z</time>
      </trkpt>
      <trkpt lat="47.50296" lon="6.76736">
        <ele>442.7</ele>
        <time>2017-12-17T08:24:19.999Z</time>
      </trkpt>
      <trkpt lat="47.50293" lon="6.76737">
        <ele>442.6</ele>
        <time>2017-12-17T08:24:20.999Z</time>
      </trkpt>
      <trkpt lat="47.5029" lon="6.76737">
        <ele>442.6</ele>
        <time>2017-12-17T08:24:21.999Z</time>
      </trkpt>
      <trkpt lat="47.50285" lon="6.76739">
        <ele>442.5</ele>
        <time>2017-12-17T08:24:22.999Z</time>
      </trkpt>
      <trkpt lat="47.50282" lon="6.76739">
        <ele>442.5</ele>
        <time>2017-12-17T08:24:23.999Z</time>
      </trkpt>
      <trkpt lat="47.50279" lon="6.76739">
        <ele>442.6</ele>
        <time>2017-12-17T08:24:24.999Z</time>
      </trkpt>
      <trkpt lat="47.50274" lon="6.76741">
        <ele>442.6</ele>
        <time>2017-12-17T08:24:25.999Z</time>
      </trkpt>
      <trkpt lat="47.50271" lon="6.76742">
        <ele>442.7</ele>
        <time>2017-12-17T08:24:26.999Z</time>
      </trkpt>
      <trkpt lat="47.50268" lon="6.76743">
        <ele>442.8</ele>
        <time>2017-12-17T08:24:27.999Z</time>
      </trkpt>
      <trkpt lat="47.50266" lon="6.76744">
        <ele>442.9</ele>
        <time>2017-12-17T08:24:28.999Z</time>
      </trkpt>
      <trkpt lat="47.50263" lon="6.76745">
        <ele>442.9</ele>
        <time>2017-12-17T08:24:29.999Z</time>
      </trkpt>
      <trkpt lat="47.5026" lon="6.76745">
        <ele>443</ele>
        <time>2017-12-17T08:24:30.999Z</time>
      </trkpt>
      <trkpt lat="47.50258" lon="6.76746">
        <ele>443</ele>
        <time>2017-12-17T08:24:31.999Z</time>
      </trkpt>
      <trkpt lat="47.50255" lon="6.76746">
        <ele>443.1</ele>
        <time>2017-12-17T08:24:32.999Z</time>
      </trkpt>
      <trkpt lat="47.50252" lon="6.76746">
        <ele>443.2</ele>
        <time>2017-12-17T08:24:33.999Z</time>
      </trkpt>
      <trkpt lat="47.5025" lon="6.76745">
        <ele>443.3</ele>
        <time>2017-12-17T08:24:34.999Z</time>
      </trkpt>
      <trkpt lat="47.50247" lon="6.76743">
        <ele>443.5</ele>
        <time>2017-12-17T08:24:35.999Z</time>
      </trkpt>
      <trkpt lat="47.50245" lon="6.76741">
        <ele>443.6</ele>
        <time>2017-12-17T08:24:36.999Z</time>
      </trkpt>
      <trkpt lat="47.50242" lon="6.76736">
        <ele>443.6</ele>
        <time>2017-12-17T08:24:38.999Z</time>
      </trkpt>
      <trkpt lat="47.5024" lon="6.76733">
        <ele>443.7</ele>
        <time>2017-12-17T08:24:39.999Z</time>
      </trkpt>
      <trkpt lat="47.50238" lon="6.76731">
        <ele>443.7</ele>
        <time>2017-12-17T08:24:40.999Z</time>
      </trkpt>
      <trkpt lat="47.50237" lon="6.76728">
        <ele>443.8</ele>
        <time>2017-12-17T08:24:41.999Z</time>
      </trkpt>
      <trkpt lat="47.50236" lon="6.76724">
        <ele>443.8</ele>
        <time>2017-12-17T08:24:42.999Z</time>
      </trkpt>
      <trkpt lat="47.50234" lon="6.7672">
        <ele>443.9</ele>
        <time>2017-12-17T08:24:43.999Z</time>
      </trkpt>
      <trkpt lat="47.50233" lon="6.76716">
        <ele>443.9</ele>
        <time>2017-12-17T08:24:44.999Z</time>
      </trkpt>
      <trkpt lat="47.50231" lon="6.76712">
        <ele>443.9</ele>
        <time>2017-12-17T08:24:45.999Z</time>
      </trkpt>
      <trkpt lat="47.5023" lon="6.76708">
        <ele>443.9</ele>
        <time>2017-12-17T08:24:46.999Z</time>
      </trkpt>
      <trkpt lat="47.50228" lon="6.76704">
        <ele>443.9</ele>
        <time>2017-12-17T08:24:47.999Z</time>
      </trkpt>
      <trkpt lat="47.50227" lon="6.767">
        <ele>443.9</ele>
        <time>2017-12-17T08:24:48.999Z</time>
      </trkpt>
      <trkpt lat="47.50225" lon="6.76697">
        <ele>443.9</ele>
        <time>2017-12-17T08:24:49.999Z</time>
      </trkpt>
      <trkpt lat="47.50224" lon="6.76693">
        <ele>443.8</ele>
        <time>2017-12-17T08:24:50.999Z</time>
      </trkpt>
      <trkpt lat="47.50224" lon="6.7669">
        <ele>443.8</ele>
        <time>2017-12-17T08:24:51.999Z</time>
      </trkpt>
      <trkpt lat="47.50223" lon="6.76687">
        <ele>443.8</ele>
        <time>2017-12-17T08:24:52.999Z</time>
      </trkpt>
      <trkpt lat="47.50222" lon="6.76684">
        <ele>443.9</ele>
        <time>2017-12-17T08:24:53.999Z</time>
      </trkpt>
      <trkpt lat="47.50221" lon="6.76681">
        <ele>443.9</ele>
        <time>2017-12-17T08:24:54.999Z</time>
      </trkpt>
      <trkpt lat="47.5022" lon="6.76677">
        <ele>443.9</ele>
        <time>2017-12-17T08:24:55.999Z</time>
      </trkpt>
      <trkpt lat="47.50219" lon="6.76673">
        <ele>443.8</ele>
        <time>2017-12-17T08:24:56.999Z</time>
      </trkpt>
      <trkpt lat="47.50218" lon="6.7667">
        <ele>443.8</ele>
        <time>2017-12-17T08:24:57.999Z</time>
      </trkpt>
      <trkpt lat="47.50217" lon="6.76666">
        <ele>443.8</ele>
        <time>2017-12-17T08:24:58.999Z</time>
      </trkpt>
      <trkpt lat="47.50216" lon="6.76662">
        <ele>443.8</ele>
        <time>2017-12-17T08:24:59.999Z</time>
      </trkpt>
      <trkpt lat="47.50215" lon="6.76659">
        <ele>443.9</ele>
        <time>2017-12-17T08:25:00.999Z</time>
      </trkpt>
      <trkpt lat="47.50214" lon="6.76655">
        <ele>443.9</ele>
        <time>2017-12-17T08:25:01.999Z</time>
      </trkpt>
      <trkpt lat="47.50213" lon="6.76651">
        <ele>444</ele>
        <time>2017-12-17T08:25:02.999Z</time>
      </trkpt>
      <trkpt lat="47.50211" lon="6.76647">
        <ele>443.9</ele>
        <time>2017-12-17T08:25:03.999Z</time>
      </trkpt>
      <trkpt lat="47.5021" lon="6.76643">
        <ele>443.9</ele>
        <time>2017-12-17T08:25:04.999Z</time>
      </trkpt>
      <trkpt lat="47.50209" lon="6.76639">
        <ele>444</ele>
        <time>2017-12-17T08:25:05.999Z</time>
      </trkpt>
      <trkpt lat="47.50206" lon="6.76633">
        <ele>443.9</ele>
        <time>2017-12-17T08:25:06.999Z</time>
      </trkpt>
      <trkpt lat="47.50205" lon="6.76628">
        <ele>444</ele>
        <time>2017-12-17T08:25:07.999Z</time>
      </trkpt>
      <trkpt lat="47.50204" lon="6.76624">
        <ele>444</ele>
        <time>2017-12-17T08:25:08.999Z</time>
      </trkpt>
      <trkpt lat="47.50202" lon="6.76619">
        <ele>444</ele>
        <time>2017-12-17T08:25:09.999Z</time>
      </trkpt>
      <trkpt lat="47.50201" lon="6.76615">
        <ele>444</ele>
        <time>2017-12-17T08:25:10.999Z</time>
      </trkpt>
      <trkpt lat="47.50199" lon="6.76611">
        <ele>444</ele>
        <time>2017-12-17T08:25:11.999Z</time>
      </trkpt>
      <trkpt lat="47.50198" lon="6.76608">
        <ele>444.1</ele>
        <time>2017-12-17T08:25:12.999Z</time>
      </trkpt>
      <trkpt lat="47.50197" lon="6.76603">
        <ele>444.1</ele>
        <time>2017-12-17T08:25:13.999Z</time>
      </trkpt>
      <trkpt lat="47.50196" lon="6.766">
        <ele>444.2</ele>
        <time>2017-12-17T08:25:14.999Z</time>
      </trkpt>
      <trkpt lat="47.50195" lon="6.76597">
        <ele>444.1</ele>
        <time>2017-12-17T08:25:15.999Z</time>
      </trkpt>
      <trkpt lat="47.50194" lon="6.76593">
        <ele>444.1</ele>
        <time>2017-12-17T08:25:16.999Z</time>
      </trkpt>
      <trkpt lat="47.50193" lon="6.76586">
        <ele>443.8</ele>
        <time>2017-12-17T08:25:18.999Z</time>
      </trkpt>
      <trkpt lat="47.50192" lon="6.76583">
        <ele>443.5</ele>
        <time>2017-12-17T08:25:19.999Z</time>
      </trkpt>
      <trkpt lat="47.50192" lon="6.7658">
        <ele>443.4</ele>
        <time>2017-12-17T08:25:20.999Z</time>
      </trkpt>
      <trkpt lat="47.50192" lon="6.76575">
        <ele>443.2</ele>
        <time>2017-12-17T08:25:21.999Z</time>
      </trkpt>
      <trkpt lat="47.50192" lon="6.76571">
        <ele>443.1</ele>
        <time>2017-12-17T08:25:22.999Z</time>
      </trkpt>
      <trkpt lat="47.50194" lon="6.76566">
        <ele>443.1</ele>
        <time>2017-12-17T08:25:23.999Z</time>
      </trkpt>
      <trkpt lat="47.50196" lon="6.76562">
        <ele>442.8</ele>
        <time>2017-12-17T08:25:25.999Z</time>
      </trkpt>
      <trkpt lat="47.50198" lon="6.76561">
        <ele>442.7</ele>
        <time>2017-12-17T08:25:26.999Z</time>
      </trkpt>
      <trkpt lat="47.50201" lon="6.7656">
        <ele>442.6</ele>
        <time>2017-12-17T08:25:27.999Z</time>
      </trkpt>
      <trkpt lat="47.50205" lon="6.7656">
        <ele>442.5</ele>
        <time>2017-12-17T08:25:28.999Z</time>
      </trkpt>
      <trkpt lat="47.50209" lon="6.7656">
        <ele>442.4</ele>
        <time>2017-12-17T08:25:29.999Z</time>
      </trkpt>
      <trkpt lat="47.50211" lon="6.76558">
        <ele>442.3</ele>
        <time>2017-12-17T08:25:30.999Z</time>
      </trkpt>
      <trkpt lat="47.50213" lon="6.76552">
        <ele>442.1</ele>
        <time>2017-12-17T08:25:31.999Z</time>
      </trkpt>
      <trkpt lat="47.50213" lon="6.76549">
        <ele>441.8</ele>
        <time>2017-12-17T08:25:32.999Z</time>
      </trkpt>
      <trkpt lat="47.50212" lon="6.76546">
        <ele>441.5</ele>
        <time>2017-12-17T08:25:33.999Z</time>
      </trkpt>
      <trkpt lat="47.50211" lon="6.76541">
        <ele>439.4</ele>
        <time>2017-12-17T08:25:34.999Z</time>
      </trkpt>
      <trkpt lat="47.50209" lon="6.76535">
        <ele>437.3</ele>
        <time>2017-12-17T08:25:35.999Z</time>
      </trkpt>
      <trkpt lat="47.50208" lon="6.76531">
        <ele>437.2</ele>
        <time>2017-12-17T08:25:36.999Z</time>
      </trkpt>
      <trkpt lat="47.50206" lon="6.76522">
        <ele>435.5</ele>
        <time>2017-12-17T08:25:37.999Z</time>
      </trkpt>
      <trkpt lat="47.50204" lon="6.76516">
        <ele>434.4</ele>
        <time>2017-12-17T08:25:38.999Z</time>
      </trkpt>
      <trkpt lat="47.50202" lon="6.76509">
        <ele>434.1</ele>
        <time>2017-12-17T08:25:39.999Z</time>
      </trkpt>
      <trkpt lat="47.502" lon="6.76502">
        <ele>433.6</ele>
        <time>2017-12-17T08:25:40.999Z</time>
      </trkpt>
      <trkpt lat="47.50198" lon="6.76494">
        <ele>433.1</ele>
        <time>2017-12-17T08:25:41.999Z</time>
      </trkpt>
      <trkpt lat="47.50196" lon="6.76486">
        <ele>433.3</ele>
        <time>2017-12-17T08:25:42.999Z</time>
      </trkpt>
      <trkpt lat="47.50194" lon="6.76478">
        <ele>433.6</ele>
        <time>2017-12-17T08:25:43.999Z</time>
      </trkpt>
      <trkpt lat="47.50192" lon="6.76471">
        <ele>433.4</ele>
        <time>2017-12-17T08:25:44.999Z</time>
      </trkpt>
      <trkpt lat="47.50188" lon="6.7646">
        <ele>433</ele>
        <time>2017-12-17T08:25:45.999Z</time>
      </trkpt>
      <trkpt lat="47.50184" lon="6.76451">
        <ele>432.7</ele>
        <time>2017-12-17T08:25:46.999Z</time>
      </trkpt>
      <trkpt lat="47.5018" lon="6.7644">
        <ele>432.9</ele>
        <time>2017-12-17T08:25:47.999Z</time>
      </trkpt>
      <trkpt lat="47.50175" lon="6.76431">
        <ele>432.5</ele>
        <time>2017-12-17T08:25:48.999Z</time>
      </trkpt>
      <trkpt lat="47.50172" lon="6.76423">
        <ele>432</ele>
        <time>2017-12-17T08:25:49.999Z</time>
      </trkpt>
      <trkpt lat="47.50169" lon="6.76413">
        <ele>432</ele>
        <time>2017-12-17T08:25:50.999Z</time>
      </trkpt>
      <trkpt lat="47.50166" lon="6.76403">
        <ele>431.6</ele>
        <time>2017-12-17T08:25:51.999Z</time>
      </trkpt>
      <trkpt lat="47.50163" lon="6.76395">
        <ele>431.2</ele>
        <time>2017-12-17T08:25:52.999Z</time>
      </trkpt>
      <trkpt lat="47.5016" lon="6.76386">
        <ele>431.1</ele>
        <time>2017-12-17T08:25:53.999Z</time>
      </trkpt>
      <trkpt lat="47.50156" lon="6.76376">
        <ele>431.1</ele>
        <time>2017-12-17T08:25:54.999Z</time>
      </trkpt>
      <trkpt lat="47.50154" lon="6.76369">
        <ele>431.1</ele>
        <time>2017-12-17T08:25:55.999Z</time>
      </trkpt>
      <trkpt lat="47.50152" lon="6.76363">
        <ele>429.8</ele>
        <time>2017-12-17T08:25:56.999Z</time>
      </trkpt>
      <trkpt lat="47.50149" lon="6.76355">
        <ele>428.8</ele>
        <time>2017-12-17T08:25:57.999Z</time>
      </trkpt>
      <trkpt lat="47.50146" lon="6.76347">
        <ele>428.5</ele>
        <time>2017-12-17T08:25:58.999Z</time>
      </trkpt>
      <trkpt lat="47.50143" lon="6.7634">
        <ele>428.1</ele>
        <time>2017-12-17T08:25:59.999Z</time>
      </trkpt>
      <trkpt lat="47.50141" lon="6.76332">
        <ele>427.6</ele>
        <time>2017-12-17T08:26:00.999Z</time>
      </trkpt>
      <trkpt lat="47.50139" lon="6.76324">
        <ele>426.9</ele>
        <time>2017-12-17T08:26:01.999Z</time>
      </trkpt>
      <trkpt lat="47.50137" lon="6.76317">
        <ele>426.9</ele>
        <time>2017-12-17T08:26:02.999Z</time>
      </trkpt>
      <trkpt lat="47.50135" lon="6.76311">
        <ele>426.9</ele>
        <time>2017-12-17T08:26:03.999Z</time>
      </trkpt>
      <trkpt lat="47.50133" lon="6.76303">
        <ele>426.1</ele>
        <time>2017-12-17T08:26:04.999Z</time>
      </trkpt>
      <trkpt lat="47.50131" lon="6.76296">
        <ele>426</ele>
        <time>2017-12-17T08:26:05.999Z</time>
      </trkpt>
      <trkpt lat="47.50128" lon="6.7629">
        <ele>425.4</ele>
        <time>2017-12-17T08:26:06.999Z</time>
      </trkpt>
      <trkpt lat="47.50127" lon="6.76281">
        <ele>424.6</ele>
        <time>2017-12-17T08:26:07.999Z</time>
      </trkpt>
      <trkpt lat="47.50126" lon="6.76272">
        <ele>423.6</ele>
        <time>2017-12-17T08:26:08.999Z</time>
      </trkpt>
      <trkpt lat="47.50124" lon="6.76263">
        <ele>422.8</ele>
        <time>2017-12-17T08:26:09.999Z</time>
      </trkpt>
      <trkpt lat="47.50121" lon="6.76252">
        <ele>422</ele>
        <time>2017-12-17T08:26:10.999Z</time>
      </trkpt>
      <trkpt lat="47.50119" lon="6.76243">
        <ele>420.7</ele>
        <time>2017-12-17T08:26:11.999Z</time>
      </trkpt>
      <trkpt lat="47.50117" lon="6.76233">
        <ele>419.5</ele>
        <time>2017-12-17T08:26:12.999Z</time>
      </trkpt>
      <trkpt lat="47.50115" lon="6.76223">
        <ele>418.2</ele>
        <time>2017-12-17T08:26:13.999Z</time>
      </trkpt>
      <trkpt lat="47.50114" lon="6.76212">
        <ele>417.1</ele>
        <time>2017-12-17T08:26:14.999Z</time>
      </trkpt>
      <trkpt lat="47.50112" lon="6.76202">
        <ele>415.8</ele>
        <time>2017-12-17T08:26:15.999Z</time>
      </trkpt>
      <trkpt lat="47.50111" lon="6.76195">
        <ele>414.2</ele>
        <time>2017-12-17T08:26:16.999Z</time>
      </trkpt>
      <trkpt lat="47.5011" lon="6.76186">
        <ele>413.2</ele>
        <time>2017-12-17T08:26:17.999Z</time>
      </trkpt>
      <trkpt lat="47.50108" lon="6.76177">
        <ele>412.4</ele>
        <time>2017-12-17T08:26:18.999Z</time>
      </trkpt>
      <trkpt lat="47.50106" lon="6.76169">
        <ele>412</ele>
        <time>2017-12-17T08:26:19.999Z</time>
      </trkpt>
      <trkpt lat="47.50104" lon="6.76159">
        <ele>411.6</ele>
        <time>2017-12-17T08:26:20.999Z</time>
      </trkpt>
      <trkpt lat="47.50101" lon="6.76148">
        <ele>411.5</ele>
        <time>2017-12-17T08:26:21.999Z</time>
      </trkpt>
      <trkpt lat="47.50099" lon="6.76137">
        <ele>410.7</ele>
        <time>2017-12-17T08:26:22.999Z</time>
      </trkpt>
      <trkpt lat="47.50098" lon="6.76125">
        <ele>410.1</ele>
        <time>2017-12-17T08:26:23.999Z</time>
      </trkpt>
      <trkpt lat="47.50097" lon="6.76116">
        <ele>409.7</ele>
        <time>2017-12-17T08:26:24.999Z</time>
      </trkpt>
      <trkpt lat="47.50095" lon="6.76105">
        <ele>409.6</ele>
        <time>2017-12-17T08:26:25.999Z</time>
      </trkpt>
      <trkpt lat="47.50094" lon="6.76096">
        <ele>409.8</ele>
        <time>2017-12-17T08:26:26.999Z</time>
      </trkpt>
      <trkpt lat="47.50093" lon="6.76087">
        <ele>410</ele>
        <time>2017-12-17T08:26:27.999Z</time>
      </trkpt>
      <trkpt lat="47.50091" lon="6.76079">
        <ele>410.7</ele>
        <time>2017-12-17T08:26:28.999Z</time>
      </trkpt>
      <trkpt lat="47.50089" lon="6.7607">
        <ele>410.9</ele>
        <time>2017-12-17T08:26:29.999Z</time>
      </trkpt>
      <trkpt lat="47.50087" lon="6.76063">
        <ele>411</ele>
        <time>2017-12-17T08:26:30.999Z</time>
      </trkpt>
      <trkpt lat="47.50084" lon="6.76053">
        <ele>410.5</ele>
        <time>2017-12-17T08:26:31.999Z</time>
      </trkpt>
      <trkpt lat="47.50081" lon="6.76041">
        <ele>409.7</ele>
        <time>2017-12-17T08:26:32.999Z</time>
      </trkpt>
      <trkpt lat="47.50079" lon="6.76033">
        <ele>409.3</ele>
        <time>2017-12-17T08:26:33.999Z</time>
      </trkpt>
      <trkpt lat="47.50077" lon="6.76023">
        <ele>409.1</ele>
        <time>2017-12-17T08:26:34.999Z</time>
      </trkpt>
      <trkpt lat="47.50074" lon="6.76013">
        <ele>408.3</ele>
        <time>2017-12-17T08:26:35.999Z</time>
      </trkpt>
      <trkpt lat="47.50071" lon="6.76003">
        <ele>407.2</ele>
        <time>2017-12-17T08:26:36.999Z</time>
      </trkpt>
      <trkpt lat="47.50066" lon="6.75996">
        <ele>406.8</ele>
        <time>2017-12-17T08:26:37.999Z</time>
      </trkpt>
      <trkpt lat="47.50061" lon="6.75988">
        <ele>406.3</ele>
        <time>2017-12-17T08:26:38.999Z</time>
      </trkpt>
      <trkpt lat="47.50057" lon="6.7598">
        <ele>405.4</ele>
        <time>2017-12-17T08:26:39.999Z</time>
      </trkpt>
      <trkpt lat="47.50054" lon="6.75976">
        <ele>405.4</ele>
        <time>2017-12-17T08:26:40.999Z</time>
      </trkpt>
      <trkpt lat="47.50051" lon="6.75971">
        <ele>405.4</ele>
        <time>2017-12-17T08:26:41.999Z</time>
      </trkpt>
      <trkpt lat="47.50047" lon="6.75966">
        <ele>404.6</ele>
        <time>2017-12-17T08:26:42.999Z</time>
      </trkpt>
      <trkpt lat="47.50043" lon="6.7596">
        <ele>403</ele>
        <time>2017-12-17T08:26:43.999Z</time>
      </trkpt>
      <trkpt lat="47.50039" lon="6.75955">
        <ele>403.2</ele>
        <time>2017-12-17T08:26:44.999Z</time>
      </trkpt>
      <trkpt lat="47.50035" lon="6.75949">
        <ele>402.4</ele>
        <time>2017-12-17T08:26:45.999Z</time>
      </trkpt>
      <trkpt lat="47.5003" lon="6.75942">
        <ele>401.5</ele>
        <time>2017-12-17T08:26:46.999Z</time>
      </trkpt>
      <trkpt lat="47.50027" lon="6.75935">
        <ele>399.9</ele>
        <time>2017-12-17T08:26:47.999Z</time>
      </trkpt>
      <trkpt lat="47.50025" lon="6.75929">
        <ele>399.1</ele>
        <time>2017-12-17T08:26:48.999Z</time>
      </trkpt>
      <trkpt lat="47.50023" lon="6.75925">
        <ele>398.8</ele>
        <time>2017-12-17T08:26:49.999Z</time>
      </trkpt>
      <trkpt lat="47.5002" lon="6.75921">
        <ele>399.7</ele>
        <time>2017-12-17T08:26:50.999Z</time>
      </trkpt>
      <trkpt lat="47.50017" lon="6.75913">
        <ele>400.2</ele>
        <time>2017-12-17T08:26:51.999Z</time>
      </trkpt>
      <trkpt lat="47.50012" lon="6.75904">
        <ele>401</ele>
        <time>2017-12-17T08:26:52.999Z</time>
      </trkpt>
      <trkpt lat="47.50008" lon="6.75898">
        <ele>401.1</ele>
        <time>2017-12-17T08:26:53.999Z</time>
      </trkpt>
      <trkpt lat="47.50006" lon="6.7589">
        <ele>400.4</ele>
        <time>2017-12-17T08:26:54.999Z</time>
      </trkpt>
      <trkpt lat="47.50003" lon="6.75882">
        <ele>399.6</ele>
        <time>2017-12-17T08:26:55.999Z</time>
      </trkpt>
      <trkpt lat="47.5" lon="6.75875">
        <ele>398.7</ele>
        <time>2017-12-17T08:26:56.999Z</time>
      </trkpt>
      <trkpt lat="47.49998" lon="6.75869">
        <ele>398</ele>
        <time>2017-12-17T08:26:57.999Z</time>
      </trkpt>
      <trkpt lat="47.49994" lon="6.75864">
        <ele>397.7</ele>
        <time>2017-12-17T08:26:58.999Z</time>
      </trkpt>
      <trkpt lat="47.49989" lon="6.75855">
        <ele>398</ele>
        <time>2017-12-17T08:26:59.999Z</time>
      </trkpt>
      <trkpt lat="47.49985" lon="6.75846">
        <ele>397.3</ele>
        <time>2017-12-17T08:27:00.999Z</time>
      </trkpt>
      <trkpt lat="47.4998" lon="6.75835">
        <ele>396.9</ele>
        <time>2017-12-17T08:27:01.999Z</time>
      </trkpt>
      <trkpt lat="47.49975" lon="6.75828">
        <ele>396.7</ele>
        <time>2017-12-17T08:27:02.999Z</time>
      </trkpt>
      <trkpt lat="47.49971" lon="6.7582">
        <ele>396.5</ele>
        <time>2017-12-17T08:27:03.999Z</time>
      </trkpt>
      <trkpt lat="47.49966" lon="6.75813">
        <ele>397.9</ele>
        <time>2017-12-17T08:27:04.999Z</time>
      </trkpt>
      <trkpt lat="47.49962" lon="6.75805">
        <ele>398.1</ele>
        <time>2017-12-17T08:27:05.999Z</time>
      </trkpt>
      <trkpt lat="47.49958" lon="6.758">
        <ele>398.1</ele>
        <time>2017-12-17T08:27:06.999Z</time>
      </trkpt>
      <trkpt lat="47.49952" lon="6.75791">
        <ele>398.7</ele>
        <time>2017-12-17T08:27:07.999Z</time>
      </trkpt>
      <trkpt lat="47.49946" lon="6.75782">
        <ele>398.8</ele>
        <time>2017-12-17T08:27:08.999Z</time>
      </trkpt>
      <trkpt lat="47.4994" lon="6.75773">
        <ele>398.9</ele>
        <time>2017-12-17T08:27:09.999Z</time>
      </trkpt>
      <trkpt lat="47.49934" lon="6.75764">
        <ele>399.1</ele>
        <time>2017-12-17T08:27:10.999Z</time>
      </trkpt>
      <trkpt lat="47.49929" lon="6.75757">
        <ele>399</ele>
        <time>2017-12-17T08:27:11.999Z</time>
      </trkpt>
      <trkpt lat="47.49926" lon="6.7575">
        <ele>398.5</ele>
        <time>2017-12-17T08:27:12.999Z</time>
      </trkpt>
      <trkpt lat="47.49921" lon="6.75744">
        <ele>399.1</ele>
        <time>2017-12-17T08:27:13.999Z</time>
      </trkpt>
      <trkpt lat="47.49916" lon="6.7574">
        <ele>398.8</ele>
        <time>2017-12-17T08:27:14.999Z</time>
      </trkpt>
      <trkpt lat="47.49911" lon="6.75739">
        <ele>399.1</ele>
        <time>2017-12-17T08:27:15.999Z</time>
      </trkpt>
      <trkpt lat="47.49904" lon="6.75741">
        <ele>398.7</ele>
        <time>2017-12-17T08:27:16.999Z</time>
      </trkpt>
      <trkpt lat="47.49894" lon="6.75742">
        <ele>397.3</ele>
        <time>2017-12-17T08:27:17.999Z</time>
      </trkpt>
      <trkpt lat="47.49885" lon="6.75743">
        <ele>396.7</ele>
        <time>2017-12-17T08:27:18.999Z</time>
      </trkpt>
      <trkpt lat="47.49877" lon="6.75744">
        <ele>396.1</ele>
        <time>2017-12-17T08:27:19.999Z</time>
      </trkpt>
      <trkpt lat="47.49869" lon="6.75745">
        <ele>395.3</ele>
        <time>2017-12-17T08:27:20.999Z</time>
      </trkpt>
      <trkpt lat="47.49861" lon="6.75746">
        <ele>394.8</ele>
        <time>2017-12-17T08:27:21.999Z</time>
      </trkpt>
      <trkpt lat="47.49854" lon="6.75747">
        <ele>393.9</ele>
        <time>2017-12-17T08:27:22.999Z</time>
      </trkpt>
      <trkpt lat="47.49847" lon="6.7575">
        <ele>392.3</ele>
        <time>2017-12-17T08:27:23.999Z</time>
      </trkpt>
      <trkpt lat="47.4984" lon="6.75752">
        <ele>391.2</ele>
        <time>2017-12-17T08:27:24.999Z</time>
      </trkpt>
      <trkpt lat="47.49831" lon="6.75755">
        <ele>390.1</ele>
        <time>2017-12-17T08:27:25.999Z</time>
      </trkpt>
      <trkpt lat="47.49822" lon="6.75757">
        <ele>389.6</ele>
        <time>2017-12-17T08:27:26.999Z</time>
      </trkpt>
      <trkpt lat="47.49815" lon="6.75758">
        <ele>388.8</ele>
        <time>2017-12-17T08:27:27.999Z</time>
      </trkpt>
      <trkpt lat="47.49807" lon="6.7576">
        <ele>387</ele>
        <time>2017-12-17T08:27:28.999Z</time>
      </trkpt>
      <trkpt lat="47.49798" lon="6.75762">
        <ele>385.6</ele>
        <time>2017-12-17T08:27:29.999Z</time>
      </trkpt>
      <trkpt lat="47.49789" lon="6.75764">
        <ele>384.3</ele>
        <time>2017-12-17T08:27:30.999Z</time>
      </trkpt>
      <trkpt lat="47.49782" lon="6.75766">
        <ele>383.5</ele>
        <time>2017-12-17T08:27:31.999Z</time>
      </trkpt>
      <trkpt lat="47.49771" lon="6.75769">
        <ele>382.5</ele>
        <time>2017-12-17T08:27:32.999Z</time>
      </trkpt>
      <trkpt lat="47.49762" lon="6.75772">
        <ele>381.5</ele>
        <time>2017-12-17T08:27:33.999Z</time>
      </trkpt>
      <trkpt lat="47.49754" lon="6.75774">
        <ele>381.4</ele>
        <time>2017-12-17T08:27:34.999Z</time>
      </trkpt>
      <trkpt lat="47.49746" lon="6.75776">
        <ele>380.8</ele>
        <time>2017-12-17T08:27:35.999Z</time>
      </trkpt>
      <trkpt lat="47.49736" lon="6.75778">
        <ele>380.8</ele>
        <time>2017-12-17T08:27:36.999Z</time>
      </trkpt>
      <trkpt lat="47.49727" lon="6.7578">
        <ele>381</ele>
        <time>2017-12-17T08:27:37.999Z</time>
      </trkpt>
      <trkpt lat="47.49719" lon="6.75781">
        <ele>381.4</ele>
        <time>2017-12-17T08:27:38.999Z</time>
      </trkpt>
      <trkpt lat="47.49711" lon="6.75783">
        <ele>381.4</ele>
        <time>2017-12-17T08:27:39.999Z</time>
      </trkpt>
      <trkpt lat="47.49704" lon="6.75784">
        <ele>381.8</ele>
        <time>2017-12-17T08:27:40.999Z</time>
      </trkpt>
      <trkpt lat="47.49696" lon="6.75786">
        <ele>382.3</ele>
        <time>2017-12-17T08:27:41.999Z</time>
      </trkpt>
      <trkpt lat="47.4969" lon="6.75787">
        <ele>382.7</ele>
        <time>2017-12-17T08:27:42.999Z</time>
      </trkpt>
      <trkpt lat="47.49683" lon="6.75787">
        <ele>383.5</ele>
        <time>2017-12-17T08:27:43.999Z</time>
      </trkpt>
      <trkpt lat="47.49677" lon="6.75786">
        <ele>383.5</ele>
        <time>2017-12-17T08:27:44.999Z</time>
      </trkpt>
      <trkpt lat="47.4967" lon="6.75787">
        <ele>383</ele>
        <time>2017-12-17T08:27:45.999Z</time>
      </trkpt>
      <trkpt lat="47.49663" lon="6.75786">
        <ele>382.4</ele>
        <time>2017-12-17T08:27:46.999Z</time>
      </trkpt>
      <trkpt lat="47.49656" lon="6.75786">
        <ele>382.7</ele>
        <time>2017-12-17T08:27:47.999Z</time>
      </trkpt>
      <trkpt lat="47.49648" lon="6.75785">
        <ele>381</ele>
        <time>2017-12-17T08:27:48.999Z</time>
      </trkpt>
      <trkpt lat="47.49641" lon="6.75782">
        <ele>379.5</ele>
        <time>2017-12-17T08:27:49.999Z</time>
      </trkpt>
      <trkpt lat="47.49634" lon="6.75782">
        <ele>377.7</ele>
        <time>2017-12-17T08:27:50.999Z</time>
      </trkpt>
      <trkpt lat="47.49626" lon="6.75782">
        <ele>376.6</ele>
        <time>2017-12-17T08:27:51.999Z</time>
      </trkpt>
      <trkpt lat="47.49618" lon="6.75781">
        <ele>374.9</ele>
        <time>2017-12-17T08:27:52.999Z</time>
      </trkpt>
      <trkpt lat="47.49613" lon="6.75782">
        <ele>374.7</ele>
        <time>2017-12-17T08:27:53.999Z</time>
      </trkpt>
      <trkpt lat="47.4961" lon="6.75785">
        <ele>374.5</ele>
        <time>2017-12-17T08:27:54.999Z</time>
      </trkpt>
      <trkpt lat="47.49608" lon="6.75785">
        <ele>374.3</ele>
        <time>2017-12-17T08:27:55.999Z</time>
      </trkpt>
      <trkpt lat="47.49608" lon="6.75785">
        <ele>373.4</ele>
        <time>2017-12-17T08:28:02.999Z</time>
      </trkpt>
      <trkpt lat="47.49596" lon="6.75788">
        <ele>373.2</ele>
        <time>2017-12-17T08:28:03.999Z</time>
      </trkpt>
      <trkpt lat="47.49591" lon="6.75789">
        <ele>372.9</ele>
        <time>2017-12-17T08:28:04.999Z</time>
      </trkpt>
      <trkpt lat="47.49585" lon="6.75788">
        <ele>369.8</ele>
        <time>2017-12-17T08:28:05.999Z</time>
      </trkpt>
      <trkpt lat="47.49582" lon="6.75788">
        <ele>369.6</ele>
        <time>2017-12-17T08:28:06.999Z</time>
      </trkpt>
      <trkpt lat="47.49578" lon="6.75788">
        <ele>369.3</ele>
        <time>2017-12-17T08:28:07.999Z</time>
      </trkpt>
      <trkpt lat="47.49575" lon="6.75785">
        <ele>368.9</ele>
        <time>2017-12-17T08:28:08.999Z</time>
      </trkpt>
      <trkpt lat="47.49573" lon="6.75784">
        <ele>368.6</ele>
        <time>2017-12-17T08:28:09.999Z</time>
      </trkpt>
      <trkpt lat="47.4957" lon="6.7578">
        <ele>368.3</ele>
        <time>2017-12-17T08:28:10.999Z</time>
      </trkpt>
      <trkpt lat="47.49567" lon="6.75777">
        <ele>368.1</ele>
        <time>2017-12-17T08:28:11.999Z</time>
      </trkpt>
      <trkpt lat="47.49565" lon="6.75775">
        <ele>367.9</ele>
        <time>2017-12-17T08:28:12.999Z</time>
      </trkpt>
      <trkpt lat="47.49564" lon="6.75768">
        <ele>366.6</ele>
        <time>2017-12-17T08:28:13.999Z</time>
      </trkpt>
      <trkpt lat="47.49566" lon="6.75764">
        <ele>365.9</ele>
        <time>2017-12-17T08:28:14.999Z</time>
      </trkpt>
      <trkpt lat="47.49568" lon="6.75761">
        <ele>365.9</ele>
        <time>2017-12-17T08:28:15.999Z</time>
      </trkpt>
      <trkpt lat="47.49572" lon="6.75757">
        <ele>366</ele>
        <time>2017-12-17T08:28:16.999Z</time>
      </trkpt>
      <trkpt lat="47.49574" lon="6.75754">
        <ele>366</ele>
        <time>2017-12-17T08:28:17.999Z</time>
      </trkpt>
      <trkpt lat="47.49577" lon="6.7575">
        <ele>366.1</ele>
        <time>2017-12-17T08:28:18.999Z</time>
      </trkpt>
      <trkpt lat="47.49579" lon="6.75745">
        <ele>366.3</ele>
        <time>2017-12-17T08:28:19.999Z</time>
      </trkpt>
      <trkpt lat="47.49583" lon="6.75742">
        <ele>366.4</ele>
        <time>2017-12-17T08:28:20.999Z</time>
      </trkpt>
      <trkpt lat="47.49586" lon="6.75739">
        <ele>366.6</ele>
        <time>2017-12-17T08:28:21.999Z</time>
      </trkpt>
      <trkpt lat="47.4959" lon="6.75735">
        <ele>366.8</ele>
        <time>2017-12-17T08:28:22.999Z</time>
      </trkpt>
      <trkpt lat="47.49592" lon="6.7573">
        <ele>367</ele>
        <time>2017-12-17T08:28:23.999Z</time>
      </trkpt>
      <trkpt lat="47.49594" lon="6.75725">
        <ele>367.1</ele>
        <time>2017-12-17T08:28:24.999Z</time>
      </trkpt>
      <trkpt lat="47.49596" lon="6.75719">
        <ele>368</ele>
        <time>2017-12-17T08:28:25.999Z</time>
      </trkpt>
      <trkpt lat="47.49598" lon="6.75713">
        <ele>368.9</ele>
        <time>2017-12-17T08:28:26.999Z</time>
      </trkpt>
      <trkpt lat="47.49599" lon="6.75706">
        <ele>368.9</ele>
        <time>2017-12-17T08:28:27.999Z</time>
      </trkpt>
      <trkpt lat="47.496" lon="6.75698">
        <ele>367.8</ele>
        <time>2017-12-17T08:28:28.999Z</time>
      </trkpt>
      <trkpt lat="47.49598" lon="6.75691">
        <ele>367.5</ele>
        <time>2017-12-17T08:28:29.999Z</time>
      </trkpt>
      <trkpt lat="47.49595" lon="6.75685">
        <ele>367.6</ele>
        <time>2017-12-17T08:28:30.999Z</time>
      </trkpt>
      <trkpt lat="47.49591" lon="6.7568">
        <ele>366.1</ele>
        <time>2017-12-17T08:28:31.999Z</time>
      </trkpt>
      <trkpt lat="47.49587" lon="6.75675">
        <ele>366.2</ele>
        <time>2017-12-17T08:28:32.999Z</time>
      </trkpt>
      <trkpt lat="47.49584" lon="6.75669">
        <ele>365.5</ele>
        <time>2017-12-17T08:28:33.999Z</time>
      </trkpt>
      <trkpt lat="47.49579" lon="6.75665">
        <ele>365.4</ele>
        <time>2017-12-17T08:28:34.999Z</time>
      </trkpt>
      <trkpt lat="47.49574" lon="6.75666">
        <ele>365.7</ele>
        <time>2017-12-17T08:28:35.999Z</time>
      </trkpt>
      <trkpt lat="47.49569" lon="6.75669">
        <ele>365.8</ele>
        <time>2017-12-17T08:28:36.999Z</time>
      </trkpt>
      <trkpt lat="47.49565" lon="6.75673">
        <ele>365.6</ele>
        <time>2017-12-17T08:28:37.999Z</time>
      </trkpt>
      <trkpt lat="47.49561" lon="6.7568">
        <ele>365.7</ele>
        <time>2017-12-17T08:28:38.999Z</time>
      </trkpt>
      <trkpt lat="47.49558" lon="6.75686">
        <ele>365.5</ele>
        <time>2017-12-17T08:28:39.999Z</time>
      </trkpt>
      <trkpt lat="47.49554" lon="6.75692">
        <ele>365.5</ele>
        <time>2017-12-17T08:28:40.999Z</time>
      </trkpt>
      <trkpt lat="47.49552" lon="6.75697">
        <ele>366</ele>
        <time>2017-12-17T08:28:41.999Z</time>
      </trkpt>
      <trkpt lat="47.49548" lon="6.75703">
        <ele>365.8</ele>
        <time>2017-12-17T08:28:42.999Z</time>
      </trkpt>
      <trkpt lat="47.49543" lon="6.7571">
        <ele>365.6</ele>
        <time>2017-12-17T08:28:43.999Z</time>
      </trkpt>
      <trkpt lat="47.49538" lon="6.75716">
        <ele>365.3</ele>
        <time>2017-12-17T08:28:44.999Z</time>
      </trkpt>
      <trkpt lat="47.49534" lon="6.7572">
        <ele>364.6</ele>
        <time>2017-12-17T08:28:45.999Z</time>
      </trkpt>
      <trkpt lat="47.4953" lon="6.75725">
        <ele>364</ele>
        <time>2017-12-17T08:28:46.999Z</time>
      </trkpt>
      <trkpt lat="47.49526" lon="6.75729">
        <ele>363.3</ele>
        <time>2017-12-17T08:28:47.999Z</time>
      </trkpt>
      <trkpt lat="47.49522" lon="6.75732">
        <ele>362.7</ele>
        <time>2017-12-17T08:28:48.999Z</time>
      </trkpt>
      <trkpt lat="47.49517" lon="6.75733">
        <ele>362.8</ele>
        <time>2017-12-17T08:28:49.999Z</time>
      </trkpt>
      <trkpt lat="47.49512" lon="6.75735">
        <ele>362.8</ele>
        <time>2017-12-17T08:28:50.999Z</time>
      </trkpt>
      <trkpt lat="47.49507" lon="6.75737">
        <ele>362.6</ele>
        <time>2017-12-17T08:28:51.999Z</time>
      </trkpt>
      <trkpt lat="47.49502" lon="6.75739">
        <ele>362.7</ele>
        <time>2017-12-17T08:28:52.999Z</time>
      </trkpt>
      <trkpt lat="47.49497" lon="6.75741">
        <ele>363.1</ele>
        <time>2017-12-17T08:28:53.999Z</time>
      </trkpt>
      <trkpt lat="47.49492" lon="6.75742">
        <ele>362.9</ele>
        <time>2017-12-17T08:28:54.999Z</time>
      </trkpt>
      <trkpt lat="47.49487" lon="6.75743">
        <ele>362.7</ele>
        <time>2017-12-17T08:28:55.999Z</time>
      </trkpt>
      <trkpt lat="47.49482" lon="6.75737">
        <ele>362.8</ele>
        <time>2017-12-17T08:28:56.999Z</time>
      </trkpt>
      <trkpt lat="47.49479" lon="6.75729">
        <ele>362.9</ele>
        <time>2017-12-17T08:28:57.999Z</time>
      </trkpt>
      <trkpt lat="47.49477" lon="6.75723">
        <ele>363.1</ele>
        <time>2017-12-17T08:28:58.999Z</time>
      </trkpt>
      <trkpt lat="47.49474" lon="6.75716">
        <ele>363.9</ele>
        <time>2017-12-17T08:28:59.999Z</time>
      </trkpt>
      <trkpt lat="47.49473" lon="6.7571">
        <ele>364.2</ele>
        <time>2017-12-17T08:29:00.999Z</time>
      </trkpt>
      <trkpt lat="47.4947" lon="6.75705">
        <ele>364.7</ele>
        <time>2017-12-17T08:29:01.999Z</time>
      </trkpt>
      <trkpt lat="47.49468" lon="6.75699">
        <ele>364.5</ele>
        <time>2017-12-17T08:29:02.999Z</time>
      </trkpt>
      <trkpt lat="47.49466" lon="6.75697">
        <ele>364.5</ele>
        <time>2017-12-17T08:29:03.999Z</time>
      </trkpt>
      <trkpt lat="47.49462" lon="6.75697">
        <ele>364.5</ele>
        <time>2017-12-17T08:29:04.999Z</time>
      </trkpt>
      <trkpt lat="47.49459" lon="6.75697">
        <ele>364.5</ele>
        <time>2017-12-17T08:29:05.999Z</time>
      </trkpt>
      <trkpt lat="47.49454" lon="6.75698">
        <ele>364.4</ele>
        <time>2017-12-17T08:29:06.999Z</time>
      </trkpt>
      <trkpt lat="47.49452" lon="6.75699">
        <ele>364.4</ele>
        <time>2017-12-17T08:29:07.999Z</time>
      </trkpt>
      <trkpt lat="47.49449" lon="6.757">
        <ele>364.4</ele>
        <time>2017-12-17T08:29:08.999Z</time>
      </trkpt>
      <trkpt lat="47.49446" lon="6.75701">
        <ele>364.5</ele>
        <time>2017-12-17T08:29:09.999Z</time>
      </trkpt>
      <trkpt lat="47.49443" lon="6.75699">
        <ele>364.6</ele>
        <time>2017-12-17T08:29:10.999Z</time>
      </trkpt>
      <trkpt lat="47.4944" lon="6.75696">
        <ele>364.7</ele>
        <time>2017-12-17T08:29:11.999Z</time>
      </trkpt>
      <trkpt lat="47.49439" lon="6.75692">
        <ele>364.7</ele>
        <time>2017-12-17T08:29:12.999Z</time>
      </trkpt>
      <trkpt lat="47.49438" lon="6.75689">
        <ele>364.7</ele>
        <time>2017-12-17T08:29:13.999Z</time>
      </trkpt>
      <trkpt lat="47.49437" lon="6.75685">
        <ele>364.6</ele>
        <time>2017-12-17T08:29:15.999Z</time>
      </trkpt>
      <trkpt lat="47.49436" lon="6.75681">
        <ele>364.5</ele>
        <time>2017-12-17T08:29:16.999Z</time>
      </trkpt>
      <trkpt lat="47.49435" lon="6.75678">
        <ele>364.5</ele>
        <time>2017-12-17T08:29:17.999Z</time>
      </trkpt>
      <trkpt lat="47.49434" lon="6.75675">
        <ele>364.5</ele>
        <time>2017-12-17T08:29:18.999Z</time>
      </trkpt>
      <trkpt lat="47.49431" lon="6.75672">
        <ele>364.3</ele>
        <time>2017-12-17T08:29:20.999Z</time>
      </trkpt>
      <trkpt lat="47.49428" lon="6.75675">
        <ele>364.3</ele>
        <time>2017-12-17T08:29:21.999Z</time>
      </trkpt>
      <trkpt lat="47.49424" lon="6.75676">
        <ele>364.1</ele>
        <time>2017-12-17T08:29:22.999Z</time>
      </trkpt>
      <trkpt lat="47.49419" lon="6.75677">
        <ele>364</ele>
        <time>2017-12-17T08:29:23.999Z</time>
      </trkpt>
      <trkpt lat="47.49417" lon="6.75678">
        <ele>364</ele>
        <time>2017-12-17T08:29:24.999Z</time>
      </trkpt>
      <trkpt lat="47.49413" lon="6.75678">
        <ele>363.7</ele>
        <time>2017-12-17T08:29:25.999Z</time>
      </trkpt>
      <trkpt lat="47.49409" lon="6.75682">
        <ele>363.2</ele>
        <time>2017-12-17T08:29:26.999Z</time>
      </trkpt>
      <trkpt lat="47.49406" lon="6.75684">
        <ele>362.4</ele>
        <time>2017-12-17T08:29:27.999Z</time>
      </trkpt>
      <trkpt lat="47.49402" lon="6.75685">
        <ele>361.7</ele>
        <time>2017-12-17T08:29:28.999Z</time>
      </trkpt>
      <trkpt lat="47.49397" lon="6.75688">
        <ele>361.2</ele>
        <time>2017-12-17T08:29:29.999Z</time>
      </trkpt>
      <trkpt lat="47.49394" lon="6.75689">
        <ele>361.1</ele>
        <time>2017-12-17T08:29:30.999Z</time>
      </trkpt>
      <trkpt lat="47.49392" lon="6.75691">
        <ele>361.1</ele>
        <time>2017-12-17T08:29:31.999Z</time>
      </trkpt>
      <trkpt lat="47.49389" lon="6.75692">
        <ele>361</ele>
        <time>2017-12-17T08:29:32.999Z</time>
      </trkpt>
      <trkpt lat="47.49387" lon="6.75695">
        <ele>360.9</ele>
        <time>2017-12-17T08:29:33.999Z</time>
      </trkpt>
      <trkpt lat="47.49385" lon="6.75698">
        <ele>360.8</ele>
        <time>2017-12-17T08:29:34.999Z</time>
      </trkpt>
      <trkpt lat="47.49382" lon="6.75701">
        <ele>360.6</ele>
        <time>2017-12-17T08:29:35.999Z</time>
      </trkpt>
      <trkpt lat="47.49379" lon="6.75704">
        <ele>360.4</ele>
        <time>2017-12-17T08:29:36.999Z</time>
      </trkpt>
      <trkpt lat="47.49376" lon="6.75706">
        <ele>360.3</ele>
        <time>2017-12-17T08:29:37.999Z</time>
      </trkpt>
      <trkpt lat="47.49373" lon="6.75708">
        <ele>360.2</ele>
        <time>2017-12-17T08:29:38.999Z</time>
      </trkpt>
      <trkpt lat="47.49369" lon="6.75712">
        <ele>360.1</ele>
        <time>2017-12-17T08:29:39.999Z</time>
      </trkpt>
      <trkpt lat="47.49365" lon="6.75715">
        <ele>359.1</ele>
        <time>2017-12-17T08:29:42.999Z</time>
      </trkpt>
      <trkpt lat="47.49363" lon="6.75719">
        <ele>359.2</ele>
        <time>2017-12-17T08:29:43.999Z</time>
      </trkpt>
      <trkpt lat="47.4936" lon="6.7572">
        <ele>359.4</ele>
        <time>2017-12-17T08:29:44.999Z</time>
      </trkpt>
      <trkpt lat="47.49358" lon="6.75722">
        <ele>359.4</ele>
        <time>2017-12-17T08:29:45.999Z</time>
      </trkpt>
      <trkpt lat="47.49355" lon="6.75723">
        <ele>359.5</ele>
        <time>2017-12-17T08:29:46.999Z</time>
      </trkpt>
      <trkpt lat="47.49349" lon="6.75727">
        <ele>360</ele>
        <time>2017-12-17T08:29:47.999Z</time>
      </trkpt>
      <trkpt lat="47.49343" lon="6.7573">
        <ele>360</ele>
        <time>2017-12-17T08:29:48.999Z</time>
      </trkpt>
      <trkpt lat="47.49338" lon="6.75732">
        <ele>360.2</ele>
        <time>2017-12-17T08:29:49.999Z</time>
      </trkpt>
      <trkpt lat="47.49333" lon="6.75735">
        <ele>360.1</ele>
        <time>2017-12-17T08:29:50.999Z</time>
      </trkpt>
      <trkpt lat="47.49327" lon="6.75738">
        <ele>359.9</ele>
        <time>2017-12-17T08:29:51.999Z</time>
      </trkpt>
      <trkpt lat="47.49323" lon="6.75739">
        <ele>359.3</ele>
        <time>2017-12-17T08:29:52.999Z</time>
      </trkpt>
      <trkpt lat="47.49319" lon="6.75742">
        <ele>359.2</ele>
        <time>2017-12-17T08:29:53.999Z</time>
      </trkpt>
      <trkpt lat="47.49316" lon="6.75746">
        <ele>358.8</ele>
        <time>2017-12-17T08:29:54.999Z</time>
      </trkpt>
      <trkpt lat="47.49313" lon="6.75751">
        <ele>358.7</ele>
        <time>2017-12-17T08:29:55.999Z</time>
      </trkpt>
      <trkpt lat="47.49308" lon="6.75757">
        <ele>358.8</ele>
        <time>2017-12-17T08:29:56.999Z</time>
      </trkpt>
      <trkpt lat="47.49303" lon="6.75763">
        <ele>359.1</ele>
        <time>2017-12-17T08:29:57.999Z</time>
      </trkpt>
      <trkpt lat="47.49299" lon="6.75768">
        <ele>359.1</ele>
        <time>2017-12-17T08:29:58.999Z</time>
      </trkpt>
      <trkpt lat="47.49295" lon="6.75773">
        <ele>359.1</ele>
        <time>2017-12-17T08:29:59.999Z</time>
      </trkpt>
      <trkpt lat="47.49292" lon="6.75777">
        <ele>359.1</ele>
        <time>2017-12-17T08:30:00.999Z</time>
      </trkpt>
      <trkpt lat="47.49287" lon="6.75782">
        <ele>359</ele>
        <time>2017-12-17T08:30:01.999Z</time>
      </trkpt>
      <trkpt lat="47.49284" lon="6.75787">
        <ele>359</ele>
        <time>2017-12-17T08:30:02.999Z</time>
      </trkpt>
      <trkpt lat="47.49281" lon="6.75791">
        <ele>358.9</ele>
        <time>2017-12-17T08:30:03.999Z</time>
      </trkpt>
      <trkpt lat="47.49277" lon="6.75797">
        <ele>359</ele>
        <time>2017-12-17T08:30:04.999Z</time>
      </trkpt>
      <trkpt lat="47.49273" lon="6.75803">
        <ele>359.1</ele>
        <time>2017-12-17T08:30:05.999Z</time>
      </trkpt>
      <trkpt lat="47.49271" lon="6.75808">
        <ele>359.1</ele>
        <time>2017-12-17T08:30:06.999Z</time>
      </trkpt>
      <trkpt lat="47.49268" lon="6.75813">
        <ele>359</ele>
        <time>2017-12-17T08:30:07.999Z</time>
      </trkpt>
      <trkpt lat="47.49263" lon="6.75819">
        <ele>358.9</ele>
        <time>2017-12-17T08:30:08.999Z</time>
      </trkpt>
      <trkpt lat="47.49259" lon="6.75825">
        <ele>358.7</ele>
        <time>2017-12-17T08:30:09.999Z</time>
      </trkpt>
      <trkpt lat="47.49256" lon="6.75832">
        <ele>358.5</ele>
        <time>2017-12-17T08:30:10.999Z</time>
      </trkpt>
      <trkpt lat="47.49253" lon="6.75837">
        <ele>358.4</ele>
        <time>2017-12-17T08:30:12.000Z</time>
      </trkpt>
      <trkpt lat="47.4925" lon="6.75843">
        <ele>357.8</ele>
        <time>2017-12-17T08:30:12.999Z</time>
      </trkpt>
      <trkpt lat="47.49249" lon="6.75847">
        <ele>357.7</ele>
        <time>2017-12-17T08:30:13.999Z</time>
      </trkpt>
      <trkpt lat="47.49247" lon="6.75852">
        <ele>357.5</ele>
        <time>2017-12-17T08:30:15.000Z</time>
      </trkpt>
      <trkpt lat="47.49245" lon="6.75856">
        <ele>356.4</ele>
        <time>2017-12-17T08:30:16.000Z</time>
      </trkpt>
      <trkpt lat="47.49242" lon="6.7586">
        <ele>356.2</ele>
        <time>2017-12-17T08:30:17.000Z</time>
      </trkpt>
      <trkpt lat="47.4924" lon="6.75864">
        <ele>356.2</ele>
        <time>2017-12-17T08:30:18.000Z</time>
      </trkpt>
      <trkpt lat="47.49237" lon="6.75872">
        <ele>356.2</ele>
        <time>2017-12-17T08:30:19.000Z</time>
      </trkpt>
      <trkpt lat="47.49234" lon="6.75879">
        <ele>356.3</ele>
        <time>2017-12-17T08:30:20.000Z</time>
      </trkpt>
      <trkpt lat="47.49232" lon="6.75885">
        <ele>356.2</ele>
        <time>2017-12-17T08:30:21.000Z</time>
      </trkpt>
      <trkpt lat="47.4923" lon="6.7589">
        <ele>356.1</ele>
        <time>2017-12-17T08:30:22.000Z</time>
      </trkpt>
      <trkpt lat="47.49226" lon="6.75897">
        <ele>355.5</ele>
        <time>2017-12-17T08:30:23.000Z</time>
      </trkpt>
      <trkpt lat="47.49223" lon="6.75904">
        <ele>355.7</ele>
        <time>2017-12-17T08:30:24.000Z</time>
      </trkpt>
      <trkpt lat="47.4922" lon="6.7591">
        <ele>356</ele>
        <time>2017-12-17T08:30:25.000Z</time>
      </trkpt>
      <trkpt lat="47.49218" lon="6.75915">
        <ele>356.3</ele>
        <time>2017-12-17T08:30:26.000Z</time>
      </trkpt>
      <trkpt lat="47.49215" lon="6.75919">
        <ele>355.1</ele>
        <time>2017-12-17T08:30:27.000Z</time>
      </trkpt>
      <trkpt lat="47.49213" lon="6.75923">
        <ele>354.9</ele>
        <time>2017-12-17T08:30:28.000Z</time>
      </trkpt>
      <trkpt lat="47.49211" lon="6.75925">
        <ele>354.7</ele>
        <time>2017-12-17T08:30:29.000Z</time>
      </trkpt>
      <trkpt lat="47.49207" lon="6.75932">
        <ele>351.6</ele>
        <time>2017-12-17T08:30:30.000Z</time>
      </trkpt>
      <trkpt lat="47.49204" lon="6.7594">
        <ele>350.1</ele>
        <time>2017-12-17T08:30:31.000Z</time>
      </trkpt>
      <trkpt lat="47.49201" lon="6.75944">
        <ele>350.1</ele>
        <time>2017-12-17T08:30:32.000Z</time>
      </trkpt>
      <trkpt lat="47.49199" lon="6.75949">
        <ele>349.9</ele>
        <time>2017-12-17T08:30:33.000Z</time>
      </trkpt>
      <trkpt lat="47.49196" lon="6.75955">
        <ele>350</ele>
        <time>2017-12-17T08:30:34.000Z</time>
      </trkpt>
      <trkpt lat="47.49193" lon="6.75962">
        <ele>350</ele>
        <time>2017-12-17T08:30:35.000Z</time>
      </trkpt>
      <trkpt lat="47.49188" lon="6.75972">
        <ele>350</ele>
        <time>2017-12-17T08:30:36.000Z</time>
      </trkpt>
      <trkpt lat="47.49184" lon="6.75981">
        <ele>349.6</ele>
        <time>2017-12-17T08:30:37.000Z</time>
      </trkpt>
      <trkpt lat="47.49181" lon="6.7599">
        <ele>349.1</ele>
        <time>2017-12-17T08:30:38.000Z</time>
      </trkpt>
      <trkpt lat="47.49178" lon="6.75996">
        <ele>350</ele>
        <time>2017-12-17T08:30:39.000Z</time>
      </trkpt>
      <trkpt lat="47.49175" lon="6.76004">
        <ele>350.7</ele>
        <time>2017-12-17T08:30:40.000Z</time>
      </trkpt>
      <trkpt lat="47.49172" lon="6.76011">
        <ele>350.8</ele>
        <time>2017-12-17T08:30:41.000Z</time>
      </trkpt>
      <trkpt lat="47.4917" lon="6.76016">
        <ele>350.9</ele>
        <time>2017-12-17T08:30:42.000Z</time>
      </trkpt>
      <trkpt lat="47.49168" lon="6.76022">
        <ele>351</ele>
        <time>2017-12-17T08:30:43.000Z</time>
      </trkpt>
      <trkpt lat="47.49167" lon="6.76029">
        <ele>351.3</ele>
        <time>2017-12-17T08:30:44.000Z</time>
      </trkpt>
      <trkpt lat="47.49165" lon="6.76036">
        <ele>350.5</ele>
        <time>2017-12-17T08:30:45.000Z</time>
      </trkpt>
      <trkpt lat="47.49163" lon="6.76044">
        <ele>350.6</ele>
        <time>2017-12-17T08:30:46.000Z</time>
      </trkpt>
      <trkpt lat="47.4916" lon="6.76051">
        <ele>350.9</ele>
        <time>2017-12-17T08:30:47.000Z</time>
      </trkpt>
      <trkpt lat="47.49158" lon="6.76059">
        <ele>351</ele>
        <time>2017-12-17T08:30:48.000Z</time>
      </trkpt>
      <trkpt lat="47.49156" lon="6.76066">
        <ele>351.1</ele>
        <time>2017-12-17T08:30:49.000Z</time>
      </trkpt>
      <trkpt lat="47.49154" lon="6.76074">
        <ele>351.3</ele>
        <time>2017-12-17T08:30:50.000Z</time>
      </trkpt>
      <trkpt lat="47.49152" lon="6.7608">
        <ele>351.3</ele>
        <time>2017-12-17T08:30:51.000Z</time>
      </trkpt>
      <trkpt lat="47.4915" lon="6.76089">
        <ele>350.5</ele>
        <time>2017-12-17T08:30:52.000Z</time>
      </trkpt>
      <trkpt lat="47.49147" lon="6.76097">
        <ele>350.6</ele>
        <time>2017-12-17T08:30:53.000Z</time>
      </trkpt>
      <trkpt lat="47.49144" lon="6.76106">
        <ele>350.6</ele>
        <time>2017-12-17T08:30:54.000Z</time>
      </trkpt>
      <trkpt lat="47.49142" lon="6.76114">
        <ele>351</ele>
        <time>2017-12-17T08:30:55.000Z</time>
      </trkpt>
      <trkpt lat="47.4914" lon="6.76123">
        <ele>350.7</ele>
        <time>2017-12-17T08:30:56.000Z</time>
      </trkpt>
      <trkpt lat="47.49138" lon="6.7613">
        <ele>350.5</ele>
        <time>2017-12-17T08:30:57.000Z</time>
      </trkpt>
      <trkpt lat="47.49137" lon="6.76137">
        <ele>349.9</ele>
        <time>2017-12-17T08:30:58.000Z</time>
      </trkpt>
      <trkpt lat="47.49135" lon="6.76145">
        <ele>349.6</ele>
        <time>2017-12-17T08:30:59.000Z</time>
      </trkpt>
      <trkpt lat="47.49134" lon="6.76153">
        <ele>349.8</ele>
        <time>2017-12-17T08:31:00.000Z</time>
      </trkpt>
      <trkpt lat="47.49133" lon="6.76161">
        <ele>350.6</ele>
        <time>2017-12-17T08:31:01.000Z</time>
      </trkpt>
      <trkpt lat="47.49131" lon="6.76168">
        <ele>350.2</ele>
        <time>2017-12-17T08:31:02.000Z</time>
      </trkpt>
      <trkpt lat="47.4913" lon="6.76176">
        <ele>350.6</ele>
        <time>2017-12-17T08:31:03.000Z</time>
      </trkpt>
      <trkpt lat="47.49129" lon="6.76187">
        <ele>350.9</ele>
        <time>2017-12-17T08:31:04.000Z</time>
      </trkpt>
      <trkpt lat="47.49129" lon="6.76195">
        <ele>350.9</ele>
        <time>2017-12-17T08:31:05.000Z</time>
      </trkpt>
      <trkpt lat="47.49129" lon="6.76201">
        <ele>351</ele>
        <time>2017-12-17T08:31:06.000Z</time>
      </trkpt>
      <trkpt lat="47.49129" lon="6.76206">
        <ele>351.1</ele>
        <time>2017-12-17T08:31:07.000Z</time>
      </trkpt>
      <trkpt lat="47.49129" lon="6.76211">
        <ele>351.1</ele>
        <time>2017-12-17T08:31:08.000Z</time>
      </trkpt>
      <trkpt lat="47.49129" lon="6.76218">
        <ele>351.8</ele>
        <time>2017-12-17T08:31:09.000Z</time>
      </trkpt>
      <trkpt lat="47.49128" lon="6.76225">
        <ele>351.5</ele>
        <time>2017-12-17T08:31:10.000Z</time>
      </trkpt>
      <trkpt lat="47.49129" lon="6.76232">
        <ele>351.5</ele>
        <time>2017-12-17T08:31:11.000Z</time>
      </trkpt>
      <trkpt lat="47.4913" lon="6.76237">
        <ele>351.6</ele>
        <time>2017-12-17T08:31:12.000Z</time>
      </trkpt>
      <trkpt lat="47.4913" lon="6.76244">
        <ele>352.6</ele>
        <time>2017-12-17T08:31:13.000Z</time>
      </trkpt>
      <trkpt lat="47.49129" lon="6.76251">
        <ele>353.3</ele>
        <time>2017-12-17T08:31:14.000Z</time>
      </trkpt>
      <trkpt lat="47.49129" lon="6.76258">
        <ele>352.6</ele>
        <time>2017-12-17T08:31:15.000Z</time>
      </trkpt>
      <trkpt lat="47.49129" lon="6.76266">
        <ele>352.2</ele>
        <time>2017-12-17T08:31:16.000Z</time>
      </trkpt>
      <trkpt lat="47.49129" lon="6.76272">
        <ele>352.1</ele>
        <time>2017-12-17T08:31:17.000Z</time>
      </trkpt>
      <trkpt lat="47.49129" lon="6.76278">
        <ele>352</ele>
        <time>2017-12-17T08:31:18.000Z</time>
      </trkpt>
      <trkpt lat="47.49129" lon="6.76285">
        <ele>351.1</ele>
        <time>2017-12-17T08:31:19.000Z</time>
      </trkpt>
      <trkpt lat="47.4913" lon="6.76291">
        <ele>351</ele>
        <time>2017-12-17T08:31:20.000Z</time>
      </trkpt>
      <trkpt lat="47.4913" lon="6.76296">
        <ele>350.9</ele>
        <time>2017-12-17T08:31:21.000Z</time>
      </trkpt>
      <trkpt lat="47.4913" lon="6.76302">
        <ele>350.8</ele>
        <time>2017-12-17T08:31:22.000Z</time>
      </trkpt>
      <trkpt lat="47.4913" lon="6.76307">
        <ele>350.7</ele>
        <time>2017-12-17T08:31:23.000Z</time>
      </trkpt>
      <trkpt lat="47.49129" lon="6.76313">
        <ele>350.6</ele>
        <time>2017-12-17T08:31:24.000Z</time>
      </trkpt>
      <trkpt lat="47.49128" lon="6.76321">
        <ele>349.3</ele>
        <time>2017-12-17T08:31:25.000Z</time>
      </trkpt>
      <trkpt lat="47.49128" lon="6.76329">
        <ele>347.8</ele>
        <time>2017-12-17T08:31:26.000Z</time>
      </trkpt>
      <trkpt lat="47.49127" lon="6.76337">
        <ele>346.8</ele>
        <time>2017-12-17T08:31:27.000Z</time>
      </trkpt>
      <trkpt lat="47.49126" lon="6.76343">
        <ele>346.7</ele>
        <time>2017-12-17T08:31:28.000Z</time>
      </trkpt>
      <trkpt lat="47.49126" lon="6.76351">
        <ele>346.7</ele>
        <time>2017-12-17T08:31:29.000Z</time>
      </trkpt>
      <trkpt lat="47.49125" lon="6.76359">
        <ele>345.5</ele>
        <time>2017-12-17T08:31:30.000Z</time>
      </trkpt>
      <trkpt lat="47.49125" lon="6.76368">
        <ele>344.5</ele>
        <time>2017-12-17T08:31:31.000Z</time>
      </trkpt>
      <trkpt lat="47.49125" lon="6.76375">
        <ele>344.4</ele>
        <time>2017-12-17T08:31:32.000Z</time>
      </trkpt>
      <trkpt lat="47.49124" lon="6.76384">
        <ele>344.6</ele>
        <time>2017-12-17T08:31:33.000Z</time>
      </trkpt>
      <trkpt lat="47.49123" lon="6.76395">
        <ele>344.2</ele>
        <time>2017-12-17T08:31:34.000Z</time>
      </trkpt>
      <trkpt lat="47.49122" lon="6.76404">
        <ele>344.3</ele>
        <time>2017-12-17T08:31:35.000Z</time>
      </trkpt>
      <trkpt lat="47.49122" lon="6.76416">
        <ele>345.3</ele>
        <time>2017-12-17T08:31:36.000Z</time>
      </trkpt>
      <trkpt lat="47.49123" lon="6.76424">
        <ele>345.5</ele>
        <time>2017-12-17T08:31:37.000Z</time>
      </trkpt>
      <trkpt lat="47.49123" lon="6.76436">
        <ele>347.1</ele>
        <time>2017-12-17T08:31:38.000Z</time>
      </trkpt>
      <trkpt lat="47.49123" lon="6.76446">
        <ele>348.5</ele>
        <time>2017-12-17T08:31:39.000Z</time>
      </trkpt>
      <trkpt lat="47.49124" lon="6.76453">
        <ele>349.6</ele>
        <time>2017-12-17T08:31:40.000Z</time>
      </trkpt>
      <trkpt lat="47.49123" lon="6.76462">
        <ele>351.1</ele>
        <time>2017-12-17T08:31:41.000Z</time>
      </trkpt>
      <trkpt lat="47.49122" lon="6.76472">
        <ele>351.6</ele>
        <time>2017-12-17T08:31:42.000Z</time>
      </trkpt>
      <trkpt lat="47.49121" lon="6.7648">
        <ele>353.1</ele>
        <time>2017-12-17T08:31:43.000Z</time>
      </trkpt>
      <trkpt lat="47.49121" lon="6.76488">
        <ele>354.4</ele>
        <time>2017-12-17T08:31:44.000Z</time>
      </trkpt>
      <trkpt lat="47.4912" lon="6.76495">
        <ele>354.9</ele>
        <time>2017-12-17T08:31:45.000Z</time>
      </trkpt>
      <trkpt lat="47.49119" lon="6.76502">
        <ele>355.9</ele>
        <time>2017-12-17T08:31:46.000Z</time>
      </trkpt>
      <trkpt lat="47.49119" lon="6.76509">
        <ele>356.6</ele>
        <time>2017-12-17T08:31:47.000Z</time>
      </trkpt>
      <trkpt lat="47.4912" lon="6.76516">
        <ele>357.3</ele>
        <time>2017-12-17T08:31:48.000Z</time>
      </trkpt>
      <trkpt lat="47.49124" lon="6.76521">
        <ele>357.9</ele>
        <time>2017-12-17T08:31:49.000Z</time>
      </trkpt>
      <trkpt lat="47.49129" lon="6.76524">
        <ele>357.6</ele>
        <time>2017-12-17T08:31:50.000Z</time>
      </trkpt>
      <trkpt lat="47.49135" lon="6.76524">
        <ele>357.6</ele>
        <time>2017-12-17T08:31:51.000Z</time>
      </trkpt>
      <trkpt lat="47.49141" lon="6.76523">
        <ele>358.8</ele>
        <time>2017-12-17T08:31:52.000Z</time>
      </trkpt>
      <trkpt lat="47.49148" lon="6.76521">
        <ele>359.7</ele>
        <time>2017-12-17T08:31:53.000Z</time>
      </trkpt>
      <trkpt lat="47.49153" lon="6.76517">
        <ele>360.8</ele>
        <time>2017-12-17T08:31:54.000Z</time>
      </trkpt>
      <trkpt lat="47.49155" lon="6.7651">
        <ele>361.4</ele>
        <time>2017-12-17T08:31:55.000Z</time>
      </trkpt>
      <trkpt lat="47.49159" lon="6.76508">
        <ele>361.5</ele>
        <time>2017-12-17T08:31:56.000Z</time>
      </trkpt>
      <trkpt lat="47.49163" lon="6.76507">
        <ele>361.7</ele>
        <time>2017-12-17T08:31:57.000Z</time>
      </trkpt>
      <trkpt lat="47.49166" lon="6.76506">
        <ele>361.6</ele>
        <time>2017-12-17T08:31:58.000Z</time>
      </trkpt>
      <trkpt lat="47.49168" lon="6.76506">
        <ele>361.5</ele>
        <time>2017-12-17T08:31:59.000Z</time>
      </trkpt>
      <trkpt lat="47.49171" lon="6.76505">
        <ele>361.5</ele>
        <time>2017-12-17T08:32:00.000Z</time>
      </trkpt>
      <trkpt lat="47.49174" lon="6.76503">
        <ele>361.4</ele>
        <time>2017-12-17T08:32:01.000Z</time>
      </trkpt>
      <trkpt lat="47.49177" lon="6.765">
        <ele>361.4</ele>
        <time>2017-12-17T08:32:02.000Z</time>
      </trkpt>
      <trkpt lat="47.49178" lon="6.76497">
        <ele>361.4</ele>
        <time>2017-12-17T08:32:03.000Z</time>
      </trkpt>
      <trkpt lat="47.4918" lon="6.76491">
        <ele>361.5</ele>
        <time>2017-12-17T08:32:06.000Z</time>
      </trkpt>
      <trkpt lat="47.49178" lon="6.7649">
        <ele>361.7</ele>
        <time>2017-12-17T08:32:07.000Z</time>
      </trkpt>
      <trkpt lat="47.49178" lon="6.7649">
        <ele>364.3</ele>
        <time>2017-12-17T08:34:28.000Z</time>
      </trkpt>
      <trkpt lat="47.49179" lon="6.76501">
        <ele>364.3</ele>
        <time>2017-12-17T08:34:29.000Z</time>
      </trkpt>
      <trkpt lat="47.49176" lon="6.76503">
        <ele>364.4</ele>
        <time>2017-12-17T08:34:30.000Z</time>
      </trkpt>
      <trkpt lat="47.49172" lon="6.76505">
        <ele>364.3</ele>
        <time>2017-12-17T08:34:31.000Z</time>
      </trkpt>
      <trkpt lat="47.4917" lon="6.76507">
        <ele>364.3</ele>
        <time>2017-12-17T08:34:32.000Z</time>
      </trkpt>
      <trkpt lat="47.49167" lon="6.76508">
        <ele>364.3</ele>
        <time>2017-12-17T08:34:33.000Z</time>
      </trkpt>
      <trkpt lat="47.49165" lon="6.7651">
        <ele>363.9</ele>
        <time>2017-12-17T08:34:34.000Z</time>
      </trkpt>
      <trkpt lat="47.4916" lon="6.76513">
        <ele>363.3</ele>
        <time>2017-12-17T08:34:35.000Z</time>
      </trkpt>
      <trkpt lat="47.49154" lon="6.76516">
        <ele>363.1</ele>
        <time>2017-12-17T08:34:36.000Z</time>
      </trkpt>
      <trkpt lat="47.4915" lon="6.76519">
        <ele>363.2</ele>
        <time>2017-12-17T08:34:37.000Z</time>
      </trkpt>
      <trkpt lat="47.49145" lon="6.76522">
        <ele>362.9</ele>
        <time>2017-12-17T08:34:38.000Z</time>
      </trkpt>
      <trkpt lat="47.49139" lon="6.76523">
        <ele>362.6</ele>
        <time>2017-12-17T08:34:39.000Z</time>
      </trkpt>
      <trkpt lat="47.49134" lon="6.76524">
        <ele>362.2</ele>
        <time>2017-12-17T08:34:40.000Z</time>
      </trkpt>
      <trkpt lat="47.49131" lon="6.76524">
        <ele>362.1</ele>
        <time>2017-12-17T08:34:41.000Z</time>
      </trkpt>
      <trkpt lat="47.49126" lon="6.76523">
        <ele>362</ele>
        <time>2017-12-17T08:34:42.000Z</time>
      </trkpt>
      <trkpt lat="47.49123" lon="6.76518">
        <ele>361.9</ele>
        <time>2017-12-17T08:34:43.000Z</time>
      </trkpt>
      <trkpt lat="47.49121" lon="6.76513">
        <ele>361.8</ele>
        <time>2017-12-17T08:34:44.000Z</time>
      </trkpt>
      <trkpt lat="47.49121" lon="6.76509">
        <ele>361.8</ele>
        <time>2017-12-17T08:34:45.000Z</time>
      </trkpt>
      <trkpt lat="47.49122" lon="6.76505">
        <ele>361.8</ele>
        <time>2017-12-17T08:34:46.000Z</time>
      </trkpt>
      <trkpt lat="47.49121" lon="6.76498">
        <ele>361.8</ele>
        <time>2017-12-17T08:34:47.000Z</time>
      </trkpt>
      <trkpt lat="47.49121" lon="6.76493">
        <ele>361.8</ele>
        <time>2017-12-17T08:34:48.000Z</time>
      </trkpt>
      <trkpt lat="47.49121" lon="6.76487">
        <ele>361.9</ele>
        <time>2017-12-17T08:34:49.000Z</time>
      </trkpt>
      <trkpt lat="47.49121" lon="6.76482">
        <ele>362.8</ele>
        <time>2017-12-17T08:34:50.000Z</time>
      </trkpt>
      <trkpt lat="47.49121" lon="6.76478">
        <ele>362.9</ele>
        <time>2017-12-17T08:34:51.000Z</time>
      </trkpt>
      <trkpt lat="47.49121" lon="6.76472">
        <ele>362.9</ele>
        <time>2017-12-17T08:34:52.000Z</time>
      </trkpt>
      <trkpt lat="47.49121" lon="6.76466">
        <ele>363.1</ele>
        <time>2017-12-17T08:34:53.000Z</time>
      </trkpt>
      <trkpt lat="47.49122" lon="6.7646">
        <ele>363.9</ele>
        <time>2017-12-17T08:34:54.000Z</time>
      </trkpt>
      <trkpt lat="47.49122" lon="6.76455">
        <ele>364</ele>
        <time>2017-12-17T08:34:55.000Z</time>
      </trkpt>
      <trkpt lat="47.49123" lon="6.76451">
        <ele>364.1</ele>
        <time>2017-12-17T08:34:56.000Z</time>
      </trkpt>
      <trkpt lat="47.49123" lon="6.76448">
        <ele>364.1</ele>
        <time>2017-12-17T08:34:57.000Z</time>
      </trkpt>
      <trkpt lat="47.49124" lon="6.76443">
        <ele>364.1</ele>
        <time>2017-12-17T08:34:58.000Z</time>
      </trkpt>
      <trkpt lat="47.49124" lon="6.76438">
        <ele>364.2</ele>
        <time>2017-12-17T08:34:59.000Z</time>
      </trkpt>
      <trkpt lat="47.49125" lon="6.76435">
        <ele>364.2</ele>
        <time>2017-12-17T08:35:00.000Z</time>
      </trkpt>
      <trkpt lat="47.49125" lon="6.7643">
        <ele>364.2</ele>
        <time>2017-12-17T08:35:01.000Z</time>
      </trkpt>
      <trkpt lat="47.49123" lon="6.76427">
        <ele>364.2</ele>
        <time>2017-12-17T08:35:02.000Z</time>
      </trkpt>
      <trkpt lat="47.4912" lon="6.76426">
        <ele>364.2</ele>
        <time>2017-12-17T08:35:03.000Z</time>
      </trkpt>
      <trkpt lat="47.49116" lon="6.76427">
        <ele>364</ele>
        <time>2017-12-17T08:35:05.000Z</time>
      </trkpt>
      <trkpt lat="47.49113" lon="6.76428">
        <ele>363.8</ele>
        <time>2017-12-17T08:35:06.000Z</time>
      </trkpt>
      <trkpt lat="47.49109" lon="6.76427">
        <ele>363.7</ele>
        <time>2017-12-17T08:35:07.000Z</time>
      </trkpt>
      <trkpt lat="47.49105" lon="6.76424">
        <ele>362</ele>
        <time>2017-12-17T08:35:08.000Z</time>
      </trkpt>
      <trkpt lat="47.49104" lon="6.7642">
        <ele>362</ele>
        <time>2017-12-17T08:35:09.000Z</time>
      </trkpt>
      <trkpt lat="47.49104" lon="6.76416">
        <ele>361.9</ele>
        <time>2017-12-17T08:35:10.000Z</time>
      </trkpt>
      <trkpt lat="47.49103" lon="6.7641">
        <ele>361.9</ele>
        <time>2017-12-17T08:35:11.000Z</time>
      </trkpt>
      <trkpt lat="47.49103" lon="6.76407">
        <ele>361.8</ele>
        <time>2017-12-17T08:35:12.000Z</time>
      </trkpt>
      <trkpt lat="47.49102" lon="6.76403">
        <ele>361.6</ele>
        <time>2017-12-17T08:35:13.000Z</time>
      </trkpt>
      <trkpt lat="47.49103" lon="6.76399">
        <ele>361.4</ele>
        <time>2017-12-17T08:35:14.000Z</time>
      </trkpt>
      <trkpt lat="47.49103" lon="6.76391">
        <ele>361.3</ele>
        <time>2017-12-17T08:35:15.000Z</time>
      </trkpt>
      <trkpt lat="47.49102" lon="6.76385">
        <ele>361.1</ele>
        <time>2017-12-17T08:35:16.000Z</time>
      </trkpt>
      <trkpt lat="47.49101" lon="6.76381">
        <ele>360.9</ele>
        <time>2017-12-17T08:35:17.000Z</time>
      </trkpt>
      <trkpt lat="47.491" lon="6.76375">
        <ele>360.8</ele>
        <time>2017-12-17T08:35:18.000Z</time>
      </trkpt>
      <trkpt lat="47.49099" lon="6.76371">
        <ele>360.7</ele>
        <time>2017-12-17T08:35:19.000Z</time>
      </trkpt>
      <trkpt lat="47.49099" lon="6.76367">
        <ele>360.5</ele>
        <time>2017-12-17T08:35:20.000Z</time>
      </trkpt>
      <trkpt lat="47.49099" lon="6.76363">
        <ele>360.4</ele>
        <time>2017-12-17T08:35:21.000Z</time>
      </trkpt>
      <trkpt lat="47.49098" lon="6.7636">
        <ele>360.3</ele>
        <time>2017-12-17T08:35:22.000Z</time>
      </trkpt>
      <trkpt lat="47.49098" lon="6.76356">
        <ele>360.3</ele>
        <time>2017-12-17T08:35:23.000Z</time>
      </trkpt>
      <trkpt lat="47.49098" lon="6.7635">
        <ele>360.2</ele>
        <time>2017-12-17T08:35:24.000Z</time>
      </trkpt>
      <trkpt lat="47.49098" lon="6.76346">
        <ele>360.1</ele>
        <time>2017-12-17T08:35:25.000Z</time>
      </trkpt>
      <trkpt lat="47.49098" lon="6.76342">
        <ele>360</ele>
        <time>2017-12-17T08:35:26.000Z</time>
      </trkpt>
      <trkpt lat="47.49098" lon="6.76338">
        <ele>359.9</ele>
        <time>2017-12-17T08:35:27.000Z</time>
      </trkpt>
      <trkpt lat="47.49097" lon="6.76333">
        <ele>359.9</ele>
        <time>2017-12-17T08:35:28.000Z</time>
      </trkpt>
      <trkpt lat="47.49097" lon="6.76328">
        <ele>359.9</ele>
        <time>2017-12-17T08:35:29.000Z</time>
      </trkpt>
      <trkpt lat="47.49096" lon="6.76325">
        <ele>359.9</ele>
        <time>2017-12-17T08:35:30.000Z</time>
      </trkpt>
      <trkpt lat="47.49096" lon="6.76319">
        <ele>359.8</ele>
        <time>2017-12-17T08:35:31.000Z</time>
      </trkpt>
      <trkpt lat="47.49096" lon="6.76314">
        <ele>359.8</ele>
        <time>2017-12-17T08:35:32.000Z</time>
      </trkpt>
      <trkpt lat="47.49095" lon="6.7631">
        <ele>359.9</ele>
        <time>2017-12-17T08:35:33.000Z</time>
      </trkpt>
      <trkpt lat="47.49096" lon="6.76306">
        <ele>359.9</ele>
        <time>2017-12-17T08:35:34.000Z</time>
      </trkpt>
      <trkpt lat="47.49095" lon="6.763">
        <ele>359.9</ele>
        <time>2017-12-17T08:35:35.000Z</time>
      </trkpt>
      <trkpt lat="47.49095" lon="6.76295">
        <ele>359.8</ele>
        <time>2017-12-17T08:35:36.000Z</time>
      </trkpt>
      <trkpt lat="47.49095" lon="6.76289">
        <ele>359.7</ele>
        <time>2017-12-17T08:35:37.000Z</time>
      </trkpt>
      <trkpt lat="47.49095" lon="6.76283">
        <ele>359.6</ele>
        <time>2017-12-17T08:35:38.000Z</time>
      </trkpt>
      <trkpt lat="47.49096" lon="6.76277">
        <ele>359.4</ele>
        <time>2017-12-17T08:35:39.000Z</time>
      </trkpt>
      <trkpt lat="47.49096" lon="6.76271">
        <ele>359.3</ele>
        <time>2017-12-17T08:35:40.000Z</time>
      </trkpt>
      <trkpt lat="47.49096" lon="6.76265">
        <ele>359.1</ele>
        <time>2017-12-17T08:35:41.000Z</time>
      </trkpt>
      <trkpt lat="47.49096" lon="6.76258">
        <ele>359</ele>
        <time>2017-12-17T08:35:42.000Z</time>
      </trkpt>
      <trkpt lat="47.49096" lon="6.76252">
        <ele>359</ele>
        <time>2017-12-17T08:35:43.000Z</time>
      </trkpt>
      <trkpt lat="47.49096" lon="6.76247">
        <ele>358.9</ele>
        <time>2017-12-17T08:35:44.000Z</time>
      </trkpt>
      <trkpt lat="47.49096" lon="6.76243">
        <ele>358.9</ele>
        <time>2017-12-17T08:35:45.000Z</time>
      </trkpt>
      <trkpt lat="47.49096" lon="6.76239">
        <ele>358.8</ele>
        <time>2017-12-17T08:35:46.000Z</time>
      </trkpt>
      <trkpt lat="47.49096" lon="6.76235">
        <ele>358.8</ele>
        <time>2017-12-17T08:35:47.000Z</time>
      </trkpt>
      <trkpt lat="47.49096" lon="6.7623">
        <ele>358.7</ele>
        <time>2017-12-17T08:35:48.000Z</time>
      </trkpt>
      <trkpt lat="47.49095" lon="6.76225">
        <ele>358.7</ele>
        <time>2017-12-17T08:35:49.000Z</time>
      </trkpt>
      <trkpt lat="47.49095" lon="6.76221">
        <ele>358.6</ele>
        <time>2017-12-17T08:35:50.000Z</time>
      </trkpt>
      <trkpt lat="47.49095" lon="6.76216">
        <ele>358.6</ele>
        <time>2017-12-17T08:35:51.000Z</time>
      </trkpt>
      <trkpt lat="47.49096" lon="6.76211">
        <ele>358.5</ele>
        <time>2017-12-17T08:35:52.000Z</time>
      </trkpt>
      <trkpt lat="47.49097" lon="6.76208">
        <ele>358.4</ele>
        <time>2017-12-17T08:35:53.000Z</time>
      </trkpt>
      <trkpt lat="47.49097" lon="6.76204">
        <ele>358.4</ele>
        <time>2017-12-17T08:35:54.000Z</time>
      </trkpt>
      <trkpt lat="47.49097" lon="6.76199">
        <ele>358.3</ele>
        <time>2017-12-17T08:35:55.000Z</time>
      </trkpt>
      <trkpt lat="47.49097" lon="6.76194">
        <ele>358.3</ele>
        <time>2017-12-17T08:35:56.000Z</time>
      </trkpt>
      <trkpt lat="47.49097" lon="6.76189">
        <ele>358.4</ele>
        <time>2017-12-17T08:35:57.000Z</time>
      </trkpt>
      <trkpt lat="47.49096" lon="6.76185">
        <ele>358.4</ele>
        <time>2017-12-17T08:35:58.000Z</time>
      </trkpt>
      <trkpt lat="47.49097" lon="6.76182">
        <ele>358.5</ele>
        <time>2017-12-17T08:35:59.000Z</time>
      </trkpt>
      <trkpt lat="47.49097" lon="6.76176">
        <ele>358.5</ele>
        <time>2017-12-17T08:36:00.000Z</time>
      </trkpt>
      <trkpt lat="47.49096" lon="6.76168">
        <ele>358.6</ele>
        <time>2017-12-17T08:36:01.000Z</time>
      </trkpt>
      <trkpt lat="47.49096" lon="6.76164">
        <ele>358.7</ele>
        <time>2017-12-17T08:36:02.000Z</time>
      </trkpt>
      <trkpt lat="47.49095" lon="6.76158">
        <ele>358.8</ele>
        <time>2017-12-17T08:36:03.000Z</time>
      </trkpt>
      <trkpt lat="47.49095" lon="6.76152">
        <ele>358.9</ele>
        <time>2017-12-17T08:36:04.000Z</time>
      </trkpt>
      <trkpt lat="47.49095" lon="6.76147">
        <ele>359</ele>
        <time>2017-12-17T08:36:05.000Z</time>
      </trkpt>
      <trkpt lat="47.49095" lon="6.76141">
        <ele>359.1</ele>
        <time>2017-12-17T08:36:06.000Z</time>
      </trkpt>
      <trkpt lat="47.49095" lon="6.76137">
        <ele>359.2</ele>
        <time>2017-12-17T08:36:07.000Z</time>
      </trkpt>
      <trkpt lat="47.49095" lon="6.76132">
        <ele>359.2</ele>
        <time>2017-12-17T08:36:08.000Z</time>
      </trkpt>
      <trkpt lat="47.49095" lon="6.76126">
        <ele>359.3</ele>
        <time>2017-12-17T08:36:09.000Z</time>
      </trkpt>
      <trkpt lat="47.49096" lon="6.7612">
        <ele>359.4</ele>
        <time>2017-12-17T08:36:10.000Z</time>
      </trkpt>
      <trkpt lat="47.49097" lon="6.76116">
        <ele>359.5</ele>
        <time>2017-12-17T08:36:11.000Z</time>
      </trkpt>
      <trkpt lat="47.49098" lon="6.76112">
        <ele>359.6</ele>
        <time>2017-12-17T08:36:12.000Z</time>
      </trkpt>
      <trkpt lat="47.49099" lon="6.76108">
        <ele>359.6</ele>
        <time>2017-12-17T08:36:13.000Z</time>
      </trkpt>
      <trkpt lat="47.49099" lon="6.76104">
        <ele>359.7</ele>
        <time>2017-12-17T08:36:14.000Z</time>
      </trkpt>
      <trkpt lat="47.49099" lon="6.761">
        <ele>359.7</ele>
        <time>2017-12-17T08:36:15.000Z</time>
      </trkpt>
      <trkpt lat="47.49099" lon="6.76096">
        <ele>359.9</ele>
        <time>2017-12-17T08:36:16.000Z</time>
      </trkpt>
      <trkpt lat="47.491" lon="6.76093">
        <ele>360.1</ele>
        <time>2017-12-17T08:36:17.000Z</time>
      </trkpt>
      <trkpt lat="47.491" lon="6.76089">
        <ele>360.2</ele>
        <time>2017-12-17T08:36:18.000Z</time>
      </trkpt>
      <trkpt lat="47.49101" lon="6.76084">
        <ele>360.3</ele>
        <time>2017-12-17T08:36:19.000Z</time>
      </trkpt>
      <trkpt lat="47.49101" lon="6.7608">
        <ele>360.6</ele>
        <time>2017-12-17T08:36:20.000Z</time>
      </trkpt>
      <trkpt lat="47.49102" lon="6.76075">
        <ele>360.9</ele>
        <time>2017-12-17T08:36:21.000Z</time>
      </trkpt>
      <trkpt lat="47.49102" lon="6.76071">
        <ele>361.2</ele>
        <time>2017-12-17T08:36:22.000Z</time>
      </trkpt>
      <trkpt lat="47.49102" lon="6.76068">
        <ele>361.5</ele>
        <time>2017-12-17T08:36:23.000Z</time>
      </trkpt>
      <trkpt lat="47.49102" lon="6.76064">
        <ele>361.9</ele>
        <time>2017-12-17T08:36:24.000Z</time>
      </trkpt>
      <trkpt lat="47.49102" lon="6.76059">
        <ele>362.3</ele>
        <time>2017-12-17T08:36:25.000Z</time>
      </trkpt>
      <trkpt lat="47.49103" lon="6.76055">
        <ele>362.7</ele>
        <time>2017-12-17T08:36:26.000Z</time>
      </trkpt>
      <trkpt lat="47.49103" lon="6.76049">
        <ele>363.1</ele>
        <time>2017-12-17T08:36:27.000Z</time>
      </trkpt>
      <trkpt lat="47.49105" lon="6.76042">
        <ele>363.3</ele>
        <time>2017-12-17T08:36:28.000Z</time>
      </trkpt>
      <trkpt lat="47.49106" lon="6.76036">
        <ele>363.5</ele>
        <time>2017-12-17T08:36:29.000Z</time>
      </trkpt>
      <trkpt lat="47.49107" lon="6.76032">
        <ele>363.8</ele>
        <time>2017-12-17T08:36:30.000Z</time>
      </trkpt>
      <trkpt lat="47.49108" lon="6.76027">
        <ele>363.9</ele>
        <time>2017-12-17T08:36:31.000Z</time>
      </trkpt>
      <trkpt lat="47.49109" lon="6.76021">
        <ele>364.1</ele>
        <time>2017-12-17T08:36:32.000Z</time>
      </trkpt>
      <trkpt lat="47.4911" lon="6.76017">
        <ele>364.3</ele>
        <time>2017-12-17T08:36:33.000Z</time>
      </trkpt>
      <trkpt lat="47.49111" lon="6.76013">
        <ele>364.5</ele>
        <time>2017-12-17T08:36:34.000Z</time>
      </trkpt>
      <trkpt lat="47.49112" lon="6.76008">
        <ele>364.6</ele>
        <time>2017-12-17T08:36:35.000Z</time>
      </trkpt>
      <trkpt lat="47.49112" lon="6.76004">
        <ele>364.6</ele>
        <time>2017-12-17T08:36:36.000Z</time>
      </trkpt>
      <trkpt lat="47.49113" lon="6.76001">
        <ele>364.7</ele>
        <time>2017-12-17T08:36:37.000Z</time>
      </trkpt>
      <trkpt lat="47.49113" lon="6.75997">
        <ele>364.6</ele>
        <time>2017-12-17T08:36:38.000Z</time>
      </trkpt>
      <trkpt lat="47.49113" lon="6.75992">
        <ele>364.5</ele>
        <time>2017-12-17T08:36:39.000Z</time>
      </trkpt>
      <trkpt lat="47.49113" lon="6.75987">
        <ele>364.5</ele>
        <time>2017-12-17T08:36:40.000Z</time>
      </trkpt>
      <trkpt lat="47.49112" lon="6.75981">
        <ele>364.5</ele>
        <time>2017-12-17T08:36:41.000Z</time>
      </trkpt>
      <trkpt lat="47.49114" lon="6.75976">
        <ele>364.5</ele>
        <time>2017-12-17T08:36:42.000Z</time>
      </trkpt>
      <trkpt lat="47.49116" lon="6.75972">
        <ele>364.5</ele>
        <time>2017-12-17T08:36:43.000Z</time>
      </trkpt>
      <trkpt lat="47.49118" lon="6.75967">
        <ele>364.4</ele>
        <time>2017-12-17T08:36:45.000Z</time>
      </trkpt>
      <trkpt lat="47.49118" lon="6.75963">
        <ele>364.4</ele>
        <time>2017-12-17T08:36:46.000Z</time>
      </trkpt>
      <trkpt lat="47.49118" lon="6.75959">
        <ele>364.5</ele>
        <time>2017-12-17T08:36:47.000Z</time>
      </trkpt>
      <trkpt lat="47.49118" lon="6.75956">
        <ele>364.6</ele>
        <time>2017-12-17T08:36:48.000Z</time>
      </trkpt>
      <trkpt lat="47.49119" lon="6.7595">
        <ele>364.7</ele>
        <time>2017-12-17T08:36:50.000Z</time>
      </trkpt>
      <trkpt lat="47.4912" lon="6.75946">
        <ele>364.8</ele>
        <time>2017-12-17T08:36:51.000Z</time>
      </trkpt>
      <trkpt lat="47.49121" lon="6.7594">
        <ele>364.6</ele>
        <time>2017-12-17T08:36:53.000Z</time>
      </trkpt>
      <trkpt lat="47.49122" lon="6.75937">
        <ele>364.5</ele>
        <time>2017-12-17T08:36:54.000Z</time>
      </trkpt>
      <trkpt lat="47.49124" lon="6.75932">
        <ele>364.2</ele>
        <time>2017-12-17T08:36:56.000Z</time>
      </trkpt>
      <trkpt lat="47.49125" lon="6.75929">
        <ele>364</ele>
        <time>2017-12-17T08:36:57.000Z</time>
      </trkpt>
      <trkpt lat="47.49127" lon="6.75925">
        <ele>363.9</ele>
        <time>2017-12-17T08:36:58.000Z</time>
      </trkpt>
      <trkpt lat="47.49128" lon="6.75921">
        <ele>363.7</ele>
        <time>2017-12-17T08:36:59.000Z</time>
      </trkpt>
      <trkpt lat="47.49129" lon="6.75916">
        <ele>363.6</ele>
        <time>2017-12-17T08:37:00.000Z</time>
      </trkpt>
      <trkpt lat="47.49129" lon="6.75912">
        <ele>363.4</ele>
        <time>2017-12-17T08:37:01.000Z</time>
      </trkpt>
      <trkpt lat="47.4913" lon="6.75908">
        <ele>363.2</ele>
        <time>2017-12-17T08:37:02.000Z</time>
      </trkpt>
      <trkpt lat="47.4913" lon="6.75905">
        <ele>362.9</ele>
        <time>2017-12-17T08:37:03.000Z</time>
      </trkpt>
      <trkpt lat="47.4913" lon="6.75901">
        <ele>362.7</ele>
        <time>2017-12-17T08:37:04.000Z</time>
      </trkpt>
      <trkpt lat="47.49131" lon="6.75896">
        <ele>362.5</ele>
        <time>2017-12-17T08:37:05.000Z</time>
      </trkpt>
      <trkpt lat="47.49132" lon="6.75891">
        <ele>362.3</ele>
        <time>2017-12-17T08:37:06.000Z</time>
      </trkpt>
      <trkpt lat="47.49132" lon="6.75887">
        <ele>362.1</ele>
        <time>2017-12-17T08:37:07.000Z</time>
      </trkpt>
      <trkpt lat="47.49132" lon="6.75881">
        <ele>362</ele>
        <time>2017-12-17T08:37:08.000Z</time>
      </trkpt>
      <trkpt lat="47.49132" lon="6.75875">
        <ele>361.8</ele>
        <time>2017-12-17T08:37:09.000Z</time>
      </trkpt>
      <trkpt lat="47.49133" lon="6.7587">
        <ele>361.7</ele>
        <time>2017-12-17T08:37:10.000Z</time>
      </trkpt>
      <trkpt lat="47.49135" lon="6.75864">
        <ele>361.4</ele>
        <time>2017-12-17T08:37:11.000Z</time>
      </trkpt>
      <trkpt lat="47.49137" lon="6.75858">
        <ele>361.2</ele>
        <time>2017-12-17T08:37:12.000Z</time>
      </trkpt>
      <trkpt lat="47.49138" lon="6.75853">
        <ele>360.9</ele>
        <time>2017-12-17T08:37:13.000Z</time>
      </trkpt>
      <trkpt lat="47.49138" lon="6.75847">
        <ele>358.9</ele>
        <time>2017-12-17T08:37:14.000Z</time>
      </trkpt>
      <trkpt lat="47.49139" lon="6.75842">
        <ele>358.7</ele>
        <time>2017-12-17T08:37:15.000Z</time>
      </trkpt>
      <trkpt lat="47.4914" lon="6.75838">
        <ele>358.3</ele>
        <time>2017-12-17T08:37:16.000Z</time>
      </trkpt>
      <trkpt lat="47.49141" lon="6.75831">
        <ele>357.9</ele>
        <time>2017-12-17T08:37:17.000Z</time>
      </trkpt>
      <trkpt lat="47.49142" lon="6.75824">
        <ele>357.7</ele>
        <time>2017-12-17T08:37:18.000Z</time>
      </trkpt>
      <trkpt lat="47.49144" lon="6.75816">
        <ele>357.4</ele>
        <time>2017-12-17T08:37:19.000Z</time>
      </trkpt>
      <trkpt lat="47.49145" lon="6.7581">
        <ele>357.1</ele>
        <time>2017-12-17T08:37:20.000Z</time>
      </trkpt>
      <trkpt lat="47.49146" lon="6.75804">
        <ele>353.9</ele>
        <time>2017-12-17T08:37:21.000Z</time>
      </trkpt>
      <trkpt lat="47.49148" lon="6.75799">
        <ele>350.4</ele>
        <time>2017-12-17T08:37:22.000Z</time>
      </trkpt>
      <trkpt lat="47.49149" lon="6.75792">
        <ele>350.1</ele>
        <time>2017-12-17T08:37:23.000Z</time>
      </trkpt>
      <trkpt lat="47.49151" lon="6.75784">
        <ele>349.8</ele>
        <time>2017-12-17T08:37:24.000Z</time>
      </trkpt>
      <trkpt lat="47.49153" lon="6.75776">
        <ele>349.6</ele>
        <time>2017-12-17T08:37:25.000Z</time>
      </trkpt>
      <trkpt lat="47.49155" lon="6.75769">
        <ele>349.4</ele>
        <time>2017-12-17T08:37:26.000Z</time>
      </trkpt>
      <trkpt lat="47.49158" lon="6.75762">
        <ele>349.3</ele>
        <time>2017-12-17T08:37:27.000Z</time>
      </trkpt>
      <trkpt lat="47.49161" lon="6.75754">
        <ele>349.2</ele>
        <time>2017-12-17T08:37:28.000Z</time>
      </trkpt>
      <trkpt lat="47.49164" lon="6.75749">
        <ele>349</ele>
        <time>2017-12-17T08:37:29.000Z</time>
      </trkpt>
      <trkpt lat="47.49167" lon="6.75744">
        <ele>348.9</ele>
        <time>2017-12-17T08:37:30.000Z</time>
      </trkpt>
      <trkpt lat="47.49169" lon="6.7574">
        <ele>348.8</ele>
        <time>2017-12-17T08:37:31.000Z</time>
      </trkpt>
      <trkpt lat="47.49171" lon="6.75735">
        <ele>348.7</ele>
        <time>2017-12-17T08:37:32.000Z</time>
      </trkpt>
      <trkpt lat="47.49173" lon="6.7573">
        <ele>348.6</ele>
        <time>2017-12-17T08:37:33.000Z</time>
      </trkpt>
      <trkpt lat="47.49175" lon="6.75724">
        <ele>348.4</ele>
        <time>2017-12-17T08:37:34.000Z</time>
      </trkpt>
      <trkpt lat="47.49177" lon="6.75717">
        <ele>348.3</ele>
        <time>2017-12-17T08:37:35.000Z</time>
      </trkpt>
      <trkpt lat="47.49178" lon="6.75711">
        <ele>348.3</ele>
        <time>2017-12-17T08:37:36.000Z</time>
      </trkpt>
      <trkpt lat="47.49181" lon="6.75707">
        <ele>348.3</ele>
        <time>2017-12-17T08:37:37.000Z</time>
      </trkpt>
      <trkpt lat="47.49183" lon="6.75703">
        <ele>348.3</ele>
        <time>2017-12-17T08:37:38.000Z</time>
      </trkpt>
      <trkpt lat="47.49186" lon="6.75698">
        <ele>348.4</ele>
        <time>2017-12-17T08:37:39.000Z</time>
      </trkpt>
      <trkpt lat="47.49188" lon="6.75695">
        <ele>348.3</ele>
        <time>2017-12-17T08:37:40.000Z</time>
      </trkpt>
      <trkpt lat="47.49189" lon="6.75693">
        <ele>348.1</ele>
        <time>2017-12-17T08:37:41.000Z</time>
      </trkpt>
      <trkpt lat="47.49192" lon="6.75688">
        <ele>347.9</ele>
        <time>2017-12-17T08:37:42.000Z</time>
      </trkpt>
      <trkpt lat="47.49193" lon="6.75685">
        <ele>347.8</ele>
        <time>2017-12-17T08:37:43.000Z</time>
      </trkpt>
      <trkpt lat="47.49195" lon="6.7568">
        <ele>347.9</ele>
        <time>2017-12-17T08:37:44.000Z</time>
      </trkpt>
      <trkpt lat="47.49196" lon="6.75675">
        <ele>347.9</ele>
        <time>2017-12-17T08:37:45.000Z</time>
      </trkpt>
      <trkpt lat="47.49198" lon="6.75671">
        <ele>347.9</ele>
        <time>2017-12-17T08:37:46.000Z</time>
      </trkpt>
      <trkpt lat="47.49198" lon="6.75667">
        <ele>347.9</ele>
        <time>2017-12-17T08:37:47.000Z</time>
      </trkpt>
      <trkpt lat="47.492" lon="6.75663">
        <ele>347.9</ele>
        <time>2017-12-17T08:37:48.000Z</time>
      </trkpt>
      <trkpt lat="47.492" lon="6.75658">
        <ele>348</ele>
        <time>2017-12-17T08:37:49.000Z</time>
      </trkpt>
      <trkpt lat="47.492" lon="6.75653">
        <ele>348</ele>
        <time>2017-12-17T08:37:50.000Z</time>
      </trkpt>
      <trkpt lat="47.49201" lon="6.75648">
        <ele>348.1</ele>
        <time>2017-12-17T08:37:51.000Z</time>
      </trkpt>
      <trkpt lat="47.49202" lon="6.75645">
        <ele>348.1</ele>
        <time>2017-12-17T08:37:52.000Z</time>
      </trkpt>
      <trkpt lat="47.49203" lon="6.75641">
        <ele>348.1</ele>
        <time>2017-12-17T08:37:53.000Z</time>
      </trkpt>
      <trkpt lat="47.49204" lon="6.75636">
        <ele>348.1</ele>
        <time>2017-12-17T08:37:54.000Z</time>
      </trkpt>
      <trkpt lat="47.49205" lon="6.75632">
        <ele>348.2</ele>
        <time>2017-12-17T08:37:55.000Z</time>
      </trkpt>
      <trkpt lat="47.49207" lon="6.75628">
        <ele>348.3</ele>
        <time>2017-12-17T08:37:56.000Z</time>
      </trkpt>
      <trkpt lat="47.49209" lon="6.75624">
        <ele>348.4</ele>
        <time>2017-12-17T08:37:57.000Z</time>
      </trkpt>
      <trkpt lat="47.4921" lon="6.7562">
        <ele>348.5</ele>
        <time>2017-12-17T08:37:58.000Z</time>
      </trkpt>
      <trkpt lat="47.49212" lon="6.75614">
        <ele>348.5</ele>
        <time>2017-12-17T08:37:59.000Z</time>
      </trkpt>
      <trkpt lat="47.49215" lon="6.75609">
        <ele>348.6</ele>
        <time>2017-12-17T08:38:00.000Z</time>
      </trkpt>
      <trkpt lat="47.49216" lon="6.75605">
        <ele>348.6</ele>
        <time>2017-12-17T08:38:01.000Z</time>
      </trkpt>
      <trkpt lat="47.49217" lon="6.756">
        <ele>348.7</ele>
        <time>2017-12-17T08:38:02.000Z</time>
      </trkpt>
      <trkpt lat="47.49218" lon="6.75595">
        <ele>348.7</ele>
        <time>2017-12-17T08:38:03.000Z</time>
      </trkpt>
      <trkpt lat="47.49219" lon="6.75589">
        <ele>348.8</ele>
        <time>2017-12-17T08:38:04.000Z</time>
      </trkpt>
      <trkpt lat="47.4922" lon="6.75583">
        <ele>348.9</ele>
        <time>2017-12-17T08:38:05.000Z</time>
      </trkpt>
      <trkpt lat="47.49222" lon="6.75575">
        <ele>349</ele>
        <time>2017-12-17T08:38:06.000Z</time>
      </trkpt>
      <trkpt lat="47.49223" lon="6.75569">
        <ele>349</ele>
        <time>2017-12-17T08:38:07.000Z</time>
      </trkpt>
      <trkpt lat="47.49224" lon="6.75564">
        <ele>349.1</ele>
        <time>2017-12-17T08:38:08.000Z</time>
      </trkpt>
      <trkpt lat="47.49225" lon="6.7556">
        <ele>349</ele>
        <time>2017-12-17T08:38:09.000Z</time>
      </trkpt>
      <trkpt lat="47.49225" lon="6.75556">
        <ele>349.1</ele>
        <time>2017-12-17T08:38:10.000Z</time>
      </trkpt>
      <trkpt lat="47.49227" lon="6.7555">
        <ele>349</ele>
        <time>2017-12-17T08:38:11.000Z</time>
      </trkpt>
      <trkpt lat="47.49228" lon="6.75544">
        <ele>349</ele>
        <time>2017-12-17T08:38:12.000Z</time>
      </trkpt>
      <trkpt lat="47.49228" lon="6.75537">
        <ele>348.9</ele>
        <time>2017-12-17T08:38:13.000Z</time>
      </trkpt>
      <trkpt lat="47.49228" lon="6.75531">
        <ele>348.8</ele>
        <time>2017-12-17T08:38:14.000Z</time>
      </trkpt>
      <trkpt lat="47.4923" lon="6.75526">
        <ele>348.8</ele>
        <time>2017-12-17T08:38:15.000Z</time>
      </trkpt>
      <trkpt lat="47.49232" lon="6.75521">
        <ele>348.7</ele>
        <time>2017-12-17T08:38:16.000Z</time>
      </trkpt>
      <trkpt lat="47.49233" lon="6.75515">
        <ele>348.6</ele>
        <time>2017-12-17T08:38:17.000Z</time>
      </trkpt>
      <trkpt lat="47.49235" lon="6.75509">
        <ele>348.5</ele>
        <time>2017-12-17T08:38:18.000Z</time>
      </trkpt>
      <trkpt lat="47.49236" lon="6.75505">
        <ele>348.4</ele>
        <time>2017-12-17T08:38:19.000Z</time>
      </trkpt>
      <trkpt lat="47.49237" lon="6.75499">
        <ele>348.4</ele>
        <time>2017-12-17T08:38:20.000Z</time>
      </trkpt>
      <trkpt lat="47.49239" lon="6.75494">
        <ele>348.4</ele>
        <time>2017-12-17T08:38:21.000Z</time>
      </trkpt>
      <trkpt lat="47.4924" lon="6.75489">
        <ele>348.5</ele>
        <time>2017-12-17T08:38:22.000Z</time>
      </trkpt>
      <trkpt lat="47.49241" lon="6.75486">
        <ele>348.6</ele>
        <time>2017-12-17T08:38:23.000Z</time>
      </trkpt>
      <trkpt lat="47.49242" lon="6.7548">
        <ele>348.7</ele>
        <time>2017-12-17T08:38:24.000Z</time>
      </trkpt>
      <trkpt lat="47.49243" lon="6.75474">
        <ele>348.8</ele>
        <time>2017-12-17T08:38:25.000Z</time>
      </trkpt>
      <trkpt lat="47.49244" lon="6.75466">
        <ele>348.9</ele>
        <time>2017-12-17T08:38:26.000Z</time>
      </trkpt>
      <trkpt lat="47.49246" lon="6.75459">
        <ele>348.9</ele>
        <time>2017-12-17T08:38:27.000Z</time>
      </trkpt>
      <trkpt lat="47.49246" lon="6.75455">
        <ele>349</ele>
        <time>2017-12-17T08:38:28.000Z</time>
      </trkpt>
      <trkpt lat="47.49247" lon="6.75451">
        <ele>349</ele>
        <time>2017-12-17T08:38:29.000Z</time>
      </trkpt>
      <trkpt lat="47.49248" lon="6.75446">
        <ele>349.1</ele>
        <time>2017-12-17T08:38:30.000Z</time>
      </trkpt>
      <trkpt lat="47.49249" lon="6.75441">
        <ele>349.2</ele>
        <time>2017-12-17T08:38:31.000Z</time>
      </trkpt>
      <trkpt lat="47.49249" lon="6.75434">
        <ele>349.4</ele>
        <time>2017-12-17T08:38:32.000Z</time>
      </trkpt>
      <trkpt lat="47.4925" lon="6.75429">
        <ele>349.5</ele>
        <time>2017-12-17T08:38:33.000Z</time>
      </trkpt>
      <trkpt lat="47.49251" lon="6.75422">
        <ele>349.6</ele>
        <time>2017-12-17T08:38:34.000Z</time>
      </trkpt>
      <trkpt lat="47.49253" lon="6.75417">
        <ele>349.7</ele>
        <time>2017-12-17T08:38:35.000Z</time>
      </trkpt>
      <trkpt lat="47.49256" lon="6.75414">
        <ele>349.8</ele>
        <time>2017-12-17T08:38:36.000Z</time>
      </trkpt>
      <trkpt lat="47.49257" lon="6.7541">
        <ele>349.8</ele>
        <time>2017-12-17T08:38:37.000Z</time>
      </trkpt>
      <trkpt lat="47.49257" lon="6.75406">
        <ele>349.8</ele>
        <time>2017-12-17T08:38:38.000Z</time>
      </trkpt>
      <trkpt lat="47.49258" lon="6.75399">
        <ele>349.8</ele>
        <time>2017-12-17T08:38:39.000Z</time>
      </trkpt>
      <trkpt lat="47.49263" lon="6.75396">
        <ele>349.7</ele>
        <time>2017-12-17T08:38:40.000Z</time>
      </trkpt>
      <trkpt lat="47.49266" lon="6.75393">
        <ele>349.8</ele>
        <time>2017-12-17T08:38:41.000Z</time>
      </trkpt>
      <trkpt lat="47.49267" lon="6.75385">
        <ele>350.1</ele>
        <time>2017-12-17T08:38:42.000Z</time>
      </trkpt>
      <trkpt lat="47.49266" lon="6.75379">
        <ele>350.1</ele>
        <time>2017-12-17T08:38:43.000Z</time>
      </trkpt>
      <trkpt lat="47.49267" lon="6.75372">
        <ele>350.1</ele>
        <time>2017-12-17T08:38:44.000Z</time>
      </trkpt>
      <trkpt lat="47.49269" lon="6.75365">
        <ele>350.2</ele>
        <time>2017-12-17T08:38:45.000Z</time>
      </trkpt>
      <trkpt lat="47.4927" lon="6.7536">
        <ele>350.2</ele>
        <time>2017-12-17T08:38:46.000Z</time>
      </trkpt>
      <trkpt lat="47.4927" lon="6.75356">
        <ele>350.2</ele>
        <time>2017-12-17T08:38:47.000Z</time>
      </trkpt>
      <trkpt lat="47.49271" lon="6.75351">
        <ele>350.4</ele>
        <time>2017-12-17T08:38:48.000Z</time>
      </trkpt>
      <trkpt lat="47.4927" lon="6.75347">
        <ele>350.5</ele>
        <time>2017-12-17T08:38:49.000Z</time>
      </trkpt>
      <trkpt lat="47.49271" lon="6.75342">
        <ele>350.5</ele>
        <time>2017-12-17T08:38:50.000Z</time>
      </trkpt>
      <trkpt lat="47.49272" lon="6.75338">
        <ele>350.4</ele>
        <time>2017-12-17T08:38:51.000Z</time>
      </trkpt>
      <trkpt lat="47.49273" lon="6.75333">
        <ele>350.2</ele>
        <time>2017-12-17T08:38:52.000Z</time>
      </trkpt>
      <trkpt lat="47.49274" lon="6.75328">
        <ele>350.2</ele>
        <time>2017-12-17T08:38:53.000Z</time>
      </trkpt>
      <trkpt lat="47.49275" lon="6.75324">
        <ele>350.3</ele>
        <time>2017-12-17T08:38:54.000Z</time>
      </trkpt>
      <trkpt lat="47.49275" lon="6.75319">
        <ele>350.3</ele>
        <time>2017-12-17T08:38:55.000Z</time>
      </trkpt>
      <trkpt lat="47.49275" lon="6.75312">
        <ele>350.3</ele>
        <time>2017-12-17T08:38:56.000Z</time>
      </trkpt>
      <trkpt lat="47.49276" lon="6.75307">
        <ele>350.3</ele>
        <time>2017-12-17T08:38:57.000Z</time>
      </trkpt>
      <trkpt lat="47.49276" lon="6.75303">
        <ele>350.4</ele>
        <time>2017-12-17T08:38:58.000Z</time>
      </trkpt>
      <trkpt lat="47.49276" lon="6.75298">
        <ele>350.5</ele>
        <time>2017-12-17T08:38:59.000Z</time>
      </trkpt>
      <trkpt lat="47.49277" lon="6.75293">
        <ele>350.6</ele>
        <time>2017-12-17T08:39:00.000Z</time>
      </trkpt>
      <trkpt lat="47.49277" lon="6.7529">
        <ele>350.8</ele>
        <time>2017-12-17T08:39:01.000Z</time>
      </trkpt>
      <trkpt lat="47.49278" lon="6.75286">
        <ele>351</ele>
        <time>2017-12-17T08:39:02.000Z</time>
      </trkpt>
      <trkpt lat="47.49279" lon="6.75281">
        <ele>351.2</ele>
        <time>2017-12-17T08:39:03.000Z</time>
      </trkpt>
      <trkpt lat="47.4928" lon="6.75276">
        <ele>351.6</ele>
        <time>2017-12-17T08:39:04.000Z</time>
      </trkpt>
      <trkpt lat="47.49281" lon="6.75272">
        <ele>351.8</ele>
        <time>2017-12-17T08:39:05.000Z</time>
      </trkpt>
      <trkpt lat="47.49281" lon="6.75268">
        <ele>352.1</ele>
        <time>2017-12-17T08:39:06.000Z</time>
      </trkpt>
      <trkpt lat="47.49283" lon="6.75263">
        <ele>352.5</ele>
        <time>2017-12-17T08:39:07.000Z</time>
      </trkpt>
      <trkpt lat="47.49285" lon="6.7526">
        <ele>352.9</ele>
        <time>2017-12-17T08:39:08.000Z</time>
      </trkpt>
      <trkpt lat="47.49286" lon="6.75257">
        <ele>353.2</ele>
        <time>2017-12-17T08:39:09.000Z</time>
      </trkpt>
      <trkpt lat="47.49286" lon="6.75253">
        <ele>353.5</ele>
        <time>2017-12-17T08:39:10.000Z</time>
      </trkpt>
      <trkpt lat="47.49286" lon="6.75248">
        <ele>354</ele>
        <time>2017-12-17T08:39:11.000Z</time>
      </trkpt>
      <trkpt lat="47.49287" lon="6.75245">
        <ele>354.5</ele>
        <time>2017-12-17T08:39:12.000Z</time>
      </trkpt>
      <trkpt lat="47.49287" lon="6.75241">
        <ele>354.9</ele>
        <time>2017-12-17T08:39:13.000Z</time>
      </trkpt>
      <trkpt lat="47.49288" lon="6.75237">
        <ele>355.4</ele>
        <time>2017-12-17T08:39:14.000Z</time>
      </trkpt>
      <trkpt lat="47.4929" lon="6.7523">
        <ele>355.8</ele>
        <time>2017-12-17T08:39:15.000Z</time>
      </trkpt>
      <trkpt lat="47.49291" lon="6.75227">
        <ele>356.3</ele>
        <time>2017-12-17T08:39:16.000Z</time>
      </trkpt>
      <trkpt lat="47.49291" lon="6.75223">
        <ele>356.8</ele>
        <time>2017-12-17T08:39:17.000Z</time>
      </trkpt>
      <trkpt lat="47.49291" lon="6.75219">
        <ele>357.2</ele>
        <time>2017-12-17T08:39:18.000Z</time>
      </trkpt>
      <trkpt lat="47.49291" lon="6.75216">
        <ele>357.6</ele>
        <time>2017-12-17T08:39:19.000Z</time>
      </trkpt>
      <trkpt lat="47.4929" lon="6.7521">
        <ele>358</ele>
        <time>2017-12-17T08:39:20.000Z</time>
      </trkpt>
      <trkpt lat="47.4929" lon="6.75205">
        <ele>358.4</ele>
        <time>2017-12-17T08:39:21.000Z</time>
      </trkpt>
      <trkpt lat="47.4929" lon="6.75201">
        <ele>358.8</ele>
        <time>2017-12-17T08:39:22.000Z</time>
      </trkpt>
      <trkpt lat="47.4929" lon="6.75198">
        <ele>359.2</ele>
        <time>2017-12-17T08:39:23.000Z</time>
      </trkpt>
      <trkpt lat="47.49291" lon="6.75193">
        <ele>359.6</ele>
        <time>2017-12-17T08:39:24.000Z</time>
      </trkpt>
      <trkpt lat="47.49291" lon="6.7519">
        <ele>359.9</ele>
        <time>2017-12-17T08:39:25.000Z</time>
      </trkpt>
      <trkpt lat="47.49291" lon="6.75184">
        <ele>360.6</ele>
        <time>2017-12-17T08:39:27.000Z</time>
      </trkpt>
      <trkpt lat="47.49292" lon="6.7518">
        <ele>360.9</ele>
        <time>2017-12-17T08:39:28.000Z</time>
      </trkpt>
      <trkpt lat="47.49293" lon="6.75176">
        <ele>361.2</ele>
        <time>2017-12-17T08:39:29.000Z</time>
      </trkpt>
      <trkpt lat="47.49293" lon="6.75173">
        <ele>361.5</ele>
        <time>2017-12-17T08:39:30.000Z</time>
      </trkpt>
      <trkpt lat="47.49295" lon="6.75169">
        <ele>361.9</ele>
        <time>2017-12-17T08:39:31.000Z</time>
      </trkpt>
      <trkpt lat="47.49295" lon="6.75166">
        <ele>362.2</ele>
        <time>2017-12-17T08:39:32.000Z</time>
      </trkpt>
      <trkpt lat="47.49295" lon="6.75162">
        <ele>362.5</ele>
        <time>2017-12-17T08:39:33.000Z</time>
      </trkpt>
      <trkpt lat="47.49295" lon="6.75157">
        <ele>362.8</ele>
        <time>2017-12-17T08:39:34.000Z</time>
      </trkpt>
      <trkpt lat="47.49295" lon="6.75151">
        <ele>363.1</ele>
        <time>2017-12-17T08:39:35.000Z</time>
      </trkpt>
      <trkpt lat="47.49295" lon="6.75146">
        <ele>363.4</ele>
        <time>2017-12-17T08:39:36.000Z</time>
      </trkpt>
      <trkpt lat="47.49295" lon="6.75141">
        <ele>363.7</ele>
        <time>2017-12-17T08:39:37.000Z</time>
      </trkpt>
      <trkpt lat="47.49295" lon="6.75135">
        <ele>364</ele>
        <time>2017-12-17T08:39:38.000Z</time>
      </trkpt>
      <trkpt lat="47.49296" lon="6.75129">
        <ele>364.3</ele>
        <time>2017-12-17T08:39:40.000Z</time>
      </trkpt>
      <trkpt lat="47.49296" lon="6.75125">
        <ele>364.4</ele>
        <time>2017-12-17T08:39:41.000Z</time>
      </trkpt>
      <trkpt lat="47.49296" lon="6.75118">
        <ele>364.6</ele>
        <time>2017-12-17T08:39:42.000Z</time>
      </trkpt>
      <trkpt lat="47.49296" lon="6.75112">
        <ele>364.6</ele>
        <time>2017-12-17T08:39:43.000Z</time>
      </trkpt>
      <trkpt lat="47.49296" lon="6.75105">
        <ele>364.8</ele>
        <time>2017-12-17T08:39:44.000Z</time>
      </trkpt>
      <trkpt lat="47.49297" lon="6.75097">
        <ele>364.8</ele>
        <time>2017-12-17T08:39:45.000Z</time>
      </trkpt>
      <trkpt lat="47.49298" lon="6.75089">
        <ele>364.8</ele>
        <time>2017-12-17T08:39:46.000Z</time>
      </trkpt>
      <trkpt lat="47.493" lon="6.75082">
        <ele>364.8</ele>
        <time>2017-12-17T08:39:47.000Z</time>
      </trkpt>
      <trkpt lat="47.49302" lon="6.75076">
        <ele>364.7</ele>
        <time>2017-12-17T08:39:48.000Z</time>
      </trkpt>
      <trkpt lat="47.49305" lon="6.75071">
        <ele>364.7</ele>
        <time>2017-12-17T08:39:49.000Z</time>
      </trkpt>
      <trkpt lat="47.49308" lon="6.75066">
        <ele>364.7</ele>
        <time>2017-12-17T08:39:50.000Z</time>
      </trkpt>
      <trkpt lat="47.4931" lon="6.75061">
        <ele>364.8</ele>
        <time>2017-12-17T08:39:51.000Z</time>
      </trkpt>
      <trkpt lat="47.49315" lon="6.75058">
        <ele>364.8</ele>
        <time>2017-12-17T08:39:52.000Z</time>
      </trkpt>
      <trkpt lat="47.49319" lon="6.75054">
        <ele>364.9</ele>
        <time>2017-12-17T08:39:53.000Z</time>
      </trkpt>
      <trkpt lat="47.49322" lon="6.75048">
        <ele>365</ele>
        <time>2017-12-17T08:39:54.000Z</time>
      </trkpt>
      <trkpt lat="47.49324" lon="6.75043">
        <ele>365</ele>
        <time>2017-12-17T08:39:55.000Z</time>
      </trkpt>
      <trkpt lat="47.49327" lon="6.75038">
        <ele>365</ele>
        <time>2017-12-17T08:39:56.000Z</time>
      </trkpt>
      <trkpt lat="47.4933" lon="6.75033">
        <ele>365.1</ele>
        <time>2017-12-17T08:39:57.000Z</time>
      </trkpt>
      <trkpt lat="47.49332" lon="6.75027">
        <ele>365.3</ele>
        <time>2017-12-17T08:39:58.000Z</time>
      </trkpt>
      <trkpt lat="47.49334" lon="6.75022">
        <ele>365.4</ele>
        <time>2017-12-17T08:39:59.000Z</time>
      </trkpt>
      <trkpt lat="47.49335" lon="6.75019">
        <ele>365.6</ele>
        <time>2017-12-17T08:40:00.000Z</time>
      </trkpt>
      <trkpt lat="47.49337" lon="6.75015">
        <ele>366.6</ele>
        <time>2017-12-17T08:40:03.000Z</time>
      </trkpt>
      <trkpt lat="47.49337" lon="6.75012">
        <ele>367</ele>
        <time>2017-12-17T08:40:04.000Z</time>
      </trkpt>
      <trkpt lat="47.49338" lon="6.75008">
        <ele>367.3</ele>
        <time>2017-12-17T08:40:05.000Z</time>
      </trkpt>
      <trkpt lat="47.49338" lon="6.75005">
        <ele>367.5</ele>
        <time>2017-12-17T08:40:06.000Z</time>
      </trkpt>
      <trkpt lat="47.49338" lon="6.74998">
        <ele>368.2</ele>
        <time>2017-12-17T08:40:09.000Z</time>
      </trkpt>
      <trkpt lat="47.49338" lon="6.74997">
        <ele>368.5</ele>
        <time>2017-12-17T08:40:10.000Z</time>
      </trkpt>
      <trkpt lat="47.49339" lon="6.74991">
        <ele>368.8</ele>
        <time>2017-12-17T08:40:12.000Z</time>
      </trkpt>
      <trkpt lat="47.4934" lon="6.74989">
        <ele>369.1</ele>
        <time>2017-12-17T08:40:13.000Z</time>
      </trkpt>
      <trkpt lat="47.49341" lon="6.74983">
        <ele>370.5</ele>
        <time>2017-12-17T08:40:17.000Z</time>
      </trkpt>
      <trkpt lat="47.4934" lon="6.74981">
        <ele>370.9</ele>
        <time>2017-12-17T08:40:18.000Z</time>
      </trkpt>
      <trkpt lat="47.49339" lon="6.74975">
        <ele>371.6</ele>
        <time>2017-12-17T08:40:20.000Z</time>
      </trkpt>
      <trkpt lat="47.49339" lon="6.74971">
        <ele>371.9</ele>
        <time>2017-12-17T08:40:21.000Z</time>
      </trkpt>
      <trkpt lat="47.49339" lon="6.74968">
        <ele>372.4</ele>
        <time>2017-12-17T08:40:23.000Z</time>
      </trkpt>
      <trkpt lat="47.49338" lon="6.74964">
        <ele>372.5</ele>
        <time>2017-12-17T08:40:24.000Z</time>
      </trkpt>
      <trkpt lat="47.49336" lon="6.74958">
        <ele>373.1</ele>
        <time>2017-12-17T08:40:26.000Z</time>
      </trkpt>
      <trkpt lat="47.49337" lon="6.74956">
        <ele>373.5</ele>
        <time>2017-12-17T08:40:27.000Z</time>
      </trkpt>
      <trkpt lat="47.49337" lon="6.7495">
        <ele>375.3</ele>
        <time>2017-12-17T08:40:32.000Z</time>
      </trkpt>
      <trkpt lat="47.49338" lon="6.74948">
        <ele>375.6</ele>
        <time>2017-12-17T08:40:33.000Z</time>
      </trkpt>
      <trkpt lat="47.49337" lon="6.74945">
        <ele>375.9</ele>
        <time>2017-12-17T08:40:34.000Z</time>
      </trkpt>
      <trkpt lat="47.49337" lon="6.74941">
        <ele>376.1</ele>
        <time>2017-12-17T08:40:35.000Z</time>
      </trkpt>
      <trkpt lat="47.49337" lon="6.74936">
        <ele>376.4</ele>
        <time>2017-12-17T08:40:36.000Z</time>
      </trkpt>
      <trkpt lat="47.49336" lon="6.74933">
        <ele>376.5</ele>
        <time>2017-12-17T08:40:37.000Z</time>
      </trkpt>
      <trkpt lat="47.49337" lon="6.74927">
        <ele>377.2</ele>
        <time>2017-12-17T08:40:39.000Z</time>
      </trkpt>
      <trkpt lat="47.49337" lon="6.74923">
        <ele>377.5</ele>
        <time>2017-12-17T08:40:40.000Z</time>
      </trkpt>
      <trkpt lat="47.49338" lon="6.74917">
        <ele>378</ele>
        <time>2017-12-17T08:40:42.000Z</time>
      </trkpt>
      <trkpt lat="47.49338" lon="6.74914">
        <ele>378.3</ele>
        <time>2017-12-17T08:40:43.000Z</time>
      </trkpt>
      <trkpt lat="47.4934" lon="6.74911">
        <ele>378.7</ele>
        <time>2017-12-17T08:40:45.000Z</time>
      </trkpt>
      <trkpt lat="47.49342" lon="6.74906">
        <ele>378.9</ele>
        <time>2017-12-17T08:40:46.000Z</time>
      </trkpt>
      <trkpt lat="47.49343" lon="6.74902">
        <ele>378.9</ele>
        <time>2017-12-17T08:40:47.000Z</time>
      </trkpt>
      <trkpt lat="47.49344" lon="6.74897">
        <ele>378.9</ele>
        <time>2017-12-17T08:40:48.000Z</time>
      </trkpt>
      <trkpt lat="47.49346" lon="6.74892">
        <ele>378.9</ele>
        <time>2017-12-17T08:40:49.000Z</time>
      </trkpt>
      <trkpt lat="47.49347" lon="6.74888">
        <ele>378.8</ele>
        <time>2017-12-17T08:40:50.000Z</time>
      </trkpt>
      <trkpt lat="47.49348" lon="6.74886">
        <ele>378.8</ele>
        <time>2017-12-17T08:40:51.000Z</time>
      </trkpt>
      <trkpt lat="47.49349" lon="6.74882">
        <ele>378.7</ele>
        <time>2017-12-17T08:40:52.000Z</time>
      </trkpt>
      <trkpt lat="47.49352" lon="6.74877">
        <ele>378.7</ele>
        <time>2017-12-17T08:40:55.000Z</time>
      </trkpt>
      <trkpt lat="47.49353" lon="6.74875">
        <ele>378.7</ele>
        <time>2017-12-17T08:40:56.000Z</time>
      </trkpt>
      <trkpt lat="47.49356" lon="6.74871">
        <ele>378.6</ele>
        <time>2017-12-17T08:40:58.000Z</time>
      </trkpt>
      <trkpt lat="47.49357" lon="6.7487">
        <ele>378.5</ele>
        <time>2017-12-17T08:40:59.000Z</time>
      </trkpt>
      <trkpt lat="47.49358" lon="6.74864">
        <ele>378.2</ele>
        <time>2017-12-17T08:41:01.000Z</time>
      </trkpt>
      <trkpt lat="47.49358" lon="6.74862">
        <ele>378.1</ele>
        <time>2017-12-17T08:41:02.000Z</time>
      </trkpt>
      <trkpt lat="47.49359" lon="6.74855">
        <ele>377.7</ele>
        <time>2017-12-17T08:41:04.000Z</time>
      </trkpt>
      <trkpt lat="47.49361" lon="6.74852">
        <ele>377.5</ele>
        <time>2017-12-17T08:41:05.000Z</time>
      </trkpt>
      <trkpt lat="47.49362" lon="6.7485">
        <ele>377.3</ele>
        <time>2017-12-17T08:41:06.000Z</time>
      </trkpt>
      <trkpt lat="47.49364" lon="6.74844">
        <ele>377</ele>
        <time>2017-12-17T08:41:07.000Z</time>
      </trkpt>
      <trkpt lat="47.49366" lon="6.74839">
        <ele>376.7</ele>
        <time>2017-12-17T08:41:08.000Z</time>
      </trkpt>
      <trkpt lat="47.49367" lon="6.74836">
        <ele>376.3</ele>
        <time>2017-12-17T08:41:09.000Z</time>
      </trkpt>
      <trkpt lat="47.49369" lon="6.74831">
        <ele>376</ele>
        <time>2017-12-17T08:41:10.000Z</time>
      </trkpt>
      <trkpt lat="47.49369" lon="6.74828">
        <ele>375.7</ele>
        <time>2017-12-17T08:41:11.000Z</time>
      </trkpt>
      <trkpt lat="47.4937" lon="6.74825">
        <ele>375.5</ele>
        <time>2017-12-17T08:41:12.000Z</time>
      </trkpt>
      <trkpt lat="47.49371" lon="6.7482">
        <ele>375.2</ele>
        <time>2017-12-17T08:41:13.000Z</time>
      </trkpt>
      <trkpt lat="47.49371" lon="6.74816">
        <ele>374.9</ele>
        <time>2017-12-17T08:41:14.000Z</time>
      </trkpt>
      <trkpt lat="47.49372" lon="6.74811">
        <ele>374.7</ele>
        <time>2017-12-17T08:41:15.000Z</time>
      </trkpt>
      <trkpt lat="47.49372" lon="6.74805">
        <ele>374.5</ele>
        <time>2017-12-17T08:41:16.000Z</time>
      </trkpt>
      <trkpt lat="47.49373" lon="6.748">
        <ele>374.1</ele>
        <time>2017-12-17T08:41:17.000Z</time>
      </trkpt>
      <trkpt lat="47.49375" lon="6.74794">
        <ele>373.8</ele>
        <time>2017-12-17T08:41:18.000Z</time>
      </trkpt>
      <trkpt lat="47.49377" lon="6.74788">
        <ele>373.5</ele>
        <time>2017-12-17T08:41:19.000Z</time>
      </trkpt>
      <trkpt lat="47.49378" lon="6.74781">
        <ele>373.1</ele>
        <time>2017-12-17T08:41:20.000Z</time>
      </trkpt>
      <trkpt lat="47.49379" lon="6.74775">
        <ele>372.8</ele>
        <time>2017-12-17T08:41:21.000Z</time>
      </trkpt>
      <trkpt lat="47.4938" lon="6.74769">
        <ele>372.5</ele>
        <time>2017-12-17T08:41:22.000Z</time>
      </trkpt>
      <trkpt lat="47.4938" lon="6.74763">
        <ele>372.1</ele>
        <time>2017-12-17T08:41:23.000Z</time>
      </trkpt>
      <trkpt lat="47.49381" lon="6.74757">
        <ele>371.8</ele>
        <time>2017-12-17T08:41:24.000Z</time>
      </trkpt>
      <trkpt lat="47.49382" lon="6.74754">
        <ele>371.4</ele>
        <time>2017-12-17T08:41:25.000Z</time>
      </trkpt>
      <trkpt lat="47.49384" lon="6.7475">
        <ele>370.9</ele>
        <time>2017-12-17T08:41:26.000Z</time>
      </trkpt>
      <trkpt lat="47.49384" lon="6.74745">
        <ele>370.4</ele>
        <time>2017-12-17T08:41:27.000Z</time>
      </trkpt>
      <trkpt lat="47.49385" lon="6.74739">
        <ele>370</ele>
        <time>2017-12-17T08:41:28.000Z</time>
      </trkpt>
      <trkpt lat="47.49385" lon="6.74732">
        <ele>369.8</ele>
        <time>2017-12-17T08:41:29.000Z</time>
      </trkpt>
      <trkpt lat="47.49385" lon="6.74729">
        <ele>369.6</ele>
        <time>2017-12-17T08:41:30.000Z</time>
      </trkpt>
      <trkpt lat="47.49385" lon="6.74725">
        <ele>369.4</ele>
        <time>2017-12-17T08:41:31.000Z</time>
      </trkpt>
      <trkpt lat="47.49385" lon="6.7472">
        <ele>369.1</ele>
        <time>2017-12-17T08:41:32.000Z</time>
      </trkpt>
      <trkpt lat="47.49385" lon="6.74715">
        <ele>368.9</ele>
        <time>2017-12-17T08:41:33.000Z</time>
      </trkpt>
      <trkpt lat="47.49385" lon="6.74711">
        <ele>368.7</ele>
        <time>2017-12-17T08:41:34.000Z</time>
      </trkpt>
      <trkpt lat="47.49385" lon="6.74707">
        <ele>368.4</ele>
        <time>2017-12-17T08:41:35.000Z</time>
      </trkpt>
      <trkpt lat="47.49385" lon="6.74702">
        <ele>368.2</ele>
        <time>2017-12-17T08:41:36.000Z</time>
      </trkpt>
      <trkpt lat="47.49384" lon="6.74699">
        <ele>368</ele>
        <time>2017-12-17T08:41:37.000Z</time>
      </trkpt>
      <trkpt lat="47.49383" lon="6.74695">
        <ele>367.8</ele>
        <time>2017-12-17T08:41:38.000Z</time>
      </trkpt>
      <trkpt lat="47.49383" lon="6.74691">
        <ele>367.6</ele>
        <time>2017-12-17T08:41:39.000Z</time>
      </trkpt>
      <trkpt lat="47.49382" lon="6.74686">
        <ele>367.5</ele>
        <time>2017-12-17T08:41:40.000Z</time>
      </trkpt>
      <trkpt lat="47.49381" lon="6.74682">
        <ele>367.3</ele>
        <time>2017-12-17T08:41:41.000Z</time>
      </trkpt>
      <trkpt lat="47.49381" lon="6.74677">
        <ele>367.1</ele>
        <time>2017-12-17T08:41:42.000Z</time>
      </trkpt>
      <trkpt lat="47.49381" lon="6.74673">
        <ele>367</ele>
        <time>2017-12-17T08:41:43.000Z</time>
      </trkpt>
      <trkpt lat="47.49381" lon="6.74669">
        <ele>366.8</ele>
        <time>2017-12-17T08:41:44.000Z</time>
      </trkpt>
      <trkpt lat="47.49381" lon="6.74664">
        <ele>366.5</ele>
        <time>2017-12-17T08:41:45.000Z</time>
      </trkpt>
      <trkpt lat="47.49381" lon="6.74658">
        <ele>366.3</ele>
        <time>2017-12-17T08:41:46.000Z</time>
      </trkpt>
      <trkpt lat="47.49383" lon="6.74654">
        <ele>366</ele>
        <time>2017-12-17T08:41:47.000Z</time>
      </trkpt>
      <trkpt lat="47.49384" lon="6.7465">
        <ele>365.7</ele>
        <time>2017-12-17T08:41:48.000Z</time>
      </trkpt>
      <trkpt lat="47.49384" lon="6.74646">
        <ele>365.5</ele>
        <time>2017-12-17T08:41:49.000Z</time>
      </trkpt>
      <trkpt lat="47.49385" lon="6.74643">
        <ele>365.2</ele>
        <time>2017-12-17T08:41:50.000Z</time>
      </trkpt>
      <trkpt lat="47.49384" lon="6.74639">
        <ele>364.9</ele>
        <time>2017-12-17T08:41:51.000Z</time>
      </trkpt>
      <trkpt lat="47.49384" lon="6.74635">
        <ele>364.7</ele>
        <time>2017-12-17T08:41:52.000Z</time>
      </trkpt>
      <trkpt lat="47.49383" lon="6.74631">
        <ele>364.4</ele>
        <time>2017-12-17T08:41:53.000Z</time>
      </trkpt>
      <trkpt lat="47.49382" lon="6.74626">
        <ele>364.1</ele>
        <time>2017-12-17T08:41:54.000Z</time>
      </trkpt>
      <trkpt lat="47.49382" lon="6.74619">
        <ele>363.9</ele>
        <time>2017-12-17T08:41:55.000Z</time>
      </trkpt>
      <trkpt lat="47.49382" lon="6.74615">
        <ele>363.5</ele>
        <time>2017-12-17T08:41:56.000Z</time>
      </trkpt>
      <trkpt lat="47.49382" lon="6.74611">
        <ele>363.2</ele>
        <time>2017-12-17T08:41:57.000Z</time>
      </trkpt>
      <trkpt lat="47.49384" lon="6.74607">
        <ele>362.1</ele>
        <time>2017-12-17T08:42:01.000Z</time>
      </trkpt>
      <trkpt lat="47.49382" lon="6.74601">
        <ele>361.9</ele>
        <time>2017-12-17T08:42:02.000Z</time>
      </trkpt>
      <trkpt lat="47.49381" lon="6.74595">
        <ele>361.6</ele>
        <time>2017-12-17T08:42:03.000Z</time>
      </trkpt>
      <trkpt lat="47.4938" lon="6.7459">
        <ele>361.3</ele>
        <time>2017-12-17T08:42:04.000Z</time>
      </trkpt>
      <trkpt lat="47.49379" lon="6.74583">
        <ele>361.1</ele>
        <time>2017-12-17T08:42:05.000Z</time>
      </trkpt>
      <trkpt lat="47.49377" lon="6.74575">
        <ele>360.9</ele>
        <time>2017-12-17T08:42:06.000Z</time>
      </trkpt>
      <trkpt lat="47.49378" lon="6.74566">
        <ele>360.6</ele>
        <time>2017-12-17T08:42:07.000Z</time>
      </trkpt>
      <trkpt lat="47.4938" lon="6.7456">
        <ele>360.4</ele>
        <time>2017-12-17T08:42:08.000Z</time>
      </trkpt>
      <trkpt lat="47.49381" lon="6.74556">
        <ele>360.1</ele>
        <time>2017-12-17T08:42:09.000Z</time>
      </trkpt>
      <trkpt lat="47.49382" lon="6.74553">
        <ele>360</ele>
        <time>2017-12-17T08:42:10.000Z</time>
      </trkpt>
      <trkpt lat="47.49384" lon="6.74551">
        <ele>359.8</ele>
        <time>2017-12-17T08:42:11.000Z</time>
      </trkpt>
      <trkpt lat="47.49385" lon="6.74546">
        <ele>359.6</ele>
        <time>2017-12-17T08:42:12.000Z</time>
      </trkpt>
      <trkpt lat="47.49385" lon="6.74542">
        <ele>359.3</ele>
        <time>2017-12-17T08:42:13.000Z</time>
      </trkpt>
      <trkpt lat="47.49386" lon="6.74537">
        <ele>359</ele>
        <time>2017-12-17T08:42:14.000Z</time>
      </trkpt>
      <trkpt lat="47.49387" lon="6.74532">
        <ele>358.7</ele>
        <time>2017-12-17T08:42:15.000Z</time>
      </trkpt>
      <trkpt lat="47.49387" lon="6.74523">
        <ele>358.5</ele>
        <time>2017-12-17T08:42:16.000Z</time>
      </trkpt>
      <trkpt lat="47.49388" lon="6.74518">
        <ele>358.2</ele>
        <time>2017-12-17T08:42:18.000Z</time>
      </trkpt>
      <trkpt lat="47.49388" lon="6.74517">
        <ele>358.1</ele>
        <time>2017-12-17T08:42:19.000Z</time>
      </trkpt>
      <trkpt lat="47.49389" lon="6.74513">
        <ele>358.1</ele>
        <time>2017-12-17T08:42:20.000Z</time>
      </trkpt>
      <trkpt lat="47.49391" lon="6.74508">
        <ele>358.1</ele>
        <time>2017-12-17T08:42:21.000Z</time>
      </trkpt>
      <trkpt lat="47.49391" lon="6.745">
        <ele>358.2</ele>
        <time>2017-12-17T08:42:22.000Z</time>
      </trkpt>
      <trkpt lat="47.49392" lon="6.74495">
        <ele>358.3</ele>
        <time>2017-12-17T08:42:23.000Z</time>
      </trkpt>
      <trkpt lat="47.49392" lon="6.74491">
        <ele>358.3</ele>
        <time>2017-12-17T08:42:24.000Z</time>
      </trkpt>
      <trkpt lat="47.49392" lon="6.74484">
        <ele>358.3</ele>
        <time>2017-12-17T08:42:25.000Z</time>
      </trkpt>
      <trkpt lat="47.49393" lon="6.74479">
        <ele>358.2</ele>
        <time>2017-12-17T08:42:26.000Z</time>
      </trkpt>
      <trkpt lat="47.49395" lon="6.74477">
        <ele>358.2</ele>
        <time>2017-12-17T08:42:27.000Z</time>
      </trkpt>
      <trkpt lat="47.49396" lon="6.74474">
        <ele>358.2</ele>
        <time>2017-12-17T08:42:28.000Z</time>
      </trkpt>
      <trkpt lat="47.49397" lon="6.74468">
        <ele>358.5</ele>
        <time>2017-12-17T08:42:30.000Z</time>
      </trkpt>
      <trkpt lat="47.49398" lon="6.74463">
        <ele>358.6</ele>
        <time>2017-12-17T08:42:31.000Z</time>
      </trkpt>
      <trkpt lat="47.49399" lon="6.7446">
        <ele>358.8</ele>
        <time>2017-12-17T08:42:32.000Z</time>
      </trkpt>
      <trkpt lat="47.49399" lon="6.74456">
        <ele>358.9</ele>
        <time>2017-12-17T08:42:33.000Z</time>
      </trkpt>
      <trkpt lat="47.49398" lon="6.74445">
        <ele>359.1</ele>
        <time>2017-12-17T08:42:34.000Z</time>
      </trkpt>
      <trkpt lat="47.49398" lon="6.74438">
        <ele>359.3</ele>
        <time>2017-12-17T08:42:35.000Z</time>
      </trkpt>
      <trkpt lat="47.49399" lon="6.74431">
        <ele>359.5</ele>
        <time>2017-12-17T08:42:36.000Z</time>
      </trkpt>
      <trkpt lat="47.49399" lon="6.74428">
        <ele>359.9</ele>
        <time>2017-12-17T08:42:38.000Z</time>
      </trkpt>
      <trkpt lat="47.49398" lon="6.74424">
        <ele>360.2</ele>
        <time>2017-12-17T08:42:39.000Z</time>
      </trkpt>
      <trkpt lat="47.49397" lon="6.74421">
        <ele>360.5</ele>
        <time>2017-12-17T08:42:40.000Z</time>
      </trkpt>
      <trkpt lat="47.49397" lon="6.74417">
        <ele>360.8</ele>
        <time>2017-12-17T08:42:41.000Z</time>
      </trkpt>
      <trkpt lat="47.49398" lon="6.74406">
        <ele>361.2</ele>
        <time>2017-12-17T08:42:42.000Z</time>
      </trkpt>
      <trkpt lat="47.49399" lon="6.744">
        <ele>361.6</ele>
        <time>2017-12-17T08:42:43.000Z</time>
      </trkpt>
      <trkpt lat="47.49399" lon="6.74396">
        <ele>361.9</ele>
        <time>2017-12-17T08:42:44.000Z</time>
      </trkpt>
      <trkpt lat="47.494" lon="6.74391">
        <ele>362.1</ele>
        <time>2017-12-17T08:42:45.000Z</time>
      </trkpt>
      <trkpt lat="47.494" lon="6.74387">
        <ele>362.4</ele>
        <time>2017-12-17T08:42:46.000Z</time>
      </trkpt>
      <trkpt lat="47.494" lon="6.74383">
        <ele>362.6</ele>
        <time>2017-12-17T08:42:47.000Z</time>
      </trkpt>
      <trkpt lat="47.494" lon="6.74378">
        <ele>362.8</ele>
        <time>2017-12-17T08:42:48.000Z</time>
      </trkpt>
      <trkpt lat="47.494" lon="6.74372">
        <ele>363.2</ele>
        <time>2017-12-17T08:42:50.000Z</time>
      </trkpt>
      <trkpt lat="47.49401" lon="6.74367">
        <ele>363.5</ele>
        <time>2017-12-17T08:42:51.000Z</time>
      </trkpt>
      <trkpt lat="47.494" lon="6.74362">
        <ele>363.8</ele>
        <time>2017-12-17T08:42:52.000Z</time>
      </trkpt>
      <trkpt lat="47.49401" lon="6.74359">
        <ele>364</ele>
        <time>2017-12-17T08:42:53.000Z</time>
      </trkpt>
      <trkpt lat="47.49401" lon="6.74355">
        <ele>364.2</ele>
        <time>2017-12-17T08:42:54.000Z</time>
      </trkpt>
      <trkpt lat="47.49401" lon="6.74347">
        <ele>364.4</ele>
        <time>2017-12-17T08:42:55.000Z</time>
      </trkpt>
      <trkpt lat="47.49401" lon="6.74341">
        <ele>364.6</ele>
        <time>2017-12-17T08:42:56.000Z</time>
      </trkpt>
      <trkpt lat="47.494" lon="6.74336">
        <ele>364.8</ele>
        <time>2017-12-17T08:42:57.000Z</time>
      </trkpt>
      <trkpt lat="47.494" lon="6.74332">
        <ele>365</ele>
        <time>2017-12-17T08:42:58.000Z</time>
      </trkpt>
      <trkpt lat="47.49399" lon="6.74327">
        <ele>365.5</ele>
        <time>2017-12-17T08:43:00.000Z</time>
      </trkpt>
      <trkpt lat="47.49399" lon="6.74325">
        <ele>365.8</ele>
        <time>2017-12-17T08:43:01.000Z</time>
      </trkpt>
      <trkpt lat="47.494" lon="6.74319">
        <ele>366.2</ele>
        <time>2017-12-17T08:43:03.000Z</time>
      </trkpt>
      <trkpt lat="47.494" lon="6.74317">
        <ele>366.5</ele>
        <time>2017-12-17T08:43:04.000Z</time>
      </trkpt>
      <trkpt lat="47.49401" lon="6.74312">
        <ele>367.2</ele>
        <time>2017-12-17T08:43:06.000Z</time>
      </trkpt>
      <trkpt lat="47.494" lon="6.74308">
        <ele>367.5</ele>
        <time>2017-12-17T08:43:07.000Z</time>
      </trkpt>
      <trkpt lat="47.494" lon="6.74303">
        <ele>367.8</ele>
        <time>2017-12-17T08:43:08.000Z</time>
      </trkpt>
      <trkpt lat="47.494" lon="6.743">
        <ele>368</ele>
        <time>2017-12-17T08:43:09.000Z</time>
      </trkpt>
      <trkpt lat="47.494" lon="6.74295">
        <ele>368.4</ele>
        <time>2017-12-17T08:43:11.000Z</time>
      </trkpt>
      <trkpt lat="47.49402" lon="6.74291">
        <ele>368.4</ele>
        <time>2017-12-17T08:43:12.000Z</time>
      </trkpt>
      <trkpt lat="47.49404" lon="6.74286">
        <ele>368.4</ele>
        <time>2017-12-17T08:43:13.000Z</time>
      </trkpt>
      <trkpt lat="47.49405" lon="6.7428">
        <ele>368.3</ele>
        <time>2017-12-17T08:43:14.000Z</time>
      </trkpt>
      <trkpt lat="47.49406" lon="6.74277">
        <ele>368.3</ele>
        <time>2017-12-17T08:43:15.000Z</time>
      </trkpt>
      <trkpt lat="47.49406" lon="6.74271">
        <ele>368.2</ele>
        <time>2017-12-17T08:43:16.000Z</time>
      </trkpt>
      <trkpt lat="47.49406" lon="6.74263">
        <ele>368.1</ele>
        <time>2017-12-17T08:43:17.000Z</time>
      </trkpt>
      <trkpt lat="47.49406" lon="6.74255">
        <ele>367.8</ele>
        <time>2017-12-17T08:43:18.000Z</time>
      </trkpt>
      <trkpt lat="47.49405" lon="6.74248">
        <ele>367.6</ele>
        <time>2017-12-17T08:43:19.000Z</time>
      </trkpt>
      <trkpt lat="47.49406" lon="6.7424">
        <ele>367.2</ele>
        <time>2017-12-17T08:43:20.000Z</time>
      </trkpt>
      <trkpt lat="47.49406" lon="6.74232">
        <ele>367</ele>
        <time>2017-12-17T08:43:21.000Z</time>
      </trkpt>
      <trkpt lat="47.49406" lon="6.74226">
        <ele>366.7</ele>
        <time>2017-12-17T08:43:22.000Z</time>
      </trkpt>
      <trkpt lat="47.49407" lon="6.74221">
        <ele>366.6</ele>
        <time>2017-12-17T08:43:23.000Z</time>
      </trkpt>
      <trkpt lat="47.49407" lon="6.74218">
        <ele>366.5</ele>
        <time>2017-12-17T08:43:24.000Z</time>
      </trkpt>
      <trkpt lat="47.49408" lon="6.74213">
        <ele>366.3</ele>
        <time>2017-12-17T08:43:25.000Z</time>
      </trkpt>
      <trkpt lat="47.49409" lon="6.74208">
        <ele>366.1</ele>
        <time>2017-12-17T08:43:26.000Z</time>
      </trkpt>
      <trkpt lat="47.49409" lon="6.74202">
        <ele>366</ele>
        <time>2017-12-17T08:43:27.000Z</time>
      </trkpt>
      <trkpt lat="47.49409" lon="6.74196">
        <ele>365.9</ele>
        <time>2017-12-17T08:43:28.000Z</time>
      </trkpt>
      <trkpt lat="47.4941" lon="6.7419">
        <ele>365.9</ele>
        <time>2017-12-17T08:43:29.000Z</time>
      </trkpt>
      <trkpt lat="47.49409" lon="6.74185">
        <ele>365.9</ele>
        <time>2017-12-17T08:43:30.000Z</time>
      </trkpt>
      <trkpt lat="47.49409" lon="6.74181">
        <ele>365.9</ele>
        <time>2017-12-17T08:43:31.000Z</time>
      </trkpt>
      <trkpt lat="47.4941" lon="6.74176">
        <ele>365.9</ele>
        <time>2017-12-17T08:43:32.000Z</time>
      </trkpt>
      <trkpt lat="47.49411" lon="6.7417">
        <ele>365.9</ele>
        <time>2017-12-17T08:43:33.000Z</time>
      </trkpt>
      <trkpt lat="47.49411" lon="6.74164">
        <ele>366</ele>
        <time>2017-12-17T08:43:34.000Z</time>
      </trkpt>
      <trkpt lat="47.49411" lon="6.74159">
        <ele>366</ele>
        <time>2017-12-17T08:43:35.000Z</time>
      </trkpt>
      <trkpt lat="47.49411" lon="6.74155">
        <ele>366</ele>
        <time>2017-12-17T08:43:36.000Z</time>
      </trkpt>
      <trkpt lat="47.49409" lon="6.74149">
        <ele>366</ele>
        <time>2017-12-17T08:43:38.000Z</time>
      </trkpt>
      <trkpt lat="47.49409" lon="6.74146">
        <ele>366</ele>
        <time>2017-12-17T08:43:39.000Z</time>
      </trkpt>
      <trkpt lat="47.49408" lon="6.74142">
        <ele>366</ele>
        <time>2017-12-17T08:43:40.000Z</time>
      </trkpt>
      <trkpt lat="47.49408" lon="6.74137">
        <ele>366</ele>
        <time>2017-12-17T08:43:41.000Z</time>
      </trkpt>
      <trkpt lat="47.49408" lon="6.74133">
        <ele>366</ele>
        <time>2017-12-17T08:43:42.000Z</time>
      </trkpt>
      <trkpt lat="47.49408" lon="6.74129">
        <ele>366</ele>
        <time>2017-12-17T08:43:43.000Z</time>
      </trkpt>
      <trkpt lat="47.49408" lon="6.74123">
        <ele>366.1</ele>
        <time>2017-12-17T08:43:44.000Z</time>
      </trkpt>
      <trkpt lat="47.49408" lon="6.74117">
        <ele>366.2</ele>
        <time>2017-12-17T08:43:45.000Z</time>
      </trkpt>
      <trkpt lat="47.49408" lon="6.74112">
        <ele>366.3</ele>
        <time>2017-12-17T08:43:46.000Z</time>
      </trkpt>
      <trkpt lat="47.49408" lon="6.74108">
        <ele>366.4</ele>
        <time>2017-12-17T08:43:47.000Z</time>
      </trkpt>
      <trkpt lat="47.49408" lon="6.74102">
        <ele>366.9</ele>
        <time>2017-12-17T08:43:49.000Z</time>
      </trkpt>
      <trkpt lat="47.49409" lon="6.74099">
        <ele>367.3</ele>
        <time>2017-12-17T08:43:50.000Z</time>
      </trkpt>
      <trkpt lat="47.4941" lon="6.74094">
        <ele>368.8</ele>
        <time>2017-12-17T08:43:54.000Z</time>
      </trkpt>
      <trkpt lat="47.4941" lon="6.74093">
        <ele>369.1</ele>
        <time>2017-12-17T08:43:55.000Z</time>
      </trkpt>
      <trkpt lat="47.49411" lon="6.74087">
        <ele>370.6</ele>
        <time>2017-12-17T08:43:59.000Z</time>
      </trkpt>
      <trkpt lat="47.49411" lon="6.74086">
        <ele>370.9</ele>
        <time>2017-12-17T08:44:00.000Z</time>
      </trkpt>
      <trkpt lat="47.4941" lon="6.7408">
        <ele>372.3</ele>
        <time>2017-12-17T08:44:05.000Z</time>
      </trkpt>
      <trkpt lat="47.4941" lon="6.74078">
        <ele>372.6</ele>
        <time>2017-12-17T08:44:06.000Z</time>
      </trkpt>
      <trkpt lat="47.49409" lon="6.74072">
        <ele>373</ele>
        <time>2017-12-17T08:44:09.000Z</time>
      </trkpt>
      <trkpt lat="47.49408" lon="6.74069">
        <ele>373.1</ele>
        <time>2017-12-17T08:44:10.000Z</time>
      </trkpt>
      <trkpt lat="47.49407" lon="6.74065">
        <ele>373.4</ele>
        <time>2017-12-17T08:44:12.000Z</time>
      </trkpt>
      <trkpt lat="47.49407" lon="6.74063">
        <ele>373.7</ele>
        <time>2017-12-17T08:44:13.000Z</time>
      </trkpt>
      <trkpt lat="47.49407" lon="6.74057">
        <ele>374.1</ele>
        <time>2017-12-17T08:44:15.000Z</time>
      </trkpt>
      <trkpt lat="47.49407" lon="6.74052">
        <ele>374.3</ele>
        <time>2017-12-17T08:44:16.000Z</time>
      </trkpt>
      <trkpt lat="47.49407" lon="6.74049">
        <ele>374.6</ele>
        <time>2017-12-17T08:44:17.000Z</time>
      </trkpt>
      <trkpt lat="47.49409" lon="6.74043">
        <ele>374.7</ele>
        <time>2017-12-17T08:44:18.000Z</time>
      </trkpt>
      <trkpt lat="47.49412" lon="6.74036">
        <ele>375.2</ele>
        <time>2017-12-17T08:44:19.000Z</time>
      </trkpt>
      <trkpt lat="47.49413" lon="6.74029">
        <ele>374.9</ele>
        <time>2017-12-17T08:44:20.000Z</time>
      </trkpt>
      <trkpt lat="47.49416" lon="6.74019">
        <ele>375</ele>
        <time>2017-12-17T08:44:21.000Z</time>
      </trkpt>
      <trkpt lat="47.49414" lon="6.74011">
        <ele>374.5</ele>
        <time>2017-12-17T08:44:22.000Z</time>
      </trkpt>
      <trkpt lat="47.49414" lon="6.74003">
        <ele>373.9</ele>
        <time>2017-12-17T08:44:23.000Z</time>
      </trkpt>
      <trkpt lat="47.49414" lon="6.73998">
        <ele>372.9</ele>
        <time>2017-12-17T08:44:24.000Z</time>
      </trkpt>
      <trkpt lat="47.49415" lon="6.73991">
        <ele>371.4</ele>
        <time>2017-12-17T08:44:25.000Z</time>
      </trkpt>
      <trkpt lat="47.49416" lon="6.73984">
        <ele>371.3</ele>
        <time>2017-12-17T08:44:26.000Z</time>
      </trkpt>
      <trkpt lat="47.49416" lon="6.73977">
        <ele>370.2</ele>
        <time>2017-12-17T08:44:27.000Z</time>
      </trkpt>
      <trkpt lat="47.49416" lon="6.73969">
        <ele>370.1</ele>
        <time>2017-12-17T08:44:28.000Z</time>
      </trkpt>
      <trkpt lat="47.49416" lon="6.73963">
        <ele>370</ele>
        <time>2017-12-17T08:44:29.000Z</time>
      </trkpt>
      <trkpt lat="47.49416" lon="6.73959">
        <ele>369.9</ele>
        <time>2017-12-17T08:44:30.000Z</time>
      </trkpt>
      <trkpt lat="47.49416" lon="6.73954">
        <ele>369.7</ele>
        <time>2017-12-17T08:44:31.000Z</time>
      </trkpt>
      <trkpt lat="47.49417" lon="6.73949">
        <ele>369.6</ele>
        <time>2017-12-17T08:44:32.000Z</time>
      </trkpt>
      <trkpt lat="47.49417" lon="6.73943">
        <ele>369.4</ele>
        <time>2017-12-17T08:44:33.000Z</time>
      </trkpt>
      <trkpt lat="47.49417" lon="6.73938">
        <ele>369.3</ele>
        <time>2017-12-17T08:44:34.000Z</time>
      </trkpt>
      <trkpt lat="47.49417" lon="6.73932">
        <ele>369.2</ele>
        <time>2017-12-17T08:44:35.000Z</time>
      </trkpt>
      <trkpt lat="47.49416" lon="6.73926">
        <ele>369</ele>
        <time>2017-12-17T08:44:36.000Z</time>
      </trkpt>
      <trkpt lat="47.49416" lon="6.73919">
        <ele>368.7</ele>
        <time>2017-12-17T08:44:37.000Z</time>
      </trkpt>
      <trkpt lat="47.49415" lon="6.73913">
        <ele>368.5</ele>
        <time>2017-12-17T08:44:38.000Z</time>
      </trkpt>
      <trkpt lat="47.49414" lon="6.73907">
        <ele>368.2</ele>
        <time>2017-12-17T08:44:39.000Z</time>
      </trkpt>
      <trkpt lat="47.49414" lon="6.73902">
        <ele>367.9</ele>
        <time>2017-12-17T08:44:40.000Z</time>
      </trkpt>
      <trkpt lat="47.49414" lon="6.73896">
        <ele>367.5</ele>
        <time>2017-12-17T08:44:41.000Z</time>
      </trkpt>
      <trkpt lat="47.49414" lon="6.7389">
        <ele>367.2</ele>
        <time>2017-12-17T08:44:42.000Z</time>
      </trkpt>
      <trkpt lat="47.49415" lon="6.73884">
        <ele>366.9</ele>
        <time>2017-12-17T08:44:43.000Z</time>
      </trkpt>
      <trkpt lat="47.49416" lon="6.73878">
        <ele>366.6</ele>
        <time>2017-12-17T08:44:44.000Z</time>
      </trkpt>
      <trkpt lat="47.49416" lon="6.73871">
        <ele>366.3</ele>
        <time>2017-12-17T08:44:45.000Z</time>
      </trkpt>
      <trkpt lat="47.49418" lon="6.73864">
        <ele>366.2</ele>
        <time>2017-12-17T08:44:46.000Z</time>
      </trkpt>
      <trkpt lat="47.4942" lon="6.73858">
        <ele>366</ele>
        <time>2017-12-17T08:44:47.000Z</time>
      </trkpt>
      <trkpt lat="47.49422" lon="6.73852">
        <ele>365.7</ele>
        <time>2017-12-17T08:44:48.000Z</time>
      </trkpt>
      <trkpt lat="47.49423" lon="6.73848">
        <ele>365.4</ele>
        <time>2017-12-17T08:44:49.000Z</time>
      </trkpt>
      <trkpt lat="47.49424" lon="6.73844">
        <ele>365.2</ele>
        <time>2017-12-17T08:44:50.000Z</time>
      </trkpt>
      <trkpt lat="47.49425" lon="6.73839">
        <ele>365</ele>
        <time>2017-12-17T08:44:51.000Z</time>
      </trkpt>
      <trkpt lat="47.49425" lon="6.73835">
        <ele>364.9</ele>
        <time>2017-12-17T08:44:52.000Z</time>
      </trkpt>
      <trkpt lat="47.49426" lon="6.73832">
        <ele>364.8</ele>
        <time>2017-12-17T08:44:53.000Z</time>
      </trkpt>
      <trkpt lat="47.49427" lon="6.73828">
        <ele>364.7</ele>
        <time>2017-12-17T08:44:54.000Z</time>
      </trkpt>
      <trkpt lat="47.49427" lon="6.73824">
        <ele>364.7</ele>
        <time>2017-12-17T08:44:55.000Z</time>
      </trkpt>
      <trkpt lat="47.49428" lon="6.73818">
        <ele>364.6</ele>
        <time>2017-12-17T08:44:56.000Z</time>
      </trkpt>
      <trkpt lat="47.49429" lon="6.73812">
        <ele>364.4</ele>
        <time>2017-12-17T08:44:57.000Z</time>
      </trkpt>
      <trkpt lat="47.49431" lon="6.73804">
        <ele>364.4</ele>
        <time>2017-12-17T08:44:58.000Z</time>
      </trkpt>
      <trkpt lat="47.49433" lon="6.73795">
        <ele>364.4</ele>
        <time>2017-12-17T08:44:59.000Z</time>
      </trkpt>
      <trkpt lat="47.49435" lon="6.73786">
        <ele>364.4</ele>
        <time>2017-12-17T08:45:00.000Z</time>
      </trkpt>
      <trkpt lat="47.49438" lon="6.73779">
        <ele>363.9</ele>
        <time>2017-12-17T08:45:01.000Z</time>
      </trkpt>
      <trkpt lat="47.4944" lon="6.73772">
        <ele>364.6</ele>
        <time>2017-12-17T08:45:02.000Z</time>
      </trkpt>
      <trkpt lat="47.49443" lon="6.73764">
        <ele>364.6</ele>
        <time>2017-12-17T08:45:03.000Z</time>
      </trkpt>
      <trkpt lat="47.49446" lon="6.73756">
        <ele>364.2</ele>
        <time>2017-12-17T08:45:04.000Z</time>
      </trkpt>
      <trkpt lat="47.49451" lon="6.73745">
        <ele>364.7</ele>
        <time>2017-12-17T08:45:05.000Z</time>
      </trkpt>
      <trkpt lat="47.49456" lon="6.73736">
        <ele>365.6</ele>
        <time>2017-12-17T08:45:06.000Z</time>
      </trkpt>
      <trkpt lat="47.49461" lon="6.73726">
        <ele>366.1</ele>
        <time>2017-12-17T08:45:07.000Z</time>
      </trkpt>
      <trkpt lat="47.49464" lon="6.73718">
        <ele>367.2</ele>
        <time>2017-12-17T08:45:08.000Z</time>
      </trkpt>
      <trkpt lat="47.49467" lon="6.73711">
        <ele>368.4</ele>
        <time>2017-12-17T08:45:09.000Z</time>
      </trkpt>
      <trkpt lat="47.4947" lon="6.73703">
        <ele>368.6</ele>
        <time>2017-12-17T08:45:10.000Z</time>
      </trkpt>
      <trkpt lat="47.49473" lon="6.73696">
        <ele>368.5</ele>
        <time>2017-12-17T08:45:11.000Z</time>
      </trkpt>
      <trkpt lat="47.49476" lon="6.73689">
        <ele>369.2</ele>
        <time>2017-12-17T08:45:12.000Z</time>
      </trkpt>
      <trkpt lat="47.49478" lon="6.73682">
        <ele>369.5</ele>
        <time>2017-12-17T08:45:13.000Z</time>
      </trkpt>
      <trkpt lat="47.49481" lon="6.73677">
        <ele>370.3</ele>
        <time>2017-12-17T08:45:14.000Z</time>
      </trkpt>
      <trkpt lat="47.49484" lon="6.7367">
        <ele>371.2</ele>
        <time>2017-12-17T08:45:15.000Z</time>
      </trkpt>
      <trkpt lat="47.49487" lon="6.73664">
        <ele>371.8</ele>
        <time>2017-12-17T08:45:16.000Z</time>
      </trkpt>
      <trkpt lat="47.49491" lon="6.73657">
        <ele>372.1</ele>
        <time>2017-12-17T08:45:17.000Z</time>
      </trkpt>
      <trkpt lat="47.49495" lon="6.73649">
        <ele>373</ele>
        <time>2017-12-17T08:45:18.000Z</time>
      </trkpt>
      <trkpt lat="47.49498" lon="6.73642">
        <ele>373.1</ele>
        <time>2017-12-17T08:45:19.000Z</time>
      </trkpt>
      <trkpt lat="47.49502" lon="6.73636">
        <ele>373.1</ele>
        <time>2017-12-17T08:45:20.000Z</time>
      </trkpt>
      <trkpt lat="47.49506" lon="6.73629">
        <ele>373.5</ele>
        <time>2017-12-17T08:45:21.000Z</time>
      </trkpt>
      <trkpt lat="47.49511" lon="6.73623">
        <ele>373.5</ele>
        <time>2017-12-17T08:45:22.000Z</time>
      </trkpt>
      <trkpt lat="47.49515" lon="6.73617">
        <ele>373.4</ele>
        <time>2017-12-17T08:45:23.000Z</time>
      </trkpt>
      <trkpt lat="47.4952" lon="6.73611">
        <ele>373.8</ele>
        <time>2017-12-17T08:45:24.000Z</time>
      </trkpt>
      <trkpt lat="47.49523" lon="6.73606">
        <ele>374.3</ele>
        <time>2017-12-17T08:45:25.000Z</time>
      </trkpt>
      <trkpt lat="47.49528" lon="6.73601">
        <ele>375</ele>
        <time>2017-12-17T08:45:26.000Z</time>
      </trkpt>
      <trkpt lat="47.49532" lon="6.73597">
        <ele>375.8</ele>
        <time>2017-12-17T08:45:27.000Z</time>
      </trkpt>
      <trkpt lat="47.49537" lon="6.7359">
        <ele>376.7</ele>
        <time>2017-12-17T08:45:28.000Z</time>
      </trkpt>
      <trkpt lat="47.49542" lon="6.73584">
        <ele>377.4</ele>
        <time>2017-12-17T08:45:29.000Z</time>
      </trkpt>
      <trkpt lat="47.49548" lon="6.73577">
        <ele>377.7</ele>
        <time>2017-12-17T08:45:30.000Z</time>
      </trkpt>
      <trkpt lat="47.49553" lon="6.73571">
        <ele>377.9</ele>
        <time>2017-12-17T08:45:31.000Z</time>
      </trkpt>
      <trkpt lat="47.49559" lon="6.73566">
        <ele>377.6</ele>
        <time>2017-12-17T08:45:32.000Z</time>
      </trkpt>
      <trkpt lat="47.49564" lon="6.73561">
        <ele>377.4</ele>
        <time>2017-12-17T08:45:33.000Z</time>
      </trkpt>
      <trkpt lat="47.4957" lon="6.73556">
        <ele>377.2</ele>
        <time>2017-12-17T08:45:34.000Z</time>
      </trkpt>
      <trkpt lat="47.49575" lon="6.73551">
        <ele>376.9</ele>
        <time>2017-12-17T08:45:35.000Z</time>
      </trkpt>
      <trkpt lat="47.4958" lon="6.73547">
        <ele>376.7</ele>
        <time>2017-12-17T08:45:36.000Z</time>
      </trkpt>
      <trkpt lat="47.49585" lon="6.73543">
        <ele>377.2</ele>
        <time>2017-12-17T08:45:37.000Z</time>
      </trkpt>
      <trkpt lat="47.49589" lon="6.73539">
        <ele>377.4</ele>
        <time>2017-12-17T08:45:38.000Z</time>
      </trkpt>
      <trkpt lat="47.49594" lon="6.73534">
        <ele>377.6</ele>
        <time>2017-12-17T08:45:39.000Z</time>
      </trkpt>
      <trkpt lat="47.49598" lon="6.7353">
        <ele>378.2</ele>
        <time>2017-12-17T08:45:40.000Z</time>
      </trkpt>
      <trkpt lat="47.49603" lon="6.73525">
        <ele>378.7</ele>
        <time>2017-12-17T08:45:41.000Z</time>
      </trkpt>
      <trkpt lat="47.49608" lon="6.7352">
        <ele>379.5</ele>
        <time>2017-12-17T08:45:42.000Z</time>
      </trkpt>
      <trkpt lat="47.49612" lon="6.73516">
        <ele>380.1</ele>
        <time>2017-12-17T08:45:43.000Z</time>
      </trkpt>
      <trkpt lat="47.49616" lon="6.73511">
        <ele>380.5</ele>
        <time>2017-12-17T08:45:44.000Z</time>
      </trkpt>
      <trkpt lat="47.4962" lon="6.73507">
        <ele>380.5</ele>
        <time>2017-12-17T08:45:45.000Z</time>
      </trkpt>
      <trkpt lat="47.49623" lon="6.73503">
        <ele>380.5</ele>
        <time>2017-12-17T08:45:46.000Z</time>
      </trkpt>
      <trkpt lat="47.49627" lon="6.73497">
        <ele>380</ele>
        <time>2017-12-17T08:45:47.000Z</time>
      </trkpt>
      <trkpt lat="47.49631" lon="6.73491">
        <ele>379.7</ele>
        <time>2017-12-17T08:45:48.000Z</time>
      </trkpt>
      <trkpt lat="47.49635" lon="6.73486">
        <ele>379.3</ele>
        <time>2017-12-17T08:45:49.000Z</time>
      </trkpt>
      <trkpt lat="47.49638" lon="6.73481">
        <ele>378.7</ele>
        <time>2017-12-17T08:45:50.000Z</time>
      </trkpt>
      <trkpt lat="47.49642" lon="6.73476">
        <ele>377.8</ele>
        <time>2017-12-17T08:45:51.000Z</time>
      </trkpt>
      <trkpt lat="47.49645" lon="6.73471">
        <ele>377.5</ele>
        <time>2017-12-17T08:45:52.000Z</time>
      </trkpt>
      <trkpt lat="47.49649" lon="6.73466">
        <ele>377.5</ele>
        <time>2017-12-17T08:45:53.000Z</time>
      </trkpt>
      <trkpt lat="47.49653" lon="6.73461">
        <ele>377.8</ele>
        <time>2017-12-17T08:45:54.000Z</time>
      </trkpt>
      <trkpt lat="47.49658" lon="6.73455">
        <ele>378</ele>
        <time>2017-12-17T08:45:55.000Z</time>
      </trkpt>
      <trkpt lat="47.49662" lon="6.7345">
        <ele>378.4</ele>
        <time>2017-12-17T08:45:56.000Z</time>
      </trkpt>
      <trkpt lat="47.49665" lon="6.73445">
        <ele>378.5</ele>
        <time>2017-12-17T08:45:57.000Z</time>
      </trkpt>
      <trkpt lat="47.49669" lon="6.7344">
        <ele>378.3</ele>
        <time>2017-12-17T08:45:58.000Z</time>
      </trkpt>
      <trkpt lat="47.49672" lon="6.73435">
        <ele>377.9</ele>
        <time>2017-12-17T08:45:59.000Z</time>
      </trkpt>
      <trkpt lat="47.49676" lon="6.7343">
        <ele>377.6</ele>
        <time>2017-12-17T08:46:00.000Z</time>
      </trkpt>
      <trkpt lat="47.49679" lon="6.73425">
        <ele>377.5</ele>
        <time>2017-12-17T08:46:01.000Z</time>
      </trkpt>
      <trkpt lat="47.49682" lon="6.73421">
        <ele>377.4</ele>
        <time>2017-12-17T08:46:02.000Z</time>
      </trkpt>
      <trkpt lat="47.49686" lon="6.73416">
        <ele>377.3</ele>
        <time>2017-12-17T08:46:03.000Z</time>
      </trkpt>
      <trkpt lat="47.4969" lon="6.7341">
        <ele>376.7</ele>
        <time>2017-12-17T08:46:04.000Z</time>
      </trkpt>
      <trkpt lat="47.49693" lon="6.73405">
        <ele>376.1</ele>
        <time>2017-12-17T08:46:05.000Z</time>
      </trkpt>
      <trkpt lat="47.49696" lon="6.734">
        <ele>375.5</ele>
        <time>2017-12-17T08:46:06.000Z</time>
      </trkpt>
      <trkpt lat="47.49699" lon="6.73395">
        <ele>375.1</ele>
        <time>2017-12-17T08:46:07.000Z</time>
      </trkpt>
      <trkpt lat="47.49702" lon="6.73389">
        <ele>375.1</ele>
        <time>2017-12-17T08:46:08.000Z</time>
      </trkpt>
      <trkpt lat="47.49704" lon="6.73385">
        <ele>375.4</ele>
        <time>2017-12-17T08:46:09.000Z</time>
      </trkpt>
      <trkpt lat="47.49707" lon="6.73381">
        <ele>375.3</ele>
        <time>2017-12-17T08:46:10.000Z</time>
      </trkpt>
      <trkpt lat="47.4971" lon="6.73376">
        <ele>375.4</ele>
        <time>2017-12-17T08:46:11.000Z</time>
      </trkpt>
      <trkpt lat="47.49712" lon="6.73373">
        <ele>376</ele>
        <time>2017-12-17T08:46:12.000Z</time>
      </trkpt>
      <trkpt lat="47.49714" lon="6.73369">
        <ele>376.4</ele>
        <time>2017-12-17T08:46:13.000Z</time>
      </trkpt>
      <trkpt lat="47.49718" lon="6.73363">
        <ele>376</ele>
        <time>2017-12-17T08:46:14.000Z</time>
      </trkpt>
      <trkpt lat="47.49721" lon="6.73359">
        <ele>375.7</ele>
        <time>2017-12-17T08:46:15.000Z</time>
      </trkpt>
      <trkpt lat="47.49724" lon="6.73354">
        <ele>376.7</ele>
        <time>2017-12-17T08:46:16.000Z</time>
      </trkpt>
      <trkpt lat="47.49728" lon="6.7335">
        <ele>377.6</ele>
        <time>2017-12-17T08:46:17.000Z</time>
      </trkpt>
      <trkpt lat="47.49731" lon="6.73345">
        <ele>377.9</ele>
        <time>2017-12-17T08:46:18.000Z</time>
      </trkpt>
      <trkpt lat="47.49734" lon="6.73341">
        <ele>377.8</ele>
        <time>2017-12-17T08:46:19.000Z</time>
      </trkpt>
      <trkpt lat="47.49736" lon="6.73338">
        <ele>377.7</ele>
        <time>2017-12-17T08:46:20.000Z</time>
      </trkpt>
      <trkpt lat="47.4974" lon="6.73333">
        <ele>378</ele>
        <time>2017-12-17T08:46:21.000Z</time>
      </trkpt>
      <trkpt lat="47.49742" lon="6.7333">
        <ele>378.3</ele>
        <time>2017-12-17T08:46:22.000Z</time>
      </trkpt>
      <trkpt lat="47.49744" lon="6.73326">
        <ele>378.8</ele>
        <time>2017-12-17T08:46:23.000Z</time>
      </trkpt>
      <trkpt lat="47.49747" lon="6.73323">
        <ele>379.4</ele>
        <time>2017-12-17T08:46:24.000Z</time>
      </trkpt>
      <trkpt lat="47.4975" lon="6.73319">
        <ele>379.9</ele>
        <time>2017-12-17T08:46:25.000Z</time>
      </trkpt>
      <trkpt lat="47.49752" lon="6.73316">
        <ele>380.5</ele>
        <time>2017-12-17T08:46:26.000Z</time>
      </trkpt>
      <trkpt lat="47.49755" lon="6.73311">
        <ele>381.1</ele>
        <time>2017-12-17T08:46:27.000Z</time>
      </trkpt>
      <trkpt lat="47.49758" lon="6.73307">
        <ele>381.2</ele>
        <time>2017-12-17T08:46:28.000Z</time>
      </trkpt>
      <trkpt lat="47.49761" lon="6.73303">
        <ele>381.3</ele>
        <time>2017-12-17T08:46:29.000Z</time>
      </trkpt>
      <trkpt lat="47.49764" lon="6.73298">
        <ele>381.8</ele>
        <time>2017-12-17T08:46:30.000Z</time>
      </trkpt>
      <trkpt lat="47.49767" lon="6.73294">
        <ele>382.4</ele>
        <time>2017-12-17T08:46:31.000Z</time>
      </trkpt>
      <trkpt lat="47.4977" lon="6.7329">
        <ele>382</ele>
        <time>2017-12-17T08:46:32.000Z</time>
      </trkpt>
      <trkpt lat="47.49773" lon="6.73285">
        <ele>382.4</ele>
        <time>2017-12-17T08:46:33.000Z</time>
      </trkpt>
      <trkpt lat="47.49776" lon="6.73281">
        <ele>382.5</ele>
        <time>2017-12-17T08:46:34.000Z</time>
      </trkpt>
      <trkpt lat="47.49778" lon="6.73277">
        <ele>382.4</ele>
        <time>2017-12-17T08:46:35.000Z</time>
      </trkpt>
      <trkpt lat="47.49781" lon="6.73272">
        <ele>382.5</ele>
        <time>2017-12-17T08:46:36.000Z</time>
      </trkpt>
      <trkpt lat="47.49784" lon="6.73267">
        <ele>382.4</ele>
        <time>2017-12-17T08:46:37.000Z</time>
      </trkpt>
      <trkpt lat="47.49786" lon="6.73263">
        <ele>382.5</ele>
        <time>2017-12-17T08:46:38.000Z</time>
      </trkpt>
      <trkpt lat="47.49788" lon="6.73259">
        <ele>382.6</ele>
        <time>2017-12-17T08:46:39.000Z</time>
      </trkpt>
      <trkpt lat="47.49791" lon="6.73254">
        <ele>383.5</ele>
        <time>2017-12-17T08:46:40.000Z</time>
      </trkpt>
      <trkpt lat="47.49793" lon="6.73249">
        <ele>383.6</ele>
        <time>2017-12-17T08:46:41.000Z</time>
      </trkpt>
      <trkpt lat="47.49795" lon="6.73245">
        <ele>383.6</ele>
        <time>2017-12-17T08:46:42.000Z</time>
      </trkpt>
      <trkpt lat="47.49796" lon="6.7324">
        <ele>384</ele>
        <time>2017-12-17T08:46:43.000Z</time>
      </trkpt>
      <trkpt lat="47.49799" lon="6.73235">
        <ele>384</ele>
        <time>2017-12-17T08:46:44.000Z</time>
      </trkpt>
      <trkpt lat="47.498" lon="6.73231">
        <ele>384</ele>
        <time>2017-12-17T08:46:45.000Z</time>
      </trkpt>
      <trkpt lat="47.49802" lon="6.73225">
        <ele>383.4</ele>
        <time>2017-12-17T08:46:46.000Z</time>
      </trkpt>
      <trkpt lat="47.49804" lon="6.73221">
        <ele>382.6</ele>
        <time>2017-12-17T08:46:47.000Z</time>
      </trkpt>
      <trkpt lat="47.49806" lon="6.73217">
        <ele>382.2</ele>
        <time>2017-12-17T08:46:48.000Z</time>
      </trkpt>
      <trkpt lat="47.49808" lon="6.73212">
        <ele>382.3</ele>
        <time>2017-12-17T08:46:49.000Z</time>
      </trkpt>
      <trkpt lat="47.49809" lon="6.73208">
        <ele>382.3</ele>
        <time>2017-12-17T08:46:50.000Z</time>
      </trkpt>
      <trkpt lat="47.4981" lon="6.73202">
        <ele>382.5</ele>
        <time>2017-12-17T08:46:51.000Z</time>
      </trkpt>
      <trkpt lat="47.4981" lon="6.73197">
        <ele>382.5</ele>
        <time>2017-12-17T08:46:52.000Z</time>
      </trkpt>
      <trkpt lat="47.49811" lon="6.73191">
        <ele>382.5</ele>
        <time>2017-12-17T08:46:53.000Z</time>
      </trkpt>
      <trkpt lat="47.49812" lon="6.73185">
        <ele>382.5</ele>
        <time>2017-12-17T08:46:54.000Z</time>
      </trkpt>
      <trkpt lat="47.49814" lon="6.73179">
        <ele>382.4</ele>
        <time>2017-12-17T08:46:55.000Z</time>
      </trkpt>
      <trkpt lat="47.49815" lon="6.73175">
        <ele>382.4</ele>
        <time>2017-12-17T08:46:56.000Z</time>
      </trkpt>
      <trkpt lat="47.49816" lon="6.73169">
        <ele>382.3</ele>
        <time>2017-12-17T08:46:57.000Z</time>
      </trkpt>
      <trkpt lat="47.49818" lon="6.73164">
        <ele>382.3</ele>
        <time>2017-12-17T08:46:58.000Z</time>
      </trkpt>
      <trkpt lat="47.49819" lon="6.73159">
        <ele>382.3</ele>
        <time>2017-12-17T08:46:59.000Z</time>
      </trkpt>
      <trkpt lat="47.49821" lon="6.73154">
        <ele>382.3</ele>
        <time>2017-12-17T08:47:00.000Z</time>
      </trkpt>
      <trkpt lat="47.49822" lon="6.7315">
        <ele>382.3</ele>
        <time>2017-12-17T08:47:01.000Z</time>
      </trkpt>
      <trkpt lat="47.49824" lon="6.73142">
        <ele>382.6</ele>
        <time>2017-12-17T08:47:03.000Z</time>
      </trkpt>
      <trkpt lat="47.49825" lon="6.73136">
        <ele>382.6</ele>
        <time>2017-12-17T08:47:04.000Z</time>
      </trkpt>
      <trkpt lat="47.49826" lon="6.73132">
        <ele>382.7</ele>
        <time>2017-12-17T08:47:05.000Z</time>
      </trkpt>
      <trkpt lat="47.49828" lon="6.73127">
        <ele>382.7</ele>
        <time>2017-12-17T08:47:06.000Z</time>
      </trkpt>
      <trkpt lat="47.49829" lon="6.73123">
        <ele>382.8</ele>
        <time>2017-12-17T08:47:07.000Z</time>
      </trkpt>
      <trkpt lat="47.4983" lon="6.73117">
        <ele>382.9</ele>
        <time>2017-12-17T08:47:08.000Z</time>
      </trkpt>
      <trkpt lat="47.49832" lon="6.73112">
        <ele>383</ele>
        <time>2017-12-17T08:47:09.000Z</time>
      </trkpt>
      <trkpt lat="47.49833" lon="6.73108">
        <ele>383.1</ele>
        <time>2017-12-17T08:47:10.000Z</time>
      </trkpt>
      <trkpt lat="47.49834" lon="6.73103">
        <ele>383.1</ele>
        <time>2017-12-17T08:47:11.000Z</time>
      </trkpt>
      <trkpt lat="47.49835" lon="6.731">
        <ele>383.2</ele>
        <time>2017-12-17T08:47:12.000Z</time>
      </trkpt>
      <trkpt lat="47.49836" lon="6.73097">
        <ele>383.3</ele>
        <time>2017-12-17T08:47:13.000Z</time>
      </trkpt>
      <trkpt lat="47.49837" lon="6.73093">
        <ele>383.4</ele>
        <time>2017-12-17T08:47:14.000Z</time>
      </trkpt>
      <trkpt lat="47.49838" lon="6.73088">
        <ele>383.4</ele>
        <time>2017-12-17T08:47:15.000Z</time>
      </trkpt>
      <trkpt lat="47.49839" lon="6.73084">
        <ele>383.5</ele>
        <time>2017-12-17T08:47:16.000Z</time>
      </trkpt>
      <trkpt lat="47.4984" lon="6.73079">
        <ele>383.6</ele>
        <time>2017-12-17T08:47:17.000Z</time>
      </trkpt>
      <trkpt lat="47.49842" lon="6.73075">
        <ele>383.7</ele>
        <time>2017-12-17T08:47:18.000Z</time>
      </trkpt>
      <trkpt lat="47.49844" lon="6.73071">
        <ele>383.8</ele>
        <time>2017-12-17T08:47:19.000Z</time>
      </trkpt>
      <trkpt lat="47.49846" lon="6.73067">
        <ele>383.8</ele>
        <time>2017-12-17T08:47:20.000Z</time>
      </trkpt>
      <trkpt lat="47.49847" lon="6.73062">
        <ele>383.9</ele>
        <time>2017-12-17T08:47:21.000Z</time>
      </trkpt>
      <trkpt lat="47.49848" lon="6.73058">
        <ele>384</ele>
        <time>2017-12-17T08:47:22.000Z</time>
      </trkpt>
      <trkpt lat="47.4985" lon="6.73052">
        <ele>384.1</ele>
        <time>2017-12-17T08:47:23.000Z</time>
      </trkpt>
      <trkpt lat="47.49852" lon="6.73047">
        <ele>384.9</ele>
        <time>2017-12-17T08:47:24.000Z</time>
      </trkpt>
      <trkpt lat="47.49854" lon="6.73042">
        <ele>385</ele>
        <time>2017-12-17T08:47:25.000Z</time>
      </trkpt>
      <trkpt lat="47.49855" lon="6.73037">
        <ele>385.1</ele>
        <time>2017-12-17T08:47:26.000Z</time>
      </trkpt>
      <trkpt lat="47.49857" lon="6.73033">
        <ele>385.3</ele>
        <time>2017-12-17T08:47:27.000Z</time>
      </trkpt>
      <trkpt lat="47.49858" lon="6.7303">
        <ele>385.4</ele>
        <time>2017-12-17T08:47:28.000Z</time>
      </trkpt>
      <trkpt lat="47.49861" lon="6.73024">
        <ele>386.6</ele>
        <time>2017-12-17T08:47:29.000Z</time>
      </trkpt>
      <trkpt lat="47.49863" lon="6.73018">
        <ele>387.1</ele>
        <time>2017-12-17T08:47:30.000Z</time>
      </trkpt>
      <trkpt lat="47.49865" lon="6.73012">
        <ele>387.2</ele>
        <time>2017-12-17T08:47:31.000Z</time>
      </trkpt>
      <trkpt lat="47.49867" lon="6.73007">
        <ele>387.2</ele>
        <time>2017-12-17T08:47:32.000Z</time>
      </trkpt>
      <trkpt lat="47.49869" lon="6.73001">
        <ele>387.2</ele>
        <time>2017-12-17T08:47:33.000Z</time>
      </trkpt>
      <trkpt lat="47.49871" lon="6.72994">
        <ele>386.9</ele>
        <time>2017-12-17T08:47:34.000Z</time>
      </trkpt>
      <trkpt lat="47.49874" lon="6.72988">
        <ele>386.9</ele>
        <time>2017-12-17T08:47:35.000Z</time>
      </trkpt>
      <trkpt lat="47.49874" lon="6.72983">
        <ele>387</ele>
        <time>2017-12-17T08:47:36.000Z</time>
      </trkpt>
      <trkpt lat="47.49876" lon="6.72977">
        <ele>387.2</ele>
        <time>2017-12-17T08:47:37.000Z</time>
      </trkpt>
      <trkpt lat="47.49877" lon="6.72972">
        <ele>387.2</ele>
        <time>2017-12-17T08:47:38.000Z</time>
      </trkpt>
      <trkpt lat="47.49879" lon="6.72966">
        <ele>387.3</ele>
        <time>2017-12-17T08:47:39.000Z</time>
      </trkpt>
      <trkpt lat="47.49881" lon="6.7296">
        <ele>387.3</ele>
        <time>2017-12-17T08:47:40.000Z</time>
      </trkpt>
      <trkpt lat="47.49883" lon="6.72954">
        <ele>387.1</ele>
        <time>2017-12-17T08:47:41.000Z</time>
      </trkpt>
      <trkpt lat="47.49886" lon="6.72948">
        <ele>386.7</ele>
        <time>2017-12-17T08:47:42.000Z</time>
      </trkpt>
      <trkpt lat="47.49889" lon="6.72941">
        <ele>387.1</ele>
        <time>2017-12-17T08:47:43.000Z</time>
      </trkpt>
      <trkpt lat="47.49892" lon="6.7294">
        <ele>387.2</ele>
        <time>2017-12-17T08:47:44.000Z</time>
      </trkpt>
      <trkpt lat="47.49896" lon="6.72938">
        <ele>387.2</ele>
        <time>2017-12-17T08:47:45.000Z</time>
      </trkpt>
      <trkpt lat="47.49901" lon="6.72938">
        <ele>387.2</ele>
        <time>2017-12-17T08:47:46.000Z</time>
      </trkpt>
      <trkpt lat="47.49905" lon="6.7294">
        <ele>387</ele>
        <time>2017-12-17T08:47:47.000Z</time>
      </trkpt>
      <trkpt lat="47.4991" lon="6.72943">
        <ele>386.8</ele>
        <time>2017-12-17T08:47:48.000Z</time>
      </trkpt>
      <trkpt lat="47.49916" lon="6.72946">
        <ele>386.1</ele>
        <time>2017-12-17T08:47:49.000Z</time>
      </trkpt>
      <trkpt lat="47.49921" lon="6.72949">
        <ele>385.6</ele>
        <time>2017-12-17T08:47:50.000Z</time>
      </trkpt>
      <trkpt lat="47.49926" lon="6.72951">
        <ele>385.2</ele>
        <time>2017-12-17T08:47:51.000Z</time>
      </trkpt>
      <trkpt lat="47.49932" lon="6.72954">
        <ele>385.2</ele>
        <time>2017-12-17T08:47:52.000Z</time>
      </trkpt>
      <trkpt lat="47.49938" lon="6.72958">
        <ele>385.3</ele>
        <time>2017-12-17T08:47:53.000Z</time>
      </trkpt>
      <trkpt lat="47.49944" lon="6.72962">
        <ele>384.8</ele>
        <time>2017-12-17T08:47:54.000Z</time>
      </trkpt>
      <trkpt lat="47.49949" lon="6.72965">
        <ele>384.4</ele>
        <time>2017-12-17T08:47:55.000Z</time>
      </trkpt>
      <trkpt lat="47.49955" lon="6.72967">
        <ele>384</ele>
        <time>2017-12-17T08:47:56.000Z</time>
      </trkpt>
      <trkpt lat="47.49961" lon="6.72966">
        <ele>383.7</ele>
        <time>2017-12-17T08:47:57.000Z</time>
      </trkpt>
      <trkpt lat="47.49968" lon="6.72966">
        <ele>383.5</ele>
        <time>2017-12-17T08:47:58.000Z</time>
      </trkpt>
      <trkpt lat="47.49972" lon="6.72969">
        <ele>382.8</ele>
        <time>2017-12-17T08:47:59.000Z</time>
      </trkpt>
      <trkpt lat="47.49977" lon="6.72973">
        <ele>382.6</ele>
        <time>2017-12-17T08:48:00.000Z</time>
      </trkpt>
      <trkpt lat="47.4998" lon="6.72978">
        <ele>382.9</ele>
        <time>2017-12-17T08:48:01.000Z</time>
      </trkpt>
      <trkpt lat="47.49984" lon="6.72984">
        <ele>383.3</ele>
        <time>2017-12-17T08:48:02.000Z</time>
      </trkpt>
      <trkpt lat="47.49987" lon="6.72991">
        <ele>383.4</ele>
        <time>2017-12-17T08:48:03.000Z</time>
      </trkpt>
      <trkpt lat="47.49991" lon="6.72998">
        <ele>383.7</ele>
        <time>2017-12-17T08:48:04.000Z</time>
      </trkpt>
      <trkpt lat="47.49995" lon="6.73004">
        <ele>384</ele>
        <time>2017-12-17T08:48:05.000Z</time>
      </trkpt>
      <trkpt lat="47.49998" lon="6.73009">
        <ele>383.5</ele>
        <time>2017-12-17T08:48:06.000Z</time>
      </trkpt>
      <trkpt lat="47.50002" lon="6.73015">
        <ele>383.9</ele>
        <time>2017-12-17T08:48:07.000Z</time>
      </trkpt>
      <trkpt lat="47.50006" lon="6.73021">
        <ele>384</ele>
        <time>2017-12-17T08:48:08.000Z</time>
      </trkpt>
      <trkpt lat="47.50009" lon="6.73026">
        <ele>383.8</ele>
        <time>2017-12-17T08:48:09.000Z</time>
      </trkpt>
      <trkpt lat="47.50012" lon="6.7303">
        <ele>383.3</ele>
        <time>2017-12-17T08:48:10.000Z</time>
      </trkpt>
      <trkpt lat="47.50015" lon="6.73035">
        <ele>382.7</ele>
        <time>2017-12-17T08:48:11.000Z</time>
      </trkpt>
      <trkpt lat="47.50019" lon="6.73039">
        <ele>382.8</ele>
        <time>2017-12-17T08:48:12.000Z</time>
      </trkpt>
      <trkpt lat="47.50023" lon="6.73044">
        <ele>382.3</ele>
        <time>2017-12-17T08:48:13.000Z</time>
      </trkpt>
      <trkpt lat="47.50028" lon="6.73048">
        <ele>381.6</ele>
        <time>2017-12-17T08:48:14.000Z</time>
      </trkpt>
      <trkpt lat="47.50032" lon="6.73052">
        <ele>381.4</ele>
        <time>2017-12-17T08:48:15.000Z</time>
      </trkpt>
      <trkpt lat="47.50035" lon="6.73055">
        <ele>380.9</ele>
        <time>2017-12-17T08:48:16.000Z</time>
      </trkpt>
      <trkpt lat="47.50039" lon="6.73059">
        <ele>380.5</ele>
        <time>2017-12-17T08:48:17.000Z</time>
      </trkpt>
      <trkpt lat="47.50042" lon="6.73062">
        <ele>380.2</ele>
        <time>2017-12-17T08:48:18.000Z</time>
      </trkpt>
      <trkpt lat="47.50046" lon="6.73067">
        <ele>379.8</ele>
        <time>2017-12-17T08:48:19.000Z</time>
      </trkpt>
      <trkpt lat="47.5005" lon="6.7307">
        <ele>379.6</ele>
        <time>2017-12-17T08:48:20.000Z</time>
      </trkpt>
      <trkpt lat="47.50054" lon="6.73075">
        <ele>379.6</ele>
        <time>2017-12-17T08:48:21.000Z</time>
      </trkpt>
      <trkpt lat="47.50058" lon="6.73079">
        <ele>379.7</ele>
        <time>2017-12-17T08:48:22.000Z</time>
      </trkpt>
      <trkpt lat="47.50062" lon="6.73083">
        <ele>380.1</ele>
        <time>2017-12-17T08:48:23.000Z</time>
      </trkpt>
      <trkpt lat="47.50066" lon="6.73087">
        <ele>380.1</ele>
        <time>2017-12-17T08:48:24.000Z</time>
      </trkpt>
      <trkpt lat="47.50069" lon="6.7309">
        <ele>380.3</ele>
        <time>2017-12-17T08:48:25.000Z</time>
      </trkpt>
      <trkpt lat="47.50073" lon="6.73094">
        <ele>380.7</ele>
        <time>2017-12-17T08:48:26.000Z</time>
      </trkpt>
      <trkpt lat="47.50077" lon="6.73099">
        <ele>380.9</ele>
        <time>2017-12-17T08:48:27.000Z</time>
      </trkpt>
      <trkpt lat="47.50082" lon="6.73103">
        <ele>381</ele>
        <time>2017-12-17T08:48:28.000Z</time>
      </trkpt>
      <trkpt lat="47.50086" lon="6.73107">
        <ele>381</ele>
        <time>2017-12-17T08:48:29.000Z</time>
      </trkpt>
      <trkpt lat="47.50089" lon="6.7311">
        <ele>380.9</ele>
        <time>2017-12-17T08:48:30.000Z</time>
      </trkpt>
      <trkpt lat="47.50093" lon="6.73114">
        <ele>380.6</ele>
        <time>2017-12-17T08:48:31.000Z</time>
      </trkpt>
      <trkpt lat="47.50097" lon="6.73115">
        <ele>381.1</ele>
        <time>2017-12-17T08:48:32.000Z</time>
      </trkpt>
      <trkpt lat="47.50101" lon="6.73116">
        <ele>381.1</ele>
        <time>2017-12-17T08:48:33.000Z</time>
      </trkpt>
      <trkpt lat="47.50105" lon="6.73117">
        <ele>381.9</ele>
        <time>2017-12-17T08:48:34.000Z</time>
      </trkpt>
      <trkpt lat="47.50109" lon="6.73119">
        <ele>382</ele>
        <time>2017-12-17T08:48:35.000Z</time>
      </trkpt>
      <trkpt lat="47.50114" lon="6.73121">
        <ele>382</ele>
        <time>2017-12-17T08:48:36.000Z</time>
      </trkpt>
      <trkpt lat="47.50118" lon="6.73121">
        <ele>382</ele>
        <time>2017-12-17T08:48:37.000Z</time>
      </trkpt>
      <trkpt lat="47.50121" lon="6.73122">
        <ele>382.1</ele>
        <time>2017-12-17T08:48:38.000Z</time>
      </trkpt>
      <trkpt lat="47.50126" lon="6.73122">
        <ele>382.3</ele>
        <time>2017-12-17T08:48:39.000Z</time>
      </trkpt>
      <trkpt lat="47.5013" lon="6.73122">
        <ele>382.4</ele>
        <time>2017-12-17T08:48:40.000Z</time>
      </trkpt>
      <trkpt lat="47.50134" lon="6.73123">
        <ele>382.5</ele>
        <time>2017-12-17T08:48:41.000Z</time>
      </trkpt>
      <trkpt lat="47.50137" lon="6.73123">
        <ele>382.6</ele>
        <time>2017-12-17T08:48:42.000Z</time>
      </trkpt>
      <trkpt lat="47.50141" lon="6.73122">
        <ele>382.7</ele>
        <time>2017-12-17T08:48:43.000Z</time>
      </trkpt>
      <trkpt lat="47.50144" lon="6.7312">
        <ele>382.8</ele>
        <time>2017-12-17T08:48:44.000Z</time>
      </trkpt>
      <trkpt lat="47.50147" lon="6.73121">
        <ele>382.8</ele>
        <time>2017-12-17T08:48:45.000Z</time>
      </trkpt>
      <trkpt lat="47.5015" lon="6.73121">
        <ele>382.9</ele>
        <time>2017-12-17T08:48:46.000Z</time>
      </trkpt>
      <trkpt lat="47.50153" lon="6.73121">
        <ele>383</ele>
        <time>2017-12-17T08:48:47.000Z</time>
      </trkpt>
      <trkpt lat="47.50158" lon="6.73121">
        <ele>383.1</ele>
        <time>2017-12-17T08:48:48.000Z</time>
      </trkpt>
      <trkpt lat="47.50161" lon="6.73121">
        <ele>383.2</ele>
        <time>2017-12-17T08:48:49.000Z</time>
      </trkpt>
      <trkpt lat="47.50164" lon="6.73123">
        <ele>383.3</ele>
        <time>2017-12-17T08:48:50.000Z</time>
      </trkpt>
      <trkpt lat="47.50166" lon="6.73125">
        <ele>383.5</ele>
        <time>2017-12-17T08:48:51.000Z</time>
      </trkpt>
      <trkpt lat="47.50169" lon="6.73128">
        <ele>383.6</ele>
        <time>2017-12-17T08:48:52.000Z</time>
      </trkpt>
      <trkpt lat="47.50171" lon="6.73133">
        <ele>383.8</ele>
        <time>2017-12-17T08:48:54.000Z</time>
      </trkpt>
      <trkpt lat="47.50172" lon="6.73135">
        <ele>383.9</ele>
        <time>2017-12-17T08:48:55.000Z</time>
      </trkpt>
      <trkpt lat="47.50172" lon="6.73136">
        <ele>385</ele>
        <time>2017-12-17T08:49:07.000Z</time>
      </trkpt>
      <trkpt lat="47.50186" lon="6.7314">
        <ele>385.8</ele>
        <time>2017-12-17T08:49:08.000Z</time>
      </trkpt>
      <trkpt lat="47.5019" lon="6.73137">
        <ele>385.9</ele>
        <time>2017-12-17T08:49:09.000Z</time>
      </trkpt>
      <trkpt lat="47.50195" lon="6.73136">
        <ele>385.9</ele>
        <time>2017-12-17T08:49:10.000Z</time>
      </trkpt>
      <trkpt lat="47.50199" lon="6.73138">
        <ele>386.6</ele>
        <time>2017-12-17T08:49:11.000Z</time>
      </trkpt>
      <trkpt lat="47.50203" lon="6.7314">
        <ele>386.8</ele>
        <time>2017-12-17T08:49:12.000Z</time>
      </trkpt>
      <trkpt lat="47.50206" lon="6.73143">
        <ele>387.1</ele>
        <time>2017-12-17T08:49:13.000Z</time>
      </trkpt>
      <trkpt lat="47.50208" lon="6.73146">
        <ele>387.6</ele>
        <time>2017-12-17T08:49:14.000Z</time>
      </trkpt>
      <trkpt lat="47.50211" lon="6.73148">
        <ele>387.1</ele>
        <time>2017-12-17T08:49:15.000Z</time>
      </trkpt>
      <trkpt lat="47.50214" lon="6.73152">
        <ele>387.1</ele>
        <time>2017-12-17T08:49:16.000Z</time>
      </trkpt>
      <trkpt lat="47.50217" lon="6.73156">
        <ele>387.1</ele>
        <time>2017-12-17T08:49:17.000Z</time>
      </trkpt>
      <trkpt lat="47.50221" lon="6.73161">
        <ele>387</ele>
        <time>2017-12-17T08:49:18.000Z</time>
      </trkpt>
      <trkpt lat="47.50223" lon="6.73164">
        <ele>387.4</ele>
        <time>2017-12-17T08:49:19.000Z</time>
      </trkpt>
      <trkpt lat="47.50227" lon="6.73168">
        <ele>387.4</ele>
        <time>2017-12-17T08:49:20.000Z</time>
      </trkpt>
      <trkpt lat="47.50231" lon="6.73172">
        <ele>387.4</ele>
        <time>2017-12-17T08:49:21.000Z</time>
      </trkpt>
      <trkpt lat="47.50235" lon="6.73176">
        <ele>387.5</ele>
        <time>2017-12-17T08:49:22.000Z</time>
      </trkpt>
      <trkpt lat="47.50238" lon="6.73179">
        <ele>387.4</ele>
        <time>2017-12-17T08:49:23.000Z</time>
      </trkpt>
      <trkpt lat="47.5024" lon="6.73182">
        <ele>387.8</ele>
        <time>2017-12-17T08:49:24.000Z</time>
      </trkpt>
      <trkpt lat="47.50244" lon="6.73186">
        <ele>387.9</ele>
        <time>2017-12-17T08:49:25.000Z</time>
      </trkpt>
      <trkpt lat="47.50247" lon="6.73189">
        <ele>388.4</ele>
        <time>2017-12-17T08:49:26.000Z</time>
      </trkpt>
      <trkpt lat="47.5025" lon="6.73193">
        <ele>388.5</ele>
        <time>2017-12-17T08:49:27.000Z</time>
      </trkpt>
      <trkpt lat="47.50253" lon="6.73196">
        <ele>388.6</ele>
        <time>2017-12-17T08:49:28.000Z</time>
      </trkpt>
      <trkpt lat="47.50257" lon="6.732">
        <ele>388.4</ele>
        <time>2017-12-17T08:49:29.000Z</time>
      </trkpt>
      <trkpt lat="47.50261" lon="6.73205">
        <ele>388.4</ele>
        <time>2017-12-17T08:49:30.000Z</time>
      </trkpt>
      <trkpt lat="47.50265" lon="6.73209">
        <ele>388.8</ele>
        <time>2017-12-17T08:49:31.000Z</time>
      </trkpt>
      <trkpt lat="47.50269" lon="6.73214">
        <ele>389.4</ele>
        <time>2017-12-17T08:49:32.000Z</time>
      </trkpt>
      <trkpt lat="47.50273" lon="6.73217">
        <ele>389.4</ele>
        <time>2017-12-17T08:49:33.000Z</time>
      </trkpt>
      <trkpt lat="47.50276" lon="6.73221">
        <ele>389.4</ele>
        <time>2017-12-17T08:49:34.000Z</time>
      </trkpt>
      <trkpt lat="47.5028" lon="6.73225">
        <ele>389.2</ele>
        <time>2017-12-17T08:49:35.000Z</time>
      </trkpt>
      <trkpt lat="47.50284" lon="6.73229">
        <ele>389.2</ele>
        <time>2017-12-17T08:49:36.000Z</time>
      </trkpt>
      <trkpt lat="47.50287" lon="6.73232">
        <ele>389.1</ele>
        <time>2017-12-17T08:49:37.000Z</time>
      </trkpt>
      <trkpt lat="47.50291" lon="6.73235">
        <ele>389.1</ele>
        <time>2017-12-17T08:49:38.000Z</time>
      </trkpt>
      <trkpt lat="47.50293" lon="6.73237">
        <ele>389.1</ele>
        <time>2017-12-17T08:49:39.000Z</time>
      </trkpt>
      <trkpt lat="47.50297" lon="6.7324">
        <ele>389</ele>
        <time>2017-12-17T08:49:40.000Z</time>
      </trkpt>
      <trkpt lat="47.503" lon="6.73243">
        <ele>389</ele>
        <time>2017-12-17T08:49:41.000Z</time>
      </trkpt>
      <trkpt lat="47.50303" lon="6.73246">
        <ele>389</ele>
        <time>2017-12-17T08:49:42.000Z</time>
      </trkpt>
      <trkpt lat="47.50306" lon="6.73249">
        <ele>389</ele>
        <time>2017-12-17T08:49:43.000Z</time>
      </trkpt>
      <trkpt lat="47.50309" lon="6.73252">
        <ele>388.9</ele>
        <time>2017-12-17T08:49:44.000Z</time>
      </trkpt>
      <trkpt lat="47.50313" lon="6.73254">
        <ele>388.9</ele>
        <time>2017-12-17T08:49:45.000Z</time>
      </trkpt>
      <trkpt lat="47.50316" lon="6.73257">
        <ele>389</ele>
        <time>2017-12-17T08:49:46.000Z</time>
      </trkpt>
      <trkpt lat="47.50319" lon="6.7326">
        <ele>389.1</ele>
        <time>2017-12-17T08:49:47.000Z</time>
      </trkpt>
      <trkpt lat="47.50322" lon="6.73263">
        <ele>389.1</ele>
        <time>2017-12-17T08:49:48.000Z</time>
      </trkpt>
      <trkpt lat="47.50324" lon="6.73263">
        <ele>389.1</ele>
        <time>2017-12-17T08:49:49.000Z</time>
      </trkpt>
      <trkpt lat="47.50328" lon="6.73266">
        <ele>389</ele>
        <time>2017-12-17T08:49:51.000Z</time>
      </trkpt>
      <trkpt lat="47.5033" lon="6.73269">
        <ele>388.9</ele>
        <time>2017-12-17T08:49:52.000Z</time>
      </trkpt>
      <trkpt lat="47.50333" lon="6.73273">
        <ele>388.8</ele>
        <time>2017-12-17T08:49:53.000Z</time>
      </trkpt>
      <trkpt lat="47.50336" lon="6.73275">
        <ele>388.8</ele>
        <time>2017-12-17T08:49:54.000Z</time>
      </trkpt>
      <trkpt lat="47.50339" lon="6.73277">
        <ele>388.8</ele>
        <time>2017-12-17T08:49:55.000Z</time>
      </trkpt>
      <trkpt lat="47.50342" lon="6.73279">
        <ele>388.8</ele>
        <time>2017-12-17T08:49:56.000Z</time>
      </trkpt>
      <trkpt lat="47.50343" lon="6.7328">
        <ele>388.8</ele>
        <time>2017-12-17T08:49:57.000Z</time>
      </trkpt>
      <trkpt lat="47.50346" lon="6.73281">
        <ele>388.8</ele>
        <time>2017-12-17T08:49:58.000Z</time>
      </trkpt>
      <trkpt lat="47.50349" lon="6.73283">
        <ele>388.9</ele>
        <time>2017-12-17T08:49:59.000Z</time>
      </trkpt>
      <trkpt lat="47.50351" lon="6.73285">
        <ele>388.9</ele>
        <time>2017-12-17T08:50:00.000Z</time>
      </trkpt>
      <trkpt lat="47.50353" lon="6.73287">
        <ele>388.9</ele>
        <time>2017-12-17T08:50:01.000Z</time>
      </trkpt>
      <trkpt lat="47.50355" lon="6.73288">
        <ele>389</ele>
        <time>2017-12-17T08:50:02.000Z</time>
      </trkpt>
      <trkpt lat="47.50358" lon="6.7329">
        <ele>389</ele>
        <time>2017-12-17T08:50:03.000Z</time>
      </trkpt>
      <trkpt lat="47.5036" lon="6.73292">
        <ele>389.1</ele>
        <time>2017-12-17T08:50:04.000Z</time>
      </trkpt>
      <trkpt lat="47.50364" lon="6.73294">
        <ele>389.3</ele>
        <time>2017-12-17T08:50:06.000Z</time>
      </trkpt>
      <trkpt lat="47.50366" lon="6.73295">
        <ele>389.4</ele>
        <time>2017-12-17T08:50:07.000Z</time>
      </trkpt>
      <trkpt lat="47.50368" lon="6.73296">
        <ele>389.5</ele>
        <time>2017-12-17T08:50:08.000Z</time>
      </trkpt>
      <trkpt lat="47.5037" lon="6.73298">
        <ele>389.5</ele>
        <time>2017-12-17T08:50:09.000Z</time>
      </trkpt>
      <trkpt lat="47.50373" lon="6.733">
        <ele>389.4</ele>
        <time>2017-12-17T08:50:11.000Z</time>
      </trkpt>
      <trkpt lat="47.50376" lon="6.73302">
        <ele>389.4</ele>
        <time>2017-12-17T08:50:12.000Z</time>
      </trkpt>
      <trkpt lat="47.50379" lon="6.73304">
        <ele>389.4</ele>
        <time>2017-12-17T08:50:13.000Z</time>
      </trkpt>
      <trkpt lat="47.50382" lon="6.73305">
        <ele>389.5</ele>
        <time>2017-12-17T08:50:14.000Z</time>
      </trkpt>
      <trkpt lat="47.50384" lon="6.73306">
        <ele>389.4</ele>
        <time>2017-12-17T08:50:15.000Z</time>
      </trkpt>
      <trkpt lat="47.50387" lon="6.73306">
        <ele>389.4</ele>
        <time>2017-12-17T08:50:16.000Z</time>
      </trkpt>
      <trkpt lat="47.5039" lon="6.73307">
        <ele>389.3</ele>
        <time>2017-12-17T08:50:17.000Z</time>
      </trkpt>
      <trkpt lat="47.50393" lon="6.73307">
        <ele>389.2</ele>
        <time>2017-12-17T08:50:18.000Z</time>
      </trkpt>
      <trkpt lat="47.50396" lon="6.73308">
        <ele>389.2</ele>
        <time>2017-12-17T08:50:19.000Z</time>
      </trkpt>
      <trkpt lat="47.50399" lon="6.73309">
        <ele>389.2</ele>
        <time>2017-12-17T08:50:20.000Z</time>
      </trkpt>
      <trkpt lat="47.50401" lon="6.73309">
        <ele>389.2</ele>
        <time>2017-12-17T08:50:21.000Z</time>
      </trkpt>
      <trkpt lat="47.50403" lon="6.7331">
        <ele>389.2</ele>
        <time>2017-12-17T08:50:22.000Z</time>
      </trkpt>
      <trkpt lat="47.50407" lon="6.73312">
        <ele>388.9</ele>
        <time>2017-12-17T08:50:24.000Z</time>
      </trkpt>
      <trkpt lat="47.50409" lon="6.73314">
        <ele>388.8</ele>
        <time>2017-12-17T08:50:25.000Z</time>
      </trkpt>
      <trkpt lat="47.50411" lon="6.73316">
        <ele>388.7</ele>
        <time>2017-12-17T08:50:26.000Z</time>
      </trkpt>
      <trkpt lat="47.50413" lon="6.73317">
        <ele>388.6</ele>
        <time>2017-12-17T08:50:27.000Z</time>
      </trkpt>
      <trkpt lat="47.50415" lon="6.73318">
        <ele>388.5</ele>
        <time>2017-12-17T08:50:28.000Z</time>
      </trkpt>
      <trkpt lat="47.50417" lon="6.7332">
        <ele>388.3</ele>
        <time>2017-12-17T08:50:29.000Z</time>
      </trkpt>
      <trkpt lat="47.50419" lon="6.7332">
        <ele>388.2</ele>
        <time>2017-12-17T08:50:30.000Z</time>
      </trkpt>
      <trkpt lat="47.50422" lon="6.73321">
        <ele>388</ele>
        <time>2017-12-17T08:50:31.000Z</time>
      </trkpt>
      <trkpt lat="47.50426" lon="6.73322">
        <ele>388</ele>
        <time>2017-12-17T08:50:32.000Z</time>
      </trkpt>
      <trkpt lat="47.50429" lon="6.73323">
        <ele>387.9</ele>
        <time>2017-12-17T08:50:33.000Z</time>
      </trkpt>
      <trkpt lat="47.50431" lon="6.73324">
        <ele>387.9</ele>
        <time>2017-12-17T08:50:34.000Z</time>
      </trkpt>
      <trkpt lat="47.50434" lon="6.73325">
        <ele>387.9</ele>
        <time>2017-12-17T08:50:35.000Z</time>
      </trkpt>
      <trkpt lat="47.50436" lon="6.73327">
        <ele>387.9</ele>
        <time>2017-12-17T08:50:36.000Z</time>
      </trkpt>
      <trkpt lat="47.50439" lon="6.73328">
        <ele>387.9</ele>
        <time>2017-12-17T08:50:37.000Z</time>
      </trkpt>
      <trkpt lat="47.50442" lon="6.7333">
        <ele>387.9</ele>
        <time>2017-12-17T08:50:38.000Z</time>
      </trkpt>
      <trkpt lat="47.50444" lon="6.73332">
        <ele>388</ele>
        <time>2017-12-17T08:50:39.000Z</time>
      </trkpt>
      <trkpt lat="47.50446" lon="6.73334">
        <ele>388.1</ele>
        <time>2017-12-17T08:50:40.000Z</time>
      </trkpt>
      <trkpt lat="47.50448" lon="6.73335">
        <ele>388.3</ele>
        <time>2017-12-17T08:50:41.000Z</time>
      </trkpt>
      <trkpt lat="47.5045" lon="6.73337">
        <ele>388.4</ele>
        <time>2017-12-17T08:50:42.000Z</time>
      </trkpt>
      <trkpt lat="47.50453" lon="6.73339">
        <ele>388.5</ele>
        <time>2017-12-17T08:50:43.000Z</time>
      </trkpt>
      <trkpt lat="47.50455" lon="6.7334">
        <ele>388.5</ele>
        <time>2017-12-17T08:50:44.000Z</time>
      </trkpt>
      <trkpt lat="47.50457" lon="6.73342">
        <ele>388.6</ele>
        <time>2017-12-17T08:50:45.000Z</time>
      </trkpt>
      <trkpt lat="47.5046" lon="6.73345">
        <ele>388.7</ele>
        <time>2017-12-17T08:50:47.000Z</time>
      </trkpt>
      <trkpt lat="47.50462" lon="6.73348">
        <ele>388.7</ele>
        <time>2017-12-17T08:50:48.000Z</time>
      </trkpt>
      <trkpt lat="47.50465" lon="6.73349">
        <ele>388.7</ele>
        <time>2017-12-17T08:50:49.000Z</time>
      </trkpt>
      <trkpt lat="47.50467" lon="6.73351">
        <ele>388.7</ele>
        <time>2017-12-17T08:50:50.000Z</time>
      </trkpt>
      <trkpt lat="47.50469" lon="6.73352">
        <ele>388.7</ele>
        <time>2017-12-17T08:50:51.000Z</time>
      </trkpt>
      <trkpt lat="47.50472" lon="6.73354">
        <ele>388.8</ele>
        <time>2017-12-17T08:50:52.000Z</time>
      </trkpt>
      <trkpt lat="47.50474" lon="6.73356">
        <ele>388.8</ele>
        <time>2017-12-17T08:50:53.000Z</time>
      </trkpt>
      <trkpt lat="47.50477" lon="6.7336">
        <ele>388.9</ele>
        <time>2017-12-17T08:50:54.000Z</time>
      </trkpt>
      <trkpt lat="47.5048" lon="6.73362">
        <ele>388.9</ele>
        <time>2017-12-17T08:50:55.000Z</time>
      </trkpt>
      <trkpt lat="47.50482" lon="6.73365">
        <ele>389</ele>
        <time>2017-12-17T08:50:56.000Z</time>
      </trkpt>
      <trkpt lat="47.50485" lon="6.73369">
        <ele>389.1</ele>
        <time>2017-12-17T08:50:57.000Z</time>
      </trkpt>
      <trkpt lat="47.50486" lon="6.73373">
        <ele>389.1</ele>
        <time>2017-12-17T08:50:58.000Z</time>
      </trkpt>
      <trkpt lat="47.50489" lon="6.73376">
        <ele>389.2</ele>
        <time>2017-12-17T08:50:59.000Z</time>
      </trkpt>
      <trkpt lat="47.50492" lon="6.73379">
        <ele>389.3</ele>
        <time>2017-12-17T08:51:00.000Z</time>
      </trkpt>
      <trkpt lat="47.50495" lon="6.73383">
        <ele>389.6</ele>
        <time>2017-12-17T08:51:02.000Z</time>
      </trkpt>
      <trkpt lat="47.50496" lon="6.73386">
        <ele>389.7</ele>
        <time>2017-12-17T08:51:03.000Z</time>
      </trkpt>
      <trkpt lat="47.50497" lon="6.7339">
        <ele>389.8</ele>
        <time>2017-12-17T08:51:04.000Z</time>
      </trkpt>
      <trkpt lat="47.50498" lon="6.73395">
        <ele>390</ele>
        <time>2017-12-17T08:51:05.000Z</time>
      </trkpt>
      <trkpt lat="47.505" lon="6.734">
        <ele>390.1</ele>
        <time>2017-12-17T08:51:06.000Z</time>
      </trkpt>
      <trkpt lat="47.50502" lon="6.73404">
        <ele>390.2</ele>
        <time>2017-12-17T08:51:07.000Z</time>
      </trkpt>
      <trkpt lat="47.50505" lon="6.73409">
        <ele>390.3</ele>
        <time>2017-12-17T08:51:09.000Z</time>
      </trkpt>
      <trkpt lat="47.50506" lon="6.73409">
        <ele>390.4</ele>
        <time>2017-12-17T08:51:10.000Z</time>
      </trkpt>
      <trkpt lat="47.50506" lon="6.73409">
        <ele>390.7</ele>
        <time>2017-12-17T08:51:13.000Z</time>
      </trkpt>
      <trkpt lat="47.50513" lon="6.73416">
        <ele>390.9</ele>
        <time>2017-12-17T08:51:14.000Z</time>
      </trkpt>
      <trkpt lat="47.50516" lon="6.73418">
        <ele>391.2</ele>
        <time>2017-12-17T08:51:15.000Z</time>
      </trkpt>
      <trkpt lat="47.50518" lon="6.73421">
        <ele>391.5</ele>
        <time>2017-12-17T08:51:16.000Z</time>
      </trkpt>
      <trkpt lat="47.50521" lon="6.73424">
        <ele>391.7</ele>
        <time>2017-12-17T08:51:17.000Z</time>
      </trkpt>
      <trkpt lat="47.50523" lon="6.73426">
        <ele>392</ele>
        <time>2017-12-17T08:51:18.000Z</time>
      </trkpt>
      <trkpt lat="47.50525" lon="6.7343">
        <ele>392.2</ele>
        <time>2017-12-17T08:51:19.000Z</time>
      </trkpt>
      <trkpt lat="47.50526" lon="6.73433">
        <ele>392.4</ele>
        <time>2017-12-17T08:51:20.000Z</time>
      </trkpt>
      <trkpt lat="47.50528" lon="6.73436">
        <ele>392.6</ele>
        <time>2017-12-17T08:51:21.000Z</time>
      </trkpt>
      <trkpt lat="47.5053" lon="6.73438">
        <ele>392.9</ele>
        <time>2017-12-17T08:51:22.000Z</time>
      </trkpt>
      <trkpt lat="47.50531" lon="6.7344">
        <ele>393.1</ele>
        <time>2017-12-17T08:51:23.000Z</time>
      </trkpt>
      <trkpt lat="47.50533" lon="6.73443">
        <ele>393.3</ele>
        <time>2017-12-17T08:51:24.000Z</time>
      </trkpt>
      <trkpt lat="47.50535" lon="6.73445">
        <ele>393.5</ele>
        <time>2017-12-17T08:51:25.000Z</time>
      </trkpt>
      <trkpt lat="47.50537" lon="6.73448">
        <ele>393.6</ele>
        <time>2017-12-17T08:51:26.000Z</time>
      </trkpt>
      <trkpt lat="47.50538" lon="6.73451">
        <ele>393.8</ele>
        <time>2017-12-17T08:51:27.000Z</time>
      </trkpt>
      <trkpt lat="47.5054" lon="6.73454">
        <ele>393.9</ele>
        <time>2017-12-17T08:51:28.000Z</time>
      </trkpt>
      <trkpt lat="47.50541" lon="6.73456">
        <ele>394</ele>
        <time>2017-12-17T08:51:29.000Z</time>
      </trkpt>
      <trkpt lat="47.50544" lon="6.73459">
        <ele>394.2</ele>
        <time>2017-12-17T08:51:30.000Z</time>
      </trkpt>
      <trkpt lat="47.50546" lon="6.73463">
        <ele>394.4</ele>
        <time>2017-12-17T08:51:32.000Z</time>
      </trkpt>
      <trkpt lat="47.50548" lon="6.73465">
        <ele>394.4</ele>
        <time>2017-12-17T08:51:33.000Z</time>
      </trkpt>
      <trkpt lat="47.5055" lon="6.73467">
        <ele>394.5</ele>
        <time>2017-12-17T08:51:34.000Z</time>
      </trkpt>
      <trkpt lat="47.50553" lon="6.73469">
        <ele>394.5</ele>
        <time>2017-12-17T08:51:35.000Z</time>
      </trkpt>
      <trkpt lat="47.50556" lon="6.73471">
        <ele>394.7</ele>
        <time>2017-12-17T08:51:36.000Z</time>
      </trkpt>
      <trkpt lat="47.50558" lon="6.73472">
        <ele>394.8</ele>
        <time>2017-12-17T08:51:37.000Z</time>
      </trkpt>
      <trkpt lat="47.50561" lon="6.73473">
        <ele>395.1</ele>
        <time>2017-12-17T08:51:38.000Z</time>
      </trkpt>
      <trkpt lat="47.50563" lon="6.73474">
        <ele>395.2</ele>
        <time>2017-12-17T08:51:39.000Z</time>
      </trkpt>
      <trkpt lat="47.50565" lon="6.73475">
        <ele>395.4</ele>
        <time>2017-12-17T08:51:40.000Z</time>
      </trkpt>
      <trkpt lat="47.50568" lon="6.73477">
        <ele>395.6</ele>
        <time>2017-12-17T08:51:41.000Z</time>
      </trkpt>
      <trkpt lat="47.50571" lon="6.7348">
        <ele>395.8</ele>
        <time>2017-12-17T08:51:42.000Z</time>
      </trkpt>
      <trkpt lat="47.50573" lon="6.73482">
        <ele>396</ele>
        <time>2017-12-17T08:51:43.000Z</time>
      </trkpt>
      <trkpt lat="47.50575" lon="6.73485">
        <ele>396.5</ele>
        <time>2017-12-17T08:51:45.000Z</time>
      </trkpt>
      <trkpt lat="47.50577" lon="6.73487">
        <ele>396.6</ele>
        <time>2017-12-17T08:51:46.000Z</time>
      </trkpt>
      <trkpt lat="47.5058" lon="6.73489">
        <ele>396.9</ele>
        <time>2017-12-17T08:51:48.000Z</time>
      </trkpt>
      <trkpt lat="47.50582" lon="6.73491">
        <ele>397.1</ele>
        <time>2017-12-17T08:51:49.000Z</time>
      </trkpt>
      <trkpt lat="47.50585" lon="6.73495">
        <ele>397.2</ele>
        <time>2017-12-17T08:51:51.000Z</time>
      </trkpt>
      <trkpt lat="47.50588" lon="6.73497">
        <ele>397.3</ele>
        <time>2017-12-17T08:51:52.000Z</time>
      </trkpt>
      <trkpt lat="47.50591" lon="6.73501">
        <ele>397.5</ele>
        <time>2017-12-17T08:51:54.000Z</time>
      </trkpt>
      <trkpt lat="47.50593" lon="6.73503">
        <ele>397.5</ele>
        <time>2017-12-17T08:51:55.000Z</time>
      </trkpt>
      <trkpt lat="47.50596" lon="6.73506">
        <ele>397.7</ele>
        <time>2017-12-17T08:51:57.000Z</time>
      </trkpt>
      <trkpt lat="47.50598" lon="6.73508">
        <ele>397.7</ele>
        <time>2017-12-17T08:51:58.000Z</time>
      </trkpt>
      <trkpt lat="47.50601" lon="6.73511">
        <ele>397.8</ele>
        <time>2017-12-17T08:51:59.000Z</time>
      </trkpt>
      <trkpt lat="47.50604" lon="6.73513">
        <ele>397.8</ele>
        <time>2017-12-17T08:52:00.000Z</time>
      </trkpt>
      <trkpt lat="47.50606" lon="6.73515">
        <ele>397.9</ele>
        <time>2017-12-17T08:52:01.000Z</time>
      </trkpt>
      <trkpt lat="47.50608" lon="6.73517">
        <ele>398</ele>
        <time>2017-12-17T08:52:02.000Z</time>
      </trkpt>
      <trkpt lat="47.50611" lon="6.73518">
        <ele>398.2</ele>
        <time>2017-12-17T08:52:04.000Z</time>
      </trkpt>
      <trkpt lat="47.50612" lon="6.73519">
        <ele>398.2</ele>
        <time>2017-12-17T08:52:05.000Z</time>
      </trkpt>
      <trkpt lat="47.50616" lon="6.73522">
        <ele>398.2</ele>
        <time>2017-12-17T08:52:07.000Z</time>
      </trkpt>
      <trkpt lat="47.50617" lon="6.73523">
        <ele>398.2</ele>
        <time>2017-12-17T08:52:08.000Z</time>
      </trkpt>
      <trkpt lat="47.50619" lon="6.73527">
        <ele>398.3</ele>
        <time>2017-12-17T08:52:10.000Z</time>
      </trkpt>
      <trkpt lat="47.5062" lon="6.73529">
        <ele>398.4</ele>
        <time>2017-12-17T08:52:11.000Z</time>
      </trkpt>
      <trkpt lat="47.50623" lon="6.73533">
        <ele>398.3</ele>
        <time>2017-12-17T08:52:13.000Z</time>
      </trkpt>
      <trkpt lat="47.50625" lon="6.73536">
        <ele>398.3</ele>
        <time>2017-12-17T08:52:14.000Z</time>
      </trkpt>
      <trkpt lat="47.50625" lon="6.73536">
        <ele>398.2</ele>
        <time>2017-12-17T08:52:18.000Z</time>
      </trkpt>
      <trkpt lat="47.50631" lon="6.73552">
        <ele>398.3</ele>
        <time>2017-12-17T08:52:19.000Z</time>
      </trkpt>
      <trkpt lat="47.50634" lon="6.73558">
        <ele>398.3</ele>
        <time>2017-12-17T08:52:20.000Z</time>
      </trkpt>
      <trkpt lat="47.50637" lon="6.73562">
        <ele>398.3</ele>
        <time>2017-12-17T08:52:21.000Z</time>
      </trkpt>
      <trkpt lat="47.50639" lon="6.73566">
        <ele>398.4</ele>
        <time>2017-12-17T08:52:22.000Z</time>
      </trkpt>
      <trkpt lat="47.50641" lon="6.73571">
        <ele>399.1</ele>
        <time>2017-12-17T08:52:23.000Z</time>
      </trkpt>
      <trkpt lat="47.50644" lon="6.73577">
        <ele>399.2</ele>
        <time>2017-12-17T08:52:24.000Z</time>
      </trkpt>
      <trkpt lat="47.50647" lon="6.73583">
        <ele>399.3</ele>
        <time>2017-12-17T08:52:25.000Z</time>
      </trkpt>
      <trkpt lat="47.50651" lon="6.73591">
        <ele>400.5</ele>
        <time>2017-12-17T08:52:26.000Z</time>
      </trkpt>
      <trkpt lat="47.50654" lon="6.73596">
        <ele>400.9</ele>
        <time>2017-12-17T08:52:27.000Z</time>
      </trkpt>
      <trkpt lat="47.50659" lon="6.73599">
        <ele>401</ele>
        <time>2017-12-17T08:52:28.000Z</time>
      </trkpt>
      <trkpt lat="47.50663" lon="6.73601">
        <ele>401.8</ele>
        <time>2017-12-17T08:52:29.000Z</time>
      </trkpt>
      <trkpt lat="47.50666" lon="6.73601">
        <ele>402.3</ele>
        <time>2017-12-17T08:52:30.000Z</time>
      </trkpt>
      <trkpt lat="47.50669" lon="6.73599">
        <ele>402.8</ele>
        <time>2017-12-17T08:52:31.000Z</time>
      </trkpt>
      <trkpt lat="47.50672" lon="6.73596">
        <ele>404</ele>
        <time>2017-12-17T08:52:32.000Z</time>
      </trkpt>
      <trkpt lat="47.50676" lon="6.73593">
        <ele>403.9</ele>
        <time>2017-12-17T08:52:33.000Z</time>
      </trkpt>
      <trkpt lat="47.5068" lon="6.7359">
        <ele>403.8</ele>
        <time>2017-12-17T08:52:34.000Z</time>
      </trkpt>
      <trkpt lat="47.50684" lon="6.73586">
        <ele>403.6</ele>
        <time>2017-12-17T08:52:35.000Z</time>
      </trkpt>
      <trkpt lat="47.50688" lon="6.73582">
        <ele>403.6</ele>
        <time>2017-12-17T08:52:36.000Z</time>
      </trkpt>
      <trkpt lat="47.50693" lon="6.73578">
        <ele>403.6</ele>
        <time>2017-12-17T08:52:37.000Z</time>
      </trkpt>
      <trkpt lat="47.50697" lon="6.73575">
        <ele>404</ele>
        <time>2017-12-17T08:52:38.000Z</time>
      </trkpt>
      <trkpt lat="47.50701" lon="6.73572">
        <ele>404.9</ele>
        <time>2017-12-17T08:52:39.000Z</time>
      </trkpt>
      <trkpt lat="47.50705" lon="6.7357">
        <ele>405.4</ele>
        <time>2017-12-17T08:52:40.000Z</time>
      </trkpt>
      <trkpt lat="47.5071" lon="6.73567">
        <ele>405.5</ele>
        <time>2017-12-17T08:52:41.000Z</time>
      </trkpt>
      <trkpt lat="47.50715" lon="6.73564">
        <ele>405.7</ele>
        <time>2017-12-17T08:52:42.000Z</time>
      </trkpt>
      <trkpt lat="47.50719" lon="6.73561">
        <ele>405.6</ele>
        <time>2017-12-17T08:52:43.000Z</time>
      </trkpt>
      <trkpt lat="47.50723" lon="6.73559">
        <ele>405.8</ele>
        <time>2017-12-17T08:52:44.000Z</time>
      </trkpt>
      <trkpt lat="47.50728" lon="6.73557">
        <ele>406</ele>
        <time>2017-12-17T08:52:45.000Z</time>
      </trkpt>
      <trkpt lat="47.50733" lon="6.73554">
        <ele>405.8</ele>
        <time>2017-12-17T08:52:46.000Z</time>
      </trkpt>
      <trkpt lat="47.50738" lon="6.73552">
        <ele>406.3</ele>
        <time>2017-12-17T08:52:47.000Z</time>
      </trkpt>
      <trkpt lat="47.50743" lon="6.73549">
        <ele>406</ele>
        <time>2017-12-17T08:52:48.000Z</time>
      </trkpt>
      <trkpt lat="47.50749" lon="6.73546">
        <ele>405.9</ele>
        <time>2017-12-17T08:52:49.000Z</time>
      </trkpt>
      <trkpt lat="47.50754" lon="6.73544">
        <ele>405.3</ele>
        <time>2017-12-17T08:52:50.000Z</time>
      </trkpt>
      <trkpt lat="47.50758" lon="6.73543">
        <ele>404.2</ele>
        <time>2017-12-17T08:52:51.000Z</time>
      </trkpt>
      <trkpt lat="47.50763" lon="6.73541">
        <ele>403.7</ele>
        <time>2017-12-17T08:52:52.000Z</time>
      </trkpt>
      <trkpt lat="47.50768" lon="6.73539">
        <ele>403.7</ele>
        <time>2017-12-17T08:52:53.000Z</time>
      </trkpt>
      <trkpt lat="47.50773" lon="6.73536">
        <ele>404</ele>
        <time>2017-12-17T08:52:54.000Z</time>
      </trkpt>
      <trkpt lat="47.50777" lon="6.73533">
        <ele>403.6</ele>
        <time>2017-12-17T08:52:55.000Z</time>
      </trkpt>
      <trkpt lat="47.50782" lon="6.73531">
        <ele>403.9</ele>
        <time>2017-12-17T08:52:56.000Z</time>
      </trkpt>
      <trkpt lat="47.50786" lon="6.73529">
        <ele>403</ele>
        <time>2017-12-17T08:52:57.000Z</time>
      </trkpt>
      <trkpt lat="47.50792" lon="6.73527">
        <ele>401.8</ele>
        <time>2017-12-17T08:52:58.000Z</time>
      </trkpt>
      <trkpt lat="47.50797" lon="6.73526">
        <ele>400.5</ele>
        <time>2017-12-17T08:52:59.000Z</time>
      </trkpt>
      <trkpt lat="47.50802" lon="6.73525">
        <ele>399.8</ele>
        <time>2017-12-17T08:53:00.000Z</time>
      </trkpt>
      <trkpt lat="47.50807" lon="6.73524">
        <ele>399</ele>
        <time>2017-12-17T08:53:01.000Z</time>
      </trkpt>
      <trkpt lat="47.50812" lon="6.73524">
        <ele>398.2</ele>
        <time>2017-12-17T08:53:02.000Z</time>
      </trkpt>
      <trkpt lat="47.50817" lon="6.73524">
        <ele>398.8</ele>
        <time>2017-12-17T08:53:03.000Z</time>
      </trkpt>
      <trkpt lat="47.50822" lon="6.73525">
        <ele>399.7</ele>
        <time>2017-12-17T08:53:04.000Z</time>
      </trkpt>
      <trkpt lat="47.50826" lon="6.73526">
        <ele>400.8</ele>
        <time>2017-12-17T08:53:05.000Z</time>
      </trkpt>
      <trkpt lat="47.5083" lon="6.73528">
        <ele>401.1</ele>
        <time>2017-12-17T08:53:06.000Z</time>
      </trkpt>
      <trkpt lat="47.50835" lon="6.73529">
        <ele>401.3</ele>
        <time>2017-12-17T08:53:07.000Z</time>
      </trkpt>
      <trkpt lat="47.50839" lon="6.73531">
        <ele>401.4</ele>
        <time>2017-12-17T08:53:08.000Z</time>
      </trkpt>
      <trkpt lat="47.50844" lon="6.73533">
        <ele>402</ele>
        <time>2017-12-17T08:53:09.000Z</time>
      </trkpt>
      <trkpt lat="47.50849" lon="6.73536">
        <ele>402.9</ele>
        <time>2017-12-17T08:53:10.000Z</time>
      </trkpt>
      <trkpt lat="47.50854" lon="6.73539">
        <ele>402.9</ele>
        <time>2017-12-17T08:53:11.000Z</time>
      </trkpt>
      <trkpt lat="47.5086" lon="6.73543">
        <ele>402.4</ele>
        <time>2017-12-17T08:53:12.000Z</time>
      </trkpt>
      <trkpt lat="47.50863" lon="6.73547">
        <ele>401.8</ele>
        <time>2017-12-17T08:53:13.000Z</time>
      </trkpt>
      <trkpt lat="47.50866" lon="6.73552">
        <ele>401.7</ele>
        <time>2017-12-17T08:53:14.000Z</time>
      </trkpt>
      <trkpt lat="47.50868" lon="6.73556">
        <ele>401.6</ele>
        <time>2017-12-17T08:53:15.000Z</time>
      </trkpt>
      <trkpt lat="47.5087" lon="6.7356">
        <ele>401.5</ele>
        <time>2017-12-17T08:53:16.000Z</time>
      </trkpt>
      <trkpt lat="47.50872" lon="6.73563">
        <ele>401.4</ele>
        <time>2017-12-17T08:53:17.000Z</time>
      </trkpt>
      <trkpt lat="47.50873" lon="6.73565">
        <ele>401.4</ele>
        <time>2017-12-17T08:53:18.000Z</time>
      </trkpt>
      <trkpt lat="47.50875" lon="6.73568">
        <ele>401.4</ele>
        <time>2017-12-17T08:53:19.000Z</time>
      </trkpt>
      <trkpt lat="47.50877" lon="6.73572">
        <ele>401.3</ele>
        <time>2017-12-17T08:53:20.000Z</time>
      </trkpt>
      <trkpt lat="47.50878" lon="6.73576">
        <ele>401.2</ele>
        <time>2017-12-17T08:53:21.000Z</time>
      </trkpt>
      <trkpt lat="47.5088" lon="6.73581">
        <ele>401.2</ele>
        <time>2017-12-17T08:53:22.000Z</time>
      </trkpt>
      <trkpt lat="47.50882" lon="6.73585">
        <ele>401.1</ele>
        <time>2017-12-17T08:53:23.000Z</time>
      </trkpt>
      <trkpt lat="47.50884" lon="6.73589">
        <ele>401.1</ele>
        <time>2017-12-17T08:53:24.000Z</time>
      </trkpt>
      <trkpt lat="47.50886" lon="6.73594">
        <ele>400.9</ele>
        <time>2017-12-17T08:53:25.000Z</time>
      </trkpt>
      <trkpt lat="47.50887" lon="6.73598">
        <ele>400.9</ele>
        <time>2017-12-17T08:53:26.000Z</time>
      </trkpt>
      <trkpt lat="47.50889" lon="6.73601">
        <ele>400.8</ele>
        <time>2017-12-17T08:53:27.000Z</time>
      </trkpt>
      <trkpt lat="47.50892" lon="6.73605">
        <ele>400.6</ele>
        <time>2017-12-17T08:53:28.000Z</time>
      </trkpt>
      <trkpt lat="47.50894" lon="6.73609">
        <ele>400.5</ele>
        <time>2017-12-17T08:53:29.000Z</time>
      </trkpt>
      <trkpt lat="47.50897" lon="6.73614">
        <ele>400.3</ele>
        <time>2017-12-17T08:53:31.000Z</time>
      </trkpt>
      <trkpt lat="47.50898" lon="6.73617">
        <ele>400.2</ele>
        <time>2017-12-17T08:53:32.000Z</time>
      </trkpt>
      <trkpt lat="47.509" lon="6.73621">
        <ele>398.6</ele>
        <time>2017-12-17T08:54:12.000Z</time>
      </trkpt>
      <trkpt lat="47.50902" lon="6.73621">
        <ele>398.6</ele>
        <time>2017-12-17T08:54:13.000Z</time>
      </trkpt>
      <trkpt lat="47.50903" lon="6.73623">
        <ele>398.5</ele>
        <time>2017-12-17T08:54:14.000Z</time>
      </trkpt>
      <trkpt lat="47.50906" lon="6.73625">
        <ele>398.5</ele>
        <time>2017-12-17T08:54:15.000Z</time>
      </trkpt>
      <trkpt lat="47.5091" lon="6.73627">
        <ele>398.4</ele>
        <time>2017-12-17T08:54:16.000Z</time>
      </trkpt>
      <trkpt lat="47.50914" lon="6.73629">
        <ele>398.4</ele>
        <time>2017-12-17T08:54:17.000Z</time>
      </trkpt>
      <trkpt lat="47.50918" lon="6.7363">
        <ele>398.5</ele>
        <time>2017-12-17T08:54:18.000Z</time>
      </trkpt>
      <trkpt lat="47.50922" lon="6.73631">
        <ele>398.5</ele>
        <time>2017-12-17T08:54:19.000Z</time>
      </trkpt>
      <trkpt lat="47.50927" lon="6.73632">
        <ele>399.2</ele>
        <time>2017-12-17T08:54:20.000Z</time>
      </trkpt>
      <trkpt lat="47.50932" lon="6.73634">
        <ele>399.5</ele>
        <time>2017-12-17T08:54:21.000Z</time>
      </trkpt>
      <trkpt lat="47.50937" lon="6.73635">
        <ele>400.2</ele>
        <time>2017-12-17T08:54:22.000Z</time>
      </trkpt>
      <trkpt lat="47.50943" lon="6.73638">
        <ele>400.7</ele>
        <time>2017-12-17T08:54:23.000Z</time>
      </trkpt>
      <trkpt lat="47.50948" lon="6.7364">
        <ele>401.7</ele>
        <time>2017-12-17T08:54:24.000Z</time>
      </trkpt>
      <trkpt lat="47.50953" lon="6.73643">
        <ele>402.5</ele>
        <time>2017-12-17T08:54:25.000Z</time>
      </trkpt>
      <trkpt lat="47.50958" lon="6.73646">
        <ele>402.8</ele>
        <time>2017-12-17T08:54:26.000Z</time>
      </trkpt>
      <trkpt lat="47.50962" lon="6.73649">
        <ele>403</ele>
        <time>2017-12-17T08:54:27.000Z</time>
      </trkpt>
      <trkpt lat="47.50966" lon="6.73651">
        <ele>402.7</ele>
        <time>2017-12-17T08:54:28.000Z</time>
      </trkpt>
      <trkpt lat="47.50969" lon="6.73652">
        <ele>402.7</ele>
        <time>2017-12-17T08:54:29.000Z</time>
      </trkpt>
      <trkpt lat="47.50973" lon="6.73654">
        <ele>402.7</ele>
        <time>2017-12-17T08:54:30.000Z</time>
      </trkpt>
      <trkpt lat="47.50976" lon="6.73655">
        <ele>402.7</ele>
        <time>2017-12-17T08:54:31.000Z</time>
      </trkpt>
      <trkpt lat="47.50979" lon="6.73655">
        <ele>402.7</ele>
        <time>2017-12-17T08:54:32.000Z</time>
      </trkpt>
      <trkpt lat="47.50981" lon="6.73656">
        <ele>402.7</ele>
        <time>2017-12-17T08:54:33.000Z</time>
      </trkpt>
      <trkpt lat="47.50984" lon="6.73656">
        <ele>402.8</ele>
        <time>2017-12-17T08:54:34.000Z</time>
      </trkpt>
      <trkpt lat="47.50987" lon="6.73657">
        <ele>402.9</ele>
        <time>2017-12-17T08:54:35.000Z</time>
      </trkpt>
      <trkpt lat="47.50991" lon="6.73659">
        <ele>403.1</ele>
        <time>2017-12-17T08:54:37.000Z</time>
      </trkpt>
      <trkpt lat="47.50993" lon="6.73661">
        <ele>403.2</ele>
        <time>2017-12-17T08:54:38.000Z</time>
      </trkpt>
      <trkpt lat="47.50996" lon="6.73662">
        <ele>403.2</ele>
        <time>2017-12-17T08:54:39.000Z</time>
      </trkpt>
      <trkpt lat="47.50998" lon="6.73663">
        <ele>403.2</ele>
        <time>2017-12-17T08:54:40.000Z</time>
      </trkpt>
      <trkpt lat="47.51" lon="6.73664">
        <ele>403.2</ele>
        <time>2017-12-17T08:54:41.000Z</time>
      </trkpt>
      <trkpt lat="47.51002" lon="6.73665">
        <ele>403.1</ele>
        <time>2017-12-17T08:54:42.000Z</time>
      </trkpt>
      <trkpt lat="47.51006" lon="6.73666">
        <ele>403.2</ele>
        <time>2017-12-17T08:54:43.000Z</time>
      </trkpt>
      <trkpt lat="47.51008" lon="6.73667">
        <ele>403.2</ele>
        <time>2017-12-17T08:54:44.000Z</time>
      </trkpt>
      <trkpt lat="47.5101" lon="6.73668">
        <ele>403.3</ele>
        <time>2017-12-17T08:54:45.000Z</time>
      </trkpt>
      <trkpt lat="47.51013" lon="6.73669">
        <ele>403.4</ele>
        <time>2017-12-17T08:54:46.000Z</time>
      </trkpt>
      <trkpt lat="47.51016" lon="6.7367">
        <ele>403.5</ele>
        <time>2017-12-17T08:54:48.000Z</time>
      </trkpt>
      <trkpt lat="47.51018" lon="6.7367">
        <ele>403.6</ele>
        <time>2017-12-17T08:54:49.000Z</time>
      </trkpt>
      <trkpt lat="47.51021" lon="6.73672">
        <ele>403.8</ele>
        <time>2017-12-17T08:54:51.000Z</time>
      </trkpt>
      <trkpt lat="47.51024" lon="6.73673">
        <ele>403.9</ele>
        <time>2017-12-17T08:54:52.000Z</time>
      </trkpt>
      <trkpt lat="47.51028" lon="6.73671">
        <ele>404</ele>
        <time>2017-12-17T08:54:55.000Z</time>
      </trkpt>
      <trkpt lat="47.51028" lon="6.73671">
        <ele>404</ele>
        <time>2017-12-17T08:54:56.000Z</time>
      </trkpt>
      <trkpt lat="47.51032" lon="6.73669">
        <ele>404.2</ele>
        <time>2017-12-17T08:55:00.000Z</time>
      </trkpt>
      <trkpt lat="47.51033" lon="6.73669">
        <ele>404.3</ele>
        <time>2017-12-17T08:55:01.000Z</time>
      </trkpt>
      <trkpt lat="47.51037" lon="6.73671">
        <ele>404.5</ele>
        <time>2017-12-17T08:55:04.000Z</time>
      </trkpt>
      <trkpt lat="47.51038" lon="6.73672">
        <ele>404.7</ele>
        <time>2017-12-17T08:55:05.000Z</time>
      </trkpt>
      <trkpt lat="47.51041" lon="6.73673">
        <ele>404.8</ele>
        <time>2017-12-17T08:55:09.000Z</time>
      </trkpt>
      <trkpt lat="47.51043" lon="6.73676">
        <ele>404.9</ele>
        <time>2017-12-17T08:55:10.000Z</time>
      </trkpt>
      <trkpt lat="47.51047" lon="6.73676">
        <ele>405.7</ele>
        <time>2017-12-17T08:55:15.000Z</time>
      </trkpt>
      <trkpt lat="47.51048" lon="6.73675">
        <ele>405.9</ele>
        <time>2017-12-17T08:55:16.000Z</time>
      </trkpt>
      <trkpt lat="47.51052" lon="6.73673">
        <ele>407</ele>
        <time>2017-12-17T08:55:21.000Z</time>
      </trkpt>
      <trkpt lat="47.51053" lon="6.73673">
        <ele>407.1</ele>
        <time>2017-12-17T08:55:22.000Z</time>
      </trkpt>
      <trkpt lat="47.51056" lon="6.73672">
        <ele>407.6</ele>
        <time>2017-12-17T08:55:26.000Z</time>
      </trkpt>
      <trkpt lat="47.51057" lon="6.73671">
        <ele>407.8</ele>
        <time>2017-12-17T08:55:27.000Z</time>
      </trkpt>
      <trkpt lat="47.5106" lon="6.73671">
        <ele>408.2</ele>
        <time>2017-12-17T08:55:30.000Z</time>
      </trkpt>
      <trkpt lat="47.51063" lon="6.73672">
        <ele>408.3</ele>
        <time>2017-12-17T08:55:31.000Z</time>
      </trkpt>
      <trkpt lat="47.51066" lon="6.73673">
        <ele>408.3</ele>
        <time>2017-12-17T08:55:32.000Z</time>
      </trkpt>
      <trkpt lat="47.51069" lon="6.73675">
        <ele>408.3</ele>
        <time>2017-12-17T08:55:33.000Z</time>
      </trkpt>
      <trkpt lat="47.51072" lon="6.73677">
        <ele>408.3</ele>
        <time>2017-12-17T08:55:34.000Z</time>
      </trkpt>
      <trkpt lat="47.51074" lon="6.73678">
        <ele>408.4</ele>
        <time>2017-12-17T08:55:35.000Z</time>
      </trkpt>
      <trkpt lat="47.51078" lon="6.7368">
        <ele>408.6</ele>
        <time>2017-12-17T08:55:37.000Z</time>
      </trkpt>
      <trkpt lat="47.5108" lon="6.73681">
        <ele>408.7</ele>
        <time>2017-12-17T08:55:38.000Z</time>
      </trkpt>
      <trkpt lat="47.51083" lon="6.73683">
        <ele>409</ele>
        <time>2017-12-17T08:55:40.000Z</time>
      </trkpt>
      <trkpt lat="47.51085" lon="6.73685">
        <ele>409.1</ele>
        <time>2017-12-17T08:55:41.000Z</time>
      </trkpt>
      <trkpt lat="47.51091" lon="6.73689">
        <ele>409.1</ele>
        <time>2017-12-17T08:55:42.000Z</time>
      </trkpt>
      <trkpt lat="47.51095" lon="6.73694">
        <ele>409.1</ele>
        <time>2017-12-17T08:55:43.000Z</time>
      </trkpt>
      <trkpt lat="47.51099" lon="6.73698">
        <ele>409.2</ele>
        <time>2017-12-17T08:55:44.000Z</time>
      </trkpt>
      <trkpt lat="47.511" lon="6.73701">
        <ele>409.2</ele>
        <time>2017-12-17T08:55:45.000Z</time>
      </trkpt>
      <trkpt lat="47.51102" lon="6.73703">
        <ele>409.3</ele>
        <time>2017-12-17T08:55:46.000Z</time>
      </trkpt>
      <trkpt lat="47.51106" lon="6.73706">
        <ele>409.4</ele>
        <time>2017-12-17T08:55:48.000Z</time>
      </trkpt>
      <trkpt lat="47.51107" lon="6.73708">
        <ele>409.5</ele>
        <time>2017-12-17T08:55:49.000Z</time>
      </trkpt>
      <trkpt lat="47.5111" lon="6.7371">
        <ele>409.9</ele>
        <time>2017-12-17T08:55:51.000Z</time>
      </trkpt>
      <trkpt lat="47.51112" lon="6.73711">
        <ele>410</ele>
        <time>2017-12-17T08:55:52.000Z</time>
      </trkpt>
      <trkpt lat="47.51115" lon="6.73714">
        <ele>410</ele>
        <time>2017-12-17T08:55:53.000Z</time>
      </trkpt>
      <trkpt lat="47.51117" lon="6.73717">
        <ele>410.1</ele>
        <time>2017-12-17T08:55:54.000Z</time>
      </trkpt>
      <trkpt lat="47.51118" lon="6.73719">
        <ele>410.2</ele>
        <time>2017-12-17T08:55:55.000Z</time>
      </trkpt>
      <trkpt lat="47.5112" lon="6.73722">
        <ele>410.2</ele>
        <time>2017-12-17T08:55:56.000Z</time>
      </trkpt>
      <trkpt lat="47.51123" lon="6.73724">
        <ele>410.4</ele>
        <time>2017-12-17T08:55:59.000Z</time>
      </trkpt>
      <trkpt lat="47.51124" lon="6.73725">
        <ele>410.4</ele>
        <time>2017-12-17T08:56:00.000Z</time>
      </trkpt>
      <trkpt lat="47.51127" lon="6.73727">
        <ele>410.7</ele>
        <time>2017-12-17T08:56:02.000Z</time>
      </trkpt>
      <trkpt lat="47.51128" lon="6.73729">
        <ele>410.8</ele>
        <time>2017-12-17T08:56:03.000Z</time>
      </trkpt>
      <trkpt lat="47.5113" lon="6.73732">
        <ele>411</ele>
        <time>2017-12-17T08:56:04.000Z</time>
      </trkpt>
      <trkpt lat="47.51132" lon="6.73735">
        <ele>411.1</ele>
        <time>2017-12-17T08:56:05.000Z</time>
      </trkpt>
      <trkpt lat="47.51134" lon="6.73739">
        <ele>411.5</ele>
        <time>2017-12-17T08:56:07.000Z</time>
      </trkpt>
      <trkpt lat="47.51135" lon="6.73741">
        <ele>411.7</ele>
        <time>2017-12-17T08:56:08.000Z</time>
      </trkpt>
      <trkpt lat="47.51137" lon="6.73744">
        <ele>412.2</ele>
        <time>2017-12-17T08:56:10.000Z</time>
      </trkpt>
      <trkpt lat="47.51139" lon="6.73746">
        <ele>412.4</ele>
        <time>2017-12-17T08:56:11.000Z</time>
      </trkpt>
      <trkpt lat="47.51141" lon="6.73749">
        <ele>412.8</ele>
        <time>2017-12-17T08:56:13.000Z</time>
      </trkpt>
      <trkpt lat="47.51143" lon="6.7375">
        <ele>412.9</ele>
        <time>2017-12-17T08:56:14.000Z</time>
      </trkpt>
      <trkpt lat="47.51146" lon="6.73753">
        <ele>413.7</ele>
        <time>2017-12-17T08:56:17.000Z</time>
      </trkpt>
      <trkpt lat="47.51147" lon="6.73754">
        <ele>414</ele>
        <time>2017-12-17T08:56:18.000Z</time>
      </trkpt>
      <trkpt lat="47.51151" lon="6.73757">
        <ele>414.8</ele>
        <time>2017-12-17T08:56:22.000Z</time>
      </trkpt>
      <trkpt lat="47.51152" lon="6.73758">
        <ele>415.1</ele>
        <time>2017-12-17T08:56:23.000Z</time>
      </trkpt>
      <trkpt lat="47.51155" lon="6.7376">
        <ele>416</ele>
        <time>2017-12-17T08:56:27.000Z</time>
      </trkpt>
      <trkpt lat="47.51157" lon="6.7376">
        <ele>416.2</ele>
        <time>2017-12-17T08:56:28.000Z</time>
      </trkpt>
      <trkpt lat="47.51161" lon="6.73762">
        <ele>416.8</ele>
        <time>2017-12-17T08:56:31.000Z</time>
      </trkpt>
      <trkpt lat="47.51162" lon="6.73763">
        <ele>417.1</ele>
        <time>2017-12-17T08:56:32.000Z</time>
      </trkpt>
      <trkpt lat="47.51165" lon="6.73766">
        <ele>418.4</ele>
        <time>2017-12-17T08:56:37.000Z</time>
      </trkpt>
      <trkpt lat="47.51168" lon="6.73767">
        <ele>418.6</ele>
        <time>2017-12-17T08:56:38.000Z</time>
      </trkpt>
      <trkpt lat="47.51171" lon="6.7377">
        <ele>419.1</ele>
        <time>2017-12-17T08:56:40.000Z</time>
      </trkpt>
      <trkpt lat="47.51172" lon="6.73771">
        <ele>419.4</ele>
        <time>2017-12-17T08:56:41.000Z</time>
      </trkpt>
      <trkpt lat="47.51175" lon="6.73774">
        <ele>419.8</ele>
        <time>2017-12-17T08:56:43.000Z</time>
      </trkpt>
      <trkpt lat="47.51177" lon="6.73775">
        <ele>419.9</ele>
        <time>2017-12-17T08:56:44.000Z</time>
      </trkpt>
      <trkpt lat="47.51179" lon="6.73778">
        <ele>420.2</ele>
        <time>2017-12-17T08:56:46.000Z</time>
      </trkpt>
      <trkpt lat="47.5118" lon="6.73779">
        <ele>420.4</ele>
        <time>2017-12-17T08:56:47.000Z</time>
      </trkpt>
      <trkpt lat="47.51183" lon="6.73781">
        <ele>420.7</ele>
        <time>2017-12-17T08:56:49.000Z</time>
      </trkpt>
      <trkpt lat="47.51184" lon="6.73782">
        <ele>420.8</ele>
        <time>2017-12-17T08:56:50.000Z</time>
      </trkpt>
      <trkpt lat="47.51188" lon="6.73785">
        <ele>421.2</ele>
        <time>2017-12-17T08:56:54.000Z</time>
      </trkpt>
      <trkpt lat="47.51189" lon="6.73785">
        <ele>421.3</ele>
        <time>2017-12-17T08:56:55.000Z</time>
      </trkpt>
      <trkpt lat="47.51192" lon="6.73787">
        <ele>421.6</ele>
        <time>2017-12-17T08:56:57.000Z</time>
      </trkpt>
      <trkpt lat="47.51195" lon="6.73788">
        <ele>421.9</ele>
        <time>2017-12-17T08:56:58.000Z</time>
      </trkpt>
      <trkpt lat="47.51198" lon="6.73791">
        <ele>422.6</ele>
        <time>2017-12-17T08:57:00.000Z</time>
      </trkpt>
      <trkpt lat="47.51199" lon="6.73792">
        <ele>422.8</ele>
        <time>2017-12-17T08:57:01.000Z</time>
      </trkpt>
      <trkpt lat="47.51202" lon="6.73796">
        <ele>423.3</ele>
        <time>2017-12-17T08:57:03.000Z</time>
      </trkpt>
      <trkpt lat="47.51204" lon="6.73798">
        <ele>423.6</ele>
        <time>2017-12-17T08:57:04.000Z</time>
      </trkpt>
      <trkpt lat="47.51207" lon="6.73799">
        <ele>424.1</ele>
        <time>2017-12-17T08:57:06.000Z</time>
      </trkpt>
      <trkpt lat="47.51208" lon="6.73799">
        <ele>424.4</ele>
        <time>2017-12-17T08:57:07.000Z</time>
      </trkpt>
      <trkpt lat="47.51211" lon="6.73803">
        <ele>425.5</ele>
        <time>2017-12-17T08:57:11.000Z</time>
      </trkpt>
      <trkpt lat="47.51212" lon="6.73804">
        <ele>425.8</ele>
        <time>2017-12-17T08:57:12.000Z</time>
      </trkpt>
      <trkpt lat="47.51216" lon="6.73807">
        <ele>426.7</ele>
        <time>2017-12-17T08:57:16.000Z</time>
      </trkpt>
      <trkpt lat="47.51217" lon="6.73807">
        <ele>426.9</ele>
        <time>2017-12-17T08:57:17.000Z</time>
      </trkpt>
      <trkpt lat="47.5122" lon="6.73806">
        <ele>428.2</ele>
        <time>2017-12-17T08:57:24.000Z</time>
      </trkpt>
      <trkpt lat="47.51221" lon="6.73806">
        <ele>428.6</ele>
        <time>2017-12-17T08:57:25.000Z</time>
      </trkpt>
      <trkpt lat="47.51224" lon="6.73806">
        <ele>429.2</ele>
        <time>2017-12-17T08:57:27.000Z</time>
      </trkpt>
      <trkpt lat="47.51228" lon="6.73807">
        <ele>429.6</ele>
        <time>2017-12-17T08:57:28.000Z</time>
      </trkpt>
      <trkpt lat="47.51231" lon="6.7381">
        <ele>430</ele>
        <time>2017-12-17T08:57:30.000Z</time>
      </trkpt>
      <trkpt lat="47.51232" lon="6.73811">
        <ele>430.2</ele>
        <time>2017-12-17T08:57:31.000Z</time>
      </trkpt>
      <trkpt lat="47.51235" lon="6.73814">
        <ele>430.4</ele>
        <time>2017-12-17T08:57:33.000Z</time>
      </trkpt>
      <trkpt lat="47.51236" lon="6.73817">
        <ele>430.5</ele>
        <time>2017-12-17T08:57:34.000Z</time>
      </trkpt>
      <trkpt lat="47.51238" lon="6.73822">
        <ele>430.8</ele>
        <time>2017-12-17T08:57:36.000Z</time>
      </trkpt>
      <trkpt lat="47.5124" lon="6.73824">
        <ele>431</ele>
        <time>2017-12-17T08:57:37.000Z</time>
      </trkpt>
      <trkpt lat="47.51243" lon="6.73828">
        <ele>431.5</ele>
        <time>2017-12-17T08:57:40.000Z</time>
      </trkpt>
      <trkpt lat="47.51244" lon="6.73829">
        <ele>431.7</ele>
        <time>2017-12-17T08:57:41.000Z</time>
      </trkpt>
      <trkpt lat="47.51246" lon="6.73831">
        <ele>432</ele>
        <time>2017-12-17T08:57:43.000Z</time>
      </trkpt>
      <trkpt lat="47.51248" lon="6.73832">
        <ele>432.1</ele>
        <time>2017-12-17T08:57:44.000Z</time>
      </trkpt>
      <trkpt lat="47.51251" lon="6.73835">
        <ele>432.5</ele>
        <time>2017-12-17T08:57:49.000Z</time>
      </trkpt>
      <trkpt lat="47.51253" lon="6.73835">
        <ele>432.7</ele>
        <time>2017-12-17T08:57:50.000Z</time>
      </trkpt>
      <trkpt lat="47.51256" lon="6.73837">
        <ele>433.1</ele>
        <time>2017-12-17T08:57:52.000Z</time>
      </trkpt>
      <trkpt lat="47.51258" lon="6.73838">
        <ele>433.3</ele>
        <time>2017-12-17T08:57:53.000Z</time>
      </trkpt>
      <trkpt lat="47.51261" lon="6.7384">
        <ele>433.9</ele>
        <time>2017-12-17T08:57:55.000Z</time>
      </trkpt>
      <trkpt lat="47.51262" lon="6.7384">
        <ele>434.1</ele>
        <time>2017-12-17T08:57:56.000Z</time>
      </trkpt>
      <trkpt lat="47.51267" lon="6.73841">
        <ele>434.8</ele>
        <time>2017-12-17T08:57:59.000Z</time>
      </trkpt>
      <trkpt lat="47.51268" lon="6.73841">
        <ele>435</ele>
        <time>2017-12-17T08:58:00.000Z</time>
      </trkpt>
      <trkpt lat="47.51272" lon="6.73842">
        <ele>435.4</ele>
        <time>2017-12-17T08:58:03.000Z</time>
      </trkpt>
      <trkpt lat="47.51273" lon="6.73843">
        <ele>435.5</ele>
        <time>2017-12-17T08:58:04.000Z</time>
      </trkpt>
      <trkpt lat="47.51276" lon="6.73847">
        <ele>436.2</ele>
        <time>2017-12-17T08:58:09.000Z</time>
      </trkpt>
      <trkpt lat="47.51277" lon="6.73848">
        <ele>436.2</ele>
        <time>2017-12-17T08:58:10.000Z</time>
      </trkpt>
      <trkpt lat="47.5128" lon="6.73853">
        <ele>436.3</ele>
        <time>2017-12-17T08:58:13.000Z</time>
      </trkpt>
      <trkpt lat="47.51281" lon="6.73855">
        <ele>436.4</ele>
        <time>2017-12-17T08:58:14.000Z</time>
      </trkpt>
      <trkpt lat="47.51283" lon="6.73857">
        <ele>436.6</ele>
        <time>2017-12-17T08:58:16.000Z</time>
      </trkpt>
      <trkpt lat="47.51287" lon="6.7386">
        <ele>436.6</ele>
        <time>2017-12-17T08:58:17.000Z</time>
      </trkpt>
      <trkpt lat="47.5129" lon="6.73862">
        <ele>436.6</ele>
        <time>2017-12-17T08:58:18.000Z</time>
      </trkpt>
      <trkpt lat="47.51293" lon="6.73864">
        <ele>436.5</ele>
        <time>2017-12-17T08:58:19.000Z</time>
      </trkpt>
      <trkpt lat="47.51296" lon="6.73865">
        <ele>436.5</ele>
        <time>2017-12-17T08:58:21.000Z</time>
      </trkpt>
      <trkpt lat="47.51298" lon="6.73866">
        <ele>436.6</ele>
        <time>2017-12-17T08:58:22.000Z</time>
      </trkpt>
      <trkpt lat="47.51303" lon="6.73868">
        <ele>436.6</ele>
        <time>2017-12-17T08:58:23.000Z</time>
      </trkpt>
      <trkpt lat="47.51306" lon="6.7387">
        <ele>436.7</ele>
        <time>2017-12-17T08:58:24.000Z</time>
      </trkpt>
      <trkpt lat="47.51309" lon="6.73871">
        <ele>436.8</ele>
        <time>2017-12-17T08:58:25.000Z</time>
      </trkpt>
      <trkpt lat="47.51311" lon="6.73873">
        <ele>436.8</ele>
        <time>2017-12-17T08:58:26.000Z</time>
      </trkpt>
      <trkpt lat="47.51314" lon="6.73875">
        <ele>436.8</ele>
        <time>2017-12-17T08:58:27.000Z</time>
      </trkpt>
      <trkpt lat="47.51318" lon="6.73876">
        <ele>437</ele>
        <time>2017-12-17T08:58:29.000Z</time>
      </trkpt>
      <trkpt lat="47.51319" lon="6.73877">
        <ele>437</ele>
        <time>2017-12-17T08:58:30.000Z</time>
      </trkpt>
      <trkpt lat="47.51322" lon="6.7388">
        <ele>437</ele>
        <time>2017-12-17T08:58:31.000Z</time>
      </trkpt>
      <trkpt lat="47.51323" lon="6.73882">
        <ele>437.1</ele>
        <time>2017-12-17T08:58:32.000Z</time>
      </trkpt>
      <trkpt lat="47.51327" lon="6.73884">
        <ele>437.6</ele>
        <time>2017-12-17T08:58:35.000Z</time>
      </trkpt>
      <trkpt lat="47.51329" lon="6.73885">
        <ele>437.8</ele>
        <time>2017-12-17T08:58:36.000Z</time>
      </trkpt>
      <trkpt lat="47.51332" lon="6.73885">
        <ele>438.2</ele>
        <time>2017-12-17T08:58:39.000Z</time>
      </trkpt>
      <trkpt lat="47.51334" lon="6.73884">
        <ele>438.3</ele>
        <time>2017-12-17T08:58:40.000Z</time>
      </trkpt>
      <trkpt lat="47.51337" lon="6.7388">
        <ele>438.9</ele>
        <time>2017-12-17T08:58:44.000Z</time>
      </trkpt>
      <trkpt lat="47.51339" lon="6.73879">
        <ele>438.8</ele>
        <time>2017-12-17T08:58:45.000Z</time>
      </trkpt>
      <trkpt lat="47.51342" lon="6.73878">
        <ele>438.7</ele>
        <time>2017-12-17T08:58:47.000Z</time>
      </trkpt>
      <trkpt lat="47.51343" lon="6.73876">
        <ele>438.8</ele>
        <time>2017-12-17T08:58:48.000Z</time>
      </trkpt>
      <trkpt lat="47.51347" lon="6.73873">
        <ele>439.1</ele>
        <time>2017-12-17T08:58:52.000Z</time>
      </trkpt>
      <trkpt lat="47.51348" lon="6.73872">
        <ele>439.2</ele>
        <time>2017-12-17T08:58:53.000Z</time>
      </trkpt>
      <trkpt lat="47.5135" lon="6.73869">
        <ele>439.2</ele>
        <time>2017-12-17T08:58:55.000Z</time>
      </trkpt>
      <trkpt lat="47.51351" lon="6.73867">
        <ele>439.2</ele>
        <time>2017-12-17T08:58:56.000Z</time>
      </trkpt>
      <trkpt lat="47.51355" lon="6.73867">
        <ele>439.1</ele>
        <time>2017-12-17T08:58:58.000Z</time>
      </trkpt>
      <trkpt lat="47.51357" lon="6.73867">
        <ele>439</ele>
        <time>2017-12-17T08:58:59.000Z</time>
      </trkpt>
      <trkpt lat="47.51359" lon="6.73867">
        <ele>438.8</ele>
        <time>2017-12-17T08:59:00.000Z</time>
      </trkpt>
      <trkpt lat="47.51362" lon="6.73868">
        <ele>438.7</ele>
        <time>2017-12-17T08:59:01.000Z</time>
      </trkpt>
      <trkpt lat="47.51364" lon="6.73868">
        <ele>438.6</ele>
        <time>2017-12-17T08:59:02.000Z</time>
      </trkpt>
      <trkpt lat="47.51367" lon="6.73868">
        <ele>438.4</ele>
        <time>2017-12-17T08:59:03.000Z</time>
      </trkpt>
      <trkpt lat="47.51371" lon="6.73868">
        <ele>438.4</ele>
        <time>2017-12-17T08:59:04.000Z</time>
      </trkpt>
      <trkpt lat="47.51374" lon="6.73869">
        <ele>438.4</ele>
        <time>2017-12-17T08:59:05.000Z</time>
      </trkpt>
      <trkpt lat="47.51378" lon="6.7387">
        <ele>438.4</ele>
        <time>2017-12-17T08:59:06.000Z</time>
      </trkpt>
      <trkpt lat="47.51383" lon="6.73871">
        <ele>438.5</ele>
        <time>2017-12-17T08:59:07.000Z</time>
      </trkpt>
      <trkpt lat="47.51388" lon="6.73872">
        <ele>438.5</ele>
        <time>2017-12-17T08:59:08.000Z</time>
      </trkpt>
      <trkpt lat="47.51393" lon="6.73873">
        <ele>438.6</ele>
        <time>2017-12-17T08:59:09.000Z</time>
      </trkpt>
      <trkpt lat="47.51398" lon="6.73874">
        <ele>438.5</ele>
        <time>2017-12-17T08:59:10.000Z</time>
      </trkpt>
      <trkpt lat="47.51403" lon="6.73875">
        <ele>438.6</ele>
        <time>2017-12-17T08:59:11.000Z</time>
      </trkpt>
      <trkpt lat="47.51406" lon="6.73877">
        <ele>438.6</ele>
        <time>2017-12-17T08:59:12.000Z</time>
      </trkpt>
      <trkpt lat="47.51409" lon="6.73878">
        <ele>438.6</ele>
        <time>2017-12-17T08:59:13.000Z</time>
      </trkpt>
      <trkpt lat="47.51411" lon="6.73877">
        <ele>438.5</ele>
        <time>2017-12-17T08:59:14.000Z</time>
      </trkpt>
      <trkpt lat="47.51414" lon="6.73875">
        <ele>438.5</ele>
        <time>2017-12-17T08:59:15.000Z</time>
      </trkpt>
      <trkpt lat="47.51417" lon="6.73875">
        <ele>438.4</ele>
        <time>2017-12-17T08:59:16.000Z</time>
      </trkpt>
      <trkpt lat="47.5142" lon="6.73875">
        <ele>438.4</ele>
        <time>2017-12-17T08:59:17.000Z</time>
      </trkpt>
      <trkpt lat="47.51423" lon="6.73875">
        <ele>438.4</ele>
        <time>2017-12-17T08:59:18.000Z</time>
      </trkpt>
      <trkpt lat="47.51427" lon="6.73873">
        <ele>438.3</ele>
        <time>2017-12-17T08:59:20.000Z</time>
      </trkpt>
      <trkpt lat="47.51428" lon="6.7387">
        <ele>438.3</ele>
        <time>2017-12-17T08:59:21.000Z</time>
      </trkpt>
      <trkpt lat="47.5143" lon="6.73865">
        <ele>438.5</ele>
        <time>2017-12-17T08:59:25.000Z</time>
      </trkpt>
      <trkpt lat="47.5143" lon="6.73863">
        <ele>438.5</ele>
        <time>2017-12-17T08:59:26.000Z</time>
      </trkpt>
      <trkpt lat="47.51429" lon="6.73857">
        <ele>438.5</ele>
        <time>2017-12-17T08:59:29.000Z</time>
      </trkpt>
      <trkpt lat="47.51428" lon="6.73853">
        <ele>438.5</ele>
        <time>2017-12-17T08:59:30.000Z</time>
      </trkpt>
      <trkpt lat="47.51427" lon="6.73849">
        <ele>438.5</ele>
        <time>2017-12-17T08:59:31.000Z</time>
      </trkpt>
      <trkpt lat="47.51426" lon="6.73845">
        <ele>438.4</ele>
        <time>2017-12-17T08:59:32.000Z</time>
      </trkpt>
      <trkpt lat="47.51425" lon="6.73839">
        <ele>438.4</ele>
        <time>2017-12-17T08:59:34.000Z</time>
      </trkpt>
      <trkpt lat="47.51422" lon="6.73834">
        <ele>438.4</ele>
        <time>2017-12-17T08:59:35.000Z</time>
      </trkpt>
      <trkpt lat="47.51421" lon="6.7383">
        <ele>438.4</ele>
        <time>2017-12-17T08:59:36.000Z</time>
      </trkpt>
      <trkpt lat="47.5142" lon="6.73827">
        <ele>438.3</ele>
        <time>2017-12-17T08:59:37.000Z</time>
      </trkpt>
      <trkpt lat="47.5142" lon="6.73823">
        <ele>438.3</ele>
        <time>2017-12-17T08:59:38.000Z</time>
      </trkpt>
      <trkpt lat="47.5142" lon="6.7382">
        <ele>438.3</ele>
        <time>2017-12-17T08:59:39.000Z</time>
      </trkpt>
      <trkpt lat="47.51421" lon="6.73817">
        <ele>438.3</ele>
        <time>2017-12-17T08:59:40.000Z</time>
      </trkpt>
      <trkpt lat="47.51421" lon="6.73812">
        <ele>438.4</ele>
        <time>2017-12-17T08:59:41.000Z</time>
      </trkpt>
      <trkpt lat="47.51421" lon="6.73806">
        <ele>438.5</ele>
        <time>2017-12-17T08:59:43.000Z</time>
      </trkpt>
      <trkpt lat="47.51422" lon="6.73802">
        <ele>438.4</ele>
        <time>2017-12-17T08:59:44.000Z</time>
      </trkpt>
      <trkpt lat="47.51422" lon="6.73797">
        <ele>438.3</ele>
        <time>2017-12-17T08:59:46.000Z</time>
      </trkpt>
      <trkpt lat="47.51422" lon="6.73795">
        <ele>438.2</ele>
        <time>2017-12-17T08:59:47.000Z</time>
      </trkpt>
      <trkpt lat="47.51421" lon="6.73791">
        <ele>438.1</ele>
        <time>2017-12-17T08:59:49.000Z</time>
      </trkpt>
      <trkpt lat="47.5142" lon="6.73789">
        <ele>438</ele>
        <time>2017-12-17T08:59:50.000Z</time>
      </trkpt>
      <trkpt lat="47.51419" lon="6.73784">
        <ele>437.8</ele>
        <time>2017-12-17T08:59:52.000Z</time>
      </trkpt>
      <trkpt lat="47.51419" lon="6.73782">
        <ele>437.8</ele>
        <time>2017-12-17T08:59:53.000Z</time>
      </trkpt>
      <trkpt lat="47.51418" lon="6.73778">
        <ele>437.7</ele>
        <time>2017-12-17T08:59:54.000Z</time>
      </trkpt>
      <trkpt lat="47.51418" lon="6.73774">
        <ele>437.7</ele>
        <time>2017-12-17T08:59:55.000Z</time>
      </trkpt>
      <trkpt lat="47.51418" lon="6.7377">
        <ele>437.6</ele>
        <time>2017-12-17T08:59:56.000Z</time>
      </trkpt>
      <trkpt lat="47.51417" lon="6.73767">
        <ele>437.5</ele>
        <time>2017-12-17T08:59:57.000Z</time>
      </trkpt>
      <trkpt lat="47.51418" lon="6.73761">
        <ele>437.6</ele>
        <time>2017-12-17T08:59:59.000Z</time>
      </trkpt>
      <trkpt lat="47.51419" lon="6.73759">
        <ele>437.6</ele>
        <time>2017-12-17T09:00:00.000Z</time>
      </trkpt>
      <trkpt lat="47.51419" lon="6.73753">
        <ele>437.8</ele>
        <time>2017-12-17T09:00:02.000Z</time>
      </trkpt>
      <trkpt lat="47.51419" lon="6.73752">
        <ele>437.9</ele>
        <time>2017-12-17T09:00:03.000Z</time>
      </trkpt>
      <trkpt lat="47.51418" lon="6.73745">
        <ele>438</ele>
        <time>2017-12-17T09:00:06.000Z</time>
      </trkpt>
      <trkpt lat="47.51418" lon="6.73742">
        <ele>438</ele>
        <time>2017-12-17T09:00:07.000Z</time>
      </trkpt>
      <trkpt lat="47.51418" lon="6.73738">
        <ele>438</ele>
        <time>2017-12-17T09:00:09.000Z</time>
      </trkpt>
      <trkpt lat="47.51418" lon="6.73735">
        <ele>437.9</ele>
        <time>2017-12-17T09:00:10.000Z</time>
      </trkpt>
      <trkpt lat="47.51417" lon="6.7373">
        <ele>438</ele>
        <time>2017-12-17T09:00:13.000Z</time>
      </trkpt>
      <trkpt lat="47.51417" lon="6.73728">
        <ele>438</ele>
        <time>2017-12-17T09:00:14.000Z</time>
      </trkpt>
      <trkpt lat="47.51416" lon="6.73722">
        <ele>438.2</ele>
        <time>2017-12-17T09:00:17.000Z</time>
      </trkpt>
      <trkpt lat="47.51415" lon="6.73719">
        <ele>438.2</ele>
        <time>2017-12-17T09:00:18.000Z</time>
      </trkpt>
      <trkpt lat="47.51414" lon="6.73715">
        <ele>438.2</ele>
        <time>2017-12-17T09:00:19.000Z</time>
      </trkpt>
      <trkpt lat="47.51413" lon="6.73712">
        <ele>438.1</ele>
        <time>2017-12-17T09:00:20.000Z</time>
      </trkpt>
      <trkpt lat="47.51411" lon="6.73707">
        <ele>438</ele>
        <time>2017-12-17T09:00:22.000Z</time>
      </trkpt>
      <trkpt lat="47.51411" lon="6.73704">
        <ele>438</ele>
        <time>2017-12-17T09:00:23.000Z</time>
      </trkpt>
      <trkpt lat="47.51411" lon="6.737">
        <ele>437.7</ele>
        <time>2017-12-17T09:00:24.000Z</time>
      </trkpt>
      <trkpt lat="47.51411" lon="6.73694">
        <ele>437.6</ele>
        <time>2017-12-17T09:00:25.000Z</time>
      </trkpt>
      <trkpt lat="47.51411" lon="6.7369">
        <ele>437.5</ele>
        <time>2017-12-17T09:00:26.000Z</time>
      </trkpt>
      <trkpt lat="47.51412" lon="6.73685">
        <ele>437.3</ele>
        <time>2017-12-17T09:00:27.000Z</time>
      </trkpt>
      <trkpt lat="47.51413" lon="6.7368">
        <ele>437.1</ele>
        <time>2017-12-17T09:00:28.000Z</time>
      </trkpt>
      <trkpt lat="47.51414" lon="6.73676">
        <ele>437</ele>
        <time>2017-12-17T09:00:29.000Z</time>
      </trkpt>
      <trkpt lat="47.51416" lon="6.73671">
        <ele>436.6</ele>
        <time>2017-12-17T09:00:31.000Z</time>
      </trkpt>
      <trkpt lat="47.51416" lon="6.73668">
        <ele>436.5</ele>
        <time>2017-12-17T09:00:32.000Z</time>
      </trkpt>
      <trkpt lat="47.51415" lon="6.73662">
        <ele>436.1</ele>
        <time>2017-12-17T09:00:34.000Z</time>
      </trkpt>
      <trkpt lat="47.51415" lon="6.73658">
        <ele>435.9</ele>
        <time>2017-12-17T09:00:35.000Z</time>
      </trkpt>
      <trkpt lat="47.51414" lon="6.73653">
        <ele>435.7</ele>
        <time>2017-12-17T09:00:36.000Z</time>
      </trkpt>
      <trkpt lat="47.51414" lon="6.73648">
        <ele>435.6</ele>
        <time>2017-12-17T09:00:37.000Z</time>
      </trkpt>
      <trkpt lat="47.51414" lon="6.73644">
        <ele>435.5</ele>
        <time>2017-12-17T09:00:38.000Z</time>
      </trkpt>
      <trkpt lat="47.51414" lon="6.73641">
        <ele>435.5</ele>
        <time>2017-12-17T09:00:39.000Z</time>
      </trkpt>
      <trkpt lat="47.51414" lon="6.73634">
        <ele>435.5</ele>
        <time>2017-12-17T09:00:41.000Z</time>
      </trkpt>
      <trkpt lat="47.51414" lon="6.73631">
        <ele>435.6</ele>
        <time>2017-12-17T09:00:42.000Z</time>
      </trkpt>
      <trkpt lat="47.51415" lon="6.73625">
        <ele>435.9</ele>
        <time>2017-12-17T09:00:44.000Z</time>
      </trkpt>
      <trkpt lat="47.51415" lon="6.73622">
        <ele>436</ele>
        <time>2017-12-17T09:00:45.000Z</time>
      </trkpt>
      <trkpt lat="47.51414" lon="6.73615">
        <ele>436.2</ele>
        <time>2017-12-17T09:00:47.000Z</time>
      </trkpt>
      <trkpt lat="47.51415" lon="6.73612">
        <ele>436.4</ele>
        <time>2017-12-17T09:00:48.000Z</time>
      </trkpt>
      <trkpt lat="47.51414" lon="6.73609">
        <ele>436.6</ele>
        <time>2017-12-17T09:00:49.000Z</time>
      </trkpt>
      <trkpt lat="47.51415" lon="6.73605">
        <ele>436.7</ele>
        <time>2017-12-17T09:00:50.000Z</time>
      </trkpt>
      <trkpt lat="47.51415" lon="6.73602">
        <ele>436.7</ele>
        <time>2017-12-17T09:00:51.000Z</time>
      </trkpt>
      <trkpt lat="47.51415" lon="6.73598">
        <ele>436.7</ele>
        <time>2017-12-17T09:00:52.000Z</time>
      </trkpt>
      <trkpt lat="47.51416" lon="6.73595">
        <ele>436.7</ele>
        <time>2017-12-17T09:00:53.000Z</time>
      </trkpt>
      <trkpt lat="47.51416" lon="6.73591">
        <ele>436.7</ele>
        <time>2017-12-17T09:00:54.000Z</time>
      </trkpt>
      <trkpt lat="47.51417" lon="6.73585">
        <ele>436.8</ele>
        <time>2017-12-17T09:00:56.000Z</time>
      </trkpt>
      <trkpt lat="47.51417" lon="6.73583">
        <ele>436.9</ele>
        <time>2017-12-17T09:00:57.000Z</time>
      </trkpt>
      <trkpt lat="47.51418" lon="6.73578">
        <ele>437</ele>
        <time>2017-12-17T09:00:59.000Z</time>
      </trkpt>
      <trkpt lat="47.51419" lon="6.73574">
        <ele>437</ele>
        <time>2017-12-17T09:01:00.000Z</time>
      </trkpt>
      <trkpt lat="47.5142" lon="6.7357">
        <ele>437.1</ele>
        <time>2017-12-17T09:01:02.000Z</time>
      </trkpt>
      <trkpt lat="47.5142" lon="6.73566">
        <ele>437.1</ele>
        <time>2017-12-17T09:01:02.999Z</time>
      </trkpt>
      <trkpt lat="47.5142" lon="6.73562">
        <ele>437.3</ele>
        <time>2017-12-17T09:01:03.999Z</time>
      </trkpt>
      <trkpt lat="47.5142" lon="6.73558">
        <ele>437.4</ele>
        <time>2017-12-17T09:01:04.999Z</time>
      </trkpt>
      <trkpt lat="47.5142" lon="6.73554">
        <ele>437.5</ele>
        <time>2017-12-17T09:01:05.999Z</time>
      </trkpt>
      <trkpt lat="47.51421" lon="6.73551">
        <ele>437.6</ele>
        <time>2017-12-17T09:01:06.999Z</time>
      </trkpt>
      <trkpt lat="47.51421" lon="6.73547">
        <ele>437.6</ele>
        <time>2017-12-17T09:01:07.999Z</time>
      </trkpt>
      <trkpt lat="47.51422" lon="6.73543">
        <ele>437.7</ele>
        <time>2017-12-17T09:01:08.999Z</time>
      </trkpt>
      <trkpt lat="47.51423" lon="6.73538">
        <ele>437.8</ele>
        <time>2017-12-17T09:01:10.999Z</time>
      </trkpt>
      <trkpt lat="47.51423" lon="6.73536">
        <ele>437.8</ele>
        <time>2017-12-17T09:01:11.999Z</time>
      </trkpt>
      <trkpt lat="47.51424" lon="6.7353">
        <ele>438</ele>
        <time>2017-12-17T09:01:14.999Z</time>
      </trkpt>
      <trkpt lat="47.51424" lon="6.73527">
        <ele>438.1</ele>
        <time>2017-12-17T09:01:15.999Z</time>
      </trkpt>
      <trkpt lat="47.51425" lon="6.73521">
        <ele>438.4</ele>
        <time>2017-12-17T09:01:17.999Z</time>
      </trkpt>
      <trkpt lat="47.51426" lon="6.73519">
        <ele>438.6</ele>
        <time>2017-12-17T09:01:18.999Z</time>
      </trkpt>
      <trkpt lat="47.51427" lon="6.73514">
        <ele>438.7</ele>
        <time>2017-12-17T09:01:19.999Z</time>
      </trkpt>
      <trkpt lat="47.51428" lon="6.73511">
        <ele>438.8</ele>
        <time>2017-12-17T09:01:20.999Z</time>
      </trkpt>
      <trkpt lat="47.51432" lon="6.73508">
        <ele>439</ele>
        <time>2017-12-17T09:01:22.999Z</time>
      </trkpt>
      <trkpt lat="47.51434" lon="6.73508">
        <ele>439.2</ele>
        <time>2017-12-17T09:01:23.999Z</time>
      </trkpt>
      <trkpt lat="47.51438" lon="6.73507">
        <ele>439.9</ele>
        <time>2017-12-17T09:01:26.999Z</time>
      </trkpt>
      <trkpt lat="47.5144" lon="6.73508">
        <ele>440.1</ele>
        <time>2017-12-17T09:01:27.999Z</time>
      </trkpt>
      <trkpt lat="47.51445" lon="6.73508">
        <ele>441</ele>
        <time>2017-12-17T09:01:30.999Z</time>
      </trkpt>
      <trkpt lat="47.51446" lon="6.73507">
        <ele>441.3</ele>
        <time>2017-12-17T09:01:31.999Z</time>
      </trkpt>
      <trkpt lat="47.51449" lon="6.73507">
        <ele>441.7</ele>
        <time>2017-12-17T09:01:33.999Z</time>
      </trkpt>
      <trkpt lat="47.5145" lon="6.73508">
        <ele>441.8</ele>
        <time>2017-12-17T09:01:34.999Z</time>
      </trkpt>
      <trkpt lat="47.51452" lon="6.73509">
        <ele>441.9</ele>
        <time>2017-12-17T09:01:35.999Z</time>
      </trkpt>
      <trkpt lat="47.51454" lon="6.73511">
        <ele>441.9</ele>
        <time>2017-12-17T09:01:36.999Z</time>
      </trkpt>
      <trkpt lat="47.51456" lon="6.73513">
        <ele>442</ele>
        <time>2017-12-17T09:01:37.999Z</time>
      </trkpt>
      <trkpt lat="47.51459" lon="6.73514">
        <ele>442.1</ele>
        <time>2017-12-17T09:01:38.999Z</time>
      </trkpt>
      <trkpt lat="47.51463" lon="6.73515">
        <ele>442.4</ele>
        <time>2017-12-17T09:01:41.999Z</time>
      </trkpt>
      <trkpt lat="47.51465" lon="6.73515">
        <ele>442.5</ele>
        <time>2017-12-17T09:01:42.999Z</time>
      </trkpt>
      <trkpt lat="47.51469" lon="6.73515">
        <ele>442.8</ele>
        <time>2017-12-17T09:01:44.999Z</time>
      </trkpt>
      <trkpt lat="47.51471" lon="6.73516">
        <ele>442.9</ele>
        <time>2017-12-17T09:01:45.999Z</time>
      </trkpt>
      <trkpt lat="47.51475" lon="6.73516">
        <ele>443.2</ele>
        <time>2017-12-17T09:01:48.999Z</time>
      </trkpt>
      <trkpt lat="47.51477" lon="6.73516">
        <ele>443.3</ele>
        <time>2017-12-17T09:01:49.999Z</time>
      </trkpt>
      <trkpt lat="47.5148" lon="6.73516">
        <ele>443.4</ele>
        <time>2017-12-17T09:01:51.999Z</time>
      </trkpt>
      <trkpt lat="47.51482" lon="6.73516">
        <ele>443.5</ele>
        <time>2017-12-17T09:01:52.999Z</time>
      </trkpt>
      <trkpt lat="47.51485" lon="6.73517">
        <ele>443.5</ele>
        <time>2017-12-17T09:01:53.999Z</time>
      </trkpt>
      <trkpt lat="47.51487" lon="6.73516">
        <ele>443.5</ele>
        <time>2017-12-17T09:01:54.999Z</time>
      </trkpt>
      <trkpt lat="47.51492" lon="6.73516">
        <ele>443.5</ele>
        <time>2017-12-17T09:01:56.999Z</time>
      </trkpt>
      <trkpt lat="47.51494" lon="6.73516">
        <ele>443.6</ele>
        <time>2017-12-17T09:01:57.999Z</time>
      </trkpt>
      <trkpt lat="47.51498" lon="6.73518">
        <ele>443.8</ele>
        <time>2017-12-17T09:01:59.999Z</time>
      </trkpt>
      <trkpt lat="47.51499" lon="6.73519">
        <ele>444</ele>
        <time>2017-12-17T09:02:00.999Z</time>
      </trkpt>
      <trkpt lat="47.51503" lon="6.7352">
        <ele>444.4</ele>
        <time>2017-12-17T09:02:03.999Z</time>
      </trkpt>
      <trkpt lat="47.51505" lon="6.7352">
        <ele>444.6</ele>
        <time>2017-12-17T09:02:04.999Z</time>
      </trkpt>
      <trkpt lat="47.51509" lon="6.73523">
        <ele>444.8</ele>
        <time>2017-12-17T09:02:06.999Z</time>
      </trkpt>
      <trkpt lat="47.51511" lon="6.73525">
        <ele>444.9</ele>
        <time>2017-12-17T09:02:07.999Z</time>
      </trkpt>
      <trkpt lat="47.51514" lon="6.73526">
        <ele>445</ele>
        <time>2017-12-17T09:02:08.999Z</time>
      </trkpt>
      <trkpt lat="47.51516" lon="6.73526">
        <ele>445.2</ele>
        <time>2017-12-17T09:02:09.999Z</time>
      </trkpt>
      <trkpt lat="47.51518" lon="6.73528">
        <ele>445.4</ele>
        <time>2017-12-17T09:02:10.999Z</time>
      </trkpt>
      <trkpt lat="47.51521" lon="6.73529">
        <ele>445.5</ele>
        <time>2017-12-17T09:02:11.999Z</time>
      </trkpt>
      <trkpt lat="47.51523" lon="6.7353">
        <ele>445.6</ele>
        <time>2017-12-17T09:02:12.999Z</time>
      </trkpt>
      <trkpt lat="47.51526" lon="6.73531">
        <ele>445.6</ele>
        <time>2017-12-17T09:02:13.999Z</time>
      </trkpt>
      <trkpt lat="47.51529" lon="6.73533">
        <ele>445.8</ele>
        <time>2017-12-17T09:02:15.999Z</time>
      </trkpt>
      <trkpt lat="47.51532" lon="6.73533">
        <ele>445.8</ele>
        <time>2017-12-17T09:02:16.999Z</time>
      </trkpt>
      <trkpt lat="47.51536" lon="6.73535">
        <ele>446.3</ele>
        <time>2017-12-17T09:02:18.999Z</time>
      </trkpt>
      <trkpt lat="47.51537" lon="6.73536">
        <ele>446.4</ele>
        <time>2017-12-17T09:02:19.999Z</time>
      </trkpt>
      <trkpt lat="47.51541" lon="6.73537">
        <ele>446.7</ele>
        <time>2017-12-17T09:02:21.999Z</time>
      </trkpt>
      <trkpt lat="47.51543" lon="6.73538">
        <ele>446.9</ele>
        <time>2017-12-17T09:02:22.999Z</time>
      </trkpt>
      <trkpt lat="47.51545" lon="6.73539">
        <ele>447.2</ele>
        <time>2017-12-17T09:02:23.999Z</time>
      </trkpt>
      <trkpt lat="47.51547" lon="6.73541">
        <ele>447.4</ele>
        <time>2017-12-17T09:02:24.999Z</time>
      </trkpt>
      <trkpt lat="47.5155" lon="6.73543">
        <ele>447.5</ele>
        <time>2017-12-17T09:02:25.999Z</time>
      </trkpt>
      <trkpt lat="47.51552" lon="6.73546">
        <ele>447.7</ele>
        <time>2017-12-17T09:02:26.999Z</time>
      </trkpt>
      <trkpt lat="47.51557" lon="6.73547">
        <ele>448.2</ele>
        <time>2017-12-17T09:02:28.999Z</time>
      </trkpt>
      <trkpt lat="47.51559" lon="6.73547">
        <ele>448.5</ele>
        <time>2017-12-17T09:02:29.999Z</time>
      </trkpt>
      <trkpt lat="47.51562" lon="6.73547">
        <ele>448.9</ele>
        <time>2017-12-17T09:02:31.999Z</time>
      </trkpt>
      <trkpt lat="47.51564" lon="6.73547">
        <ele>449.1</ele>
        <time>2017-12-17T09:02:32.999Z</time>
      </trkpt>
      <trkpt lat="47.51568" lon="6.73548">
        <ele>449.5</ele>
        <time>2017-12-17T09:02:34.999Z</time>
      </trkpt>
      <trkpt lat="47.51569" lon="6.73548">
        <ele>449.8</ele>
        <time>2017-12-17T09:02:35.999Z</time>
      </trkpt>
      <trkpt lat="47.51572" lon="6.73551">
        <ele>450.3</ele>
        <time>2017-12-17T09:02:38.999Z</time>
      </trkpt>
      <trkpt lat="47.51575" lon="6.73552">
        <ele>450.5</ele>
        <time>2017-12-17T09:02:39.999Z</time>
      </trkpt>
      <trkpt lat="47.51577" lon="6.73552">
        <ele>450.8</ele>
        <time>2017-12-17T09:02:40.999Z</time>
      </trkpt>
      <trkpt lat="47.5158" lon="6.73552">
        <ele>451</ele>
        <time>2017-12-17T09:02:41.999Z</time>
      </trkpt>
      <trkpt lat="47.51583" lon="6.73551">
        <ele>451.2</ele>
        <time>2017-12-17T09:02:42.999Z</time>
      </trkpt>
      <trkpt lat="47.51586" lon="6.73551">
        <ele>451.4</ele>
        <time>2017-12-17T09:02:43.999Z</time>
      </trkpt>
      <trkpt lat="47.51588" lon="6.73551">
        <ele>451.6</ele>
        <time>2017-12-17T09:02:44.999Z</time>
      </trkpt>
      <trkpt lat="47.51591" lon="6.73551">
        <ele>451.8</ele>
        <time>2017-12-17T09:02:45.999Z</time>
      </trkpt>
      <trkpt lat="47.51593" lon="6.73552">
        <ele>452.2</ele>
        <time>2017-12-17T09:02:47.999Z</time>
      </trkpt>
      <trkpt lat="47.51596" lon="6.73552">
        <ele>452.3</ele>
        <time>2017-12-17T09:02:48.999Z</time>
      </trkpt>
      <trkpt lat="47.51599" lon="6.73553">
        <ele>452.7</ele>
        <time>2017-12-17T09:02:50.999Z</time>
      </trkpt>
      <trkpt lat="47.51601" lon="6.73553">
        <ele>452.9</ele>
        <time>2017-12-17T09:02:51.999Z</time>
      </trkpt>
      <trkpt lat="47.51603" lon="6.73552">
        <ele>453</ele>
        <time>2017-12-17T09:02:52.999Z</time>
      </trkpt>
      <trkpt lat="47.51606" lon="6.73553">
        <ele>453.1</ele>
        <time>2017-12-17T09:02:53.999Z</time>
      </trkpt>
      <trkpt lat="47.51609" lon="6.73553">
        <ele>453.3</ele>
        <time>2017-12-17T09:02:54.999Z</time>
      </trkpt>
      <trkpt lat="47.51611" lon="6.73553">
        <ele>453.5</ele>
        <time>2017-12-17T09:02:55.999Z</time>
      </trkpt>
      <trkpt lat="47.51614" lon="6.73553">
        <ele>453.7</ele>
        <time>2017-12-17T09:02:56.999Z</time>
      </trkpt>
      <trkpt lat="47.51616" lon="6.73554">
        <ele>454</ele>
        <time>2017-12-17T09:02:57.999Z</time>
      </trkpt>
      <trkpt lat="47.51618" lon="6.73555">
        <ele>454.2</ele>
        <time>2017-12-17T09:02:58.999Z</time>
      </trkpt>
      <trkpt lat="47.51621" lon="6.73557">
        <ele>454.5</ele>
        <time>2017-12-17T09:02:59.999Z</time>
      </trkpt>
      <trkpt lat="47.51624" lon="6.7356">
        <ele>454.8</ele>
        <time>2017-12-17T09:03:00.999Z</time>
      </trkpt>
      <trkpt lat="47.51626" lon="6.73561">
        <ele>455</ele>
        <time>2017-12-17T09:03:01.999Z</time>
      </trkpt>
      <trkpt lat="47.51629" lon="6.73562">
        <ele>455.2</ele>
        <time>2017-12-17T09:03:02.999Z</time>
      </trkpt>
      <trkpt lat="47.51632" lon="6.73563">
        <ele>455.5</ele>
        <time>2017-12-17T09:03:03.999Z</time>
      </trkpt>
      <trkpt lat="47.51636" lon="6.73564">
        <ele>455.6</ele>
        <time>2017-12-17T09:03:04.999Z</time>
      </trkpt>
      <trkpt lat="47.51639" lon="6.73565">
        <ele>455.8</ele>
        <time>2017-12-17T09:03:05.999Z</time>
      </trkpt>
      <trkpt lat="47.51642" lon="6.73567">
        <ele>455.8</ele>
        <time>2017-12-17T09:03:06.999Z</time>
      </trkpt>
      <trkpt lat="47.51646" lon="6.73567">
        <ele>455.9</ele>
        <time>2017-12-17T09:03:07.999Z</time>
      </trkpt>
      <trkpt lat="47.5165" lon="6.73568">
        <ele>455.8</ele>
        <time>2017-12-17T09:03:08.999Z</time>
      </trkpt>
      <trkpt lat="47.51654" lon="6.73569">
        <ele>455.8</ele>
        <time>2017-12-17T09:03:09.999Z</time>
      </trkpt>
      <trkpt lat="47.51658" lon="6.73571">
        <ele>455.8</ele>
        <time>2017-12-17T09:03:10.999Z</time>
      </trkpt>
      <trkpt lat="47.51663" lon="6.73573">
        <ele>455.4</ele>
        <time>2017-12-17T09:03:11.999Z</time>
      </trkpt>
      <trkpt lat="47.51668" lon="6.73575">
        <ele>455.1</ele>
        <time>2017-12-17T09:03:12.999Z</time>
      </trkpt>
      <trkpt lat="47.51671" lon="6.73579">
        <ele>455</ele>
        <time>2017-12-17T09:03:13.999Z</time>
      </trkpt>
      <trkpt lat="47.51675" lon="6.73582">
        <ele>454.9</ele>
        <time>2017-12-17T09:03:14.999Z</time>
      </trkpt>
      <trkpt lat="47.51677" lon="6.73584">
        <ele>454.8</ele>
        <time>2017-12-17T09:03:15.999Z</time>
      </trkpt>
      <trkpt lat="47.5168" lon="6.73582">
        <ele>454.7</ele>
        <time>2017-12-17T09:03:16.999Z</time>
      </trkpt>
      <trkpt lat="47.51683" lon="6.73581">
        <ele>454.6</ele>
        <time>2017-12-17T09:03:17.999Z</time>
      </trkpt>
      <trkpt lat="47.51685" lon="6.7358">
        <ele>454.5</ele>
        <time>2017-12-17T09:03:18.999Z</time>
      </trkpt>
      <trkpt lat="47.51687" lon="6.7358">
        <ele>454.4</ele>
        <time>2017-12-17T09:03:19.999Z</time>
      </trkpt>
      <trkpt lat="47.5169" lon="6.73581">
        <ele>454.3</ele>
        <time>2017-12-17T09:03:20.999Z</time>
      </trkpt>
      <trkpt lat="47.51693" lon="6.73581">
        <ele>454.2</ele>
        <time>2017-12-17T09:03:21.999Z</time>
      </trkpt>
      <trkpt lat="47.51697" lon="6.73582">
        <ele>454.2</ele>
        <time>2017-12-17T09:03:22.999Z</time>
      </trkpt>
      <trkpt lat="47.517" lon="6.73582">
        <ele>454.3</ele>
        <time>2017-12-17T09:03:23.999Z</time>
      </trkpt>
      <trkpt lat="47.51703" lon="6.73582">
        <ele>454.2</ele>
        <time>2017-12-17T09:03:24.999Z</time>
      </trkpt>
      <trkpt lat="47.51705" lon="6.73583">
        <ele>454.2</ele>
        <time>2017-12-17T09:03:25.999Z</time>
      </trkpt>
      <trkpt lat="47.51707" lon="6.73583">
        <ele>454.2</ele>
        <time>2017-12-17T09:03:26.999Z</time>
      </trkpt>
      <trkpt lat="47.5171" lon="6.73584">
        <ele>454.1</ele>
        <time>2017-12-17T09:03:27.999Z</time>
      </trkpt>
      <trkpt lat="47.51713" lon="6.73584">
        <ele>454</ele>
        <time>2017-12-17T09:03:28.999Z</time>
      </trkpt>
      <trkpt lat="47.51716" lon="6.73585">
        <ele>453.9</ele>
        <time>2017-12-17T09:03:29.999Z</time>
      </trkpt>
      <trkpt lat="47.51719" lon="6.73584">
        <ele>453.8</ele>
        <time>2017-12-17T09:03:30.999Z</time>
      </trkpt>
      <trkpt lat="47.51722" lon="6.73585">
        <ele>453.7</ele>
        <time>2017-12-17T09:03:31.999Z</time>
      </trkpt>
      <trkpt lat="47.51724" lon="6.73584">
        <ele>453.7</ele>
        <time>2017-12-17T09:03:32.999Z</time>
      </trkpt>
      <trkpt lat="47.51727" lon="6.73583">
        <ele>453.6</ele>
        <time>2017-12-17T09:03:33.999Z</time>
      </trkpt>
      <trkpt lat="47.5173" lon="6.73582">
        <ele>453.5</ele>
        <time>2017-12-17T09:03:34.999Z</time>
      </trkpt>
      <trkpt lat="47.51733" lon="6.73583">
        <ele>453.6</ele>
        <time>2017-12-17T09:03:35.999Z</time>
      </trkpt>
      <trkpt lat="47.51735" lon="6.73583">
        <ele>453.5</ele>
        <time>2017-12-17T09:03:36.999Z</time>
      </trkpt>
      <trkpt lat="47.51738" lon="6.73583">
        <ele>453.5</ele>
        <time>2017-12-17T09:03:37.999Z</time>
      </trkpt>
      <trkpt lat="47.5174" lon="6.73584">
        <ele>453.5</ele>
        <time>2017-12-17T09:03:38.999Z</time>
      </trkpt>
      <trkpt lat="47.51743" lon="6.73584">
        <ele>453.6</ele>
        <time>2017-12-17T09:03:40.999Z</time>
      </trkpt>
      <trkpt lat="47.51745" lon="6.73583">
        <ele>453.7</ele>
        <time>2017-12-17T09:03:41.999Z</time>
      </trkpt>
      <trkpt lat="47.51749" lon="6.73582">
        <ele>453.8</ele>
        <time>2017-12-17T09:03:45.999Z</time>
      </trkpt>
      <trkpt lat="47.51751" lon="6.73583">
        <ele>453.8</ele>
        <time>2017-12-17T09:03:46.999Z</time>
      </trkpt>
      <trkpt lat="47.51753" lon="6.73587">
        <ele>453.9</ele>
        <time>2017-12-17T09:03:48.999Z</time>
      </trkpt>
      <trkpt lat="47.51753" lon="6.73589">
        <ele>453.9</ele>
        <time>2017-12-17T09:03:49.999Z</time>
      </trkpt>
      <trkpt lat="47.51754" lon="6.73594">
        <ele>453.8</ele>
        <time>2017-12-17T09:03:51.999Z</time>
      </trkpt>
      <trkpt lat="47.51754" lon="6.73596">
        <ele>453.7</ele>
        <time>2017-12-17T09:03:52.999Z</time>
      </trkpt>
      <trkpt lat="47.51755" lon="6.73599">
        <ele>453.6</ele>
        <time>2017-12-17T09:03:53.999Z</time>
      </trkpt>
      <trkpt lat="47.51756" lon="6.73602">
        <ele>453.4</ele>
        <time>2017-12-17T09:03:54.999Z</time>
      </trkpt>
      <trkpt lat="47.51758" lon="6.73605">
        <ele>453.3</ele>
        <time>2017-12-17T09:03:55.999Z</time>
      </trkpt>
      <trkpt lat="47.51759" lon="6.73608">
        <ele>453.1</ele>
        <time>2017-12-17T09:03:56.999Z</time>
      </trkpt>
      <trkpt lat="47.51759" lon="6.73614">
        <ele>452.8</ele>
        <time>2017-12-17T09:03:58.999Z</time>
      </trkpt>
      <trkpt lat="47.51759" lon="6.73616">
        <ele>452.6</ele>
        <time>2017-12-17T09:03:59.999Z</time>
      </trkpt>
      <trkpt lat="47.51759" lon="6.73621">
        <ele>452</ele>
        <time>2017-12-17T09:04:02.999Z</time>
      </trkpt>
      <trkpt lat="47.51759" lon="6.73624">
        <ele>451.7</ele>
        <time>2017-12-17T09:04:03.999Z</time>
      </trkpt>
      <trkpt lat="47.51759" lon="6.7363">
        <ele>451.3</ele>
        <time>2017-12-17T09:04:05.999Z</time>
      </trkpt>
      <trkpt lat="47.51759" lon="6.73633">
        <ele>451.2</ele>
        <time>2017-12-17T09:04:06.999Z</time>
      </trkpt>
      <trkpt lat="47.5176" lon="6.73639">
        <ele>450.7</ele>
        <time>2017-12-17T09:04:08.999Z</time>
      </trkpt>
      <trkpt lat="47.5176" lon="6.73642">
        <ele>450.5</ele>
        <time>2017-12-17T09:04:09.999Z</time>
      </trkpt>
      <trkpt lat="47.51759" lon="6.73648">
        <ele>450.2</ele>
        <time>2017-12-17T09:04:11.999Z</time>
      </trkpt>
      <trkpt lat="47.51758" lon="6.73649">
        <ele>450.1</ele>
        <time>2017-12-17T09:04:12.999Z</time>
      </trkpt>
      <trkpt lat="47.51757" lon="6.73654">
        <ele>450</ele>
        <time>2017-12-17T09:04:14.999Z</time>
      </trkpt>
      <trkpt lat="47.51757" lon="6.73657">
        <ele>449.9</ele>
        <time>2017-12-17T09:04:15.999Z</time>
      </trkpt>
      <trkpt lat="47.51757" lon="6.73663">
        <ele>449.9</ele>
        <time>2017-12-17T09:04:17.999Z</time>
      </trkpt>
      <trkpt lat="47.51756" lon="6.73666">
        <ele>449.9</ele>
        <time>2017-12-17T09:04:18.999Z</time>
      </trkpt>
      <trkpt lat="47.51756" lon="6.7367">
        <ele>450</ele>
        <time>2017-12-17T09:04:19.999Z</time>
      </trkpt>
      <trkpt lat="47.51756" lon="6.73675">
        <ele>450</ele>
        <time>2017-12-17T09:04:20.999Z</time>
      </trkpt>
      <trkpt lat="47.51756" lon="6.73681">
        <ele>450</ele>
        <time>2017-12-17T09:04:22.999Z</time>
      </trkpt>
      <trkpt lat="47.51756" lon="6.73683">
        <ele>450</ele>
        <time>2017-12-17T09:04:23.999Z</time>
      </trkpt>
      <trkpt lat="47.51755" lon="6.73689">
        <ele>449.5</ele>
        <time>2017-12-17T09:04:26.999Z</time>
      </trkpt>
      <trkpt lat="47.51754" lon="6.73691">
        <ele>449.5</ele>
        <time>2017-12-17T09:04:27.999Z</time>
      </trkpt>
      <trkpt lat="47.51753" lon="6.73694">
        <ele>449.6</ele>
        <time>2017-12-17T09:04:28.999Z</time>
      </trkpt>
      <trkpt lat="47.51752" lon="6.73699">
        <ele>449.6</ele>
        <time>2017-12-17T09:04:29.999Z</time>
      </trkpt>
      <trkpt lat="47.51751" lon="6.73705">
        <ele>449.6</ele>
        <time>2017-12-17T09:04:30.999Z</time>
      </trkpt>
      <trkpt lat="47.51749" lon="6.73709">
        <ele>449.7</ele>
        <time>2017-12-17T09:04:31.999Z</time>
      </trkpt>
      <trkpt lat="47.51749" lon="6.73711">
        <ele>449.6</ele>
        <time>2017-12-17T09:04:32.999Z</time>
      </trkpt>
      <trkpt lat="47.51747" lon="6.73716">
        <ele>449.7</ele>
        <time>2017-12-17T09:04:33.999Z</time>
      </trkpt>
      <trkpt lat="47.51746" lon="6.73721">
        <ele>449.5</ele>
        <time>2017-12-17T09:04:35.999Z</time>
      </trkpt>
      <trkpt lat="47.51746" lon="6.73724">
        <ele>449.5</ele>
        <time>2017-12-17T09:04:36.999Z</time>
      </trkpt>
      <trkpt lat="47.51745" lon="6.73728">
        <ele>449.6</ele>
        <time>2017-12-17T09:04:37.999Z</time>
      </trkpt>
      <trkpt lat="47.51745" lon="6.73733">
        <ele>449.5</ele>
        <time>2017-12-17T09:04:38.999Z</time>
      </trkpt>
      <trkpt lat="47.51744" lon="6.73737">
        <ele>449.5</ele>
        <time>2017-12-17T09:04:39.999Z</time>
      </trkpt>
      <trkpt lat="47.51744" lon="6.73742">
        <ele>449.5</ele>
        <time>2017-12-17T09:04:40.999Z</time>
      </trkpt>
      <trkpt lat="47.51745" lon="6.73746">
        <ele>449.5</ele>
        <time>2017-12-17T09:04:41.999Z</time>
      </trkpt>
      <trkpt lat="47.51747" lon="6.73752">
        <ele>449.5</ele>
        <time>2017-12-17T09:04:42.999Z</time>
      </trkpt>
      <trkpt lat="47.51748" lon="6.73756">
        <ele>449.6</ele>
        <time>2017-12-17T09:04:43.999Z</time>
      </trkpt>
      <trkpt lat="47.51749" lon="6.73761">
        <ele>449.6</ele>
        <time>2017-12-17T09:04:44.999Z</time>
      </trkpt>
      <trkpt lat="47.5175" lon="6.73767">
        <ele>449.6</ele>
        <time>2017-12-17T09:04:45.999Z</time>
      </trkpt>
      <trkpt lat="47.51751" lon="6.73773">
        <ele>449.7</ele>
        <time>2017-12-17T09:04:46.999Z</time>
      </trkpt>
      <trkpt lat="47.51752" lon="6.73777">
        <ele>449.8</ele>
        <time>2017-12-17T09:04:47.999Z</time>
      </trkpt>
      <trkpt lat="47.51753" lon="6.73782">
        <ele>449.8</ele>
        <time>2017-12-17T09:04:48.999Z</time>
      </trkpt>
      <trkpt lat="47.51754" lon="6.73788">
        <ele>449.9</ele>
        <time>2017-12-17T09:04:49.999Z</time>
      </trkpt>
      <trkpt lat="47.51756" lon="6.73794">
        <ele>449.9</ele>
        <time>2017-12-17T09:04:50.999Z</time>
      </trkpt>
      <trkpt lat="47.51757" lon="6.73799">
        <ele>449.9</ele>
        <time>2017-12-17T09:04:51.999Z</time>
      </trkpt>
      <trkpt lat="47.51757" lon="6.73806">
        <ele>449.8</ele>
        <time>2017-12-17T09:04:52.999Z</time>
      </trkpt>
      <trkpt lat="47.51757" lon="6.7381">
        <ele>449.3</ele>
        <time>2017-12-17T09:04:53.999Z</time>
      </trkpt>
      <trkpt lat="47.51757" lon="6.73816">
        <ele>448.5</ele>
        <time>2017-12-17T09:04:54.999Z</time>
      </trkpt>
      <trkpt lat="47.51757" lon="6.73823">
        <ele>447.9</ele>
        <time>2017-12-17T09:04:55.999Z</time>
      </trkpt>
      <trkpt lat="47.51757" lon="6.73832">
        <ele>447</ele>
        <time>2017-12-17T09:04:56.999Z</time>
      </trkpt>
      <trkpt lat="47.51757" lon="6.73841">
        <ele>446.7</ele>
        <time>2017-12-17T09:04:57.999Z</time>
      </trkpt>
      <trkpt lat="47.51756" lon="6.73847">
        <ele>446.4</ele>
        <time>2017-12-17T09:04:58.999Z</time>
      </trkpt>
      <trkpt lat="47.51755" lon="6.73853">
        <ele>445.9</ele>
        <time>2017-12-17T09:04:59.999Z</time>
      </trkpt>
      <trkpt lat="47.51753" lon="6.73859">
        <ele>446</ele>
        <time>2017-12-17T09:05:00.999Z</time>
      </trkpt>
      <trkpt lat="47.51752" lon="6.73865">
        <ele>446</ele>
        <time>2017-12-17T09:05:01.999Z</time>
      </trkpt>
      <trkpt lat="47.51751" lon="6.7387">
        <ele>446</ele>
        <time>2017-12-17T09:05:02.999Z</time>
      </trkpt>
      <trkpt lat="47.51749" lon="6.73873">
        <ele>446</ele>
        <time>2017-12-17T09:05:03.999Z</time>
      </trkpt>
      <trkpt lat="47.51748" lon="6.73877">
        <ele>445.9</ele>
        <time>2017-12-17T09:05:04.999Z</time>
      </trkpt>
      <trkpt lat="47.51746" lon="6.73884">
        <ele>445.8</ele>
        <time>2017-12-17T09:05:05.999Z</time>
      </trkpt>
      <trkpt lat="47.51744" lon="6.73891">
        <ele>445.6</ele>
        <time>2017-12-17T09:05:06.999Z</time>
      </trkpt>
      <trkpt lat="47.51742" lon="6.73898">
        <ele>445</ele>
        <time>2017-12-17T09:05:07.999Z</time>
      </trkpt>
      <trkpt lat="47.5174" lon="6.73904">
        <ele>444.3</ele>
        <time>2017-12-17T09:05:08.999Z</time>
      </trkpt>
      <trkpt lat="47.51737" lon="6.73913">
        <ele>442.8</ele>
        <time>2017-12-17T09:05:09.999Z</time>
      </trkpt>
      <trkpt lat="47.51734" lon="6.73924">
        <ele>441.7</ele>
        <time>2017-12-17T09:05:10.999Z</time>
      </trkpt>
      <trkpt lat="47.5173" lon="6.73936">
        <ele>440.3</ele>
        <time>2017-12-17T09:05:11.999Z</time>
      </trkpt>
      <trkpt lat="47.51728" lon="6.73945">
        <ele>439.2</ele>
        <time>2017-12-17T09:05:12.999Z</time>
      </trkpt>
      <trkpt lat="47.51726" lon="6.73954">
        <ele>438.3</ele>
        <time>2017-12-17T09:05:13.999Z</time>
      </trkpt>
      <trkpt lat="47.51722" lon="6.73964">
        <ele>437.4</ele>
        <time>2017-12-17T09:05:14.999Z</time>
      </trkpt>
      <trkpt lat="47.51718" lon="6.73975">
        <ele>435.8</ele>
        <time>2017-12-17T09:05:15.999Z</time>
      </trkpt>
      <trkpt lat="47.51712" lon="6.73986">
        <ele>434.4</ele>
        <time>2017-12-17T09:05:16.999Z</time>
      </trkpt>
      <trkpt lat="47.51707" lon="6.73996">
        <ele>433.1</ele>
        <time>2017-12-17T09:05:17.999Z</time>
      </trkpt>
      <trkpt lat="47.51702" lon="6.74007">
        <ele>431.1</ele>
        <time>2017-12-17T09:05:18.999Z</time>
      </trkpt>
      <trkpt lat="47.51696" lon="6.74017">
        <ele>429.5</ele>
        <time>2017-12-17T09:05:19.999Z</time>
      </trkpt>
      <trkpt lat="47.51692" lon="6.74026">
        <ele>428.2</ele>
        <time>2017-12-17T09:05:20.999Z</time>
      </trkpt>
      <trkpt lat="47.51688" lon="6.74035">
        <ele>427.3</ele>
        <time>2017-12-17T09:05:21.999Z</time>
      </trkpt>
      <trkpt lat="47.51682" lon="6.74045">
        <ele>426.8</ele>
        <time>2017-12-17T09:05:22.999Z</time>
      </trkpt>
      <trkpt lat="47.5168" lon="6.74051">
        <ele>425.7</ele>
        <time>2017-12-17T09:05:23.999Z</time>
      </trkpt>
      <trkpt lat="47.51677" lon="6.74055">
        <ele>425.6</ele>
        <time>2017-12-17T09:05:24.999Z</time>
      </trkpt>
      <trkpt lat="47.51675" lon="6.74059">
        <ele>424.5</ele>
        <time>2017-12-17T09:05:25.999Z</time>
      </trkpt>
      <trkpt lat="47.51673" lon="6.74064">
        <ele>423.5</ele>
        <time>2017-12-17T09:05:26.999Z</time>
      </trkpt>
      <trkpt lat="47.51672" lon="6.74068">
        <ele>423.4</ele>
        <time>2017-12-17T09:05:27.999Z</time>
      </trkpt>
      <trkpt lat="47.5167" lon="6.74072">
        <ele>423.3</ele>
        <time>2017-12-17T09:05:28.999Z</time>
      </trkpt>
      <trkpt lat="47.51668" lon="6.74077">
        <ele>423.3</ele>
        <time>2017-12-17T09:05:29.999Z</time>
      </trkpt>
      <trkpt lat="47.51665" lon="6.74082">
        <ele>422.6</ele>
        <time>2017-12-17T09:05:30.999Z</time>
      </trkpt>
      <trkpt lat="47.51663" lon="6.74088">
        <ele>422.6</ele>
        <time>2017-12-17T09:05:31.999Z</time>
      </trkpt>
      <trkpt lat="47.51661" lon="6.74091">
        <ele>422.4</ele>
        <time>2017-12-17T09:05:32.999Z</time>
      </trkpt>
      <trkpt lat="47.51659" lon="6.74095">
        <ele>422.4</ele>
        <time>2017-12-17T09:05:33.999Z</time>
      </trkpt>
      <trkpt lat="47.51657" lon="6.741">
        <ele>422.3</ele>
        <time>2017-12-17T09:05:34.999Z</time>
      </trkpt>
      <trkpt lat="47.51655" lon="6.74103">
        <ele>422.2</ele>
        <time>2017-12-17T09:05:35.999Z</time>
      </trkpt>
      <trkpt lat="47.51654" lon="6.74108">
        <ele>422.1</ele>
        <time>2017-12-17T09:05:36.999Z</time>
      </trkpt>
      <trkpt lat="47.51653" lon="6.7411">
        <ele>422.1</ele>
        <time>2017-12-17T09:05:37.999Z</time>
      </trkpt>
      <trkpt lat="47.51651" lon="6.74115">
        <ele>421.8</ele>
        <time>2017-12-17T09:05:39.999Z</time>
      </trkpt>
      <trkpt lat="47.5165" lon="6.74117">
        <ele>421.6</ele>
        <time>2017-12-17T09:05:40.999Z</time>
      </trkpt>
      <trkpt lat="47.51647" lon="6.74121">
        <ele>421.3</ele>
        <time>2017-12-17T09:05:42.999Z</time>
      </trkpt>
      <trkpt lat="47.51645" lon="6.74125">
        <ele>421.2</ele>
        <time>2017-12-17T09:05:43.999Z</time>
      </trkpt>
      <trkpt lat="47.51643" lon="6.7413">
        <ele>420</ele>
        <time>2017-12-17T09:05:44.999Z</time>
      </trkpt>
      <trkpt lat="47.51642" lon="6.74138">
        <ele>418.2</ele>
        <time>2017-12-17T09:05:45.999Z</time>
      </trkpt>
      <trkpt lat="47.51641" lon="6.74145">
        <ele>416.2</ele>
        <time>2017-12-17T09:05:46.999Z</time>
      </trkpt>
      <trkpt lat="47.51642" lon="6.74149">
        <ele>416.1</ele>
        <time>2017-12-17T09:05:47.999Z</time>
      </trkpt>
      <trkpt lat="47.51643" lon="6.74154">
        <ele>415.9</ele>
        <time>2017-12-17T09:05:48.999Z</time>
      </trkpt>
      <trkpt lat="47.51643" lon="6.74161">
        <ele>415.7</ele>
        <time>2017-12-17T09:05:49.999Z</time>
      </trkpt>
      <trkpt lat="47.51642" lon="6.74168">
        <ele>415.5</ele>
        <time>2017-12-17T09:05:50.999Z</time>
      </trkpt>
      <trkpt lat="47.51642" lon="6.74174">
        <ele>415.4</ele>
        <time>2017-12-17T09:05:51.999Z</time>
      </trkpt>
      <trkpt lat="47.51642" lon="6.7418">
        <ele>415.2</ele>
        <time>2017-12-17T09:05:52.999Z</time>
      </trkpt>
      <trkpt lat="47.51641" lon="6.74186">
        <ele>414.9</ele>
        <time>2017-12-17T09:05:53.999Z</time>
      </trkpt>
      <trkpt lat="47.51641" lon="6.74193">
        <ele>414.7</ele>
        <time>2017-12-17T09:05:54.999Z</time>
      </trkpt>
      <trkpt lat="47.51639" lon="6.74201">
        <ele>414.5</ele>
        <time>2017-12-17T09:05:55.999Z</time>
      </trkpt>
      <trkpt lat="47.51639" lon="6.74208">
        <ele>414.4</ele>
        <time>2017-12-17T09:05:56.999Z</time>
      </trkpt>
      <trkpt lat="47.51639" lon="6.74214">
        <ele>414.2</ele>
        <time>2017-12-17T09:05:57.999Z</time>
      </trkpt>
      <trkpt lat="47.51639" lon="6.7422">
        <ele>414.1</ele>
        <time>2017-12-17T09:05:58.999Z</time>
      </trkpt>
      <trkpt lat="47.51638" lon="6.74228">
        <ele>414</ele>
        <time>2017-12-17T09:05:59.999Z</time>
      </trkpt>
      <trkpt lat="47.51638" lon="6.74237">
        <ele>414</ele>
        <time>2017-12-17T09:06:00.999Z</time>
      </trkpt>
      <trkpt lat="47.51637" lon="6.74249">
        <ele>413.9</ele>
        <time>2017-12-17T09:06:02.999Z</time>
      </trkpt>
      <trkpt lat="47.51638" lon="6.74253">
        <ele>413.8</ele>
        <time>2017-12-17T09:06:03.999Z</time>
      </trkpt>
      <trkpt lat="47.51637" lon="6.74259">
        <ele>413.8</ele>
        <time>2017-12-17T09:06:04.999Z</time>
      </trkpt>
      <trkpt lat="47.51636" lon="6.74264">
        <ele>413.7</ele>
        <time>2017-12-17T09:06:05.999Z</time>
      </trkpt>
      <trkpt lat="47.51635" lon="6.74267">
        <ele>413.6</ele>
        <time>2017-12-17T09:06:06.999Z</time>
      </trkpt>
      <trkpt lat="47.51636" lon="6.74271">
        <ele>413.6</ele>
        <time>2017-12-17T09:06:07.999Z</time>
      </trkpt>
      <trkpt lat="47.51635" lon="6.74274">
        <ele>413.5</ele>
        <time>2017-12-17T09:06:08.999Z</time>
      </trkpt>
      <trkpt lat="47.51635" lon="6.7428">
        <ele>413.4</ele>
        <time>2017-12-17T09:06:09.999Z</time>
      </trkpt>
      <trkpt lat="47.51634" lon="6.74284">
        <ele>413.3</ele>
        <time>2017-12-17T09:06:10.999Z</time>
      </trkpt>
      <trkpt lat="47.51633" lon="6.74287">
        <ele>413.3</ele>
        <time>2017-12-17T09:06:11.999Z</time>
      </trkpt>
      <trkpt lat="47.51632" lon="6.74291">
        <ele>413.2</ele>
        <time>2017-12-17T09:06:12.999Z</time>
      </trkpt>
      <trkpt lat="47.51632" lon="6.74297">
        <ele>413.1</ele>
        <time>2017-12-17T09:06:13.999Z</time>
      </trkpt>
      <trkpt lat="47.51633" lon="6.74301">
        <ele>412.9</ele>
        <time>2017-12-17T09:06:14.999Z</time>
      </trkpt>
      <trkpt lat="47.51633" lon="6.74304">
        <ele>412.7</ele>
        <time>2017-12-17T09:06:15.999Z</time>
      </trkpt>
      <trkpt lat="47.51633" lon="6.74308">
        <ele>412.4</ele>
        <time>2017-12-17T09:06:16.999Z</time>
      </trkpt>
      <trkpt lat="47.51633" lon="6.74313">
        <ele>412.1</ele>
        <time>2017-12-17T09:06:17.999Z</time>
      </trkpt>
      <trkpt lat="47.51633" lon="6.74317">
        <ele>411.8</ele>
        <time>2017-12-17T09:06:18.999Z</time>
      </trkpt>
      <trkpt lat="47.51632" lon="6.74321">
        <ele>411.5</ele>
        <time>2017-12-17T09:06:19.999Z</time>
      </trkpt>
      <trkpt lat="47.51631" lon="6.74325">
        <ele>411.3</ele>
        <time>2017-12-17T09:06:20.999Z</time>
      </trkpt>
      <trkpt lat="47.51631" lon="6.74329">
        <ele>411</ele>
        <time>2017-12-17T09:06:21.999Z</time>
      </trkpt>
      <trkpt lat="47.51631" lon="6.74333">
        <ele>410.7</ele>
        <time>2017-12-17T09:06:22.999Z</time>
      </trkpt>
      <trkpt lat="47.51631" lon="6.74337">
        <ele>410.4</ele>
        <time>2017-12-17T09:06:23.999Z</time>
      </trkpt>
      <trkpt lat="47.51631" lon="6.74339">
        <ele>410.1</ele>
        <time>2017-12-17T09:06:24.999Z</time>
      </trkpt>
      <trkpt lat="47.51632" lon="6.74343">
        <ele>408.8</ele>
        <time>2017-12-17T09:06:28.999Z</time>
      </trkpt>
      <trkpt lat="47.51633" lon="6.74357">
        <ele>408.4</ele>
        <time>2017-12-17T09:06:29.999Z</time>
      </trkpt>
      <trkpt lat="47.51633" lon="6.74357">
        <ele>406.7</ele>
        <time>2017-12-17T09:06:39.999Z</time>
      </trkpt>
      <trkpt lat="47.51631" lon="6.74383">
        <ele>406.4</ele>
        <time>2017-12-17T09:06:40.999Z</time>
      </trkpt>
      <trkpt lat="47.51631" lon="6.74383">
        <ele>405.9</ele>
        <time>2017-12-17T09:06:44.999Z</time>
      </trkpt>
      <trkpt lat="47.51634" lon="6.74395">
        <ele>405.8</ele>
        <time>2017-12-17T09:06:45.999Z</time>
      </trkpt>
      <trkpt lat="47.51634" lon="6.74395">
        <ele>405.1</ele>
        <time>2017-12-17T09:06:50.999Z</time>
      </trkpt>
      <trkpt lat="47.51633" lon="6.74411">
        <ele>404.9</ele>
        <time>2017-12-17T09:06:51.999Z</time>
      </trkpt>
      <trkpt lat="47.51633" lon="6.74411">
        <ele>404.6</ele>
        <time>2017-12-17T09:06:54.999Z</time>
      </trkpt>
      <trkpt lat="47.51628" lon="6.7443">
        <ele>404.5</ele>
        <time>2017-12-17T09:06:55.999Z</time>
      </trkpt>
      <trkpt lat="47.51628" lon="6.7443">
        <ele>404.4</ele>
        <time>2017-12-17T09:06:56.999Z</time>
      </trkpt>
      <trkpt lat="47.51622" lon="6.74438">
        <ele>404.3</ele>
        <time>2017-12-17T09:06:57.999Z</time>
      </trkpt>
      <trkpt lat="47.51622" lon="6.74443">
        <ele>404.2</ele>
        <time>2017-12-17T09:06:58.999Z</time>
      </trkpt>
      <trkpt lat="47.5162" lon="6.7445">
        <ele>404</ele>
        <time>2017-12-17T09:06:59.999Z</time>
      </trkpt>
      <trkpt lat="47.51619" lon="6.74456">
        <ele>403.8</ele>
        <time>2017-12-17T09:07:00.999Z</time>
      </trkpt>
      <trkpt lat="47.51616" lon="6.74467">
        <ele>403.5</ele>
        <time>2017-12-17T09:07:02.999Z</time>
      </trkpt>
      <trkpt lat="47.51614" lon="6.74472">
        <ele>403.3</ele>
        <time>2017-12-17T09:07:03.999Z</time>
      </trkpt>
      <trkpt lat="47.51614" lon="6.74478">
        <ele>403.1</ele>
        <time>2017-12-17T09:07:04.999Z</time>
      </trkpt>
      <trkpt lat="47.51614" lon="6.74487">
        <ele>402.8</ele>
        <time>2017-12-17T09:07:05.999Z</time>
      </trkpt>
      <trkpt lat="47.51615" lon="6.74496">
        <ele>400.8</ele>
        <time>2017-12-17T09:07:06.999Z</time>
      </trkpt>
      <trkpt lat="47.51616" lon="6.74504">
        <ele>400.7</ele>
        <time>2017-12-17T09:07:07.999Z</time>
      </trkpt>
      <trkpt lat="47.51618" lon="6.74515">
        <ele>399.5</ele>
        <time>2017-12-17T09:07:08.999Z</time>
      </trkpt>
      <trkpt lat="47.51619" lon="6.74524">
        <ele>398.1</ele>
        <time>2017-12-17T09:07:09.999Z</time>
      </trkpt>
      <trkpt lat="47.51618" lon="6.74533">
        <ele>397.5</ele>
        <time>2017-12-17T09:07:10.999Z</time>
      </trkpt>
      <trkpt lat="47.51618" lon="6.7454">
        <ele>396.8</ele>
        <time>2017-12-17T09:07:11.999Z</time>
      </trkpt>
      <trkpt lat="47.51618" lon="6.74544">
        <ele>395.6</ele>
        <time>2017-12-17T09:07:12.999Z</time>
      </trkpt>
      <trkpt lat="47.51618" lon="6.74549">
        <ele>395.6</ele>
        <time>2017-12-17T09:07:13.999Z</time>
      </trkpt>
      <trkpt lat="47.51621" lon="6.74557">
        <ele>394.9</ele>
        <time>2017-12-17T09:07:14.999Z</time>
      </trkpt>
      <trkpt lat="47.51624" lon="6.74565">
        <ele>393.4</ele>
        <time>2017-12-17T09:07:15.999Z</time>
      </trkpt>
      <trkpt lat="47.51628" lon="6.74578">
        <ele>391.8</ele>
        <time>2017-12-17T09:07:16.999Z</time>
      </trkpt>
      <trkpt lat="47.51631" lon="6.74588">
        <ele>390.5</ele>
        <time>2017-12-17T09:07:17.999Z</time>
      </trkpt>
      <trkpt lat="47.51633" lon="6.74597">
        <ele>388.3</ele>
        <time>2017-12-17T09:07:18.999Z</time>
      </trkpt>
      <trkpt lat="47.51636" lon="6.74603">
        <ele>386.9</ele>
        <time>2017-12-17T09:07:19.999Z</time>
      </trkpt>
      <trkpt lat="47.5164" lon="6.74607">
        <ele>386.2</ele>
        <time>2017-12-17T09:07:20.999Z</time>
      </trkpt>
      <trkpt lat="47.51642" lon="6.74611">
        <ele>386.1</ele>
        <time>2017-12-17T09:07:21.999Z</time>
      </trkpt>
      <trkpt lat="47.51644" lon="6.74615">
        <ele>386</ele>
        <time>2017-12-17T09:07:22.999Z</time>
      </trkpt>
      <trkpt lat="47.51647" lon="6.74621">
        <ele>385.9</ele>
        <time>2017-12-17T09:07:23.999Z</time>
      </trkpt>
      <trkpt lat="47.5165" lon="6.74628">
        <ele>385.9</ele>
        <time>2017-12-17T09:07:24.999Z</time>
      </trkpt>
      <trkpt lat="47.51654" lon="6.74634">
        <ele>385.8</ele>
        <time>2017-12-17T09:07:25.999Z</time>
      </trkpt>
      <trkpt lat="47.51655" lon="6.74641">
        <ele>385.8</ele>
        <time>2017-12-17T09:07:26.999Z</time>
      </trkpt>
      <trkpt lat="47.51657" lon="6.74648">
        <ele>385.7</ele>
        <time>2017-12-17T09:07:27.999Z</time>
      </trkpt>
      <trkpt lat="47.5166" lon="6.74653">
        <ele>385.8</ele>
        <time>2017-12-17T09:07:28.999Z</time>
      </trkpt>
      <trkpt lat="47.51662" lon="6.74657">
        <ele>385.8</ele>
        <time>2017-12-17T09:07:29.999Z</time>
      </trkpt>
      <trkpt lat="47.51664" lon="6.74659">
        <ele>385.7</ele>
        <time>2017-12-17T09:07:30.999Z</time>
      </trkpt>
      <trkpt lat="47.51667" lon="6.74659">
        <ele>385.7</ele>
        <time>2017-12-17T09:07:31.999Z</time>
      </trkpt>
      <trkpt lat="47.51669" lon="6.7466">
        <ele>385.7</ele>
        <time>2017-12-17T09:07:32.999Z</time>
      </trkpt>
      <trkpt lat="47.51672" lon="6.74662">
        <ele>385.7</ele>
        <time>2017-12-17T09:07:33.999Z</time>
      </trkpt>
      <trkpt lat="47.51674" lon="6.74663">
        <ele>385.8</ele>
        <time>2017-12-17T09:07:34.999Z</time>
      </trkpt>
      <trkpt lat="47.51677" lon="6.74665">
        <ele>385.8</ele>
        <time>2017-12-17T09:07:35.999Z</time>
      </trkpt>
      <trkpt lat="47.5168" lon="6.74667">
        <ele>385.8</ele>
        <time>2017-12-17T09:07:36.999Z</time>
      </trkpt>
      <trkpt lat="47.51683" lon="6.74667">
        <ele>385.9</ele>
        <time>2017-12-17T09:07:37.999Z</time>
      </trkpt>
      <trkpt lat="47.51686" lon="6.74668">
        <ele>386</ele>
        <time>2017-12-17T09:07:38.999Z</time>
      </trkpt>
      <trkpt lat="47.5169" lon="6.7467">
        <ele>386.1</ele>
        <time>2017-12-17T09:07:39.999Z</time>
      </trkpt>
      <trkpt lat="47.51693" lon="6.74671">
        <ele>386.2</ele>
        <time>2017-12-17T09:07:40.999Z</time>
      </trkpt>
      <trkpt lat="47.51695" lon="6.74673">
        <ele>386.2</ele>
        <time>2017-12-17T09:07:41.999Z</time>
      </trkpt>
      <trkpt lat="47.51698" lon="6.74674">
        <ele>386.3</ele>
        <time>2017-12-17T09:07:42.999Z</time>
      </trkpt>
      <trkpt lat="47.517" lon="6.74674">
        <ele>386.4</ele>
        <time>2017-12-17T09:07:43.999Z</time>
      </trkpt>
      <trkpt lat="47.51704" lon="6.74674">
        <ele>386.5</ele>
        <time>2017-12-17T09:07:45.999Z</time>
      </trkpt>
      <trkpt lat="47.51707" lon="6.74676">
        <ele>386.7</ele>
        <time>2017-12-17T09:07:46.999Z</time>
      </trkpt>
      <trkpt lat="47.5171" lon="6.74677">
        <ele>386.9</ele>
        <time>2017-12-17T09:07:47.999Z</time>
      </trkpt>
      <trkpt lat="47.51713" lon="6.74678">
        <ele>387</ele>
        <time>2017-12-17T09:07:48.999Z</time>
      </trkpt>
      <trkpt lat="47.51715" lon="6.74679">
        <ele>387.2</ele>
        <time>2017-12-17T09:07:49.999Z</time>
      </trkpt>
      <trkpt lat="47.51717" lon="6.7468">
        <ele>387.3</ele>
        <time>2017-12-17T09:07:50.999Z</time>
      </trkpt>
      <trkpt lat="47.51721" lon="6.7468">
        <ele>387.5</ele>
        <time>2017-12-17T09:07:52.999Z</time>
      </trkpt>
      <trkpt lat="47.51723" lon="6.7468">
        <ele>387.7</ele>
        <time>2017-12-17T09:07:53.999Z</time>
      </trkpt>
      <trkpt lat="47.51724" lon="6.74681">
        <ele>388.7</ele>
        <time>2017-12-17T09:07:59.999Z</time>
      </trkpt>
      <trkpt lat="47.51731" lon="6.74683">
        <ele>388.8</ele>
        <time>2017-12-17T09:08:00.999Z</time>
      </trkpt>
      <trkpt lat="47.51735" lon="6.74682">
        <ele>389.2</ele>
        <time>2017-12-17T09:08:04.999Z</time>
      </trkpt>
      <trkpt lat="47.51736" lon="6.74681">
        <ele>389.3</ele>
        <time>2017-12-17T09:08:05.999Z</time>
      </trkpt>
      <trkpt lat="47.5174" lon="6.74681">
        <ele>389.4</ele>
        <time>2017-12-17T09:08:07.999Z</time>
      </trkpt>
      <trkpt lat="47.51742" lon="6.7468">
        <ele>389.4</ele>
        <time>2017-12-17T09:08:08.999Z</time>
      </trkpt>
      <trkpt lat="47.51745" lon="6.74682">
        <ele>389.9</ele>
        <time>2017-12-17T09:08:15.999Z</time>
      </trkpt>
      <trkpt lat="47.5175" lon="6.74684">
        <ele>389.9</ele>
        <time>2017-12-17T09:08:16.999Z</time>
      </trkpt>
      <trkpt lat="47.5175" lon="6.74684">
        <ele>390.2</ele>
        <time>2017-12-17T09:08:18.999Z</time>
      </trkpt>
      <trkpt lat="47.51755" lon="6.74686">
        <ele>390.3</ele>
        <time>2017-12-17T09:08:19.999Z</time>
      </trkpt>
      <trkpt lat="47.51758" lon="6.74686">
        <ele>390.5</ele>
        <time>2017-12-17T09:08:20.999Z</time>
      </trkpt>
      <trkpt lat="47.51762" lon="6.74688">
        <ele>391.2</ele>
        <time>2017-12-17T09:08:21.999Z</time>
      </trkpt>
      <trkpt lat="47.51765" lon="6.74688">
        <ele>391.2</ele>
        <time>2017-12-17T09:08:22.999Z</time>
      </trkpt>
      <trkpt lat="47.51768" lon="6.74688">
        <ele>391.3</ele>
        <time>2017-12-17T09:08:23.999Z</time>
      </trkpt>
      <trkpt lat="47.51771" lon="6.74687">
        <ele>391.2</ele>
        <time>2017-12-17T09:08:24.999Z</time>
      </trkpt>
      <trkpt lat="47.51773" lon="6.74687">
        <ele>391.2</ele>
        <time>2017-12-17T09:08:25.999Z</time>
      </trkpt>
      <trkpt lat="47.51776" lon="6.74687">
        <ele>391.2</ele>
        <time>2017-12-17T09:08:26.999Z</time>
      </trkpt>
      <trkpt lat="47.51779" lon="6.74686">
        <ele>391.1</ele>
        <time>2017-12-17T09:08:27.999Z</time>
      </trkpt>
      <trkpt lat="47.51782" lon="6.74685">
        <ele>391.1</ele>
        <time>2017-12-17T09:08:29.999Z</time>
      </trkpt>
      <trkpt lat="47.51784" lon="6.74685">
        <ele>391.2</ele>
        <time>2017-12-17T09:08:30.999Z</time>
      </trkpt>
      <trkpt lat="47.51788" lon="6.74685">
        <ele>391.3</ele>
        <time>2017-12-17T09:08:33.999Z</time>
      </trkpt>
      <trkpt lat="47.51789" lon="6.74685">
        <ele>391.4</ele>
        <time>2017-12-17T09:08:34.999Z</time>
      </trkpt>
      <trkpt lat="47.51793" lon="6.74686">
        <ele>391.5</ele>
        <time>2017-12-17T09:08:37.999Z</time>
      </trkpt>
      <trkpt lat="47.51794" lon="6.74687">
        <ele>391.5</ele>
        <time>2017-12-17T09:08:38.999Z</time>
      </trkpt>
      <trkpt lat="47.51798" lon="6.74687">
        <ele>391.6</ele>
        <time>2017-12-17T09:08:41.999Z</time>
      </trkpt>
      <trkpt lat="47.518" lon="6.74687">
        <ele>391.6</ele>
        <time>2017-12-17T09:08:42.999Z</time>
      </trkpt>
      <trkpt lat="47.51802" lon="6.74688">
        <ele>391.6</ele>
        <time>2017-12-17T09:08:43.999Z</time>
      </trkpt>
      <trkpt lat="47.51805" lon="6.74689">
        <ele>391.7</ele>
        <time>2017-12-17T09:08:44.999Z</time>
      </trkpt>
      <trkpt lat="47.51808" lon="6.7469">
        <ele>391.8</ele>
        <time>2017-12-17T09:08:45.999Z</time>
      </trkpt>
      <trkpt lat="47.51811" lon="6.74693">
        <ele>391.8</ele>
        <time>2017-12-17T09:08:46.999Z</time>
      </trkpt>
      <trkpt lat="47.51813" lon="6.74699">
        <ele>391.9</ele>
        <time>2017-12-17T09:08:48.999Z</time>
      </trkpt>
      <trkpt lat="47.51813" lon="6.74701">
        <ele>392</ele>
        <time>2017-12-17T09:08:49.999Z</time>
      </trkpt>
      <trkpt lat="47.51813" lon="6.74706">
        <ele>392.1</ele>
        <time>2017-12-17T09:08:51.999Z</time>
      </trkpt>
      <trkpt lat="47.51814" lon="6.74709">
        <ele>392.2</ele>
        <time>2017-12-17T09:08:52.999Z</time>
      </trkpt>
      <trkpt lat="47.51812" lon="6.74715">
        <ele>392.2</ele>
        <time>2017-12-17T09:08:55.999Z</time>
      </trkpt>
      <trkpt lat="47.51811" lon="6.74717">
        <ele>392.3</ele>
        <time>2017-12-17T09:08:56.999Z</time>
      </trkpt>
      <trkpt lat="47.5181" lon="6.74722">
        <ele>392.5</ele>
        <time>2017-12-17T09:08:58.999Z</time>
      </trkpt>
      <trkpt lat="47.51809" lon="6.74725">
        <ele>392.6</ele>
        <time>2017-12-17T09:08:59.999Z</time>
      </trkpt>
      <trkpt lat="47.51809" lon="6.74729">
        <ele>392.7</ele>
        <time>2017-12-17T09:09:00.999Z</time>
      </trkpt>
      <trkpt lat="47.51809" lon="6.74734">
        <ele>392.9</ele>
        <time>2017-12-17T09:09:01.999Z</time>
      </trkpt>
      <trkpt lat="47.51809" lon="6.74737">
        <ele>393</ele>
        <time>2017-12-17T09:09:02.999Z</time>
      </trkpt>
      <trkpt lat="47.51809" lon="6.74741">
        <ele>393.1</ele>
        <time>2017-12-17T09:09:03.999Z</time>
      </trkpt>
      <trkpt lat="47.51809" lon="6.74744">
        <ele>393.2</ele>
        <time>2017-12-17T09:09:04.999Z</time>
      </trkpt>
      <trkpt lat="47.51809" lon="6.74748">
        <ele>393.3</ele>
        <time>2017-12-17T09:09:05.999Z</time>
      </trkpt>
      <trkpt lat="47.51809" lon="6.74754">
        <ele>393.4</ele>
        <time>2017-12-17T09:09:07.999Z</time>
      </trkpt>
      <trkpt lat="47.51808" lon="6.74756">
        <ele>393.5</ele>
        <time>2017-12-17T09:09:08.999Z</time>
      </trkpt>
      <trkpt lat="47.51807" lon="6.74762">
        <ele>393.7</ele>
        <time>2017-12-17T09:09:10.999Z</time>
      </trkpt>
      <trkpt lat="47.51807" lon="6.74766">
        <ele>393.7</ele>
        <time>2017-12-17T09:09:11.999Z</time>
      </trkpt>
      <trkpt lat="47.51806" lon="6.74771">
        <ele>393.8</ele>
        <time>2017-12-17T09:09:13.999Z</time>
      </trkpt>
      <trkpt lat="47.51805" lon="6.74776">
        <ele>393.8</ele>
        <time>2017-12-17T09:09:14.999Z</time>
      </trkpt>
      <trkpt lat="47.51804" lon="6.74782">
        <ele>393.6</ele>
        <time>2017-12-17T09:09:15.999Z</time>
      </trkpt>
      <trkpt lat="47.51802" lon="6.74787">
        <ele>393.5</ele>
        <time>2017-12-17T09:09:16.999Z</time>
      </trkpt>
      <trkpt lat="47.51801" lon="6.74791">
        <ele>393.1</ele>
        <time>2017-12-17T09:09:17.999Z</time>
      </trkpt>
      <trkpt lat="47.51799" lon="6.74796">
        <ele>392.5</ele>
        <time>2017-12-17T09:09:18.999Z</time>
      </trkpt>
      <trkpt lat="47.51796" lon="6.74801">
        <ele>392.4</ele>
        <time>2017-12-17T09:09:19.999Z</time>
      </trkpt>
      <trkpt lat="47.51794" lon="6.74804">
        <ele>392.2</ele>
        <time>2017-12-17T09:09:20.999Z</time>
      </trkpt>
      <trkpt lat="47.51794" lon="6.74808">
        <ele>392</ele>
        <time>2017-12-17T09:09:21.999Z</time>
      </trkpt>
      <trkpt lat="47.51793" lon="6.74815">
        <ele>389.5</ele>
        <time>2017-12-17T09:09:22.999Z</time>
      </trkpt>
      <trkpt lat="47.51794" lon="6.74821">
        <ele>387.6</ele>
        <time>2017-12-17T09:09:23.999Z</time>
      </trkpt>
      <trkpt lat="47.51795" lon="6.74826">
        <ele>387.5</ele>
        <time>2017-12-17T09:09:24.999Z</time>
      </trkpt>
      <trkpt lat="47.51799" lon="6.74833">
        <ele>386.3</ele>
        <time>2017-12-17T09:09:25.999Z</time>
      </trkpt>
      <trkpt lat="47.51802" lon="6.7484">
        <ele>386</ele>
        <time>2017-12-17T09:09:26.999Z</time>
      </trkpt>
      <trkpt lat="47.51806" lon="6.74848">
        <ele>385.5</ele>
        <time>2017-12-17T09:09:27.999Z</time>
      </trkpt>
      <trkpt lat="47.5181" lon="6.74854">
        <ele>384.9</ele>
        <time>2017-12-17T09:09:28.999Z</time>
      </trkpt>
      <trkpt lat="47.51814" lon="6.7486">
        <ele>384.1</ele>
        <time>2017-12-17T09:09:29.999Z</time>
      </trkpt>
      <trkpt lat="47.5182" lon="6.74866">
        <ele>383.8</ele>
        <time>2017-12-17T09:09:30.999Z</time>
      </trkpt>
      <trkpt lat="47.51826" lon="6.74871">
        <ele>383</ele>
        <time>2017-12-17T09:09:31.999Z</time>
      </trkpt>
      <trkpt lat="47.51833" lon="6.74878">
        <ele>381.3</ele>
        <time>2017-12-17T09:09:32.999Z</time>
      </trkpt>
      <trkpt lat="47.51839" lon="6.74885">
        <ele>380.6</ele>
        <time>2017-12-17T09:09:33.999Z</time>
      </trkpt>
      <trkpt lat="47.51845" lon="6.74891">
        <ele>379.8</ele>
        <time>2017-12-17T09:09:34.999Z</time>
      </trkpt>
      <trkpt lat="47.51851" lon="6.74896">
        <ele>379.4</ele>
        <time>2017-12-17T09:09:35.999Z</time>
      </trkpt>
      <trkpt lat="47.51857" lon="6.749">
        <ele>378.5</ele>
        <time>2017-12-17T09:09:36.999Z</time>
      </trkpt>
      <trkpt lat="47.51863" lon="6.74903">
        <ele>378</ele>
        <time>2017-12-17T09:09:37.999Z</time>
      </trkpt>
      <trkpt lat="47.51871" lon="6.74907">
        <ele>378.1</ele>
        <time>2017-12-17T09:09:38.999Z</time>
      </trkpt>
      <trkpt lat="47.51877" lon="6.7491">
        <ele>378.6</ele>
        <time>2017-12-17T09:09:39.999Z</time>
      </trkpt>
      <trkpt lat="47.51881" lon="6.74913">
        <ele>378.9</ele>
        <time>2017-12-17T09:09:40.999Z</time>
      </trkpt>
      <trkpt lat="47.51886" lon="6.74917">
        <ele>379.1</ele>
        <time>2017-12-17T09:09:41.999Z</time>
      </trkpt>
      <trkpt lat="47.5189" lon="6.74922">
        <ele>379.3</ele>
        <time>2017-12-17T09:09:42.999Z</time>
      </trkpt>
      <trkpt lat="47.51894" lon="6.74927">
        <ele>379</ele>
        <time>2017-12-17T09:09:43.999Z</time>
      </trkpt>
      <trkpt lat="47.51897" lon="6.74931">
        <ele>378.3</ele>
        <time>2017-12-17T09:09:44.999Z</time>
      </trkpt>
      <trkpt lat="47.51901" lon="6.74934">
        <ele>377.7</ele>
        <time>2017-12-17T09:09:45.999Z</time>
      </trkpt>
      <trkpt lat="47.51903" lon="6.74938">
        <ele>377.7</ele>
        <time>2017-12-17T09:09:46.999Z</time>
      </trkpt>
      <trkpt lat="47.51905" lon="6.7494">
        <ele>377.7</ele>
        <time>2017-12-17T09:09:47.999Z</time>
      </trkpt>
      <trkpt lat="47.51908" lon="6.74944">
        <ele>377.6</ele>
        <time>2017-12-17T09:09:48.999Z</time>
      </trkpt>
      <trkpt lat="47.5191" lon="6.74948">
        <ele>377.5</ele>
        <time>2017-12-17T09:09:49.999Z</time>
      </trkpt>
      <trkpt lat="47.51912" lon="6.74952">
        <ele>377.4</ele>
        <time>2017-12-17T09:09:50.999Z</time>
      </trkpt>
      <trkpt lat="47.51913" lon="6.74957">
        <ele>377.3</ele>
        <time>2017-12-17T09:09:51.999Z</time>
      </trkpt>
      <trkpt lat="47.51912" lon="6.74963">
        <ele>377.3</ele>
        <time>2017-12-17T09:09:55.999Z</time>
      </trkpt>
      <trkpt lat="47.51911" lon="6.74965">
        <ele>377.2</ele>
        <time>2017-12-17T09:09:56.999Z</time>
      </trkpt>
      <trkpt lat="47.5191" lon="6.7497">
        <ele>377.3</ele>
        <time>2017-12-17T09:09:58.999Z</time>
      </trkpt>
      <trkpt lat="47.51909" lon="6.74972">
        <ele>377.3</ele>
        <time>2017-12-17T09:09:59.999Z</time>
      </trkpt>
      <trkpt lat="47.51909" lon="6.74975">
        <ele>377.3</ele>
        <time>2017-12-17T09:10:00.999Z</time>
      </trkpt>
      <trkpt lat="47.51914" lon="6.74981">
        <ele>377.3</ele>
        <time>2017-12-17T09:10:02.999Z</time>
      </trkpt>
      <trkpt lat="47.51917" lon="6.74984">
        <ele>377.2</ele>
        <time>2017-12-17T09:10:03.999Z</time>
      </trkpt>
      <trkpt lat="47.51924" lon="6.74991">
        <ele>377</ele>
        <time>2017-12-17T09:10:06.999Z</time>
      </trkpt>
      <trkpt lat="47.51927" lon="6.74996">
        <ele>376.9</ele>
        <time>2017-12-17T09:10:07.999Z</time>
      </trkpt>
      <trkpt lat="47.51929" lon="6.75">
        <ele>376.8</ele>
        <time>2017-12-17T09:10:08.999Z</time>
      </trkpt>
      <trkpt lat="47.51931" lon="6.75003">
        <ele>376.7</ele>
        <time>2017-12-17T09:10:09.999Z</time>
      </trkpt>
      <trkpt lat="47.51934" lon="6.75007">
        <ele>376.6</ele>
        <time>2017-12-17T09:10:10.999Z</time>
      </trkpt>
      <trkpt lat="47.51935" lon="6.75011">
        <ele>376.5</ele>
        <time>2017-12-17T09:10:11.999Z</time>
      </trkpt>
      <trkpt lat="47.51937" lon="6.75013">
        <ele>376.4</ele>
        <time>2017-12-17T09:10:12.999Z</time>
      </trkpt>
      <trkpt lat="47.51938" lon="6.75015">
        <ele>376.2</ele>
        <time>2017-12-17T09:10:13.999Z</time>
      </trkpt>
      <trkpt lat="47.51941" lon="6.75019">
        <ele>376.2</ele>
        <time>2017-12-17T09:10:14.999Z</time>
      </trkpt>
      <trkpt lat="47.51944" lon="6.75022">
        <ele>376</ele>
        <time>2017-12-17T09:10:15.999Z</time>
      </trkpt>
      <trkpt lat="47.51947" lon="6.75024">
        <ele>375.9</ele>
        <time>2017-12-17T09:10:16.999Z</time>
      </trkpt>
      <trkpt lat="47.5195" lon="6.75026">
        <ele>375.8</ele>
        <time>2017-12-17T09:10:17.999Z</time>
      </trkpt>
      <trkpt lat="47.51953" lon="6.75026">
        <ele>375.8</ele>
        <time>2017-12-17T09:10:18.999Z</time>
      </trkpt>
      <trkpt lat="47.51956" lon="6.75028">
        <ele>375.7</ele>
        <time>2017-12-17T09:10:19.999Z</time>
      </trkpt>
      <trkpt lat="47.51958" lon="6.7503">
        <ele>375.7</ele>
        <time>2017-12-17T09:10:20.999Z</time>
      </trkpt>
      <trkpt lat="47.51961" lon="6.75031">
        <ele>375.8</ele>
        <time>2017-12-17T09:10:21.999Z</time>
      </trkpt>
      <trkpt lat="47.51964" lon="6.75032">
        <ele>375.8</ele>
        <time>2017-12-17T09:10:22.999Z</time>
      </trkpt>
      <trkpt lat="47.51967" lon="6.75033">
        <ele>375.9</ele>
        <time>2017-12-17T09:10:23.999Z</time>
      </trkpt>
      <trkpt lat="47.51969" lon="6.75034">
        <ele>375.9</ele>
        <time>2017-12-17T09:10:24.999Z</time>
      </trkpt>
      <trkpt lat="47.51973" lon="6.75036">
        <ele>376.1</ele>
        <time>2017-12-17T09:10:26.999Z</time>
      </trkpt>
      <trkpt lat="47.51975" lon="6.75037">
        <ele>376.2</ele>
        <time>2017-12-17T09:10:27.999Z</time>
      </trkpt>
      <trkpt lat="47.51977" lon="6.75037">
        <ele>376.3</ele>
        <time>2017-12-17T09:10:28.999Z</time>
      </trkpt>
      <trkpt lat="47.5198" lon="6.75038">
        <ele>376.4</ele>
        <time>2017-12-17T09:10:29.999Z</time>
      </trkpt>
      <trkpt lat="47.51984" lon="6.7504">
        <ele>376.6</ele>
        <time>2017-12-17T09:10:32.999Z</time>
      </trkpt>
      <trkpt lat="47.51986" lon="6.75041">
        <ele>376.6</ele>
        <time>2017-12-17T09:10:33.999Z</time>
      </trkpt>
      <trkpt lat="47.5199" lon="6.75043">
        <ele>376.9</ele>
        <time>2017-12-17T09:10:36.999Z</time>
      </trkpt>
      <trkpt lat="47.51991" lon="6.75044">
        <ele>377</ele>
        <time>2017-12-17T09:10:37.999Z</time>
      </trkpt>
      <trkpt lat="47.51995" lon="6.75046">
        <ele>377.2</ele>
        <time>2017-12-17T09:10:39.999Z</time>
      </trkpt>
      <trkpt lat="47.51997" lon="6.75047">
        <ele>377.4</ele>
        <time>2017-12-17T09:10:40.999Z</time>
      </trkpt>
      <trkpt lat="47.52001" lon="6.75048">
        <ele>377.8</ele>
        <time>2017-12-17T09:10:42.999Z</time>
      </trkpt>
      <trkpt lat="47.52003" lon="6.75048">
        <ele>377.9</ele>
        <time>2017-12-17T09:10:43.999Z</time>
      </trkpt>
      <trkpt lat="47.52006" lon="6.75051">
        <ele>378.3</ele>
        <time>2017-12-17T09:10:46.999Z</time>
      </trkpt>
      <trkpt lat="47.52007" lon="6.75053">
        <ele>378.5</ele>
        <time>2017-12-17T09:10:47.999Z</time>
      </trkpt>
      <trkpt lat="47.52011" lon="6.75056">
        <ele>378.6</ele>
        <time>2017-12-17T09:10:49.999Z</time>
      </trkpt>
      <trkpt lat="47.52012" lon="6.75056">
        <ele>378.7</ele>
        <time>2017-12-17T09:10:50.999Z</time>
      </trkpt>
      <trkpt lat="47.52015" lon="6.75059">
        <ele>379</ele>
        <time>2017-12-17T09:10:52.999Z</time>
      </trkpt>
      <trkpt lat="47.52016" lon="6.7506">
        <ele>379.1</ele>
        <time>2017-12-17T09:10:53.999Z</time>
      </trkpt>
      <trkpt lat="47.5202" lon="6.75062">
        <ele>379.4</ele>
        <time>2017-12-17T09:10:55.999Z</time>
      </trkpt>
      <trkpt lat="47.52021" lon="6.75062">
        <ele>379.5</ele>
        <time>2017-12-17T09:10:56.999Z</time>
      </trkpt>
      <trkpt lat="47.52024" lon="6.75065">
        <ele>379.7</ele>
        <time>2017-12-17T09:10:58.999Z</time>
      </trkpt>
      <trkpt lat="47.52025" lon="6.75066">
        <ele>379.8</ele>
        <time>2017-12-17T09:10:59.999Z</time>
      </trkpt>
      <trkpt lat="47.52029" lon="6.75068">
        <ele>380.2</ele>
        <time>2017-12-17T09:11:02.999Z</time>
      </trkpt>
      <trkpt lat="47.5203" lon="6.75068">
        <ele>380.4</ele>
        <time>2017-12-17T09:11:03.999Z</time>
      </trkpt>
      <trkpt lat="47.52034" lon="6.7507">
        <ele>380.6</ele>
        <time>2017-12-17T09:11:05.999Z</time>
      </trkpt>
      <trkpt lat="47.52035" lon="6.7507">
        <ele>380.6</ele>
        <time>2017-12-17T09:11:06.999Z</time>
      </trkpt>
      <trkpt lat="47.52039" lon="6.75071">
        <ele>380.8</ele>
        <time>2017-12-17T09:11:08.999Z</time>
      </trkpt>
      <trkpt lat="47.52042" lon="6.75071">
        <ele>380.9</ele>
        <time>2017-12-17T09:11:09.999Z</time>
      </trkpt>
      <trkpt lat="47.52045" lon="6.75071">
        <ele>381.1</ele>
        <time>2017-12-17T09:11:11.999Z</time>
      </trkpt>
      <trkpt lat="47.52047" lon="6.75072">
        <ele>381.2</ele>
        <time>2017-12-17T09:11:12.999Z</time>
      </trkpt>
      <trkpt lat="47.5205" lon="6.75075">
        <ele>381.7</ele>
        <time>2017-12-17T09:11:14.999Z</time>
      </trkpt>
      <trkpt lat="47.52052" lon="6.75076">
        <ele>381.9</ele>
        <time>2017-12-17T09:11:15.999Z</time>
      </trkpt>
      <trkpt lat="47.52056" lon="6.75078">
        <ele>382.6</ele>
        <time>2017-12-17T09:11:19.999Z</time>
      </trkpt>
      <trkpt lat="47.52056" lon="6.75078">
        <ele>382.7</ele>
        <time>2017-12-17T09:11:20.999Z</time>
      </trkpt>
      <trkpt lat="47.5206" lon="6.75081">
        <ele>383</ele>
        <time>2017-12-17T09:11:23.999Z</time>
      </trkpt>
      <trkpt lat="47.52061" lon="6.75081">
        <ele>383.1</ele>
        <time>2017-12-17T09:11:24.999Z</time>
      </trkpt>
      <trkpt lat="47.52061" lon="6.75081">
        <ele>383.6</ele>
        <time>2017-12-17T09:11:27.999Z</time>
      </trkpt>
      <trkpt lat="47.52067" lon="6.75081">
        <ele>383.7</ele>
        <time>2017-12-17T09:11:28.999Z</time>
      </trkpt>
      <trkpt lat="47.5207" lon="6.75082">
        <ele>384</ele>
        <time>2017-12-17T09:11:30.999Z</time>
      </trkpt>
      <trkpt lat="47.52072" lon="6.75082">
        <ele>384.2</ele>
        <time>2017-12-17T09:11:31.999Z</time>
      </trkpt>
      <trkpt lat="47.52076" lon="6.75083">
        <ele>384.8</ele>
        <time>2017-12-17T09:11:34.999Z</time>
      </trkpt>
      <trkpt lat="47.52077" lon="6.75083">
        <ele>385</ele>
        <time>2017-12-17T09:11:35.999Z</time>
      </trkpt>
      <trkpt lat="47.5208" lon="6.75082">
        <ele>385.5</ele>
        <time>2017-12-17T09:11:37.999Z</time>
      </trkpt>
      <trkpt lat="47.52082" lon="6.75081">
        <ele>385.7</ele>
        <time>2017-12-17T09:11:38.999Z</time>
      </trkpt>
      <trkpt lat="47.52085" lon="6.75083">
        <ele>386.2</ele>
        <time>2017-12-17T09:11:40.999Z</time>
      </trkpt>
      <trkpt lat="47.52087" lon="6.75084">
        <ele>386.5</ele>
        <time>2017-12-17T09:11:41.999Z</time>
      </trkpt>
      <trkpt lat="47.52091" lon="6.75083">
        <ele>387.7</ele>
        <time>2017-12-17T09:11:45.999Z</time>
      </trkpt>
      <trkpt lat="47.52092" lon="6.75082">
        <ele>387.9</ele>
        <time>2017-12-17T09:11:46.999Z</time>
      </trkpt>
      <trkpt lat="47.52096" lon="6.75082">
        <ele>388.3</ele>
        <time>2017-12-17T09:11:48.999Z</time>
      </trkpt>
      <trkpt lat="47.52097" lon="6.75082">
        <ele>388.5</ele>
        <time>2017-12-17T09:11:49.999Z</time>
      </trkpt>
      <trkpt lat="47.52101" lon="6.75082">
        <ele>388.9</ele>
        <time>2017-12-17T09:11:51.999Z</time>
      </trkpt>
      <trkpt lat="47.52102" lon="6.75082">
        <ele>389.1</ele>
        <time>2017-12-17T09:11:52.999Z</time>
      </trkpt>
      <trkpt lat="47.52106" lon="6.75082">
        <ele>389.6</ele>
        <time>2017-12-17T09:11:54.999Z</time>
      </trkpt>
      <trkpt lat="47.52107" lon="6.75083">
        <ele>389.8</ele>
        <time>2017-12-17T09:11:55.999Z</time>
      </trkpt>
      <trkpt lat="47.52111" lon="6.75085">
        <ele>390.5</ele>
        <time>2017-12-17T09:11:58.999Z</time>
      </trkpt>
      <trkpt lat="47.52112" lon="6.75085">
        <ele>390.8</ele>
        <time>2017-12-17T09:11:59.999Z</time>
      </trkpt>
      <trkpt lat="47.52115" lon="6.75085">
        <ele>391.5</ele>
        <time>2017-12-17T09:12:02.999Z</time>
      </trkpt>
      <trkpt lat="47.52116" lon="6.75085">
        <ele>391.8</ele>
        <time>2017-12-17T09:12:03.999Z</time>
      </trkpt>
      <trkpt lat="47.5212" lon="6.75085">
        <ele>392.7</ele>
        <time>2017-12-17T09:12:07.999Z</time>
      </trkpt>
      <trkpt lat="47.52122" lon="6.75084">
        <ele>392.9</ele>
        <time>2017-12-17T09:12:08.999Z</time>
      </trkpt>
      <trkpt lat="47.52125" lon="6.75084">
        <ele>394.1</ele>
        <time>2017-12-17T09:12:15.999Z</time>
      </trkpt>
      <trkpt lat="47.52133" lon="6.75087">
        <ele>394.4</ele>
        <time>2017-12-17T09:12:16.999Z</time>
      </trkpt>
      <trkpt lat="47.52137" lon="6.75087">
        <ele>395.1</ele>
        <time>2017-12-17T09:12:19.999Z</time>
      </trkpt>
      <trkpt lat="47.52139" lon="6.75087">
        <ele>395.3</ele>
        <time>2017-12-17T09:12:20.999Z</time>
      </trkpt>
      <trkpt lat="47.52141" lon="6.75087">
        <ele>395.7</ele>
        <time>2017-12-17T09:12:22.999Z</time>
      </trkpt>
      <trkpt lat="47.52143" lon="6.75088">
        <ele>395.9</ele>
        <time>2017-12-17T09:12:23.999Z</time>
      </trkpt>
      <trkpt lat="47.52147" lon="6.75088">
        <ele>396.3</ele>
        <time>2017-12-17T09:12:25.999Z</time>
      </trkpt>
      <trkpt lat="47.52149" lon="6.75087">
        <ele>396.6</ele>
        <time>2017-12-17T09:12:26.999Z</time>
      </trkpt>
      <trkpt lat="47.52153" lon="6.75086">
        <ele>397.2</ele>
        <time>2017-12-17T09:12:28.999Z</time>
      </trkpt>
      <trkpt lat="47.52155" lon="6.75086">
        <ele>397.4</ele>
        <time>2017-12-17T09:12:29.999Z</time>
      </trkpt>
      <trkpt lat="47.52159" lon="6.75086">
        <ele>397.8</ele>
        <time>2017-12-17T09:12:32.999Z</time>
      </trkpt>
      <trkpt lat="47.5216" lon="6.75086">
        <ele>398</ele>
        <time>2017-12-17T09:12:33.999Z</time>
      </trkpt>
      <trkpt lat="47.52164" lon="6.75087">
        <ele>398.4</ele>
        <time>2017-12-17T09:12:36.999Z</time>
      </trkpt>
      <trkpt lat="47.52166" lon="6.75087">
        <ele>398.5</ele>
        <time>2017-12-17T09:12:37.999Z</time>
      </trkpt>
      <trkpt lat="47.5217" lon="6.75088">
        <ele>398.9</ele>
        <time>2017-12-17T09:12:40.999Z</time>
      </trkpt>
      <trkpt lat="47.52172" lon="6.75089">
        <ele>399.1</ele>
        <time>2017-12-17T09:12:41.999Z</time>
      </trkpt>
      <trkpt lat="47.52176" lon="6.75089">
        <ele>399.5</ele>
        <time>2017-12-17T09:12:43.999Z</time>
      </trkpt>
      <trkpt lat="47.52177" lon="6.75089">
        <ele>399.7</ele>
        <time>2017-12-17T09:12:44.999Z</time>
      </trkpt>
      <trkpt lat="47.52182" lon="6.7509">
        <ele>400.2</ele>
        <time>2017-12-17T09:12:46.999Z</time>
      </trkpt>
      <trkpt lat="47.52184" lon="6.7509">
        <ele>400.4</ele>
        <time>2017-12-17T09:12:47.999Z</time>
      </trkpt>
      <trkpt lat="47.52187" lon="6.7509">
        <ele>400.9</ele>
        <time>2017-12-17T09:12:49.999Z</time>
      </trkpt>
      <trkpt lat="47.52189" lon="6.75089">
        <ele>401.1</ele>
        <time>2017-12-17T09:12:50.999Z</time>
      </trkpt>
      <trkpt lat="47.52192" lon="6.75089">
        <ele>401.5</ele>
        <time>2017-12-17T09:12:52.999Z</time>
      </trkpt>
      <trkpt lat="47.52194" lon="6.75088">
        <ele>401.7</ele>
        <time>2017-12-17T09:12:53.999Z</time>
      </trkpt>
      <trkpt lat="47.52198" lon="6.75089">
        <ele>402.5</ele>
        <time>2017-12-17T09:12:56.999Z</time>
      </trkpt>
      <trkpt lat="47.522" lon="6.75088">
        <ele>402.8</ele>
        <time>2017-12-17T09:12:57.999Z</time>
      </trkpt>
      <trkpt lat="47.52203" lon="6.75087">
        <ele>403.2</ele>
        <time>2017-12-17T09:12:59.999Z</time>
      </trkpt>
      <trkpt lat="47.52204" lon="6.75087">
        <ele>403.4</ele>
        <time>2017-12-17T09:13:00.999Z</time>
      </trkpt>
      <trkpt lat="47.52208" lon="6.75086">
        <ele>404.1</ele>
        <time>2017-12-17T09:13:03.999Z</time>
      </trkpt>
      <trkpt lat="47.5221" lon="6.75084">
        <ele>404.4</ele>
        <time>2017-12-17T09:13:04.999Z</time>
      </trkpt>
      <trkpt lat="47.52214" lon="6.75081">
        <ele>405.2</ele>
        <time>2017-12-17T09:13:07.999Z</time>
      </trkpt>
      <trkpt lat="47.52215" lon="6.7508">
        <ele>405.5</ele>
        <time>2017-12-17T09:13:08.999Z</time>
      </trkpt>
      <trkpt lat="47.52219" lon="6.75079">
        <ele>406.5</ele>
        <time>2017-12-17T09:13:11.999Z</time>
      </trkpt>
      <trkpt lat="47.52221" lon="6.75079">
        <ele>406.8</ele>
        <time>2017-12-17T09:13:12.999Z</time>
      </trkpt>
      <trkpt lat="47.52224" lon="6.75077">
        <ele>407.4</ele>
        <time>2017-12-17T09:13:14.999Z</time>
      </trkpt>
      <trkpt lat="47.52226" lon="6.75077">
        <ele>407.6</ele>
        <time>2017-12-17T09:13:15.999Z</time>
      </trkpt>
      <trkpt lat="47.52228" lon="6.75078">
        <ele>409</ele>
        <time>2017-12-17T09:13:20.999Z</time>
      </trkpt>
      <trkpt lat="47.52237" lon="6.75078">
        <ele>409.3</ele>
        <time>2017-12-17T09:13:21.999Z</time>
      </trkpt>
      <trkpt lat="47.52237" lon="6.75078">
        <ele>410</ele>
        <time>2017-12-17T09:13:23.999Z</time>
      </trkpt>
      <trkpt lat="47.52242" lon="6.75076">
        <ele>410.2</ele>
        <time>2017-12-17T09:13:24.999Z</time>
      </trkpt>
      <trkpt lat="47.52246" lon="6.75072">
        <ele>410.6</ele>
        <time>2017-12-17T09:13:26.999Z</time>
      </trkpt>
      <trkpt lat="47.52246" lon="6.75071">
        <ele>410.8</ele>
        <time>2017-12-17T09:13:27.999Z</time>
      </trkpt>
      <trkpt lat="47.52247" lon="6.75068">
        <ele>411.1</ele>
        <time>2017-12-17T09:13:28.999Z</time>
      </trkpt>
      <trkpt lat="47.52247" lon="6.75064">
        <ele>411.3</ele>
        <time>2017-12-17T09:13:29.999Z</time>
      </trkpt>
      <trkpt lat="47.52247" lon="6.75061">
        <ele>411.5</ele>
        <time>2017-12-17T09:13:30.999Z</time>
      </trkpt>
      <trkpt lat="47.52247" lon="6.75058">
        <ele>411.7</ele>
        <time>2017-12-17T09:13:31.999Z</time>
      </trkpt>
      <trkpt lat="47.52245" lon="6.75052">
        <ele>412</ele>
        <time>2017-12-17T09:13:33.999Z</time>
      </trkpt>
      <trkpt lat="47.52245" lon="6.75049">
        <ele>412.1</ele>
        <time>2017-12-17T09:13:34.999Z</time>
      </trkpt>
      <trkpt lat="47.52244" lon="6.75045">
        <ele>412.3</ele>
        <time>2017-12-17T09:13:36.999Z</time>
      </trkpt>
      <trkpt lat="47.52245" lon="6.75042">
        <ele>412.3</ele>
        <time>2017-12-17T09:13:37.999Z</time>
      </trkpt>
      <trkpt lat="47.52244" lon="6.75036">
        <ele>412.4</ele>
        <time>2017-12-17T09:13:39.999Z</time>
      </trkpt>
      <trkpt lat="47.52244" lon="6.75033">
        <ele>412.5</ele>
        <time>2017-12-17T09:13:40.999Z</time>
      </trkpt>
      <trkpt lat="47.52243" lon="6.75027">
        <ele>412.8</ele>
        <time>2017-12-17T09:13:42.999Z</time>
      </trkpt>
      <trkpt lat="47.52242" lon="6.75025">
        <ele>412.9</ele>
        <time>2017-12-17T09:13:43.999Z</time>
      </trkpt>
      <trkpt lat="47.52241" lon="6.75019">
        <ele>413.3</ele>
        <time>2017-12-17T09:13:45.999Z</time>
      </trkpt>
      <trkpt lat="47.5224" lon="6.75016">
        <ele>413.5</ele>
        <time>2017-12-17T09:13:46.999Z</time>
      </trkpt>
      <trkpt lat="47.52239" lon="6.75012">
        <ele>413.7</ele>
        <time>2017-12-17T09:13:47.999Z</time>
      </trkpt>
      <trkpt lat="47.52238" lon="6.75007">
        <ele>413.9</ele>
        <time>2017-12-17T09:13:48.999Z</time>
      </trkpt>
      <trkpt lat="47.52237" lon="6.75001">
        <ele>414.3</ele>
        <time>2017-12-17T09:13:50.999Z</time>
      </trkpt>
      <trkpt lat="47.52237" lon="6.74998">
        <ele>414.4</ele>
        <time>2017-12-17T09:13:51.999Z</time>
      </trkpt>
      <trkpt lat="47.52237" lon="6.74994">
        <ele>414.6</ele>
        <time>2017-12-17T09:13:52.999Z</time>
      </trkpt>
      <trkpt lat="47.52236" lon="6.74991">
        <ele>414.8</ele>
        <time>2017-12-17T09:13:53.999Z</time>
      </trkpt>
      <trkpt lat="47.52236" lon="6.74986">
        <ele>415</ele>
        <time>2017-12-17T09:13:54.999Z</time>
      </trkpt>
      <trkpt lat="47.52236" lon="6.74982">
        <ele>415.2</ele>
        <time>2017-12-17T09:13:55.999Z</time>
      </trkpt>
      <trkpt lat="47.52236" lon="6.74978">
        <ele>415.4</ele>
        <time>2017-12-17T09:13:56.999Z</time>
      </trkpt>
      <trkpt lat="47.52237" lon="6.74974">
        <ele>415.6</ele>
        <time>2017-12-17T09:13:57.999Z</time>
      </trkpt>
      <trkpt lat="47.52237" lon="6.74971">
        <ele>415.8</ele>
        <time>2017-12-17T09:13:58.999Z</time>
      </trkpt>
      <trkpt lat="47.52237" lon="6.74967">
        <ele>416</ele>
        <time>2017-12-17T09:13:59.999Z</time>
      </trkpt>
      <trkpt lat="47.52237" lon="6.74964">
        <ele>416.2</ele>
        <time>2017-12-17T09:14:00.999Z</time>
      </trkpt>
      <trkpt lat="47.52237" lon="6.74957">
        <ele>416.6</ele>
        <time>2017-12-17T09:14:02.999Z</time>
      </trkpt>
      <trkpt lat="47.52238" lon="6.74951">
        <ele>416.9</ele>
        <time>2017-12-17T09:14:04.999Z</time>
      </trkpt>
      <trkpt lat="47.52238" lon="6.74948">
        <ele>417.1</ele>
        <time>2017-12-17T09:14:05.999Z</time>
      </trkpt>
      <trkpt lat="47.52239" lon="6.74941">
        <ele>417.2</ele>
        <time>2017-12-17T09:14:07.999Z</time>
      </trkpt>
      <trkpt lat="47.5224" lon="6.74936">
        <ele>417.2</ele>
        <time>2017-12-17T09:14:08.999Z</time>
      </trkpt>
      <trkpt lat="47.5224" lon="6.74931">
        <ele>417.2</ele>
        <time>2017-12-17T09:14:09.999Z</time>
      </trkpt>
      <trkpt lat="47.52241" lon="6.74928">
        <ele>417.2</ele>
        <time>2017-12-17T09:14:10.999Z</time>
      </trkpt>
      <trkpt lat="47.52241" lon="6.74923">
        <ele>417.2</ele>
        <time>2017-12-17T09:14:11.999Z</time>
      </trkpt>
      <trkpt lat="47.52242" lon="6.74918">
        <ele>417.3</ele>
        <time>2017-12-17T09:14:12.999Z</time>
      </trkpt>
      <trkpt lat="47.52242" lon="6.74915">
        <ele>417.3</ele>
        <time>2017-12-17T09:14:13.999Z</time>
      </trkpt>
      <trkpt lat="47.52242" lon="6.74909">
        <ele>417.3</ele>
        <time>2017-12-17T09:14:14.999Z</time>
      </trkpt>
      <trkpt lat="47.52243" lon="6.74903">
        <ele>417.4</ele>
        <time>2017-12-17T09:14:15.999Z</time>
      </trkpt>
      <trkpt lat="47.52244" lon="6.74899">
        <ele>417.4</ele>
        <time>2017-12-17T09:14:16.999Z</time>
      </trkpt>
      <trkpt lat="47.52244" lon="6.74895">
        <ele>417.4</ele>
        <time>2017-12-17T09:14:17.999Z</time>
      </trkpt>
      <trkpt lat="47.52244" lon="6.74891">
        <ele>417.5</ele>
        <time>2017-12-17T09:14:18.999Z</time>
      </trkpt>
      <trkpt lat="47.52244" lon="6.74887">
        <ele>417.5</ele>
        <time>2017-12-17T09:14:19.999Z</time>
      </trkpt>
      <trkpt lat="47.52245" lon="6.74883">
        <ele>417.6</ele>
        <time>2017-12-17T09:14:20.999Z</time>
      </trkpt>
      <trkpt lat="47.52245" lon="6.74878">
        <ele>417.6</ele>
        <time>2017-12-17T09:14:21.999Z</time>
      </trkpt>
      <trkpt lat="47.52246" lon="6.74874">
        <ele>417.6</ele>
        <time>2017-12-17T09:14:22.999Z</time>
      </trkpt>
      <trkpt lat="47.52246" lon="6.74869">
        <ele>417.7</ele>
        <time>2017-12-17T09:14:23.999Z</time>
      </trkpt>
      <trkpt lat="47.52247" lon="6.74865">
        <ele>417.7</ele>
        <time>2017-12-17T09:14:24.999Z</time>
      </trkpt>
      <trkpt lat="47.52248" lon="6.74859">
        <ele>417.7</ele>
        <time>2017-12-17T09:14:25.999Z</time>
      </trkpt>
      <trkpt lat="47.52248" lon="6.74855">
        <ele>417.7</ele>
        <time>2017-12-17T09:14:26.999Z</time>
      </trkpt>
      <trkpt lat="47.52249" lon="6.74852">
        <ele>417.7</ele>
        <time>2017-12-17T09:14:27.999Z</time>
      </trkpt>
      <trkpt lat="47.5225" lon="6.74848">
        <ele>417.6</ele>
        <time>2017-12-17T09:14:28.999Z</time>
      </trkpt>
      <trkpt lat="47.52251" lon="6.74844">
        <ele>417.7</ele>
        <time>2017-12-17T09:14:29.999Z</time>
      </trkpt>
      <trkpt lat="47.52252" lon="6.74839">
        <ele>417.7</ele>
        <time>2017-12-17T09:14:30.999Z</time>
      </trkpt>
      <trkpt lat="47.52254" lon="6.74833">
        <ele>417.8</ele>
        <time>2017-12-17T09:14:31.999Z</time>
      </trkpt>
      <trkpt lat="47.52254" lon="6.74828">
        <ele>417.9</ele>
        <time>2017-12-17T09:14:32.999Z</time>
      </trkpt>
      <trkpt lat="47.52255" lon="6.74823">
        <ele>417.9</ele>
        <time>2017-12-17T09:14:33.999Z</time>
      </trkpt>
      <trkpt lat="47.52256" lon="6.74818">
        <ele>418</ele>
        <time>2017-12-17T09:14:34.999Z</time>
      </trkpt>
      <trkpt lat="47.52257" lon="6.74813">
        <ele>417.9</ele>
        <time>2017-12-17T09:14:35.999Z</time>
      </trkpt>
      <trkpt lat="47.52258" lon="6.74809">
        <ele>418</ele>
        <time>2017-12-17T09:14:36.999Z</time>
      </trkpt>
      <trkpt lat="47.5226" lon="6.74804">
        <ele>418</ele>
        <time>2017-12-17T09:14:37.999Z</time>
      </trkpt>
      <trkpt lat="47.52261" lon="6.74797">
        <ele>418</ele>
        <time>2017-12-17T09:14:38.999Z</time>
      </trkpt>
      <trkpt lat="47.52262" lon="6.74792">
        <ele>418.1</ele>
        <time>2017-12-17T09:14:39.999Z</time>
      </trkpt>
      <trkpt lat="47.52263" lon="6.74788">
        <ele>418.1</ele>
        <time>2017-12-17T09:14:40.999Z</time>
      </trkpt>
      <trkpt lat="47.52265" lon="6.74782">
        <ele>417.7</ele>
        <time>2017-12-17T09:14:41.999Z</time>
      </trkpt>
      <trkpt lat="47.52267" lon="6.74776">
        <ele>417.2</ele>
        <time>2017-12-17T09:14:42.999Z</time>
      </trkpt>
      <trkpt lat="47.52269" lon="6.74771">
        <ele>416.7</ele>
        <time>2017-12-17T09:14:43.999Z</time>
      </trkpt>
      <trkpt lat="47.52271" lon="6.74766">
        <ele>417.2</ele>
        <time>2017-12-17T09:14:44.999Z</time>
      </trkpt>
      <trkpt lat="47.52272" lon="6.7476">
        <ele>417.2</ele>
        <time>2017-12-17T09:14:45.999Z</time>
      </trkpt>
      <trkpt lat="47.52274" lon="6.74754">
        <ele>417.3</ele>
        <time>2017-12-17T09:14:46.999Z</time>
      </trkpt>
      <trkpt lat="47.52275" lon="6.74749">
        <ele>417.4</ele>
        <time>2017-12-17T09:14:47.999Z</time>
      </trkpt>
      <trkpt lat="47.52276" lon="6.74743">
        <ele>417.4</ele>
        <time>2017-12-17T09:14:48.999Z</time>
      </trkpt>
      <trkpt lat="47.52278" lon="6.74736">
        <ele>416.6</ele>
        <time>2017-12-17T09:14:49.999Z</time>
      </trkpt>
      <trkpt lat="47.5228" lon="6.7473">
        <ele>415.7</ele>
        <time>2017-12-17T09:14:50.999Z</time>
      </trkpt>
      <trkpt lat="47.52282" lon="6.74723">
        <ele>414.4</ele>
        <time>2017-12-17T09:14:51.999Z</time>
      </trkpt>
      <trkpt lat="47.52283" lon="6.74716">
        <ele>413.3</ele>
        <time>2017-12-17T09:14:52.999Z</time>
      </trkpt>
      <trkpt lat="47.52285" lon="6.74709">
        <ele>412.5</ele>
        <time>2017-12-17T09:14:53.999Z</time>
      </trkpt>
      <trkpt lat="47.52286" lon="6.74704">
        <ele>412.5</ele>
        <time>2017-12-17T09:14:54.999Z</time>
      </trkpt>
      <trkpt lat="47.52288" lon="6.74697">
        <ele>412</ele>
        <time>2017-12-17T09:14:55.999Z</time>
      </trkpt>
      <trkpt lat="47.5229" lon="6.74691">
        <ele>411.1</ele>
        <time>2017-12-17T09:14:56.999Z</time>
      </trkpt>
      <trkpt lat="47.52292" lon="6.74686">
        <ele>410.5</ele>
        <time>2017-12-17T09:14:57.999Z</time>
      </trkpt>
      <trkpt lat="47.52295" lon="6.74682">
        <ele>409.9</ele>
        <time>2017-12-17T09:14:58.999Z</time>
      </trkpt>
      <trkpt lat="47.52301" lon="6.7468">
        <ele>409.9</ele>
        <time>2017-12-17T09:14:59.999Z</time>
      </trkpt>
      <trkpt lat="47.52307" lon="6.74679">
        <ele>410.2</ele>
        <time>2017-12-17T09:15:00.999Z</time>
      </trkpt>
      <trkpt lat="47.52312" lon="6.74679">
        <ele>409.5</ele>
        <time>2017-12-17T09:15:01.999Z</time>
      </trkpt>
      <trkpt lat="47.52315" lon="6.74679">
        <ele>409.5</ele>
        <time>2017-12-17T09:15:02.999Z</time>
      </trkpt>
      <trkpt lat="47.52317" lon="6.74679">
        <ele>409.5</ele>
        <time>2017-12-17T09:15:03.999Z</time>
      </trkpt>
      <trkpt lat="47.5232" lon="6.7468">
        <ele>409.5</ele>
        <time>2017-12-17T09:15:04.999Z</time>
      </trkpt>
      <trkpt lat="47.52323" lon="6.74682">
        <ele>409.6</ele>
        <time>2017-12-17T09:15:05.999Z</time>
      </trkpt>
      <trkpt lat="47.52327" lon="6.74684">
        <ele>409.6</ele>
        <time>2017-12-17T09:15:06.999Z</time>
      </trkpt>
      <trkpt lat="47.5233" lon="6.74686">
        <ele>409.7</ele>
        <time>2017-12-17T09:15:07.999Z</time>
      </trkpt>
      <trkpt lat="47.52333" lon="6.74687">
        <ele>409.8</ele>
        <time>2017-12-17T09:15:08.999Z</time>
      </trkpt>
      <trkpt lat="47.52337" lon="6.74689">
        <ele>409.9</ele>
        <time>2017-12-17T09:15:09.999Z</time>
      </trkpt>
      <trkpt lat="47.5234" lon="6.74692">
        <ele>410</ele>
        <time>2017-12-17T09:15:11.999Z</time>
      </trkpt>
      <trkpt lat="47.52342" lon="6.74694">
        <ele>410</ele>
        <time>2017-12-17T09:15:12.999Z</time>
      </trkpt>
      <trkpt lat="47.52345" lon="6.74696">
        <ele>410.1</ele>
        <time>2017-12-17T09:15:13.999Z</time>
      </trkpt>
      <trkpt lat="47.52347" lon="6.74698">
        <ele>410.1</ele>
        <time>2017-12-17T09:15:14.999Z</time>
      </trkpt>
      <trkpt lat="47.5235" lon="6.747">
        <ele>410.1</ele>
        <time>2017-12-17T09:15:15.999Z</time>
      </trkpt>
      <trkpt lat="47.52352" lon="6.74702">
        <ele>410.1</ele>
        <time>2017-12-17T09:15:16.999Z</time>
      </trkpt>
      <trkpt lat="47.52356" lon="6.74704">
        <ele>410.1</ele>
        <time>2017-12-17T09:15:18.999Z</time>
      </trkpt>
      <trkpt lat="47.52359" lon="6.74706">
        <ele>410.1</ele>
        <time>2017-12-17T09:15:19.999Z</time>
      </trkpt>
      <trkpt lat="47.52363" lon="6.74709">
        <ele>410.2</ele>
        <time>2017-12-17T09:15:21.999Z</time>
      </trkpt>
      <trkpt lat="47.52364" lon="6.74709">
        <ele>410.2</ele>
        <time>2017-12-17T09:15:22.999Z</time>
      </trkpt>
      <trkpt lat="47.52367" lon="6.7471">
        <ele>410.1</ele>
        <time>2017-12-17T09:15:23.999Z</time>
      </trkpt>
      <trkpt lat="47.52369" lon="6.7471">
        <ele>410.1</ele>
        <time>2017-12-17T09:15:24.999Z</time>
      </trkpt>
      <trkpt lat="47.52372" lon="6.74711">
        <ele>410.1</ele>
        <time>2017-12-17T09:15:25.999Z</time>
      </trkpt>
      <trkpt lat="47.52374" lon="6.74711">
        <ele>410.1</ele>
        <time>2017-12-17T09:15:26.999Z</time>
      </trkpt>
      <trkpt lat="47.52378" lon="6.74711">
        <ele>410.1</ele>
        <time>2017-12-17T09:15:28.999Z</time>
      </trkpt>
      <trkpt lat="47.52379" lon="6.74712">
        <ele>410.1</ele>
        <time>2017-12-17T09:15:29.999Z</time>
      </trkpt>
      <trkpt lat="47.52383" lon="6.74713">
        <ele>410.3</ele>
        <time>2017-12-17T09:15:31.999Z</time>
      </trkpt>
      <trkpt lat="47.52385" lon="6.74714">
        <ele>410.4</ele>
        <time>2017-12-17T09:15:32.999Z</time>
      </trkpt>
      <trkpt lat="47.52388" lon="6.74715">
        <ele>410.6</ele>
        <time>2017-12-17T09:15:34.999Z</time>
      </trkpt>
      <trkpt lat="47.5239" lon="6.74715">
        <ele>410.6</ele>
        <time>2017-12-17T09:15:35.999Z</time>
      </trkpt>
      <trkpt lat="47.52392" lon="6.74717">
        <ele>410.7</ele>
        <time>2017-12-17T09:15:36.999Z</time>
      </trkpt>
      <trkpt lat="47.52394" lon="6.74718">
        <ele>410.6</ele>
        <time>2017-12-17T09:15:37.999Z</time>
      </trkpt>
      <trkpt lat="47.52398" lon="6.74722">
        <ele>410.8</ele>
        <time>2017-12-17T09:15:39.999Z</time>
      </trkpt>
      <trkpt lat="47.524" lon="6.74724">
        <ele>410.9</ele>
        <time>2017-12-17T09:15:40.999Z</time>
      </trkpt>
      <trkpt lat="47.52403" lon="6.74728">
        <ele>411.2</ele>
        <time>2017-12-17T09:15:42.999Z</time>
      </trkpt>
      <trkpt lat="47.52404" lon="6.7473">
        <ele>411.3</ele>
        <time>2017-12-17T09:15:43.999Z</time>
      </trkpt>
      <trkpt lat="47.52408" lon="6.74734">
        <ele>411.4</ele>
        <time>2017-12-17T09:15:45.999Z</time>
      </trkpt>
      <trkpt lat="47.5241" lon="6.74737">
        <ele>411.5</ele>
        <time>2017-12-17T09:15:46.999Z</time>
      </trkpt>
      <trkpt lat="47.52412" lon="6.7474">
        <ele>411.6</ele>
        <time>2017-12-17T09:15:47.999Z</time>
      </trkpt>
      <trkpt lat="47.52415" lon="6.74743">
        <ele>411.6</ele>
        <time>2017-12-17T09:15:48.999Z</time>
      </trkpt>
      <trkpt lat="47.52417" lon="6.74744">
        <ele>411.6</ele>
        <time>2017-12-17T09:15:49.999Z</time>
      </trkpt>
      <trkpt lat="47.52419" lon="6.74747">
        <ele>411.7</ele>
        <time>2017-12-17T09:15:50.999Z</time>
      </trkpt>
      <trkpt lat="47.52421" lon="6.7475">
        <ele>411.7</ele>
        <time>2017-12-17T09:15:51.999Z</time>
      </trkpt>
      <trkpt lat="47.52423" lon="6.74753">
        <ele>411.8</ele>
        <time>2017-12-17T09:15:52.999Z</time>
      </trkpt>
      <trkpt lat="47.52425" lon="6.74755">
        <ele>411.9</ele>
        <time>2017-12-17T09:15:53.999Z</time>
      </trkpt>
      <trkpt lat="47.52428" lon="6.74756">
        <ele>412</ele>
        <time>2017-12-17T09:15:54.999Z</time>
      </trkpt>
      <trkpt lat="47.52432" lon="6.74758">
        <ele>412.1</ele>
        <time>2017-12-17T09:15:56.999Z</time>
      </trkpt>
      <trkpt lat="47.52434" lon="6.74759">
        <ele>412.2</ele>
        <time>2017-12-17T09:15:57.999Z</time>
      </trkpt>
      <trkpt lat="47.52438" lon="6.74761">
        <ele>412.5</ele>
        <time>2017-12-17T09:15:59.999Z</time>
      </trkpt>
      <trkpt lat="47.5244" lon="6.74762">
        <ele>412.7</ele>
        <time>2017-12-17T09:16:00.999Z</time>
      </trkpt>
      <trkpt lat="47.52444" lon="6.74765">
        <ele>413.1</ele>
        <time>2017-12-17T09:16:02.999Z</time>
      </trkpt>
      <trkpt lat="47.52446" lon="6.74766">
        <ele>413.2</ele>
        <time>2017-12-17T09:16:03.999Z</time>
      </trkpt>
      <trkpt lat="47.52448" lon="6.74767">
        <ele>413.3</ele>
        <time>2017-12-17T09:16:04.999Z</time>
      </trkpt>
      <trkpt lat="47.52451" lon="6.74768">
        <ele>413.4</ele>
        <time>2017-12-17T09:16:05.999Z</time>
      </trkpt>
      <trkpt lat="47.52454" lon="6.74769">
        <ele>413.5</ele>
        <time>2017-12-17T09:16:06.999Z</time>
      </trkpt>
      <trkpt lat="47.52456" lon="6.7477">
        <ele>413.5</ele>
        <time>2017-12-17T09:16:07.999Z</time>
      </trkpt>
      <trkpt lat="47.52459" lon="6.74771">
        <ele>413.6</ele>
        <time>2017-12-17T09:16:09.999Z</time>
      </trkpt>
      <trkpt lat="47.52461" lon="6.74772">
        <ele>413.6</ele>
        <time>2017-12-17T09:16:10.999Z</time>
      </trkpt>
      <trkpt lat="47.52465" lon="6.74773">
        <ele>413.6</ele>
        <time>2017-12-17T09:16:11.999Z</time>
      </trkpt>
      <trkpt lat="47.52467" lon="6.74774">
        <ele>413.6</ele>
        <time>2017-12-17T09:16:12.999Z</time>
      </trkpt>
      <trkpt lat="47.5247" lon="6.74775">
        <ele>413.5</ele>
        <time>2017-12-17T09:16:13.999Z</time>
      </trkpt>
      <trkpt lat="47.52472" lon="6.74776">
        <ele>413.5</ele>
        <time>2017-12-17T09:16:14.999Z</time>
      </trkpt>
      <trkpt lat="47.52475" lon="6.74777">
        <ele>413.5</ele>
        <time>2017-12-17T09:16:15.999Z</time>
      </trkpt>
      <trkpt lat="47.52478" lon="6.74778">
        <ele>413.5</ele>
        <time>2017-12-17T09:16:16.999Z</time>
      </trkpt>
      <trkpt lat="47.52481" lon="6.74779">
        <ele>413.5</ele>
        <time>2017-12-17T09:16:17.999Z</time>
      </trkpt>
      <trkpt lat="47.52484" lon="6.7478">
        <ele>413.6</ele>
        <time>2017-12-17T09:16:18.999Z</time>
      </trkpt>
      <trkpt lat="47.52487" lon="6.74782">
        <ele>413.7</ele>
        <time>2017-12-17T09:16:19.999Z</time>
      </trkpt>
      <trkpt lat="47.5249" lon="6.74782">
        <ele>413.8</ele>
        <time>2017-12-17T09:16:20.999Z</time>
      </trkpt>
      <trkpt lat="47.52493" lon="6.74783">
        <ele>413.9</ele>
        <time>2017-12-17T09:16:21.999Z</time>
      </trkpt>
      <trkpt lat="47.52496" lon="6.74784">
        <ele>414.1</ele>
        <time>2017-12-17T09:16:22.999Z</time>
      </trkpt>
      <trkpt lat="47.52499" lon="6.74785">
        <ele>414.2</ele>
        <time>2017-12-17T09:16:23.999Z</time>
      </trkpt>
      <trkpt lat="47.52501" lon="6.74785">
        <ele>414.4</ele>
        <time>2017-12-17T09:16:24.999Z</time>
      </trkpt>
      <trkpt lat="47.52505" lon="6.74786">
        <ele>414.9</ele>
        <time>2017-12-17T09:16:26.999Z</time>
      </trkpt>
      <trkpt lat="47.52507" lon="6.74787">
        <ele>415.1</ele>
        <time>2017-12-17T09:16:27.999Z</time>
      </trkpt>
      <trkpt lat="47.52509" lon="6.74788">
        <ele>415.3</ele>
        <time>2017-12-17T09:16:28.999Z</time>
      </trkpt>
      <trkpt lat="47.52512" lon="6.74789">
        <ele>415.5</ele>
        <time>2017-12-17T09:16:29.999Z</time>
      </trkpt>
      <trkpt lat="47.52514" lon="6.74791">
        <ele>415.6</ele>
        <time>2017-12-17T09:16:30.999Z</time>
      </trkpt>
      <trkpt lat="47.52517" lon="6.74792">
        <ele>415.8</ele>
        <time>2017-12-17T09:16:31.999Z</time>
      </trkpt>
      <trkpt lat="47.52519" lon="6.74793">
        <ele>415.9</ele>
        <time>2017-12-17T09:16:32.999Z</time>
      </trkpt>
      <trkpt lat="47.52521" lon="6.74795">
        <ele>416</ele>
        <time>2017-12-17T09:16:33.999Z</time>
      </trkpt>
      <trkpt lat="47.52522" lon="6.748">
        <ele>416.2</ele>
        <time>2017-12-17T09:16:35.999Z</time>
      </trkpt>
      <trkpt lat="47.52522" lon="6.74802">
        <ele>416.4</ele>
        <time>2017-12-17T09:16:36.999Z</time>
      </trkpt>
      <trkpt lat="47.52523" lon="6.74807">
        <ele>416.7</ele>
        <time>2017-12-17T09:16:38.999Z</time>
      </trkpt>
      <trkpt lat="47.52523" lon="6.7481">
        <ele>416.9</ele>
        <time>2017-12-17T09:16:39.999Z</time>
      </trkpt>
      <trkpt lat="47.52523" lon="6.74816">
        <ele>417.2</ele>
        <time>2017-12-17T09:16:41.999Z</time>
      </trkpt>
      <trkpt lat="47.52523" lon="6.74819">
        <ele>417.5</ele>
        <time>2017-12-17T09:16:42.999Z</time>
      </trkpt>
      <trkpt lat="47.52522" lon="6.74825">
        <ele>417.8</ele>
        <time>2017-12-17T09:16:44.999Z</time>
      </trkpt>
      <trkpt lat="47.52522" lon="6.74828">
        <ele>418</ele>
        <time>2017-12-17T09:16:45.999Z</time>
      </trkpt>
      <trkpt lat="47.52521" lon="6.74833">
        <ele>418.4</ele>
        <time>2017-12-17T09:16:47.999Z</time>
      </trkpt>
      <trkpt lat="47.5252" lon="6.74836">
        <ele>418.6</ele>
        <time>2017-12-17T09:16:48.999Z</time>
      </trkpt>
      <trkpt lat="47.52519" lon="6.7484">
        <ele>419</ele>
        <time>2017-12-17T09:16:50.999Z</time>
      </trkpt>
      <trkpt lat="47.52518" lon="6.74842">
        <ele>419.2</ele>
        <time>2017-12-17T09:16:51.999Z</time>
      </trkpt>
      <trkpt lat="47.52516" lon="6.74848">
        <ele>419.4</ele>
        <time>2017-12-17T09:16:53.999Z</time>
      </trkpt>
      <trkpt lat="47.52516" lon="6.7485">
        <ele>419.6</ele>
        <time>2017-12-17T09:16:54.999Z</time>
      </trkpt>
      <trkpt lat="47.52515" lon="6.74853">
        <ele>419.7</ele>
        <time>2017-12-17T09:16:55.999Z</time>
      </trkpt>
      <trkpt lat="47.52514" lon="6.74857">
        <ele>419.9</ele>
        <time>2017-12-17T09:16:56.999Z</time>
      </trkpt>
      <trkpt lat="47.52513" lon="6.74862">
        <ele>420.2</ele>
        <time>2017-12-17T09:16:58.999Z</time>
      </trkpt>
      <trkpt lat="47.52512" lon="6.74864">
        <ele>420.3</ele>
        <time>2017-12-17T09:16:59.999Z</time>
      </trkpt>
      <trkpt lat="47.52512" lon="6.74866">
        <ele>420.5</ele>
        <time>2017-12-17T09:17:00.999Z</time>
      </trkpt>
      <trkpt lat="47.52511" lon="6.74874">
        <ele>420.7</ele>
        <time>2017-12-17T09:17:02.999Z</time>
      </trkpt>
      <trkpt lat="47.52511" lon="6.74877">
        <ele>420.8</ele>
        <time>2017-12-17T09:17:03.999Z</time>
      </trkpt>
      <trkpt lat="47.52511" lon="6.74881">
        <ele>420.9</ele>
        <time>2017-12-17T09:17:04.999Z</time>
      </trkpt>
      <trkpt lat="47.5251" lon="6.74886">
        <ele>421</ele>
        <time>2017-12-17T09:17:06.999Z</time>
      </trkpt>
      <trkpt lat="47.5251" lon="6.7489">
        <ele>421.1</ele>
        <time>2017-12-17T09:17:07.999Z</time>
      </trkpt>
      <trkpt lat="47.52509" lon="6.74895">
        <ele>421.2</ele>
        <time>2017-12-17T09:17:09.999Z</time>
      </trkpt>
      <trkpt lat="47.52509" lon="6.74898">
        <ele>421.4</ele>
        <time>2017-12-17T09:17:10.999Z</time>
      </trkpt>
      <trkpt lat="47.52508" lon="6.74903">
        <ele>421.5</ele>
        <time>2017-12-17T09:17:12.999Z</time>
      </trkpt>
      <trkpt lat="47.52507" lon="6.74906">
        <ele>421.6</ele>
        <time>2017-12-17T09:17:13.999Z</time>
      </trkpt>
      <trkpt lat="47.52507" lon="6.7491">
        <ele>421.7</ele>
        <time>2017-12-17T09:17:15.999Z</time>
      </trkpt>
      <trkpt lat="47.52507" lon="6.74913">
        <ele>421.9</ele>
        <time>2017-12-17T09:17:16.999Z</time>
      </trkpt>
      <trkpt lat="47.52506" lon="6.74919">
        <ele>421.9</ele>
        <time>2017-12-17T09:17:18.999Z</time>
      </trkpt>
      <trkpt lat="47.52505" lon="6.74921">
        <ele>422</ele>
        <time>2017-12-17T09:17:19.999Z</time>
      </trkpt>
      <trkpt lat="47.52505" lon="6.74925">
        <ele>422</ele>
        <time>2017-12-17T09:17:20.999Z</time>
      </trkpt>
      <trkpt lat="47.52504" lon="6.74928">
        <ele>422</ele>
        <time>2017-12-17T09:17:21.999Z</time>
      </trkpt>
      <trkpt lat="47.52504" lon="6.74932">
        <ele>422.1</ele>
        <time>2017-12-17T09:17:22.999Z</time>
      </trkpt>
      <trkpt lat="47.52503" lon="6.74935">
        <ele>422.2</ele>
        <time>2017-12-17T09:17:23.999Z</time>
      </trkpt>
      <trkpt lat="47.52503" lon="6.74939">
        <ele>422.4</ele>
        <time>2017-12-17T09:17:25.999Z</time>
      </trkpt>
      <trkpt lat="47.52503" lon="6.74942">
        <ele>422.5</ele>
        <time>2017-12-17T09:17:26.999Z</time>
      </trkpt>
      <trkpt lat="47.52503" lon="6.74947">
        <ele>422.7</ele>
        <time>2017-12-17T09:17:28.999Z</time>
      </trkpt>
      <trkpt lat="47.52503" lon="6.7495">
        <ele>422.8</ele>
        <time>2017-12-17T09:17:29.999Z</time>
      </trkpt>
      <trkpt lat="47.52504" lon="6.74954">
        <ele>422.8</ele>
        <time>2017-12-17T09:17:30.999Z</time>
      </trkpt>
      <trkpt lat="47.52504" lon="6.74956">
        <ele>422.9</ele>
        <time>2017-12-17T09:17:31.999Z</time>
      </trkpt>
      <trkpt lat="47.52506" lon="6.74962">
        <ele>423</ele>
        <time>2017-12-17T09:17:33.999Z</time>
      </trkpt>
      <trkpt lat="47.52507" lon="6.74965">
        <ele>423</ele>
        <time>2017-12-17T09:17:34.999Z</time>
      </trkpt>
      <trkpt lat="47.52509" lon="6.74969">
        <ele>423.2</ele>
        <time>2017-12-17T09:17:35.999Z</time>
      </trkpt>
      <trkpt lat="47.5251" lon="6.74972">
        <ele>423.2</ele>
        <time>2017-12-17T09:17:36.999Z</time>
      </trkpt>
      <trkpt lat="47.52512" lon="6.74975">
        <ele>423.4</ele>
        <time>2017-12-17T09:17:37.999Z</time>
      </trkpt>
      <trkpt lat="47.52514" lon="6.74978">
        <ele>423.5</ele>
        <time>2017-12-17T09:17:38.999Z</time>
      </trkpt>
      <trkpt lat="47.52517" lon="6.74982">
        <ele>423.9</ele>
        <time>2017-12-17T09:17:40.999Z</time>
      </trkpt>
      <trkpt lat="47.52518" lon="6.74983">
        <ele>424.2</ele>
        <time>2017-12-17T09:17:41.999Z</time>
      </trkpt>
      <trkpt lat="47.52521" lon="6.74985">
        <ele>424.5</ele>
        <time>2017-12-17T09:17:43.999Z</time>
      </trkpt>
      <trkpt lat="47.52523" lon="6.74986">
        <ele>424.6</ele>
        <time>2017-12-17T09:17:44.999Z</time>
      </trkpt>
      <trkpt lat="47.52526" lon="6.74988">
        <ele>425.3</ele>
        <time>2017-12-17T09:17:47.999Z</time>
      </trkpt>
      <trkpt lat="47.52528" lon="6.74989">
        <ele>425.4</ele>
        <time>2017-12-17T09:17:48.999Z</time>
      </trkpt>
      <trkpt lat="47.52531" lon="6.7499">
        <ele>426</ele>
        <time>2017-12-17T09:17:51.999Z</time>
      </trkpt>
      <trkpt lat="47.52533" lon="6.74991">
        <ele>426.1</ele>
        <time>2017-12-17T09:17:52.999Z</time>
      </trkpt>
      <trkpt lat="47.52536" lon="6.74991">
        <ele>426.3</ele>
        <time>2017-12-17T09:17:54.999Z</time>
      </trkpt>
      <trkpt lat="47.52538" lon="6.74991">
        <ele>426.4</ele>
        <time>2017-12-17T09:17:55.999Z</time>
      </trkpt>
      <trkpt lat="47.52542" lon="6.74991">
        <ele>426.6</ele>
        <time>2017-12-17T09:17:57.999Z</time>
      </trkpt>
      <trkpt lat="47.52544" lon="6.74991">
        <ele>426.8</ele>
        <time>2017-12-17T09:17:58.999Z</time>
      </trkpt>
      <trkpt lat="47.52546" lon="6.74992">
        <ele>426.9</ele>
        <time>2017-12-17T09:17:59.999Z</time>
      </trkpt>
      <trkpt lat="47.52549" lon="6.74993">
        <ele>426.9</ele>
        <time>2017-12-17T09:18:00.999Z</time>
      </trkpt>
      <trkpt lat="47.52554" lon="6.74994">
        <ele>427</ele>
        <time>2017-12-17T09:18:02.999Z</time>
      </trkpt>
      <trkpt lat="47.52557" lon="6.74994">
        <ele>427.2</ele>
        <time>2017-12-17T09:18:05.999Z</time>
      </trkpt>
      <trkpt lat="47.52558" lon="6.74994">
        <ele>427.3</ele>
        <time>2017-12-17T09:18:06.999Z</time>
      </trkpt>
      <trkpt lat="47.52561" lon="6.74995">
        <ele>427.5</ele>
        <time>2017-12-17T09:18:08.999Z</time>
      </trkpt>
      <trkpt lat="47.52563" lon="6.74995">
        <ele>427.6</ele>
        <time>2017-12-17T09:18:09.999Z</time>
      </trkpt>
      <trkpt lat="47.52566" lon="6.74995">
        <ele>427.9</ele>
        <time>2017-12-17T09:18:11.999Z</time>
      </trkpt>
      <trkpt lat="47.52568" lon="6.74996">
        <ele>427.9</ele>
        <time>2017-12-17T09:18:12.999Z</time>
      </trkpt>
      <trkpt lat="47.52572" lon="6.74998">
        <ele>428.1</ele>
        <time>2017-12-17T09:18:14.999Z</time>
      </trkpt>
      <trkpt lat="47.52573" lon="6.74999">
        <ele>428.2</ele>
        <time>2017-12-17T09:18:15.999Z</time>
      </trkpt>
      <trkpt lat="47.52576" lon="6.75001">
        <ele>428.3</ele>
        <time>2017-12-17T09:18:17.999Z</time>
      </trkpt>
      <trkpt lat="47.52578" lon="6.75004">
        <ele>428.3</ele>
        <time>2017-12-17T09:18:18.999Z</time>
      </trkpt>
      <trkpt lat="47.52579" lon="6.75007">
        <ele>428.4</ele>
        <time>2017-12-17T09:18:20.999Z</time>
      </trkpt>
      <trkpt lat="47.5258" lon="6.7501">
        <ele>428.5</ele>
        <time>2017-12-17T09:18:21.999Z</time>
      </trkpt>
      <trkpt lat="47.52581" lon="6.75015">
        <ele>428.6</ele>
        <time>2017-12-17T09:18:23.999Z</time>
      </trkpt>
      <trkpt lat="47.52581" lon="6.75018">
        <ele>428.6</ele>
        <time>2017-12-17T09:18:24.999Z</time>
      </trkpt>
      <trkpt lat="47.52582" lon="6.75023">
        <ele>428.7</ele>
        <time>2017-12-17T09:18:26.999Z</time>
      </trkpt>
      <trkpt lat="47.52582" lon="6.75026">
        <ele>428.8</ele>
        <time>2017-12-17T09:18:27.999Z</time>
      </trkpt>
      <trkpt lat="47.52583" lon="6.75031">
        <ele>429</ele>
        <time>2017-12-17T09:18:29.999Z</time>
      </trkpt>
      <trkpt lat="47.52583" lon="6.75033">
        <ele>429</ele>
        <time>2017-12-17T09:18:30.999Z</time>
      </trkpt>
      <trkpt lat="47.52584" lon="6.75036">
        <ele>429.1</ele>
        <time>2017-12-17T09:18:31.999Z</time>
      </trkpt>
      <trkpt lat="47.52585" lon="6.7504">
        <ele>429.2</ele>
        <time>2017-12-17T09:18:32.999Z</time>
      </trkpt>
      <trkpt lat="47.52585" lon="6.75044">
        <ele>429.2</ele>
        <time>2017-12-17T09:18:33.999Z</time>
      </trkpt>
      <trkpt lat="47.52585" lon="6.75047">
        <ele>429.3</ele>
        <time>2017-12-17T09:18:34.999Z</time>
      </trkpt>
      <trkpt lat="47.52585" lon="6.75051">
        <ele>429.3</ele>
        <time>2017-12-17T09:18:35.999Z</time>
      </trkpt>
      <trkpt lat="47.52584" lon="6.75055">
        <ele>429.3</ele>
        <time>2017-12-17T09:18:36.999Z</time>
      </trkpt>
      <trkpt lat="47.52584" lon="6.75058">
        <ele>429.4</ele>
        <time>2017-12-17T09:18:37.999Z</time>
      </trkpt>
      <trkpt lat="47.52584" lon="6.75063">
        <ele>429.5</ele>
        <time>2017-12-17T09:18:38.999Z</time>
      </trkpt>
      <trkpt lat="47.52585" lon="6.75066">
        <ele>429.7</ele>
        <time>2017-12-17T09:18:39.999Z</time>
      </trkpt>
      <trkpt lat="47.52586" lon="6.75069">
        <ele>429.7</ele>
        <time>2017-12-17T09:18:40.999Z</time>
      </trkpt>
      <trkpt lat="47.52588" lon="6.75074">
        <ele>429.8</ele>
        <time>2017-12-17T09:18:41.999Z</time>
      </trkpt>
      <trkpt lat="47.52589" lon="6.75081">
        <ele>429.8</ele>
        <time>2017-12-17T09:18:42.999Z</time>
      </trkpt>
      <trkpt lat="47.5259" lon="6.75086">
        <ele>429.8</ele>
        <time>2017-12-17T09:18:43.999Z</time>
      </trkpt>
      <trkpt lat="47.52591" lon="6.75088">
        <ele>429.8</ele>
        <time>2017-12-17T09:18:44.999Z</time>
      </trkpt>
      <trkpt lat="47.52593" lon="6.7509">
        <ele>429.8</ele>
        <time>2017-12-17T09:18:45.999Z</time>
      </trkpt>
      <trkpt lat="47.52595" lon="6.75094">
        <ele>429.9</ele>
        <time>2017-12-17T09:18:46.999Z</time>
      </trkpt>
      <trkpt lat="47.52594" lon="6.75098">
        <ele>430</ele>
        <time>2017-12-17T09:18:47.999Z</time>
      </trkpt>
      <trkpt lat="47.52595" lon="6.75104">
        <ele>430</ele>
        <time>2017-12-17T09:18:48.999Z</time>
      </trkpt>
      <trkpt lat="47.52595" lon="6.75108">
        <ele>430</ele>
        <time>2017-12-17T09:18:49.999Z</time>
      </trkpt>
      <trkpt lat="47.52597" lon="6.75112">
        <ele>430</ele>
        <time>2017-12-17T09:18:50.999Z</time>
      </trkpt>
      <trkpt lat="47.52599" lon="6.75116">
        <ele>430</ele>
        <time>2017-12-17T09:18:51.999Z</time>
      </trkpt>
      <trkpt lat="47.52601" lon="6.75118">
        <ele>429.9</ele>
        <time>2017-12-17T09:18:52.999Z</time>
      </trkpt>
      <trkpt lat="47.52605" lon="6.75121">
        <ele>429.6</ele>
        <time>2017-12-17T09:18:57.999Z</time>
      </trkpt>
      <trkpt lat="47.52605" lon="6.7512">
        <ele>429.5</ele>
        <time>2017-12-17T09:18:58.999Z</time>
      </trkpt>
      <trkpt lat="47.5261" lon="6.75119">
        <ele>429.1</ele>
        <time>2017-12-17T09:19:03.999Z</time>
      </trkpt>
      <trkpt lat="47.52612" lon="6.75121">
        <ele>429.2</ele>
        <time>2017-12-17T09:19:04.999Z</time>
      </trkpt>
      <trkpt lat="47.52615" lon="6.75125">
        <ele>429.1</ele>
        <time>2017-12-17T09:19:06.999Z</time>
      </trkpt>
      <trkpt lat="47.52616" lon="6.75127">
        <ele>429.1</ele>
        <time>2017-12-17T09:19:07.999Z</time>
      </trkpt>
      <trkpt lat="47.52618" lon="6.7513">
        <ele>429.1</ele>
        <time>2017-12-17T09:19:09.999Z</time>
      </trkpt>
      <trkpt lat="47.5262" lon="6.75132">
        <ele>429.2</ele>
        <time>2017-12-17T09:19:10.999Z</time>
      </trkpt>
      <trkpt lat="47.52622" lon="6.75134">
        <ele>429.2</ele>
        <time>2017-12-17T09:19:11.999Z</time>
      </trkpt>
      <trkpt lat="47.52623" lon="6.75136">
        <ele>429.3</ele>
        <time>2017-12-17T09:19:12.999Z</time>
      </trkpt>
      <trkpt lat="47.52627" lon="6.75138">
        <ele>429.5</ele>
        <time>2017-12-17T09:19:14.999Z</time>
      </trkpt>
      <trkpt lat="47.52628" lon="6.7514">
        <ele>429.6</ele>
        <time>2017-12-17T09:19:15.999Z</time>
      </trkpt>
      <trkpt lat="47.52632" lon="6.75142">
        <ele>430.4</ele>
        <time>2017-12-17T09:19:19.999Z</time>
      </trkpt>
      <trkpt lat="47.52633" lon="6.75143">
        <ele>430.6</ele>
        <time>2017-12-17T09:19:20.999Z</time>
      </trkpt>
      <trkpt lat="47.52636" lon="6.75144">
        <ele>431.1</ele>
        <time>2017-12-17T09:19:22.999Z</time>
      </trkpt>
      <trkpt lat="47.52638" lon="6.75144">
        <ele>431.4</ele>
        <time>2017-12-17T09:19:23.999Z</time>
      </trkpt>
      <trkpt lat="47.52642" lon="6.75145">
        <ele>431.9</ele>
        <time>2017-12-17T09:19:25.999Z</time>
      </trkpt>
      <trkpt lat="47.52643" lon="6.75146">
        <ele>432.1</ele>
        <time>2017-12-17T09:19:26.999Z</time>
      </trkpt>
      <trkpt lat="47.52647" lon="6.75147">
        <ele>432.5</ele>
        <time>2017-12-17T09:19:28.999Z</time>
      </trkpt>
      <trkpt lat="47.52649" lon="6.75147">
        <ele>432.7</ele>
        <time>2017-12-17T09:19:29.999Z</time>
      </trkpt>
      <trkpt lat="47.52653" lon="6.75148">
        <ele>433</ele>
        <time>2017-12-17T09:19:31.999Z</time>
      </trkpt>
      <trkpt lat="47.52655" lon="6.75149">
        <ele>433.1</ele>
        <time>2017-12-17T09:19:32.999Z</time>
      </trkpt>
      <trkpt lat="47.52658" lon="6.7515">
        <ele>433.2</ele>
        <time>2017-12-17T09:19:33.999Z</time>
      </trkpt>
      <trkpt lat="47.5266" lon="6.75151">
        <ele>433.3</ele>
        <time>2017-12-17T09:19:34.999Z</time>
      </trkpt>
      <trkpt lat="47.52663" lon="6.75152">
        <ele>433.3</ele>
        <time>2017-12-17T09:19:35.999Z</time>
      </trkpt>
      <trkpt lat="47.52665" lon="6.75154">
        <ele>433.4</ele>
        <time>2017-12-17T09:19:36.999Z</time>
      </trkpt>
      <trkpt lat="47.52667" lon="6.75155">
        <ele>433.5</ele>
        <time>2017-12-17T09:19:37.999Z</time>
      </trkpt>
      <trkpt lat="47.52669" lon="6.75156">
        <ele>433.6</ele>
        <time>2017-12-17T09:19:38.999Z</time>
      </trkpt>
      <trkpt lat="47.52673" lon="6.75156">
        <ele>433.8</ele>
        <time>2017-12-17T09:19:40.999Z</time>
      </trkpt>
      <trkpt lat="47.52676" lon="6.75157">
        <ele>433.9</ele>
        <time>2017-12-17T09:19:41.999Z</time>
      </trkpt>
      <trkpt lat="47.52678" lon="6.75157">
        <ele>434</ele>
        <time>2017-12-17T09:19:42.999Z</time>
      </trkpt>
      <trkpt lat="47.52681" lon="6.75158">
        <ele>434.1</ele>
        <time>2017-12-17T09:19:43.999Z</time>
      </trkpt>
      <trkpt lat="47.52684" lon="6.7516">
        <ele>434.2</ele>
        <time>2017-12-17T09:19:44.999Z</time>
      </trkpt>
      <trkpt lat="47.52686" lon="6.75162">
        <ele>434.2</ele>
        <time>2017-12-17T09:19:45.999Z</time>
      </trkpt>
      <trkpt lat="47.5269" lon="6.75164">
        <ele>434.1</ele>
        <time>2017-12-17T09:19:47.999Z</time>
      </trkpt>
      <trkpt lat="47.52692" lon="6.75165">
        <ele>434</ele>
        <time>2017-12-17T09:19:48.999Z</time>
      </trkpt>
      <trkpt lat="47.52695" lon="6.75167">
        <ele>434</ele>
        <time>2017-12-17T09:19:50.999Z</time>
      </trkpt>
      <trkpt lat="47.52697" lon="6.75168">
        <ele>434.1</ele>
        <time>2017-12-17T09:19:51.999Z</time>
      </trkpt>
      <trkpt lat="47.52701" lon="6.7517">
        <ele>434</ele>
        <time>2017-12-17T09:19:53.999Z</time>
      </trkpt>
      <trkpt lat="47.52703" lon="6.75171">
        <ele>433.9</ele>
        <time>2017-12-17T09:19:54.999Z</time>
      </trkpt>
      <trkpt lat="47.52705" lon="6.75172">
        <ele>433.8</ele>
        <time>2017-12-17T09:19:55.999Z</time>
      </trkpt>
      <trkpt lat="47.52707" lon="6.75173">
        <ele>433.6</ele>
        <time>2017-12-17T09:19:56.999Z</time>
      </trkpt>
      <trkpt lat="47.52709" lon="6.75175">
        <ele>433.7</ele>
        <time>2017-12-17T09:19:57.999Z</time>
      </trkpt>
      <trkpt lat="47.52711" lon="6.75176">
        <ele>433.7</ele>
        <time>2017-12-17T09:19:58.999Z</time>
      </trkpt>
      <trkpt lat="47.52715" lon="6.75179">
        <ele>433.9</ele>
        <time>2017-12-17T09:20:00.999Z</time>
      </trkpt>
      <trkpt lat="47.52718" lon="6.75181">
        <ele>433.9</ele>
        <time>2017-12-17T09:20:02.999Z</time>
      </trkpt>
      <trkpt lat="47.52722" lon="6.75184">
        <ele>434.1</ele>
        <time>2017-12-17T09:20:04.999Z</time>
      </trkpt>
      <trkpt lat="47.52722" lon="6.75184">
        <ele>434.2</ele>
        <time>2017-12-17T09:20:05.999Z</time>
      </trkpt>
      <trkpt lat="47.52726" lon="6.75186">
        <ele>434.7</ele>
        <time>2017-12-17T09:20:09.999Z</time>
      </trkpt>
      <trkpt lat="47.5273" lon="6.75186">
        <ele>434.8</ele>
        <time>2017-12-17T09:20:10.999Z</time>
      </trkpt>
      <trkpt lat="47.52732" lon="6.75186">
        <ele>434.8</ele>
        <time>2017-12-17T09:20:11.999Z</time>
      </trkpt>
      <trkpt lat="47.52735" lon="6.75187">
        <ele>434.9</ele>
        <time>2017-12-17T09:20:12.999Z</time>
      </trkpt>
      <trkpt lat="47.52737" lon="6.75187">
        <ele>434.9</ele>
        <time>2017-12-17T09:20:13.999Z</time>
      </trkpt>
      <trkpt lat="47.52739" lon="6.75188">
        <ele>434.9</ele>
        <time>2017-12-17T09:20:14.999Z</time>
      </trkpt>
      <trkpt lat="47.52742" lon="6.75189">
        <ele>434.9</ele>
        <time>2017-12-17T09:20:15.999Z</time>
      </trkpt>
      <trkpt lat="47.52745" lon="6.7519">
        <ele>434.9</ele>
        <time>2017-12-17T09:20:16.999Z</time>
      </trkpt>
      <trkpt lat="47.52747" lon="6.75192">
        <ele>434.9</ele>
        <time>2017-12-17T09:20:17.999Z</time>
      </trkpt>
      <trkpt lat="47.52751" lon="6.75194">
        <ele>434.8</ele>
        <time>2017-12-17T09:20:18.999Z</time>
      </trkpt>
      <trkpt lat="47.52755" lon="6.75195">
        <ele>434.7</ele>
        <time>2017-12-17T09:20:19.999Z</time>
      </trkpt>
      <trkpt lat="47.52758" lon="6.75197">
        <ele>434.6</ele>
        <time>2017-12-17T09:20:20.999Z</time>
      </trkpt>
      <trkpt lat="47.52761" lon="6.75198">
        <ele>434.5</ele>
        <time>2017-12-17T09:20:21.999Z</time>
      </trkpt>
      <trkpt lat="47.52765" lon="6.752">
        <ele>434.4</ele>
        <time>2017-12-17T09:20:22.999Z</time>
      </trkpt>
      <trkpt lat="47.52768" lon="6.75201">
        <ele>434.3</ele>
        <time>2017-12-17T09:20:23.999Z</time>
      </trkpt>
      <trkpt lat="47.52773" lon="6.75202">
        <ele>434.1</ele>
        <time>2017-12-17T09:20:24.999Z</time>
      </trkpt>
      <trkpt lat="47.52777" lon="6.75205">
        <ele>433.9</ele>
        <time>2017-12-17T09:20:25.999Z</time>
      </trkpt>
      <trkpt lat="47.52783" lon="6.75207">
        <ele>432.1</ele>
        <time>2017-12-17T09:20:26.999Z</time>
      </trkpt>
      <trkpt lat="47.5279" lon="6.75211">
        <ele>429.2</ele>
        <time>2017-12-17T09:20:27.999Z</time>
      </trkpt>
      <trkpt lat="47.52796" lon="6.75214">
        <ele>427</ele>
        <time>2017-12-17T09:20:28.999Z</time>
      </trkpt>
      <trkpt lat="47.52803" lon="6.75219">
        <ele>424.9</ele>
        <time>2017-12-17T09:20:29.999Z</time>
      </trkpt>
      <trkpt lat="47.5281" lon="6.75223">
        <ele>423.4</ele>
        <time>2017-12-17T09:20:30.999Z</time>
      </trkpt>
      <trkpt lat="47.52817" lon="6.75227">
        <ele>422.6</ele>
        <time>2017-12-17T09:20:31.999Z</time>
      </trkpt>
      <trkpt lat="47.52823" lon="6.7523">
        <ele>421.9</ele>
        <time>2017-12-17T09:20:32.999Z</time>
      </trkpt>
      <trkpt lat="47.52828" lon="6.75232">
        <ele>422</ele>
        <time>2017-12-17T09:20:33.999Z</time>
      </trkpt>
      <trkpt lat="47.52832" lon="6.75233">
        <ele>422.1</ele>
        <time>2017-12-17T09:20:34.999Z</time>
      </trkpt>
      <trkpt lat="47.52837" lon="6.75234">
        <ele>423.3</ele>
        <time>2017-12-17T09:20:35.999Z</time>
      </trkpt>
      <trkpt lat="47.52841" lon="6.75236">
        <ele>423.8</ele>
        <time>2017-12-17T09:20:36.999Z</time>
      </trkpt>
      <trkpt lat="47.52847" lon="6.75238">
        <ele>423.2</ele>
        <time>2017-12-17T09:20:37.999Z</time>
      </trkpt>
      <trkpt lat="47.52855" lon="6.7524">
        <ele>422.6</ele>
        <time>2017-12-17T09:20:38.999Z</time>
      </trkpt>
      <trkpt lat="47.52861" lon="6.75242">
        <ele>422.5</ele>
        <time>2017-12-17T09:20:39.999Z</time>
      </trkpt>
      <trkpt lat="47.52869" lon="6.75247">
        <ele>422.4</ele>
        <time>2017-12-17T09:20:40.999Z</time>
      </trkpt>
      <trkpt lat="47.52874" lon="6.75248">
        <ele>422.2</ele>
        <time>2017-12-17T09:20:41.999Z</time>
      </trkpt>
      <trkpt lat="47.52879" lon="6.7525">
        <ele>422</ele>
        <time>2017-12-17T09:20:42.999Z</time>
      </trkpt>
      <trkpt lat="47.52886" lon="6.75252">
        <ele>421.9</ele>
        <time>2017-12-17T09:20:43.999Z</time>
      </trkpt>
      <trkpt lat="47.52892" lon="6.75255">
        <ele>420.8</ele>
        <time>2017-12-17T09:20:44.999Z</time>
      </trkpt>
      <trkpt lat="47.52896" lon="6.75254">
        <ele>420.7</ele>
        <time>2017-12-17T09:20:45.999Z</time>
      </trkpt>
      <trkpt lat="47.52899" lon="6.75254">
        <ele>420.6</ele>
        <time>2017-12-17T09:20:46.999Z</time>
      </trkpt>
      <trkpt lat="47.52901" lon="6.75258">
        <ele>420.5</ele>
        <time>2017-12-17T09:20:47.999Z</time>
      </trkpt>
      <trkpt lat="47.52904" lon="6.75261">
        <ele>420.2</ele>
        <time>2017-12-17T09:20:48.999Z</time>
      </trkpt>
      <trkpt lat="47.52908" lon="6.75265">
        <ele>420</ele>
        <time>2017-12-17T09:20:49.999Z</time>
      </trkpt>
      <trkpt lat="47.52911" lon="6.75267">
        <ele>419.6</ele>
        <time>2017-12-17T09:20:50.999Z</time>
      </trkpt>
      <trkpt lat="47.52914" lon="6.75271">
        <ele>419.4</ele>
        <time>2017-12-17T09:20:51.999Z</time>
      </trkpt>
      <trkpt lat="47.52916" lon="6.75273">
        <ele>419.3</ele>
        <time>2017-12-17T09:20:52.999Z</time>
      </trkpt>
      <trkpt lat="47.5292" lon="6.75276">
        <ele>419.2</ele>
        <time>2017-12-17T09:20:53.999Z</time>
      </trkpt>
      <trkpt lat="47.52923" lon="6.75278">
        <ele>419.1</ele>
        <time>2017-12-17T09:20:54.999Z</time>
      </trkpt>
      <trkpt lat="47.52925" lon="6.7528">
        <ele>419</ele>
        <time>2017-12-17T09:20:55.999Z</time>
      </trkpt>
      <trkpt lat="47.52928" lon="6.75281">
        <ele>419</ele>
        <time>2017-12-17T09:20:56.999Z</time>
      </trkpt>
      <trkpt lat="47.52932" lon="6.75281">
        <ele>418.9</ele>
        <time>2017-12-17T09:20:57.999Z</time>
      </trkpt>
      <trkpt lat="47.52935" lon="6.7528">
        <ele>418.7</ele>
        <time>2017-12-17T09:20:58.999Z</time>
      </trkpt>
      <trkpt lat="47.52939" lon="6.75277">
        <ele>418.5</ele>
        <time>2017-12-17T09:20:59.999Z</time>
      </trkpt>
      <trkpt lat="47.52941" lon="6.75278">
        <ele>418.4</ele>
        <time>2017-12-17T09:21:00.999Z</time>
      </trkpt>
      <trkpt lat="47.52947" lon="6.75283">
        <ele>418.4</ele>
        <time>2017-12-17T09:21:02.999Z</time>
      </trkpt>
      <trkpt lat="47.52952" lon="6.75284">
        <ele>417.6</ele>
        <time>2017-12-17T09:21:03.999Z</time>
      </trkpt>
      <trkpt lat="47.52958" lon="6.75284">
        <ele>416.7</ele>
        <time>2017-12-17T09:21:04.999Z</time>
      </trkpt>
      <trkpt lat="47.52966" lon="6.75285">
        <ele>416.3</ele>
        <time>2017-12-17T09:21:05.999Z</time>
      </trkpt>
      <trkpt lat="47.52975" lon="6.75287">
        <ele>415.1</ele>
        <time>2017-12-17T09:21:06.999Z</time>
      </trkpt>
      <trkpt lat="47.52984" lon="6.75288">
        <ele>413.5</ele>
        <time>2017-12-17T09:21:07.999Z</time>
      </trkpt>
      <trkpt lat="47.52992" lon="6.75288">
        <ele>411.8</ele>
        <time>2017-12-17T09:21:08.999Z</time>
      </trkpt>
      <trkpt lat="47.52997" lon="6.75288">
        <ele>409.9</ele>
        <time>2017-12-17T09:21:09.999Z</time>
      </trkpt>
      <trkpt lat="47.53002" lon="6.75289">
        <ele>408.8</ele>
        <time>2017-12-17T09:21:10.999Z</time>
      </trkpt>
      <trkpt lat="47.53005" lon="6.75291">
        <ele>408.6</ele>
        <time>2017-12-17T09:21:11.999Z</time>
      </trkpt>
      <trkpt lat="47.53008" lon="6.75291">
        <ele>408.4</ele>
        <time>2017-12-17T09:21:12.999Z</time>
      </trkpt>
      <trkpt lat="47.53011" lon="6.75293">
        <ele>408.3</ele>
        <time>2017-12-17T09:21:13.999Z</time>
      </trkpt>
      <trkpt lat="47.53015" lon="6.75297">
        <ele>408.2</ele>
        <time>2017-12-17T09:21:14.999Z</time>
      </trkpt>
      <trkpt lat="47.53019" lon="6.753">
        <ele>408.1</ele>
        <time>2017-12-17T09:21:15.999Z</time>
      </trkpt>
      <trkpt lat="47.53026" lon="6.75302">
        <ele>406.8</ele>
        <time>2017-12-17T09:21:16.999Z</time>
      </trkpt>
      <trkpt lat="47.53031" lon="6.75304">
        <ele>405.5</ele>
        <time>2017-12-17T09:21:17.999Z</time>
      </trkpt>
      <trkpt lat="47.53036" lon="6.75305">
        <ele>405.4</ele>
        <time>2017-12-17T09:21:18.999Z</time>
      </trkpt>
      <trkpt lat="47.53041" lon="6.75307">
        <ele>405.4</ele>
        <time>2017-12-17T09:21:19.999Z</time>
      </trkpt>
      <trkpt lat="47.53046" lon="6.75308">
        <ele>404.4</ele>
        <time>2017-12-17T09:21:20.999Z</time>
      </trkpt>
      <trkpt lat="47.53049" lon="6.75307">
        <ele>404.2</ele>
        <time>2017-12-17T09:21:21.999Z</time>
      </trkpt>
      <trkpt lat="47.53052" lon="6.75307">
        <ele>404.1</ele>
        <time>2017-12-17T09:21:22.999Z</time>
      </trkpt>
      <trkpt lat="47.53058" lon="6.75309">
        <ele>404</ele>
        <time>2017-12-17T09:21:23.999Z</time>
      </trkpt>
      <trkpt lat="47.53062" lon="6.75312">
        <ele>403.9</ele>
        <time>2017-12-17T09:21:24.999Z</time>
      </trkpt>
      <trkpt lat="47.53066" lon="6.75314">
        <ele>404</ele>
        <time>2017-12-17T09:21:25.999Z</time>
      </trkpt>
      <trkpt lat="47.53071" lon="6.75316">
        <ele>404</ele>
        <time>2017-12-17T09:21:26.999Z</time>
      </trkpt>
      <trkpt lat="47.53073" lon="6.75317">
        <ele>404.2</ele>
        <time>2017-12-17T09:21:27.999Z</time>
      </trkpt>
      <trkpt lat="47.53073" lon="6.75317">
        <ele>405</ele>
        <time>2017-12-17T09:21:31.999Z</time>
      </trkpt>
      <trkpt lat="47.53081" lon="6.75323">
        <ele>405.1</ele>
        <time>2017-12-17T09:21:32.999Z</time>
      </trkpt>
      <trkpt lat="47.53081" lon="6.75323">
        <ele>406.9</ele>
        <time>2017-12-17T09:21:38.999Z</time>
      </trkpt>
      <trkpt lat="47.53088" lon="6.7533">
        <ele>407.3</ele>
        <time>2017-12-17T09:21:39.999Z</time>
      </trkpt>
      <trkpt lat="47.53088" lon="6.7533">
        <ele>411.6</ele>
        <time>2017-12-17T09:21:52.999Z</time>
      </trkpt>
      <trkpt lat="47.53098" lon="6.75338">
        <ele>411.9</ele>
        <time>2017-12-17T09:21:53.999Z</time>
      </trkpt>
      <trkpt lat="47.53098" lon="6.75338">
        <ele>412.9</ele>
        <time>2017-12-17T09:21:58.999Z</time>
      </trkpt>
      <trkpt lat="47.53102" lon="6.75345">
        <ele>413.2</ele>
        <time>2017-12-17T09:21:59.999Z</time>
      </trkpt>
      <trkpt lat="47.53102" lon="6.75345">
        <ele>414.1</ele>
        <time>2017-12-17T09:22:04.999Z</time>
      </trkpt>
      <trkpt lat="47.53109" lon="6.75347">
        <ele>414.3</ele>
        <time>2017-12-17T09:22:05.999Z</time>
      </trkpt>
      <trkpt lat="47.53109" lon="6.75347">
        <ele>417</ele>
        <time>2017-12-17T09:22:49.999Z</time>
      </trkpt>
      <trkpt lat="47.53115" lon="6.75353">
        <ele>417.4</ele>
        <time>2017-12-17T09:22:50.999Z</time>
      </trkpt>
      <trkpt lat="47.53115" lon="6.75353">
        <ele>420</ele>
        <time>2017-12-17T09:22:58.999Z</time>
      </trkpt>
      <trkpt lat="47.53126" lon="6.75361">
        <ele>420.2</ele>
        <time>2017-12-17T09:22:59.999Z</time>
      </trkpt>
      <trkpt lat="47.53126" lon="6.75361">
        <ele>421.1</ele>
        <time>2017-12-17T09:23:03.999Z</time>
      </trkpt>
      <trkpt lat="47.53134" lon="6.75361">
        <ele>421.4</ele>
        <time>2017-12-17T09:23:04.999Z</time>
      </trkpt>
      <trkpt lat="47.53138" lon="6.75363">
        <ele>422.2</ele>
        <time>2017-12-17T09:23:07.999Z</time>
      </trkpt>
      <trkpt lat="47.5314" lon="6.75364">
        <ele>422.3</ele>
        <time>2017-12-17T09:23:08.999Z</time>
      </trkpt>
      <trkpt lat="47.53142" lon="6.75367">
        <ele>424.3</ele>
        <time>2017-12-17T09:23:22.999Z</time>
      </trkpt>
      <trkpt lat="47.53151" lon="6.75374">
        <ele>424.4</ele>
        <time>2017-12-17T09:23:23.999Z</time>
      </trkpt>
      <trkpt lat="47.53151" lon="6.75374">
        <ele>425.5</ele>
        <time>2017-12-17T09:23:31.999Z</time>
      </trkpt>
      <trkpt lat="47.53163" lon="6.75377">
        <ele>425.7</ele>
        <time>2017-12-17T09:23:32.999Z</time>
      </trkpt>
      <trkpt lat="47.53166" lon="6.75378">
        <ele>426.2</ele>
        <time>2017-12-17T09:23:34.999Z</time>
      </trkpt>
      <trkpt lat="47.53168" lon="6.75379">
        <ele>426.4</ele>
        <time>2017-12-17T09:23:35.999Z</time>
      </trkpt>
      <trkpt lat="47.53171" lon="6.7538">
        <ele>427</ele>
        <time>2017-12-17T09:23:37.999Z</time>
      </trkpt>
      <trkpt lat="47.53174" lon="6.7538">
        <ele>427.4</ele>
        <time>2017-12-17T09:23:38.999Z</time>
      </trkpt>
      <trkpt lat="47.53178" lon="6.75381">
        <ele>428.2</ele>
        <time>2017-12-17T09:23:40.999Z</time>
      </trkpt>
      <trkpt lat="47.53179" lon="6.75382">
        <ele>428.4</ele>
        <time>2017-12-17T09:23:41.999Z</time>
      </trkpt>
      <trkpt lat="47.53183" lon="6.75384">
        <ele>429.1</ele>
        <time>2017-12-17T09:23:43.999Z</time>
      </trkpt>
      <trkpt lat="47.53184" lon="6.75384">
        <ele>429.3</ele>
        <time>2017-12-17T09:23:44.999Z</time>
      </trkpt>
      <trkpt lat="47.53185" lon="6.75385">
        <ele>430.9</ele>
        <time>2017-12-17T09:23:52.999Z</time>
      </trkpt>
      <trkpt lat="47.53201" lon="6.75387">
        <ele>431</ele>
        <time>2017-12-17T09:23:53.999Z</time>
      </trkpt>
      <trkpt lat="47.53201" lon="6.75387">
        <ele>431.1</ele>
        <time>2017-12-17T09:23:54.999Z</time>
      </trkpt>
      <trkpt lat="47.53205" lon="6.7539">
        <ele>431.2</ele>
        <time>2017-12-17T09:23:55.999Z</time>
      </trkpt>
      <trkpt lat="47.53208" lon="6.75392">
        <ele>432.3</ele>
        <time>2017-12-17T09:24:05.999Z</time>
      </trkpt>
      <trkpt lat="47.53217" lon="6.75396">
        <ele>432.4</ele>
        <time>2017-12-17T09:24:06.999Z</time>
      </trkpt>
      <trkpt lat="47.5322" lon="6.75397">
        <ele>432.8</ele>
        <time>2017-12-17T09:24:08.999Z</time>
      </trkpt>
      <trkpt lat="47.53222" lon="6.75397">
        <ele>432.9</ele>
        <time>2017-12-17T09:24:09.999Z</time>
      </trkpt>
      <trkpt lat="47.53226" lon="6.75398">
        <ele>433.2</ele>
        <time>2017-12-17T09:24:11.999Z</time>
      </trkpt>
      <trkpt lat="47.53228" lon="6.75399">
        <ele>433.3</ele>
        <time>2017-12-17T09:24:12.999Z</time>
      </trkpt>
      <trkpt lat="47.53232" lon="6.75401">
        <ele>433.5</ele>
        <time>2017-12-17T09:24:14.999Z</time>
      </trkpt>
      <trkpt lat="47.53232" lon="6.75402">
        <ele>433.6</ele>
        <time>2017-12-17T09:24:15.999Z</time>
      </trkpt>
      <trkpt lat="47.53232" lon="6.75402">
        <ele>434.5</ele>
        <time>2017-12-17T09:24:24.999Z</time>
      </trkpt>
      <trkpt lat="47.53241" lon="6.75391">
        <ele>434.6</ele>
        <time>2017-12-17T09:24:25.999Z</time>
      </trkpt>
      <trkpt lat="47.53241" lon="6.75391">
        <ele>434.4</ele>
        <time>2017-12-17T09:24:27.999Z</time>
      </trkpt>
      <trkpt lat="47.53247" lon="6.75383">
        <ele>434.4</ele>
        <time>2017-12-17T09:24:28.999Z</time>
      </trkpt>
      <trkpt lat="47.5325" lon="6.7538">
        <ele>434.4</ele>
        <time>2017-12-17T09:24:30.999Z</time>
      </trkpt>
      <trkpt lat="47.53251" lon="6.75378">
        <ele>434.5</ele>
        <time>2017-12-17T09:24:31.999Z</time>
      </trkpt>
      <trkpt lat="47.53254" lon="6.75375">
        <ele>434.7</ele>
        <time>2017-12-17T09:24:40.999Z</time>
      </trkpt>
      <trkpt lat="47.53258" lon="6.75365">
        <ele>434.8</ele>
        <time>2017-12-17T09:24:41.999Z</time>
      </trkpt>
      <trkpt lat="47.53258" lon="6.75365">
        <ele>436.5</ele>
        <time>2017-12-17T09:24:54.999Z</time>
      </trkpt>
      <trkpt lat="47.53268" lon="6.75355">
        <ele>436.7</ele>
        <time>2017-12-17T09:24:55.999Z</time>
      </trkpt>
      <trkpt lat="47.53268" lon="6.75355">
        <ele>438.4</ele>
        <time>2017-12-17T09:25:02.999Z</time>
      </trkpt>
      <trkpt lat="47.53276" lon="6.75351">
        <ele>438.6</ele>
        <time>2017-12-17T09:25:03.999Z</time>
      </trkpt>
      <trkpt lat="47.53276" lon="6.75351">
        <ele>439</ele>
        <time>2017-12-17T09:25:08.999Z</time>
      </trkpt>
      <trkpt lat="47.53286" lon="6.75347">
        <ele>439</ele>
        <time>2017-12-17T09:25:09.999Z</time>
      </trkpt>
      <trkpt lat="47.53286" lon="6.75347">
        <ele>439.1</ele>
        <time>2017-12-17T09:25:15.999Z</time>
      </trkpt>
      <trkpt lat="47.53295" lon="6.75335">
        <ele>439.3</ele>
        <time>2017-12-17T09:25:16.999Z</time>
      </trkpt>
      <trkpt lat="47.53295" lon="6.75335">
        <ele>440</ele>
        <time>2017-12-17T09:25:23.999Z</time>
      </trkpt>
      <trkpt lat="47.53302" lon="6.75329">
        <ele>440.2</ele>
        <time>2017-12-17T09:25:24.999Z</time>
      </trkpt>
      <trkpt lat="47.53302" lon="6.75329">
        <ele>441</ele>
        <time>2017-12-17T09:25:31.999Z</time>
      </trkpt>
      <trkpt lat="47.53309" lon="6.75321">
        <ele>441.1</ele>
        <time>2017-12-17T09:25:32.999Z</time>
      </trkpt>
      <trkpt lat="47.53309" lon="6.75321">
        <ele>441.3</ele>
        <time>2017-12-17T09:25:36.999Z</time>
      </trkpt>
      <trkpt lat="47.53317" lon="6.75318">
        <ele>441.5</ele>
        <time>2017-12-17T09:25:37.999Z</time>
      </trkpt>
      <trkpt lat="47.53317" lon="6.75318">
        <ele>442.6</ele>
        <time>2017-12-17T09:25:45.999Z</time>
      </trkpt>
      <trkpt lat="47.5333" lon="6.75313">
        <ele>442.8</ele>
        <time>2017-12-17T09:25:46.999Z</time>
      </trkpt>
      <trkpt lat="47.5333" lon="6.75313">
        <ele>445.4</ele>
        <time>2017-12-17T09:25:55.999Z</time>
      </trkpt>
      <trkpt lat="47.53341" lon="6.75311">
        <ele>445.8</ele>
        <time>2017-12-17T09:25:56.999Z</time>
      </trkpt>
      <trkpt lat="47.53341" lon="6.75311">
        <ele>447.9</ele>
        <time>2017-12-17T09:26:04.999Z</time>
      </trkpt>
      <trkpt lat="47.53353" lon="6.75299">
        <ele>448.1</ele>
        <time>2017-12-17T09:26:05.999Z</time>
      </trkpt>
      <trkpt lat="47.53353" lon="6.75299">
        <ele>448.9</ele>
        <time>2017-12-17T09:26:08.999Z</time>
      </trkpt>
      <trkpt lat="47.53358" lon="6.75296">
        <ele>449.1</ele>
        <time>2017-12-17T09:26:09.999Z</time>
      </trkpt>
      <trkpt lat="47.53362" lon="6.75293">
        <ele>449.7</ele>
        <time>2017-12-17T09:26:13.999Z</time>
      </trkpt>
      <trkpt lat="47.53362" lon="6.75293">
        <ele>449.9</ele>
        <time>2017-12-17T09:26:14.999Z</time>
      </trkpt>
      <trkpt lat="47.53366" lon="6.75292">
        <ele>450.6</ele>
        <time>2017-12-17T09:26:18.999Z</time>
      </trkpt>
      <trkpt lat="47.53367" lon="6.75291">
        <ele>450.8</ele>
        <time>2017-12-17T09:26:19.999Z</time>
      </trkpt>
      <trkpt lat="47.53371" lon="6.7529">
        <ele>451.2</ele>
        <time>2017-12-17T09:26:21.999Z</time>
      </trkpt>
      <trkpt lat="47.53374" lon="6.75289">
        <ele>451.2</ele>
        <time>2017-12-17T09:26:22.999Z</time>
      </trkpt>
      <trkpt lat="47.53377" lon="6.75289">
        <ele>451.2</ele>
        <time>2017-12-17T09:26:24.999Z</time>
      </trkpt>
      <trkpt lat="47.5338" lon="6.75287">
        <ele>451.2</ele>
        <time>2017-12-17T09:26:25.999Z</time>
      </trkpt>
      <trkpt lat="47.53384" lon="6.75286">
        <ele>451.4</ele>
        <time>2017-12-17T09:26:27.999Z</time>
      </trkpt>
      <trkpt lat="47.53386" lon="6.75286">
        <ele>451.5</ele>
        <time>2017-12-17T09:26:28.999Z</time>
      </trkpt>
      <trkpt lat="47.5339" lon="6.75284">
        <ele>451.7</ele>
        <time>2017-12-17T09:26:30.999Z</time>
      </trkpt>
      <trkpt lat="47.53391" lon="6.75283">
        <ele>451.8</ele>
        <time>2017-12-17T09:26:31.999Z</time>
      </trkpt>
      <trkpt lat="47.53394" lon="6.75282">
        <ele>451.8</ele>
        <time>2017-12-17T09:26:33.999Z</time>
      </trkpt>
      <trkpt lat="47.53396" lon="6.75279">
        <ele>451.9</ele>
        <time>2017-12-17T09:26:34.999Z</time>
      </trkpt>
      <trkpt lat="47.534" lon="6.75276">
        <ele>451.9</ele>
        <time>2017-12-17T09:26:37.999Z</time>
      </trkpt>
      <trkpt lat="47.53401" lon="6.75275">
        <ele>451.8</ele>
        <time>2017-12-17T09:26:38.999Z</time>
      </trkpt>
      <trkpt lat="47.53404" lon="6.75272">
        <ele>451.5</ele>
        <time>2017-12-17T09:26:42.999Z</time>
      </trkpt>
      <trkpt lat="47.53405" lon="6.75271">
        <ele>451.6</ele>
        <time>2017-12-17T09:26:43.999Z</time>
      </trkpt>
      <trkpt lat="47.5341" lon="6.75269">
        <ele>451.5</ele>
        <time>2017-12-17T09:26:45.999Z</time>
      </trkpt>
      <trkpt lat="47.53411" lon="6.75268">
        <ele>451.4</ele>
        <time>2017-12-17T09:26:46.999Z</time>
      </trkpt>
      <trkpt lat="47.53414" lon="6.75266">
        <ele>451.8</ele>
        <time>2017-12-17T09:26:50.999Z</time>
      </trkpt>
      <trkpt lat="47.53416" lon="6.75266">
        <ele>451.9</ele>
        <time>2017-12-17T09:26:51.999Z</time>
      </trkpt>
      <trkpt lat="47.5342" lon="6.75267">
        <ele>452.1</ele>
        <time>2017-12-17T09:26:52.999Z</time>
      </trkpt>
      <trkpt lat="47.53421" lon="6.75267">
        <ele>452.4</ele>
        <time>2017-12-17T09:26:53.999Z</time>
      </trkpt>
      <trkpt lat="47.53425" lon="6.75268">
        <ele>452.8</ele>
        <time>2017-12-17T09:26:55.999Z</time>
      </trkpt>
      <trkpt lat="47.53426" lon="6.75269">
        <ele>452.9</ele>
        <time>2017-12-17T09:26:56.999Z</time>
      </trkpt>
      <trkpt lat="47.53427" lon="6.75269">
        <ele>453.1</ele>
        <time>2017-12-17T09:26:58.999Z</time>
      </trkpt>
      <trkpt lat="47.5343" lon="6.75268">
        <ele>453.3</ele>
        <time>2017-12-17T09:26:59.999Z</time>
      </trkpt>
      <trkpt lat="47.53435" lon="6.75268">
        <ele>453.5</ele>
        <time>2017-12-17T09:27:02.999Z</time>
      </trkpt>
      <trkpt lat="47.53435" lon="6.75268">
        <ele>453.6</ele>
        <time>2017-12-17T09:27:03.999Z</time>
      </trkpt>
      <trkpt lat="47.53439" lon="6.75269">
        <ele>454</ele>
        <time>2017-12-17T09:27:07.999Z</time>
      </trkpt>
      <trkpt lat="47.5344" lon="6.75269">
        <ele>454</ele>
        <time>2017-12-17T09:27:08.999Z</time>
      </trkpt>
      <trkpt lat="47.53443" lon="6.7527">
        <ele>454.1</ele>
        <time>2017-12-17T09:27:09.999Z</time>
      </trkpt>
      <trkpt lat="47.53445" lon="6.7527">
        <ele>454.2</ele>
        <time>2017-12-17T09:27:10.999Z</time>
      </trkpt>
      <trkpt lat="47.53449" lon="6.7527">
        <ele>454.2</ele>
        <time>2017-12-17T09:27:12.999Z</time>
      </trkpt>
      <trkpt lat="47.53451" lon="6.7527">
        <ele>454.3</ele>
        <time>2017-12-17T09:27:13.999Z</time>
      </trkpt>
      <trkpt lat="47.53454" lon="6.75271">
        <ele>454.7</ele>
        <time>2017-12-17T09:27:16.999Z</time>
      </trkpt>
      <trkpt lat="47.53456" lon="6.7527">
        <ele>454.7</ele>
        <time>2017-12-17T09:27:17.999Z</time>
      </trkpt>
      <trkpt lat="47.5346" lon="6.75269">
        <ele>454.9</ele>
        <time>2017-12-17T09:27:19.999Z</time>
      </trkpt>
      <trkpt lat="47.53463" lon="6.75268">
        <ele>454.9</ele>
        <time>2017-12-17T09:27:20.999Z</time>
      </trkpt>
      <trkpt lat="47.53466" lon="6.75267">
        <ele>454.9</ele>
        <time>2017-12-17T09:27:21.999Z</time>
      </trkpt>
      <trkpt lat="47.53468" lon="6.75267">
        <ele>455</ele>
        <time>2017-12-17T09:27:22.999Z</time>
      </trkpt>
      <trkpt lat="47.5347" lon="6.75267">
        <ele>455.1</ele>
        <time>2017-12-17T09:27:23.999Z</time>
      </trkpt>
      <trkpt lat="47.53472" lon="6.75266">
        <ele>455.1</ele>
        <time>2017-12-17T09:27:24.999Z</time>
      </trkpt>
      <trkpt lat="47.53476" lon="6.75266">
        <ele>455.3</ele>
        <time>2017-12-17T09:27:26.999Z</time>
      </trkpt>
      <trkpt lat="47.53478" lon="6.75266">
        <ele>455.5</ele>
        <time>2017-12-17T09:27:27.999Z</time>
      </trkpt>
      <trkpt lat="47.53482" lon="6.75266">
        <ele>456.2</ele>
        <time>2017-12-17T09:27:31.999Z</time>
      </trkpt>
      <trkpt lat="47.53484" lon="6.75265">
        <ele>456.2</ele>
        <time>2017-12-17T09:27:32.999Z</time>
      </trkpt>
      <trkpt lat="47.53488" lon="6.75265">
        <ele>456.4</ele>
        <time>2017-12-17T09:27:35.999Z</time>
      </trkpt>
      <trkpt lat="47.5349" lon="6.75265">
        <ele>456.4</ele>
        <time>2017-12-17T09:27:36.999Z</time>
      </trkpt>
      <trkpt lat="47.53494" lon="6.75264">
        <ele>456.5</ele>
        <time>2017-12-17T09:27:39.999Z</time>
      </trkpt>
      <trkpt lat="47.53497" lon="6.75265">
        <ele>456.5</ele>
        <time>2017-12-17T09:27:40.999Z</time>
      </trkpt>
      <trkpt lat="47.535" lon="6.75266">
        <ele>456.6</ele>
        <time>2017-12-17T09:27:41.999Z</time>
      </trkpt>
      <trkpt lat="47.53504" lon="6.75267">
        <ele>456.7</ele>
        <time>2017-12-17T09:27:42.999Z</time>
      </trkpt>
      <trkpt lat="47.53507" lon="6.75267">
        <ele>456.9</ele>
        <time>2017-12-17T09:27:43.999Z</time>
      </trkpt>
      <trkpt lat="47.5351" lon="6.75268">
        <ele>457.1</ele>
        <time>2017-12-17T09:27:44.999Z</time>
      </trkpt>
      <trkpt lat="47.53514" lon="6.75268">
        <ele>457.6</ele>
        <time>2017-12-17T09:27:46.999Z</time>
      </trkpt>
      <trkpt lat="47.53516" lon="6.75268">
        <ele>457.8</ele>
        <time>2017-12-17T09:27:47.999Z</time>
      </trkpt>
      <trkpt lat="47.5352" lon="6.75267">
        <ele>458</ele>
        <time>2017-12-17T09:27:49.999Z</time>
      </trkpt>
      <trkpt lat="47.53521" lon="6.75266">
        <ele>458</ele>
        <time>2017-12-17T09:27:50.999Z</time>
      </trkpt>
      <trkpt lat="47.53524" lon="6.75265">
        <ele>458.3</ele>
        <time>2017-12-17T09:27:52.999Z</time>
      </trkpt>
      <trkpt lat="47.53526" lon="6.75265">
        <ele>458.4</ele>
        <time>2017-12-17T09:27:53.999Z</time>
      </trkpt>
      <trkpt lat="47.5353" lon="6.75264">
        <ele>458.7</ele>
        <time>2017-12-17T09:27:56.999Z</time>
      </trkpt>
      <trkpt lat="47.53533" lon="6.75264">
        <ele>458.8</ele>
        <time>2017-12-17T09:27:57.999Z</time>
      </trkpt>
      <trkpt lat="47.53537" lon="6.75264">
        <ele>459</ele>
        <time>2017-12-17T09:27:59.999Z</time>
      </trkpt>
      <trkpt lat="47.5354" lon="6.75264">
        <ele>459.2</ele>
        <time>2017-12-17T09:28:00.999Z</time>
      </trkpt>
      <trkpt lat="47.53543" lon="6.75264">
        <ele>459.5</ele>
        <time>2017-12-17T09:28:02.999Z</time>
      </trkpt>
      <trkpt lat="47.53545" lon="6.75264">
        <ele>459.7</ele>
        <time>2017-12-17T09:28:03.999Z</time>
      </trkpt>
      <trkpt lat="47.53549" lon="6.75265">
        <ele>460.4</ele>
        <time>2017-12-17T09:28:06.999Z</time>
      </trkpt>
      <trkpt lat="47.53551" lon="6.75265">
        <ele>460.7</ele>
        <time>2017-12-17T09:28:07.999Z</time>
      </trkpt>
      <trkpt lat="47.53554" lon="6.75264">
        <ele>461.3</ele>
        <time>2017-12-17T09:28:09.999Z</time>
      </trkpt>
      <trkpt lat="47.53555" lon="6.75263">
        <ele>461.5</ele>
        <time>2017-12-17T09:28:10.999Z</time>
      </trkpt>
      <trkpt lat="47.53559" lon="6.75262">
        <ele>461.8</ele>
        <time>2017-12-17T09:28:13.999Z</time>
      </trkpt>
      <trkpt lat="47.53561" lon="6.75262">
        <ele>461.8</ele>
        <time>2017-12-17T09:28:14.999Z</time>
      </trkpt>
      <trkpt lat="47.53565" lon="6.7526">
        <ele>461.6</ele>
        <time>2017-12-17T09:28:17.999Z</time>
      </trkpt>
      <trkpt lat="47.53566" lon="6.7526">
        <ele>461.6</ele>
        <time>2017-12-17T09:28:18.999Z</time>
      </trkpt>
      <trkpt lat="47.53569" lon="6.75257">
        <ele>461.6</ele>
        <time>2017-12-17T09:28:20.999Z</time>
      </trkpt>
      <trkpt lat="47.5357" lon="6.75255">
        <ele>461.4</ele>
        <time>2017-12-17T09:28:21.999Z</time>
      </trkpt>
      <trkpt lat="47.53573" lon="6.75251">
        <ele>461</ele>
        <time>2017-12-17T09:28:23.999Z</time>
      </trkpt>
      <trkpt lat="47.53574" lon="6.7525">
        <ele>460.9</ele>
        <time>2017-12-17T09:28:24.999Z</time>
      </trkpt>
      <trkpt lat="47.53577" lon="6.75247">
        <ele>460.7</ele>
        <time>2017-12-17T09:28:27.999Z</time>
      </trkpt>
      <trkpt lat="47.53578" lon="6.75245">
        <ele>460.8</ele>
        <time>2017-12-17T09:28:28.999Z</time>
      </trkpt>
      <trkpt lat="47.53582" lon="6.75245">
        <ele>460.9</ele>
        <time>2017-12-17T09:28:29.999Z</time>
      </trkpt>
      <trkpt lat="47.53586" lon="6.75244">
        <ele>461.1</ele>
        <time>2017-12-17T09:28:30.999Z</time>
      </trkpt>
      <trkpt lat="47.53589" lon="6.75242">
        <ele>461.2</ele>
        <time>2017-12-17T09:28:31.999Z</time>
      </trkpt>
      <trkpt lat="47.53592" lon="6.7524">
        <ele>461.3</ele>
        <time>2017-12-17T09:28:32.999Z</time>
      </trkpt>
      <trkpt lat="47.53595" lon="6.75239">
        <ele>461.3</ele>
        <time>2017-12-17T09:28:34.999Z</time>
      </trkpt>
      <trkpt lat="47.53596" lon="6.75237">
        <ele>461.3</ele>
        <time>2017-12-17T09:28:35.999Z</time>
      </trkpt>
      <trkpt lat="47.536" lon="6.75233">
        <ele>461.6</ele>
        <time>2017-12-17T09:28:39.999Z</time>
      </trkpt>
      <trkpt lat="47.53601" lon="6.75233">
        <ele>461.7</ele>
        <time>2017-12-17T09:28:40.999Z</time>
      </trkpt>
      <trkpt lat="47.53603" lon="6.75232">
        <ele>461.8</ele>
        <time>2017-12-17T09:28:42.999Z</time>
      </trkpt>
      <trkpt lat="47.53606" lon="6.75232">
        <ele>461.8</ele>
        <time>2017-12-17T09:28:43.999Z</time>
      </trkpt>
      <trkpt lat="47.53607" lon="6.75232">
        <ele>461.9</ele>
        <time>2017-12-17T09:28:44.999Z</time>
      </trkpt>
      <trkpt lat="47.5361" lon="6.75231">
        <ele>462</ele>
        <time>2017-12-17T09:28:45.999Z</time>
      </trkpt>
      <trkpt lat="47.53614" lon="6.7523">
        <ele>462</ele>
        <time>2017-12-17T09:28:46.999Z</time>
      </trkpt>
      <trkpt lat="47.53617" lon="6.75229">
        <ele>461.9</ele>
        <time>2017-12-17T09:28:47.999Z</time>
      </trkpt>
      <trkpt lat="47.5362" lon="6.75228">
        <ele>461.9</ele>
        <time>2017-12-17T09:28:48.999Z</time>
      </trkpt>
      <trkpt lat="47.53622" lon="6.75228">
        <ele>462</ele>
        <time>2017-12-17T09:28:49.999Z</time>
      </trkpt>
      <trkpt lat="47.53626" lon="6.75226">
        <ele>462.3</ele>
        <time>2017-12-17T09:28:52.999Z</time>
      </trkpt>
      <trkpt lat="47.53627" lon="6.75225">
        <ele>462.4</ele>
        <time>2017-12-17T09:28:53.999Z</time>
      </trkpt>
      <trkpt lat="47.5363" lon="6.75223">
        <ele>462.7</ele>
        <time>2017-12-17T09:28:56.999Z</time>
      </trkpt>
      <trkpt lat="47.53632" lon="6.75223">
        <ele>462.8</ele>
        <time>2017-12-17T09:28:57.999Z</time>
      </trkpt>
      <trkpt lat="47.53636" lon="6.75221">
        <ele>462.8</ele>
        <time>2017-12-17T09:29:00.999Z</time>
      </trkpt>
      <trkpt lat="47.53639" lon="6.7522">
        <ele>463</ele>
        <time>2017-12-17T09:29:02.999Z</time>
      </trkpt>
      <trkpt lat="47.53642" lon="6.75219">
        <ele>463.1</ele>
        <time>2017-12-17T09:29:03.999Z</time>
      </trkpt>
      <trkpt lat="47.53644" lon="6.75219">
        <ele>463.2</ele>
        <time>2017-12-17T09:29:04.999Z</time>
      </trkpt>
      <trkpt lat="47.53647" lon="6.75219">
        <ele>464</ele>
        <time>2017-12-17T09:29:08.999Z</time>
      </trkpt>
      <trkpt lat="47.53648" lon="6.75219">
        <ele>464.3</ele>
        <time>2017-12-17T09:29:09.999Z</time>
      </trkpt>
      <trkpt lat="47.53652" lon="6.75218">
        <ele>465.2</ele>
        <time>2017-12-17T09:29:13.999Z</time>
      </trkpt>
      <trkpt lat="47.53653" lon="6.75218">
        <ele>465.5</ele>
        <time>2017-12-17T09:29:14.999Z</time>
      </trkpt>
      <trkpt lat="47.53657" lon="6.7522">
        <ele>466.4</ele>
        <time>2017-12-17T09:29:17.999Z</time>
      </trkpt>
      <trkpt lat="47.53658" lon="6.7522">
        <ele>466.8</ele>
        <time>2017-12-17T09:29:18.999Z</time>
      </trkpt>
      <trkpt lat="47.53662" lon="6.75219">
        <ele>468</ele>
        <time>2017-12-17T09:29:22.999Z</time>
      </trkpt>
      <trkpt lat="47.53662" lon="6.75218">
        <ele>468.2</ele>
        <time>2017-12-17T09:29:23.999Z</time>
      </trkpt>
      <trkpt lat="47.53666" lon="6.75214">
        <ele>468.6</ele>
        <time>2017-12-17T09:29:26.999Z</time>
      </trkpt>
      <trkpt lat="47.53667" lon="6.75212">
        <ele>468.7</ele>
        <time>2017-12-17T09:29:27.999Z</time>
      </trkpt>
      <trkpt lat="47.53669" lon="6.75209">
        <ele>468.9</ele>
        <time>2017-12-17T09:29:29.999Z</time>
      </trkpt>
      <trkpt lat="47.53669" lon="6.75207">
        <ele>469.1</ele>
        <time>2017-12-17T09:29:30.999Z</time>
      </trkpt>
      <trkpt lat="47.53671" lon="6.75202">
        <ele>469.3</ele>
        <time>2017-12-17T09:29:32.999Z</time>
      </trkpt>
      <trkpt lat="47.53671" lon="6.752">
        <ele>469.3</ele>
        <time>2017-12-17T09:29:33.999Z</time>
      </trkpt>
      <trkpt lat="47.53672" lon="6.75194">
        <ele>470</ele>
        <time>2017-12-17T09:29:37.999Z</time>
      </trkpt>
      <trkpt lat="47.53672" lon="6.75192">
        <ele>470.2</ele>
        <time>2017-12-17T09:29:38.999Z</time>
      </trkpt>
      <trkpt lat="47.53674" lon="6.75186">
        <ele>470.9</ele>
        <time>2017-12-17T09:29:42.999Z</time>
      </trkpt>
      <trkpt lat="47.53674" lon="6.75185">
        <ele>471.2</ele>
        <time>2017-12-17T09:29:43.999Z</time>
      </trkpt>
      <trkpt lat="47.53676" lon="6.7518">
        <ele>472</ele>
        <time>2017-12-17T09:29:48.999Z</time>
      </trkpt>
      <trkpt lat="47.53677" lon="6.75178">
        <ele>472.1</ele>
        <time>2017-12-17T09:29:49.999Z</time>
      </trkpt>
      <trkpt lat="47.53678" lon="6.75172">
        <ele>472.2</ele>
        <time>2017-12-17T09:29:52.999Z</time>
      </trkpt>
      <trkpt lat="47.53678" lon="6.7517">
        <ele>472.3</ele>
        <time>2017-12-17T09:29:53.999Z</time>
      </trkpt>
      <trkpt lat="47.53679" lon="6.75165">
        <ele>472.6</ele>
        <time>2017-12-17T09:29:55.999Z</time>
      </trkpt>
      <trkpt lat="47.5368" lon="6.75163">
        <ele>472.7</ele>
        <time>2017-12-17T09:29:56.999Z</time>
      </trkpt>
      <trkpt lat="47.53683" lon="6.75158">
        <ele>473.3</ele>
        <time>2017-12-17T09:30:00.999Z</time>
      </trkpt>
      <trkpt lat="47.53684" lon="6.75156">
        <ele>473.5</ele>
        <time>2017-12-17T09:30:01.999Z</time>
      </trkpt>
      <trkpt lat="47.53687" lon="6.75151">
        <ele>474.7</ele>
        <time>2017-12-17T09:30:07.999Z</time>
      </trkpt>
      <trkpt lat="47.53687" lon="6.7515">
        <ele>474.8</ele>
        <time>2017-12-17T09:30:08.999Z</time>
      </trkpt>
      <trkpt lat="47.53689" lon="6.75145">
        <ele>474.9</ele>
        <time>2017-12-17T09:30:11.999Z</time>
      </trkpt>
      <trkpt lat="47.5369" lon="6.75143">
        <ele>475</ele>
        <time>2017-12-17T09:30:12.999Z</time>
      </trkpt>
      <trkpt lat="47.53692" lon="6.75139">
        <ele>475.1</ele>
        <time>2017-12-17T09:30:15.999Z</time>
      </trkpt>
      <trkpt lat="47.53692" lon="6.75137">
        <ele>475.3</ele>
        <time>2017-12-17T09:30:16.999Z</time>
      </trkpt>
      <trkpt lat="47.53694" lon="6.75133">
        <ele>475.8</ele>
        <time>2017-12-17T09:30:19.999Z</time>
      </trkpt>
      <trkpt lat="47.53694" lon="6.75131">
        <ele>475.8</ele>
        <time>2017-12-17T09:30:20.999Z</time>
      </trkpt>
      <trkpt lat="47.53697" lon="6.75126">
        <ele>476.2</ele>
        <time>2017-12-17T09:30:24.999Z</time>
      </trkpt>
      <trkpt lat="47.53698" lon="6.75124">
        <ele>476.3</ele>
        <time>2017-12-17T09:30:25.999Z</time>
      </trkpt>
      <trkpt lat="47.53699" lon="6.7512">
        <ele>477</ele>
        <time>2017-12-17T09:30:29.999Z</time>
      </trkpt>
      <trkpt lat="47.537" lon="6.75116">
        <ele>477.1</ele>
        <time>2017-12-17T09:30:30.999Z</time>
      </trkpt>
      <trkpt lat="47.53702" lon="6.75111">
        <ele>477.3</ele>
        <time>2017-12-17T09:30:32.999Z</time>
      </trkpt>
      <trkpt lat="47.53703" lon="6.7511">
        <ele>477.3</ele>
        <time>2017-12-17T09:30:33.999Z</time>
      </trkpt>
      <trkpt lat="47.53706" lon="6.75105">
        <ele>477.5</ele>
        <time>2017-12-17T09:30:35.999Z</time>
      </trkpt>
      <trkpt lat="47.53706" lon="6.75104">
        <ele>477.5</ele>
        <time>2017-12-17T09:30:36.999Z</time>
      </trkpt>
      <trkpt lat="47.53709" lon="6.751">
        <ele>477.6</ele>
        <time>2017-12-17T09:30:39.999Z</time>
      </trkpt>
      <trkpt lat="47.5371" lon="6.75098">
        <ele>477.5</ele>
        <time>2017-12-17T09:30:40.999Z</time>
      </trkpt>
      <trkpt lat="47.53713" lon="6.75093">
        <ele>477.8</ele>
        <time>2017-12-17T09:30:44.999Z</time>
      </trkpt>
      <trkpt lat="47.53713" lon="6.75092">
        <ele>477.9</ele>
        <time>2017-12-17T09:30:45.999Z</time>
      </trkpt>
      <trkpt lat="47.53716" lon="6.75087">
        <ele>478.5</ele>
        <time>2017-12-17T09:30:48.999Z</time>
      </trkpt>
      <trkpt lat="47.53717" lon="6.75085">
        <ele>478.7</ele>
        <time>2017-12-17T09:30:49.999Z</time>
      </trkpt>
      <trkpt lat="47.5372" lon="6.75081">
        <ele>479.2</ele>
        <time>2017-12-17T09:30:53.999Z</time>
      </trkpt>
      <trkpt lat="47.53721" lon="6.75079">
        <ele>479.3</ele>
        <time>2017-12-17T09:30:54.999Z</time>
      </trkpt>
      <trkpt lat="47.53723" lon="6.75075">
        <ele>479.6</ele>
        <time>2017-12-17T09:30:56.999Z</time>
      </trkpt>
      <trkpt lat="47.53724" lon="6.75073">
        <ele>479.8</ele>
        <time>2017-12-17T09:30:57.999Z</time>
      </trkpt>
      <trkpt lat="47.53726" lon="6.7507">
        <ele>480</ele>
        <time>2017-12-17T09:30:59.999Z</time>
      </trkpt>
      <trkpt lat="47.53727" lon="6.75068">
        <ele>480</ele>
        <time>2017-12-17T09:31:00.999Z</time>
      </trkpt>
      <trkpt lat="47.53731" lon="6.75067">
        <ele>480.3</ele>
        <time>2017-12-17T09:31:08.999Z</time>
      </trkpt>
      <trkpt lat="47.53732" lon="6.75068">
        <ele>480.3</ele>
        <time>2017-12-17T09:31:09.999Z</time>
      </trkpt>
      <trkpt lat="47.53734" lon="6.75073">
        <ele>480.1</ele>
        <time>2017-12-17T09:31:18.999Z</time>
      </trkpt>
      <trkpt lat="47.53734" lon="6.75075">
        <ele>480.1</ele>
        <time>2017-12-17T09:31:19.999Z</time>
      </trkpt>
      <trkpt lat="47.53733" lon="6.7508">
        <ele>480</ele>
        <time>2017-12-17T09:31:21.999Z</time>
      </trkpt>
      <trkpt lat="47.53733" lon="6.75082">
        <ele>480</ele>
        <time>2017-12-17T09:31:22.999Z</time>
      </trkpt>
      <trkpt lat="47.53729" lon="6.75085">
        <ele>476.1</ele>
        <time>2017-12-17T09:31:36.999Z</time>
      </trkpt>
      <trkpt lat="47.53729" lon="6.75085">
        <ele>476.1</ele>
        <time>2017-12-17T09:31:37.999Z</time>
      </trkpt>
      <trkpt lat="47.53728" lon="6.75082">
        <ele>480.8</ele>
        <time>2017-12-17T09:34:51.000Z</time>
      </trkpt>
      <trkpt lat="47.53728" lon="6.75078">
        <ele>481.2</ele>
        <time>2017-12-17T09:34:52.000Z</time>
      </trkpt>
      <trkpt lat="47.53731" lon="6.75075">
        <ele>479.4</ele>
        <time>2017-12-17T09:37:16.000Z</time>
      </trkpt>
      <trkpt lat="47.53732" lon="6.75074">
        <ele>478.7</ele>
        <time>2017-12-17T09:37:17.000Z</time>
      </trkpt>
      <trkpt lat="47.53734" lon="6.75068">
        <ele>477.7</ele>
        <time>2017-12-17T09:37:19.000Z</time>
      </trkpt>
      <trkpt lat="47.53734" lon="6.75066">
        <ele>477.3</ele>
        <time>2017-12-17T09:37:20.000Z</time>
      </trkpt>
      <trkpt lat="47.53734" lon="6.75059">
        <ele>476.9</ele>
        <time>2017-12-17T09:37:22.000Z</time>
      </trkpt>
      <trkpt lat="47.53734" lon="6.75056">
        <ele>476.8</ele>
        <time>2017-12-17T09:37:23.000Z</time>
      </trkpt>
      <trkpt lat="47.53735" lon="6.75051">
        <ele>476.7</ele>
        <time>2017-12-17T09:37:25.000Z</time>
      </trkpt>
      <trkpt lat="47.53736" lon="6.75048">
        <ele>476.8</ele>
        <time>2017-12-17T09:37:26.000Z</time>
      </trkpt>
      <trkpt lat="47.53738" lon="6.75045">
        <ele>476.7</ele>
        <time>2017-12-17T09:37:27.000Z</time>
      </trkpt>
      <trkpt lat="47.5374" lon="6.75042">
        <ele>476.7</ele>
        <time>2017-12-17T09:37:28.000Z</time>
      </trkpt>
      <trkpt lat="47.53743" lon="6.75037">
        <ele>476.6</ele>
        <time>2017-12-17T09:37:31.000Z</time>
      </trkpt>
      <trkpt lat="47.53744" lon="6.75034">
        <ele>476.7</ele>
        <time>2017-12-17T09:37:32.000Z</time>
      </trkpt>
      <trkpt lat="47.53746" lon="6.75031">
        <ele>476.7</ele>
        <time>2017-12-17T09:37:33.000Z</time>
      </trkpt>
      <trkpt lat="47.53749" lon="6.75027">
        <ele>476.7</ele>
        <time>2017-12-17T09:37:34.000Z</time>
      </trkpt>
      <trkpt lat="47.5375" lon="6.75023">
        <ele>476.6</ele>
        <time>2017-12-17T09:37:35.000Z</time>
      </trkpt>
      <trkpt lat="47.53751" lon="6.7502">
        <ele>476.4</ele>
        <time>2017-12-17T09:37:36.000Z</time>
      </trkpt>
      <trkpt lat="47.53753" lon="6.75015">
        <ele>476.2</ele>
        <time>2017-12-17T09:37:38.000Z</time>
      </trkpt>
      <trkpt lat="47.53754" lon="6.75013">
        <ele>476.1</ele>
        <time>2017-12-17T09:37:39.000Z</time>
      </trkpt>
      <trkpt lat="47.53754" lon="6.7501">
        <ele>475.8</ele>
        <time>2017-12-17T09:37:40.000Z</time>
      </trkpt>
      <trkpt lat="47.53755" lon="6.75006">
        <ele>475.8</ele>
        <time>2017-12-17T09:37:41.000Z</time>
      </trkpt>
      <trkpt lat="47.53755" lon="6.75001">
        <ele>475.7</ele>
        <time>2017-12-17T09:37:42.000Z</time>
      </trkpt>
      <trkpt lat="47.53755" lon="6.74996">
        <ele>475.5</ele>
        <time>2017-12-17T09:37:43.000Z</time>
      </trkpt>
      <trkpt lat="47.53755" lon="6.74991">
        <ele>475.5</ele>
        <time>2017-12-17T09:37:44.000Z</time>
      </trkpt>
      <trkpt lat="47.53755" lon="6.74986">
        <ele>475.4</ele>
        <time>2017-12-17T09:37:45.000Z</time>
      </trkpt>
      <trkpt lat="47.53755" lon="6.7498">
        <ele>475.4</ele>
        <time>2017-12-17T09:37:48.000Z</time>
      </trkpt>
      <trkpt lat="47.53755" lon="6.74978">
        <ele>475.4</ele>
        <time>2017-12-17T09:37:49.000Z</time>
      </trkpt>
      <trkpt lat="47.53755" lon="6.74974">
        <ele>475.3</ele>
        <time>2017-12-17T09:37:51.000Z</time>
      </trkpt>
      <trkpt lat="47.53755" lon="6.74971">
        <ele>475.3</ele>
        <time>2017-12-17T09:37:52.000Z</time>
      </trkpt>
      <trkpt lat="47.53756" lon="6.74965">
        <ele>475.3</ele>
        <time>2017-12-17T09:37:54.000Z</time>
      </trkpt>
      <trkpt lat="47.53756" lon="6.74963">
        <ele>475.3</ele>
        <time>2017-12-17T09:37:55.000Z</time>
      </trkpt>
      <trkpt lat="47.53758" lon="6.74957">
        <ele>475.5</ele>
        <time>2017-12-17T09:37:58.000Z</time>
      </trkpt>
      <trkpt lat="47.53759" lon="6.74953">
        <ele>475.7</ele>
        <time>2017-12-17T09:37:59.000Z</time>
      </trkpt>
      <trkpt lat="47.5376" lon="6.74947">
        <ele>476.2</ele>
        <time>2017-12-17T09:38:01.000Z</time>
      </trkpt>
      <trkpt lat="47.53761" lon="6.74945">
        <ele>476.4</ele>
        <time>2017-12-17T09:38:02.000Z</time>
      </trkpt>
      <trkpt lat="47.53762" lon="6.74939">
        <ele>478.1</ele>
        <time>2017-12-17T09:38:08.000Z</time>
      </trkpt>
      <trkpt lat="47.53763" lon="6.74938">
        <ele>478.4</ele>
        <time>2017-12-17T09:38:09.000Z</time>
      </trkpt>
      <trkpt lat="47.53764" lon="6.74932">
        <ele>478.8</ele>
        <time>2017-12-17T09:38:11.000Z</time>
      </trkpt>
      <trkpt lat="47.53764" lon="6.74929">
        <ele>479</ele>
        <time>2017-12-17T09:38:12.000Z</time>
      </trkpt>
      <trkpt lat="47.53766" lon="6.74923">
        <ele>479.4</ele>
        <time>2017-12-17T09:38:14.000Z</time>
      </trkpt>
      <trkpt lat="47.53767" lon="6.7492">
        <ele>479.6</ele>
        <time>2017-12-17T09:38:15.000Z</time>
      </trkpt>
      <trkpt lat="47.53767" lon="6.74911">
        <ele>479.6</ele>
        <time>2017-12-17T09:38:16.000Z</time>
      </trkpt>
      <trkpt lat="47.53769" lon="6.74907">
        <ele>479.8</ele>
        <time>2017-12-17T09:38:17.000Z</time>
      </trkpt>
      <trkpt lat="47.53771" lon="6.74903">
        <ele>479.9</ele>
        <time>2017-12-17T09:38:18.000Z</time>
      </trkpt>
      <trkpt lat="47.53772" lon="6.74898">
        <ele>480.2</ele>
        <time>2017-12-17T09:38:20.000Z</time>
      </trkpt>
      <trkpt lat="47.53773" lon="6.74894">
        <ele>480.3</ele>
        <time>2017-12-17T09:38:21.000Z</time>
      </trkpt>
      <trkpt lat="47.53774" lon="6.74889">
        <ele>480.4</ele>
        <time>2017-12-17T09:38:23.000Z</time>
      </trkpt>
      <trkpt lat="47.53775" lon="6.74887">
        <ele>480.6</ele>
        <time>2017-12-17T09:38:24.000Z</time>
      </trkpt>
      <trkpt lat="47.53777" lon="6.74882">
        <ele>481.1</ele>
        <time>2017-12-17T09:38:27.000Z</time>
      </trkpt>
      <trkpt lat="47.53777" lon="6.74881">
        <ele>481.1</ele>
        <time>2017-12-17T09:38:28.000Z</time>
      </trkpt>
      <trkpt lat="47.53776" lon="6.74874">
        <ele>481.2</ele>
        <time>2017-12-17T09:38:31.000Z</time>
      </trkpt>
      <trkpt lat="47.53777" lon="6.74869">
        <ele>481.3</ele>
        <time>2017-12-17T09:38:32.000Z</time>
      </trkpt>
      <trkpt lat="47.53777" lon="6.74864">
        <ele>481.6</ele>
        <time>2017-12-17T09:38:34.000Z</time>
      </trkpt>
      <trkpt lat="47.53778" lon="6.7486">
        <ele>481.8</ele>
        <time>2017-12-17T09:38:35.000Z</time>
      </trkpt>
      <trkpt lat="47.53781" lon="6.74856">
        <ele>482</ele>
        <time>2017-12-17T09:38:38.000Z</time>
      </trkpt>
      <trkpt lat="47.53782" lon="6.74854">
        <ele>482.1</ele>
        <time>2017-12-17T09:38:39.000Z</time>
      </trkpt>
      <trkpt lat="47.53784" lon="6.74848">
        <ele>482.3</ele>
        <time>2017-12-17T09:38:43.000Z</time>
      </trkpt>
      <trkpt lat="47.53785" lon="6.74847">
        <ele>482.3</ele>
        <time>2017-12-17T09:38:44.000Z</time>
      </trkpt>
      <trkpt lat="47.53788" lon="6.74843">
        <ele>482.4</ele>
        <time>2017-12-17T09:38:47.000Z</time>
      </trkpt>
      <trkpt lat="47.53789" lon="6.74842">
        <ele>482.5</ele>
        <time>2017-12-17T09:38:48.000Z</time>
      </trkpt>
      <trkpt lat="47.53793" lon="6.74839">
        <ele>482.6</ele>
        <time>2017-12-17T09:38:49.000Z</time>
      </trkpt>
      <trkpt lat="47.53795" lon="6.74837">
        <ele>482.7</ele>
        <time>2017-12-17T09:38:50.000Z</time>
      </trkpt>
      <trkpt lat="47.53798" lon="6.74833">
        <ele>482.9</ele>
        <time>2017-12-17T09:38:53.000Z</time>
      </trkpt>
      <trkpt lat="47.53799" lon="6.74832">
        <ele>483</ele>
        <time>2017-12-17T09:38:54.000Z</time>
      </trkpt>
      <trkpt lat="47.53802" lon="6.7483">
        <ele>483.2</ele>
        <time>2017-12-17T09:39:00.000Z</time>
      </trkpt>
      <trkpt lat="47.53803" lon="6.74829">
        <ele>483.2</ele>
        <time>2017-12-17T09:39:01.000Z</time>
      </trkpt>
      <trkpt lat="47.53807" lon="6.7483">
        <ele>483</ele>
        <time>2017-12-17T09:39:04.000Z</time>
      </trkpt>
      <trkpt lat="47.53809" lon="6.7483">
        <ele>483</ele>
        <time>2017-12-17T09:39:05.000Z</time>
      </trkpt>
      <trkpt lat="47.53812" lon="6.74831">
        <ele>483</ele>
        <time>2017-12-17T09:39:06.000Z</time>
      </trkpt>
      <trkpt lat="47.53814" lon="6.74832">
        <ele>483</ele>
        <time>2017-12-17T09:39:07.000Z</time>
      </trkpt>
      <trkpt lat="47.53818" lon="6.74835">
        <ele>482.8</ele>
        <time>2017-12-17T09:39:10.000Z</time>
      </trkpt>
      <trkpt lat="47.5382" lon="6.74836">
        <ele>482.7</ele>
        <time>2017-12-17T09:39:11.000Z</time>
      </trkpt>
      <trkpt lat="47.53823" lon="6.74836">
        <ele>482.9</ele>
        <time>2017-12-17T09:39:14.000Z</time>
      </trkpt>
      <trkpt lat="47.53825" lon="6.74836">
        <ele>483</ele>
        <time>2017-12-17T09:39:15.000Z</time>
      </trkpt>
      <trkpt lat="47.53827" lon="6.74836">
        <ele>483.3</ele>
        <time>2017-12-17T09:39:17.000Z</time>
      </trkpt>
      <trkpt lat="47.53829" lon="6.74835">
        <ele>483.3</ele>
        <time>2017-12-17T09:39:18.000Z</time>
      </trkpt>
      <trkpt lat="47.53833" lon="6.74836">
        <ele>483.6</ele>
        <time>2017-12-17T09:39:20.000Z</time>
      </trkpt>
      <trkpt lat="47.53835" lon="6.74837">
        <ele>483.7</ele>
        <time>2017-12-17T09:39:21.000Z</time>
      </trkpt>
      <trkpt lat="47.53838" lon="6.74838">
        <ele>483.8</ele>
        <time>2017-12-17T09:39:22.000Z</time>
      </trkpt>
      <trkpt lat="47.5384" lon="6.74839">
        <ele>483.9</ele>
        <time>2017-12-17T09:39:23.000Z</time>
      </trkpt>
      <trkpt lat="47.53842" lon="6.74841">
        <ele>483.8</ele>
        <time>2017-12-17T09:39:24.000Z</time>
      </trkpt>
      <trkpt lat="47.53844" lon="6.74842">
        <ele>483.8</ele>
        <time>2017-12-17T09:39:25.000Z</time>
      </trkpt>
      <trkpt lat="47.53846" lon="6.74845">
        <ele>483.6</ele>
        <time>2017-12-17T09:39:27.000Z</time>
      </trkpt>
      <trkpt lat="47.53848" lon="6.74848">
        <ele>483.5</ele>
        <time>2017-12-17T09:39:28.000Z</time>
      </trkpt>
      <trkpt lat="47.53851" lon="6.74852">
        <ele>483.5</ele>
        <time>2017-12-17T09:39:30.000Z</time>
      </trkpt>
      <trkpt lat="47.53852" lon="6.74852">
        <ele>483.6</ele>
        <time>2017-12-17T09:39:31.000Z</time>
      </trkpt>
      <trkpt lat="47.53856" lon="6.74855">
        <ele>483.6</ele>
        <time>2017-12-17T09:39:36.000Z</time>
      </trkpt>
      <trkpt lat="47.53857" lon="6.74855">
        <ele>483.6</ele>
        <time>2017-12-17T09:39:37.000Z</time>
      </trkpt>
      <trkpt lat="47.53861" lon="6.74855">
        <ele>483.3</ele>
        <time>2017-12-17T09:39:42.000Z</time>
      </trkpt>
      <trkpt lat="47.53861" lon="6.74855">
        <ele>483.4</ele>
        <time>2017-12-17T09:39:43.000Z</time>
      </trkpt>
      <trkpt lat="47.53866" lon="6.74853">
        <ele>483.5</ele>
        <time>2017-12-17T09:39:49.000Z</time>
      </trkpt>
      <trkpt lat="47.53866" lon="6.74852">
        <ele>483.6</ele>
        <time>2017-12-17T09:39:50.000Z</time>
      </trkpt>
      <trkpt lat="47.53869" lon="6.74848">
        <ele>483.5</ele>
        <time>2017-12-17T09:39:53.000Z</time>
      </trkpt>
      <trkpt lat="47.53873" lon="6.74843">
        <ele>483.5</ele>
        <time>2017-12-17T09:39:54.000Z</time>
      </trkpt>
      <trkpt lat="47.53876" lon="6.74839">
        <ele>483.5</ele>
        <time>2017-12-17T09:39:55.000Z</time>
      </trkpt>
      <trkpt lat="47.53879" lon="6.74835">
        <ele>483.6</ele>
        <time>2017-12-17T09:39:56.000Z</time>
      </trkpt>
      <trkpt lat="47.53881" lon="6.7483">
        <ele>483.6</ele>
        <time>2017-12-17T09:39:58.000Z</time>
      </trkpt>
      <trkpt lat="47.53882" lon="6.74828">
        <ele>483.7</ele>
        <time>2017-12-17T09:39:59.000Z</time>
      </trkpt>
      <trkpt lat="47.53884" lon="6.74825">
        <ele>483.6</ele>
        <time>2017-12-17T09:40:00.000Z</time>
      </trkpt>
      <trkpt lat="47.53886" lon="6.74822">
        <ele>483.6</ele>
        <time>2017-12-17T09:40:01.000Z</time>
      </trkpt>
      <trkpt lat="47.53889" lon="6.74818">
        <ele>483.5</ele>
        <time>2017-12-17T09:40:03.000Z</time>
      </trkpt>
      <trkpt lat="47.53889" lon="6.74817">
        <ele>483.3</ele>
        <time>2017-12-17T09:40:04.000Z</time>
      </trkpt>
      <trkpt lat="47.53892" lon="6.74812">
        <ele>482.4</ele>
        <time>2017-12-17T09:40:10.000Z</time>
      </trkpt>
      <trkpt lat="47.53893" lon="6.7481">
        <ele>482.1</ele>
        <time>2017-12-17T09:40:11.000Z</time>
      </trkpt>
      <trkpt lat="47.53895" lon="6.74808">
        <ele>481.7</ele>
        <time>2017-12-17T09:40:13.000Z</time>
      </trkpt>
      <trkpt lat="47.53898" lon="6.74804">
        <ele>481.5</ele>
        <time>2017-12-17T09:40:14.000Z</time>
      </trkpt>
      <trkpt lat="47.53901" lon="6.74799">
        <ele>481.2</ele>
        <time>2017-12-17T09:40:16.000Z</time>
      </trkpt>
      <trkpt lat="47.53903" lon="6.74798">
        <ele>481.1</ele>
        <time>2017-12-17T09:40:17.000Z</time>
      </trkpt>
      <trkpt lat="47.53906" lon="6.74795">
        <ele>481.1</ele>
        <time>2017-12-17T09:40:18.000Z</time>
      </trkpt>
      <trkpt lat="47.53907" lon="6.74793">
        <ele>481.1</ele>
        <time>2017-12-17T09:40:19.000Z</time>
      </trkpt>
      <trkpt lat="47.5391" lon="6.74791">
        <ele>481</ele>
        <time>2017-12-17T09:40:21.000Z</time>
      </trkpt>
      <trkpt lat="47.53911" lon="6.74789">
        <ele>480.9</ele>
        <time>2017-12-17T09:40:22.000Z</time>
      </trkpt>
      <trkpt lat="47.53914" lon="6.74785">
        <ele>480.7</ele>
        <time>2017-12-17T09:40:24.000Z</time>
      </trkpt>
      <trkpt lat="47.53916" lon="6.74784">
        <ele>480.7</ele>
        <time>2017-12-17T09:40:25.000Z</time>
      </trkpt>
      <trkpt lat="47.53919" lon="6.7478">
        <ele>480.5</ele>
        <time>2017-12-17T09:40:27.000Z</time>
      </trkpt>
      <trkpt lat="47.5392" lon="6.74779">
        <ele>480.6</ele>
        <time>2017-12-17T09:40:28.000Z</time>
      </trkpt>
      <trkpt lat="47.53922" lon="6.74774">
        <ele>481.2</ele>
        <time>2017-12-17T09:40:32.000Z</time>
      </trkpt>
      <trkpt lat="47.53923" lon="6.74774">
        <ele>481.3</ele>
        <time>2017-12-17T09:40:33.000Z</time>
      </trkpt>
      <trkpt lat="47.53926" lon="6.74772">
        <ele>481.7</ele>
        <time>2017-12-17T09:40:36.000Z</time>
      </trkpt>
      <trkpt lat="47.53928" lon="6.7477">
        <ele>481.9</ele>
        <time>2017-12-17T09:40:37.000Z</time>
      </trkpt>
      <trkpt lat="47.53931" lon="6.74769">
        <ele>482</ele>
        <time>2017-12-17T09:40:38.000Z</time>
      </trkpt>
      <trkpt lat="47.53933" lon="6.74768">
        <ele>482.1</ele>
        <time>2017-12-17T09:40:39.000Z</time>
      </trkpt>
      <trkpt lat="47.53936" lon="6.74767">
        <ele>482.6</ele>
        <time>2017-12-17T09:40:43.000Z</time>
      </trkpt>
      <trkpt lat="47.53938" lon="6.74767">
        <ele>482.7</ele>
        <time>2017-12-17T09:40:44.000Z</time>
      </trkpt>
      <trkpt lat="47.53941" lon="6.74767">
        <ele>483</ele>
        <time>2017-12-17T09:40:45.000Z</time>
      </trkpt>
      <trkpt lat="47.53943" lon="6.74766">
        <ele>483.2</ele>
        <time>2017-12-17T09:40:46.000Z</time>
      </trkpt>
      <trkpt lat="47.53946" lon="6.74765">
        <ele>483.5</ele>
        <time>2017-12-17T09:40:49.000Z</time>
      </trkpt>
      <trkpt lat="47.53947" lon="6.74764">
        <ele>483.7</ele>
        <time>2017-12-17T09:40:50.000Z</time>
      </trkpt>
      <trkpt lat="47.53951" lon="6.74762">
        <ele>484.2</ele>
        <time>2017-12-17T09:40:52.000Z</time>
      </trkpt>
      <trkpt lat="47.53952" lon="6.74761">
        <ele>484.4</ele>
        <time>2017-12-17T09:40:53.000Z</time>
      </trkpt>
      <trkpt lat="47.53955" lon="6.74758">
        <ele>485.1</ele>
        <time>2017-12-17T09:40:56.000Z</time>
      </trkpt>
      <trkpt lat="47.53956" lon="6.74757">
        <ele>485.3</ele>
        <time>2017-12-17T09:40:57.000Z</time>
      </trkpt>
      <trkpt lat="47.5396" lon="6.74754">
        <ele>485.4</ele>
        <time>2017-12-17T09:40:59.000Z</time>
      </trkpt>
      <trkpt lat="47.53963" lon="6.74753">
        <ele>485.6</ele>
        <time>2017-12-17T09:41:00.000Z</time>
      </trkpt>
      <trkpt lat="47.53965" lon="6.74753">
        <ele>485.6</ele>
        <time>2017-12-17T09:41:01.000Z</time>
      </trkpt>
      <trkpt lat="47.53969" lon="6.74751">
        <ele>485.8</ele>
        <time>2017-12-17T09:41:03.000Z</time>
      </trkpt>
      <trkpt lat="47.53973" lon="6.7475">
        <ele>486.1</ele>
        <time>2017-12-17T09:41:05.000Z</time>
      </trkpt>
      <trkpt lat="47.53975" lon="6.74749">
        <ele>486.2</ele>
        <time>2017-12-17T09:41:06.000Z</time>
      </trkpt>
      <trkpt lat="47.53977" lon="6.74747">
        <ele>486.4</ele>
        <time>2017-12-17T09:41:08.000Z</time>
      </trkpt>
      <trkpt lat="47.53979" lon="6.74748">
        <ele>486.4</ele>
        <time>2017-12-17T09:41:09.000Z</time>
      </trkpt>
      <trkpt lat="47.53984" lon="6.74747">
        <ele>486.3</ele>
        <time>2017-12-17T09:41:12.000Z</time>
      </trkpt>
      <trkpt lat="47.53985" lon="6.74747">
        <ele>486.3</ele>
        <time>2017-12-17T09:41:13.000Z</time>
      </trkpt>
      <trkpt lat="47.53989" lon="6.74745">
        <ele>486.4</ele>
        <time>2017-12-17T09:41:16.000Z</time>
      </trkpt>
      <trkpt lat="47.5399" lon="6.74745">
        <ele>486.5</ele>
        <time>2017-12-17T09:41:17.000Z</time>
      </trkpt>
      <trkpt lat="47.53992" lon="6.74744">
        <ele>486.5</ele>
        <time>2017-12-17T09:41:18.000Z</time>
      </trkpt>
      <trkpt lat="47.53995" lon="6.74743">
        <ele>486.6</ele>
        <time>2017-12-17T09:41:19.000Z</time>
      </trkpt>
      <trkpt lat="47.53999" lon="6.74741">
        <ele>487</ele>
        <time>2017-12-17T09:41:22.000Z</time>
      </trkpt>
      <trkpt lat="47.54" lon="6.74741">
        <ele>487.1</ele>
        <time>2017-12-17T09:41:23.000Z</time>
      </trkpt>
      <trkpt lat="47.54001" lon="6.74741">
        <ele>487.2</ele>
        <time>2017-12-17T09:41:24.000Z</time>
      </trkpt>
      <trkpt lat="47.54004" lon="6.74738">
        <ele>487.3</ele>
        <time>2017-12-17T09:41:25.000Z</time>
      </trkpt>
      <trkpt lat="47.54007" lon="6.74734">
        <ele>487.5</ele>
        <time>2017-12-17T09:41:26.000Z</time>
      </trkpt>
      <trkpt lat="47.54009" lon="6.74733">
        <ele>487.6</ele>
        <time>2017-12-17T09:41:27.000Z</time>
      </trkpt>
      <trkpt lat="47.54012" lon="6.74733">
        <ele>487.8</ele>
        <time>2017-12-17T09:41:28.000Z</time>
      </trkpt>
      <trkpt lat="47.54015" lon="6.74733">
        <ele>488</ele>
        <time>2017-12-17T09:41:29.000Z</time>
      </trkpt>
      <trkpt lat="47.54018" lon="6.74732">
        <ele>488.8</ele>
        <time>2017-12-17T09:41:33.000Z</time>
      </trkpt>
      <trkpt lat="47.5402" lon="6.74732">
        <ele>488.8</ele>
        <time>2017-12-17T09:41:34.000Z</time>
      </trkpt>
      <trkpt lat="47.54023" lon="6.74732">
        <ele>488.9</ele>
        <time>2017-12-17T09:41:35.000Z</time>
      </trkpt>
      <trkpt lat="47.54026" lon="6.74732">
        <ele>489.1</ele>
        <time>2017-12-17T09:41:36.000Z</time>
      </trkpt>
      <trkpt lat="47.54028" lon="6.7473">
        <ele>489.7</ele>
        <time>2017-12-17T09:41:39.000Z</time>
      </trkpt>
      <trkpt lat="47.5403" lon="6.74728">
        <ele>490</ele>
        <time>2017-12-17T09:41:40.000Z</time>
      </trkpt>
      <trkpt lat="47.54033" lon="6.74723">
        <ele>490.2</ele>
        <time>2017-12-17T09:41:41.000Z</time>
      </trkpt>
      <trkpt lat="47.54037" lon="6.7472">
        <ele>490.4</ele>
        <time>2017-12-17T09:41:42.000Z</time>
      </trkpt>
      <trkpt lat="47.54042" lon="6.74715">
        <ele>490.6</ele>
        <time>2017-12-17T09:41:43.000Z</time>
      </trkpt>
      <trkpt lat="47.54046" lon="6.74711">
        <ele>490.8</ele>
        <time>2017-12-17T09:41:44.000Z</time>
      </trkpt>
      <trkpt lat="47.54049" lon="6.74705">
        <ele>491</ele>
        <time>2017-12-17T09:41:45.000Z</time>
      </trkpt>
      <trkpt lat="47.54054" lon="6.74702">
        <ele>491.1</ele>
        <time>2017-12-17T09:41:46.000Z</time>
      </trkpt>
      <trkpt lat="47.54058" lon="6.747">
        <ele>491.4</ele>
        <time>2017-12-17T09:41:48.000Z</time>
      </trkpt>
      <trkpt lat="47.54061" lon="6.74699">
        <ele>491.5</ele>
        <time>2017-12-17T09:41:49.000Z</time>
      </trkpt>
      <trkpt lat="47.54063" lon="6.74698">
        <ele>491.6</ele>
        <time>2017-12-17T09:41:50.000Z</time>
      </trkpt>
      <trkpt lat="47.54067" lon="6.74696">
        <ele>491.6</ele>
        <time>2017-12-17T09:41:51.000Z</time>
      </trkpt>
      <trkpt lat="47.54071" lon="6.74695">
        <ele>491.8</ele>
        <time>2017-12-17T09:41:52.000Z</time>
      </trkpt>
      <trkpt lat="47.54074" lon="6.74694">
        <ele>492.1</ele>
        <time>2017-12-17T09:41:53.000Z</time>
      </trkpt>
      <trkpt lat="47.54078" lon="6.74691">
        <ele>492.7</ele>
        <time>2017-12-17T09:41:56.000Z</time>
      </trkpt>
      <trkpt lat="47.54079" lon="6.7469">
        <ele>492.8</ele>
        <time>2017-12-17T09:41:57.000Z</time>
      </trkpt>
      <trkpt lat="47.54083" lon="6.74687">
        <ele>493</ele>
        <time>2017-12-17T09:42:04.000Z</time>
      </trkpt>
      <trkpt lat="47.54083" lon="6.74685">
        <ele>493.1</ele>
        <time>2017-12-17T09:42:05.000Z</time>
      </trkpt>
      <trkpt lat="47.54085" lon="6.74682">
        <ele>493.8</ele>
        <time>2017-12-17T09:42:08.000Z</time>
      </trkpt>
      <trkpt lat="47.54087" lon="6.7468">
        <ele>494</ele>
        <time>2017-12-17T09:42:09.000Z</time>
      </trkpt>
      <trkpt lat="47.5409" lon="6.74678">
        <ele>494.2</ele>
        <time>2017-12-17T09:42:10.000Z</time>
      </trkpt>
      <trkpt lat="47.54093" lon="6.74676">
        <ele>494.3</ele>
        <time>2017-12-17T09:42:11.000Z</time>
      </trkpt>
      <trkpt lat="47.54095" lon="6.74674">
        <ele>494.3</ele>
        <time>2017-12-17T09:42:12.000Z</time>
      </trkpt>
      <trkpt lat="47.54099" lon="6.74672">
        <ele>494.3</ele>
        <time>2017-12-17T09:42:13.000Z</time>
      </trkpt>
      <trkpt lat="47.54101" lon="6.7467">
        <ele>494.3</ele>
        <time>2017-12-17T09:42:14.000Z</time>
      </trkpt>
      <trkpt lat="47.54105" lon="6.74667">
        <ele>494.4</ele>
        <time>2017-12-17T09:42:15.000Z</time>
      </trkpt>
      <trkpt lat="47.54109" lon="6.74665">
        <ele>494.4</ele>
        <time>2017-12-17T09:42:16.000Z</time>
      </trkpt>
      <trkpt lat="47.54114" lon="6.74662">
        <ele>494.5</ele>
        <time>2017-12-17T09:42:17.000Z</time>
      </trkpt>
      <trkpt lat="47.54119" lon="6.74659">
        <ele>494.6</ele>
        <time>2017-12-17T09:42:18.000Z</time>
      </trkpt>
      <trkpt lat="47.54128" lon="6.74653">
        <ele>494.7</ele>
        <time>2017-12-17T09:42:19.000Z</time>
      </trkpt>
      <trkpt lat="47.5413" lon="6.7465">
        <ele>495</ele>
        <time>2017-12-17T09:42:22.000Z</time>
      </trkpt>
      <trkpt lat="47.54131" lon="6.74647">
        <ele>495.1</ele>
        <time>2017-12-17T09:42:23.000Z</time>
      </trkpt>
      <trkpt lat="47.54133" lon="6.74645">
        <ele>495.2</ele>
        <time>2017-12-17T09:42:24.000Z</time>
      </trkpt>
      <trkpt lat="47.54135" lon="6.74641">
        <ele>495.4</ele>
        <time>2017-12-17T09:42:25.000Z</time>
      </trkpt>
      <trkpt lat="47.54138" lon="6.74638">
        <ele>495.5</ele>
        <time>2017-12-17T09:42:26.000Z</time>
      </trkpt>
      <trkpt lat="47.54146" lon="6.7463">
        <ele>495.5</ele>
        <time>2017-12-17T09:42:27.000Z</time>
      </trkpt>
      <trkpt lat="47.54152" lon="6.74624">
        <ele>495.6</ele>
        <time>2017-12-17T09:42:28.000Z</time>
      </trkpt>
      <trkpt lat="47.54156" lon="6.74621">
        <ele>495.7</ele>
        <time>2017-12-17T09:42:29.000Z</time>
      </trkpt>
      <trkpt lat="47.54158" lon="6.74618">
        <ele>495.8</ele>
        <time>2017-12-17T09:42:30.000Z</time>
      </trkpt>
      <trkpt lat="47.54161" lon="6.74617">
        <ele>495.8</ele>
        <time>2017-12-17T09:42:31.000Z</time>
      </trkpt>
      <trkpt lat="47.54163" lon="6.74615">
        <ele>495.8</ele>
        <time>2017-12-17T09:42:32.000Z</time>
      </trkpt>
      <trkpt lat="47.54165" lon="6.74613">
        <ele>495.9</ele>
        <time>2017-12-17T09:42:33.000Z</time>
      </trkpt>
      <trkpt lat="47.54167" lon="6.74611">
        <ele>496</ele>
        <time>2017-12-17T09:42:34.000Z</time>
      </trkpt>
      <trkpt lat="47.54171" lon="6.74609">
        <ele>496</ele>
        <time>2017-12-17T09:42:36.000Z</time>
      </trkpt>
      <trkpt lat="47.54172" lon="6.74608">
        <ele>496.1</ele>
        <time>2017-12-17T09:42:37.000Z</time>
      </trkpt>
      <trkpt lat="47.54175" lon="6.74606">
        <ele>496.1</ele>
        <time>2017-12-17T09:42:38.000Z</time>
      </trkpt>
      <trkpt lat="47.54177" lon="6.74604">
        <ele>496</ele>
        <time>2017-12-17T09:42:39.000Z</time>
      </trkpt>
      <trkpt lat="47.5418" lon="6.74601">
        <ele>495.9</ele>
        <time>2017-12-17T09:42:40.000Z</time>
      </trkpt>
      <trkpt lat="47.54183" lon="6.74599">
        <ele>495.6</ele>
        <time>2017-12-17T09:42:41.000Z</time>
      </trkpt>
      <trkpt lat="47.54185" lon="6.74597">
        <ele>495.3</ele>
        <time>2017-12-17T09:42:42.000Z</time>
      </trkpt>
      <trkpt lat="47.54187" lon="6.74596">
        <ele>495</ele>
        <time>2017-12-17T09:42:43.000Z</time>
      </trkpt>
      <trkpt lat="47.54189" lon="6.74595">
        <ele>494.7</ele>
        <time>2017-12-17T09:42:44.000Z</time>
      </trkpt>
      <trkpt lat="47.54191" lon="6.74593">
        <ele>494.4</ele>
        <time>2017-12-17T09:42:45.000Z</time>
      </trkpt>
      <trkpt lat="47.54193" lon="6.7459">
        <ele>493.9</ele>
        <time>2017-12-17T09:42:46.000Z</time>
      </trkpt>
      <trkpt lat="47.54195" lon="6.74588">
        <ele>493.6</ele>
        <time>2017-12-17T09:42:47.000Z</time>
      </trkpt>
      <trkpt lat="47.54198" lon="6.74586">
        <ele>493.2</ele>
        <time>2017-12-17T09:42:48.000Z</time>
      </trkpt>
      <trkpt lat="47.542" lon="6.74584">
        <ele>492.9</ele>
        <time>2017-12-17T09:42:49.000Z</time>
      </trkpt>
      <trkpt lat="47.54202" lon="6.74581">
        <ele>491.8</ele>
        <time>2017-12-17T09:42:53.000Z</time>
      </trkpt>
      <trkpt lat="47.54203" lon="6.74577">
        <ele>491.4</ele>
        <time>2017-12-17T09:42:54.000Z</time>
      </trkpt>
      <trkpt lat="47.54204" lon="6.74574">
        <ele>491</ele>
        <time>2017-12-17T09:42:55.000Z</time>
      </trkpt>
      <trkpt lat="47.54206" lon="6.74569">
        <ele>490.5</ele>
        <time>2017-12-17T09:42:56.000Z</time>
      </trkpt>
      <trkpt lat="47.54208" lon="6.74565">
        <ele>490</ele>
        <time>2017-12-17T09:42:57.000Z</time>
      </trkpt>
      <trkpt lat="47.5421" lon="6.74562">
        <ele>489.6</ele>
        <time>2017-12-17T09:42:58.000Z</time>
      </trkpt>
      <trkpt lat="47.54212" lon="6.7456">
        <ele>489.2</ele>
        <time>2017-12-17T09:42:59.000Z</time>
      </trkpt>
      <trkpt lat="47.54214" lon="6.74555">
        <ele>489</ele>
        <time>2017-12-17T09:43:00.000Z</time>
      </trkpt>
      <trkpt lat="47.54217" lon="6.7455">
        <ele>488.9</ele>
        <time>2017-12-17T09:43:01.000Z</time>
      </trkpt>
      <trkpt lat="47.5422" lon="6.74545">
        <ele>488.9</ele>
        <time>2017-12-17T09:43:02.000Z</time>
      </trkpt>
      <trkpt lat="47.54225" lon="6.7454">
        <ele>488.7</ele>
        <time>2017-12-17T09:43:03.000Z</time>
      </trkpt>
      <trkpt lat="47.54225" lon="6.74536">
        <ele>488.7</ele>
        <time>2017-12-17T09:43:05.000Z</time>
      </trkpt>
      <trkpt lat="47.54227" lon="6.74531">
        <ele>488.7</ele>
        <time>2017-12-17T09:43:06.000Z</time>
      </trkpt>
      <trkpt lat="47.54228" lon="6.74527">
        <ele>488.7</ele>
        <time>2017-12-17T09:43:07.000Z</time>
      </trkpt>
      <trkpt lat="47.54229" lon="6.74524">
        <ele>488.7</ele>
        <time>2017-12-17T09:43:08.000Z</time>
      </trkpt>
      <trkpt lat="47.5423" lon="6.74522">
        <ele>488.9</ele>
        <time>2017-12-17T09:43:10.000Z</time>
      </trkpt>
      <trkpt lat="47.54232" lon="6.74517">
        <ele>489</ele>
        <time>2017-12-17T09:43:11.000Z</time>
      </trkpt>
      <trkpt lat="47.54233" lon="6.74512">
        <ele>489.2</ele>
        <time>2017-12-17T09:43:12.000Z</time>
      </trkpt>
      <trkpt lat="47.54234" lon="6.74508">
        <ele>489.4</ele>
        <time>2017-12-17T09:43:13.000Z</time>
      </trkpt>
      <trkpt lat="47.54237" lon="6.74501">
        <ele>489.6</ele>
        <time>2017-12-17T09:43:14.000Z</time>
      </trkpt>
      <trkpt lat="47.5424" lon="6.74495">
        <ele>489.6</ele>
        <time>2017-12-17T09:43:15.000Z</time>
      </trkpt>
      <trkpt lat="47.54243" lon="6.7449">
        <ele>489.8</ele>
        <time>2017-12-17T09:43:16.000Z</time>
      </trkpt>
      <trkpt lat="47.54246" lon="6.74485">
        <ele>489.8</ele>
        <time>2017-12-17T09:43:17.000Z</time>
      </trkpt>
      <trkpt lat="47.54252" lon="6.7448">
        <ele>489.9</ele>
        <time>2017-12-17T09:43:18.000Z</time>
      </trkpt>
      <trkpt lat="47.54257" lon="6.74474">
        <ele>490</ele>
        <time>2017-12-17T09:43:19.000Z</time>
      </trkpt>
      <trkpt lat="47.54261" lon="6.74469">
        <ele>490.1</ele>
        <time>2017-12-17T09:43:20.000Z</time>
      </trkpt>
      <trkpt lat="47.54265" lon="6.74464">
        <ele>490.2</ele>
        <time>2017-12-17T09:43:21.000Z</time>
      </trkpt>
      <trkpt lat="47.54269" lon="6.74459">
        <ele>490.2</ele>
        <time>2017-12-17T09:43:22.000Z</time>
      </trkpt>
      <trkpt lat="47.54273" lon="6.74455">
        <ele>490.2</ele>
        <time>2017-12-17T09:43:23.000Z</time>
      </trkpt>
      <trkpt lat="47.54276" lon="6.74451">
        <ele>490.2</ele>
        <time>2017-12-17T09:43:24.000Z</time>
      </trkpt>
      <trkpt lat="47.54277" lon="6.74448">
        <ele>490.2</ele>
        <time>2017-12-17T09:43:25.000Z</time>
      </trkpt>
      <trkpt lat="47.54278" lon="6.74444">
        <ele>490</ele>
        <time>2017-12-17T09:43:26.000Z</time>
      </trkpt>
      <trkpt lat="47.54281" lon="6.74439">
        <ele>489.8</ele>
        <time>2017-12-17T09:43:27.000Z</time>
      </trkpt>
      <trkpt lat="47.54285" lon="6.74435">
        <ele>489.5</ele>
        <time>2017-12-17T09:43:28.000Z</time>
      </trkpt>
      <trkpt lat="47.54288" lon="6.74432">
        <ele>489.4</ele>
        <time>2017-12-17T09:43:29.000Z</time>
      </trkpt>
      <trkpt lat="47.54292" lon="6.74429">
        <ele>489.3</ele>
        <time>2017-12-17T09:43:30.000Z</time>
      </trkpt>
      <trkpt lat="47.54295" lon="6.74426">
        <ele>489</ele>
        <time>2017-12-17T09:43:33.000Z</time>
      </trkpt>
      <trkpt lat="47.54297" lon="6.74422">
        <ele>488.9</ele>
        <time>2017-12-17T09:43:34.000Z</time>
      </trkpt>
      <trkpt lat="47.54299" lon="6.74417">
        <ele>488.3</ele>
        <time>2017-12-17T09:43:36.000Z</time>
      </trkpt>
      <trkpt lat="47.543" lon="6.74413">
        <ele>488.1</ele>
        <time>2017-12-17T09:43:37.000Z</time>
      </trkpt>
      <trkpt lat="47.543" lon="6.74409">
        <ele>487.9</ele>
        <time>2017-12-17T09:43:38.000Z</time>
      </trkpt>
      <trkpt lat="47.543" lon="6.74405">
        <ele>487.7</ele>
        <time>2017-12-17T09:43:39.000Z</time>
      </trkpt>
      <trkpt lat="47.543" lon="6.74401">
        <ele>487.5</ele>
        <time>2017-12-17T09:43:40.000Z</time>
      </trkpt>
      <trkpt lat="47.54301" lon="6.74396">
        <ele>487.2</ele>
        <time>2017-12-17T09:43:41.000Z</time>
      </trkpt>
      <trkpt lat="47.54301" lon="6.7439">
        <ele>486.9</ele>
        <time>2017-12-17T09:43:42.000Z</time>
      </trkpt>
      <trkpt lat="47.54302" lon="6.74383">
        <ele>486.5</ele>
        <time>2017-12-17T09:43:43.000Z</time>
      </trkpt>
      <trkpt lat="47.54303" lon="6.74378">
        <ele>486.2</ele>
        <time>2017-12-17T09:43:44.000Z</time>
      </trkpt>
      <trkpt lat="47.54304" lon="6.74371">
        <ele>483</ele>
        <time>2017-12-17T09:43:45.000Z</time>
      </trkpt>
      <trkpt lat="47.54305" lon="6.74364">
        <ele>479.8</ele>
        <time>2017-12-17T09:43:46.000Z</time>
      </trkpt>
      <trkpt lat="47.54305" lon="6.74356">
        <ele>477</ele>
        <time>2017-12-17T09:43:47.000Z</time>
      </trkpt>
      <trkpt lat="47.54305" lon="6.74344">
        <ele>474.6</ele>
        <time>2017-12-17T09:43:48.000Z</time>
      </trkpt>
      <trkpt lat="47.54305" lon="6.74326">
        <ele>472.6</ele>
        <time>2017-12-17T09:43:49.000Z</time>
      </trkpt>
      <trkpt lat="47.54306" lon="6.74313">
        <ele>470.4</ele>
        <time>2017-12-17T09:43:50.000Z</time>
      </trkpt>
      <trkpt lat="47.54307" lon="6.74296">
        <ele>468.4</ele>
        <time>2017-12-17T09:43:51.000Z</time>
      </trkpt>
      <trkpt lat="47.54307" lon="6.74285">
        <ele>467.4</ele>
        <time>2017-12-17T09:43:52.000Z</time>
      </trkpt>
      <trkpt lat="47.54308" lon="6.74273">
        <ele>466.7</ele>
        <time>2017-12-17T09:43:53.000Z</time>
      </trkpt>
      <trkpt lat="47.54308" lon="6.74266">
        <ele>465.2</ele>
        <time>2017-12-17T09:43:54.000Z</time>
      </trkpt>
      <trkpt lat="47.54306" lon="6.74258">
        <ele>463.4</ele>
        <time>2017-12-17T09:43:55.000Z</time>
      </trkpt>
      <trkpt lat="47.54306" lon="6.74251">
        <ele>461.7</ele>
        <time>2017-12-17T09:43:56.000Z</time>
      </trkpt>
      <trkpt lat="47.54307" lon="6.74241">
        <ele>460.9</ele>
        <time>2017-12-17T09:43:57.000Z</time>
      </trkpt>
      <trkpt lat="47.54308" lon="6.74232">
        <ele>460.1</ele>
        <time>2017-12-17T09:43:58.000Z</time>
      </trkpt>
      <trkpt lat="47.54307" lon="6.74222">
        <ele>459.9</ele>
        <time>2017-12-17T09:43:59.000Z</time>
      </trkpt>
      <trkpt lat="47.54308" lon="6.74211">
        <ele>460.2</ele>
        <time>2017-12-17T09:44:00.000Z</time>
      </trkpt>
      <trkpt lat="47.54309" lon="6.74201">
        <ele>459.8</ele>
        <time>2017-12-17T09:44:01.000Z</time>
      </trkpt>
      <trkpt lat="47.54313" lon="6.74185">
        <ele>459.6</ele>
        <time>2017-12-17T09:44:03.000Z</time>
      </trkpt>
      <trkpt lat="47.54316" lon="6.74178">
        <ele>459.6</ele>
        <time>2017-12-17T09:44:04.000Z</time>
      </trkpt>
      <trkpt lat="47.54317" lon="6.74172">
        <ele>459.7</ele>
        <time>2017-12-17T09:44:05.000Z</time>
      </trkpt>
      <trkpt lat="47.5432" lon="6.74165">
        <ele>459.8</ele>
        <time>2017-12-17T09:44:06.000Z</time>
      </trkpt>
      <trkpt lat="47.54324" lon="6.74158">
        <ele>459.8</ele>
        <time>2017-12-17T09:44:07.000Z</time>
      </trkpt>
      <trkpt lat="47.54327" lon="6.74151">
        <ele>460</ele>
        <time>2017-12-17T09:44:08.000Z</time>
      </trkpt>
      <trkpt lat="47.5433" lon="6.74145">
        <ele>460.1</ele>
        <time>2017-12-17T09:44:09.000Z</time>
      </trkpt>
      <trkpt lat="47.54334" lon="6.74135">
        <ele>461.4</ele>
        <time>2017-12-17T09:44:10.000Z</time>
      </trkpt>
      <trkpt lat="47.54338" lon="6.74127">
        <ele>461</ele>
        <time>2017-12-17T09:44:11.000Z</time>
      </trkpt>
      <trkpt lat="47.54344" lon="6.74119">
        <ele>460.6</ele>
        <time>2017-12-17T09:44:12.000Z</time>
      </trkpt>
      <trkpt lat="47.54348" lon="6.7411">
        <ele>459.9</ele>
        <time>2017-12-17T09:44:13.000Z</time>
      </trkpt>
      <trkpt lat="47.54351" lon="6.741">
        <ele>459.4</ele>
        <time>2017-12-17T09:44:14.000Z</time>
      </trkpt>
      <trkpt lat="47.54355" lon="6.7409">
        <ele>459.8</ele>
        <time>2017-12-17T09:44:15.000Z</time>
      </trkpt>
      <trkpt lat="47.5436" lon="6.7408">
        <ele>459.7</ele>
        <time>2017-12-17T09:44:16.000Z</time>
      </trkpt>
      <trkpt lat="47.54364" lon="6.74071">
        <ele>459.9</ele>
        <time>2017-12-17T09:44:17.000Z</time>
      </trkpt>
      <trkpt lat="47.54369" lon="6.74061">
        <ele>460.2</ele>
        <time>2017-12-17T09:44:18.000Z</time>
      </trkpt>
      <trkpt lat="47.54374" lon="6.7405">
        <ele>460.3</ele>
        <time>2017-12-17T09:44:19.000Z</time>
      </trkpt>
      <trkpt lat="47.54379" lon="6.7404">
        <ele>460.5</ele>
        <time>2017-12-17T09:44:20.000Z</time>
      </trkpt>
      <trkpt lat="47.54382" lon="6.7403">
        <ele>461.1</ele>
        <time>2017-12-17T09:44:21.000Z</time>
      </trkpt>
      <trkpt lat="47.54385" lon="6.7402">
        <ele>461</ele>
        <time>2017-12-17T09:44:22.000Z</time>
      </trkpt>
      <trkpt lat="47.54385" lon="6.7401">
        <ele>459.9</ele>
        <time>2017-12-17T09:44:23.000Z</time>
      </trkpt>
      <trkpt lat="47.54386" lon="6.74">
        <ele>459.1</ele>
        <time>2017-12-17T09:44:24.000Z</time>
      </trkpt>
      <trkpt lat="47.54387" lon="6.73986">
        <ele>458.7</ele>
        <time>2017-12-17T09:44:25.000Z</time>
      </trkpt>
      <trkpt lat="47.54387" lon="6.73975">
        <ele>458.8</ele>
        <time>2017-12-17T09:44:26.000Z</time>
      </trkpt>
      <trkpt lat="47.54388" lon="6.73966">
        <ele>458.3</ele>
        <time>2017-12-17T09:44:27.000Z</time>
      </trkpt>
      <trkpt lat="47.54388" lon="6.73957">
        <ele>457.7</ele>
        <time>2017-12-17T09:44:28.000Z</time>
      </trkpt>
      <trkpt lat="47.54389" lon="6.7395">
        <ele>456.3</ele>
        <time>2017-12-17T09:44:29.000Z</time>
      </trkpt>
      <trkpt lat="47.54391" lon="6.73942">
        <ele>455</ele>
        <time>2017-12-17T09:44:30.000Z</time>
      </trkpt>
      <trkpt lat="47.54392" lon="6.73932">
        <ele>452.6</ele>
        <time>2017-12-17T09:44:31.000Z</time>
      </trkpt>
      <trkpt lat="47.54392" lon="6.73921">
        <ele>451</ele>
        <time>2017-12-17T09:44:32.000Z</time>
      </trkpt>
      <trkpt lat="47.54392" lon="6.73909">
        <ele>449.7</ele>
        <time>2017-12-17T09:44:33.000Z</time>
      </trkpt>
      <trkpt lat="47.54392" lon="6.73898">
        <ele>449</ele>
        <time>2017-12-17T09:44:34.000Z</time>
      </trkpt>
      <trkpt lat="47.54392" lon="6.73887">
        <ele>447.4</ele>
        <time>2017-12-17T09:44:35.000Z</time>
      </trkpt>
      <trkpt lat="47.5439" lon="6.73872">
        <ele>445.6</ele>
        <time>2017-12-17T09:44:36.000Z</time>
      </trkpt>
      <trkpt lat="47.5439" lon="6.73863">
        <ele>442.8</ele>
        <time>2017-12-17T09:44:37.000Z</time>
      </trkpt>
      <trkpt lat="47.5439" lon="6.73855">
        <ele>440.5</ele>
        <time>2017-12-17T09:44:38.000Z</time>
      </trkpt>
      <trkpt lat="47.54391" lon="6.73844">
        <ele>437.8</ele>
        <time>2017-12-17T09:44:39.000Z</time>
      </trkpt>
      <trkpt lat="47.5439" lon="6.73831">
        <ele>436.8</ele>
        <time>2017-12-17T09:44:40.000Z</time>
      </trkpt>
      <trkpt lat="47.54389" lon="6.7382">
        <ele>435.5</ele>
        <time>2017-12-17T09:44:41.000Z</time>
      </trkpt>
      <trkpt lat="47.54389" lon="6.73811">
        <ele>433.3</ele>
        <time>2017-12-17T09:44:42.000Z</time>
      </trkpt>
      <trkpt lat="47.54389" lon="6.73801">
        <ele>431.4</ele>
        <time>2017-12-17T09:44:43.000Z</time>
      </trkpt>
      <trkpt lat="47.54389" lon="6.73791">
        <ele>429.2</ele>
        <time>2017-12-17T09:44:44.000Z</time>
      </trkpt>
      <trkpt lat="47.5439" lon="6.7378">
        <ele>427.4</ele>
        <time>2017-12-17T09:44:45.000Z</time>
      </trkpt>
      <trkpt lat="47.5439" lon="6.73769">
        <ele>425.8</ele>
        <time>2017-12-17T09:44:46.000Z</time>
      </trkpt>
      <trkpt lat="47.5439" lon="6.73758">
        <ele>424.6</ele>
        <time>2017-12-17T09:44:47.000Z</time>
      </trkpt>
      <trkpt lat="47.54389" lon="6.73748">
        <ele>424.3</ele>
        <time>2017-12-17T09:44:48.000Z</time>
      </trkpt>
      <trkpt lat="47.54389" lon="6.73741">
        <ele>424.2</ele>
        <time>2017-12-17T09:44:49.000Z</time>
      </trkpt>
      <trkpt lat="47.54389" lon="6.73735">
        <ele>424.1</ele>
        <time>2017-12-17T09:44:50.000Z</time>
      </trkpt>
      <trkpt lat="47.54388" lon="6.73728">
        <ele>424</ele>
        <time>2017-12-17T09:44:51.000Z</time>
      </trkpt>
      <trkpt lat="47.54388" lon="6.7372">
        <ele>423.1</ele>
        <time>2017-12-17T09:44:52.000Z</time>
      </trkpt>
      <trkpt lat="47.54389" lon="6.73712">
        <ele>421.9</ele>
        <time>2017-12-17T09:44:53.000Z</time>
      </trkpt>
      <trkpt lat="47.54391" lon="6.73706">
        <ele>421.8</ele>
        <time>2017-12-17T09:44:54.000Z</time>
      </trkpt>
      <trkpt lat="47.54391" lon="6.73701">
        <ele>421.7</ele>
        <time>2017-12-17T09:44:55.000Z</time>
      </trkpt>
      <trkpt lat="47.54392" lon="6.73695">
        <ele>421.7</ele>
        <time>2017-12-17T09:44:56.000Z</time>
      </trkpt>
      <trkpt lat="47.54392" lon="6.73687">
        <ele>421.5</ele>
        <time>2017-12-17T09:44:57.000Z</time>
      </trkpt>
      <trkpt lat="47.54392" lon="6.73678">
        <ele>421.5</ele>
        <time>2017-12-17T09:44:58.000Z</time>
      </trkpt>
      <trkpt lat="47.54393" lon="6.73664">
        <ele>421.5</ele>
        <time>2017-12-17T09:44:59.000Z</time>
      </trkpt>
      <trkpt lat="47.54394" lon="6.7365">
        <ele>421.4</ele>
        <time>2017-12-17T09:45:00.000Z</time>
      </trkpt>
      <trkpt lat="47.54396" lon="6.73639">
        <ele>421.5</ele>
        <time>2017-12-17T09:45:01.000Z</time>
      </trkpt>
      <trkpt lat="47.54399" lon="6.73619">
        <ele>421.4</ele>
        <time>2017-12-17T09:45:03.000Z</time>
      </trkpt>
      <trkpt lat="47.54399" lon="6.73613">
        <ele>421.3</ele>
        <time>2017-12-17T09:45:04.000Z</time>
      </trkpt>
      <trkpt lat="47.544" lon="6.73607">
        <ele>421.3</ele>
        <time>2017-12-17T09:45:05.000Z</time>
      </trkpt>
      <trkpt lat="47.54401" lon="6.73597">
        <ele>421.3</ele>
        <time>2017-12-17T09:45:06.000Z</time>
      </trkpt>
      <trkpt lat="47.54401" lon="6.7359">
        <ele>421.4</ele>
        <time>2017-12-17T09:45:07.000Z</time>
      </trkpt>
      <trkpt lat="47.54403" lon="6.73581">
        <ele>421.4</ele>
        <time>2017-12-17T09:45:08.000Z</time>
      </trkpt>
      <trkpt lat="47.54404" lon="6.73574">
        <ele>421.5</ele>
        <time>2017-12-17T09:45:09.000Z</time>
      </trkpt>
      <trkpt lat="47.54406" lon="6.73569">
        <ele>421.7</ele>
        <time>2017-12-17T09:45:10.000Z</time>
      </trkpt>
      <trkpt lat="47.54407" lon="6.73564">
        <ele>422</ele>
        <time>2017-12-17T09:45:11.000Z</time>
      </trkpt>
      <trkpt lat="47.54408" lon="6.7356">
        <ele>422.2</ele>
        <time>2017-12-17T09:45:12.000Z</time>
      </trkpt>
      <trkpt lat="47.54409" lon="6.73556">
        <ele>422.3</ele>
        <time>2017-12-17T09:45:13.000Z</time>
      </trkpt>
      <trkpt lat="47.5441" lon="6.73552">
        <ele>422.5</ele>
        <time>2017-12-17T09:45:14.000Z</time>
      </trkpt>
      <trkpt lat="47.54411" lon="6.73547">
        <ele>422.7</ele>
        <time>2017-12-17T09:45:15.000Z</time>
      </trkpt>
      <trkpt lat="47.54411" lon="6.73538">
        <ele>422.9</ele>
        <time>2017-12-17T09:45:16.000Z</time>
      </trkpt>
      <trkpt lat="47.54412" lon="6.73533">
        <ele>423.1</ele>
        <time>2017-12-17T09:45:17.000Z</time>
      </trkpt>
      <trkpt lat="47.54412" lon="6.73528">
        <ele>423.5</ele>
        <time>2017-12-17T09:45:18.000Z</time>
      </trkpt>
      <trkpt lat="47.54414" lon="6.73519">
        <ele>423.7</ele>
        <time>2017-12-17T09:45:19.000Z</time>
      </trkpt>
      <trkpt lat="47.54414" lon="6.73515">
        <ele>423.9</ele>
        <time>2017-12-17T09:45:20.000Z</time>
      </trkpt>
      <trkpt lat="47.54415" lon="6.7351">
        <ele>424</ele>
        <time>2017-12-17T09:45:21.000Z</time>
      </trkpt>
      <trkpt lat="47.54416" lon="6.73505">
        <ele>425</ele>
        <time>2017-12-17T09:45:29.000Z</time>
      </trkpt>
      <trkpt lat="47.54422" lon="6.73489">
        <ele>425.1</ele>
        <time>2017-12-17T09:45:30.000Z</time>
      </trkpt>
      <trkpt lat="47.54422" lon="6.73489">
        <ele>425.2</ele>
        <time>2017-12-17T09:45:34.000Z</time>
      </trkpt>
      <trkpt lat="47.54428" lon="6.73478">
        <ele>425.1</ele>
        <time>2017-12-17T09:45:35.000Z</time>
      </trkpt>
      <trkpt lat="47.54428" lon="6.73473">
        <ele>425</ele>
        <time>2017-12-17T09:45:37.000Z</time>
      </trkpt>
      <trkpt lat="47.54428" lon="6.7347">
        <ele>425</ele>
        <time>2017-12-17T09:45:38.000Z</time>
      </trkpt>
      <trkpt lat="47.54429" lon="6.73463">
        <ele>425.1</ele>
        <time>2017-12-17T09:45:40.000Z</time>
      </trkpt>
      <trkpt lat="47.54429" lon="6.73461">
        <ele>425</ele>
        <time>2017-12-17T09:45:41.000Z</time>
      </trkpt>
      <trkpt lat="47.54429" lon="6.73456">
        <ele>425</ele>
        <time>2017-12-17T09:45:42.000Z</time>
      </trkpt>
      <trkpt lat="47.54429" lon="6.73453">
        <ele>425.1</ele>
        <time>2017-12-17T09:45:43.000Z</time>
      </trkpt>
      <trkpt lat="47.54429" lon="6.73448">
        <ele>425.2</ele>
        <time>2017-12-17T09:45:44.000Z</time>
      </trkpt>
      <trkpt lat="47.54429" lon="6.73444">
        <ele>425.2</ele>
        <time>2017-12-17T09:45:45.000Z</time>
      </trkpt>
      <trkpt lat="47.5443" lon="6.73441">
        <ele>425.2</ele>
        <time>2017-12-17T09:45:46.000Z</time>
      </trkpt>
      <trkpt lat="47.5443" lon="6.73437">
        <ele>425.2</ele>
        <time>2017-12-17T09:45:47.000Z</time>
      </trkpt>
      <trkpt lat="47.5443" lon="6.73433">
        <ele>425.2</ele>
        <time>2017-12-17T09:45:48.000Z</time>
      </trkpt>
      <trkpt lat="47.54431" lon="6.73428">
        <ele>425.3</ele>
        <time>2017-12-17T09:45:49.000Z</time>
      </trkpt>
      <trkpt lat="47.54431" lon="6.73422">
        <ele>425.4</ele>
        <time>2017-12-17T09:45:51.000Z</time>
      </trkpt>
      <trkpt lat="47.54431" lon="6.73416">
        <ele>425.5</ele>
        <time>2017-12-17T09:45:52.000Z</time>
      </trkpt>
      <trkpt lat="47.54431" lon="6.73412">
        <ele>425.5</ele>
        <time>2017-12-17T09:45:53.000Z</time>
      </trkpt>
      <trkpt lat="47.54432" lon="6.73408">
        <ele>425.5</ele>
        <time>2017-12-17T09:45:54.000Z</time>
      </trkpt>
      <trkpt lat="47.54432" lon="6.73403">
        <ele>425.5</ele>
        <time>2017-12-17T09:45:55.000Z</time>
      </trkpt>
      <trkpt lat="47.54432" lon="6.73398">
        <ele>425.5</ele>
        <time>2017-12-17T09:45:56.000Z</time>
      </trkpt>
      <trkpt lat="47.54433" lon="6.73394">
        <ele>425.6</ele>
        <time>2017-12-17T09:45:57.000Z</time>
      </trkpt>
      <trkpt lat="47.54434" lon="6.73389">
        <ele>425.5</ele>
        <time>2017-12-17T09:45:58.000Z</time>
      </trkpt>
      <trkpt lat="47.54436" lon="6.73385">
        <ele>425.4</ele>
        <time>2017-12-17T09:45:59.000Z</time>
      </trkpt>
      <trkpt lat="47.54437" lon="6.7338">
        <ele>425.5</ele>
        <time>2017-12-17T09:46:00.000Z</time>
      </trkpt>
      <trkpt lat="47.54437" lon="6.73375">
        <ele>425.5</ele>
        <time>2017-12-17T09:46:01.000Z</time>
      </trkpt>
      <trkpt lat="47.54437" lon="6.73365">
        <ele>425.6</ele>
        <time>2017-12-17T09:46:03.000Z</time>
      </trkpt>
      <trkpt lat="47.54437" lon="6.73362">
        <ele>425.6</ele>
        <time>2017-12-17T09:46:04.000Z</time>
      </trkpt>
      <trkpt lat="47.54439" lon="6.73355">
        <ele>425.5</ele>
        <time>2017-12-17T09:46:05.000Z</time>
      </trkpt>
      <trkpt lat="47.5444" lon="6.73348">
        <ele>425.4</ele>
        <time>2017-12-17T09:46:06.000Z</time>
      </trkpt>
      <trkpt lat="47.54442" lon="6.73342">
        <ele>425.3</ele>
        <time>2017-12-17T09:46:07.000Z</time>
      </trkpt>
      <trkpt lat="47.54443" lon="6.73334">
        <ele>425.1</ele>
        <time>2017-12-17T09:46:08.000Z</time>
      </trkpt>
      <trkpt lat="47.54445" lon="6.73326">
        <ele>425</ele>
        <time>2017-12-17T09:46:09.000Z</time>
      </trkpt>
      <trkpt lat="47.54444" lon="6.73317">
        <ele>423.2</ele>
        <time>2017-12-17T09:46:10.000Z</time>
      </trkpt>
      <trkpt lat="47.54444" lon="6.73311">
        <ele>423</ele>
        <time>2017-12-17T09:46:11.000Z</time>
      </trkpt>
      <trkpt lat="47.54446" lon="6.73302">
        <ele>422.9</ele>
        <time>2017-12-17T09:46:12.000Z</time>
      </trkpt>
      <trkpt lat="47.54448" lon="6.73295">
        <ele>422.8</ele>
        <time>2017-12-17T09:46:13.000Z</time>
      </trkpt>
      <trkpt lat="47.5445" lon="6.73291">
        <ele>422.6</ele>
        <time>2017-12-17T09:46:14.000Z</time>
      </trkpt>
      <trkpt lat="47.5445" lon="6.73288">
        <ele>422.4</ele>
        <time>2017-12-17T09:46:15.000Z</time>
      </trkpt>
      <trkpt lat="47.54451" lon="6.73284">
        <ele>421.1</ele>
        <time>2017-12-17T09:46:25.000Z</time>
      </trkpt>
      <trkpt lat="47.54455" lon="6.73263">
        <ele>421</ele>
        <time>2017-12-17T09:46:26.000Z</time>
      </trkpt>
      <trkpt lat="47.54455" lon="6.73263">
        <ele>421.4</ele>
        <time>2017-12-17T09:46:32.000Z</time>
      </trkpt>
      <trkpt lat="47.54457" lon="6.7325">
        <ele>421.5</ele>
        <time>2017-12-17T09:46:33.000Z</time>
      </trkpt>
      <trkpt lat="47.54457" lon="6.7325">
        <ele>422.3</ele>
        <time>2017-12-17T09:46:40.000Z</time>
      </trkpt>
      <trkpt lat="47.54457" lon="6.73233">
        <ele>422.4</ele>
        <time>2017-12-17T09:46:41.000Z</time>
      </trkpt>
      <trkpt lat="47.54457" lon="6.73233">
        <ele>423.9</ele>
        <time>2017-12-17T09:46:50.000Z</time>
      </trkpt>
      <trkpt lat="47.54457" lon="6.7322">
        <ele>424.2</ele>
        <time>2017-12-17T09:46:51.000Z</time>
      </trkpt>
      <trkpt lat="47.54457" lon="6.7322">
        <ele>426.1</ele>
        <time>2017-12-17T09:46:59.000Z</time>
      </trkpt>
      <trkpt lat="47.54457" lon="6.73209">
        <ele>426.4</ele>
        <time>2017-12-17T09:47:00.000Z</time>
      </trkpt>
      <trkpt lat="47.54457" lon="6.73209">
        <ele>429.4</ele>
        <time>2017-12-17T09:47:26.000Z</time>
      </trkpt>
      <trkpt lat="47.54457" lon="6.73195">
        <ele>429.5</ele>
        <time>2017-12-17T09:47:27.000Z</time>
      </trkpt>
      <trkpt lat="47.54457" lon="6.73195">
        <ele>430.1</ele>
        <time>2017-12-17T09:47:32.000Z</time>
      </trkpt>
      <trkpt lat="47.54454" lon="6.73175">
        <ele>430.1</ele>
        <time>2017-12-17T09:47:33.000Z</time>
      </trkpt>
      <trkpt lat="47.54454" lon="6.73175">
        <ele>430.8</ele>
        <time>2017-12-17T09:47:37.000Z</time>
      </trkpt>
      <trkpt lat="47.54453" lon="6.73161">
        <ele>431</ele>
        <time>2017-12-17T09:47:38.000Z</time>
      </trkpt>
      <trkpt lat="47.54453" lon="6.73161">
        <ele>432.5</ele>
        <time>2017-12-17T09:47:43.000Z</time>
      </trkpt>
      <trkpt lat="47.54454" lon="6.73146">
        <ele>432.7</ele>
        <time>2017-12-17T09:47:44.000Z</time>
      </trkpt>
      <trkpt lat="47.54454" lon="6.73146">
        <ele>434.4</ele>
        <time>2017-12-17T09:47:52.000Z</time>
      </trkpt>
      <trkpt lat="47.54452" lon="6.73128">
        <ele>434.6</ele>
        <time>2017-12-17T09:47:53.000Z</time>
      </trkpt>
      <trkpt lat="47.54451" lon="6.73121">
        <ele>435.4</ele>
        <time>2017-12-17T09:47:57.000Z</time>
      </trkpt>
      <trkpt lat="47.54451" lon="6.73119">
        <ele>435.6</ele>
        <time>2017-12-17T09:47:58.000Z</time>
      </trkpt>
      <trkpt lat="47.5445" lon="6.73116">
        <ele>437.1</ele>
        <time>2017-12-17T09:48:09.000Z</time>
      </trkpt>
      <trkpt lat="47.54448" lon="6.73102">
        <ele>437.3</ele>
        <time>2017-12-17T09:48:10.000Z</time>
      </trkpt>
      <trkpt lat="47.54448" lon="6.73102">
        <ele>439.3</ele>
        <time>2017-12-17T09:48:52.000Z</time>
      </trkpt>
      <trkpt lat="47.54436" lon="6.73102">
        <ele>439.6</ele>
        <time>2017-12-17T09:48:53.000Z</time>
      </trkpt>
      <trkpt lat="47.54432" lon="6.73103">
        <ele>440.3</ele>
        <time>2017-12-17T09:48:55.000Z</time>
      </trkpt>
      <trkpt lat="47.54429" lon="6.73102">
        <ele>440.6</ele>
        <time>2017-12-17T09:48:56.000Z</time>
      </trkpt>
      <trkpt lat="47.54425" lon="6.73102">
        <ele>441</ele>
        <time>2017-12-17T09:48:57.000Z</time>
      </trkpt>
      <trkpt lat="47.5442" lon="6.731">
        <ele>444.2</ele>
        <time>2017-12-17T09:48:58.000Z</time>
      </trkpt>
      <trkpt lat="47.54416" lon="6.73099">
        <ele>444.5</ele>
        <time>2017-12-17T09:48:59.000Z</time>
      </trkpt>
      <trkpt lat="47.54409" lon="6.73096">
        <ele>446.5</ele>
        <time>2017-12-17T09:49:00.000Z</time>
      </trkpt>
      <trkpt lat="47.54404" lon="6.73094">
        <ele>448</ele>
        <time>2017-12-17T09:49:01.000Z</time>
      </trkpt>
      <trkpt lat="47.54399" lon="6.73092">
        <ele>448.8</ele>
        <time>2017-12-17T09:49:02.000Z</time>
      </trkpt>
      <trkpt lat="47.54394" lon="6.7309">
        <ele>449.7</ele>
        <time>2017-12-17T09:49:03.000Z</time>
      </trkpt>
      <trkpt lat="47.54388" lon="6.73088">
        <ele>450.8</ele>
        <time>2017-12-17T09:49:04.000Z</time>
      </trkpt>
      <trkpt lat="47.54383" lon="6.73086">
        <ele>451.1</ele>
        <time>2017-12-17T09:49:05.000Z</time>
      </trkpt>
      <trkpt lat="47.54379" lon="6.73084">
        <ele>450.5</ele>
        <time>2017-12-17T09:49:06.000Z</time>
      </trkpt>
      <trkpt lat="47.54373" lon="6.73082">
        <ele>450</ele>
        <time>2017-12-17T09:49:07.000Z</time>
      </trkpt>
      <trkpt lat="47.54367" lon="6.7308">
        <ele>449.4</ele>
        <time>2017-12-17T09:49:08.000Z</time>
      </trkpt>
      <trkpt lat="47.5436" lon="6.73078">
        <ele>448.3</ele>
        <time>2017-12-17T09:49:09.000Z</time>
      </trkpt>
      <trkpt lat="47.54353" lon="6.73076">
        <ele>447.1</ele>
        <time>2017-12-17T09:49:10.000Z</time>
      </trkpt>
      <trkpt lat="47.54346" lon="6.73074">
        <ele>445.9</ele>
        <time>2017-12-17T09:49:11.000Z</time>
      </trkpt>
      <trkpt lat="47.5434" lon="6.73073">
        <ele>444.8</ele>
        <time>2017-12-17T09:49:12.000Z</time>
      </trkpt>
      <trkpt lat="47.54334" lon="6.73071">
        <ele>443.8</ele>
        <time>2017-12-17T09:49:13.000Z</time>
      </trkpt>
      <trkpt lat="47.54327" lon="6.7307">
        <ele>443</ele>
        <time>2017-12-17T09:49:14.000Z</time>
      </trkpt>
      <trkpt lat="47.54319" lon="6.73068">
        <ele>441.9</ele>
        <time>2017-12-17T09:49:15.000Z</time>
      </trkpt>
      <trkpt lat="47.54312" lon="6.73065">
        <ele>441.2</ele>
        <time>2017-12-17T09:49:16.000Z</time>
      </trkpt>
      <trkpt lat="47.54305" lon="6.73063">
        <ele>440.9</ele>
        <time>2017-12-17T09:49:17.000Z</time>
      </trkpt>
      <trkpt lat="47.54297" lon="6.7306">
        <ele>440.7</ele>
        <time>2017-12-17T09:49:18.000Z</time>
      </trkpt>
      <trkpt lat="47.54289" lon="6.73057">
        <ele>439.8</ele>
        <time>2017-12-17T09:49:19.000Z</time>
      </trkpt>
      <trkpt lat="47.54282" lon="6.73054">
        <ele>439.1</ele>
        <time>2017-12-17T09:49:20.000Z</time>
      </trkpt>
      <trkpt lat="47.54275" lon="6.7305">
        <ele>439.2</ele>
        <time>2017-12-17T09:49:21.000Z</time>
      </trkpt>
      <trkpt lat="47.54267" lon="6.73047">
        <ele>439.8</ele>
        <time>2017-12-17T09:49:22.000Z</time>
      </trkpt>
      <trkpt lat="47.54258" lon="6.73044">
        <ele>440.7</ele>
        <time>2017-12-17T09:49:23.000Z</time>
      </trkpt>
      <trkpt lat="47.54248" lon="6.73041">
        <ele>440.5</ele>
        <time>2017-12-17T09:49:24.000Z</time>
      </trkpt>
      <trkpt lat="47.54238" lon="6.73039">
        <ele>440.1</ele>
        <time>2017-12-17T09:49:25.000Z</time>
      </trkpt>
      <trkpt lat="47.5423" lon="6.73037">
        <ele>439.7</ele>
        <time>2017-12-17T09:49:26.000Z</time>
      </trkpt>
      <trkpt lat="47.5422" lon="6.73035">
        <ele>439.4</ele>
        <time>2017-12-17T09:49:27.000Z</time>
      </trkpt>
      <trkpt lat="47.54212" lon="6.73033">
        <ele>439.2</ele>
        <time>2017-12-17T09:49:28.000Z</time>
      </trkpt>
      <trkpt lat="47.54202" lon="6.73031">
        <ele>437.7</ele>
        <time>2017-12-17T09:49:29.000Z</time>
      </trkpt>
      <trkpt lat="47.54194" lon="6.73029">
        <ele>436.4</ele>
        <time>2017-12-17T09:49:30.000Z</time>
      </trkpt>
      <trkpt lat="47.54184" lon="6.73027">
        <ele>435.1</ele>
        <time>2017-12-17T09:49:31.000Z</time>
      </trkpt>
      <trkpt lat="47.54175" lon="6.73025">
        <ele>434.3</ele>
        <time>2017-12-17T09:49:32.000Z</time>
      </trkpt>
      <trkpt lat="47.54166" lon="6.73023">
        <ele>433.2</ele>
        <time>2017-12-17T09:49:33.000Z</time>
      </trkpt>
      <trkpt lat="47.54158" lon="6.73018">
        <ele>432.5</ele>
        <time>2017-12-17T09:49:34.000Z</time>
      </trkpt>
      <trkpt lat="47.5415" lon="6.73011">
        <ele>431.9</ele>
        <time>2017-12-17T09:49:35.000Z</time>
      </trkpt>
      <trkpt lat="47.54142" lon="6.73006">
        <ele>430.9</ele>
        <time>2017-12-17T09:49:36.000Z</time>
      </trkpt>
      <trkpt lat="47.54135" lon="6.73">
        <ele>429.3</ele>
        <time>2017-12-17T09:49:37.000Z</time>
      </trkpt>
      <trkpt lat="47.54127" lon="6.72995">
        <ele>427.9</ele>
        <time>2017-12-17T09:49:38.000Z</time>
      </trkpt>
      <trkpt lat="47.54119" lon="6.72989">
        <ele>426.7</ele>
        <time>2017-12-17T09:49:39.000Z</time>
      </trkpt>
      <trkpt lat="47.54113" lon="6.72984">
        <ele>425.1</ele>
        <time>2017-12-17T09:49:40.000Z</time>
      </trkpt>
      <trkpt lat="47.54105" lon="6.7298">
        <ele>423.6</ele>
        <time>2017-12-17T09:49:41.000Z</time>
      </trkpt>
      <trkpt lat="47.54098" lon="6.72976">
        <ele>423</ele>
        <time>2017-12-17T09:49:42.000Z</time>
      </trkpt>
      <trkpt lat="47.54092" lon="6.72968">
        <ele>421.8</ele>
        <time>2017-12-17T09:49:43.000Z</time>
      </trkpt>
      <trkpt lat="47.54084" lon="6.72958">
        <ele>419.9</ele>
        <time>2017-12-17T09:49:44.000Z</time>
      </trkpt>
      <trkpt lat="47.54077" lon="6.7295">
        <ele>418</ele>
        <time>2017-12-17T09:49:45.000Z</time>
      </trkpt>
      <trkpt lat="47.5407" lon="6.72941">
        <ele>416.2</ele>
        <time>2017-12-17T09:49:46.000Z</time>
      </trkpt>
      <trkpt lat="47.54064" lon="6.72932">
        <ele>414.3</ele>
        <time>2017-12-17T09:49:47.000Z</time>
      </trkpt>
      <trkpt lat="47.54058" lon="6.72924">
        <ele>412.9</ele>
        <time>2017-12-17T09:49:48.000Z</time>
      </trkpt>
      <trkpt lat="47.5405" lon="6.72915">
        <ele>411</ele>
        <time>2017-12-17T09:49:49.000Z</time>
      </trkpt>
      <trkpt lat="47.54043" lon="6.72905">
        <ele>410</ele>
        <time>2017-12-17T09:49:50.000Z</time>
      </trkpt>
      <trkpt lat="47.54037" lon="6.72897">
        <ele>409.6</ele>
        <time>2017-12-17T09:49:51.000Z</time>
      </trkpt>
      <trkpt lat="47.54032" lon="6.72889">
        <ele>409.3</ele>
        <time>2017-12-17T09:49:52.000Z</time>
      </trkpt>
      <trkpt lat="47.54027" lon="6.7288">
        <ele>408.5</ele>
        <time>2017-12-17T09:49:53.000Z</time>
      </trkpt>
      <trkpt lat="47.54022" lon="6.72872">
        <ele>408.6</ele>
        <time>2017-12-17T09:49:54.000Z</time>
      </trkpt>
      <trkpt lat="47.54018" lon="6.72864">
        <ele>408.3</ele>
        <time>2017-12-17T09:49:55.000Z</time>
      </trkpt>
      <trkpt lat="47.54016" lon="6.72856">
        <ele>408</ele>
        <time>2017-12-17T09:49:56.000Z</time>
      </trkpt>
      <trkpt lat="47.54013" lon="6.72848">
        <ele>408.2</ele>
        <time>2017-12-17T09:49:57.000Z</time>
      </trkpt>
      <trkpt lat="47.54011" lon="6.72839">
        <ele>407.9</ele>
        <time>2017-12-17T09:49:58.000Z</time>
      </trkpt>
      <trkpt lat="47.54009" lon="6.72829">
        <ele>407.5</ele>
        <time>2017-12-17T09:49:59.000Z</time>
      </trkpt>
      <trkpt lat="47.54009" lon="6.72823">
        <ele>407.4</ele>
        <time>2017-12-17T09:50:00.000Z</time>
      </trkpt>
      <trkpt lat="47.54007" lon="6.72813">
        <ele>406.5</ele>
        <time>2017-12-17T09:50:01.000Z</time>
      </trkpt>
      <trkpt lat="47.54005" lon="6.72805">
        <ele>405.9</ele>
        <time>2017-12-17T09:50:02.000Z</time>
      </trkpt>
      <trkpt lat="47.54002" lon="6.728">
        <ele>405.8</ele>
        <time>2017-12-17T09:50:03.000Z</time>
      </trkpt>
      <trkpt lat="47.53999" lon="6.72795">
        <ele>405.7</ele>
        <time>2017-12-17T09:50:04.000Z</time>
      </trkpt>
      <trkpt lat="47.53998" lon="6.7279">
        <ele>405.7</ele>
        <time>2017-12-17T09:50:05.000Z</time>
      </trkpt>
      <trkpt lat="47.53996" lon="6.72786">
        <ele>405.6</ele>
        <time>2017-12-17T09:50:06.000Z</time>
      </trkpt>
      <trkpt lat="47.53993" lon="6.72783">
        <ele>405.6</ele>
        <time>2017-12-17T09:50:07.000Z</time>
      </trkpt>
      <trkpt lat="47.53989" lon="6.72781">
        <ele>405.7</ele>
        <time>2017-12-17T09:50:08.000Z</time>
      </trkpt>
      <trkpt lat="47.53986" lon="6.72779">
        <ele>405.9</ele>
        <time>2017-12-17T09:50:09.000Z</time>
      </trkpt>
      <trkpt lat="47.53982" lon="6.72777">
        <ele>406.6</ele>
        <time>2017-12-17T09:50:10.000Z</time>
      </trkpt>
      <trkpt lat="47.5398" lon="6.72776">
        <ele>406.7</ele>
        <time>2017-12-17T09:50:11.000Z</time>
      </trkpt>
      <trkpt lat="47.53976" lon="6.72772">
        <ele>406.8</ele>
        <time>2017-12-17T09:50:12.000Z</time>
      </trkpt>
      <trkpt lat="47.5397" lon="6.72766">
        <ele>406.8</ele>
        <time>2017-12-17T09:50:13.000Z</time>
      </trkpt>
      <trkpt lat="47.53965" lon="6.72761">
        <ele>406.9</ele>
        <time>2017-12-17T09:50:14.000Z</time>
      </trkpt>
      <trkpt lat="47.5396" lon="6.7276">
        <ele>407.1</ele>
        <time>2017-12-17T09:50:15.000Z</time>
      </trkpt>
      <trkpt lat="47.53955" lon="6.72757">
        <ele>407.3</ele>
        <time>2017-12-17T09:50:16.000Z</time>
      </trkpt>
      <trkpt lat="47.5395" lon="6.72755">
        <ele>407.5</ele>
        <time>2017-12-17T09:50:17.000Z</time>
      </trkpt>
      <trkpt lat="47.53945" lon="6.72751">
        <ele>410</ele>
        <time>2017-12-17T09:50:18.000Z</time>
      </trkpt>
      <trkpt lat="47.53936" lon="6.72746">
        <ele>411.8</ele>
        <time>2017-12-17T09:50:19.000Z</time>
      </trkpt>
      <trkpt lat="47.53928" lon="6.72741">
        <ele>413</ele>
        <time>2017-12-17T09:50:20.000Z</time>
      </trkpt>
      <trkpt lat="47.53919" lon="6.72736">
        <ele>413.9</ele>
        <time>2017-12-17T09:50:21.000Z</time>
      </trkpt>
      <trkpt lat="47.53911" lon="6.72732">
        <ele>414.7</ele>
        <time>2017-12-17T09:50:22.000Z</time>
      </trkpt>
      <trkpt lat="47.53903" lon="6.72728">
        <ele>415.5</ele>
        <time>2017-12-17T09:50:23.000Z</time>
      </trkpt>
      <trkpt lat="47.53897" lon="6.72725">
        <ele>416.8</ele>
        <time>2017-12-17T09:50:24.000Z</time>
      </trkpt>
      <trkpt lat="47.5389" lon="6.72722">
        <ele>417.4</ele>
        <time>2017-12-17T09:50:25.000Z</time>
      </trkpt>
      <trkpt lat="47.53883" lon="6.72719">
        <ele>418</ele>
        <time>2017-12-17T09:50:26.000Z</time>
      </trkpt>
      <trkpt lat="47.53876" lon="6.72721">
        <ele>417.9</ele>
        <time>2017-12-17T09:50:27.000Z</time>
      </trkpt>
      <trkpt lat="47.53869" lon="6.72723">
        <ele>417.3</ele>
        <time>2017-12-17T09:50:28.000Z</time>
      </trkpt>
      <trkpt lat="47.53861" lon="6.72725">
        <ele>417</ele>
        <time>2017-12-17T09:50:29.000Z</time>
      </trkpt>
      <trkpt lat="47.53853" lon="6.72726">
        <ele>416.4</ele>
        <time>2017-12-17T09:50:30.000Z</time>
      </trkpt>
      <trkpt lat="47.53845" lon="6.72727">
        <ele>415.1</ele>
        <time>2017-12-17T09:50:31.000Z</time>
      </trkpt>
      <trkpt lat="47.53838" lon="6.72728">
        <ele>415</ele>
        <time>2017-12-17T09:50:32.000Z</time>
      </trkpt>
      <trkpt lat="47.53832" lon="6.7273">
        <ele>414.1</ele>
        <time>2017-12-17T09:50:33.000Z</time>
      </trkpt>
      <trkpt lat="47.53825" lon="6.72732">
        <ele>412.3</ele>
        <time>2017-12-17T09:50:34.000Z</time>
      </trkpt>
      <trkpt lat="47.53817" lon="6.72732">
        <ele>410.5</ele>
        <time>2017-12-17T09:50:35.000Z</time>
      </trkpt>
      <trkpt lat="47.53811" lon="6.72735">
        <ele>408.4</ele>
        <time>2017-12-17T09:50:36.000Z</time>
      </trkpt>
      <trkpt lat="47.53804" lon="6.72739">
        <ele>406.3</ele>
        <time>2017-12-17T09:50:37.000Z</time>
      </trkpt>
      <trkpt lat="47.53797" lon="6.72743">
        <ele>404.9</ele>
        <time>2017-12-17T09:50:38.000Z</time>
      </trkpt>
      <trkpt lat="47.53789" lon="6.72743">
        <ele>402.7</ele>
        <time>2017-12-17T09:50:39.000Z</time>
      </trkpt>
      <trkpt lat="47.5378" lon="6.72739">
        <ele>401</ele>
        <time>2017-12-17T09:50:40.000Z</time>
      </trkpt>
      <trkpt lat="47.53772" lon="6.72735">
        <ele>399.6</ele>
        <time>2017-12-17T09:50:41.000Z</time>
      </trkpt>
      <trkpt lat="47.53765" lon="6.72729">
        <ele>398.5</ele>
        <time>2017-12-17T09:50:42.000Z</time>
      </trkpt>
      <trkpt lat="47.53758" lon="6.72724">
        <ele>397.7</ele>
        <time>2017-12-17T09:50:43.000Z</time>
      </trkpt>
      <trkpt lat="47.53749" lon="6.72721">
        <ele>397</ele>
        <time>2017-12-17T09:50:44.000Z</time>
      </trkpt>
      <trkpt lat="47.53741" lon="6.72722">
        <ele>396.2</ele>
        <time>2017-12-17T09:50:45.000Z</time>
      </trkpt>
      <trkpt lat="47.53732" lon="6.72723">
        <ele>395.3</ele>
        <time>2017-12-17T09:50:46.000Z</time>
      </trkpt>
      <trkpt lat="47.53723" lon="6.72724">
        <ele>395.7</ele>
        <time>2017-12-17T09:50:47.000Z</time>
      </trkpt>
      <trkpt lat="47.53714" lon="6.72725">
        <ele>395.6</ele>
        <time>2017-12-17T09:50:48.000Z</time>
      </trkpt>
      <trkpt lat="47.53706" lon="6.72726">
        <ele>395.7</ele>
        <time>2017-12-17T09:50:49.000Z</time>
      </trkpt>
      <trkpt lat="47.537" lon="6.72727">
        <ele>396</ele>
        <time>2017-12-17T09:50:50.000Z</time>
      </trkpt>
      <trkpt lat="47.53693" lon="6.72727">
        <ele>396.2</ele>
        <time>2017-12-17T09:50:51.000Z</time>
      </trkpt>
      <trkpt lat="47.53687" lon="6.72728">
        <ele>396.2</ele>
        <time>2017-12-17T09:50:52.000Z</time>
      </trkpt>
      <trkpt lat="47.53683" lon="6.72727">
        <ele>395.6</ele>
        <time>2017-12-17T09:50:53.000Z</time>
      </trkpt>
      <trkpt lat="47.53678" lon="6.72725">
        <ele>395.6</ele>
        <time>2017-12-17T09:50:54.000Z</time>
      </trkpt>
      <trkpt lat="47.53675" lon="6.72724">
        <ele>395.6</ele>
        <time>2017-12-17T09:50:55.000Z</time>
      </trkpt>
      <trkpt lat="47.53672" lon="6.72722">
        <ele>395.6</ele>
        <time>2017-12-17T09:50:56.000Z</time>
      </trkpt>
      <trkpt lat="47.5367" lon="6.72721">
        <ele>395.3</ele>
        <time>2017-12-17T09:50:58.000Z</time>
      </trkpt>
      <trkpt lat="47.53667" lon="6.72719">
        <ele>395.1</ele>
        <time>2017-12-17T09:50:59.000Z</time>
      </trkpt>
      <trkpt lat="47.53664" lon="6.72717">
        <ele>395</ele>
        <time>2017-12-17T09:51:00.000Z</time>
      </trkpt>
      <trkpt lat="47.53661" lon="6.72713">
        <ele>394.8</ele>
        <time>2017-12-17T09:51:01.000Z</time>
      </trkpt>
      <trkpt lat="47.53655" lon="6.72711">
        <ele>394.6</ele>
        <time>2017-12-17T09:51:03.000Z</time>
      </trkpt>
      <trkpt lat="47.53653" lon="6.72711">
        <ele>394.5</ele>
        <time>2017-12-17T09:51:04.000Z</time>
      </trkpt>
      <trkpt lat="47.5365" lon="6.7271">
        <ele>394.5</ele>
        <time>2017-12-17T09:51:05.000Z</time>
      </trkpt>
      <trkpt lat="47.53648" lon="6.7271">
        <ele>394.4</ele>
        <time>2017-12-17T09:51:06.000Z</time>
      </trkpt>
      <trkpt lat="47.53645" lon="6.72709">
        <ele>394.4</ele>
        <time>2017-12-17T09:51:07.000Z</time>
      </trkpt>
      <trkpt lat="47.53642" lon="6.72711">
        <ele>394.4</ele>
        <time>2017-12-17T09:51:08.000Z</time>
      </trkpt>
      <trkpt lat="47.53638" lon="6.72711">
        <ele>394.5</ele>
        <time>2017-12-17T09:51:09.000Z</time>
      </trkpt>
      <trkpt lat="47.53635" lon="6.7271">
        <ele>394.4</ele>
        <time>2017-12-17T09:51:10.000Z</time>
      </trkpt>
      <trkpt lat="47.5363" lon="6.72709">
        <ele>394.3</ele>
        <time>2017-12-17T09:51:11.000Z</time>
      </trkpt>
      <trkpt lat="47.53626" lon="6.72711">
        <ele>392.7</ele>
        <time>2017-12-17T09:51:12.000Z</time>
      </trkpt>
      <trkpt lat="47.53622" lon="6.72713">
        <ele>392</ele>
        <time>2017-12-17T09:51:13.000Z</time>
      </trkpt>
      <trkpt lat="47.53619" lon="6.72714">
        <ele>390.4</ele>
        <time>2017-12-17T09:51:14.000Z</time>
      </trkpt>
      <trkpt lat="47.53615" lon="6.72713">
        <ele>389.3</ele>
        <time>2017-12-17T09:51:15.000Z</time>
      </trkpt>
      <trkpt lat="47.53609" lon="6.72713">
        <ele>389.4</ele>
        <time>2017-12-17T09:51:16.000Z</time>
      </trkpt>
      <trkpt lat="47.53605" lon="6.72712">
        <ele>389.4</ele>
        <time>2017-12-17T09:51:17.000Z</time>
      </trkpt>
      <trkpt lat="47.536" lon="6.72711">
        <ele>389.2</ele>
        <time>2017-12-17T09:51:18.000Z</time>
      </trkpt>
      <trkpt lat="47.53595" lon="6.7271">
        <ele>388.8</ele>
        <time>2017-12-17T09:51:19.000Z</time>
      </trkpt>
      <trkpt lat="47.53591" lon="6.72709">
        <ele>388.8</ele>
        <time>2017-12-17T09:51:20.000Z</time>
      </trkpt>
      <trkpt lat="47.53587" lon="6.72709">
        <ele>389.2</ele>
        <time>2017-12-17T09:51:21.000Z</time>
      </trkpt>
      <trkpt lat="47.53582" lon="6.72709">
        <ele>389.1</ele>
        <time>2017-12-17T09:51:22.000Z</time>
      </trkpt>
      <trkpt lat="47.53578" lon="6.72709">
        <ele>389</ele>
        <time>2017-12-17T09:51:23.000Z</time>
      </trkpt>
      <trkpt lat="47.53573" lon="6.72709">
        <ele>388.4</ele>
        <time>2017-12-17T09:51:24.000Z</time>
      </trkpt>
      <trkpt lat="47.53568" lon="6.72706">
        <ele>387.3</ele>
        <time>2017-12-17T09:51:25.000Z</time>
      </trkpt>
      <trkpt lat="47.53562" lon="6.72703">
        <ele>386.2</ele>
        <time>2017-12-17T09:51:26.000Z</time>
      </trkpt>
      <trkpt lat="47.53557" lon="6.72701">
        <ele>384.9</ele>
        <time>2017-12-17T09:51:27.000Z</time>
      </trkpt>
      <trkpt lat="47.53552" lon="6.72698">
        <ele>384</ele>
        <time>2017-12-17T09:51:28.000Z</time>
      </trkpt>
      <trkpt lat="47.53549" lon="6.72694">
        <ele>385.1</ele>
        <time>2017-12-17T09:51:29.000Z</time>
      </trkpt>
      <trkpt lat="47.53545" lon="6.7269">
        <ele>386.6</ele>
        <time>2017-12-17T09:51:30.000Z</time>
      </trkpt>
      <trkpt lat="47.5354" lon="6.72688">
        <ele>388</ele>
        <time>2017-12-17T09:51:31.000Z</time>
      </trkpt>
      <trkpt lat="47.53536" lon="6.72686">
        <ele>389.5</ele>
        <time>2017-12-17T09:51:32.000Z</time>
      </trkpt>
      <trkpt lat="47.53531" lon="6.72685">
        <ele>390.5</ele>
        <time>2017-12-17T09:51:33.000Z</time>
      </trkpt>
      <trkpt lat="47.53527" lon="6.72684">
        <ele>391.5</ele>
        <time>2017-12-17T09:51:34.000Z</time>
      </trkpt>
      <trkpt lat="47.53521" lon="6.72684">
        <ele>392.1</ele>
        <time>2017-12-17T09:51:35.000Z</time>
      </trkpt>
      <trkpt lat="47.53516" lon="6.72683">
        <ele>392.7</ele>
        <time>2017-12-17T09:51:36.000Z</time>
      </trkpt>
      <trkpt lat="47.53511" lon="6.72683">
        <ele>393.2</ele>
        <time>2017-12-17T09:51:37.000Z</time>
      </trkpt>
      <trkpt lat="47.53506" lon="6.72682">
        <ele>393.6</ele>
        <time>2017-12-17T09:51:38.000Z</time>
      </trkpt>
      <trkpt lat="47.53502" lon="6.72681">
        <ele>392.9</ele>
        <time>2017-12-17T09:51:39.000Z</time>
      </trkpt>
      <trkpt lat="47.53498" lon="6.7268">
        <ele>392.6</ele>
        <time>2017-12-17T09:51:40.000Z</time>
      </trkpt>
      <trkpt lat="47.53494" lon="6.72677">
        <ele>392.3</ele>
        <time>2017-12-17T09:51:41.000Z</time>
      </trkpt>
      <trkpt lat="47.5349" lon="6.72672">
        <ele>391.8</ele>
        <time>2017-12-17T09:51:42.000Z</time>
      </trkpt>
      <trkpt lat="47.53486" lon="6.72666">
        <ele>391.1</ele>
        <time>2017-12-17T09:51:43.000Z</time>
      </trkpt>
      <trkpt lat="47.53483" lon="6.7266">
        <ele>390.9</ele>
        <time>2017-12-17T09:51:44.000Z</time>
      </trkpt>
      <trkpt lat="47.5348" lon="6.72653">
        <ele>390.8</ele>
        <time>2017-12-17T09:51:45.000Z</time>
      </trkpt>
      <trkpt lat="47.53477" lon="6.72647">
        <ele>391.1</ele>
        <time>2017-12-17T09:51:46.000Z</time>
      </trkpt>
      <trkpt lat="47.53475" lon="6.72641">
        <ele>390.7</ele>
        <time>2017-12-17T09:51:47.000Z</time>
      </trkpt>
      <trkpt lat="47.53473" lon="6.72635">
        <ele>390.8</ele>
        <time>2017-12-17T09:51:48.000Z</time>
      </trkpt>
      <trkpt lat="47.53471" lon="6.72629">
        <ele>391.5</ele>
        <time>2017-12-17T09:51:49.000Z</time>
      </trkpt>
      <trkpt lat="47.53469" lon="6.72622">
        <ele>391.3</ele>
        <time>2017-12-17T09:51:50.000Z</time>
      </trkpt>
      <trkpt lat="47.53467" lon="6.72616">
        <ele>391.1</ele>
        <time>2017-12-17T09:51:51.000Z</time>
      </trkpt>
      <trkpt lat="47.53464" lon="6.72608">
        <ele>390.6</ele>
        <time>2017-12-17T09:51:52.000Z</time>
      </trkpt>
      <trkpt lat="47.53462" lon="6.72602">
        <ele>390.4</ele>
        <time>2017-12-17T09:51:53.000Z</time>
      </trkpt>
      <trkpt lat="47.53459" lon="6.72595">
        <ele>390</ele>
        <time>2017-12-17T09:51:54.000Z</time>
      </trkpt>
      <trkpt lat="47.53457" lon="6.72588">
        <ele>389.4</ele>
        <time>2017-12-17T09:51:55.000Z</time>
      </trkpt>
      <trkpt lat="47.53454" lon="6.72583">
        <ele>388.9</ele>
        <time>2017-12-17T09:51:56.000Z</time>
      </trkpt>
      <trkpt lat="47.53452" lon="6.72578">
        <ele>388.7</ele>
        <time>2017-12-17T09:51:57.000Z</time>
      </trkpt>
      <trkpt lat="47.5345" lon="6.72573">
        <ele>387.6</ele>
        <time>2017-12-17T09:51:58.000Z</time>
      </trkpt>
      <trkpt lat="47.53447" lon="6.72567">
        <ele>386.3</ele>
        <time>2017-12-17T09:51:59.000Z</time>
      </trkpt>
      <trkpt lat="47.53444" lon="6.72561">
        <ele>384.5</ele>
        <time>2017-12-17T09:52:00.000Z</time>
      </trkpt>
      <trkpt lat="47.53442" lon="6.72555">
        <ele>383.8</ele>
        <time>2017-12-17T09:52:01.000Z</time>
      </trkpt>
      <trkpt lat="47.53439" lon="6.72549">
        <ele>382.4</ele>
        <time>2017-12-17T09:52:02.000Z</time>
      </trkpt>
      <trkpt lat="47.53436" lon="6.72544">
        <ele>381.1</ele>
        <time>2017-12-17T09:52:03.000Z</time>
      </trkpt>
      <trkpt lat="47.53433" lon="6.72538">
        <ele>380.7</ele>
        <time>2017-12-17T09:52:04.000Z</time>
      </trkpt>
      <trkpt lat="47.5343" lon="6.72531">
        <ele>380.1</ele>
        <time>2017-12-17T09:52:05.000Z</time>
      </trkpt>
      <trkpt lat="47.53427" lon="6.72526">
        <ele>379.8</ele>
        <time>2017-12-17T09:52:06.000Z</time>
      </trkpt>
      <trkpt lat="47.53425" lon="6.72522">
        <ele>379.3</ele>
        <time>2017-12-17T09:52:07.000Z</time>
      </trkpt>
      <trkpt lat="47.53421" lon="6.72516">
        <ele>379.2</ele>
        <time>2017-12-17T09:52:08.000Z</time>
      </trkpt>
      <trkpt lat="47.53418" lon="6.72512">
        <ele>379.3</ele>
        <time>2017-12-17T09:52:09.000Z</time>
      </trkpt>
      <trkpt lat="47.53415" lon="6.7251">
        <ele>379.4</ele>
        <time>2017-12-17T09:52:10.000Z</time>
      </trkpt>
      <trkpt lat="47.53413" lon="6.72508">
        <ele>379.6</ele>
        <time>2017-12-17T09:52:11.000Z</time>
      </trkpt>
      <trkpt lat="47.53411" lon="6.72506">
        <ele>379.7</ele>
        <time>2017-12-17T09:52:12.000Z</time>
      </trkpt>
      <trkpt lat="47.53408" lon="6.72504">
        <ele>379.9</ele>
        <time>2017-12-17T09:52:13.000Z</time>
      </trkpt>
      <trkpt lat="47.53405" lon="6.72503">
        <ele>380.1</ele>
        <time>2017-12-17T09:52:14.000Z</time>
      </trkpt>
      <trkpt lat="47.53404" lon="6.72502">
        <ele>380.3</ele>
        <time>2017-12-17T09:52:15.000Z</time>
      </trkpt>
      <trkpt lat="47.534" lon="6.725">
        <ele>380.5</ele>
        <time>2017-12-17T09:52:16.000Z</time>
      </trkpt>
      <trkpt lat="47.53397" lon="6.72498">
        <ele>380.7</ele>
        <time>2017-12-17T09:52:17.000Z</time>
      </trkpt>
      <trkpt lat="47.53393" lon="6.72497">
        <ele>380.9</ele>
        <time>2017-12-17T09:52:18.000Z</time>
      </trkpt>
      <trkpt lat="47.5339" lon="6.72496">
        <ele>381.1</ele>
        <time>2017-12-17T09:52:19.000Z</time>
      </trkpt>
      <trkpt lat="47.53387" lon="6.72495">
        <ele>381.2</ele>
        <time>2017-12-17T09:52:20.000Z</time>
      </trkpt>
      <trkpt lat="47.53384" lon="6.72495">
        <ele>381.3</ele>
        <time>2017-12-17T09:52:21.000Z</time>
      </trkpt>
      <trkpt lat="47.53381" lon="6.72494">
        <ele>381.4</ele>
        <time>2017-12-17T09:52:22.000Z</time>
      </trkpt>
      <trkpt lat="47.53379" lon="6.72494">
        <ele>381.6</ele>
        <time>2017-12-17T09:52:23.000Z</time>
      </trkpt>
      <trkpt lat="47.53376" lon="6.72494">
        <ele>381.7</ele>
        <time>2017-12-17T09:52:24.000Z</time>
      </trkpt>
      <trkpt lat="47.53373" lon="6.72494">
        <ele>381.9</ele>
        <time>2017-12-17T09:52:25.000Z</time>
      </trkpt>
      <trkpt lat="47.5337" lon="6.72493">
        <ele>382.1</ele>
        <time>2017-12-17T09:52:26.000Z</time>
      </trkpt>
      <trkpt lat="47.53366" lon="6.72493">
        <ele>382.1</ele>
        <time>2017-12-17T09:52:27.000Z</time>
      </trkpt>
      <trkpt lat="47.53363" lon="6.72493">
        <ele>382.3</ele>
        <time>2017-12-17T09:52:28.000Z</time>
      </trkpt>
      <trkpt lat="47.5336" lon="6.72493">
        <ele>382.5</ele>
        <time>2017-12-17T09:52:29.000Z</time>
      </trkpt>
      <trkpt lat="47.53357" lon="6.72491">
        <ele>382.6</ele>
        <time>2017-12-17T09:52:30.000Z</time>
      </trkpt>
      <trkpt lat="47.53354" lon="6.72489">
        <ele>382.8</ele>
        <time>2017-12-17T09:52:31.000Z</time>
      </trkpt>
      <trkpt lat="47.5335" lon="6.72488">
        <ele>382.9</ele>
        <time>2017-12-17T09:52:32.000Z</time>
      </trkpt>
      <trkpt lat="47.53347" lon="6.72485">
        <ele>383</ele>
        <time>2017-12-17T09:52:33.000Z</time>
      </trkpt>
      <trkpt lat="47.53344" lon="6.72485">
        <ele>383.1</ele>
        <time>2017-12-17T09:52:34.000Z</time>
      </trkpt>
      <trkpt lat="47.53339" lon="6.72482">
        <ele>383.2</ele>
        <time>2017-12-17T09:52:35.000Z</time>
      </trkpt>
      <trkpt lat="47.53335" lon="6.7248">
        <ele>383.3</ele>
        <time>2017-12-17T09:52:36.000Z</time>
      </trkpt>
      <trkpt lat="47.53331" lon="6.72476">
        <ele>383.4</ele>
        <time>2017-12-17T09:52:37.000Z</time>
      </trkpt>
      <trkpt lat="47.53328" lon="6.72473">
        <ele>383.7</ele>
        <time>2017-12-17T09:52:38.000Z</time>
      </trkpt>
      <trkpt lat="47.53325" lon="6.7247">
        <ele>383.9</ele>
        <time>2017-12-17T09:52:39.000Z</time>
      </trkpt>
      <trkpt lat="47.53324" lon="6.72468">
        <ele>384.2</ele>
        <time>2017-12-17T09:52:40.000Z</time>
      </trkpt>
      <trkpt lat="47.53322" lon="6.72464">
        <ele>384.3</ele>
        <time>2017-12-17T09:52:41.000Z</time>
      </trkpt>
      <trkpt lat="47.53321" lon="6.72461">
        <ele>384.6</ele>
        <time>2017-12-17T09:52:42.000Z</time>
      </trkpt>
      <trkpt lat="47.53319" lon="6.72458">
        <ele>384.9</ele>
        <time>2017-12-17T09:52:43.000Z</time>
      </trkpt>
      <trkpt lat="47.5332" lon="6.72454">
        <ele>385.1</ele>
        <time>2017-12-17T09:52:44.000Z</time>
      </trkpt>
      <trkpt lat="47.5332" lon="6.72451">
        <ele>385.3</ele>
        <time>2017-12-17T09:52:45.000Z</time>
      </trkpt>
      <trkpt lat="47.53319" lon="6.72445">
        <ele>385.7</ele>
        <time>2017-12-17T09:52:47.000Z</time>
      </trkpt>
      <trkpt lat="47.53319" lon="6.72441">
        <ele>385.9</ele>
        <time>2017-12-17T09:52:48.000Z</time>
      </trkpt>
      <trkpt lat="47.53319" lon="6.72437">
        <ele>386.1</ele>
        <time>2017-12-17T09:52:49.000Z</time>
      </trkpt>
      <trkpt lat="47.53319" lon="6.72433">
        <ele>386.2</ele>
        <time>2017-12-17T09:52:50.000Z</time>
      </trkpt>
      <trkpt lat="47.53319" lon="6.72429">
        <ele>386.4</ele>
        <time>2017-12-17T09:52:51.000Z</time>
      </trkpt>
      <trkpt lat="47.53319" lon="6.72425">
        <ele>386.5</ele>
        <time>2017-12-17T09:52:52.000Z</time>
      </trkpt>
      <trkpt lat="47.53319" lon="6.7242">
        <ele>386.7</ele>
        <time>2017-12-17T09:52:53.000Z</time>
      </trkpt>
      <trkpt lat="47.5332" lon="6.72417">
        <ele>386.8</ele>
        <time>2017-12-17T09:52:54.000Z</time>
      </trkpt>
      <trkpt lat="47.5332" lon="6.72412">
        <ele>387</ele>
        <time>2017-12-17T09:52:55.000Z</time>
      </trkpt>
      <trkpt lat="47.5332" lon="6.72409">
        <ele>387.1</ele>
        <time>2017-12-17T09:52:56.000Z</time>
      </trkpt>
      <trkpt lat="47.53321" lon="6.72405">
        <ele>387.3</ele>
        <time>2017-12-17T09:52:57.000Z</time>
      </trkpt>
      <trkpt lat="47.53322" lon="6.724">
        <ele>387.5</ele>
        <time>2017-12-17T09:52:58.000Z</time>
      </trkpt>
      <trkpt lat="47.53323" lon="6.72397">
        <ele>387.8</ele>
        <time>2017-12-17T09:52:59.000Z</time>
      </trkpt>
      <trkpt lat="47.53323" lon="6.72393">
        <ele>388</ele>
        <time>2017-12-17T09:53:00.000Z</time>
      </trkpt>
      <trkpt lat="47.53323" lon="6.72388">
        <ele>388.3</ele>
        <time>2017-12-17T09:53:01.000Z</time>
      </trkpt>
      <trkpt lat="47.53322" lon="6.72381">
        <ele>388.6</ele>
        <time>2017-12-17T09:53:03.000Z</time>
      </trkpt>
      <trkpt lat="47.53322" lon="6.72378">
        <ele>388.7</ele>
        <time>2017-12-17T09:53:04.000Z</time>
      </trkpt>
      <trkpt lat="47.53322" lon="6.72374">
        <ele>388.8</ele>
        <time>2017-12-17T09:53:05.000Z</time>
      </trkpt>
      <trkpt lat="47.53321" lon="6.7237">
        <ele>388.9</ele>
        <time>2017-12-17T09:53:06.000Z</time>
      </trkpt>
      <trkpt lat="47.5332" lon="6.72367">
        <ele>389</ele>
        <time>2017-12-17T09:53:07.000Z</time>
      </trkpt>
      <trkpt lat="47.5332" lon="6.72363">
        <ele>389.2</ele>
        <time>2017-12-17T09:53:08.000Z</time>
      </trkpt>
      <trkpt lat="47.53319" lon="6.72358">
        <ele>389.3</ele>
        <time>2017-12-17T09:53:09.000Z</time>
      </trkpt>
      <trkpt lat="47.53318" lon="6.72354">
        <ele>389.4</ele>
        <time>2017-12-17T09:53:10.000Z</time>
      </trkpt>
      <trkpt lat="47.53317" lon="6.7235">
        <ele>389.5</ele>
        <time>2017-12-17T09:53:11.000Z</time>
      </trkpt>
      <trkpt lat="47.53316" lon="6.72344">
        <ele>389.8</ele>
        <time>2017-12-17T09:53:13.000Z</time>
      </trkpt>
      <trkpt lat="47.53315" lon="6.7234">
        <ele>389.9</ele>
        <time>2017-12-17T09:53:14.000Z</time>
      </trkpt>
      <trkpt lat="47.53315" lon="6.72338">
        <ele>390</ele>
        <time>2017-12-17T09:53:15.000Z</time>
      </trkpt>
      <trkpt lat="47.53314" lon="6.72333">
        <ele>390.2</ele>
        <time>2017-12-17T09:53:16.000Z</time>
      </trkpt>
      <trkpt lat="47.53313" lon="6.72327">
        <ele>390.3</ele>
        <time>2017-12-17T09:53:17.000Z</time>
      </trkpt>
      <trkpt lat="47.53313" lon="6.72322">
        <ele>390.5</ele>
        <time>2017-12-17T09:53:18.000Z</time>
      </trkpt>
      <trkpt lat="47.53313" lon="6.72316">
        <ele>390.8</ele>
        <time>2017-12-17T09:53:19.000Z</time>
      </trkpt>
      <trkpt lat="47.53312" lon="6.72311">
        <ele>391</ele>
        <time>2017-12-17T09:53:20.000Z</time>
      </trkpt>
      <trkpt lat="47.53312" lon="6.72306">
        <ele>391.2</ele>
        <time>2017-12-17T09:53:21.000Z</time>
      </trkpt>
      <trkpt lat="47.53312" lon="6.72301">
        <ele>391.5</ele>
        <time>2017-12-17T09:53:22.000Z</time>
      </trkpt>
      <trkpt lat="47.53313" lon="6.72295">
        <ele>391.8</ele>
        <time>2017-12-17T09:53:23.000Z</time>
      </trkpt>
      <trkpt lat="47.53313" lon="6.72289">
        <ele>392</ele>
        <time>2017-12-17T09:53:24.000Z</time>
      </trkpt>
      <trkpt lat="47.53314" lon="6.72283">
        <ele>394.1</ele>
        <time>2017-12-17T09:53:25.000Z</time>
      </trkpt>
      <trkpt lat="47.53315" lon="6.72279">
        <ele>395.6</ele>
        <time>2017-12-17T09:53:26.000Z</time>
      </trkpt>
      <trkpt lat="47.53316" lon="6.72274">
        <ele>397.1</ele>
        <time>2017-12-17T09:53:27.000Z</time>
      </trkpt>
      <trkpt lat="47.53317" lon="6.72268">
        <ele>397.8</ele>
        <time>2017-12-17T09:53:28.000Z</time>
      </trkpt>
      <trkpt lat="47.53318" lon="6.72261">
        <ele>398.7</ele>
        <time>2017-12-17T09:53:29.000Z</time>
      </trkpt>
      <trkpt lat="47.5332" lon="6.72253">
        <ele>399.7</ele>
        <time>2017-12-17T09:53:30.000Z</time>
      </trkpt>
      <trkpt lat="47.53321" lon="6.72246">
        <ele>400.3</ele>
        <time>2017-12-17T09:53:31.000Z</time>
      </trkpt>
      <trkpt lat="47.53323" lon="6.72241">
        <ele>400.7</ele>
        <time>2017-12-17T09:53:32.000Z</time>
      </trkpt>
      <trkpt lat="47.53326" lon="6.72235">
        <ele>400.8</ele>
        <time>2017-12-17T09:53:33.000Z</time>
      </trkpt>
      <trkpt lat="47.53328" lon="6.7223">
        <ele>400.8</ele>
        <time>2017-12-17T09:53:34.000Z</time>
      </trkpt>
      <trkpt lat="47.5333" lon="6.72224">
        <ele>400.8</ele>
        <time>2017-12-17T09:53:35.000Z</time>
      </trkpt>
      <trkpt lat="47.53333" lon="6.72219">
        <ele>401.1</ele>
        <time>2017-12-17T09:53:36.000Z</time>
      </trkpt>
      <trkpt lat="47.53336" lon="6.72213">
        <ele>401.4</ele>
        <time>2017-12-17T09:53:37.000Z</time>
      </trkpt>
      <trkpt lat="47.53339" lon="6.72209">
        <ele>401.3</ele>
        <time>2017-12-17T09:53:38.000Z</time>
      </trkpt>
      <trkpt lat="47.53342" lon="6.72204">
        <ele>401.3</ele>
        <time>2017-12-17T09:53:39.000Z</time>
      </trkpt>
      <trkpt lat="47.53346" lon="6.72199">
        <ele>401.5</ele>
        <time>2017-12-17T09:53:40.000Z</time>
      </trkpt>
      <trkpt lat="47.53349" lon="6.72195">
        <ele>401.4</ele>
        <time>2017-12-17T09:53:41.000Z</time>
      </trkpt>
      <trkpt lat="47.53352" lon="6.7219">
        <ele>401.5</ele>
        <time>2017-12-17T09:53:42.000Z</time>
      </trkpt>
      <trkpt lat="47.53353" lon="6.72186">
        <ele>401.1</ele>
        <time>2017-12-17T09:53:43.000Z</time>
      </trkpt>
      <trkpt lat="47.53356" lon="6.72181">
        <ele>401.1</ele>
        <time>2017-12-17T09:53:44.000Z</time>
      </trkpt>
      <trkpt lat="47.53357" lon="6.72175">
        <ele>401.1</ele>
        <time>2017-12-17T09:53:45.000Z</time>
      </trkpt>
      <trkpt lat="47.53359" lon="6.72169">
        <ele>401</ele>
        <time>2017-12-17T09:53:46.000Z</time>
      </trkpt>
      <trkpt lat="47.53361" lon="6.72162">
        <ele>399.8</ele>
        <time>2017-12-17T09:53:47.000Z</time>
      </trkpt>
      <trkpt lat="47.53362" lon="6.72157">
        <ele>398.3</ele>
        <time>2017-12-17T09:53:48.000Z</time>
      </trkpt>
      <trkpt lat="47.53363" lon="6.72151">
        <ele>397</ele>
        <time>2017-12-17T09:53:49.000Z</time>
      </trkpt>
      <trkpt lat="47.53365" lon="6.72146">
        <ele>396</ele>
        <time>2017-12-17T09:53:50.000Z</time>
      </trkpt>
      <trkpt lat="47.53366" lon="6.7214">
        <ele>395</ele>
        <time>2017-12-17T09:53:51.000Z</time>
      </trkpt>
      <trkpt lat="47.53366" lon="6.72134">
        <ele>394.4</ele>
        <time>2017-12-17T09:53:52.000Z</time>
      </trkpt>
      <trkpt lat="47.53367" lon="6.72128">
        <ele>394</ele>
        <time>2017-12-17T09:53:53.000Z</time>
      </trkpt>
      <trkpt lat="47.53368" lon="6.72121">
        <ele>393.5</ele>
        <time>2017-12-17T09:53:54.000Z</time>
      </trkpt>
      <trkpt lat="47.53368" lon="6.72116">
        <ele>393.5</ele>
        <time>2017-12-17T09:53:55.000Z</time>
      </trkpt>
      <trkpt lat="47.53368" lon="6.7211">
        <ele>393.5</ele>
        <time>2017-12-17T09:53:56.000Z</time>
      </trkpt>
      <trkpt lat="47.53369" lon="6.72105">
        <ele>393.5</ele>
        <time>2017-12-17T09:53:57.000Z</time>
      </trkpt>
      <trkpt lat="47.53368" lon="6.721">
        <ele>393.6</ele>
        <time>2017-12-17T09:53:58.000Z</time>
      </trkpt>
      <trkpt lat="47.53368" lon="6.72096">
        <ele>394.8</ele>
        <time>2017-12-17T09:53:59.000Z</time>
      </trkpt>
      <trkpt lat="47.53368" lon="6.72091">
        <ele>394.9</ele>
        <time>2017-12-17T09:54:00.000Z</time>
      </trkpt>
      <trkpt lat="47.53367" lon="6.72086">
        <ele>397.3</ele>
        <time>2017-12-17T09:54:01.000Z</time>
      </trkpt>
      <trkpt lat="47.53364" lon="6.72073">
        <ele>397.8</ele>
        <time>2017-12-17T09:54:03.000Z</time>
      </trkpt>
      <trkpt lat="47.53362" lon="6.72068">
        <ele>399.9</ele>
        <time>2017-12-17T09:54:04.000Z</time>
      </trkpt>
      <trkpt lat="47.53359" lon="6.72063">
        <ele>400</ele>
        <time>2017-12-17T09:54:05.000Z</time>
      </trkpt>
      <trkpt lat="47.53356" lon="6.7206">
        <ele>400.2</ele>
        <time>2017-12-17T09:54:06.000Z</time>
      </trkpt>
      <trkpt lat="47.53354" lon="6.72056">
        <ele>400.3</ele>
        <time>2017-12-17T09:54:07.000Z</time>
      </trkpt>
      <trkpt lat="47.53351" lon="6.72053">
        <ele>400.4</ele>
        <time>2017-12-17T09:54:08.000Z</time>
      </trkpt>
      <trkpt lat="47.53348" lon="6.7205">
        <ele>400.5</ele>
        <time>2017-12-17T09:54:09.000Z</time>
      </trkpt>
      <trkpt lat="47.53345" lon="6.72049">
        <ele>400.6</ele>
        <time>2017-12-17T09:54:10.000Z</time>
      </trkpt>
      <trkpt lat="47.53342" lon="6.72046">
        <ele>400.7</ele>
        <time>2017-12-17T09:54:11.000Z</time>
      </trkpt>
      <trkpt lat="47.5334" lon="6.72044">
        <ele>400.8</ele>
        <time>2017-12-17T09:54:12.000Z</time>
      </trkpt>
      <trkpt lat="47.53337" lon="6.7204">
        <ele>400.9</ele>
        <time>2017-12-17T09:54:13.000Z</time>
      </trkpt>
      <trkpt lat="47.53333" lon="6.72037">
        <ele>401.1</ele>
        <time>2017-12-17T09:54:14.000Z</time>
      </trkpt>
      <trkpt lat="47.53331" lon="6.72034">
        <ele>401.2</ele>
        <time>2017-12-17T09:54:15.000Z</time>
      </trkpt>
      <trkpt lat="47.53328" lon="6.72031">
        <ele>401.3</ele>
        <time>2017-12-17T09:54:16.000Z</time>
      </trkpt>
      <trkpt lat="47.53326" lon="6.72029">
        <ele>401.5</ele>
        <time>2017-12-17T09:54:17.000Z</time>
      </trkpt>
      <trkpt lat="47.53322" lon="6.72026">
        <ele>401.9</ele>
        <time>2017-12-17T09:54:19.000Z</time>
      </trkpt>
      <trkpt lat="47.53319" lon="6.72023">
        <ele>402.1</ele>
        <time>2017-12-17T09:54:20.000Z</time>
      </trkpt>
      <trkpt lat="47.53316" lon="6.72019">
        <ele>402.2</ele>
        <time>2017-12-17T09:54:21.000Z</time>
      </trkpt>
      <trkpt lat="47.53314" lon="6.72016">
        <ele>402.4</ele>
        <time>2017-12-17T09:54:22.000Z</time>
      </trkpt>
      <trkpt lat="47.53312" lon="6.72013">
        <ele>402.6</ele>
        <time>2017-12-17T09:54:23.000Z</time>
      </trkpt>
      <trkpt lat="47.5331" lon="6.7201">
        <ele>402.7</ele>
        <time>2017-12-17T09:54:24.000Z</time>
      </trkpt>
      <trkpt lat="47.53307" lon="6.72007">
        <ele>402.8</ele>
        <time>2017-12-17T09:54:25.000Z</time>
      </trkpt>
      <trkpt lat="47.53305" lon="6.72004">
        <ele>403</ele>
        <time>2017-12-17T09:54:26.000Z</time>
      </trkpt>
      <trkpt lat="47.53302" lon="6.72">
        <ele>403.1</ele>
        <time>2017-12-17T09:54:27.000Z</time>
      </trkpt>
      <trkpt lat="47.533" lon="6.71996">
        <ele>403.2</ele>
        <time>2017-12-17T09:54:28.000Z</time>
      </trkpt>
      <trkpt lat="47.53298" lon="6.71992">
        <ele>403.4</ele>
        <time>2017-12-17T09:54:29.000Z</time>
      </trkpt>
      <trkpt lat="47.53298" lon="6.71989">
        <ele>403.5</ele>
        <time>2017-12-17T09:54:30.000Z</time>
      </trkpt>
      <trkpt lat="47.53297" lon="6.71986">
        <ele>403.6</ele>
        <time>2017-12-17T09:54:31.000Z</time>
      </trkpt>
      <trkpt lat="47.53297" lon="6.71982">
        <ele>403.7</ele>
        <time>2017-12-17T09:54:32.000Z</time>
      </trkpt>
      <trkpt lat="47.53297" lon="6.71977">
        <ele>403.8</ele>
        <time>2017-12-17T09:54:33.000Z</time>
      </trkpt>
      <trkpt lat="47.53297" lon="6.71971">
        <ele>403.8</ele>
        <time>2017-12-17T09:54:34.000Z</time>
      </trkpt>
      <trkpt lat="47.53296" lon="6.71967">
        <ele>403.8</ele>
        <time>2017-12-17T09:54:35.000Z</time>
      </trkpt>
      <trkpt lat="47.53296" lon="6.71963">
        <ele>403.8</ele>
        <time>2017-12-17T09:54:36.000Z</time>
      </trkpt>
      <trkpt lat="47.53298" lon="6.71959">
        <ele>403.5</ele>
        <time>2017-12-17T09:54:37.000Z</time>
      </trkpt>
      <trkpt lat="47.533" lon="6.71953">
        <ele>403.4</ele>
        <time>2017-12-17T09:54:38.000Z</time>
      </trkpt>
      <trkpt lat="47.53301" lon="6.71948">
        <ele>402</ele>
        <time>2017-12-17T09:54:39.000Z</time>
      </trkpt>
      <trkpt lat="47.53303" lon="6.71943">
        <ele>401.4</ele>
        <time>2017-12-17T09:54:40.000Z</time>
      </trkpt>
      <trkpt lat="47.53304" lon="6.71939">
        <ele>401</ele>
        <time>2017-12-17T09:54:41.000Z</time>
      </trkpt>
      <trkpt lat="47.53306" lon="6.71935">
        <ele>400.5</ele>
        <time>2017-12-17T09:54:42.000Z</time>
      </trkpt>
      <trkpt lat="47.53308" lon="6.7193">
        <ele>400.2</ele>
        <time>2017-12-17T09:54:43.000Z</time>
      </trkpt>
      <trkpt lat="47.53311" lon="6.71925">
        <ele>399.6</ele>
        <time>2017-12-17T09:54:44.000Z</time>
      </trkpt>
      <trkpt lat="47.53313" lon="6.7192">
        <ele>399.6</ele>
        <time>2017-12-17T09:54:45.000Z</time>
      </trkpt>
      <trkpt lat="47.53315" lon="6.71916">
        <ele>399.6</ele>
        <time>2017-12-17T09:54:46.000Z</time>
      </trkpt>
      <trkpt lat="47.53317" lon="6.7191">
        <ele>399.6</ele>
        <time>2017-12-17T09:54:47.000Z</time>
      </trkpt>
      <trkpt lat="47.53319" lon="6.71904">
        <ele>399.6</ele>
        <time>2017-12-17T09:54:48.000Z</time>
      </trkpt>
      <trkpt lat="47.53321" lon="6.71898">
        <ele>399.5</ele>
        <time>2017-12-17T09:54:49.000Z</time>
      </trkpt>
      <trkpt lat="47.53324" lon="6.71892">
        <ele>400</ele>
        <time>2017-12-17T09:54:50.000Z</time>
      </trkpt>
      <trkpt lat="47.53326" lon="6.71887">
        <ele>400.6</ele>
        <time>2017-12-17T09:54:51.000Z</time>
      </trkpt>
      <trkpt lat="47.53328" lon="6.71883">
        <ele>400.7</ele>
        <time>2017-12-17T09:54:52.000Z</time>
      </trkpt>
      <trkpt lat="47.5333" lon="6.7188">
        <ele>400.8</ele>
        <time>2017-12-17T09:54:53.000Z</time>
      </trkpt>
      <trkpt lat="47.53333" lon="6.71876">
        <ele>401.6</ele>
        <time>2017-12-17T09:54:54.000Z</time>
      </trkpt>
      <trkpt lat="47.53336" lon="6.71872">
        <ele>401.6</ele>
        <time>2017-12-17T09:54:55.000Z</time>
      </trkpt>
      <trkpt lat="47.53339" lon="6.7187">
        <ele>401.6</ele>
        <time>2017-12-17T09:54:56.000Z</time>
      </trkpt>
      <trkpt lat="47.53343" lon="6.71867">
        <ele>401.6</ele>
        <time>2017-12-17T09:54:57.000Z</time>
      </trkpt>
      <trkpt lat="47.53346" lon="6.71865">
        <ele>401.6</ele>
        <time>2017-12-17T09:54:58.000Z</time>
      </trkpt>
      <trkpt lat="47.5335" lon="6.71862">
        <ele>401.7</ele>
        <time>2017-12-17T09:54:59.000Z</time>
      </trkpt>
      <trkpt lat="47.53353" lon="6.7186">
        <ele>402.2</ele>
        <time>2017-12-17T09:55:00.000Z</time>
      </trkpt>
      <trkpt lat="47.53357" lon="6.71857">
        <ele>402.2</ele>
        <time>2017-12-17T09:55:01.000Z</time>
      </trkpt>
      <trkpt lat="47.53364" lon="6.71852">
        <ele>403.1</ele>
        <time>2017-12-17T09:55:03.000Z</time>
      </trkpt>
      <trkpt lat="47.53368" lon="6.71848">
        <ele>403.1</ele>
        <time>2017-12-17T09:55:04.000Z</time>
      </trkpt>
      <trkpt lat="47.53371" lon="6.71844">
        <ele>403.1</ele>
        <time>2017-12-17T09:55:05.000Z</time>
      </trkpt>
      <trkpt lat="47.53374" lon="6.7184">
        <ele>403.2</ele>
        <time>2017-12-17T09:55:06.000Z</time>
      </trkpt>
      <trkpt lat="47.53377" lon="6.71836">
        <ele>404</ele>
        <time>2017-12-17T09:55:07.000Z</time>
      </trkpt>
      <trkpt lat="47.5338" lon="6.71832">
        <ele>404</ele>
        <time>2017-12-17T09:55:08.000Z</time>
      </trkpt>
      <trkpt lat="47.53382" lon="6.71828">
        <ele>404.1</ele>
        <time>2017-12-17T09:55:09.000Z</time>
      </trkpt>
      <trkpt lat="47.53385" lon="6.71824">
        <ele>404.4</ele>
        <time>2017-12-17T09:55:10.000Z</time>
      </trkpt>
      <trkpt lat="47.53387" lon="6.7182">
        <ele>404.4</ele>
        <time>2017-12-17T09:55:11.000Z</time>
      </trkpt>
      <trkpt lat="47.5339" lon="6.71816">
        <ele>404.4</ele>
        <time>2017-12-17T09:55:12.000Z</time>
      </trkpt>
      <trkpt lat="47.53393" lon="6.71813">
        <ele>404.4</ele>
        <time>2017-12-17T09:55:13.000Z</time>
      </trkpt>
      <trkpt lat="47.53395" lon="6.71809">
        <ele>404.5</ele>
        <time>2017-12-17T09:55:14.000Z</time>
      </trkpt>
      <trkpt lat="47.53398" lon="6.71805">
        <ele>404.6</ele>
        <time>2017-12-17T09:55:15.000Z</time>
      </trkpt>
      <trkpt lat="47.53401" lon="6.71801">
        <ele>404.7</ele>
        <time>2017-12-17T09:55:16.000Z</time>
      </trkpt>
      <trkpt lat="47.53403" lon="6.71798">
        <ele>404.7</ele>
        <time>2017-12-17T09:55:17.000Z</time>
      </trkpt>
      <trkpt lat="47.53407" lon="6.71794">
        <ele>404.9</ele>
        <time>2017-12-17T09:55:18.000Z</time>
      </trkpt>
      <trkpt lat="47.53409" lon="6.7179">
        <ele>404.9</ele>
        <time>2017-12-17T09:55:19.000Z</time>
      </trkpt>
      <trkpt lat="47.53411" lon="6.71786">
        <ele>405</ele>
        <time>2017-12-17T09:55:20.000Z</time>
      </trkpt>
      <trkpt lat="47.53413" lon="6.71782">
        <ele>405.1</ele>
        <time>2017-12-17T09:55:21.000Z</time>
      </trkpt>
      <trkpt lat="47.53415" lon="6.71777">
        <ele>405.1</ele>
        <time>2017-12-17T09:55:22.000Z</time>
      </trkpt>
      <trkpt lat="47.53417" lon="6.71773">
        <ele>405.1</ele>
        <time>2017-12-17T09:55:23.000Z</time>
      </trkpt>
      <trkpt lat="47.53417" lon="6.7177">
        <ele>405.1</ele>
        <time>2017-12-17T09:55:24.000Z</time>
      </trkpt>
      <trkpt lat="47.53418" lon="6.71766">
        <ele>405</ele>
        <time>2017-12-17T09:55:25.000Z</time>
      </trkpt>
      <trkpt lat="47.53419" lon="6.71761">
        <ele>405</ele>
        <time>2017-12-17T09:55:26.000Z</time>
      </trkpt>
      <trkpt lat="47.5342" lon="6.71756">
        <ele>404.9</ele>
        <time>2017-12-17T09:55:27.000Z</time>
      </trkpt>
      <trkpt lat="47.5342" lon="6.71751">
        <ele>404.9</ele>
        <time>2017-12-17T09:55:28.000Z</time>
      </trkpt>
      <trkpt lat="47.53421" lon="6.71746">
        <ele>404.8</ele>
        <time>2017-12-17T09:55:29.000Z</time>
      </trkpt>
      <trkpt lat="47.53422" lon="6.71741">
        <ele>404.7</ele>
        <time>2017-12-17T09:55:30.000Z</time>
      </trkpt>
      <trkpt lat="47.53423" lon="6.71738">
        <ele>404.7</ele>
        <time>2017-12-17T09:55:31.000Z</time>
      </trkpt>
      <trkpt lat="47.53425" lon="6.71734">
        <ele>404.7</ele>
        <time>2017-12-17T09:55:32.000Z</time>
      </trkpt>
      <trkpt lat="47.53427" lon="6.71731">
        <ele>404.8</ele>
        <time>2017-12-17T09:55:33.000Z</time>
      </trkpt>
      <trkpt lat="47.53429" lon="6.71728">
        <ele>404.8</ele>
        <time>2017-12-17T09:55:34.000Z</time>
      </trkpt>
      <trkpt lat="47.53431" lon="6.71725">
        <ele>404.9</ele>
        <time>2017-12-17T09:55:35.000Z</time>
      </trkpt>
      <trkpt lat="47.53433" lon="6.71722">
        <ele>404.9</ele>
        <time>2017-12-17T09:55:36.000Z</time>
      </trkpt>
      <trkpt lat="47.53435" lon="6.71718">
        <ele>405</ele>
        <time>2017-12-17T09:55:37.000Z</time>
      </trkpt>
      <trkpt lat="47.53437" lon="6.71714">
        <ele>405.1</ele>
        <time>2017-12-17T09:55:38.000Z</time>
      </trkpt>
      <trkpt lat="47.53439" lon="6.7171">
        <ele>405.2</ele>
        <time>2017-12-17T09:55:39.000Z</time>
      </trkpt>
      <trkpt lat="47.5344" lon="6.71707">
        <ele>405.3</ele>
        <time>2017-12-17T09:55:40.000Z</time>
      </trkpt>
      <trkpt lat="47.53442" lon="6.71704">
        <ele>405.5</ele>
        <time>2017-12-17T09:55:41.000Z</time>
      </trkpt>
      <trkpt lat="47.53444" lon="6.71701">
        <ele>405.7</ele>
        <time>2017-12-17T09:55:42.000Z</time>
      </trkpt>
      <trkpt lat="47.53446" lon="6.71698">
        <ele>405.8</ele>
        <time>2017-12-17T09:55:43.000Z</time>
      </trkpt>
      <trkpt lat="47.53449" lon="6.71696">
        <ele>405.9</ele>
        <time>2017-12-17T09:55:44.000Z</time>
      </trkpt>
      <trkpt lat="47.5345" lon="6.71694">
        <ele>406</ele>
        <time>2017-12-17T09:55:45.000Z</time>
      </trkpt>
      <trkpt lat="47.53453" lon="6.71689">
        <ele>406.1</ele>
        <time>2017-12-17T09:55:47.000Z</time>
      </trkpt>
      <trkpt lat="47.53456" lon="6.71687">
        <ele>406.3</ele>
        <time>2017-12-17T09:55:48.000Z</time>
      </trkpt>
      <trkpt lat="47.53457" lon="6.71684">
        <ele>406.4</ele>
        <time>2017-12-17T09:55:49.000Z</time>
      </trkpt>
      <trkpt lat="47.53459" lon="6.71681">
        <ele>406.6</ele>
        <time>2017-12-17T09:55:50.000Z</time>
      </trkpt>
      <trkpt lat="47.53461" lon="6.71677">
        <ele>406.9</ele>
        <time>2017-12-17T09:55:51.000Z</time>
      </trkpt>
      <trkpt lat="47.53462" lon="6.71675">
        <ele>407.2</ele>
        <time>2017-12-17T09:55:52.000Z</time>
      </trkpt>
      <trkpt lat="47.53465" lon="6.71671">
        <ele>407.6</ele>
        <time>2017-12-17T09:55:54.000Z</time>
      </trkpt>
      <trkpt lat="47.53466" lon="6.7167">
        <ele>407.8</ele>
        <time>2017-12-17T09:55:55.000Z</time>
      </trkpt>
      <trkpt lat="47.5347" lon="6.71668">
        <ele>408</ele>
        <time>2017-12-17T09:55:57.000Z</time>
      </trkpt>
      <trkpt lat="47.53471" lon="6.71667">
        <ele>408.1</ele>
        <time>2017-12-17T09:55:58.000Z</time>
      </trkpt>
      <trkpt lat="47.53472" lon="6.71664">
        <ele>408.2</ele>
        <time>2017-12-17T09:55:59.000Z</time>
      </trkpt>
      <trkpt lat="47.53473" lon="6.71661">
        <ele>408.2</ele>
        <time>2017-12-17T09:56:00.000Z</time>
      </trkpt>
      <trkpt lat="47.53474" lon="6.71659">
        <ele>408.3</ele>
        <time>2017-12-17T09:56:01.000Z</time>
      </trkpt>
      <trkpt lat="47.53477" lon="6.71656">
        <ele>408.6</ele>
        <time>2017-12-17T09:56:03.000Z</time>
      </trkpt>
      <trkpt lat="47.53479" lon="6.71653">
        <ele>408.8</ele>
        <time>2017-12-17T09:56:04.000Z</time>
      </trkpt>
      <trkpt lat="47.5348" lon="6.71651">
        <ele>408.9</ele>
        <time>2017-12-17T09:56:05.000Z</time>
      </trkpt>
      <trkpt lat="47.53482" lon="6.71649">
        <ele>409</ele>
        <time>2017-12-17T09:56:06.000Z</time>
      </trkpt>
      <trkpt lat="47.53484" lon="6.71646">
        <ele>409.2</ele>
        <time>2017-12-17T09:56:07.000Z</time>
      </trkpt>
      <trkpt lat="47.53485" lon="6.71644">
        <ele>409.3</ele>
        <time>2017-12-17T09:56:08.000Z</time>
      </trkpt>
      <trkpt lat="47.53487" lon="6.71641">
        <ele>409.4</ele>
        <time>2017-12-17T09:56:09.000Z</time>
      </trkpt>
      <trkpt lat="47.5349" lon="6.71638">
        <ele>409.7</ele>
        <time>2017-12-17T09:56:11.000Z</time>
      </trkpt>
      <trkpt lat="47.53492" lon="6.71636">
        <ele>409.8</ele>
        <time>2017-12-17T09:56:12.000Z</time>
      </trkpt>
      <trkpt lat="47.53494" lon="6.71631">
        <ele>410.1</ele>
        <time>2017-12-17T09:56:14.000Z</time>
      </trkpt>
      <trkpt lat="47.53496" lon="6.71628">
        <ele>410.2</ele>
        <time>2017-12-17T09:56:15.000Z</time>
      </trkpt>
      <trkpt lat="47.53499" lon="6.71624">
        <ele>410.7</ele>
        <time>2017-12-17T09:56:17.000Z</time>
      </trkpt>
      <trkpt lat="47.535" lon="6.71621">
        <ele>410.9</ele>
        <time>2017-12-17T09:56:18.000Z</time>
      </trkpt>
      <trkpt lat="47.53502" lon="6.71619">
        <ele>411.1</ele>
        <time>2017-12-17T09:56:19.000Z</time>
      </trkpt>
      <trkpt lat="47.53504" lon="6.71616">
        <ele>411.4</ele>
        <time>2017-12-17T09:56:20.000Z</time>
      </trkpt>
      <trkpt lat="47.53506" lon="6.71613">
        <ele>411.6</ele>
        <time>2017-12-17T09:56:21.000Z</time>
      </trkpt>
      <trkpt lat="47.53508" lon="6.71611">
        <ele>411.8</ele>
        <time>2017-12-17T09:56:22.000Z</time>
      </trkpt>
      <trkpt lat="47.5351" lon="6.71607">
        <ele>412.2</ele>
        <time>2017-12-17T09:56:24.000Z</time>
      </trkpt>
      <trkpt lat="47.53511" lon="6.71606">
        <ele>412.4</ele>
        <time>2017-12-17T09:56:25.000Z</time>
      </trkpt>
      <trkpt lat="47.53513" lon="6.71602">
        <ele>412.7</ele>
        <time>2017-12-17T09:56:27.000Z</time>
      </trkpt>
      <trkpt lat="47.53514" lon="6.716">
        <ele>412.8</ele>
        <time>2017-12-17T09:56:28.000Z</time>
      </trkpt>
      <trkpt lat="47.53516" lon="6.71595">
        <ele>413</ele>
        <time>2017-12-17T09:56:30.000Z</time>
      </trkpt>
      <trkpt lat="47.53518" lon="6.71592">
        <ele>413</ele>
        <time>2017-12-17T09:56:31.000Z</time>
      </trkpt>
      <trkpt lat="47.5352" lon="6.71586">
        <ele>413.1</ele>
        <time>2017-12-17T09:56:33.000Z</time>
      </trkpt>
      <trkpt lat="47.53521" lon="6.71584">
        <ele>413.1</ele>
        <time>2017-12-17T09:56:34.000Z</time>
      </trkpt>
      <trkpt lat="47.53524" lon="6.71579">
        <ele>413.2</ele>
        <time>2017-12-17T09:56:36.000Z</time>
      </trkpt>
      <trkpt lat="47.53525" lon="6.71577">
        <ele>413.3</ele>
        <time>2017-12-17T09:56:37.000Z</time>
      </trkpt>
      <trkpt lat="47.53527" lon="6.71574">
        <ele>413.4</ele>
        <time>2017-12-17T09:56:38.000Z</time>
      </trkpt>
      <trkpt lat="47.53529" lon="6.71571">
        <ele>413.5</ele>
        <time>2017-12-17T09:56:39.000Z</time>
      </trkpt>
      <trkpt lat="47.53531" lon="6.71567">
        <ele>413.7</ele>
        <time>2017-12-17T09:56:41.000Z</time>
      </trkpt>
      <trkpt lat="47.53533" lon="6.71565">
        <ele>413.8</ele>
        <time>2017-12-17T09:56:42.000Z</time>
      </trkpt>
      <trkpt lat="47.53534" lon="6.71563">
        <ele>413.9</ele>
        <time>2017-12-17T09:56:43.000Z</time>
      </trkpt>
      <trkpt lat="47.53536" lon="6.7156">
        <ele>414</ele>
        <time>2017-12-17T09:56:44.000Z</time>
      </trkpt>
      <trkpt lat="47.53539" lon="6.71555">
        <ele>414.4</ele>
        <time>2017-12-17T09:56:46.000Z</time>
      </trkpt>
      <trkpt lat="47.53541" lon="6.71553">
        <ele>414.5</ele>
        <time>2017-12-17T09:56:47.000Z</time>
      </trkpt>
      <trkpt lat="47.53544" lon="6.71548">
        <ele>414.8</ele>
        <time>2017-12-17T09:56:49.000Z</time>
      </trkpt>
      <trkpt lat="47.53545" lon="6.71546">
        <ele>415</ele>
        <time>2017-12-17T09:56:50.000Z</time>
      </trkpt>
      <trkpt lat="47.53547" lon="6.71543">
        <ele>415.2</ele>
        <time>2017-12-17T09:56:51.000Z</time>
      </trkpt>
      <trkpt lat="47.53549" lon="6.7154">
        <ele>415.4</ele>
        <time>2017-12-17T09:56:52.000Z</time>
      </trkpt>
      <trkpt lat="47.53552" lon="6.71535">
        <ele>415.7</ele>
        <time>2017-12-17T09:56:54.000Z</time>
      </trkpt>
      <trkpt lat="47.53554" lon="6.71533">
        <ele>415.9</ele>
        <time>2017-12-17T09:56:55.000Z</time>
      </trkpt>
      <trkpt lat="47.53557" lon="6.71529">
        <ele>416.1</ele>
        <time>2017-12-17T09:56:57.000Z</time>
      </trkpt>
      <trkpt lat="47.53558" lon="6.71528">
        <ele>416.2</ele>
        <time>2017-12-17T09:56:58.000Z</time>
      </trkpt>
      <trkpt lat="47.53562" lon="6.71524">
        <ele>416.5</ele>
        <time>2017-12-17T09:57:00.000Z</time>
      </trkpt>
      <trkpt lat="47.53563" lon="6.71522">
        <ele>416.8</ele>
        <time>2017-12-17T09:57:01.000Z</time>
      </trkpt>
      <trkpt lat="47.53566" lon="6.71518">
        <ele>417.2</ele>
        <time>2017-12-17T09:57:03.000Z</time>
      </trkpt>
      <trkpt lat="47.53567" lon="6.71517">
        <ele>417.4</ele>
        <time>2017-12-17T09:57:04.000Z</time>
      </trkpt>
      <trkpt lat="47.5357" lon="6.71514">
        <ele>417.5</ele>
        <time>2017-12-17T09:57:05.000Z</time>
      </trkpt>
      <trkpt lat="47.53572" lon="6.71511">
        <ele>417.8</ele>
        <time>2017-12-17T09:57:06.000Z</time>
      </trkpt>
      <trkpt lat="47.53575" lon="6.71507">
        <ele>418.3</ele>
        <time>2017-12-17T09:57:08.000Z</time>
      </trkpt>
      <trkpt lat="47.53576" lon="6.71506">
        <ele>418.6</ele>
        <time>2017-12-17T09:57:09.000Z</time>
      </trkpt>
      <trkpt lat="47.53578" lon="6.71504">
        <ele>418.8</ele>
        <time>2017-12-17T09:57:10.000Z</time>
      </trkpt>
      <trkpt lat="47.53581" lon="6.71501">
        <ele>419</ele>
        <time>2017-12-17T09:57:11.000Z</time>
      </trkpt>
      <trkpt lat="47.53584" lon="6.71497">
        <ele>419.6</ele>
        <time>2017-12-17T09:57:13.000Z</time>
      </trkpt>
      <trkpt lat="47.53585" lon="6.71495">
        <ele>419.9</ele>
        <time>2017-12-17T09:57:14.000Z</time>
      </trkpt>
      <trkpt lat="47.53587" lon="6.71493">
        <ele>420.1</ele>
        <time>2017-12-17T09:57:15.000Z</time>
      </trkpt>
      <trkpt lat="47.53589" lon="6.7149">
        <ele>420.4</ele>
        <time>2017-12-17T09:57:16.000Z</time>
      </trkpt>
      <trkpt lat="47.53592" lon="6.71487">
        <ele>421</ele>
        <time>2017-12-17T09:57:18.000Z</time>
      </trkpt>
      <trkpt lat="47.53594" lon="6.71485">
        <ele>421.2</ele>
        <time>2017-12-17T09:57:19.000Z</time>
      </trkpt>
      <trkpt lat="47.53596" lon="6.71484">
        <ele>421.5</ele>
        <time>2017-12-17T09:57:20.000Z</time>
      </trkpt>
      <trkpt lat="47.53598" lon="6.71482">
        <ele>421.7</ele>
        <time>2017-12-17T09:57:21.000Z</time>
      </trkpt>
      <trkpt lat="47.53601" lon="6.71479">
        <ele>422.1</ele>
        <time>2017-12-17T09:57:23.000Z</time>
      </trkpt>
      <trkpt lat="47.53602" lon="6.71478">
        <ele>422.2</ele>
        <time>2017-12-17T09:57:24.000Z</time>
      </trkpt>
      <trkpt lat="47.53605" lon="6.71474">
        <ele>422.5</ele>
        <time>2017-12-17T09:57:26.000Z</time>
      </trkpt>
      <trkpt lat="47.53607" lon="6.71471">
        <ele>422.7</ele>
        <time>2017-12-17T09:57:27.000Z</time>
      </trkpt>
      <trkpt lat="47.5361" lon="6.71467">
        <ele>423.2</ele>
        <time>2017-12-17T09:57:29.000Z</time>
      </trkpt>
      <trkpt lat="47.53612" lon="6.71465">
        <ele>423.3</ele>
        <time>2017-12-17T09:57:30.000Z</time>
      </trkpt>
      <trkpt lat="47.53614" lon="6.71461">
        <ele>423.6</ele>
        <time>2017-12-17T09:57:32.000Z</time>
      </trkpt>
      <trkpt lat="47.53616" lon="6.71459">
        <ele>423.8</ele>
        <time>2017-12-17T09:57:33.000Z</time>
      </trkpt>
      <trkpt lat="47.53617" lon="6.71456">
        <ele>424</ele>
        <time>2017-12-17T09:57:34.000Z</time>
      </trkpt>
      <trkpt lat="47.53619" lon="6.71453">
        <ele>424.1</ele>
        <time>2017-12-17T09:57:35.000Z</time>
      </trkpt>
      <trkpt lat="47.53621" lon="6.71449">
        <ele>424.4</ele>
        <time>2017-12-17T09:57:37.000Z</time>
      </trkpt>
      <trkpt lat="47.53622" lon="6.71448">
        <ele>424.5</ele>
        <time>2017-12-17T09:57:38.000Z</time>
      </trkpt>
      <trkpt lat="47.53624" lon="6.71443">
        <ele>424.8</ele>
        <time>2017-12-17T09:57:40.000Z</time>
      </trkpt>
      <trkpt lat="47.53625" lon="6.7144">
        <ele>425</ele>
        <time>2017-12-17T09:57:41.000Z</time>
      </trkpt>
      <trkpt lat="47.53626" lon="6.71434">
        <ele>425.2</ele>
        <time>2017-12-17T09:57:43.000Z</time>
      </trkpt>
      <trkpt lat="47.53627" lon="6.71432">
        <ele>425.3</ele>
        <time>2017-12-17T09:57:44.000Z</time>
      </trkpt>
      <trkpt lat="47.53628" lon="6.71427">
        <ele>425.4</ele>
        <time>2017-12-17T09:57:46.000Z</time>
      </trkpt>
      <trkpt lat="47.53629" lon="6.71424">
        <ele>425.5</ele>
        <time>2017-12-17T09:57:47.000Z</time>
      </trkpt>
      <trkpt lat="47.53631" lon="6.71419">
        <ele>425.5</ele>
        <time>2017-12-17T09:57:49.000Z</time>
      </trkpt>
      <trkpt lat="47.53633" lon="6.71416">
        <ele>425.5</ele>
        <time>2017-12-17T09:57:50.000Z</time>
      </trkpt>
      <trkpt lat="47.53635" lon="6.71412">
        <ele>425.4</ele>
        <time>2017-12-17T09:57:52.000Z</time>
      </trkpt>
      <trkpt lat="47.53637" lon="6.71409">
        <ele>425.5</ele>
        <time>2017-12-17T09:57:53.000Z</time>
      </trkpt>
      <trkpt lat="47.53639" lon="6.71405">
        <ele>425.5</ele>
        <time>2017-12-17T09:57:55.000Z</time>
      </trkpt>
      <trkpt lat="47.5364" lon="6.71403">
        <ele>425.5</ele>
        <time>2017-12-17T09:57:56.000Z</time>
      </trkpt>
      <trkpt lat="47.53642" lon="6.714">
        <ele>425.6</ele>
        <time>2017-12-17T09:57:58.000Z</time>
      </trkpt>
      <trkpt lat="47.53644" lon="6.71399">
        <ele>425.7</ele>
        <time>2017-12-17T09:57:59.000Z</time>
      </trkpt>
      <trkpt lat="47.53646" lon="6.71396">
        <ele>426</ele>
        <time>2017-12-17T09:58:01.000Z</time>
      </trkpt>
      <trkpt lat="47.5365" lon="6.71391">
        <ele>426.4</ele>
        <time>2017-12-17T09:58:03.000Z</time>
      </trkpt>
      <trkpt lat="47.53653" lon="6.71389">
        <ele>426.7</ele>
        <time>2017-12-17T09:58:05.000Z</time>
      </trkpt>
      <trkpt lat="47.53654" lon="6.71388">
        <ele>426.9</ele>
        <time>2017-12-17T09:58:06.000Z</time>
      </trkpt>
      <trkpt lat="47.53658" lon="6.71384">
        <ele>427.3</ele>
        <time>2017-12-17T09:58:08.000Z</time>
      </trkpt>
      <trkpt lat="47.5366" lon="6.71382">
        <ele>427.5</ele>
        <time>2017-12-17T09:58:09.000Z</time>
      </trkpt>
      <trkpt lat="47.53662" lon="6.7138">
        <ele>427.6</ele>
        <time>2017-12-17T09:58:10.000Z</time>
      </trkpt>
      <trkpt lat="47.53664" lon="6.71378">
        <ele>427.7</ele>
        <time>2017-12-17T09:58:11.000Z</time>
      </trkpt>
      <trkpt lat="47.53668" lon="6.71375">
        <ele>427.9</ele>
        <time>2017-12-17T09:58:13.000Z</time>
      </trkpt>
      <trkpt lat="47.5367" lon="6.71373">
        <ele>428</ele>
        <time>2017-12-17T09:58:14.000Z</time>
      </trkpt>
      <trkpt lat="47.53673" lon="6.7137">
        <ele>428.5</ele>
        <time>2017-12-17T09:58:16.000Z</time>
      </trkpt>
      <trkpt lat="47.53676" lon="6.71368">
        <ele>428.7</ele>
        <time>2017-12-17T09:58:17.000Z</time>
      </trkpt>
      <trkpt lat="47.53679" lon="6.71365">
        <ele>429.1</ele>
        <time>2017-12-17T09:58:19.000Z</time>
      </trkpt>
      <trkpt lat="47.5368" lon="6.71364">
        <ele>429.2</ele>
        <time>2017-12-17T09:58:20.000Z</time>
      </trkpt>
      <trkpt lat="47.53683" lon="6.7136">
        <ele>429.7</ele>
        <time>2017-12-17T09:58:22.000Z</time>
      </trkpt>
      <trkpt lat="47.53684" lon="6.71359">
        <ele>430</ele>
        <time>2017-12-17T09:58:23.000Z</time>
      </trkpt>
      <trkpt lat="47.53686" lon="6.71357">
        <ele>430.3</ele>
        <time>2017-12-17T09:58:24.000Z</time>
      </trkpt>
      <trkpt lat="47.53688" lon="6.71355">
        <ele>430.5</ele>
        <time>2017-12-17T09:58:25.000Z</time>
      </trkpt>
      <trkpt lat="47.53691" lon="6.71353">
        <ele>430.7</ele>
        <time>2017-12-17T09:58:26.000Z</time>
      </trkpt>
      <trkpt lat="47.53692" lon="6.71351">
        <ele>431</ele>
        <time>2017-12-17T09:58:27.000Z</time>
      </trkpt>
      <trkpt lat="47.53695" lon="6.71349">
        <ele>431.5</ele>
        <time>2017-12-17T09:58:29.000Z</time>
      </trkpt>
      <trkpt lat="47.53697" lon="6.71348">
        <ele>431.8</ele>
        <time>2017-12-17T09:58:30.000Z</time>
      </trkpt>
      <trkpt lat="47.53701" lon="6.71345">
        <ele>432.2</ele>
        <time>2017-12-17T09:58:32.000Z</time>
      </trkpt>
      <trkpt lat="47.53702" lon="6.71343">
        <ele>432.3</ele>
        <time>2017-12-17T09:58:33.000Z</time>
      </trkpt>
      <trkpt lat="47.53705" lon="6.71339">
        <ele>432.7</ele>
        <time>2017-12-17T09:58:35.000Z</time>
      </trkpt>
      <trkpt lat="47.53706" lon="6.71338">
        <ele>432.8</ele>
        <time>2017-12-17T09:58:36.000Z</time>
      </trkpt>
      <trkpt lat="47.53708" lon="6.71336">
        <ele>433</ele>
        <time>2017-12-17T09:58:37.000Z</time>
      </trkpt>
      <trkpt lat="47.5371" lon="6.71334">
        <ele>433.1</ele>
        <time>2017-12-17T09:58:38.000Z</time>
      </trkpt>
      <trkpt lat="47.53714" lon="6.7133">
        <ele>433.6</ele>
        <time>2017-12-17T09:58:40.000Z</time>
      </trkpt>
      <trkpt lat="47.53715" lon="6.71328">
        <ele>433.9</ele>
        <time>2017-12-17T09:58:41.000Z</time>
      </trkpt>
      <trkpt lat="47.53718" lon="6.71325">
        <ele>434.6</ele>
        <time>2017-12-17T09:58:43.000Z</time>
      </trkpt>
      <trkpt lat="47.5372" lon="6.71324">
        <ele>434.8</ele>
        <time>2017-12-17T09:58:44.000Z</time>
      </trkpt>
      <trkpt lat="47.53723" lon="6.7132">
        <ele>435.3</ele>
        <time>2017-12-17T09:58:46.000Z</time>
      </trkpt>
      <trkpt lat="47.53725" lon="6.71319">
        <ele>435.4</ele>
        <time>2017-12-17T09:58:47.000Z</time>
      </trkpt>
      <trkpt lat="47.53728" lon="6.71316">
        <ele>435.6</ele>
        <time>2017-12-17T09:58:49.000Z</time>
      </trkpt>
      <trkpt lat="47.53729" lon="6.71315">
        <ele>435.8</ele>
        <time>2017-12-17T09:58:50.000Z</time>
      </trkpt>
      <trkpt lat="47.53732" lon="6.71313">
        <ele>436.1</ele>
        <time>2017-12-17T09:58:52.000Z</time>
      </trkpt>
      <trkpt lat="47.53734" lon="6.71312">
        <ele>436.3</ele>
        <time>2017-12-17T09:58:53.000Z</time>
      </trkpt>
      <trkpt lat="47.53737" lon="6.7131">
        <ele>436.5</ele>
        <time>2017-12-17T09:58:55.000Z</time>
      </trkpt>
      <trkpt lat="47.53738" lon="6.71308">
        <ele>436.7</ele>
        <time>2017-12-17T09:58:56.000Z</time>
      </trkpt>
      <trkpt lat="47.53742" lon="6.71305">
        <ele>437.1</ele>
        <time>2017-12-17T09:58:58.000Z</time>
      </trkpt>
      <trkpt lat="47.53743" lon="6.71303">
        <ele>437.2</ele>
        <time>2017-12-17T09:58:59.000Z</time>
      </trkpt>
      <trkpt lat="47.53745" lon="6.713">
        <ele>437.4</ele>
        <time>2017-12-17T09:59:00.000Z</time>
      </trkpt>
      <trkpt lat="47.53747" lon="6.71296">
        <ele>437.5</ele>
        <time>2017-12-17T09:59:01.000Z</time>
      </trkpt>
      <trkpt lat="47.53749" lon="6.7129">
        <ele>437.9</ele>
        <time>2017-12-17T09:59:03.000Z</time>
      </trkpt>
      <trkpt lat="47.53751" lon="6.71286">
        <ele>438.1</ele>
        <time>2017-12-17T09:59:04.000Z</time>
      </trkpt>
      <trkpt lat="47.53752" lon="6.71282">
        <ele>438.4</ele>
        <time>2017-12-17T09:59:05.000Z</time>
      </trkpt>
      <trkpt lat="47.53754" lon="6.71279">
        <ele>438.6</ele>
        <time>2017-12-17T09:59:06.000Z</time>
      </trkpt>
      <trkpt lat="47.53755" lon="6.71276">
        <ele>438.8</ele>
        <time>2017-12-17T09:59:07.000Z</time>
      </trkpt>
      <trkpt lat="47.53757" lon="6.71273">
        <ele>439</ele>
        <time>2017-12-17T09:59:08.000Z</time>
      </trkpt>
      <trkpt lat="47.53759" lon="6.7127">
        <ele>439.2</ele>
        <time>2017-12-17T09:59:09.000Z</time>
      </trkpt>
      <trkpt lat="47.53761" lon="6.71267">
        <ele>439.4</ele>
        <time>2017-12-17T09:59:10.000Z</time>
      </trkpt>
      <trkpt lat="47.53763" lon="6.71264">
        <ele>439.6</ele>
        <time>2017-12-17T09:59:11.000Z</time>
      </trkpt>
      <trkpt lat="47.53765" lon="6.7126">
        <ele>439.8</ele>
        <time>2017-12-17T09:59:12.000Z</time>
      </trkpt>
      <trkpt lat="47.53767" lon="6.71256">
        <ele>440.1</ele>
        <time>2017-12-17T09:59:13.000Z</time>
      </trkpt>
      <trkpt lat="47.53769" lon="6.71253">
        <ele>440.3</ele>
        <time>2017-12-17T09:59:14.000Z</time>
      </trkpt>
      <trkpt lat="47.5377" lon="6.71249">
        <ele>440.5</ele>
        <time>2017-12-17T09:59:15.000Z</time>
      </trkpt>
      <trkpt lat="47.53772" lon="6.71246">
        <ele>440.7</ele>
        <time>2017-12-17T09:59:16.000Z</time>
      </trkpt>
      <trkpt lat="47.53774" lon="6.71243">
        <ele>440.9</ele>
        <time>2017-12-17T09:59:17.000Z</time>
      </trkpt>
      <trkpt lat="47.53776" lon="6.7124">
        <ele>441.1</ele>
        <time>2017-12-17T09:59:18.000Z</time>
      </trkpt>
      <trkpt lat="47.53777" lon="6.71236">
        <ele>441.4</ele>
        <time>2017-12-17T09:59:19.000Z</time>
      </trkpt>
      <trkpt lat="47.53778" lon="6.71234">
        <ele>441.6</ele>
        <time>2017-12-17T09:59:20.000Z</time>
      </trkpt>
      <trkpt lat="47.5378" lon="6.7123">
        <ele>441.7</ele>
        <time>2017-12-17T09:59:21.000Z</time>
      </trkpt>
      <trkpt lat="47.53782" lon="6.71226">
        <ele>441.9</ele>
        <time>2017-12-17T09:59:22.000Z</time>
      </trkpt>
      <trkpt lat="47.53784" lon="6.71222">
        <ele>442</ele>
        <time>2017-12-17T09:59:23.000Z</time>
      </trkpt>
      <trkpt lat="47.53786" lon="6.71218">
        <ele>442.1</ele>
        <time>2017-12-17T09:59:24.000Z</time>
      </trkpt>
      <trkpt lat="47.53787" lon="6.71214">
        <ele>442.1</ele>
        <time>2017-12-17T09:59:25.000Z</time>
      </trkpt>
      <trkpt lat="47.53789" lon="6.7121">
        <ele>442</ele>
        <time>2017-12-17T09:59:26.000Z</time>
      </trkpt>
      <trkpt lat="47.5379" lon="6.71206">
        <ele>441.9</ele>
        <time>2017-12-17T09:59:27.000Z</time>
      </trkpt>
      <trkpt lat="47.53792" lon="6.71201">
        <ele>441.7</ele>
        <time>2017-12-17T09:59:28.000Z</time>
      </trkpt>
      <trkpt lat="47.53794" lon="6.71197">
        <ele>441.5</ele>
        <time>2017-12-17T09:59:29.000Z</time>
      </trkpt>
      <trkpt lat="47.53795" lon="6.71194">
        <ele>441.3</ele>
        <time>2017-12-17T09:59:30.000Z</time>
      </trkpt>
      <trkpt lat="47.53798" lon="6.7119">
        <ele>441.2</ele>
        <time>2017-12-17T09:59:31.000Z</time>
      </trkpt>
      <trkpt lat="47.53799" lon="6.71187">
        <ele>441.2</ele>
        <time>2017-12-17T09:59:32.000Z</time>
      </trkpt>
      <trkpt lat="47.53801" lon="6.71183">
        <ele>441.1</ele>
        <time>2017-12-17T09:59:33.000Z</time>
      </trkpt>
      <trkpt lat="47.53803" lon="6.7118">
        <ele>441.1</ele>
        <time>2017-12-17T09:59:34.000Z</time>
      </trkpt>
      <trkpt lat="47.53804" lon="6.71177">
        <ele>441</ele>
        <time>2017-12-17T09:59:35.000Z</time>
      </trkpt>
      <trkpt lat="47.53806" lon="6.71171">
        <ele>441</ele>
        <time>2017-12-17T09:59:36.000Z</time>
      </trkpt>
      <trkpt lat="47.53809" lon="6.71167">
        <ele>440.9</ele>
        <time>2017-12-17T09:59:37.000Z</time>
      </trkpt>
      <trkpt lat="47.53812" lon="6.71162">
        <ele>440.9</ele>
        <time>2017-12-17T09:59:38.000Z</time>
      </trkpt>
      <trkpt lat="47.53813" lon="6.71159">
        <ele>440.9</ele>
        <time>2017-12-17T09:59:39.000Z</time>
      </trkpt>
      <trkpt lat="47.53815" lon="6.71155">
        <ele>440.9</ele>
        <time>2017-12-17T09:59:40.000Z</time>
      </trkpt>
      <trkpt lat="47.53818" lon="6.7115">
        <ele>440.8</ele>
        <time>2017-12-17T09:59:41.000Z</time>
      </trkpt>
      <trkpt lat="47.53819" lon="6.71147">
        <ele>440.7</ele>
        <time>2017-12-17T09:59:42.000Z</time>
      </trkpt>
      <trkpt lat="47.53822" lon="6.71143">
        <ele>440.7</ele>
        <time>2017-12-17T09:59:43.000Z</time>
      </trkpt>
      <trkpt lat="47.53824" lon="6.71139">
        <ele>440.6</ele>
        <time>2017-12-17T09:59:44.000Z</time>
      </trkpt>
      <trkpt lat="47.53826" lon="6.71136">
        <ele>440.6</ele>
        <time>2017-12-17T09:59:45.000Z</time>
      </trkpt>
      <trkpt lat="47.53828" lon="6.71132">
        <ele>440.5</ele>
        <time>2017-12-17T09:59:46.000Z</time>
      </trkpt>
      <trkpt lat="47.5383" lon="6.71127">
        <ele>440.5</ele>
        <time>2017-12-17T09:59:47.000Z</time>
      </trkpt>
      <trkpt lat="47.53832" lon="6.71124">
        <ele>440.6</ele>
        <time>2017-12-17T09:59:48.000Z</time>
      </trkpt>
      <trkpt lat="47.53833" lon="6.71121">
        <ele>440.7</ele>
        <time>2017-12-17T09:59:49.000Z</time>
      </trkpt>
      <trkpt lat="47.53834" lon="6.71118">
        <ele>440.9</ele>
        <time>2017-12-17T09:59:50.000Z</time>
      </trkpt>
      <trkpt lat="47.53835" lon="6.71115">
        <ele>441</ele>
        <time>2017-12-17T09:59:51.000Z</time>
      </trkpt>
      <trkpt lat="47.53837" lon="6.71112">
        <ele>441.1</ele>
        <time>2017-12-17T09:59:52.000Z</time>
      </trkpt>
      <trkpt lat="47.53838" lon="6.71108">
        <ele>441.3</ele>
        <time>2017-12-17T09:59:53.000Z</time>
      </trkpt>
      <trkpt lat="47.5384" lon="6.71103">
        <ele>441.8</ele>
        <time>2017-12-17T09:59:55.000Z</time>
      </trkpt>
      <trkpt lat="47.53842" lon="6.71099">
        <ele>442</ele>
        <time>2017-12-17T09:59:56.000Z</time>
      </trkpt>
      <trkpt lat="47.53843" lon="6.71096">
        <ele>442.2</ele>
        <time>2017-12-17T09:59:57.000Z</time>
      </trkpt>
      <trkpt lat="47.53845" lon="6.71092">
        <ele>442.3</ele>
        <time>2017-12-17T09:59:58.000Z</time>
      </trkpt>
      <trkpt lat="47.53846" lon="6.71089">
        <ele>442.3</ele>
        <time>2017-12-17T09:59:59.000Z</time>
      </trkpt>
      <trkpt lat="47.53847" lon="6.71086">
        <ele>442.6</ele>
        <time>2017-12-17T10:00:00.000Z</time>
      </trkpt>
      <trkpt lat="47.53848" lon="6.71083">
        <ele>442.8</ele>
        <time>2017-12-17T10:00:01.000Z</time>
      </trkpt>
      <trkpt lat="47.53851" lon="6.71079">
        <ele>443.2</ele>
        <time>2017-12-17T10:00:03.000Z</time>
      </trkpt>
      <trkpt lat="47.53853" lon="6.71074">
        <ele>443.6</ele>
        <time>2017-12-17T10:00:05.000Z</time>
      </trkpt>
      <trkpt lat="47.53855" lon="6.71072">
        <ele>443.8</ele>
        <time>2017-12-17T10:00:06.000Z</time>
      </trkpt>
      <trkpt lat="47.5385" lon="6.71073">
        <ele>444.2</ele>
        <time>2017-12-17T10:00:22.000Z</time>
      </trkpt>
      <trkpt lat="47.53849" lon="6.71074">
        <ele>444.2</ele>
        <time>2017-12-17T10:00:23.000Z</time>
      </trkpt>
      <trkpt lat="47.53845" lon="6.71075">
        <ele>444.3</ele>
        <time>2017-12-17T10:00:27.000Z</time>
      </trkpt>
      <trkpt lat="47.53844" lon="6.71075">
        <ele>444.6</ele>
        <time>2017-12-17T10:00:28.000Z</time>
      </trkpt>
      <trkpt lat="47.53842" lon="6.71069">
        <ele>445.5</ele>
        <time>2017-12-17T10:00:36.000Z</time>
      </trkpt>
      <trkpt lat="47.53842" lon="6.71068">
        <ele>445.6</ele>
        <time>2017-12-17T10:00:37.000Z</time>
      </trkpt>
      <trkpt lat="47.5384" lon="6.71063">
        <ele>448.2</ele>
        <time>2017-12-17T10:01:01.000Z</time>
      </trkpt>
      <trkpt lat="47.53841" lon="6.71061">
        <ele>448.7</ele>
        <time>2017-12-17T10:01:03.000Z</time>
      </trkpt>
      <trkpt lat="47.53843" lon="6.71056">
        <ele>449.4</ele>
        <time>2017-12-17T10:01:06.000Z</time>
      </trkpt>
      <trkpt lat="47.53843" lon="6.71054">
        <ele>449.5</ele>
        <time>2017-12-17T10:01:07.000Z</time>
      </trkpt>
      <trkpt lat="47.53844" lon="6.71048">
        <ele>449.3</ele>
        <time>2017-12-17T10:01:09.000Z</time>
      </trkpt>
      <trkpt lat="47.53844" lon="6.71045">
        <ele>449.2</ele>
        <time>2017-12-17T10:01:10.000Z</time>
      </trkpt>
      <trkpt lat="47.53844" lon="6.71041">
        <ele>448.9</ele>
        <time>2017-12-17T10:01:11.000Z</time>
      </trkpt>
      <trkpt lat="47.53843" lon="6.71036">
        <ele>448.7</ele>
        <time>2017-12-17T10:01:12.000Z</time>
      </trkpt>
      <trkpt lat="47.53841" lon="6.71031">
        <ele>448.5</ele>
        <time>2017-12-17T10:01:13.000Z</time>
      </trkpt>
      <trkpt lat="47.53839" lon="6.71028">
        <ele>448.1</ele>
        <time>2017-12-17T10:01:14.000Z</time>
      </trkpt>
      <trkpt lat="47.53836" lon="6.71022">
        <ele>447.8</ele>
        <time>2017-12-17T10:01:15.000Z</time>
      </trkpt>
      <trkpt lat="47.53834" lon="6.71018">
        <ele>447.6</ele>
        <time>2017-12-17T10:01:16.000Z</time>
      </trkpt>
      <trkpt lat="47.53833" lon="6.71012">
        <ele>447.5</ele>
        <time>2017-12-17T10:01:17.000Z</time>
      </trkpt>
      <trkpt lat="47.53832" lon="6.71006">
        <ele>447.6</ele>
        <time>2017-12-17T10:01:18.000Z</time>
      </trkpt>
      <trkpt lat="47.53831" lon="6.71002">
        <ele>447.4</ele>
        <time>2017-12-17T10:01:19.000Z</time>
      </trkpt>
      <trkpt lat="47.53829" lon="6.70995">
        <ele>447.2</ele>
        <time>2017-12-17T10:01:20.000Z</time>
      </trkpt>
      <trkpt lat="47.53826" lon="6.7099">
        <ele>447</ele>
        <time>2017-12-17T10:01:21.000Z</time>
      </trkpt>
      <trkpt lat="47.53824" lon="6.70984">
        <ele>446.8</ele>
        <time>2017-12-17T10:01:22.000Z</time>
      </trkpt>
      <trkpt lat="47.53822" lon="6.70978">
        <ele>446.5</ele>
        <time>2017-12-17T10:01:23.000Z</time>
      </trkpt>
      <trkpt lat="47.5382" lon="6.70973">
        <ele>446.2</ele>
        <time>2017-12-17T10:01:24.000Z</time>
      </trkpt>
      <trkpt lat="47.53818" lon="6.70968">
        <ele>445.9</ele>
        <time>2017-12-17T10:01:25.000Z</time>
      </trkpt>
      <trkpt lat="47.53818" lon="6.70961">
        <ele>445.6</ele>
        <time>2017-12-17T10:01:26.000Z</time>
      </trkpt>
      <trkpt lat="47.53818" lon="6.70953">
        <ele>445.4</ele>
        <time>2017-12-17T10:01:27.000Z</time>
      </trkpt>
      <trkpt lat="47.53821" lon="6.70947">
        <ele>443.6</ele>
        <time>2017-12-17T10:01:28.000Z</time>
      </trkpt>
      <trkpt lat="47.53822" lon="6.70938">
        <ele>441.8</ele>
        <time>2017-12-17T10:01:29.000Z</time>
      </trkpt>
      <trkpt lat="47.53819" lon="6.70929">
        <ele>441.8</ele>
        <time>2017-12-17T10:01:30.000Z</time>
      </trkpt>
      <trkpt lat="47.53816" lon="6.70922">
        <ele>440.8</ele>
        <time>2017-12-17T10:01:31.000Z</time>
      </trkpt>
      <trkpt lat="47.53813" lon="6.70915">
        <ele>439.4</ele>
        <time>2017-12-17T10:01:32.000Z</time>
      </trkpt>
      <trkpt lat="47.5381" lon="6.70909">
        <ele>437.3</ele>
        <time>2017-12-17T10:01:33.000Z</time>
      </trkpt>
      <trkpt lat="47.53807" lon="6.70902">
        <ele>435.6</ele>
        <time>2017-12-17T10:01:34.000Z</time>
      </trkpt>
      <trkpt lat="47.53805" lon="6.70895">
        <ele>433.7</ele>
        <time>2017-12-17T10:01:35.000Z</time>
      </trkpt>
      <trkpt lat="47.53803" lon="6.70888">
        <ele>433.4</ele>
        <time>2017-12-17T10:01:36.000Z</time>
      </trkpt>
      <trkpt lat="47.53802" lon="6.70882">
        <ele>433.4</ele>
        <time>2017-12-17T10:01:37.000Z</time>
      </trkpt>
      <trkpt lat="47.538" lon="6.70877">
        <ele>433.5</ele>
        <time>2017-12-17T10:01:38.000Z</time>
      </trkpt>
      <trkpt lat="47.53799" lon="6.7087">
        <ele>433.8</ele>
        <time>2017-12-17T10:01:39.000Z</time>
      </trkpt>
      <trkpt lat="47.53796" lon="6.70865">
        <ele>433.9</ele>
        <time>2017-12-17T10:01:40.000Z</time>
      </trkpt>
      <trkpt lat="47.53794" lon="6.70861">
        <ele>435.3</ele>
        <time>2017-12-17T10:01:47.000Z</time>
      </trkpt>
      <trkpt lat="47.53792" lon="6.70859">
        <ele>435.6</ele>
        <time>2017-12-17T10:01:48.000Z</time>
      </trkpt>
      <trkpt lat="47.53789" lon="6.70856">
        <ele>436.6</ele>
        <time>2017-12-17T10:01:52.000Z</time>
      </trkpt>
      <trkpt lat="47.53786" lon="6.70854">
        <ele>436.9</ele>
        <time>2017-12-17T10:01:53.000Z</time>
      </trkpt>
      <trkpt lat="47.53783" lon="6.70853">
        <ele>437</ele>
        <time>2017-12-17T10:01:54.000Z</time>
      </trkpt>
      <trkpt lat="47.53779" lon="6.70852">
        <ele>437.2</ele>
        <time>2017-12-17T10:01:55.000Z</time>
      </trkpt>
      <trkpt lat="47.53774" lon="6.7085">
        <ele>437.3</ele>
        <time>2017-12-17T10:01:56.000Z</time>
      </trkpt>
      <trkpt lat="47.53768" lon="6.70849">
        <ele>437.5</ele>
        <time>2017-12-17T10:01:57.000Z</time>
      </trkpt>
      <trkpt lat="47.53764" lon="6.70848">
        <ele>437.6</ele>
        <time>2017-12-17T10:01:58.000Z</time>
      </trkpt>
      <trkpt lat="47.53757" lon="6.70848">
        <ele>437.6</ele>
        <time>2017-12-17T10:01:59.000Z</time>
      </trkpt>
      <trkpt lat="47.5375" lon="6.70848">
        <ele>437.5</ele>
        <time>2017-12-17T10:02:00.000Z</time>
      </trkpt>
      <trkpt lat="47.53745" lon="6.70847">
        <ele>437.4</ele>
        <time>2017-12-17T10:02:01.000Z</time>
      </trkpt>
      <trkpt lat="47.53737" lon="6.70842">
        <ele>437.4</ele>
        <time>2017-12-17T10:02:02.000Z</time>
      </trkpt>
      <trkpt lat="47.53732" lon="6.7084">
        <ele>437.3</ele>
        <time>2017-12-17T10:02:03.000Z</time>
      </trkpt>
      <trkpt lat="47.53728" lon="6.70837">
        <ele>437.3</ele>
        <time>2017-12-17T10:02:04.000Z</time>
      </trkpt>
      <trkpt lat="47.53724" lon="6.70834">
        <ele>437.3</ele>
        <time>2017-12-17T10:02:05.000Z</time>
      </trkpt>
      <trkpt lat="47.53721" lon="6.70831">
        <ele>437.3</ele>
        <time>2017-12-17T10:02:06.000Z</time>
      </trkpt>
      <trkpt lat="47.53718" lon="6.70826">
        <ele>437.2</ele>
        <time>2017-12-17T10:02:07.000Z</time>
      </trkpt>
      <trkpt lat="47.53716" lon="6.7082">
        <ele>437.3</ele>
        <time>2017-12-17T10:02:08.000Z</time>
      </trkpt>
      <trkpt lat="47.53712" lon="6.70815">
        <ele>437.6</ele>
        <time>2017-12-17T10:02:09.000Z</time>
      </trkpt>
      <trkpt lat="47.53708" lon="6.7081">
        <ele>438.3</ele>
        <time>2017-12-17T10:02:10.000Z</time>
      </trkpt>
      <trkpt lat="47.53704" lon="6.70808">
        <ele>437.7</ele>
        <time>2017-12-17T10:02:11.000Z</time>
      </trkpt>
      <trkpt lat="47.53698" lon="6.70804">
        <ele>437.3</ele>
        <time>2017-12-17T10:02:12.000Z</time>
      </trkpt>
      <trkpt lat="47.53695" lon="6.70801">
        <ele>437.3</ele>
        <time>2017-12-17T10:02:13.000Z</time>
      </trkpt>
      <trkpt lat="47.53691" lon="6.70798">
        <ele>437.1</ele>
        <time>2017-12-17T10:02:14.000Z</time>
      </trkpt>
      <trkpt lat="47.53688" lon="6.70796">
        <ele>436.8</ele>
        <time>2017-12-17T10:02:15.000Z</time>
      </trkpt>
      <trkpt lat="47.53683" lon="6.70792">
        <ele>434</ele>
        <time>2017-12-17T10:02:16.000Z</time>
      </trkpt>
      <trkpt lat="47.53677" lon="6.70788">
        <ele>431.7</ele>
        <time>2017-12-17T10:02:17.000Z</time>
      </trkpt>
      <trkpt lat="47.53671" lon="6.70783">
        <ele>429.5</ele>
        <time>2017-12-17T10:02:18.000Z</time>
      </trkpt>
      <trkpt lat="47.53662" lon="6.70778">
        <ele>428</ele>
        <time>2017-12-17T10:02:19.000Z</time>
      </trkpt>
      <trkpt lat="47.5365" lon="6.70767">
        <ele>425.6</ele>
        <time>2017-12-17T10:02:20.000Z</time>
      </trkpt>
      <trkpt lat="47.53639" lon="6.70755">
        <ele>423.5</ele>
        <time>2017-12-17T10:02:21.000Z</time>
      </trkpt>
      <trkpt lat="47.53633" lon="6.70745">
        <ele>421.8</ele>
        <time>2017-12-17T10:02:22.000Z</time>
      </trkpt>
      <trkpt lat="47.5363" lon="6.70738">
        <ele>421.6</ele>
        <time>2017-12-17T10:02:23.000Z</time>
      </trkpt>
      <trkpt lat="47.53627" lon="6.70732">
        <ele>421.6</ele>
        <time>2017-12-17T10:02:24.000Z</time>
      </trkpt>
      <trkpt lat="47.53622" lon="6.70726">
        <ele>421.5</ele>
        <time>2017-12-17T10:02:25.000Z</time>
      </trkpt>
      <trkpt lat="47.5362" lon="6.70722">
        <ele>421.5</ele>
        <time>2017-12-17T10:02:26.000Z</time>
      </trkpt>
      <trkpt lat="47.53615" lon="6.70718">
        <ele>421.5</ele>
        <time>2017-12-17T10:02:27.000Z</time>
      </trkpt>
      <trkpt lat="47.53612" lon="6.70714">
        <ele>421.6</ele>
        <time>2017-12-17T10:02:28.000Z</time>
      </trkpt>
      <trkpt lat="47.53608" lon="6.70708">
        <ele>421.6</ele>
        <time>2017-12-17T10:02:29.000Z</time>
      </trkpt>
      <trkpt lat="47.53608" lon="6.70708">
        <ele>423.4</ele>
        <time>2017-12-17T10:02:36.000Z</time>
      </trkpt>
      <trkpt lat="47.53596" lon="6.70687">
        <ele>423.9</ele>
        <time>2017-12-17T10:02:37.000Z</time>
      </trkpt>
      <trkpt lat="47.53593" lon="6.70682">
        <ele>424.9</ele>
        <time>2017-12-17T10:02:39.000Z</time>
      </trkpt>
      <trkpt lat="47.53592" lon="6.7068">
        <ele>425.2</ele>
        <time>2017-12-17T10:02:40.000Z</time>
      </trkpt>
      <trkpt lat="47.53592" lon="6.70678">
        <ele>426.9</ele>
        <time>2017-12-17T10:02:45.000Z</time>
      </trkpt>
      <trkpt lat="47.53583" lon="6.70668">
        <ele>427.2</ele>
        <time>2017-12-17T10:02:46.000Z</time>
      </trkpt>
      <trkpt lat="47.5358" lon="6.70667">
        <ele>430.5</ele>
        <time>2017-12-17T10:02:54.000Z</time>
      </trkpt>
      <trkpt lat="47.53568" lon="6.7066">
        <ele>431.1</ele>
        <time>2017-12-17T10:02:55.000Z</time>
      </trkpt>
      <trkpt lat="47.53568" lon="6.7066">
        <ele>432.3</ele>
        <time>2017-12-17T10:02:57.000Z</time>
      </trkpt>
      <trkpt lat="47.53561" lon="6.70654">
        <ele>432.9</ele>
        <time>2017-12-17T10:02:58.000Z</time>
      </trkpt>
      <trkpt lat="47.53558" lon="6.70651">
        <ele>434.1</ele>
        <time>2017-12-17T10:03:00.000Z</time>
      </trkpt>
      <trkpt lat="47.53557" lon="6.7065">
        <ele>434.7</ele>
        <time>2017-12-17T10:03:01.000Z</time>
      </trkpt>
      <trkpt lat="47.53553" lon="6.70647">
        <ele>436.7</ele>
        <time>2017-12-17T10:03:04.000Z</time>
      </trkpt>
      <trkpt lat="47.53552" lon="6.70646">
        <ele>437.2</ele>
        <time>2017-12-17T10:03:05.000Z</time>
      </trkpt>
      <trkpt lat="47.53549" lon="6.70643">
        <ele>438.2</ele>
        <time>2017-12-17T10:03:07.000Z</time>
      </trkpt>
      <trkpt lat="47.53546" lon="6.70643">
        <ele>438.6</ele>
        <time>2017-12-17T10:03:08.000Z</time>
      </trkpt>
      <trkpt lat="47.53543" lon="6.7064">
        <ele>439.6</ele>
        <time>2017-12-17T10:03:11.000Z</time>
      </trkpt>
      <trkpt lat="47.53541" lon="6.70639">
        <ele>439.8</ele>
        <time>2017-12-17T10:03:12.000Z</time>
      </trkpt>
      <trkpt lat="47.53539" lon="6.70637">
        <ele>440</ele>
        <time>2017-12-17T10:03:13.000Z</time>
      </trkpt>
      <trkpt lat="47.53537" lon="6.70635">
        <ele>440.1</ele>
        <time>2017-12-17T10:03:14.000Z</time>
      </trkpt>
      <trkpt lat="47.53533" lon="6.70634">
        <ele>440.2</ele>
        <time>2017-12-17T10:03:16.000Z</time>
      </trkpt>
      <trkpt lat="47.53531" lon="6.70634">
        <ele>440.3</ele>
        <time>2017-12-17T10:03:17.000Z</time>
      </trkpt>
      <trkpt lat="47.53528" lon="6.70634">
        <ele>440.4</ele>
        <time>2017-12-17T10:03:20.000Z</time>
      </trkpt>
      <trkpt lat="47.53526" lon="6.70634">
        <ele>440.5</ele>
        <time>2017-12-17T10:03:21.000Z</time>
      </trkpt>
      <trkpt lat="47.53522" lon="6.70634">
        <ele>440.7</ele>
        <time>2017-12-17T10:03:23.000Z</time>
      </trkpt>
      <trkpt lat="47.5352" lon="6.70633">
        <ele>440.7</ele>
        <time>2017-12-17T10:03:24.000Z</time>
      </trkpt>
      <trkpt lat="47.53517" lon="6.70632">
        <ele>440.8</ele>
        <time>2017-12-17T10:03:25.000Z</time>
      </trkpt>
      <trkpt lat="47.53515" lon="6.7063">
        <ele>440.9</ele>
        <time>2017-12-17T10:03:26.000Z</time>
      </trkpt>
      <trkpt lat="47.53512" lon="6.70628">
        <ele>440.9</ele>
        <time>2017-12-17T10:03:28.000Z</time>
      </trkpt>
      <trkpt lat="47.5351" lon="6.70627">
        <ele>440.8</ele>
        <time>2017-12-17T10:03:29.000Z</time>
      </trkpt>
      <trkpt lat="47.53508" lon="6.70626">
        <ele>440.8</ele>
        <time>2017-12-17T10:03:30.000Z</time>
      </trkpt>
      <trkpt lat="47.53505" lon="6.70625">
        <ele>440.9</ele>
        <time>2017-12-17T10:03:31.000Z</time>
      </trkpt>
      <trkpt lat="47.53501" lon="6.70623">
        <ele>440.9</ele>
        <time>2017-12-17T10:03:33.000Z</time>
      </trkpt>
      <trkpt lat="47.53499" lon="6.70623">
        <ele>441</ele>
        <time>2017-12-17T10:03:34.000Z</time>
      </trkpt>
      <trkpt lat="47.53496" lon="6.70621">
        <ele>440.9</ele>
        <time>2017-12-17T10:03:36.000Z</time>
      </trkpt>
      <trkpt lat="47.53494" lon="6.7062">
        <ele>440.9</ele>
        <time>2017-12-17T10:03:37.000Z</time>
      </trkpt>
      <trkpt lat="47.53492" lon="6.70618">
        <ele>440.8</ele>
        <time>2017-12-17T10:03:45.000Z</time>
      </trkpt>
      <trkpt lat="47.5348" lon="6.70611">
        <ele>440.6</ele>
        <time>2017-12-17T10:03:46.000Z</time>
      </trkpt>
      <trkpt lat="47.53477" lon="6.7061">
        <ele>440.4</ele>
        <time>2017-12-17T10:03:47.000Z</time>
      </trkpt>
      <trkpt lat="47.53474" lon="6.70607">
        <ele>440.2</ele>
        <time>2017-12-17T10:03:48.000Z</time>
      </trkpt>
      <trkpt lat="47.53471" lon="6.70604">
        <ele>440.1</ele>
        <time>2017-12-17T10:03:49.000Z</time>
      </trkpt>
      <trkpt lat="47.53468" lon="6.70601">
        <ele>439.9</ele>
        <time>2017-12-17T10:03:50.000Z</time>
      </trkpt>
      <trkpt lat="47.53466" lon="6.70598">
        <ele>439.6</ele>
        <time>2017-12-17T10:03:51.000Z</time>
      </trkpt>
      <trkpt lat="47.53461" lon="6.70595">
        <ele>439.2</ele>
        <time>2017-12-17T10:03:52.000Z</time>
      </trkpt>
      <trkpt lat="47.53458" lon="6.70593">
        <ele>439</ele>
        <time>2017-12-17T10:03:53.000Z</time>
      </trkpt>
      <trkpt lat="47.53455" lon="6.7059">
        <ele>438.7</ele>
        <time>2017-12-17T10:03:54.000Z</time>
      </trkpt>
      <trkpt lat="47.53452" lon="6.70587">
        <ele>438.4</ele>
        <time>2017-12-17T10:03:55.000Z</time>
      </trkpt>
      <trkpt lat="47.5345" lon="6.70584">
        <ele>438.1</ele>
        <time>2017-12-17T10:03:56.000Z</time>
      </trkpt>
      <trkpt lat="47.53447" lon="6.70582">
        <ele>437.9</ele>
        <time>2017-12-17T10:03:57.000Z</time>
      </trkpt>
      <trkpt lat="47.53445" lon="6.70581">
        <ele>437.9</ele>
        <time>2017-12-17T10:03:58.000Z</time>
      </trkpt>
      <trkpt lat="47.53441" lon="6.70578">
        <ele>437.8</ele>
        <time>2017-12-17T10:04:00.999Z</time>
      </trkpt>
      <trkpt lat="47.53439" lon="6.70576">
        <ele>437.7</ele>
        <time>2017-12-17T10:04:01.999Z</time>
      </trkpt>
      <trkpt lat="47.53437" lon="6.70573">
        <ele>437.7</ele>
        <time>2017-12-17T10:04:02.999Z</time>
      </trkpt>
      <trkpt lat="47.53433" lon="6.70569">
        <ele>437.7</ele>
        <time>2017-12-17T10:04:03.999Z</time>
      </trkpt>
      <trkpt lat="47.5343" lon="6.70566">
        <ele>437.7</ele>
        <time>2017-12-17T10:04:04.999Z</time>
      </trkpt>
      <trkpt lat="47.53427" lon="6.70563">
        <ele>437.8</ele>
        <time>2017-12-17T10:04:05.999Z</time>
      </trkpt>
      <trkpt lat="47.53424" lon="6.7056">
        <ele>438.9</ele>
        <time>2017-12-17T10:04:11.999Z</time>
      </trkpt>
      <trkpt lat="47.53407" lon="6.70542">
        <ele>439.2</ele>
        <time>2017-12-17T10:04:12.999Z</time>
      </trkpt>
      <trkpt lat="47.53407" lon="6.70542">
        <ele>439.9</ele>
        <time>2017-12-17T10:04:15.999Z</time>
      </trkpt>
      <trkpt lat="47.53392" lon="6.70533">
        <ele>440.1</ele>
        <time>2017-12-17T10:04:16.999Z</time>
      </trkpt>
      <trkpt lat="47.53388" lon="6.70531">
        <ele>440.5</ele>
        <time>2017-12-17T10:04:17.999Z</time>
      </trkpt>
      <trkpt lat="47.53384" lon="6.70529">
        <ele>440.9</ele>
        <time>2017-12-17T10:04:18.999Z</time>
      </trkpt>
      <trkpt lat="47.53381" lon="6.70528">
        <ele>441.4</ele>
        <time>2017-12-17T10:04:19.999Z</time>
      </trkpt>
      <trkpt lat="47.53379" lon="6.70528">
        <ele>441.8</ele>
        <time>2017-12-17T10:04:20.999Z</time>
      </trkpt>
      <trkpt lat="47.53376" lon="6.70525">
        <ele>442.2</ele>
        <time>2017-12-17T10:04:21.999Z</time>
      </trkpt>
      <trkpt lat="47.53374" lon="6.70522">
        <ele>442.6</ele>
        <time>2017-12-17T10:04:22.999Z</time>
      </trkpt>
      <trkpt lat="47.53371" lon="6.7052">
        <ele>443</ele>
        <time>2017-12-17T10:04:23.999Z</time>
      </trkpt>
      <trkpt lat="47.5337" lon="6.70518">
        <ele>443.3</ele>
        <time>2017-12-17T10:04:24.999Z</time>
      </trkpt>
      <trkpt lat="47.53369" lon="6.70516">
        <ele>444.1</ele>
        <time>2017-12-17T10:04:28.999Z</time>
      </trkpt>
      <trkpt lat="47.53359" lon="6.70512">
        <ele>444.2</ele>
        <time>2017-12-17T10:04:29.999Z</time>
      </trkpt>
      <trkpt lat="47.53356" lon="6.70511">
        <ele>444.3</ele>
        <time>2017-12-17T10:04:30.999Z</time>
      </trkpt>
      <trkpt lat="47.53352" lon="6.70509">
        <ele>444.3</ele>
        <time>2017-12-17T10:04:31.999Z</time>
      </trkpt>
      <trkpt lat="47.53349" lon="6.70506">
        <ele>444.3</ele>
        <time>2017-12-17T10:04:32.999Z</time>
      </trkpt>
      <trkpt lat="47.53346" lon="6.70504">
        <ele>444.4</ele>
        <time>2017-12-17T10:04:33.999Z</time>
      </trkpt>
      <trkpt lat="47.53344" lon="6.70502">
        <ele>444.4</ele>
        <time>2017-12-17T10:04:34.999Z</time>
      </trkpt>
      <trkpt lat="47.53341" lon="6.70499">
        <ele>444.4</ele>
        <time>2017-12-17T10:04:35.999Z</time>
      </trkpt>
      <trkpt lat="47.53338" lon="6.70498">
        <ele>444.5</ele>
        <time>2017-12-17T10:04:36.999Z</time>
      </trkpt>
      <trkpt lat="47.53333" lon="6.70498">
        <ele>444.4</ele>
        <time>2017-12-17T10:04:37.999Z</time>
      </trkpt>
      <trkpt lat="47.5333" lon="6.70497">
        <ele>444.3</ele>
        <time>2017-12-17T10:04:38.999Z</time>
      </trkpt>
      <trkpt lat="47.53328" lon="6.70494">
        <ele>444.2</ele>
        <time>2017-12-17T10:04:39.999Z</time>
      </trkpt>
      <trkpt lat="47.53325" lon="6.70489">
        <ele>444</ele>
        <time>2017-12-17T10:04:40.999Z</time>
      </trkpt>
      <trkpt lat="47.53324" lon="6.70487">
        <ele>442.4</ele>
        <time>2017-12-17T10:04:41.999Z</time>
      </trkpt>
      <trkpt lat="47.53322" lon="6.70484">
        <ele>442.2</ele>
        <time>2017-12-17T10:04:42.999Z</time>
      </trkpt>
      <trkpt lat="47.53319" lon="6.70482">
        <ele>441.9</ele>
        <time>2017-12-17T10:04:43.999Z</time>
      </trkpt>
      <trkpt lat="47.53316" lon="6.70478">
        <ele>441.6</ele>
        <time>2017-12-17T10:04:44.999Z</time>
      </trkpt>
      <trkpt lat="47.53313" lon="6.70474">
        <ele>441.3</ele>
        <time>2017-12-17T10:04:45.999Z</time>
      </trkpt>
      <trkpt lat="47.5331" lon="6.70469">
        <ele>441</ele>
        <time>2017-12-17T10:04:46.999Z</time>
      </trkpt>
      <trkpt lat="47.53306" lon="6.70466">
        <ele>440.7</ele>
        <time>2017-12-17T10:04:47.999Z</time>
      </trkpt>
      <trkpt lat="47.53303" lon="6.70463">
        <ele>440.4</ele>
        <time>2017-12-17T10:04:48.999Z</time>
      </trkpt>
      <trkpt lat="47.53299" lon="6.70458">
        <ele>436.9</ele>
        <time>2017-12-17T10:04:49.999Z</time>
      </trkpt>
      <trkpt lat="47.53296" lon="6.70452">
        <ele>434</ele>
        <time>2017-12-17T10:04:50.999Z</time>
      </trkpt>
      <trkpt lat="47.53293" lon="6.70447">
        <ele>429.4</ele>
        <time>2017-12-17T10:04:51.999Z</time>
      </trkpt>
      <trkpt lat="47.53289" lon="6.70441">
        <ele>428.9</ele>
        <time>2017-12-17T10:04:52.999Z</time>
      </trkpt>
      <trkpt lat="47.53283" lon="6.70433">
        <ele>428.3</ele>
        <time>2017-12-17T10:04:53.999Z</time>
      </trkpt>
      <trkpt lat="47.53279" lon="6.70426">
        <ele>427.8</ele>
        <time>2017-12-17T10:04:54.999Z</time>
      </trkpt>
      <trkpt lat="47.53274" lon="6.7042">
        <ele>427.2</ele>
        <time>2017-12-17T10:04:55.999Z</time>
      </trkpt>
      <trkpt lat="47.5327" lon="6.70416">
        <ele>426.8</ele>
        <time>2017-12-17T10:04:56.999Z</time>
      </trkpt>
      <trkpt lat="47.53267" lon="6.70413">
        <ele>426.4</ele>
        <time>2017-12-17T10:04:57.999Z</time>
      </trkpt>
      <trkpt lat="47.53265" lon="6.7041">
        <ele>426</ele>
        <time>2017-12-17T10:04:58.999Z</time>
      </trkpt>
      <trkpt lat="47.53261" lon="6.70406">
        <ele>425.5</ele>
        <time>2017-12-17T10:04:59.999Z</time>
      </trkpt>
      <trkpt lat="47.53256" lon="6.70401">
        <ele>425.1</ele>
        <time>2017-12-17T10:05:00.999Z</time>
      </trkpt>
      <trkpt lat="47.53249" lon="6.70397">
        <ele>421.2</ele>
        <time>2017-12-17T10:05:01.999Z</time>
      </trkpt>
      <trkpt lat="47.53245" lon="6.70395">
        <ele>419.5</ele>
        <time>2017-12-17T10:05:02.999Z</time>
      </trkpt>
      <trkpt lat="47.5324" lon="6.70395">
        <ele>418.7</ele>
        <time>2017-12-17T10:05:03.999Z</time>
      </trkpt>
      <trkpt lat="47.53235" lon="6.70396">
        <ele>418.4</ele>
        <time>2017-12-17T10:05:04.999Z</time>
      </trkpt>
      <trkpt lat="47.5323" lon="6.70397">
        <ele>418.1</ele>
        <time>2017-12-17T10:05:05.999Z</time>
      </trkpt>
      <trkpt lat="47.53224" lon="6.70399">
        <ele>417.6</ele>
        <time>2017-12-17T10:05:06.999Z</time>
      </trkpt>
      <trkpt lat="47.53218" lon="6.70402">
        <ele>417.7</ele>
        <time>2017-12-17T10:05:07.999Z</time>
      </trkpt>
      <trkpt lat="47.53211" lon="6.70406">
        <ele>417.5</ele>
        <time>2017-12-17T10:05:08.999Z</time>
      </trkpt>
      <trkpt lat="47.53203" lon="6.70409">
        <ele>417.1</ele>
        <time>2017-12-17T10:05:09.999Z</time>
      </trkpt>
      <trkpt lat="47.53194" lon="6.70412">
        <ele>416.8</ele>
        <time>2017-12-17T10:05:10.999Z</time>
      </trkpt>
      <trkpt lat="47.53186" lon="6.70415">
        <ele>417.4</ele>
        <time>2017-12-17T10:05:11.999Z</time>
      </trkpt>
      <trkpt lat="47.53178" lon="6.70418">
        <ele>417.9</ele>
        <time>2017-12-17T10:05:12.999Z</time>
      </trkpt>
      <trkpt lat="47.5317" lon="6.70421">
        <ele>418.4</ele>
        <time>2017-12-17T10:05:13.999Z</time>
      </trkpt>
      <trkpt lat="47.53162" lon="6.70425">
        <ele>419.6</ele>
        <time>2017-12-17T10:05:14.999Z</time>
      </trkpt>
      <trkpt lat="47.53155" lon="6.7043">
        <ele>419.3</ele>
        <time>2017-12-17T10:05:15.999Z</time>
      </trkpt>
      <trkpt lat="47.53148" lon="6.70436">
        <ele>419.5</ele>
        <time>2017-12-17T10:05:16.999Z</time>
      </trkpt>
      <trkpt lat="47.53141" lon="6.70442">
        <ele>418.2</ele>
        <time>2017-12-17T10:05:17.999Z</time>
      </trkpt>
      <trkpt lat="47.53134" lon="6.70448">
        <ele>417.9</ele>
        <time>2017-12-17T10:05:18.999Z</time>
      </trkpt>
      <trkpt lat="47.53126" lon="6.70455">
        <ele>417.6</ele>
        <time>2017-12-17T10:05:19.999Z</time>
      </trkpt>
      <trkpt lat="47.5312" lon="6.70462">
        <ele>418.1</ele>
        <time>2017-12-17T10:05:20.999Z</time>
      </trkpt>
      <trkpt lat="47.53114" lon="6.70468">
        <ele>418.1</ele>
        <time>2017-12-17T10:05:21.999Z</time>
      </trkpt>
      <trkpt lat="47.53107" lon="6.70475">
        <ele>418</ele>
        <time>2017-12-17T10:05:22.999Z</time>
      </trkpt>
      <trkpt lat="47.531" lon="6.70481">
        <ele>418</ele>
        <time>2017-12-17T10:05:23.999Z</time>
      </trkpt>
      <trkpt lat="47.53092" lon="6.70487">
        <ele>418.1</ele>
        <time>2017-12-17T10:05:24.999Z</time>
      </trkpt>
      <trkpt lat="47.53086" lon="6.7049">
        <ele>416.9</ele>
        <time>2017-12-17T10:05:25.999Z</time>
      </trkpt>
      <trkpt lat="47.53081" lon="6.70494">
        <ele>416.2</ele>
        <time>2017-12-17T10:05:26.999Z</time>
      </trkpt>
      <trkpt lat="47.53079" lon="6.70495">
        <ele>416.1</ele>
        <time>2017-12-17T10:05:27.999Z</time>
      </trkpt>
      <trkpt lat="47.53076" lon="6.70495">
        <ele>416</ele>
        <time>2017-12-17T10:05:28.999Z</time>
      </trkpt>
      <trkpt lat="47.5307" lon="6.70492">
        <ele>416</ele>
        <time>2017-12-17T10:05:29.999Z</time>
      </trkpt>
      <trkpt lat="47.53062" lon="6.70487">
        <ele>416.6</ele>
        <time>2017-12-17T10:05:30.999Z</time>
      </trkpt>
      <trkpt lat="47.53053" lon="6.70483">
        <ele>416.2</ele>
        <time>2017-12-17T10:05:31.999Z</time>
      </trkpt>
      <trkpt lat="47.53044" lon="6.7048">
        <ele>416.2</ele>
        <time>2017-12-17T10:05:32.999Z</time>
      </trkpt>
      <trkpt lat="47.53035" lon="6.70477">
        <ele>416.1</ele>
        <time>2017-12-17T10:05:33.999Z</time>
      </trkpt>
      <trkpt lat="47.53029" lon="6.70475">
        <ele>415.2</ele>
        <time>2017-12-17T10:05:34.999Z</time>
      </trkpt>
      <trkpt lat="47.53022" lon="6.70473">
        <ele>414.7</ele>
        <time>2017-12-17T10:05:35.999Z</time>
      </trkpt>
      <trkpt lat="47.53014" lon="6.70471">
        <ele>413.6</ele>
        <time>2017-12-17T10:05:36.999Z</time>
      </trkpt>
      <trkpt lat="47.53006" lon="6.70467">
        <ele>412.6</ele>
        <time>2017-12-17T10:05:37.999Z</time>
      </trkpt>
      <trkpt lat="47.52998" lon="6.70465">
        <ele>412.3</ele>
        <time>2017-12-17T10:05:38.999Z</time>
      </trkpt>
      <trkpt lat="47.52989" lon="6.70462">
        <ele>410.7</ele>
        <time>2017-12-17T10:05:39.999Z</time>
      </trkpt>
      <trkpt lat="47.52978" lon="6.70459">
        <ele>409.3</ele>
        <time>2017-12-17T10:05:40.999Z</time>
      </trkpt>
      <trkpt lat="47.52971" lon="6.70456">
        <ele>408</ele>
        <time>2017-12-17T10:05:41.999Z</time>
      </trkpt>
      <trkpt lat="47.52962" lon="6.70454">
        <ele>407</ele>
        <time>2017-12-17T10:05:42.999Z</time>
      </trkpt>
      <trkpt lat="47.52954" lon="6.70453">
        <ele>405.9</ele>
        <time>2017-12-17T10:05:43.999Z</time>
      </trkpt>
      <trkpt lat="47.52944" lon="6.70452">
        <ele>404.7</ele>
        <time>2017-12-17T10:05:44.999Z</time>
      </trkpt>
      <trkpt lat="47.52937" lon="6.70452">
        <ele>403.5</ele>
        <time>2017-12-17T10:05:45.999Z</time>
      </trkpt>
      <trkpt lat="47.5293" lon="6.70452">
        <ele>402.9</ele>
        <time>2017-12-17T10:05:46.999Z</time>
      </trkpt>
      <trkpt lat="47.52923" lon="6.70453">
        <ele>401.9</ele>
        <time>2017-12-17T10:05:47.999Z</time>
      </trkpt>
      <trkpt lat="47.52915" lon="6.70453">
        <ele>400.9</ele>
        <time>2017-12-17T10:05:48.999Z</time>
      </trkpt>
      <trkpt lat="47.52909" lon="6.70454">
        <ele>398.9</ele>
        <time>2017-12-17T10:05:49.999Z</time>
      </trkpt>
      <trkpt lat="47.52903" lon="6.70452">
        <ele>397.5</ele>
        <time>2017-12-17T10:05:50.999Z</time>
      </trkpt>
      <trkpt lat="47.52895" lon="6.7045">
        <ele>395.8</ele>
        <time>2017-12-17T10:05:51.999Z</time>
      </trkpt>
      <trkpt lat="47.5289" lon="6.7045">
        <ele>395.7</ele>
        <time>2017-12-17T10:05:52.999Z</time>
      </trkpt>
      <trkpt lat="47.52885" lon="6.70448">
        <ele>395.5</ele>
        <time>2017-12-17T10:05:53.999Z</time>
      </trkpt>
      <trkpt lat="47.52879" lon="6.70446">
        <ele>393.3</ele>
        <time>2017-12-17T10:05:54.999Z</time>
      </trkpt>
      <trkpt lat="47.52873" lon="6.70444">
        <ele>393.1</ele>
        <time>2017-12-17T10:05:55.999Z</time>
      </trkpt>
      <trkpt lat="47.52865" lon="6.70442">
        <ele>392.1</ele>
        <time>2017-12-17T10:05:56.999Z</time>
      </trkpt>
      <trkpt lat="47.52858" lon="6.70439">
        <ele>391.2</ele>
        <time>2017-12-17T10:05:57.999Z</time>
      </trkpt>
      <trkpt lat="47.52852" lon="6.70438">
        <ele>391.1</ele>
        <time>2017-12-17T10:05:58.999Z</time>
      </trkpt>
      <trkpt lat="47.52849" lon="6.70436">
        <ele>391</ele>
        <time>2017-12-17T10:05:59.999Z</time>
      </trkpt>
      <trkpt lat="47.52845" lon="6.70436">
        <ele>390.9</ele>
        <time>2017-12-17T10:06:00.999Z</time>
      </trkpt>
      <trkpt lat="47.52842" lon="6.70437">
        <ele>390.7</ele>
        <time>2017-12-17T10:06:01.999Z</time>
      </trkpt>
      <trkpt lat="47.52838" lon="6.7044">
        <ele>389.6</ele>
        <time>2017-12-17T10:06:02.999Z</time>
      </trkpt>
      <trkpt lat="47.52836" lon="6.70443">
        <ele>389.4</ele>
        <time>2017-12-17T10:06:03.999Z</time>
      </trkpt>
      <trkpt lat="47.52835" lon="6.70445">
        <ele>389.2</ele>
        <time>2017-12-17T10:06:04.999Z</time>
      </trkpt>
      <trkpt lat="47.52834" lon="6.70447">
        <ele>389.2</ele>
        <time>2017-12-17T10:06:13.999Z</time>
      </trkpt>
      <trkpt lat="47.52834" lon="6.70467">
        <ele>389.3</ele>
        <time>2017-12-17T10:06:14.999Z</time>
      </trkpt>
      <trkpt lat="47.52834" lon="6.70467">
        <ele>389.9</ele>
        <time>2017-12-17T10:06:19.999Z</time>
      </trkpt>
      <trkpt lat="47.52837" lon="6.7048">
        <ele>390.1</ele>
        <time>2017-12-17T10:06:20.999Z</time>
      </trkpt>
      <trkpt lat="47.52839" lon="6.70484">
        <ele>392.5</ele>
        <time>2017-12-17T10:06:34.999Z</time>
      </trkpt>
      <trkpt lat="47.52844" lon="6.70498">
        <ele>392.7</ele>
        <time>2017-12-17T10:06:35.999Z</time>
      </trkpt>
      <trkpt lat="47.52846" lon="6.70502">
        <ele>404.2</ele>
        <time>2017-12-17T10:11:05.999Z</time>
      </trkpt>
      <trkpt lat="47.52848" lon="6.70506">
        <ele>404.1</ele>
        <time>2017-12-17T10:11:06.999Z</time>
      </trkpt>
      <trkpt lat="47.52848" lon="6.70508">
        <ele>403.9</ele>
        <time>2017-12-17T10:11:07.999Z</time>
      </trkpt>
      <trkpt lat="47.5285" lon="6.70513">
        <ele>403.5</ele>
        <time>2017-12-17T10:11:08.999Z</time>
      </trkpt>
      <trkpt lat="47.52852" lon="6.70518">
        <ele>403.1</ele>
        <time>2017-12-17T10:11:09.999Z</time>
      </trkpt>
      <trkpt lat="47.52852" lon="6.70519">
        <ele>402.7</ele>
        <time>2017-12-17T10:11:10.999Z</time>
      </trkpt>
      <trkpt lat="47.52854" lon="6.70525">
        <ele>401</ele>
        <time>2017-12-17T10:11:14.999Z</time>
      </trkpt>
      <trkpt lat="47.52853" lon="6.70528">
        <ele>400.7</ele>
        <time>2017-12-17T10:11:15.999Z</time>
      </trkpt>
      <trkpt lat="47.52852" lon="6.70531">
        <ele>400.5</ele>
        <time>2017-12-17T10:11:16.999Z</time>
      </trkpt>
      <trkpt lat="47.52851" lon="6.70535">
        <ele>400.2</ele>
        <time>2017-12-17T10:11:17.999Z</time>
      </trkpt>
      <trkpt lat="47.52851" lon="6.70541">
        <ele>399.7</ele>
        <time>2017-12-17T10:11:19.999Z</time>
      </trkpt>
      <trkpt lat="47.5285" lon="6.70544">
        <ele>399.3</ele>
        <time>2017-12-17T10:11:20.999Z</time>
      </trkpt>
      <trkpt lat="47.5285" lon="6.70548">
        <ele>399</ele>
        <time>2017-12-17T10:11:21.999Z</time>
      </trkpt>
      <trkpt lat="47.5285" lon="6.70552">
        <ele>398.7</ele>
        <time>2017-12-17T10:11:22.999Z</time>
      </trkpt>
      <trkpt lat="47.52849" lon="6.70557">
        <ele>398.4</ele>
        <time>2017-12-17T10:11:23.999Z</time>
      </trkpt>
      <trkpt lat="47.52849" lon="6.70561">
        <ele>398</ele>
        <time>2017-12-17T10:11:24.999Z</time>
      </trkpt>
      <trkpt lat="47.52849" lon="6.70566">
        <ele>397.7</ele>
        <time>2017-12-17T10:11:25.999Z</time>
      </trkpt>
      <trkpt lat="47.52849" lon="6.70572">
        <ele>397.4</ele>
        <time>2017-12-17T10:11:26.999Z</time>
      </trkpt>
      <trkpt lat="47.52848" lon="6.70579">
        <ele>397</ele>
        <time>2017-12-17T10:11:27.999Z</time>
      </trkpt>
      <trkpt lat="47.52846" lon="6.7058">
        <ele>396.5</ele>
        <time>2017-12-17T10:11:29.999Z</time>
      </trkpt>
      <trkpt lat="47.52843" lon="6.70581">
        <ele>396.3</ele>
        <time>2017-12-17T10:11:30.999Z</time>
      </trkpt>
      <trkpt lat="47.52839" lon="6.70582">
        <ele>396.2</ele>
        <time>2017-12-17T10:11:31.999Z</time>
      </trkpt>
      <trkpt lat="47.52836" lon="6.70581">
        <ele>396.2</ele>
        <time>2017-12-17T10:11:32.999Z</time>
      </trkpt>
      <trkpt lat="47.52832" lon="6.70579">
        <ele>396.2</ele>
        <time>2017-12-17T10:11:33.999Z</time>
      </trkpt>
      <trkpt lat="47.52826" lon="6.70577">
        <ele>396.3</ele>
        <time>2017-12-17T10:11:34.999Z</time>
      </trkpt>
      <trkpt lat="47.52822" lon="6.70576">
        <ele>396.3</ele>
        <time>2017-12-17T10:11:35.999Z</time>
      </trkpt>
      <trkpt lat="47.52817" lon="6.70575">
        <ele>396.3</ele>
        <time>2017-12-17T10:11:36.999Z</time>
      </trkpt>
      <trkpt lat="47.52812" lon="6.70573">
        <ele>396.3</ele>
        <time>2017-12-17T10:11:37.999Z</time>
      </trkpt>
      <trkpt lat="47.52808" lon="6.7057">
        <ele>396.4</ele>
        <time>2017-12-17T10:11:38.999Z</time>
      </trkpt>
      <trkpt lat="47.52806" lon="6.70566">
        <ele>396.5</ele>
        <time>2017-12-17T10:11:39.999Z</time>
      </trkpt>
      <trkpt lat="47.52803" lon="6.70562">
        <ele>396.5</ele>
        <time>2017-12-17T10:11:40.999Z</time>
      </trkpt>
      <trkpt lat="47.52801" lon="6.70558">
        <ele>396.5</ele>
        <time>2017-12-17T10:11:41.999Z</time>
      </trkpt>
      <trkpt lat="47.52799" lon="6.70554">
        <ele>396.6</ele>
        <time>2017-12-17T10:11:42.999Z</time>
      </trkpt>
      <trkpt lat="47.52798" lon="6.70552">
        <ele>396.7</ele>
        <time>2017-12-17T10:11:43.999Z</time>
      </trkpt>
      <trkpt lat="47.52795" lon="6.70552">
        <ele>396.6</ele>
        <time>2017-12-17T10:11:44.999Z</time>
      </trkpt>
      <trkpt lat="47.52793" lon="6.70552">
        <ele>396.6</ele>
        <time>2017-12-17T10:11:45.999Z</time>
      </trkpt>
      <trkpt lat="47.5279" lon="6.70552">
        <ele>396.6</ele>
        <time>2017-12-17T10:11:46.999Z</time>
      </trkpt>
      <trkpt lat="47.52788" lon="6.70551">
        <ele>396.5</ele>
        <time>2017-12-17T10:11:47.999Z</time>
      </trkpt>
      <trkpt lat="47.52785" lon="6.70551">
        <ele>396.4</ele>
        <time>2017-12-17T10:11:48.999Z</time>
      </trkpt>
      <trkpt lat="47.52783" lon="6.70553">
        <ele>396.2</ele>
        <time>2017-12-17T10:11:49.999Z</time>
      </trkpt>
      <trkpt lat="47.52782" lon="6.70556">
        <ele>395.9</ele>
        <time>2017-12-17T10:11:50.999Z</time>
      </trkpt>
      <trkpt lat="47.52782" lon="6.70561">
        <ele>395.8</ele>
        <time>2017-12-17T10:11:51.999Z</time>
      </trkpt>
      <trkpt lat="47.52784" lon="6.70565">
        <ele>395.6</ele>
        <time>2017-12-17T10:11:52.999Z</time>
      </trkpt>
      <trkpt lat="47.52785" lon="6.70568">
        <ele>395.6</ele>
        <time>2017-12-17T10:11:53.999Z</time>
      </trkpt>
      <trkpt lat="47.52787" lon="6.70572">
        <ele>395.7</ele>
        <time>2017-12-17T10:11:54.999Z</time>
      </trkpt>
      <trkpt lat="47.52787" lon="6.70577">
        <ele>395.7</ele>
        <time>2017-12-17T10:11:55.999Z</time>
      </trkpt>
      <trkpt lat="47.52786" lon="6.70581">
        <ele>395.8</ele>
        <time>2017-12-17T10:11:56.999Z</time>
      </trkpt>
      <trkpt lat="47.52785" lon="6.70585">
        <ele>395.9</ele>
        <time>2017-12-17T10:11:57.999Z</time>
      </trkpt>
      <trkpt lat="47.52783" lon="6.70588">
        <ele>395.9</ele>
        <time>2017-12-17T10:11:58.999Z</time>
      </trkpt>
      <trkpt lat="47.52781" lon="6.7059">
        <ele>395.8</ele>
        <time>2017-12-17T10:11:59.999Z</time>
      </trkpt>
      <trkpt lat="47.52778" lon="6.70593">
        <ele>395.7</ele>
        <time>2017-12-17T10:12:01.999Z</time>
      </trkpt>
      <trkpt lat="47.52774" lon="6.70593">
        <ele>395.6</ele>
        <time>2017-12-17T10:12:02.999Z</time>
      </trkpt>
      <trkpt lat="47.5277" lon="6.70593">
        <ele>395.4</ele>
        <time>2017-12-17T10:12:03.999Z</time>
      </trkpt>
      <trkpt lat="47.52768" lon="6.70594">
        <ele>395.2</ele>
        <time>2017-12-17T10:12:04.999Z</time>
      </trkpt>
      <trkpt lat="47.52765" lon="6.70595">
        <ele>395.1</ele>
        <time>2017-12-17T10:12:05.999Z</time>
      </trkpt>
      <trkpt lat="47.52761" lon="6.70596">
        <ele>395</ele>
        <time>2017-12-17T10:12:06.999Z</time>
      </trkpt>
      <trkpt lat="47.52758" lon="6.70594">
        <ele>394.8</ele>
        <time>2017-12-17T10:12:08.999Z</time>
      </trkpt>
      <trkpt lat="47.52755" lon="6.70595">
        <ele>394.6</ele>
        <time>2017-12-17T10:12:09.999Z</time>
      </trkpt>
      <trkpt lat="47.52752" lon="6.70596">
        <ele>394.6</ele>
        <time>2017-12-17T10:12:10.999Z</time>
      </trkpt>
      <trkpt lat="47.52749" lon="6.70597">
        <ele>394.4</ele>
        <time>2017-12-17T10:12:11.999Z</time>
      </trkpt>
      <trkpt lat="47.52747" lon="6.70599">
        <ele>394.3</ele>
        <time>2017-12-17T10:12:12.999Z</time>
      </trkpt>
      <trkpt lat="47.52747" lon="6.70603">
        <ele>394.1</ele>
        <time>2017-12-17T10:12:13.999Z</time>
      </trkpt>
      <trkpt lat="47.52747" lon="6.70607">
        <ele>394</ele>
        <time>2017-12-17T10:12:14.999Z</time>
      </trkpt>
      <trkpt lat="47.52747" lon="6.70611">
        <ele>393.8</ele>
        <time>2017-12-17T10:12:15.999Z</time>
      </trkpt>
      <trkpt lat="47.52748" lon="6.70615">
        <ele>393.5</ele>
        <time>2017-12-17T10:12:16.999Z</time>
      </trkpt>
      <trkpt lat="47.52748" lon="6.70618">
        <ele>393.3</ele>
        <time>2017-12-17T10:12:17.999Z</time>
      </trkpt>
      <trkpt lat="47.52748" lon="6.70621">
        <ele>393.1</ele>
        <time>2017-12-17T10:12:18.999Z</time>
      </trkpt>
      <trkpt lat="47.52749" lon="6.70624">
        <ele>392.9</ele>
        <time>2017-12-17T10:12:19.999Z</time>
      </trkpt>
      <trkpt lat="47.52751" lon="6.70629">
        <ele>392.5</ele>
        <time>2017-12-17T10:12:21.999Z</time>
      </trkpt>
      <trkpt lat="47.52751" lon="6.70631">
        <ele>392.4</ele>
        <time>2017-12-17T10:12:22.999Z</time>
      </trkpt>
      <trkpt lat="47.52751" lon="6.70634">
        <ele>392.1</ele>
        <time>2017-12-17T10:12:23.999Z</time>
      </trkpt>
      <trkpt lat="47.52751" lon="6.70638">
        <ele>391.9</ele>
        <time>2017-12-17T10:12:24.999Z</time>
      </trkpt>
      <trkpt lat="47.5275" lon="6.70642">
        <ele>391.7</ele>
        <time>2017-12-17T10:12:25.999Z</time>
      </trkpt>
      <trkpt lat="47.52749" lon="6.70647">
        <ele>391.6</ele>
        <time>2017-12-17T10:12:26.999Z</time>
      </trkpt>
      <trkpt lat="47.52749" lon="6.70652">
        <ele>391.5</ele>
        <time>2017-12-17T10:12:27.999Z</time>
      </trkpt>
      <trkpt lat="47.52749" lon="6.70656">
        <ele>391.3</ele>
        <time>2017-12-17T10:12:28.999Z</time>
      </trkpt>
      <trkpt lat="47.5275" lon="6.70661">
        <ele>391.1</ele>
        <time>2017-12-17T10:12:29.999Z</time>
      </trkpt>
      <trkpt lat="47.5275" lon="6.70665">
        <ele>391</ele>
        <time>2017-12-17T10:12:30.999Z</time>
      </trkpt>
      <trkpt lat="47.5275" lon="6.7067">
        <ele>390.5</ele>
        <time>2017-12-17T10:12:32.999Z</time>
      </trkpt>
      <trkpt lat="47.5275" lon="6.70673">
        <ele>390.3</ele>
        <time>2017-12-17T10:12:33.999Z</time>
      </trkpt>
      <trkpt lat="47.52749" lon="6.70679">
        <ele>389.9</ele>
        <time>2017-12-17T10:12:35.999Z</time>
      </trkpt>
      <trkpt lat="47.5275" lon="6.70684">
        <ele>389.7</ele>
        <time>2017-12-17T10:12:36.999Z</time>
      </trkpt>
      <trkpt lat="47.5275" lon="6.7069">
        <ele>389.5</ele>
        <time>2017-12-17T10:12:37.999Z</time>
      </trkpt>
      <trkpt lat="47.52751" lon="6.707">
        <ele>389.3</ele>
        <time>2017-12-17T10:12:38.999Z</time>
      </trkpt>
      <trkpt lat="47.52752" lon="6.70706">
        <ele>389</ele>
        <time>2017-12-17T10:12:39.999Z</time>
      </trkpt>
      <trkpt lat="47.52753" lon="6.70711">
        <ele>388.8</ele>
        <time>2017-12-17T10:12:40.999Z</time>
      </trkpt>
      <trkpt lat="47.52753" lon="6.70717">
        <ele>388.7</ele>
        <time>2017-12-17T10:12:41.999Z</time>
      </trkpt>
      <trkpt lat="47.52752" lon="6.70727">
        <ele>388.6</ele>
        <time>2017-12-17T10:12:42.999Z</time>
      </trkpt>
      <trkpt lat="47.5275" lon="6.70735">
        <ele>388.5</ele>
        <time>2017-12-17T10:12:43.999Z</time>
      </trkpt>
      <trkpt lat="47.52749" lon="6.70742">
        <ele>388.5</ele>
        <time>2017-12-17T10:12:44.999Z</time>
      </trkpt>
      <trkpt lat="47.52748" lon="6.7075">
        <ele>388.5</ele>
        <time>2017-12-17T10:12:45.999Z</time>
      </trkpt>
      <trkpt lat="47.52747" lon="6.70757">
        <ele>388.3</ele>
        <time>2017-12-17T10:12:46.999Z</time>
      </trkpt>
      <trkpt lat="47.52745" lon="6.70764">
        <ele>388.3</ele>
        <time>2017-12-17T10:12:47.999Z</time>
      </trkpt>
      <trkpt lat="47.52744" lon="6.70771">
        <ele>388.2</ele>
        <time>2017-12-17T10:12:48.999Z</time>
      </trkpt>
      <trkpt lat="47.52743" lon="6.70778">
        <ele>388.2</ele>
        <time>2017-12-17T10:12:49.999Z</time>
      </trkpt>
      <trkpt lat="47.52742" lon="6.70783">
        <ele>388.2</ele>
        <time>2017-12-17T10:12:50.999Z</time>
      </trkpt>
      <trkpt lat="47.52741" lon="6.70789">
        <ele>388.2</ele>
        <time>2017-12-17T10:12:51.999Z</time>
      </trkpt>
      <trkpt lat="47.52741" lon="6.70795">
        <ele>388.3</ele>
        <time>2017-12-17T10:12:52.999Z</time>
      </trkpt>
      <trkpt lat="47.5274" lon="6.70801">
        <ele>388.3</ele>
        <time>2017-12-17T10:12:53.999Z</time>
      </trkpt>
      <trkpt lat="47.5274" lon="6.70807">
        <ele>388.3</ele>
        <time>2017-12-17T10:12:54.999Z</time>
      </trkpt>
      <trkpt lat="47.52739" lon="6.70812">
        <ele>388.4</ele>
        <time>2017-12-17T10:12:55.999Z</time>
      </trkpt>
      <trkpt lat="47.52739" lon="6.70817">
        <ele>388.4</ele>
        <time>2017-12-17T10:12:56.999Z</time>
      </trkpt>
      <trkpt lat="47.52738" lon="6.70822">
        <ele>388.4</ele>
        <time>2017-12-17T10:12:57.999Z</time>
      </trkpt>
      <trkpt lat="47.52738" lon="6.70828">
        <ele>388.5</ele>
        <time>2017-12-17T10:12:58.999Z</time>
      </trkpt>
      <trkpt lat="47.52738" lon="6.70833">
        <ele>388.5</ele>
        <time>2017-12-17T10:12:59.999Z</time>
      </trkpt>
      <trkpt lat="47.52738" lon="6.70838">
        <ele>388.6</ele>
        <time>2017-12-17T10:13:00.999Z</time>
      </trkpt>
      <trkpt lat="47.52737" lon="6.70844">
        <ele>388.7</ele>
        <time>2017-12-17T10:13:01.999Z</time>
      </trkpt>
      <trkpt lat="47.52736" lon="6.70851">
        <ele>388.7</ele>
        <time>2017-12-17T10:13:02.999Z</time>
      </trkpt>
      <trkpt lat="47.52735" lon="6.70857">
        <ele>389</ele>
        <time>2017-12-17T10:13:03.999Z</time>
      </trkpt>
      <trkpt lat="47.52735" lon="6.70864">
        <ele>389.2</ele>
        <time>2017-12-17T10:13:04.999Z</time>
      </trkpt>
      <trkpt lat="47.52734" lon="6.70869">
        <ele>389.3</ele>
        <time>2017-12-17T10:13:05.999Z</time>
      </trkpt>
      <trkpt lat="47.52733" lon="6.70875">
        <ele>389.4</ele>
        <time>2017-12-17T10:13:06.999Z</time>
      </trkpt>
      <trkpt lat="47.52731" lon="6.70881">
        <ele>389.5</ele>
        <time>2017-12-17T10:13:07.999Z</time>
      </trkpt>
      <trkpt lat="47.52731" lon="6.70886">
        <ele>389.5</ele>
        <time>2017-12-17T10:13:08.999Z</time>
      </trkpt>
      <trkpt lat="47.52731" lon="6.70891">
        <ele>389.6</ele>
        <time>2017-12-17T10:13:09.999Z</time>
      </trkpt>
      <trkpt lat="47.52731" lon="6.70895">
        <ele>389.6</ele>
        <time>2017-12-17T10:13:10.999Z</time>
      </trkpt>
      <trkpt lat="47.52729" lon="6.709">
        <ele>389.6</ele>
        <time>2017-12-17T10:13:11.999Z</time>
      </trkpt>
      <trkpt lat="47.52727" lon="6.70905">
        <ele>389.6</ele>
        <time>2017-12-17T10:13:12.999Z</time>
      </trkpt>
      <trkpt lat="47.52726" lon="6.70911">
        <ele>389.5</ele>
        <time>2017-12-17T10:13:13.999Z</time>
      </trkpt>
      <trkpt lat="47.52727" lon="6.70914">
        <ele>389.4</ele>
        <time>2017-12-17T10:13:14.999Z</time>
      </trkpt>
      <trkpt lat="47.52728" lon="6.70917">
        <ele>389.2</ele>
        <time>2017-12-17T10:13:15.999Z</time>
      </trkpt>
      <trkpt lat="47.52729" lon="6.70921">
        <ele>389.1</ele>
        <time>2017-12-17T10:13:16.999Z</time>
      </trkpt>
      <trkpt lat="47.5273" lon="6.70929">
        <ele>388.9</ele>
        <time>2017-12-17T10:13:17.999Z</time>
      </trkpt>
      <trkpt lat="47.5273" lon="6.70934">
        <ele>388.7</ele>
        <time>2017-12-17T10:13:18.999Z</time>
      </trkpt>
      <trkpt lat="47.5273" lon="6.70939">
        <ele>388.5</ele>
        <time>2017-12-17T10:13:19.999Z</time>
      </trkpt>
      <trkpt lat="47.5273" lon="6.70943">
        <ele>388.4</ele>
        <time>2017-12-17T10:13:20.999Z</time>
      </trkpt>
      <trkpt lat="47.52731" lon="6.70949">
        <ele>388.3</ele>
        <time>2017-12-17T10:13:21.999Z</time>
      </trkpt>
      <trkpt lat="47.52733" lon="6.70952">
        <ele>388.1</ele>
        <time>2017-12-17T10:13:22.999Z</time>
      </trkpt>
      <trkpt lat="47.52738" lon="6.70959">
        <ele>387.9</ele>
        <time>2017-12-17T10:13:23.999Z</time>
      </trkpt>
      <trkpt lat="47.5274" lon="6.70964">
        <ele>387.8</ele>
        <time>2017-12-17T10:13:24.999Z</time>
      </trkpt>
      <trkpt lat="47.5274" lon="6.70973">
        <ele>387.7</ele>
        <time>2017-12-17T10:13:25.999Z</time>
      </trkpt>
      <trkpt lat="47.5274" lon="6.70979">
        <ele>387.5</ele>
        <time>2017-12-17T10:13:26.999Z</time>
      </trkpt>
      <trkpt lat="47.52741" lon="6.70984">
        <ele>387.4</ele>
        <time>2017-12-17T10:13:27.999Z</time>
      </trkpt>
      <trkpt lat="47.52743" lon="6.70991">
        <ele>387.4</ele>
        <time>2017-12-17T10:13:28.999Z</time>
      </trkpt>
      <trkpt lat="47.52744" lon="6.70998">
        <ele>387.4</ele>
        <time>2017-12-17T10:13:29.999Z</time>
      </trkpt>
      <trkpt lat="47.52745" lon="6.71005">
        <ele>387.5</ele>
        <time>2017-12-17T10:13:30.999Z</time>
      </trkpt>
      <trkpt lat="47.52745" lon="6.71013">
        <ele>387.6</ele>
        <time>2017-12-17T10:13:31.999Z</time>
      </trkpt>
      <trkpt lat="47.52746" lon="6.7102">
        <ele>387.6</ele>
        <time>2017-12-17T10:13:32.999Z</time>
      </trkpt>
      <trkpt lat="47.52747" lon="6.71027">
        <ele>387.6</ele>
        <time>2017-12-17T10:13:33.999Z</time>
      </trkpt>
      <trkpt lat="47.52748" lon="6.71034">
        <ele>387.7</ele>
        <time>2017-12-17T10:13:34.999Z</time>
      </trkpt>
      <trkpt lat="47.52748" lon="6.71039">
        <ele>387.7</ele>
        <time>2017-12-17T10:13:35.999Z</time>
      </trkpt>
      <trkpt lat="47.52749" lon="6.71044">
        <ele>387.8</ele>
        <time>2017-12-17T10:13:36.999Z</time>
      </trkpt>
      <trkpt lat="47.5275" lon="6.71049">
        <ele>387.8</ele>
        <time>2017-12-17T10:13:37.999Z</time>
      </trkpt>
      <trkpt lat="47.5275" lon="6.71053">
        <ele>387.8</ele>
        <time>2017-12-17T10:13:38.999Z</time>
      </trkpt>
      <trkpt lat="47.52748" lon="6.71057">
        <ele>387.8</ele>
        <time>2017-12-17T10:13:39.999Z</time>
      </trkpt>
      <trkpt lat="47.52747" lon="6.71061">
        <ele>387.9</ele>
        <time>2017-12-17T10:13:40.999Z</time>
      </trkpt>
      <trkpt lat="47.52746" lon="6.71066">
        <ele>387.8</ele>
        <time>2017-12-17T10:13:41.999Z</time>
      </trkpt>
      <trkpt lat="47.52745" lon="6.7107">
        <ele>387.7</ele>
        <time>2017-12-17T10:13:42.999Z</time>
      </trkpt>
      <trkpt lat="47.52743" lon="6.71075">
        <ele>387.8</ele>
        <time>2017-12-17T10:13:43.999Z</time>
      </trkpt>
      <trkpt lat="47.52742" lon="6.7108">
        <ele>387.8</ele>
        <time>2017-12-17T10:13:44.999Z</time>
      </trkpt>
      <trkpt lat="47.52743" lon="6.71084">
        <ele>388</ele>
        <time>2017-12-17T10:13:45.999Z</time>
      </trkpt>
      <trkpt lat="47.52743" lon="6.71087">
        <ele>388.2</ele>
        <time>2017-12-17T10:13:46.999Z</time>
      </trkpt>
      <trkpt lat="47.52743" lon="6.71091">
        <ele>388.6</ele>
        <time>2017-12-17T10:13:47.999Z</time>
      </trkpt>
      <trkpt lat="47.52743" lon="6.71094">
        <ele>388.8</ele>
        <time>2017-12-17T10:13:48.999Z</time>
      </trkpt>
      <trkpt lat="47.52744" lon="6.71099">
        <ele>389.2</ele>
        <time>2017-12-17T10:13:50.999Z</time>
      </trkpt>
      <trkpt lat="47.52744" lon="6.71102">
        <ele>389.4</ele>
        <time>2017-12-17T10:13:51.999Z</time>
      </trkpt>
      <trkpt lat="47.52744" lon="6.71105">
        <ele>389.6</ele>
        <time>2017-12-17T10:13:52.999Z</time>
      </trkpt>
      <trkpt lat="47.52745" lon="6.71109">
        <ele>389.8</ele>
        <time>2017-12-17T10:13:53.999Z</time>
      </trkpt>
      <trkpt lat="47.52745" lon="6.71115">
        <ele>390.4</ele>
        <time>2017-12-17T10:13:56.999Z</time>
      </trkpt>
      <trkpt lat="47.52745" lon="6.71118">
        <ele>390.5</ele>
        <time>2017-12-17T10:13:57.999Z</time>
      </trkpt>
      <trkpt lat="47.52747" lon="6.71123">
        <ele>390.7</ele>
        <time>2017-12-17T10:13:59.999Z</time>
      </trkpt>
      <trkpt lat="47.52747" lon="6.71127">
        <ele>390.9</ele>
        <time>2017-12-17T10:14:00.999Z</time>
      </trkpt>
      <trkpt lat="47.52748" lon="6.71133">
        <ele>390.9</ele>
        <time>2017-12-17T10:14:04.999Z</time>
      </trkpt>
      <trkpt lat="47.52748" lon="6.71135">
        <ele>390.8</ele>
        <time>2017-12-17T10:14:05.999Z</time>
      </trkpt>
      <trkpt lat="47.52747" lon="6.7114">
        <ele>390.7</ele>
        <time>2017-12-17T10:14:07.999Z</time>
      </trkpt>
      <trkpt lat="47.52746" lon="6.71141">
        <ele>390.7</ele>
        <time>2017-12-17T10:14:08.999Z</time>
      </trkpt>
      <trkpt lat="47.52746" lon="6.71147">
        <ele>390.9</ele>
        <time>2017-12-17T10:14:12.999Z</time>
      </trkpt>
      <trkpt lat="47.52746" lon="6.71149">
        <ele>391</ele>
        <time>2017-12-17T10:14:13.999Z</time>
      </trkpt>
      <trkpt lat="47.52745" lon="6.71152">
        <ele>390.9</ele>
        <time>2017-12-17T10:14:14.999Z</time>
      </trkpt>
      <trkpt lat="47.52743" lon="6.71156">
        <ele>391</ele>
        <time>2017-12-17T10:14:15.999Z</time>
      </trkpt>
      <trkpt lat="47.52742" lon="6.71162">
        <ele>391.3</ele>
        <time>2017-12-17T10:14:17.999Z</time>
      </trkpt>
      <trkpt lat="47.52741" lon="6.71166">
        <ele>391.5</ele>
        <time>2017-12-17T10:14:18.999Z</time>
      </trkpt>
      <trkpt lat="47.52741" lon="6.71171">
        <ele>391.7</ele>
        <time>2017-12-17T10:14:20.999Z</time>
      </trkpt>
      <trkpt lat="47.5274" lon="6.71172">
        <ele>391.8</ele>
        <time>2017-12-17T10:14:21.999Z</time>
      </trkpt>
      <trkpt lat="47.52739" lon="6.71177">
        <ele>392</ele>
        <time>2017-12-17T10:14:24.999Z</time>
      </trkpt>
      <trkpt lat="47.52738" lon="6.71178">
        <ele>392.2</ele>
        <time>2017-12-17T10:14:25.999Z</time>
      </trkpt>
      <trkpt lat="47.52735" lon="6.71182">
        <ele>392.4</ele>
        <time>2017-12-17T10:14:27.999Z</time>
      </trkpt>
      <trkpt lat="47.52733" lon="6.71182">
        <ele>392.6</ele>
        <time>2017-12-17T10:14:28.999Z</time>
      </trkpt>
      <trkpt lat="47.5273" lon="6.71185">
        <ele>393</ele>
        <time>2017-12-17T10:14:30.999Z</time>
      </trkpt>
      <trkpt lat="47.52729" lon="6.71186">
        <ele>393.2</ele>
        <time>2017-12-17T10:14:31.999Z</time>
      </trkpt>
      <trkpt lat="47.52726" lon="6.71189">
        <ele>393.5</ele>
        <time>2017-12-17T10:14:33.999Z</time>
      </trkpt>
      <trkpt lat="47.52724" lon="6.7119">
        <ele>393.6</ele>
        <time>2017-12-17T10:14:34.999Z</time>
      </trkpt>
      <trkpt lat="47.52721" lon="6.71194">
        <ele>393.7</ele>
        <time>2017-12-17T10:14:36.999Z</time>
      </trkpt>
      <trkpt lat="47.5272" lon="6.71196">
        <ele>393.5</ele>
        <time>2017-12-17T10:14:37.999Z</time>
      </trkpt>
      <trkpt lat="47.52717" lon="6.71199">
        <ele>393.5</ele>
        <time>2017-12-17T10:14:39.999Z</time>
      </trkpt>
      <trkpt lat="47.52716" lon="6.71201">
        <ele>393.4</ele>
        <time>2017-12-17T10:14:40.999Z</time>
      </trkpt>
      <trkpt lat="47.52713" lon="6.71204">
        <ele>393.1</ele>
        <time>2017-12-17T10:14:42.999Z</time>
      </trkpt>
      <trkpt lat="47.5271" lon="6.71206">
        <ele>392.9</ele>
        <time>2017-12-17T10:14:43.999Z</time>
      </trkpt>
      <trkpt lat="47.52708" lon="6.7121">
        <ele>392.8</ele>
        <time>2017-12-17T10:14:44.999Z</time>
      </trkpt>
      <trkpt lat="47.52708" lon="6.71213">
        <ele>392</ele>
        <time>2017-12-17T10:14:45.999Z</time>
      </trkpt>
      <trkpt lat="47.52709" lon="6.71219">
        <ele>391.5</ele>
        <time>2017-12-17T10:14:46.999Z</time>
      </trkpt>
      <trkpt lat="47.5271" lon="6.71224">
        <ele>391.7</ele>
        <time>2017-12-17T10:14:47.999Z</time>
      </trkpt>
      <trkpt lat="47.52711" lon="6.7123">
        <ele>391.2</ele>
        <time>2017-12-17T10:14:48.999Z</time>
      </trkpt>
      <trkpt lat="47.52713" lon="6.71235">
        <ele>391.1</ele>
        <time>2017-12-17T10:14:49.999Z</time>
      </trkpt>
      <trkpt lat="47.52714" lon="6.71241">
        <ele>391</ele>
        <time>2017-12-17T10:14:50.999Z</time>
      </trkpt>
      <trkpt lat="47.52714" lon="6.71248">
        <ele>391</ele>
        <time>2017-12-17T10:14:51.999Z</time>
      </trkpt>
      <trkpt lat="47.52715" lon="6.71254">
        <ele>390.2</ele>
        <time>2017-12-17T10:14:52.999Z</time>
      </trkpt>
      <trkpt lat="47.52715" lon="6.71259">
        <ele>390.2</ele>
        <time>2017-12-17T10:14:53.999Z</time>
      </trkpt>
      <trkpt lat="47.52716" lon="6.71264">
        <ele>390.1</ele>
        <time>2017-12-17T10:14:54.999Z</time>
      </trkpt>
      <trkpt lat="47.52716" lon="6.7127">
        <ele>390.1</ele>
        <time>2017-12-17T10:14:55.999Z</time>
      </trkpt>
      <trkpt lat="47.52715" lon="6.71273">
        <ele>390.1</ele>
        <time>2017-12-17T10:14:56.999Z</time>
      </trkpt>
      <trkpt lat="47.52712" lon="6.71274">
        <ele>390.1</ele>
        <time>2017-12-17T10:14:57.999Z</time>
      </trkpt>
      <trkpt lat="47.52709" lon="6.71276">
        <ele>390.2</ele>
        <time>2017-12-17T10:14:58.999Z</time>
      </trkpt>
      <trkpt lat="47.52705" lon="6.71278">
        <ele>390.2</ele>
        <time>2017-12-17T10:14:59.999Z</time>
      </trkpt>
      <trkpt lat="47.52703" lon="6.71278">
        <ele>390.2</ele>
        <time>2017-12-17T10:15:00.999Z</time>
      </trkpt>
      <trkpt lat="47.52698" lon="6.71279">
        <ele>390.3</ele>
        <time>2017-12-17T10:15:02.999Z</time>
      </trkpt>
      <trkpt lat="47.52695" lon="6.71279">
        <ele>390.3</ele>
        <time>2017-12-17T10:15:03.999Z</time>
      </trkpt>
      <trkpt lat="47.52692" lon="6.7128">
        <ele>390.4</ele>
        <time>2017-12-17T10:15:04.999Z</time>
      </trkpt>
      <trkpt lat="47.5269" lon="6.7128">
        <ele>390.5</ele>
        <time>2017-12-17T10:15:05.999Z</time>
      </trkpt>
      <trkpt lat="47.52688" lon="6.71281">
        <ele>390.5</ele>
        <time>2017-12-17T10:15:06.999Z</time>
      </trkpt>
      <trkpt lat="47.52685" lon="6.71282">
        <ele>390.5</ele>
        <time>2017-12-17T10:15:07.999Z</time>
      </trkpt>
      <trkpt lat="47.52681" lon="6.71283">
        <ele>390.5</ele>
        <time>2017-12-17T10:15:08.999Z</time>
      </trkpt>
      <trkpt lat="47.52678" lon="6.71283">
        <ele>390.5</ele>
        <time>2017-12-17T10:15:09.999Z</time>
      </trkpt>
      <trkpt lat="47.52674" lon="6.71282">
        <ele>390.5</ele>
        <time>2017-12-17T10:15:10.999Z</time>
      </trkpt>
      <trkpt lat="47.52672" lon="6.71282">
        <ele>390.5</ele>
        <time>2017-12-17T10:15:11.999Z</time>
      </trkpt>
      <trkpt lat="47.52669" lon="6.71281">
        <ele>390.4</ele>
        <time>2017-12-17T10:15:12.999Z</time>
      </trkpt>
      <trkpt lat="47.52666" lon="6.7128">
        <ele>390.4</ele>
        <time>2017-12-17T10:15:13.999Z</time>
      </trkpt>
      <trkpt lat="47.52664" lon="6.71279">
        <ele>390.4</ele>
        <time>2017-12-17T10:15:14.999Z</time>
      </trkpt>
      <trkpt lat="47.52662" lon="6.71278">
        <ele>390.5</ele>
        <time>2017-12-17T10:15:15.999Z</time>
      </trkpt>
      <trkpt lat="47.52659" lon="6.71277">
        <ele>390.6</ele>
        <time>2017-12-17T10:15:16.999Z</time>
      </trkpt>
      <trkpt lat="47.52657" lon="6.71277">
        <ele>390.6</ele>
        <time>2017-12-17T10:15:17.999Z</time>
      </trkpt>
      <trkpt lat="47.52655" lon="6.71275">
        <ele>390.8</ele>
        <time>2017-12-17T10:15:18.999Z</time>
      </trkpt>
      <trkpt lat="47.5265" lon="6.71274">
        <ele>390.9</ele>
        <time>2017-12-17T10:15:20.999Z</time>
      </trkpt>
      <trkpt lat="47.52648" lon="6.71274">
        <ele>390.9</ele>
        <time>2017-12-17T10:15:21.999Z</time>
      </trkpt>
      <trkpt lat="47.52645" lon="6.71273">
        <ele>390.9</ele>
        <time>2017-12-17T10:15:22.999Z</time>
      </trkpt>
      <trkpt lat="47.52642" lon="6.71272">
        <ele>390.9</ele>
        <time>2017-12-17T10:15:23.999Z</time>
      </trkpt>
      <trkpt lat="47.52639" lon="6.71271">
        <ele>390.9</ele>
        <time>2017-12-17T10:15:25.999Z</time>
      </trkpt>
      <trkpt lat="47.52637" lon="6.71269">
        <ele>391</ele>
        <time>2017-12-17T10:15:26.999Z</time>
      </trkpt>
      <trkpt lat="47.52635" lon="6.71269">
        <ele>391.1</ele>
        <time>2017-12-17T10:15:27.999Z</time>
      </trkpt>
      <trkpt lat="47.52632" lon="6.71269">
        <ele>391.1</ele>
        <time>2017-12-17T10:15:28.999Z</time>
      </trkpt>
      <trkpt lat="47.5263" lon="6.71269">
        <ele>391.2</ele>
        <time>2017-12-17T10:15:29.999Z</time>
      </trkpt>
      <trkpt lat="47.52627" lon="6.71269">
        <ele>391.2</ele>
        <time>2017-12-17T10:15:30.999Z</time>
      </trkpt>
      <trkpt lat="47.52623" lon="6.71269">
        <ele>391.2</ele>
        <time>2017-12-17T10:15:31.999Z</time>
      </trkpt>
      <trkpt lat="47.5262" lon="6.71268">
        <ele>391.2</ele>
        <time>2017-12-17T10:15:32.999Z</time>
      </trkpt>
      <trkpt lat="47.52618" lon="6.71268">
        <ele>391.1</ele>
        <time>2017-12-17T10:15:33.999Z</time>
      </trkpt>
      <trkpt lat="47.52615" lon="6.71267">
        <ele>391.1</ele>
        <time>2017-12-17T10:15:34.999Z</time>
      </trkpt>
      <trkpt lat="47.52612" lon="6.71267">
        <ele>391.1</ele>
        <time>2017-12-17T10:15:35.999Z</time>
      </trkpt>
      <trkpt lat="47.52609" lon="6.71266">
        <ele>391</ele>
        <time>2017-12-17T10:15:36.999Z</time>
      </trkpt>
      <trkpt lat="47.52607" lon="6.71266">
        <ele>390.9</ele>
        <time>2017-12-17T10:15:37.999Z</time>
      </trkpt>
      <trkpt lat="47.52604" lon="6.71266">
        <ele>390.9</ele>
        <time>2017-12-17T10:15:38.999Z</time>
      </trkpt>
      <trkpt lat="47.52601" lon="6.71265">
        <ele>390.8</ele>
        <time>2017-12-17T10:15:39.999Z</time>
      </trkpt>
      <trkpt lat="47.52596" lon="6.71263">
        <ele>390.7</ele>
        <time>2017-12-17T10:15:40.999Z</time>
      </trkpt>
      <trkpt lat="47.52593" lon="6.71262">
        <ele>390.6</ele>
        <time>2017-12-17T10:15:41.999Z</time>
      </trkpt>
      <trkpt lat="47.5259" lon="6.71262">
        <ele>390.5</ele>
        <time>2017-12-17T10:15:42.999Z</time>
      </trkpt>
      <trkpt lat="47.52586" lon="6.71261">
        <ele>390.6</ele>
        <time>2017-12-17T10:15:43.999Z</time>
      </trkpt>
      <trkpt lat="47.52582" lon="6.71259">
        <ele>390.6</ele>
        <time>2017-12-17T10:15:44.999Z</time>
      </trkpt>
      <trkpt lat="47.52579" lon="6.71257">
        <ele>390.7</ele>
        <time>2017-12-17T10:15:45.999Z</time>
      </trkpt>
      <trkpt lat="47.52575" lon="6.71256">
        <ele>390.7</ele>
        <time>2017-12-17T10:15:46.999Z</time>
      </trkpt>
      <trkpt lat="47.52572" lon="6.71255">
        <ele>390.8</ele>
        <time>2017-12-17T10:15:47.999Z</time>
      </trkpt>
      <trkpt lat="47.52568" lon="6.71254">
        <ele>390.9</ele>
        <time>2017-12-17T10:15:48.999Z</time>
      </trkpt>
      <trkpt lat="47.52564" lon="6.71253">
        <ele>391</ele>
        <time>2017-12-17T10:15:49.999Z</time>
      </trkpt>
      <trkpt lat="47.52561" lon="6.71251">
        <ele>391.1</ele>
        <time>2017-12-17T10:15:50.999Z</time>
      </trkpt>
      <trkpt lat="47.52558" lon="6.7125">
        <ele>391.1</ele>
        <time>2017-12-17T10:15:51.999Z</time>
      </trkpt>
      <trkpt lat="47.52555" lon="6.71248">
        <ele>391.2</ele>
        <time>2017-12-17T10:15:52.999Z</time>
      </trkpt>
      <trkpt lat="47.52552" lon="6.71247">
        <ele>391.3</ele>
        <time>2017-12-17T10:15:53.999Z</time>
      </trkpt>
      <trkpt lat="47.5255" lon="6.71246">
        <ele>391.4</ele>
        <time>2017-12-17T10:15:54.999Z</time>
      </trkpt>
      <trkpt lat="47.52547" lon="6.71245">
        <ele>391.4</ele>
        <time>2017-12-17T10:15:55.999Z</time>
      </trkpt>
      <trkpt lat="47.52544" lon="6.71244">
        <ele>391.5</ele>
        <time>2017-12-17T10:15:56.999Z</time>
      </trkpt>
      <trkpt lat="47.5254" lon="6.71242">
        <ele>391.5</ele>
        <time>2017-12-17T10:15:57.999Z</time>
      </trkpt>
      <trkpt lat="47.52537" lon="6.7124">
        <ele>391.5</ele>
        <time>2017-12-17T10:15:58.999Z</time>
      </trkpt>
      <trkpt lat="47.52534" lon="6.71237">
        <ele>391.4</ele>
        <time>2017-12-17T10:15:59.999Z</time>
      </trkpt>
      <trkpt lat="47.52531" lon="6.71236">
        <ele>391.5</ele>
        <time>2017-12-17T10:16:00.999Z</time>
      </trkpt>
      <trkpt lat="47.52528" lon="6.71235">
        <ele>391.5</ele>
        <time>2017-12-17T10:16:01.999Z</time>
      </trkpt>
      <trkpt lat="47.52526" lon="6.71235">
        <ele>391.5</ele>
        <time>2017-12-17T10:16:02.999Z</time>
      </trkpt>
      <trkpt lat="47.52523" lon="6.71233">
        <ele>391.5</ele>
        <time>2017-12-17T10:16:03.999Z</time>
      </trkpt>
      <trkpt lat="47.52522" lon="6.7123">
        <ele>391.6</ele>
        <time>2017-12-17T10:16:04.999Z</time>
      </trkpt>
      <trkpt lat="47.52519" lon="6.71227">
        <ele>391.7</ele>
        <time>2017-12-17T10:16:05.999Z</time>
      </trkpt>
      <trkpt lat="47.52516" lon="6.71224">
        <ele>391.7</ele>
        <time>2017-12-17T10:16:06.999Z</time>
      </trkpt>
      <trkpt lat="47.52514" lon="6.7122">
        <ele>391.7</ele>
        <time>2017-12-17T10:16:07.999Z</time>
      </trkpt>
      <trkpt lat="47.52511" lon="6.71217">
        <ele>391.7</ele>
        <time>2017-12-17T10:16:08.999Z</time>
      </trkpt>
      <trkpt lat="47.52508" lon="6.71212">
        <ele>391.7</ele>
        <time>2017-12-17T10:16:09.999Z</time>
      </trkpt>
      <trkpt lat="47.52505" lon="6.71208">
        <ele>391.7</ele>
        <time>2017-12-17T10:16:10.999Z</time>
      </trkpt>
      <trkpt lat="47.52502" lon="6.71203">
        <ele>391.7</ele>
        <time>2017-12-17T10:16:11.999Z</time>
      </trkpt>
      <trkpt lat="47.525" lon="6.71198">
        <ele>391.8</ele>
        <time>2017-12-17T10:16:12.999Z</time>
      </trkpt>
      <trkpt lat="47.52497" lon="6.71194">
        <ele>391.9</ele>
        <time>2017-12-17T10:16:13.999Z</time>
      </trkpt>
      <trkpt lat="47.52495" lon="6.7119">
        <ele>392.1</ele>
        <time>2017-12-17T10:16:14.999Z</time>
      </trkpt>
      <trkpt lat="47.52493" lon="6.71187">
        <ele>392.2</ele>
        <time>2017-12-17T10:16:15.999Z</time>
      </trkpt>
      <trkpt lat="47.52491" lon="6.71183">
        <ele>392.3</ele>
        <time>2017-12-17T10:16:16.999Z</time>
      </trkpt>
      <trkpt lat="47.52488" lon="6.71181">
        <ele>392.5</ele>
        <time>2017-12-17T10:16:17.999Z</time>
      </trkpt>
      <trkpt lat="47.52485" lon="6.7118">
        <ele>392.6</ele>
        <time>2017-12-17T10:16:18.999Z</time>
      </trkpt>
      <trkpt lat="47.52483" lon="6.71178">
        <ele>392.8</ele>
        <time>2017-12-17T10:16:19.999Z</time>
      </trkpt>
      <trkpt lat="47.5248" lon="6.71175">
        <ele>392.9</ele>
        <time>2017-12-17T10:16:20.999Z</time>
      </trkpt>
      <trkpt lat="47.52477" lon="6.71173">
        <ele>392.9</ele>
        <time>2017-12-17T10:16:21.999Z</time>
      </trkpt>
      <trkpt lat="47.52475" lon="6.71172">
        <ele>393</ele>
        <time>2017-12-17T10:16:22.999Z</time>
      </trkpt>
      <trkpt lat="47.52471" lon="6.7117">
        <ele>393.3</ele>
        <time>2017-12-17T10:16:24.999Z</time>
      </trkpt>
      <trkpt lat="47.52469" lon="6.7117">
        <ele>393.3</ele>
        <time>2017-12-17T10:16:25.999Z</time>
      </trkpt>
      <trkpt lat="47.52466" lon="6.7117">
        <ele>393.4</ele>
        <time>2017-12-17T10:16:26.999Z</time>
      </trkpt>
      <trkpt lat="47.52463" lon="6.7117">
        <ele>393.3</ele>
        <time>2017-12-17T10:16:27.999Z</time>
      </trkpt>
      <trkpt lat="47.5246" lon="6.7117">
        <ele>393.3</ele>
        <time>2017-12-17T10:16:28.999Z</time>
      </trkpt>
      <trkpt lat="47.52457" lon="6.71172">
        <ele>393.3</ele>
        <time>2017-12-17T10:16:29.999Z</time>
      </trkpt>
      <trkpt lat="47.52453" lon="6.71173">
        <ele>393.4</ele>
        <time>2017-12-17T10:16:30.999Z</time>
      </trkpt>
      <trkpt lat="47.5245" lon="6.71174">
        <ele>393.5</ele>
        <time>2017-12-17T10:16:31.999Z</time>
      </trkpt>
      <trkpt lat="47.52447" lon="6.71175">
        <ele>393.6</ele>
        <time>2017-12-17T10:16:32.999Z</time>
      </trkpt>
      <trkpt lat="47.52443" lon="6.71175">
        <ele>393.8</ele>
        <time>2017-12-17T10:16:33.999Z</time>
      </trkpt>
      <trkpt lat="47.52439" lon="6.71177">
        <ele>393.9</ele>
        <time>2017-12-17T10:16:34.999Z</time>
      </trkpt>
      <trkpt lat="47.52434" lon="6.71178">
        <ele>394.2</ele>
        <time>2017-12-17T10:16:35.999Z</time>
      </trkpt>
      <trkpt lat="47.5243" lon="6.71179">
        <ele>394.4</ele>
        <time>2017-12-17T10:16:36.999Z</time>
      </trkpt>
      <trkpt lat="47.52426" lon="6.7118">
        <ele>394.6</ele>
        <time>2017-12-17T10:16:37.999Z</time>
      </trkpt>
      <trkpt lat="47.52423" lon="6.71181">
        <ele>394.9</ele>
        <time>2017-12-17T10:16:38.999Z</time>
      </trkpt>
      <trkpt lat="47.52421" lon="6.71182">
        <ele>395.1</ele>
        <time>2017-12-17T10:16:39.999Z</time>
      </trkpt>
      <trkpt lat="47.52418" lon="6.71181">
        <ele>395.4</ele>
        <time>2017-12-17T10:16:40.999Z</time>
      </trkpt>
      <trkpt lat="47.52415" lon="6.71181">
        <ele>395.7</ele>
        <time>2017-12-17T10:16:41.999Z</time>
      </trkpt>
      <trkpt lat="47.52412" lon="6.71181">
        <ele>396.1</ele>
        <time>2017-12-17T10:16:42.999Z</time>
      </trkpt>
      <trkpt lat="47.5241" lon="6.71181">
        <ele>396.4</ele>
        <time>2017-12-17T10:16:43.999Z</time>
      </trkpt>
      <trkpt lat="47.52408" lon="6.71181">
        <ele>396.7</ele>
        <time>2017-12-17T10:16:44.999Z</time>
      </trkpt>
      <trkpt lat="47.52405" lon="6.71181">
        <ele>397.1</ele>
        <time>2017-12-17T10:16:45.999Z</time>
      </trkpt>
      <trkpt lat="47.52402" lon="6.71181">
        <ele>397.3</ele>
        <time>2017-12-17T10:16:46.999Z</time>
      </trkpt>
      <trkpt lat="47.52399" lon="6.71181">
        <ele>397.6</ele>
        <time>2017-12-17T10:16:47.999Z</time>
      </trkpt>
      <trkpt lat="47.52396" lon="6.71182">
        <ele>397.8</ele>
        <time>2017-12-17T10:16:48.999Z</time>
      </trkpt>
      <trkpt lat="47.52392" lon="6.71182">
        <ele>398</ele>
        <time>2017-12-17T10:16:49.999Z</time>
      </trkpt>
      <trkpt lat="47.52389" lon="6.71182">
        <ele>398.3</ele>
        <time>2017-12-17T10:16:50.999Z</time>
      </trkpt>
      <trkpt lat="47.52385" lon="6.71182">
        <ele>398.6</ele>
        <time>2017-12-17T10:16:51.999Z</time>
      </trkpt>
      <trkpt lat="47.52383" lon="6.71182">
        <ele>398.9</ele>
        <time>2017-12-17T10:16:52.999Z</time>
      </trkpt>
      <trkpt lat="47.5238" lon="6.71181">
        <ele>399.1</ele>
        <time>2017-12-17T10:16:53.999Z</time>
      </trkpt>
      <trkpt lat="47.52377" lon="6.71181">
        <ele>399.3</ele>
        <time>2017-12-17T10:16:54.999Z</time>
      </trkpt>
      <trkpt lat="47.52373" lon="6.71181">
        <ele>399.5</ele>
        <time>2017-12-17T10:16:55.999Z</time>
      </trkpt>
      <trkpt lat="47.52371" lon="6.71181">
        <ele>399.7</ele>
        <time>2017-12-17T10:16:56.999Z</time>
      </trkpt>
      <trkpt lat="47.52368" lon="6.7118">
        <ele>400.1</ele>
        <time>2017-12-17T10:16:57.999Z</time>
      </trkpt>
      <trkpt lat="47.52365" lon="6.71178">
        <ele>400.3</ele>
        <time>2017-12-17T10:16:58.999Z</time>
      </trkpt>
      <trkpt lat="47.52363" lon="6.71175">
        <ele>400.6</ele>
        <time>2017-12-17T10:16:59.999Z</time>
      </trkpt>
      <trkpt lat="47.52362" lon="6.71172">
        <ele>400.9</ele>
        <time>2017-12-17T10:17:00.999Z</time>
      </trkpt>
      <trkpt lat="47.52361" lon="6.7117">
        <ele>401.3</ele>
        <time>2017-12-17T10:17:01.999Z</time>
      </trkpt>
      <trkpt lat="47.52359" lon="6.71168">
        <ele>401.6</ele>
        <time>2017-12-17T10:17:02.999Z</time>
      </trkpt>
      <trkpt lat="47.52356" lon="6.71165">
        <ele>401.8</ele>
        <time>2017-12-17T10:17:03.999Z</time>
      </trkpt>
      <trkpt lat="47.52354" lon="6.71162">
        <ele>402.1</ele>
        <time>2017-12-17T10:17:04.999Z</time>
      </trkpt>
      <trkpt lat="47.52351" lon="6.7116">
        <ele>402.5</ele>
        <time>2017-12-17T10:17:05.999Z</time>
      </trkpt>
      <trkpt lat="47.52348" lon="6.71157">
        <ele>402.8</ele>
        <time>2017-12-17T10:17:06.999Z</time>
      </trkpt>
      <trkpt lat="47.52345" lon="6.71154">
        <ele>403</ele>
        <time>2017-12-17T10:17:07.999Z</time>
      </trkpt>
      <trkpt lat="47.52342" lon="6.71153">
        <ele>403.3</ele>
        <time>2017-12-17T10:17:08.999Z</time>
      </trkpt>
      <trkpt lat="47.52339" lon="6.71151">
        <ele>403.6</ele>
        <time>2017-12-17T10:17:09.999Z</time>
      </trkpt>
      <trkpt lat="47.52336" lon="6.7115">
        <ele>403.7</ele>
        <time>2017-12-17T10:17:10.999Z</time>
      </trkpt>
      <trkpt lat="47.52332" lon="6.7115">
        <ele>403.9</ele>
        <time>2017-12-17T10:17:11.999Z</time>
      </trkpt>
      <trkpt lat="47.52329" lon="6.71151">
        <ele>404.1</ele>
        <time>2017-12-17T10:17:12.999Z</time>
      </trkpt>
      <trkpt lat="47.52325" lon="6.71154">
        <ele>404.3</ele>
        <time>2017-12-17T10:17:13.999Z</time>
      </trkpt>
      <trkpt lat="47.52322" lon="6.71157">
        <ele>404.5</ele>
        <time>2017-12-17T10:17:14.999Z</time>
      </trkpt>
      <trkpt lat="47.52319" lon="6.71159">
        <ele>404.7</ele>
        <time>2017-12-17T10:17:15.999Z</time>
      </trkpt>
      <trkpt lat="47.52317" lon="6.71161">
        <ele>404.9</ele>
        <time>2017-12-17T10:17:16.999Z</time>
      </trkpt>
      <trkpt lat="47.52316" lon="6.71164">
        <ele>405.1</ele>
        <time>2017-12-17T10:17:17.999Z</time>
      </trkpt>
      <trkpt lat="47.52313" lon="6.71168">
        <ele>405.3</ele>
        <time>2017-12-17T10:17:18.999Z</time>
      </trkpt>
      <trkpt lat="47.5231" lon="6.71172">
        <ele>405.5</ele>
        <time>2017-12-17T10:17:19.999Z</time>
      </trkpt>
      <trkpt lat="47.52307" lon="6.71176">
        <ele>405.5</ele>
        <time>2017-12-17T10:17:20.999Z</time>
      </trkpt>
      <trkpt lat="47.52305" lon="6.71179">
        <ele>405.5</ele>
        <time>2017-12-17T10:17:21.999Z</time>
      </trkpt>
      <trkpt lat="47.52303" lon="6.71182">
        <ele>405.6</ele>
        <time>2017-12-17T10:17:22.999Z</time>
      </trkpt>
      <trkpt lat="47.523" lon="6.71187">
        <ele>405.6</ele>
        <time>2017-12-17T10:17:23.999Z</time>
      </trkpt>
      <trkpt lat="47.52298" lon="6.7119">
        <ele>405.6</ele>
        <time>2017-12-17T10:17:24.999Z</time>
      </trkpt>
      <trkpt lat="47.52295" lon="6.71194">
        <ele>405.7</ele>
        <time>2017-12-17T10:17:25.999Z</time>
      </trkpt>
      <trkpt lat="47.52292" lon="6.71199">
        <ele>405.9</ele>
        <time>2017-12-17T10:17:26.999Z</time>
      </trkpt>
      <trkpt lat="47.5229" lon="6.71202">
        <ele>406</ele>
        <time>2017-12-17T10:17:27.999Z</time>
      </trkpt>
      <trkpt lat="47.52288" lon="6.71205">
        <ele>406.2</ele>
        <time>2017-12-17T10:17:28.999Z</time>
      </trkpt>
      <trkpt lat="47.52286" lon="6.71207">
        <ele>406.4</ele>
        <time>2017-12-17T10:17:29.999Z</time>
      </trkpt>
      <trkpt lat="47.52283" lon="6.71211">
        <ele>406.5</ele>
        <time>2017-12-17T10:17:30.999Z</time>
      </trkpt>
      <trkpt lat="47.52281" lon="6.71214">
        <ele>406.6</ele>
        <time>2017-12-17T10:17:31.999Z</time>
      </trkpt>
      <trkpt lat="47.52278" lon="6.71216">
        <ele>406.8</ele>
        <time>2017-12-17T10:17:32.999Z</time>
      </trkpt>
      <trkpt lat="47.52275" lon="6.71218">
        <ele>406.9</ele>
        <time>2017-12-17T10:17:33.999Z</time>
      </trkpt>
      <trkpt lat="47.52273" lon="6.71219">
        <ele>407</ele>
        <time>2017-12-17T10:17:34.999Z</time>
      </trkpt>
      <trkpt lat="47.52271" lon="6.7122">
        <ele>407.2</ele>
        <time>2017-12-17T10:17:35.999Z</time>
      </trkpt>
      <trkpt lat="47.52269" lon="6.71221">
        <ele>407.3</ele>
        <time>2017-12-17T10:17:36.999Z</time>
      </trkpt>
      <trkpt lat="47.52266" lon="6.71221">
        <ele>407.5</ele>
        <time>2017-12-17T10:17:37.999Z</time>
      </trkpt>
      <trkpt lat="47.52263" lon="6.7122">
        <ele>407.6</ele>
        <time>2017-12-17T10:17:38.999Z</time>
      </trkpt>
      <trkpt lat="47.52262" lon="6.71218">
        <ele>407.8</ele>
        <time>2017-12-17T10:17:39.999Z</time>
      </trkpt>
      <trkpt lat="47.5226" lon="6.71215">
        <ele>407.9</ele>
        <time>2017-12-17T10:17:40.999Z</time>
      </trkpt>
      <trkpt lat="47.52257" lon="6.71211">
        <ele>407.9</ele>
        <time>2017-12-17T10:17:41.999Z</time>
      </trkpt>
      <trkpt lat="47.52254" lon="6.71207">
        <ele>407.9</ele>
        <time>2017-12-17T10:17:42.999Z</time>
      </trkpt>
      <trkpt lat="47.52252" lon="6.71202">
        <ele>408</ele>
        <time>2017-12-17T10:17:43.999Z</time>
      </trkpt>
      <trkpt lat="47.52249" lon="6.71198">
        <ele>408.1</ele>
        <time>2017-12-17T10:17:44.999Z</time>
      </trkpt>
      <trkpt lat="47.52247" lon="6.71193">
        <ele>408.2</ele>
        <time>2017-12-17T10:17:45.999Z</time>
      </trkpt>
      <trkpt lat="47.52245" lon="6.71189">
        <ele>408.4</ele>
        <time>2017-12-17T10:17:46.999Z</time>
      </trkpt>
      <trkpt lat="47.52242" lon="6.71185">
        <ele>408.5</ele>
        <time>2017-12-17T10:17:47.999Z</time>
      </trkpt>
      <trkpt lat="47.5224" lon="6.71179">
        <ele>410.7</ele>
        <time>2017-12-17T10:17:48.999Z</time>
      </trkpt>
      <trkpt lat="47.52237" lon="6.71174">
        <ele>411.9</ele>
        <time>2017-12-17T10:17:49.999Z</time>
      </trkpt>
      <trkpt lat="47.52234" lon="6.71168">
        <ele>413</ele>
        <time>2017-12-17T10:17:50.999Z</time>
      </trkpt>
      <trkpt lat="47.52231" lon="6.71162">
        <ele>413.9</ele>
        <time>2017-12-17T10:17:51.999Z</time>
      </trkpt>
      <trkpt lat="47.52227" lon="6.71157">
        <ele>414.2</ele>
        <time>2017-12-17T10:17:52.999Z</time>
      </trkpt>
      <trkpt lat="47.52224" lon="6.71151">
        <ele>414.6</ele>
        <time>2017-12-17T10:17:53.999Z</time>
      </trkpt>
      <trkpt lat="47.5222" lon="6.71144">
        <ele>414.9</ele>
        <time>2017-12-17T10:17:54.999Z</time>
      </trkpt>
      <trkpt lat="47.52216" lon="6.71138">
        <ele>415.4</ele>
        <time>2017-12-17T10:17:55.999Z</time>
      </trkpt>
      <trkpt lat="47.52212" lon="6.71133">
        <ele>415.9</ele>
        <time>2017-12-17T10:17:56.999Z</time>
      </trkpt>
      <trkpt lat="47.52207" lon="6.71128">
        <ele>415.6</ele>
        <time>2017-12-17T10:17:57.999Z</time>
      </trkpt>
      <trkpt lat="47.52203" lon="6.71122">
        <ele>415</ele>
        <time>2017-12-17T10:17:58.999Z</time>
      </trkpt>
      <trkpt lat="47.52199" lon="6.71117">
        <ele>414.3</ele>
        <time>2017-12-17T10:17:59.999Z</time>
      </trkpt>
      <trkpt lat="47.52195" lon="6.71113">
        <ele>414</ele>
        <time>2017-12-17T10:18:00.999Z</time>
      </trkpt>
      <trkpt lat="47.52192" lon="6.71108">
        <ele>413.3</ele>
        <time>2017-12-17T10:18:01.999Z</time>
      </trkpt>
      <trkpt lat="47.52189" lon="6.71103">
        <ele>413</ele>
        <time>2017-12-17T10:18:02.999Z</time>
      </trkpt>
      <trkpt lat="47.52186" lon="6.71099">
        <ele>413</ele>
        <time>2017-12-17T10:18:03.999Z</time>
      </trkpt>
      <trkpt lat="47.52183" lon="6.71093">
        <ele>413.1</ele>
        <time>2017-12-17T10:18:04.999Z</time>
      </trkpt>
      <trkpt lat="47.5218" lon="6.71089">
        <ele>413</ele>
        <time>2017-12-17T10:18:05.999Z</time>
      </trkpt>
      <trkpt lat="47.52176" lon="6.71085">
        <ele>412.7</ele>
        <time>2017-12-17T10:18:06.999Z</time>
      </trkpt>
      <trkpt lat="47.52171" lon="6.71081">
        <ele>412.2</ele>
        <time>2017-12-17T10:18:07.999Z</time>
      </trkpt>
      <trkpt lat="47.52166" lon="6.71078">
        <ele>411.8</ele>
        <time>2017-12-17T10:18:08.999Z</time>
      </trkpt>
      <trkpt lat="47.52163" lon="6.71075">
        <ele>411.8</ele>
        <time>2017-12-17T10:18:09.999Z</time>
      </trkpt>
      <trkpt lat="47.5216" lon="6.71074">
        <ele>411.8</ele>
        <time>2017-12-17T10:18:10.999Z</time>
      </trkpt>
      <trkpt lat="47.52156" lon="6.7107">
        <ele>412.3</ele>
        <time>2017-12-17T10:18:11.999Z</time>
      </trkpt>
      <trkpt lat="47.52153" lon="6.71067">
        <ele>412.3</ele>
        <time>2017-12-17T10:18:12.999Z</time>
      </trkpt>
      <trkpt lat="47.52149" lon="6.71064">
        <ele>412.2</ele>
        <time>2017-12-17T10:18:13.999Z</time>
      </trkpt>
      <trkpt lat="47.52146" lon="6.71061">
        <ele>412.3</ele>
        <time>2017-12-17T10:18:14.999Z</time>
      </trkpt>
      <trkpt lat="47.52142" lon="6.71058">
        <ele>412.2</ele>
        <time>2017-12-17T10:18:15.999Z</time>
      </trkpt>
      <trkpt lat="47.52139" lon="6.71055">
        <ele>412.1</ele>
        <time>2017-12-17T10:18:16.999Z</time>
      </trkpt>
      <trkpt lat="47.52136" lon="6.71053">
        <ele>411.8</ele>
        <time>2017-12-17T10:18:17.999Z</time>
      </trkpt>
      <trkpt lat="47.52131" lon="6.71051">
        <ele>410.9</ele>
        <time>2017-12-17T10:18:18.999Z</time>
      </trkpt>
      <trkpt lat="47.52128" lon="6.71049">
        <ele>410.9</ele>
        <time>2017-12-17T10:18:19.999Z</time>
      </trkpt>
      <trkpt lat="47.52124" lon="6.71046">
        <ele>410.8</ele>
        <time>2017-12-17T10:18:20.999Z</time>
      </trkpt>
      <trkpt lat="47.52121" lon="6.71043">
        <ele>410.1</ele>
        <time>2017-12-17T10:18:21.999Z</time>
      </trkpt>
      <trkpt lat="47.52117" lon="6.7104">
        <ele>410</ele>
        <time>2017-12-17T10:18:22.999Z</time>
      </trkpt>
      <trkpt lat="47.52112" lon="6.71037">
        <ele>408.7</ele>
        <time>2017-12-17T10:18:23.999Z</time>
      </trkpt>
      <trkpt lat="47.52108" lon="6.71034">
        <ele>408.8</ele>
        <time>2017-12-17T10:18:24.999Z</time>
      </trkpt>
      <trkpt lat="47.52103" lon="6.71031">
        <ele>409.3</ele>
        <time>2017-12-17T10:18:25.999Z</time>
      </trkpt>
      <trkpt lat="47.52099" lon="6.71027">
        <ele>409.8</ele>
        <time>2017-12-17T10:18:26.999Z</time>
      </trkpt>
      <trkpt lat="47.52094" lon="6.71024">
        <ele>409.8</ele>
        <time>2017-12-17T10:18:27.999Z</time>
      </trkpt>
      <trkpt lat="47.52089" lon="6.7102">
        <ele>409.1</ele>
        <time>2017-12-17T10:18:28.999Z</time>
      </trkpt>
      <trkpt lat="47.52085" lon="6.71017">
        <ele>408.5</ele>
        <time>2017-12-17T10:18:29.999Z</time>
      </trkpt>
      <trkpt lat="47.52082" lon="6.71016">
        <ele>408</ele>
        <time>2017-12-17T10:18:30.999Z</time>
      </trkpt>
      <trkpt lat="47.52077" lon="6.71014">
        <ele>408.2</ele>
        <time>2017-12-17T10:18:31.999Z</time>
      </trkpt>
      <trkpt lat="47.52073" lon="6.71012">
        <ele>408.1</ele>
        <time>2017-12-17T10:18:32.999Z</time>
      </trkpt>
      <trkpt lat="47.52068" lon="6.71012">
        <ele>408.1</ele>
        <time>2017-12-17T10:18:33.999Z</time>
      </trkpt>
      <trkpt lat="47.52066" lon="6.71011">
        <ele>408.2</ele>
        <time>2017-12-17T10:18:34.999Z</time>
      </trkpt>
      <trkpt lat="47.52063" lon="6.71011">
        <ele>408.3</ele>
        <time>2017-12-17T10:18:35.999Z</time>
      </trkpt>
      <trkpt lat="47.5206" lon="6.7101">
        <ele>408.3</ele>
        <time>2017-12-17T10:18:36.999Z</time>
      </trkpt>
      <trkpt lat="47.52057" lon="6.71008">
        <ele>408.3</ele>
        <time>2017-12-17T10:18:37.999Z</time>
      </trkpt>
      <trkpt lat="47.52054" lon="6.71006">
        <ele>408.4</ele>
        <time>2017-12-17T10:18:38.999Z</time>
      </trkpt>
      <trkpt lat="47.52051" lon="6.71004">
        <ele>408.4</ele>
        <time>2017-12-17T10:18:39.999Z</time>
      </trkpt>
      <trkpt lat="47.52048" lon="6.71003">
        <ele>408.5</ele>
        <time>2017-12-17T10:18:40.999Z</time>
      </trkpt>
      <trkpt lat="47.52046" lon="6.71001">
        <ele>408.6</ele>
        <time>2017-12-17T10:18:41.999Z</time>
      </trkpt>
      <trkpt lat="47.52043" lon="6.71">
        <ele>408.7</ele>
        <time>2017-12-17T10:18:42.999Z</time>
      </trkpt>
      <trkpt lat="47.5204" lon="6.70998">
        <ele>408.8</ele>
        <time>2017-12-17T10:18:43.999Z</time>
      </trkpt>
      <trkpt lat="47.52038" lon="6.70997">
        <ele>408.9</ele>
        <time>2017-12-17T10:18:44.999Z</time>
      </trkpt>
      <trkpt lat="47.52035" lon="6.70995">
        <ele>409</ele>
        <time>2017-12-17T10:18:45.999Z</time>
      </trkpt>
      <trkpt lat="47.52032" lon="6.70992">
        <ele>409.1</ele>
        <time>2017-12-17T10:18:46.999Z</time>
      </trkpt>
      <trkpt lat="47.52029" lon="6.70991">
        <ele>409.1</ele>
        <time>2017-12-17T10:18:47.999Z</time>
      </trkpt>
      <trkpt lat="47.52025" lon="6.70988">
        <ele>409.2</ele>
        <time>2017-12-17T10:18:48.999Z</time>
      </trkpt>
      <trkpt lat="47.52022" lon="6.70985">
        <ele>409.3</ele>
        <time>2017-12-17T10:18:49.999Z</time>
      </trkpt>
      <trkpt lat="47.52018" lon="6.70983">
        <ele>409.4</ele>
        <time>2017-12-17T10:18:50.999Z</time>
      </trkpt>
      <trkpt lat="47.52015" lon="6.70981">
        <ele>409.6</ele>
        <time>2017-12-17T10:18:51.999Z</time>
      </trkpt>
      <trkpt lat="47.52013" lon="6.70979">
        <ele>409.8</ele>
        <time>2017-12-17T10:18:52.999Z</time>
      </trkpt>
      <trkpt lat="47.52011" lon="6.70978">
        <ele>409.9</ele>
        <time>2017-12-17T10:18:53.999Z</time>
      </trkpt>
      <trkpt lat="47.52009" lon="6.70978">
        <ele>410.1</ele>
        <time>2017-12-17T10:18:54.999Z</time>
      </trkpt>
      <trkpt lat="47.52006" lon="6.70977">
        <ele>410.3</ele>
        <time>2017-12-17T10:18:55.999Z</time>
      </trkpt>
      <trkpt lat="47.52004" lon="6.70976">
        <ele>410.5</ele>
        <time>2017-12-17T10:18:56.999Z</time>
      </trkpt>
      <trkpt lat="47.52001" lon="6.70976">
        <ele>410.5</ele>
        <time>2017-12-17T10:18:57.999Z</time>
      </trkpt>
      <trkpt lat="47.51997" lon="6.70976">
        <ele>410.8</ele>
        <time>2017-12-17T10:18:59.999Z</time>
      </trkpt>
      <trkpt lat="47.51996" lon="6.70977">
        <ele>410.9</ele>
        <time>2017-12-17T10:19:00.999Z</time>
      </trkpt>
      <trkpt lat="47.51992" lon="6.70978">
        <ele>411.1</ele>
        <time>2017-12-17T10:19:02.999Z</time>
      </trkpt>
      <trkpt lat="47.5199" lon="6.70978">
        <ele>411.3</ele>
        <time>2017-12-17T10:19:03.999Z</time>
      </trkpt>
      <trkpt lat="47.51987" lon="6.70979">
        <ele>411.4</ele>
        <time>2017-12-17T10:19:04.999Z</time>
      </trkpt>
      <trkpt lat="47.51984" lon="6.70979">
        <ele>411.6</ele>
        <time>2017-12-17T10:19:05.999Z</time>
      </trkpt>
      <trkpt lat="47.51982" lon="6.7098">
        <ele>411.8</ele>
        <time>2017-12-17T10:19:06.999Z</time>
      </trkpt>
      <trkpt lat="47.51979" lon="6.7098">
        <ele>412</ele>
        <time>2017-12-17T10:19:07.999Z</time>
      </trkpt>
      <trkpt lat="47.51976" lon="6.7098">
        <ele>412.1</ele>
        <time>2017-12-17T10:19:08.999Z</time>
      </trkpt>
      <trkpt lat="47.51974" lon="6.70981">
        <ele>412.2</ele>
        <time>2017-12-17T10:19:09.999Z</time>
      </trkpt>
      <trkpt lat="47.51971" lon="6.70981">
        <ele>412.4</ele>
        <time>2017-12-17T10:19:11.999Z</time>
      </trkpt>
      <trkpt lat="47.51969" lon="6.70982">
        <ele>412.5</ele>
        <time>2017-12-17T10:19:12.999Z</time>
      </trkpt>
      <trkpt lat="47.51964" lon="6.70982">
        <ele>412.6</ele>
        <time>2017-12-17T10:19:14.999Z</time>
      </trkpt>
      <trkpt lat="47.51962" lon="6.70981">
        <ele>412.6</ele>
        <time>2017-12-17T10:19:15.999Z</time>
      </trkpt>
      <trkpt lat="47.51959" lon="6.70982">
        <ele>412.7</ele>
        <time>2017-12-17T10:19:18.999Z</time>
      </trkpt>
      <trkpt lat="47.51957" lon="6.70983">
        <ele>412.6</ele>
        <time>2017-12-17T10:19:19.999Z</time>
      </trkpt>
      <trkpt lat="47.51954" lon="6.70985">
        <ele>412.9</ele>
        <time>2017-12-17T10:19:21.999Z</time>
      </trkpt>
      <trkpt lat="47.51952" lon="6.70984">
        <ele>413.1</ele>
        <time>2017-12-17T10:19:22.999Z</time>
      </trkpt>
      <trkpt lat="47.51949" lon="6.70984">
        <ele>413.4</ele>
        <time>2017-12-17T10:19:23.999Z</time>
      </trkpt>
      <trkpt lat="47.51946" lon="6.70984">
        <ele>413.7</ele>
        <time>2017-12-17T10:19:24.999Z</time>
      </trkpt>
      <trkpt lat="47.51942" lon="6.70984">
        <ele>414.5</ele>
        <time>2017-12-17T10:19:27.999Z</time>
      </trkpt>
      <trkpt lat="47.51941" lon="6.70984">
        <ele>414.7</ele>
        <time>2017-12-17T10:19:28.999Z</time>
      </trkpt>
      <trkpt lat="47.51938" lon="6.70985">
        <ele>415.2</ele>
        <time>2017-12-17T10:19:30.999Z</time>
      </trkpt>
      <trkpt lat="47.51935" lon="6.70985">
        <ele>415.5</ele>
        <time>2017-12-17T10:19:31.999Z</time>
      </trkpt>
      <trkpt lat="47.51932" lon="6.70987">
        <ele>415.9</ele>
        <time>2017-12-17T10:19:33.999Z</time>
      </trkpt>
      <trkpt lat="47.5193" lon="6.70988">
        <ele>416.1</ele>
        <time>2017-12-17T10:19:34.999Z</time>
      </trkpt>
      <trkpt lat="47.51927" lon="6.70989">
        <ele>416.5</ele>
        <time>2017-12-17T10:19:36.999Z</time>
      </trkpt>
      <trkpt lat="47.51925" lon="6.7099">
        <ele>416.8</ele>
        <time>2017-12-17T10:19:37.999Z</time>
      </trkpt>
      <trkpt lat="47.51922" lon="6.7099">
        <ele>417.1</ele>
        <time>2017-12-17T10:19:38.999Z</time>
      </trkpt>
      <trkpt lat="47.5192" lon="6.7099">
        <ele>417.3</ele>
        <time>2017-12-17T10:19:39.999Z</time>
      </trkpt>
      <trkpt lat="47.51916" lon="6.70989">
        <ele>418</ele>
        <time>2017-12-17T10:19:42.999Z</time>
      </trkpt>
      <trkpt lat="47.51915" lon="6.7099">
        <ele>418.2</ele>
        <time>2017-12-17T10:19:43.999Z</time>
      </trkpt>
      <trkpt lat="47.51911" lon="6.7099">
        <ele>418.7</ele>
        <time>2017-12-17T10:19:45.999Z</time>
      </trkpt>
      <trkpt lat="47.51909" lon="6.70989">
        <ele>419</ele>
        <time>2017-12-17T10:19:46.999Z</time>
      </trkpt>
      <trkpt lat="47.51905" lon="6.70989">
        <ele>419.5</ele>
        <time>2017-12-17T10:19:48.999Z</time>
      </trkpt>
      <trkpt lat="47.51903" lon="6.70989">
        <ele>419.8</ele>
        <time>2017-12-17T10:19:49.999Z</time>
      </trkpt>
      <trkpt lat="47.51899" lon="6.7099">
        <ele>420.6</ele>
        <time>2017-12-17T10:19:52.999Z</time>
      </trkpt>
      <trkpt lat="47.51898" lon="6.70991">
        <ele>420.8</ele>
        <time>2017-12-17T10:19:53.999Z</time>
      </trkpt>
      <trkpt lat="47.51894" lon="6.7099">
        <ele>421.3</ele>
        <time>2017-12-17T10:19:55.999Z</time>
      </trkpt>
      <trkpt lat="47.51893" lon="6.7099">
        <ele>421.5</ele>
        <time>2017-12-17T10:19:56.999Z</time>
      </trkpt>
      <trkpt lat="47.51889" lon="6.7099">
        <ele>422.4</ele>
        <time>2017-12-17T10:19:59.999Z</time>
      </trkpt>
      <trkpt lat="47.51887" lon="6.7099">
        <ele>422.7</ele>
        <time>2017-12-17T10:20:00.999Z</time>
      </trkpt>
      <trkpt lat="47.51883" lon="6.70991">
        <ele>423.3</ele>
        <time>2017-12-17T10:20:02.999Z</time>
      </trkpt>
      <trkpt lat="47.51882" lon="6.70991">
        <ele>423.6</ele>
        <time>2017-12-17T10:20:03.999Z</time>
      </trkpt>
      <trkpt lat="47.51878" lon="6.70992">
        <ele>424.5</ele>
        <time>2017-12-17T10:20:06.999Z</time>
      </trkpt>
      <trkpt lat="47.51876" lon="6.70991">
        <ele>424.9</ele>
        <time>2017-12-17T10:20:07.999Z</time>
      </trkpt>
      <trkpt lat="47.51872" lon="6.70992">
        <ele>426.2</ele>
        <time>2017-12-17T10:20:11.999Z</time>
      </trkpt>
      <trkpt lat="47.5187" lon="6.70992">
        <ele>426.4</ele>
        <time>2017-12-17T10:20:12.999Z</time>
      </trkpt>
      <trkpt lat="47.51866" lon="6.70993">
        <ele>427.1</ele>
        <time>2017-12-17T10:20:15.999Z</time>
      </trkpt>
      <trkpt lat="47.51864" lon="6.70993">
        <ele>427.4</ele>
        <time>2017-12-17T10:20:16.999Z</time>
      </trkpt>
      <trkpt lat="47.51861" lon="6.70993">
        <ele>428</ele>
        <time>2017-12-17T10:20:18.999Z</time>
      </trkpt>
      <trkpt lat="47.5186" lon="6.70994">
        <ele>428.3</ele>
        <time>2017-12-17T10:20:19.999Z</time>
      </trkpt>
      <trkpt lat="47.51856" lon="6.70995">
        <ele>429.8</ele>
        <time>2017-12-17T10:20:23.999Z</time>
      </trkpt>
      <trkpt lat="47.51854" lon="6.70996">
        <ele>430.2</ele>
        <time>2017-12-17T10:20:24.999Z</time>
      </trkpt>
      <trkpt lat="47.5185" lon="6.70998">
        <ele>431.1</ele>
        <time>2017-12-17T10:20:27.999Z</time>
      </trkpt>
      <trkpt lat="47.5185" lon="6.70999">
        <ele>431.4</ele>
        <time>2017-12-17T10:20:28.999Z</time>
      </trkpt>
      <trkpt lat="47.51846" lon="6.71">
        <ele>432</ele>
        <time>2017-12-17T10:20:30.999Z</time>
      </trkpt>
      <trkpt lat="47.51844" lon="6.71002">
        <ele>432.2</ele>
        <time>2017-12-17T10:20:31.999Z</time>
      </trkpt>
      <trkpt lat="47.51841" lon="6.71005">
        <ele>432.4</ele>
        <time>2017-12-17T10:20:33.999Z</time>
      </trkpt>
      <trkpt lat="47.5184" lon="6.71006">
        <ele>432.6</ele>
        <time>2017-12-17T10:20:34.999Z</time>
      </trkpt>
      <trkpt lat="47.51836" lon="6.71007">
        <ele>432.8</ele>
        <time>2017-12-17T10:20:37.999Z</time>
      </trkpt>
      <trkpt lat="47.51835" lon="6.71008">
        <ele>433</ele>
        <time>2017-12-17T10:20:38.999Z</time>
      </trkpt>
      <trkpt lat="47.51832" lon="6.71009">
        <ele>433.5</ele>
        <time>2017-12-17T10:20:41.999Z</time>
      </trkpt>
      <trkpt lat="47.5183" lon="6.71009">
        <ele>433.7</ele>
        <time>2017-12-17T10:20:42.999Z</time>
      </trkpt>
      <trkpt lat="47.51827" lon="6.71009">
        <ele>434.1</ele>
        <time>2017-12-17T10:20:44.999Z</time>
      </trkpt>
      <trkpt lat="47.51825" lon="6.71009">
        <ele>434.3</ele>
        <time>2017-12-17T10:20:45.999Z</time>
      </trkpt>
      <trkpt lat="47.51822" lon="6.71009">
        <ele>434.9</ele>
        <time>2017-12-17T10:20:47.999Z</time>
      </trkpt>
      <trkpt lat="47.5182" lon="6.71009">
        <ele>435.1</ele>
        <time>2017-12-17T10:20:48.999Z</time>
      </trkpt>
      <trkpt lat="47.51817" lon="6.71008">
        <ele>435.7</ele>
        <time>2017-12-17T10:20:51.999Z</time>
      </trkpt>
      <trkpt lat="47.51815" lon="6.71009">
        <ele>435.9</ele>
        <time>2017-12-17T10:20:52.999Z</time>
      </trkpt>
      <trkpt lat="47.51811" lon="6.71009">
        <ele>436.4</ele>
        <time>2017-12-17T10:20:55.999Z</time>
      </trkpt>
      <trkpt lat="47.5181" lon="6.71009">
        <ele>436.6</ele>
        <time>2017-12-17T10:20:56.999Z</time>
      </trkpt>
      <trkpt lat="47.51805" lon="6.7101">
        <ele>437.3</ele>
        <time>2017-12-17T10:20:59.999Z</time>
      </trkpt>
      <trkpt lat="47.51804" lon="6.7101">
        <ele>437.6</ele>
        <time>2017-12-17T10:21:00.999Z</time>
      </trkpt>
      <trkpt lat="47.51801" lon="6.7101">
        <ele>438.2</ele>
        <time>2017-12-17T10:21:03.999Z</time>
      </trkpt>
      <trkpt lat="47.51799" lon="6.7101">
        <ele>438.4</ele>
        <time>2017-12-17T10:21:04.999Z</time>
      </trkpt>
      <trkpt lat="47.51795" lon="6.7101">
        <ele>438.9</ele>
        <time>2017-12-17T10:21:07.999Z</time>
      </trkpt>
      <trkpt lat="47.51794" lon="6.71011">
        <ele>439.1</ele>
        <time>2017-12-17T10:21:08.999Z</time>
      </trkpt>
      <trkpt lat="47.51792" lon="6.71012">
        <ele>439.3</ele>
        <time>2017-12-17T10:21:09.999Z</time>
      </trkpt>
      <trkpt lat="47.51789" lon="6.71013">
        <ele>439.5</ele>
        <time>2017-12-17T10:21:10.999Z</time>
      </trkpt>
      <trkpt lat="47.51786" lon="6.71014">
        <ele>439.7</ele>
        <time>2017-12-17T10:21:11.999Z</time>
      </trkpt>
      <trkpt lat="47.51784" lon="6.71014">
        <ele>439.9</ele>
        <time>2017-12-17T10:21:12.999Z</time>
      </trkpt>
      <trkpt lat="47.5178" lon="6.71014">
        <ele>440.6</ele>
        <time>2017-12-17T10:21:15.999Z</time>
      </trkpt>
      <trkpt lat="47.51779" lon="6.71015">
        <ele>440.8</ele>
        <time>2017-12-17T10:21:16.999Z</time>
      </trkpt>
      <trkpt lat="47.51774" lon="6.71015">
        <ele>441.2</ele>
        <time>2017-12-17T10:21:19.999Z</time>
      </trkpt>
      <trkpt lat="47.51773" lon="6.71015">
        <ele>441.4</ele>
        <time>2017-12-17T10:21:20.999Z</time>
      </trkpt>
      <trkpt lat="47.51769" lon="6.71016">
        <ele>442.2</ele>
        <time>2017-12-17T10:21:23.999Z</time>
      </trkpt>
      <trkpt lat="47.51768" lon="6.71016">
        <ele>442.4</ele>
        <time>2017-12-17T10:21:24.999Z</time>
      </trkpt>
      <trkpt lat="47.51764" lon="6.71016">
        <ele>443.1</ele>
        <time>2017-12-17T10:21:27.999Z</time>
      </trkpt>
      <trkpt lat="47.51762" lon="6.71016">
        <ele>443.4</ele>
        <time>2017-12-17T10:21:28.999Z</time>
      </trkpt>
      <trkpt lat="47.51758" lon="6.71017">
        <ele>443.7</ele>
        <time>2017-12-17T10:21:30.999Z</time>
      </trkpt>
      <trkpt lat="47.51756" lon="6.71017">
        <ele>443.8</ele>
        <time>2017-12-17T10:21:31.999Z</time>
      </trkpt>
      <trkpt lat="47.51753" lon="6.71018">
        <ele>444.1</ele>
        <time>2017-12-17T10:21:33.999Z</time>
      </trkpt>
      <trkpt lat="47.51752" lon="6.71017">
        <ele>444.3</ele>
        <time>2017-12-17T10:21:34.999Z</time>
      </trkpt>
      <trkpt lat="47.51748" lon="6.71017">
        <ele>444.5</ele>
        <time>2017-12-17T10:21:36.999Z</time>
      </trkpt>
      <trkpt lat="47.51746" lon="6.71017">
        <ele>444.7</ele>
        <time>2017-12-17T10:21:37.999Z</time>
      </trkpt>
      <trkpt lat="47.51741" lon="6.71018">
        <ele>444.8</ele>
        <time>2017-12-17T10:21:39.999Z</time>
      </trkpt>
      <trkpt lat="47.5174" lon="6.71019">
        <ele>444.8</ele>
        <time>2017-12-17T10:21:40.999Z</time>
      </trkpt>
      <trkpt lat="47.51735" lon="6.7102">
        <ele>445.2</ele>
        <time>2017-12-17T10:21:43.999Z</time>
      </trkpt>
      <trkpt lat="47.51734" lon="6.7102">
        <ele>445.4</ele>
        <time>2017-12-17T10:21:44.999Z</time>
      </trkpt>
      <trkpt lat="47.5173" lon="6.7102">
        <ele>445.6</ele>
        <time>2017-12-17T10:21:46.999Z</time>
      </trkpt>
      <trkpt lat="47.51728" lon="6.7102">
        <ele>445.8</ele>
        <time>2017-12-17T10:21:47.999Z</time>
      </trkpt>
      <trkpt lat="47.51724" lon="6.7102">
        <ele>446.1</ele>
        <time>2017-12-17T10:21:49.999Z</time>
      </trkpt>
      <trkpt lat="47.51722" lon="6.7102">
        <ele>446.3</ele>
        <time>2017-12-17T10:21:50.999Z</time>
      </trkpt>
      <trkpt lat="47.51717" lon="6.71019">
        <ele>446.7</ele>
        <time>2017-12-17T10:21:53.999Z</time>
      </trkpt>
      <trkpt lat="47.51716" lon="6.71019">
        <ele>446.9</ele>
        <time>2017-12-17T10:21:54.999Z</time>
      </trkpt>
      <trkpt lat="47.51712" lon="6.71019">
        <ele>447.2</ele>
        <time>2017-12-17T10:21:56.999Z</time>
      </trkpt>
      <trkpt lat="47.51711" lon="6.71019">
        <ele>447.3</ele>
        <time>2017-12-17T10:21:57.999Z</time>
      </trkpt>
      <trkpt lat="47.51707" lon="6.71019">
        <ele>447.7</ele>
        <time>2017-12-17T10:21:59.999Z</time>
      </trkpt>
      <trkpt lat="47.51705" lon="6.7102">
        <ele>448</ele>
        <time>2017-12-17T10:22:00.999Z</time>
      </trkpt>
      <trkpt lat="47.51702" lon="6.71019">
        <ele>448.1</ele>
        <time>2017-12-17T10:22:01.999Z</time>
      </trkpt>
      <trkpt lat="47.51699" lon="6.71019">
        <ele>448.3</ele>
        <time>2017-12-17T10:22:02.999Z</time>
      </trkpt>
      <trkpt lat="47.51697" lon="6.71019">
        <ele>448.3</ele>
        <time>2017-12-17T10:22:03.999Z</time>
      </trkpt>
      <trkpt lat="47.51695" lon="6.7102">
        <ele>448.4</ele>
        <time>2017-12-17T10:22:04.999Z</time>
      </trkpt>
      <trkpt lat="47.51692" lon="6.7102">
        <ele>448.4</ele>
        <time>2017-12-17T10:22:05.999Z</time>
      </trkpt>
      <trkpt lat="47.51689" lon="6.7102">
        <ele>448.4</ele>
        <time>2017-12-17T10:22:06.999Z</time>
      </trkpt>
      <trkpt lat="47.51686" lon="6.7102">
        <ele>448.4</ele>
        <time>2017-12-17T10:22:07.999Z</time>
      </trkpt>
      <trkpt lat="47.51683" lon="6.71019">
        <ele>448.4</ele>
        <time>2017-12-17T10:22:08.999Z</time>
      </trkpt>
      <trkpt lat="47.51679" lon="6.7102">
        <ele>448.4</ele>
        <time>2017-12-17T10:22:10.999Z</time>
      </trkpt>
      <trkpt lat="47.51677" lon="6.7102">
        <ele>448.5</ele>
        <time>2017-12-17T10:22:11.999Z</time>
      </trkpt>
      <trkpt lat="47.51674" lon="6.7102">
        <ele>448.6</ele>
        <time>2017-12-17T10:22:12.999Z</time>
      </trkpt>
      <trkpt lat="47.51671" lon="6.7102">
        <ele>448.7</ele>
        <time>2017-12-17T10:22:13.999Z</time>
      </trkpt>
      <trkpt lat="47.51668" lon="6.7102">
        <ele>448.7</ele>
        <time>2017-12-17T10:22:14.999Z</time>
      </trkpt>
      <trkpt lat="47.51666" lon="6.71019">
        <ele>448.7</ele>
        <time>2017-12-17T10:22:15.999Z</time>
      </trkpt>
      <trkpt lat="47.51662" lon="6.71017">
        <ele>448.8</ele>
        <time>2017-12-17T10:22:17.999Z</time>
      </trkpt>
      <trkpt lat="47.5166" lon="6.71016">
        <ele>448.9</ele>
        <time>2017-12-17T10:22:18.999Z</time>
      </trkpt>
      <trkpt lat="47.51655" lon="6.71014">
        <ele>449</ele>
        <time>2017-12-17T10:22:20.999Z</time>
      </trkpt>
      <trkpt lat="47.51653" lon="6.71013">
        <ele>449</ele>
        <time>2017-12-17T10:22:21.999Z</time>
      </trkpt>
      <trkpt lat="47.51649" lon="6.7101">
        <ele>449.2</ele>
        <time>2017-12-17T10:22:23.999Z</time>
      </trkpt>
      <trkpt lat="47.51647" lon="6.71009">
        <ele>449.2</ele>
        <time>2017-12-17T10:22:24.999Z</time>
      </trkpt>
      <trkpt lat="47.51644" lon="6.71006">
        <ele>449.2</ele>
        <time>2017-12-17T10:22:26.999Z</time>
      </trkpt>
      <trkpt lat="47.51642" lon="6.71006">
        <ele>449.2</ele>
        <time>2017-12-17T10:22:27.999Z</time>
      </trkpt>
      <trkpt lat="47.51638" lon="6.71004">
        <ele>449.1</ele>
        <time>2017-12-17T10:22:30.999Z</time>
      </trkpt>
      <trkpt lat="47.51636" lon="6.71004">
        <ele>448.9</ele>
        <time>2017-12-17T10:22:31.999Z</time>
      </trkpt>
      <trkpt lat="47.51633" lon="6.71003">
        <ele>448.5</ele>
        <time>2017-12-17T10:22:35.999Z</time>
      </trkpt>
      <trkpt lat="47.5163" lon="6.71003">
        <ele>448.4</ele>
        <time>2017-12-17T10:22:36.999Z</time>
      </trkpt>
      <trkpt lat="47.51627" lon="6.71002">
        <ele>448.2</ele>
        <time>2017-12-17T10:22:37.999Z</time>
      </trkpt>
      <trkpt lat="47.51624" lon="6.71001">
        <ele>448</ele>
        <time>2017-12-17T10:22:38.999Z</time>
      </trkpt>
      <trkpt lat="47.51622" lon="6.70999">
        <ele>448.1</ele>
        <time>2017-12-17T10:22:39.999Z</time>
      </trkpt>
      <trkpt lat="47.51619" lon="6.70998">
        <ele>448.2</ele>
        <time>2017-12-17T10:22:40.999Z</time>
      </trkpt>
      <trkpt lat="47.51616" lon="6.70997">
        <ele>448.3</ele>
        <time>2017-12-17T10:22:42.999Z</time>
      </trkpt>
      <trkpt lat="47.51614" lon="6.70996">
        <ele>448.5</ele>
        <time>2017-12-17T10:22:43.999Z</time>
      </trkpt>
      <trkpt lat="47.51612" lon="6.70994">
        <ele>448.7</ele>
        <time>2017-12-17T10:22:44.999Z</time>
      </trkpt>
      <trkpt lat="47.51609" lon="6.70993">
        <ele>449</ele>
        <time>2017-12-17T10:22:45.999Z</time>
      </trkpt>
      <trkpt lat="47.51605" lon="6.70991">
        <ele>449.4</ele>
        <time>2017-12-17T10:22:47.999Z</time>
      </trkpt>
      <trkpt lat="47.51604" lon="6.7099">
        <ele>449.7</ele>
        <time>2017-12-17T10:22:48.999Z</time>
      </trkpt>
      <trkpt lat="47.516" lon="6.70987">
        <ele>450.4</ele>
        <time>2017-12-17T10:22:50.999Z</time>
      </trkpt>
      <trkpt lat="47.51598" lon="6.70986">
        <ele>450.8</ele>
        <time>2017-12-17T10:22:51.999Z</time>
      </trkpt>
      <trkpt lat="47.51596" lon="6.70984">
        <ele>451.6</ele>
        <time>2017-12-17T10:22:53.999Z</time>
      </trkpt>
      <trkpt lat="47.51594" lon="6.70983">
        <ele>452</ele>
        <time>2017-12-17T10:22:54.999Z</time>
      </trkpt>
      <trkpt lat="47.5159" lon="6.70982">
        <ele>452.8</ele>
        <time>2017-12-17T10:22:56.999Z</time>
      </trkpt>
      <trkpt lat="47.51588" lon="6.70981">
        <ele>453.3</ele>
        <time>2017-12-17T10:22:57.999Z</time>
      </trkpt>
      <trkpt lat="47.51586" lon="6.70979">
        <ele>454</ele>
        <time>2017-12-17T10:22:59.999Z</time>
      </trkpt>
      <trkpt lat="47.51584" lon="6.70977">
        <ele>454.3</ele>
        <time>2017-12-17T10:23:00.999Z</time>
      </trkpt>
      <trkpt lat="47.51581" lon="6.70975">
        <ele>454.7</ele>
        <time>2017-12-17T10:23:02.999Z</time>
      </trkpt>
      <trkpt lat="47.51579" lon="6.70974">
        <ele>454.9</ele>
        <time>2017-12-17T10:23:03.999Z</time>
      </trkpt>
      <trkpt lat="47.51576" lon="6.70972">
        <ele>455.2</ele>
        <time>2017-12-17T10:23:04.999Z</time>
      </trkpt>
      <trkpt lat="47.51573" lon="6.7097">
        <ele>455.5</ele>
        <time>2017-12-17T10:23:05.999Z</time>
      </trkpt>
      <trkpt lat="47.5157" lon="6.70968">
        <ele>456.3</ele>
        <time>2017-12-17T10:23:07.999Z</time>
      </trkpt>
      <trkpt lat="47.51568" lon="6.70967">
        <ele>456.7</ele>
        <time>2017-12-17T10:23:08.999Z</time>
      </trkpt>
      <trkpt lat="47.51564" lon="6.70966">
        <ele>458.4</ele>
        <time>2017-12-17T10:23:13.999Z</time>
      </trkpt>
      <trkpt lat="47.51562" lon="6.70966">
        <ele>458.7</ele>
        <time>2017-12-17T10:23:14.999Z</time>
      </trkpt>
      <trkpt lat="47.5156" lon="6.70967">
        <ele>459.6</ele>
        <time>2017-12-17T10:23:17.999Z</time>
      </trkpt>
      <trkpt lat="47.51557" lon="6.70966">
        <ele>460</ele>
        <time>2017-12-17T10:23:18.999Z</time>
      </trkpt>
      <trkpt lat="47.51553" lon="6.70966">
        <ele>460.7</ele>
        <time>2017-12-17T10:23:20.999Z</time>
      </trkpt>
      <trkpt lat="47.51551" lon="6.70966">
        <ele>461.1</ele>
        <time>2017-12-17T10:23:21.999Z</time>
      </trkpt>
      <trkpt lat="47.51548" lon="6.70964">
        <ele>462.3</ele>
        <time>2017-12-17T10:23:24.999Z</time>
      </trkpt>
      <trkpt lat="47.51546" lon="6.70964">
        <ele>462.7</ele>
        <time>2017-12-17T10:23:25.999Z</time>
      </trkpt>
      <trkpt lat="47.51541" lon="6.70964">
        <ele>463.4</ele>
        <time>2017-12-17T10:23:27.999Z</time>
      </trkpt>
      <trkpt lat="47.5154" lon="6.70964">
        <ele>463.8</ele>
        <time>2017-12-17T10:23:28.999Z</time>
      </trkpt>
      <trkpt lat="47.51537" lon="6.70963">
        <ele>464.5</ele>
        <time>2017-12-17T10:23:30.999Z</time>
      </trkpt>
      <trkpt lat="47.51535" lon="6.70963">
        <ele>464.9</ele>
        <time>2017-12-17T10:23:31.999Z</time>
      </trkpt>
      <trkpt lat="47.51531" lon="6.70962">
        <ele>465.6</ele>
        <time>2017-12-17T10:23:34.999Z</time>
      </trkpt>
      <trkpt lat="47.5153" lon="6.70961">
        <ele>465.7</ele>
        <time>2017-12-17T10:23:35.999Z</time>
      </trkpt>
      <trkpt lat="47.51526" lon="6.70959">
        <ele>466.3</ele>
        <time>2017-12-17T10:23:39.999Z</time>
      </trkpt>
      <trkpt lat="47.51523" lon="6.70959">
        <ele>466.3</ele>
        <time>2017-12-17T10:23:40.999Z</time>
      </trkpt>
      <trkpt lat="47.51519" lon="6.70958">
        <ele>466.5</ele>
        <time>2017-12-17T10:23:41.999Z</time>
      </trkpt>
      <trkpt lat="47.51518" lon="6.70957">
        <ele>466.6</ele>
        <time>2017-12-17T10:23:42.999Z</time>
      </trkpt>
      <trkpt lat="47.51514" lon="6.70957">
        <ele>466.7</ele>
        <time>2017-12-17T10:23:43.999Z</time>
      </trkpt>
      <trkpt lat="47.51511" lon="6.70956">
        <ele>466.9</ele>
        <time>2017-12-17T10:23:44.999Z</time>
      </trkpt>
      <trkpt lat="47.51508" lon="6.70954">
        <ele>467.2</ele>
        <time>2017-12-17T10:23:45.999Z</time>
      </trkpt>
      <trkpt lat="47.51506" lon="6.70954">
        <ele>467.5</ele>
        <time>2017-12-17T10:23:46.999Z</time>
      </trkpt>
      <trkpt lat="47.51503" lon="6.70953">
        <ele>467.8</ele>
        <time>2017-12-17T10:23:47.999Z</time>
      </trkpt>
      <trkpt lat="47.515" lon="6.70952">
        <ele>468.2</ele>
        <time>2017-12-17T10:23:48.999Z</time>
      </trkpt>
      <trkpt lat="47.51497" lon="6.70952">
        <ele>469.1</ele>
        <time>2017-12-17T10:23:51.999Z</time>
      </trkpt>
      <trkpt lat="47.51495" lon="6.70951">
        <ele>469.4</ele>
        <time>2017-12-17T10:23:52.999Z</time>
      </trkpt>
      <trkpt lat="47.51491" lon="6.70951">
        <ele>469.9</ele>
        <time>2017-12-17T10:23:54.999Z</time>
      </trkpt>
      <trkpt lat="47.51489" lon="6.70951">
        <ele>470.2</ele>
        <time>2017-12-17T10:23:55.999Z</time>
      </trkpt>
      <trkpt lat="47.51486" lon="6.7095">
        <ele>470.7</ele>
        <time>2017-12-17T10:23:57.999Z</time>
      </trkpt>
      <trkpt lat="47.51484" lon="6.7095">
        <ele>471</ele>
        <time>2017-12-17T10:23:58.999Z</time>
      </trkpt>
      <trkpt lat="47.5148" lon="6.70949">
        <ele>471.1</ele>
        <time>2017-12-17T10:24:00.999Z</time>
      </trkpt>
      <trkpt lat="47.51479" lon="6.70948">
        <ele>471.2</ele>
        <time>2017-12-17T10:24:01.999Z</time>
      </trkpt>
      <trkpt lat="47.51475" lon="6.70948">
        <ele>471.5</ele>
        <time>2017-12-17T10:24:03.999Z</time>
      </trkpt>
      <trkpt lat="47.51473" lon="6.70947">
        <ele>471.6</ele>
        <time>2017-12-17T10:24:04.999Z</time>
      </trkpt>
      <trkpt lat="47.5147" lon="6.70945">
        <ele>472</ele>
        <time>2017-12-17T10:24:07.999Z</time>
      </trkpt>
      <trkpt lat="47.51469" lon="6.70944">
        <ele>472.1</ele>
        <time>2017-12-17T10:24:08.999Z</time>
      </trkpt>
      <trkpt lat="47.51465" lon="6.70942">
        <ele>472.5</ele>
        <time>2017-12-17T10:24:14.999Z</time>
      </trkpt>
      <trkpt lat="47.51465" lon="6.70941">
        <ele>472.6</ele>
        <time>2017-12-17T10:24:15.999Z</time>
      </trkpt>
      <trkpt lat="47.51462" lon="6.7094">
        <ele>472.4</ele>
        <time>2017-12-17T10:24:17.999Z</time>
      </trkpt>
      <trkpt lat="47.51459" lon="6.7094">
        <ele>472.4</ele>
        <time>2017-12-17T10:24:18.999Z</time>
      </trkpt>
      <trkpt lat="47.51454" lon="6.70937">
        <ele>472</ele>
        <time>2017-12-17T10:24:21.999Z</time>
      </trkpt>
      <trkpt lat="47.51453" lon="6.70937">
        <ele>471.9</ele>
        <time>2017-12-17T10:24:22.999Z</time>
      </trkpt>
      <trkpt lat="47.51449" lon="6.70936">
        <ele>471.9</ele>
        <time>2017-12-17T10:24:25.999Z</time>
      </trkpt>
      <trkpt lat="47.51445" lon="6.70935">
        <ele>472</ele>
        <time>2017-12-17T10:24:26.999Z</time>
      </trkpt>
      <trkpt lat="47.51442" lon="6.70935">
        <ele>472.1</ele>
        <time>2017-12-17T10:24:27.999Z</time>
      </trkpt>
      <trkpt lat="47.5144" lon="6.70934">
        <ele>472.2</ele>
        <time>2017-12-17T10:24:28.999Z</time>
      </trkpt>
      <trkpt lat="47.51437" lon="6.70933">
        <ele>472.3</ele>
        <time>2017-12-17T10:24:29.999Z</time>
      </trkpt>
      <trkpt lat="47.51435" lon="6.70932">
        <ele>472.3</ele>
        <time>2017-12-17T10:24:30.999Z</time>
      </trkpt>
      <trkpt lat="47.51431" lon="6.7093">
        <ele>472.7</ele>
        <time>2017-12-17T10:24:32.999Z</time>
      </trkpt>
      <trkpt lat="47.5143" lon="6.70929">
        <ele>472.8</ele>
        <time>2017-12-17T10:24:33.999Z</time>
      </trkpt>
      <trkpt lat="47.51427" lon="6.70927">
        <ele>473.1</ele>
        <time>2017-12-17T10:24:35.999Z</time>
      </trkpt>
      <trkpt lat="47.51425" lon="6.70926">
        <ele>473.1</ele>
        <time>2017-12-17T10:24:36.999Z</time>
      </trkpt>
      <trkpt lat="47.51422" lon="6.70924">
        <ele>473.2</ele>
        <time>2017-12-17T10:24:37.999Z</time>
      </trkpt>
      <trkpt lat="47.51419" lon="6.70923">
        <ele>473.3</ele>
        <time>2017-12-17T10:24:38.999Z</time>
      </trkpt>
      <trkpt lat="47.51416" lon="6.70921">
        <ele>473.4</ele>
        <time>2017-12-17T10:24:40.999Z</time>
      </trkpt>
      <trkpt lat="47.51414" lon="6.70919">
        <ele>473.6</ele>
        <time>2017-12-17T10:24:41.999Z</time>
      </trkpt>
      <trkpt lat="47.51411" lon="6.70919">
        <ele>473.8</ele>
        <time>2017-12-17T10:24:44.999Z</time>
      </trkpt>
      <trkpt lat="47.51409" lon="6.70918">
        <ele>473.8</ele>
        <time>2017-12-17T10:24:45.999Z</time>
      </trkpt>
      <trkpt lat="47.51405" lon="6.70916">
        <ele>473.9</ele>
        <time>2017-12-17T10:24:47.999Z</time>
      </trkpt>
      <trkpt lat="47.51403" lon="6.70915">
        <ele>474</ele>
        <time>2017-12-17T10:24:48.999Z</time>
      </trkpt>
      <trkpt lat="47.514" lon="6.70912">
        <ele>474.2</ele>
        <time>2017-12-17T10:24:50.999Z</time>
      </trkpt>
      <trkpt lat="47.51399" lon="6.70911">
        <ele>474.4</ele>
        <time>2017-12-17T10:24:51.999Z</time>
      </trkpt>
      <trkpt lat="47.51396" lon="6.70909">
        <ele>475</ele>
        <time>2017-12-17T10:24:53.999Z</time>
      </trkpt>
      <trkpt lat="47.51395" lon="6.70908">
        <ele>475.2</ele>
        <time>2017-12-17T10:24:54.999Z</time>
      </trkpt>
      <trkpt lat="47.51391" lon="6.70906">
        <ele>476.4</ele>
        <time>2017-12-17T10:24:57.999Z</time>
      </trkpt>
      <trkpt lat="47.51389" lon="6.70905">
        <ele>476.9</ele>
        <time>2017-12-17T10:24:58.999Z</time>
      </trkpt>
      <trkpt lat="47.51384" lon="6.70903">
        <ele>478.1</ele>
        <time>2017-12-17T10:25:01.999Z</time>
      </trkpt>
      <trkpt lat="47.51382" lon="6.70902">
        <ele>478.6</ele>
        <time>2017-12-17T10:25:02.999Z</time>
      </trkpt>
      <trkpt lat="47.51378" lon="6.70902">
        <ele>479.1</ele>
        <time>2017-12-17T10:25:03.999Z</time>
      </trkpt>
      <trkpt lat="47.5137" lon="6.70902">
        <ele>479.6</ele>
        <time>2017-12-17T10:25:04.999Z</time>
      </trkpt>
      <trkpt lat="47.51366" lon="6.70902">
        <ele>480.1</ele>
        <time>2017-12-17T10:25:05.999Z</time>
      </trkpt>
      <trkpt lat="47.51364" lon="6.70902">
        <ele>480.6</ele>
        <time>2017-12-17T10:25:06.999Z</time>
      </trkpt>
      <trkpt lat="47.5136" lon="6.70902">
        <ele>482.8</ele>
        <time>2017-12-17T10:25:10.999Z</time>
      </trkpt>
      <trkpt lat="47.51358" lon="6.709">
        <ele>483.2</ele>
        <time>2017-12-17T10:25:11.999Z</time>
      </trkpt>
      <trkpt lat="47.51355" lon="6.70898">
        <ele>484.2</ele>
        <time>2017-12-17T10:25:13.999Z</time>
      </trkpt>
      <trkpt lat="47.51354" lon="6.70896">
        <ele>484.7</ele>
        <time>2017-12-17T10:25:14.999Z</time>
      </trkpt>
      <trkpt lat="47.5135" lon="6.70893">
        <ele>486.6</ele>
        <time>2017-12-17T10:25:18.999Z</time>
      </trkpt>
      <trkpt lat="47.51349" lon="6.70893">
        <ele>487.1</ele>
        <time>2017-12-17T10:25:19.999Z</time>
      </trkpt>
      <trkpt lat="47.51345" lon="6.7089">
        <ele>488.6</ele>
        <time>2017-12-17T10:25:22.999Z</time>
      </trkpt>
      <trkpt lat="47.51343" lon="6.7089">
        <ele>489</ele>
        <time>2017-12-17T10:25:23.999Z</time>
      </trkpt>
      <trkpt lat="47.5134" lon="6.70888">
        <ele>489.9</ele>
        <time>2017-12-17T10:25:25.999Z</time>
      </trkpt>
      <trkpt lat="47.51338" lon="6.70887">
        <ele>490.1</ele>
        <time>2017-12-17T10:25:26.999Z</time>
      </trkpt>
      <trkpt lat="47.51335" lon="6.70887">
        <ele>490.5</ele>
        <time>2017-12-17T10:25:28.999Z</time>
      </trkpt>
      <trkpt lat="47.51333" lon="6.70888">
        <ele>490.7</ele>
        <time>2017-12-17T10:25:29.999Z</time>
      </trkpt>
      <trkpt lat="47.51329" lon="6.7089">
        <ele>491</ele>
        <time>2017-12-17T10:25:32.999Z</time>
      </trkpt>
      <trkpt lat="47.51327" lon="6.7089">
        <ele>491.1</ele>
        <time>2017-12-17T10:25:33.999Z</time>
      </trkpt>
      <trkpt lat="47.51324" lon="6.70889">
        <ele>491.1</ele>
        <time>2017-12-17T10:25:35.999Z</time>
      </trkpt>
      <trkpt lat="47.51323" lon="6.70889">
        <ele>490.9</ele>
        <time>2017-12-17T10:25:36.999Z</time>
      </trkpt>
      <trkpt lat="47.51319" lon="6.7089">
        <ele>490.7</ele>
        <time>2017-12-17T10:25:38.999Z</time>
      </trkpt>
      <trkpt lat="47.51318" lon="6.7089">
        <ele>490.8</ele>
        <time>2017-12-17T10:25:39.999Z</time>
      </trkpt>
      <trkpt lat="47.51315" lon="6.70889">
        <ele>490.6</ele>
        <time>2017-12-17T10:25:41.999Z</time>
      </trkpt>
      <trkpt lat="47.51313" lon="6.70888">
        <ele>490.5</ele>
        <time>2017-12-17T10:25:42.999Z</time>
      </trkpt>
      <trkpt lat="47.51309" lon="6.70888">
        <ele>488.8</ele>
        <time>2017-12-17T10:25:47.999Z</time>
      </trkpt>
      <trkpt lat="47.51308" lon="6.70888">
        <ele>488.4</ele>
        <time>2017-12-17T10:25:48.999Z</time>
      </trkpt>
      <trkpt lat="47.51304" lon="6.70891">
        <ele>487.5</ele>
        <time>2017-12-17T10:25:52.999Z</time>
      </trkpt>
      <trkpt lat="47.51303" lon="6.70891">
        <ele>487.2</ele>
        <time>2017-12-17T10:25:53.999Z</time>
      </trkpt>
      <trkpt lat="47.51299" lon="6.70891">
        <ele>486.8</ele>
        <time>2017-12-17T10:25:55.999Z</time>
      </trkpt>
      <trkpt lat="47.51297" lon="6.70891">
        <ele>486.7</ele>
        <time>2017-12-17T10:25:56.999Z</time>
      </trkpt>
      <trkpt lat="47.51294" lon="6.70891">
        <ele>487.1</ele>
        <time>2017-12-17T10:26:01.999Z</time>
      </trkpt>
      <trkpt lat="47.51293" lon="6.70891">
        <ele>487.5</ele>
        <time>2017-12-17T10:26:02.999Z</time>
      </trkpt>
      <trkpt lat="47.5129" lon="6.70891">
        <ele>488.4</ele>
        <time>2017-12-17T10:26:05.999Z</time>
      </trkpt>
      <trkpt lat="47.51288" lon="6.70891">
        <ele>488.4</ele>
        <time>2017-12-17T10:26:06.999Z</time>
      </trkpt>
      <trkpt lat="47.51285" lon="6.70891">
        <ele>488.7</ele>
        <time>2017-12-17T10:26:08.999Z</time>
      </trkpt>
      <trkpt lat="47.51283" lon="6.70892">
        <ele>488.9</ele>
        <time>2017-12-17T10:26:09.999Z</time>
      </trkpt>
      <trkpt lat="47.51282" lon="6.70894">
        <ele>489.1</ele>
        <time>2017-12-17T10:26:10.999Z</time>
      </trkpt>
      <trkpt lat="47.5128" lon="6.709">
        <ele>489.3</ele>
        <time>2017-12-17T10:26:11.999Z</time>
      </trkpt>
      <trkpt lat="47.51279" lon="6.70904">
        <ele>489.5</ele>
        <time>2017-12-17T10:26:12.999Z</time>
      </trkpt>
      <trkpt lat="47.5128" lon="6.70907">
        <ele>489.8</ele>
        <time>2017-12-17T10:26:13.999Z</time>
      </trkpt>
      <trkpt lat="47.51283" lon="6.70911">
        <ele>490.4</ele>
        <time>2017-12-17T10:26:16.999Z</time>
      </trkpt>
      <trkpt lat="47.51284" lon="6.70909">
        <ele>490.4</ele>
        <time>2017-12-17T10:26:17.999Z</time>
      </trkpt>
      <trkpt lat="47.51287" lon="6.70904">
        <ele>490.4</ele>
        <time>2017-12-17T10:26:19.999Z</time>
      </trkpt>
      <trkpt lat="47.51287" lon="6.70902">
        <ele>490.4</ele>
        <time>2017-12-17T10:26:20.999Z</time>
      </trkpt>
      <trkpt lat="47.5129" lon="6.70899">
        <ele>490.7</ele>
        <time>2017-12-17T10:26:24.999Z</time>
      </trkpt>
      <trkpt lat="47.51292" lon="6.709">
        <ele>490.8</ele>
        <time>2017-12-17T10:26:25.999Z</time>
      </trkpt>
      <trkpt lat="47.51288" lon="6.70903">
        <ele>490.4</ele>
        <time>2017-12-17T10:26:34.999Z</time>
      </trkpt>
      <trkpt lat="47.51287" lon="6.70903">
        <ele>490.4</ele>
        <time>2017-12-17T10:26:35.999Z</time>
      </trkpt>
      <trkpt lat="47.5129" lon="6.70898">
        <ele>491.4</ele>
        <time>2017-12-17T10:26:49.999Z</time>
      </trkpt>
      <trkpt lat="47.5129" lon="6.70896">
        <ele>491.5</ele>
        <time>2017-12-17T10:26:50.999Z</time>
      </trkpt>
      <trkpt lat="47.51294" lon="6.70896">
        <ele>491.5</ele>
        <time>2017-12-17T10:26:53.999Z</time>
      </trkpt>
      <trkpt lat="47.51297" lon="6.70898">
        <ele>491.5</ele>
        <time>2017-12-17T10:26:54.999Z</time>
      </trkpt>
      <trkpt lat="47.51294" lon="6.70902">
        <ele>491.4</ele>
        <time>2017-12-17T10:26:57.999Z</time>
      </trkpt>
      <trkpt lat="47.51293" lon="6.70903">
        <ele>491.3</ele>
        <time>2017-12-17T10:26:58.999Z</time>
      </trkpt>
      <trkpt lat="47.51292" lon="6.70897">
        <ele>491.3</ele>
        <time>2017-12-17T10:27:04.999Z</time>
      </trkpt>
      <trkpt lat="47.51291" lon="6.70896">
        <ele>491.2</ele>
        <time>2017-12-17T10:27:05.999Z</time>
      </trkpt>
      <trkpt lat="47.51288" lon="6.70895">
        <ele>491.5</ele>
        <time>2017-12-17T10:27:20.999Z</time>
      </trkpt>
      <trkpt lat="47.51287" lon="6.70893">
        <ele>491.5</ele>
        <time>2017-12-17T10:27:21.999Z</time>
      </trkpt>
      <trkpt lat="47.51287" lon="6.70899">
        <ele>493.3</ele>
        <time>2017-12-17T10:27:28.999Z</time>
      </trkpt>
      <trkpt lat="47.51288" lon="6.709">
        <ele>493.6</ele>
        <time>2017-12-17T10:27:29.999Z</time>
      </trkpt>
      <trkpt lat="47.5129" lon="6.70904">
        <ele>496</ele>
        <time>2017-12-17T10:28:42.999Z</time>
      </trkpt>
      <trkpt lat="47.51291" lon="6.70905">
        <ele>495.7</ele>
        <time>2017-12-17T10:28:43.999Z</time>
      </trkpt>
      <trkpt lat="47.51293" lon="6.709">
        <ele>502.6</ele>
        <time>2017-12-17T10:30:22.999Z</time>
      </trkpt>
      <trkpt lat="47.51289" lon="6.70897">
        <ele>503.2</ele>
        <time>2017-12-17T10:30:23.999Z</time>
      </trkpt>
      <trkpt lat="47.51287" lon="6.70895">
        <ele>504.2</ele>
        <time>2017-12-17T10:30:25.999Z</time>
      </trkpt>
      <trkpt lat="47.51285" lon="6.70894">
        <ele>504.5</ele>
        <time>2017-12-17T10:30:26.999Z</time>
      </trkpt>
      <trkpt lat="47.51282" lon="6.70895">
        <ele>504.7</ele>
        <time>2017-12-17T10:30:27.999Z</time>
      </trkpt>
      <trkpt lat="47.5128" lon="6.70897">
        <ele>504.9</ele>
        <time>2017-12-17T10:30:28.999Z</time>
      </trkpt>
      <trkpt lat="47.51278" lon="6.709">
        <ele>505</ele>
        <time>2017-12-17T10:30:29.999Z</time>
      </trkpt>
      <trkpt lat="47.51276" lon="6.70903">
        <ele>505.1</ele>
        <time>2017-12-17T10:30:30.999Z</time>
      </trkpt>
      <trkpt lat="47.51273" lon="6.70904">
        <ele>505.4</ele>
        <time>2017-12-17T10:30:33.999Z</time>
      </trkpt>
      <trkpt lat="47.51271" lon="6.70905">
        <ele>505.4</ele>
        <time>2017-12-17T10:30:34.999Z</time>
      </trkpt>
      <trkpt lat="47.51268" lon="6.70909">
        <ele>505.7</ele>
        <time>2017-12-17T10:30:38.999Z</time>
      </trkpt>
      <trkpt lat="47.51267" lon="6.7091">
        <ele>505.8</ele>
        <time>2017-12-17T10:30:39.999Z</time>
      </trkpt>
      <trkpt lat="47.51266" lon="6.70914">
        <ele>505.8</ele>
        <time>2017-12-17T10:30:45.999Z</time>
      </trkpt>
      <trkpt lat="47.51266" lon="6.70918">
        <ele>505.7</ele>
        <time>2017-12-17T10:30:46.999Z</time>
      </trkpt>
      <trkpt lat="47.51266" lon="6.70922">
        <ele>505.6</ele>
        <time>2017-12-17T10:30:47.999Z</time>
      </trkpt>
      <trkpt lat="47.51265" lon="6.70933">
        <ele>505.4</ele>
        <time>2017-12-17T10:30:48.999Z</time>
      </trkpt>
      <trkpt lat="47.51265" lon="6.70937">
        <ele>505.1</ele>
        <time>2017-12-17T10:30:49.999Z</time>
      </trkpt>
      <trkpt lat="47.51266" lon="6.70941">
        <ele>505.1</ele>
        <time>2017-12-17T10:30:50.999Z</time>
      </trkpt>
      <trkpt lat="47.51267" lon="6.70944">
        <ele>505.1</ele>
        <time>2017-12-17T10:30:51.999Z</time>
      </trkpt>
      <trkpt lat="47.51268" lon="6.70947">
        <ele>505</ele>
        <time>2017-12-17T10:30:52.999Z</time>
      </trkpt>
      <trkpt lat="47.5127" lon="6.70949">
        <ele>504.8</ele>
        <time>2017-12-17T10:30:53.999Z</time>
      </trkpt>
      <trkpt lat="47.51271" lon="6.70952">
        <ele>504.7</ele>
        <time>2017-12-17T10:30:54.999Z</time>
      </trkpt>
      <trkpt lat="47.51272" lon="6.70956">
        <ele>504.6</ele>
        <time>2017-12-17T10:30:55.999Z</time>
      </trkpt>
      <trkpt lat="47.51272" lon="6.7096">
        <ele>504.5</ele>
        <time>2017-12-17T10:30:56.999Z</time>
      </trkpt>
      <trkpt lat="47.51272" lon="6.70964">
        <ele>504.5</ele>
        <time>2017-12-17T10:30:57.999Z</time>
      </trkpt>
      <trkpt lat="47.51272" lon="6.70967">
        <ele>504.4</ele>
        <time>2017-12-17T10:30:58.999Z</time>
      </trkpt>
      <trkpt lat="47.51272" lon="6.70971">
        <ele>504.4</ele>
        <time>2017-12-17T10:30:59.999Z</time>
      </trkpt>
      <trkpt lat="47.51272" lon="6.70974">
        <ele>504.1</ele>
        <time>2017-12-17T10:31:00.999Z</time>
      </trkpt>
      <trkpt lat="47.51271" lon="6.70978">
        <ele>504</ele>
        <time>2017-12-17T10:31:01.999Z</time>
      </trkpt>
      <trkpt lat="47.51271" lon="6.70982">
        <ele>503.8</ele>
        <time>2017-12-17T10:31:02.999Z</time>
      </trkpt>
      <trkpt lat="47.51271" lon="6.70986">
        <ele>503.7</ele>
        <time>2017-12-17T10:31:03.999Z</time>
      </trkpt>
      <trkpt lat="47.51272" lon="6.70991">
        <ele>503.5</ele>
        <time>2017-12-17T10:31:04.999Z</time>
      </trkpt>
      <trkpt lat="47.51272" lon="6.70994">
        <ele>503.4</ele>
        <time>2017-12-17T10:31:05.999Z</time>
      </trkpt>
      <trkpt lat="47.51273" lon="6.71">
        <ele>503.3</ele>
        <time>2017-12-17T10:31:06.999Z</time>
      </trkpt>
      <trkpt lat="47.51273" lon="6.71004">
        <ele>503.3</ele>
        <time>2017-12-17T10:31:07.999Z</time>
      </trkpt>
      <trkpt lat="47.51273" lon="6.71009">
        <ele>503.2</ele>
        <time>2017-12-17T10:31:08.999Z</time>
      </trkpt>
      <trkpt lat="47.51273" lon="6.71016">
        <ele>503.3</ele>
        <time>2017-12-17T10:31:09.999Z</time>
      </trkpt>
      <trkpt lat="47.51271" lon="6.71022">
        <ele>503.3</ele>
        <time>2017-12-17T10:31:10.999Z</time>
      </trkpt>
      <trkpt lat="47.5127" lon="6.71027">
        <ele>503.3</ele>
        <time>2017-12-17T10:31:12.999Z</time>
      </trkpt>
      <trkpt lat="47.5127" lon="6.7103">
        <ele>503.2</ele>
        <time>2017-12-17T10:31:13.999Z</time>
      </trkpt>
      <trkpt lat="47.5127" lon="6.71035">
        <ele>503.1</ele>
        <time>2017-12-17T10:31:14.999Z</time>
      </trkpt>
      <trkpt lat="47.51271" lon="6.7104">
        <ele>503</ele>
        <time>2017-12-17T10:31:15.999Z</time>
      </trkpt>
      <trkpt lat="47.51271" lon="6.71046">
        <ele>503</ele>
        <time>2017-12-17T10:31:16.999Z</time>
      </trkpt>
      <trkpt lat="47.51271" lon="6.7105">
        <ele>503</ele>
        <time>2017-12-17T10:31:17.999Z</time>
      </trkpt>
      <trkpt lat="47.51272" lon="6.71058">
        <ele>502.9</ele>
        <time>2017-12-17T10:31:18.999Z</time>
      </trkpt>
      <trkpt lat="47.51272" lon="6.71063">
        <ele>502.8</ele>
        <time>2017-12-17T10:31:19.999Z</time>
      </trkpt>
      <trkpt lat="47.51272" lon="6.71068">
        <ele>502.6</ele>
        <time>2017-12-17T10:31:20.999Z</time>
      </trkpt>
      <trkpt lat="47.5127" lon="6.71073">
        <ele>502.4</ele>
        <time>2017-12-17T10:31:21.999Z</time>
      </trkpt>
      <trkpt lat="47.51268" lon="6.71081">
        <ele>502.2</ele>
        <time>2017-12-17T10:31:22.999Z</time>
      </trkpt>
      <trkpt lat="47.51266" lon="6.71087">
        <ele>502.1</ele>
        <time>2017-12-17T10:31:23.999Z</time>
      </trkpt>
      <trkpt lat="47.51266" lon="6.71093">
        <ele>502</ele>
        <time>2017-12-17T10:31:24.999Z</time>
      </trkpt>
      <trkpt lat="47.51266" lon="6.71097">
        <ele>501.9</ele>
        <time>2017-12-17T10:31:25.999Z</time>
      </trkpt>
      <trkpt lat="47.51265" lon="6.71103">
        <ele>501.8</ele>
        <time>2017-12-17T10:31:26.999Z</time>
      </trkpt>
      <trkpt lat="47.51266" lon="6.71107">
        <ele>501.6</ele>
        <time>2017-12-17T10:31:27.999Z</time>
      </trkpt>
      <trkpt lat="47.51266" lon="6.71112">
        <ele>501.5</ele>
        <time>2017-12-17T10:31:28.999Z</time>
      </trkpt>
      <trkpt lat="47.51265" lon="6.71119">
        <ele>501.3</ele>
        <time>2017-12-17T10:31:29.999Z</time>
      </trkpt>
      <trkpt lat="47.51264" lon="6.71126">
        <ele>501</ele>
        <time>2017-12-17T10:31:30.999Z</time>
      </trkpt>
      <trkpt lat="47.51263" lon="6.71132">
        <ele>500.8</ele>
        <time>2017-12-17T10:31:31.999Z</time>
      </trkpt>
      <trkpt lat="47.51262" lon="6.71138">
        <ele>500.6</ele>
        <time>2017-12-17T10:31:32.999Z</time>
      </trkpt>
      <trkpt lat="47.51261" lon="6.71143">
        <ele>500.4</ele>
        <time>2017-12-17T10:31:33.999Z</time>
      </trkpt>
      <trkpt lat="47.5126" lon="6.71148">
        <ele>500</ele>
        <time>2017-12-17T10:31:34.999Z</time>
      </trkpt>
      <trkpt lat="47.51259" lon="6.71154">
        <ele>499.7</ele>
        <time>2017-12-17T10:31:35.999Z</time>
      </trkpt>
      <trkpt lat="47.51259" lon="6.71159">
        <ele>499.5</ele>
        <time>2017-12-17T10:31:36.999Z</time>
      </trkpt>
      <trkpt lat="47.51259" lon="6.71162">
        <ele>499.2</ele>
        <time>2017-12-17T10:31:37.999Z</time>
      </trkpt>
      <trkpt lat="47.51259" lon="6.71166">
        <ele>498.8</ele>
        <time>2017-12-17T10:31:38.999Z</time>
      </trkpt>
      <trkpt lat="47.5126" lon="6.71172">
        <ele>498.4</ele>
        <time>2017-12-17T10:31:39.999Z</time>
      </trkpt>
      <trkpt lat="47.51259" lon="6.71178">
        <ele>498</ele>
        <time>2017-12-17T10:31:40.999Z</time>
      </trkpt>
      <trkpt lat="47.51259" lon="6.71185">
        <ele>497.7</ele>
        <time>2017-12-17T10:31:41.999Z</time>
      </trkpt>
      <trkpt lat="47.51258" lon="6.71194">
        <ele>497.4</ele>
        <time>2017-12-17T10:31:42.999Z</time>
      </trkpt>
      <trkpt lat="47.51257" lon="6.71201">
        <ele>497.2</ele>
        <time>2017-12-17T10:31:43.999Z</time>
      </trkpt>
      <trkpt lat="47.51255" lon="6.71208">
        <ele>497</ele>
        <time>2017-12-17T10:31:44.999Z</time>
      </trkpt>
      <trkpt lat="47.51254" lon="6.71216">
        <ele>496.8</ele>
        <time>2017-12-17T10:31:45.999Z</time>
      </trkpt>
      <trkpt lat="47.51252" lon="6.71231">
        <ele>496.7</ele>
        <time>2017-12-17T10:31:46.999Z</time>
      </trkpt>
      <trkpt lat="47.51253" lon="6.71236">
        <ele>496.5</ele>
        <time>2017-12-17T10:31:47.999Z</time>
      </trkpt>
      <trkpt lat="47.51253" lon="6.71241">
        <ele>496.4</ele>
        <time>2017-12-17T10:31:48.999Z</time>
      </trkpt>
      <trkpt lat="47.51254" lon="6.71245">
        <ele>496.5</ele>
        <time>2017-12-17T10:31:49.999Z</time>
      </trkpt>
      <trkpt lat="47.51254" lon="6.7125">
        <ele>496.5</ele>
        <time>2017-12-17T10:31:50.999Z</time>
      </trkpt>
      <trkpt lat="47.51253" lon="6.71255">
        <ele>496.5</ele>
        <time>2017-12-17T10:31:51.999Z</time>
      </trkpt>
      <trkpt lat="47.5125" lon="6.71261">
        <ele>496.5</ele>
        <time>2017-12-17T10:31:52.999Z</time>
      </trkpt>
      <trkpt lat="47.51249" lon="6.71268">
        <ele>496.4</ele>
        <time>2017-12-17T10:31:53.999Z</time>
      </trkpt>
      <trkpt lat="47.51246" lon="6.71275">
        <ele>496.3</ele>
        <time>2017-12-17T10:31:54.999Z</time>
      </trkpt>
      <trkpt lat="47.51244" lon="6.71284">
        <ele>496.1</ele>
        <time>2017-12-17T10:31:55.999Z</time>
      </trkpt>
      <trkpt lat="47.51244" lon="6.7129">
        <ele>496.1</ele>
        <time>2017-12-17T10:31:56.999Z</time>
      </trkpt>
      <trkpt lat="47.51244" lon="6.71297">
        <ele>496</ele>
        <time>2017-12-17T10:31:57.999Z</time>
      </trkpt>
      <trkpt lat="47.51244" lon="6.71303">
        <ele>495.9</ele>
        <time>2017-12-17T10:31:58.999Z</time>
      </trkpt>
      <trkpt lat="47.51244" lon="6.71309">
        <ele>496</ele>
        <time>2017-12-17T10:31:59.999Z</time>
      </trkpt>
      <trkpt lat="47.51243" lon="6.71316">
        <ele>496</ele>
        <time>2017-12-17T10:32:00.999Z</time>
      </trkpt>
      <trkpt lat="47.51244" lon="6.71322">
        <ele>496</ele>
        <time>2017-12-17T10:32:01.999Z</time>
      </trkpt>
      <trkpt lat="47.51244" lon="6.71328">
        <ele>496</ele>
        <time>2017-12-17T10:32:02.999Z</time>
      </trkpt>
      <trkpt lat="47.51243" lon="6.71334">
        <ele>495.9</ele>
        <time>2017-12-17T10:32:03.999Z</time>
      </trkpt>
      <trkpt lat="47.51242" lon="6.71341">
        <ele>495.8</ele>
        <time>2017-12-17T10:32:04.999Z</time>
      </trkpt>
      <trkpt lat="47.51242" lon="6.71347">
        <ele>495.6</ele>
        <time>2017-12-17T10:32:05.999Z</time>
      </trkpt>
      <trkpt lat="47.51241" lon="6.71353">
        <ele>495.3</ele>
        <time>2017-12-17T10:32:06.999Z</time>
      </trkpt>
      <trkpt lat="47.51242" lon="6.7136">
        <ele>494.9</ele>
        <time>2017-12-17T10:32:07.999Z</time>
      </trkpt>
      <trkpt lat="47.51242" lon="6.71366">
        <ele>494.6</ele>
        <time>2017-12-17T10:32:08.999Z</time>
      </trkpt>
      <trkpt lat="47.51242" lon="6.71373">
        <ele>494.2</ele>
        <time>2017-12-17T10:32:09.999Z</time>
      </trkpt>
      <trkpt lat="47.51242" lon="6.71379">
        <ele>494</ele>
        <time>2017-12-17T10:32:10.999Z</time>
      </trkpt>
      <trkpt lat="47.51242" lon="6.71383">
        <ele>493.7</ele>
        <time>2017-12-17T10:32:11.999Z</time>
      </trkpt>
      <trkpt lat="47.51243" lon="6.71387">
        <ele>493.4</ele>
        <time>2017-12-17T10:32:12.999Z</time>
      </trkpt>
      <trkpt lat="47.51244" lon="6.71391">
        <ele>493.3</ele>
        <time>2017-12-17T10:32:13.999Z</time>
      </trkpt>
      <trkpt lat="47.51244" lon="6.71398">
        <ele>493.2</ele>
        <time>2017-12-17T10:32:14.999Z</time>
      </trkpt>
      <trkpt lat="47.51243" lon="6.71405">
        <ele>493.2</ele>
        <time>2017-12-17T10:32:15.999Z</time>
      </trkpt>
      <trkpt lat="47.51243" lon="6.71414">
        <ele>493.3</ele>
        <time>2017-12-17T10:32:16.999Z</time>
      </trkpt>
      <trkpt lat="47.51243" lon="6.71421">
        <ele>493.4</ele>
        <time>2017-12-17T10:32:17.999Z</time>
      </trkpt>
      <trkpt lat="47.51243" lon="6.71428">
        <ele>493.5</ele>
        <time>2017-12-17T10:32:18.999Z</time>
      </trkpt>
      <trkpt lat="47.51242" lon="6.71433">
        <ele>493.7</ele>
        <time>2017-12-17T10:32:19.999Z</time>
      </trkpt>
      <trkpt lat="47.51242" lon="6.71439">
        <ele>493.7</ele>
        <time>2017-12-17T10:32:20.999Z</time>
      </trkpt>
      <trkpt lat="47.5124" lon="6.71445">
        <ele>493.8</ele>
        <time>2017-12-17T10:32:21.999Z</time>
      </trkpt>
      <trkpt lat="47.51238" lon="6.71451">
        <ele>493.8</ele>
        <time>2017-12-17T10:32:22.999Z</time>
      </trkpt>
      <trkpt lat="47.51236" lon="6.71457">
        <ele>493.9</ele>
        <time>2017-12-17T10:32:23.999Z</time>
      </trkpt>
      <trkpt lat="47.51236" lon="6.71461">
        <ele>494.1</ele>
        <time>2017-12-17T10:32:24.999Z</time>
      </trkpt>
      <trkpt lat="47.51234" lon="6.71467">
        <ele>494.2</ele>
        <time>2017-12-17T10:32:25.999Z</time>
      </trkpt>
      <trkpt lat="47.51233" lon="6.71472">
        <ele>494.4</ele>
        <time>2017-12-17T10:32:26.999Z</time>
      </trkpt>
      <trkpt lat="47.51232" lon="6.71478">
        <ele>494.7</ele>
        <time>2017-12-17T10:32:27.999Z</time>
      </trkpt>
      <trkpt lat="47.51232" lon="6.71482">
        <ele>494.9</ele>
        <time>2017-12-17T10:32:28.999Z</time>
      </trkpt>
      <trkpt lat="47.51232" lon="6.71491">
        <ele>495</ele>
        <time>2017-12-17T10:32:29.999Z</time>
      </trkpt>
      <trkpt lat="47.51232" lon="6.71494">
        <ele>495.1</ele>
        <time>2017-12-17T10:32:30.999Z</time>
      </trkpt>
      <trkpt lat="47.51232" lon="6.71498">
        <ele>495.3</ele>
        <time>2017-12-17T10:32:31.999Z</time>
      </trkpt>
      <trkpt lat="47.51231" lon="6.71504">
        <ele>495.6</ele>
        <time>2017-12-17T10:32:32.999Z</time>
      </trkpt>
      <trkpt lat="47.51231" lon="6.7151">
        <ele>495.7</ele>
        <time>2017-12-17T10:32:33.999Z</time>
      </trkpt>
      <trkpt lat="47.51232" lon="6.71515">
        <ele>495.9</ele>
        <time>2017-12-17T10:32:34.999Z</time>
      </trkpt>
      <trkpt lat="47.51233" lon="6.71519">
        <ele>496.2</ele>
        <time>2017-12-17T10:32:35.999Z</time>
      </trkpt>
      <trkpt lat="47.51233" lon="6.71522">
        <ele>496.5</ele>
        <time>2017-12-17T10:32:36.999Z</time>
      </trkpt>
      <trkpt lat="47.51233" lon="6.71527">
        <ele>496.7</ele>
        <time>2017-12-17T10:32:37.999Z</time>
      </trkpt>
      <trkpt lat="47.51233" lon="6.71531">
        <ele>496.8</ele>
        <time>2017-12-17T10:32:38.999Z</time>
      </trkpt>
      <trkpt lat="47.51232" lon="6.71534">
        <ele>496.9</ele>
        <time>2017-12-17T10:32:39.999Z</time>
      </trkpt>
      <trkpt lat="47.51231" lon="6.71538">
        <ele>496.8</ele>
        <time>2017-12-17T10:32:40.999Z</time>
      </trkpt>
      <trkpt lat="47.51228" lon="6.71543">
        <ele>496.9</ele>
        <time>2017-12-17T10:32:41.999Z</time>
      </trkpt>
      <trkpt lat="47.51224" lon="6.71549">
        <ele>497</ele>
        <time>2017-12-17T10:32:42.999Z</time>
      </trkpt>
      <trkpt lat="47.51222" lon="6.71554">
        <ele>497.2</ele>
        <time>2017-12-17T10:32:43.999Z</time>
      </trkpt>
      <trkpt lat="47.51219" lon="6.71558">
        <ele>497.3</ele>
        <time>2017-12-17T10:32:44.999Z</time>
      </trkpt>
      <trkpt lat="47.51218" lon="6.71563">
        <ele>497.5</ele>
        <time>2017-12-17T10:32:45.999Z</time>
      </trkpt>
      <trkpt lat="47.51216" lon="6.71566">
        <ele>497.6</ele>
        <time>2017-12-17T10:32:46.999Z</time>
      </trkpt>
      <trkpt lat="47.51215" lon="6.71571">
        <ele>497.6</ele>
        <time>2017-12-17T10:32:47.999Z</time>
      </trkpt>
      <trkpt lat="47.51215" lon="6.71575">
        <ele>497.6</ele>
        <time>2017-12-17T10:32:48.999Z</time>
      </trkpt>
      <trkpt lat="47.51215" lon="6.7158">
        <ele>497.7</ele>
        <time>2017-12-17T10:32:49.999Z</time>
      </trkpt>
      <trkpt lat="47.51215" lon="6.71585">
        <ele>497.7</ele>
        <time>2017-12-17T10:32:50.999Z</time>
      </trkpt>
      <trkpt lat="47.51214" lon="6.7159">
        <ele>497.7</ele>
        <time>2017-12-17T10:32:51.999Z</time>
      </trkpt>
      <trkpt lat="47.51213" lon="6.71595">
        <ele>497.7</ele>
        <time>2017-12-17T10:32:52.999Z</time>
      </trkpt>
      <trkpt lat="47.51214" lon="6.71599">
        <ele>497.6</ele>
        <time>2017-12-17T10:32:53.999Z</time>
      </trkpt>
      <trkpt lat="47.51213" lon="6.71604">
        <ele>497.6</ele>
        <time>2017-12-17T10:32:54.999Z</time>
      </trkpt>
      <trkpt lat="47.51214" lon="6.71608">
        <ele>497.5</ele>
        <time>2017-12-17T10:32:55.999Z</time>
      </trkpt>
      <trkpt lat="47.51214" lon="6.71612">
        <ele>497.5</ele>
        <time>2017-12-17T10:32:56.999Z</time>
      </trkpt>
      <trkpt lat="47.51214" lon="6.71618">
        <ele>497.5</ele>
        <time>2017-12-17T10:32:57.999Z</time>
      </trkpt>
      <trkpt lat="47.51213" lon="6.71623">
        <ele>497.5</ele>
        <time>2017-12-17T10:32:58.999Z</time>
      </trkpt>
      <trkpt lat="47.51213" lon="6.71627">
        <ele>497.4</ele>
        <time>2017-12-17T10:32:59.999Z</time>
      </trkpt>
      <trkpt lat="47.51213" lon="6.71633">
        <ele>497.2</ele>
        <time>2017-12-17T10:33:00.999Z</time>
      </trkpt>
      <trkpt lat="47.51216" lon="6.71638">
        <ele>497.1</ele>
        <time>2017-12-17T10:33:01.999Z</time>
      </trkpt>
      <trkpt lat="47.51217" lon="6.71643">
        <ele>496.9</ele>
        <time>2017-12-17T10:33:02.999Z</time>
      </trkpt>
      <trkpt lat="47.51218" lon="6.71647">
        <ele>496.8</ele>
        <time>2017-12-17T10:33:03.999Z</time>
      </trkpt>
      <trkpt lat="47.51218" lon="6.71651">
        <ele>496.5</ele>
        <time>2017-12-17T10:33:04.999Z</time>
      </trkpt>
      <trkpt lat="47.51215" lon="6.71655">
        <ele>496.4</ele>
        <time>2017-12-17T10:33:05.999Z</time>
      </trkpt>
      <trkpt lat="47.51213" lon="6.7166">
        <ele>496.4</ele>
        <time>2017-12-17T10:33:06.999Z</time>
      </trkpt>
      <trkpt lat="47.51213" lon="6.71665">
        <ele>496.5</ele>
        <time>2017-12-17T10:33:07.999Z</time>
      </trkpt>
      <trkpt lat="47.51212" lon="6.7167">
        <ele>496.7</ele>
        <time>2017-12-17T10:33:08.999Z</time>
      </trkpt>
      <trkpt lat="47.51212" lon="6.71674">
        <ele>496.8</ele>
        <time>2017-12-17T10:33:09.999Z</time>
      </trkpt>
      <trkpt lat="47.51213" lon="6.71679">
        <ele>496.9</ele>
        <time>2017-12-17T10:33:10.999Z</time>
      </trkpt>
      <trkpt lat="47.51213" lon="6.71683">
        <ele>497.1</ele>
        <time>2017-12-17T10:33:11.999Z</time>
      </trkpt>
      <trkpt lat="47.51213" lon="6.71688">
        <ele>497.3</ele>
        <time>2017-12-17T10:33:12.999Z</time>
      </trkpt>
      <trkpt lat="47.51211" lon="6.71693">
        <ele>497.5</ele>
        <time>2017-12-17T10:33:13.999Z</time>
      </trkpt>
      <trkpt lat="47.5121" lon="6.71698">
        <ele>497.5</ele>
        <time>2017-12-17T10:33:14.999Z</time>
      </trkpt>
      <trkpt lat="47.51209" lon="6.71703">
        <ele>497.5</ele>
        <time>2017-12-17T10:33:15.999Z</time>
      </trkpt>
      <trkpt lat="47.51207" lon="6.71708">
        <ele>497.3</ele>
        <time>2017-12-17T10:33:16.999Z</time>
      </trkpt>
      <trkpt lat="47.51207" lon="6.71714">
        <ele>497.1</ele>
        <time>2017-12-17T10:33:17.999Z</time>
      </trkpt>
      <trkpt lat="47.51207" lon="6.71719">
        <ele>496.8</ele>
        <time>2017-12-17T10:33:18.999Z</time>
      </trkpt>
      <trkpt lat="47.51208" lon="6.71721">
        <ele>496.5</ele>
        <time>2017-12-17T10:33:20.999Z</time>
      </trkpt>
      <trkpt lat="47.5121" lon="6.71724">
        <ele>496.3</ele>
        <time>2017-12-17T10:33:21.999Z</time>
      </trkpt>
      <trkpt lat="47.51209" lon="6.71728">
        <ele>496.1</ele>
        <time>2017-12-17T10:33:22.999Z</time>
      </trkpt>
      <trkpt lat="47.51208" lon="6.71732">
        <ele>495.9</ele>
        <time>2017-12-17T10:33:23.999Z</time>
      </trkpt>
      <trkpt lat="47.51208" lon="6.71736">
        <ele>495.7</ele>
        <time>2017-12-17T10:33:24.999Z</time>
      </trkpt>
      <trkpt lat="47.51208" lon="6.71741">
        <ele>495.5</ele>
        <time>2017-12-17T10:33:25.999Z</time>
      </trkpt>
      <trkpt lat="47.51208" lon="6.71747">
        <ele>495.3</ele>
        <time>2017-12-17T10:33:26.999Z</time>
      </trkpt>
      <trkpt lat="47.51209" lon="6.71753">
        <ele>495.1</ele>
        <time>2017-12-17T10:33:27.999Z</time>
      </trkpt>
      <trkpt lat="47.5121" lon="6.7176">
        <ele>495.1</ele>
        <time>2017-12-17T10:33:28.999Z</time>
      </trkpt>
      <trkpt lat="47.5121" lon="6.71766">
        <ele>494.9</ele>
        <time>2017-12-17T10:33:29.999Z</time>
      </trkpt>
      <trkpt lat="47.51211" lon="6.7177">
        <ele>494.7</ele>
        <time>2017-12-17T10:33:30.999Z</time>
      </trkpt>
      <trkpt lat="47.51212" lon="6.71775">
        <ele>494.6</ele>
        <time>2017-12-17T10:33:31.999Z</time>
      </trkpt>
      <trkpt lat="47.51212" lon="6.71779">
        <ele>494.6</ele>
        <time>2017-12-17T10:33:32.999Z</time>
      </trkpt>
      <trkpt lat="47.51212" lon="6.71785">
        <ele>494.5</ele>
        <time>2017-12-17T10:33:34.999Z</time>
      </trkpt>
      <trkpt lat="47.51211" lon="6.71792">
        <ele>494.5</ele>
        <time>2017-12-17T10:33:35.999Z</time>
      </trkpt>
      <trkpt lat="47.51211" lon="6.71796">
        <ele>494.5</ele>
        <time>2017-12-17T10:33:37.999Z</time>
      </trkpt>
      <trkpt lat="47.51211" lon="6.71799">
        <ele>494.4</ele>
        <time>2017-12-17T10:33:38.999Z</time>
      </trkpt>
      <trkpt lat="47.51211" lon="6.71804">
        <ele>494.4</ele>
        <time>2017-12-17T10:33:39.999Z</time>
      </trkpt>
      <trkpt lat="47.51212" lon="6.71809">
        <ele>494.2</ele>
        <time>2017-12-17T10:33:40.999Z</time>
      </trkpt>
      <trkpt lat="47.51213" lon="6.71812">
        <ele>494</ele>
        <time>2017-12-17T10:33:41.999Z</time>
      </trkpt>
      <trkpt lat="47.51214" lon="6.71815">
        <ele>493.8</ele>
        <time>2017-12-17T10:33:42.999Z</time>
      </trkpt>
      <trkpt lat="47.51215" lon="6.71817">
        <ele>493.5</ele>
        <time>2017-12-17T10:33:43.999Z</time>
      </trkpt>
      <trkpt lat="47.51216" lon="6.71822">
        <ele>493.4</ele>
        <time>2017-12-17T10:33:44.999Z</time>
      </trkpt>
      <trkpt lat="47.51218" lon="6.71825">
        <ele>493.2</ele>
        <time>2017-12-17T10:33:45.999Z</time>
      </trkpt>
      <trkpt lat="47.51219" lon="6.71829">
        <ele>493</ele>
        <time>2017-12-17T10:33:46.999Z</time>
      </trkpt>
      <trkpt lat="47.51222" lon="6.71839">
        <ele>492.7</ele>
        <time>2017-12-17T10:33:47.999Z</time>
      </trkpt>
      <trkpt lat="47.51221" lon="6.71845">
        <ele>492.5</ele>
        <time>2017-12-17T10:33:48.999Z</time>
      </trkpt>
      <trkpt lat="47.51221" lon="6.71852">
        <ele>492.1</ele>
        <time>2017-12-17T10:33:49.999Z</time>
      </trkpt>
      <trkpt lat="47.51222" lon="6.71859">
        <ele>492</ele>
        <time>2017-12-17T10:33:50.999Z</time>
      </trkpt>
      <trkpt lat="47.51222" lon="6.71867">
        <ele>491.8</ele>
        <time>2017-12-17T10:33:51.999Z</time>
      </trkpt>
      <trkpt lat="47.51224" lon="6.71872">
        <ele>491.7</ele>
        <time>2017-12-17T10:33:52.999Z</time>
      </trkpt>
      <trkpt lat="47.51226" lon="6.71877">
        <ele>491.6</ele>
        <time>2017-12-17T10:33:53.999Z</time>
      </trkpt>
      <trkpt lat="47.51227" lon="6.71887">
        <ele>491.4</ele>
        <time>2017-12-17T10:33:54.999Z</time>
      </trkpt>
      <trkpt lat="47.51227" lon="6.71893">
        <ele>491.4</ele>
        <time>2017-12-17T10:33:55.999Z</time>
      </trkpt>
      <trkpt lat="47.51228" lon="6.719">
        <ele>491.4</ele>
        <time>2017-12-17T10:33:56.999Z</time>
      </trkpt>
      <trkpt lat="47.51229" lon="6.71906">
        <ele>491.4</ele>
        <time>2017-12-17T10:33:57.999Z</time>
      </trkpt>
      <trkpt lat="47.5123" lon="6.71912">
        <ele>491.4</ele>
        <time>2017-12-17T10:33:58.999Z</time>
      </trkpt>
      <trkpt lat="47.51232" lon="6.71919">
        <ele>491.4</ele>
        <time>2017-12-17T10:33:59.999Z</time>
      </trkpt>
      <trkpt lat="47.51232" lon="6.71925">
        <ele>491.5</ele>
        <time>2017-12-17T10:34:00.999Z</time>
      </trkpt>
      <trkpt lat="47.51233" lon="6.71932">
        <ele>491.6</ele>
        <time>2017-12-17T10:34:01.999Z</time>
      </trkpt>
      <trkpt lat="47.51234" lon="6.71938">
        <ele>491.6</ele>
        <time>2017-12-17T10:34:02.999Z</time>
      </trkpt>
      <trkpt lat="47.51235" lon="6.71945">
        <ele>491.6</ele>
        <time>2017-12-17T10:34:03.999Z</time>
      </trkpt>
      <trkpt lat="47.51238" lon="6.71959">
        <ele>491.5</ele>
        <time>2017-12-17T10:34:04.999Z</time>
      </trkpt>
      <trkpt lat="47.51239" lon="6.71967">
        <ele>491.4</ele>
        <time>2017-12-17T10:34:05.999Z</time>
      </trkpt>
      <trkpt lat="47.5124" lon="6.71974">
        <ele>491.3</ele>
        <time>2017-12-17T10:34:06.999Z</time>
      </trkpt>
      <trkpt lat="47.5124" lon="6.71981">
        <ele>491.1</ele>
        <time>2017-12-17T10:34:07.999Z</time>
      </trkpt>
      <trkpt lat="47.5124" lon="6.71995">
        <ele>491</ele>
        <time>2017-12-17T10:34:08.999Z</time>
      </trkpt>
      <trkpt lat="47.51238" lon="6.72002">
        <ele>490.8</ele>
        <time>2017-12-17T10:34:09.999Z</time>
      </trkpt>
      <trkpt lat="47.51238" lon="6.72008">
        <ele>490.7</ele>
        <time>2017-12-17T10:34:10.999Z</time>
      </trkpt>
      <trkpt lat="47.51237" lon="6.72014">
        <ele>490.5</ele>
        <time>2017-12-17T10:34:11.999Z</time>
      </trkpt>
      <trkpt lat="47.51237" lon="6.72021">
        <ele>490.4</ele>
        <time>2017-12-17T10:34:12.999Z</time>
      </trkpt>
      <trkpt lat="47.51235" lon="6.72028">
        <ele>490.4</ele>
        <time>2017-12-17T10:34:13.999Z</time>
      </trkpt>
      <trkpt lat="47.51237" lon="6.72036">
        <ele>490.4</ele>
        <time>2017-12-17T10:34:14.999Z</time>
      </trkpt>
      <trkpt lat="47.51239" lon="6.72039">
        <ele>490.3</ele>
        <time>2017-12-17T10:34:15.999Z</time>
      </trkpt>
      <trkpt lat="47.51239" lon="6.72046">
        <ele>490.4</ele>
        <time>2017-12-17T10:34:16.999Z</time>
      </trkpt>
      <trkpt lat="47.51238" lon="6.72053">
        <ele>490.4</ele>
        <time>2017-12-17T10:34:17.999Z</time>
      </trkpt>
      <trkpt lat="47.51239" lon="6.72057">
        <ele>490.4</ele>
        <time>2017-12-17T10:34:18.999Z</time>
      </trkpt>
      <trkpt lat="47.51242" lon="6.72061">
        <ele>490.4</ele>
        <time>2017-12-17T10:34:19.999Z</time>
      </trkpt>
      <trkpt lat="47.51247" lon="6.72065">
        <ele>490.3</ele>
        <time>2017-12-17T10:34:20.999Z</time>
      </trkpt>
      <trkpt lat="47.51249" lon="6.72068">
        <ele>490.3</ele>
        <time>2017-12-17T10:34:21.999Z</time>
      </trkpt>
      <trkpt lat="47.51249" lon="6.72074">
        <ele>490.2</ele>
        <time>2017-12-17T10:34:22.999Z</time>
      </trkpt>
      <trkpt lat="47.51249" lon="6.72081">
        <ele>490</ele>
        <time>2017-12-17T10:34:23.999Z</time>
      </trkpt>
      <trkpt lat="47.51248" lon="6.7209">
        <ele>489.8</ele>
        <time>2017-12-17T10:34:24.999Z</time>
      </trkpt>
      <trkpt lat="47.51247" lon="6.721">
        <ele>489.6</ele>
        <time>2017-12-17T10:34:25.999Z</time>
      </trkpt>
      <trkpt lat="47.51244" lon="6.7211">
        <ele>489.4</ele>
        <time>2017-12-17T10:34:26.999Z</time>
      </trkpt>
      <trkpt lat="47.51243" lon="6.72117">
        <ele>489.2</ele>
        <time>2017-12-17T10:34:27.999Z</time>
      </trkpt>
      <trkpt lat="47.51243" lon="6.72125">
        <ele>489.1</ele>
        <time>2017-12-17T10:34:28.999Z</time>
      </trkpt>
      <trkpt lat="47.51242" lon="6.72141">
        <ele>488.9</ele>
        <time>2017-12-17T10:34:29.999Z</time>
      </trkpt>
      <trkpt lat="47.51242" lon="6.72149">
        <ele>488.8</ele>
        <time>2017-12-17T10:34:30.999Z</time>
      </trkpt>
      <trkpt lat="47.51239" lon="6.7216">
        <ele>487.7</ele>
        <time>2017-12-17T10:34:31.999Z</time>
      </trkpt>
      <trkpt lat="47.51239" lon="6.72166">
        <ele>486</ele>
        <time>2017-12-17T10:34:32.999Z</time>
      </trkpt>
      <trkpt lat="47.51242" lon="6.72169">
        <ele>485.8</ele>
        <time>2017-12-17T10:34:33.999Z</time>
      </trkpt>
      <trkpt lat="47.51243" lon="6.72176">
        <ele>485.7</ele>
        <time>2017-12-17T10:34:34.999Z</time>
      </trkpt>
      <trkpt lat="47.5124" lon="6.72182">
        <ele>485.5</ele>
        <time>2017-12-17T10:34:35.999Z</time>
      </trkpt>
      <trkpt lat="47.51237" lon="6.72191">
        <ele>485.4</ele>
        <time>2017-12-17T10:34:36.999Z</time>
      </trkpt>
      <trkpt lat="47.51236" lon="6.72202">
        <ele>485.3</ele>
        <time>2017-12-17T10:34:37.999Z</time>
      </trkpt>
      <trkpt lat="47.51236" lon="6.72212">
        <ele>485.1</ele>
        <time>2017-12-17T10:34:38.999Z</time>
      </trkpt>
      <trkpt lat="47.51235" lon="6.7222">
        <ele>485</ele>
        <time>2017-12-17T10:34:39.999Z</time>
      </trkpt>
      <trkpt lat="47.51234" lon="6.72229">
        <ele>484.8</ele>
        <time>2017-12-17T10:34:40.999Z</time>
      </trkpt>
      <trkpt lat="47.51232" lon="6.72238">
        <ele>484.6</ele>
        <time>2017-12-17T10:34:41.999Z</time>
      </trkpt>
      <trkpt lat="47.51232" lon="6.72243">
        <ele>480.9</ele>
        <time>2017-12-17T10:34:42.999Z</time>
      </trkpt>
      <trkpt lat="47.51232" lon="6.72249">
        <ele>478.1</ele>
        <time>2017-12-17T10:34:43.999Z</time>
      </trkpt>
      <trkpt lat="47.51233" lon="6.72254">
        <ele>478</ele>
        <time>2017-12-17T10:34:44.999Z</time>
      </trkpt>
      <trkpt lat="47.51234" lon="6.72259">
        <ele>477.7</ele>
        <time>2017-12-17T10:34:45.999Z</time>
      </trkpt>
      <trkpt lat="47.51233" lon="6.72264">
        <ele>477.6</ele>
        <time>2017-12-17T10:34:46.999Z</time>
      </trkpt>
      <trkpt lat="47.51233" lon="6.72271">
        <ele>475.3</ele>
        <time>2017-12-17T10:34:47.999Z</time>
      </trkpt>
      <trkpt lat="47.51233" lon="6.72276">
        <ele>475.2</ele>
        <time>2017-12-17T10:34:48.999Z</time>
      </trkpt>
      <trkpt lat="47.51233" lon="6.72281">
        <ele>475.2</ele>
        <time>2017-12-17T10:34:49.999Z</time>
      </trkpt>
      <trkpt lat="47.51234" lon="6.72288">
        <ele>475.1</ele>
        <time>2017-12-17T10:34:50.999Z</time>
      </trkpt>
      <trkpt lat="47.51236" lon="6.72297">
        <ele>475.1</ele>
        <time>2017-12-17T10:34:51.999Z</time>
      </trkpt>
      <trkpt lat="47.51236" lon="6.72303">
        <ele>475</ele>
        <time>2017-12-17T10:34:52.999Z</time>
      </trkpt>
      <trkpt lat="47.51238" lon="6.72312">
        <ele>474.9</ele>
        <time>2017-12-17T10:34:53.999Z</time>
      </trkpt>
      <trkpt lat="47.51238" lon="6.72316">
        <ele>474.9</ele>
        <time>2017-12-17T10:34:54.999Z</time>
      </trkpt>
      <trkpt lat="47.51237" lon="6.72321">
        <ele>474.9</ele>
        <time>2017-12-17T10:34:55.999Z</time>
      </trkpt>
      <trkpt lat="47.51236" lon="6.72327">
        <ele>474.9</ele>
        <time>2017-12-17T10:34:56.999Z</time>
      </trkpt>
      <trkpt lat="47.51234" lon="6.72339">
        <ele>474.9</ele>
        <time>2017-12-17T10:34:57.999Z</time>
      </trkpt>
      <trkpt lat="47.51233" lon="6.72349">
        <ele>475</ele>
        <time>2017-12-17T10:34:58.999Z</time>
      </trkpt>
      <trkpt lat="47.51232" lon="6.72354">
        <ele>475</ele>
        <time>2017-12-17T10:34:59.999Z</time>
      </trkpt>
      <trkpt lat="47.51232" lon="6.7236">
        <ele>474.9</ele>
        <time>2017-12-17T10:35:01.000Z</time>
      </trkpt>
      <trkpt lat="47.51231" lon="6.72367">
        <ele>475</ele>
        <time>2017-12-17T10:35:01.999Z</time>
      </trkpt>
      <trkpt lat="47.51233" lon="6.72374">
        <ele>475</ele>
        <time>2017-12-17T10:35:02.999Z</time>
      </trkpt>
      <trkpt lat="47.51232" lon="6.7238">
        <ele>475</ele>
        <time>2017-12-17T10:35:04.000Z</time>
      </trkpt>
      <trkpt lat="47.51231" lon="6.72384">
        <ele>474.9</ele>
        <time>2017-12-17T10:35:05.000Z</time>
      </trkpt>
      <trkpt lat="47.5123" lon="6.7239">
        <ele>474.6</ele>
        <time>2017-12-17T10:35:06.000Z</time>
      </trkpt>
      <trkpt lat="47.51228" lon="6.72395">
        <ele>474.4</ele>
        <time>2017-12-17T10:35:07.000Z</time>
      </trkpt>
      <trkpt lat="47.51226" lon="6.72403">
        <ele>474.1</ele>
        <time>2017-12-17T10:35:08.000Z</time>
      </trkpt>
      <trkpt lat="47.51227" lon="6.72408">
        <ele>473.9</ele>
        <time>2017-12-17T10:35:09.000Z</time>
      </trkpt>
      <trkpt lat="47.51229" lon="6.72414">
        <ele>473.8</ele>
        <time>2017-12-17T10:35:10.000Z</time>
      </trkpt>
      <trkpt lat="47.5123" lon="6.72422">
        <ele>473.7</ele>
        <time>2017-12-17T10:35:11.000Z</time>
      </trkpt>
      <trkpt lat="47.5123" lon="6.72426">
        <ele>473.5</ele>
        <time>2017-12-17T10:35:12.000Z</time>
      </trkpt>
      <trkpt lat="47.51229" lon="6.72434">
        <ele>473.2</ele>
        <time>2017-12-17T10:35:13.000Z</time>
      </trkpt>
      <trkpt lat="47.51228" lon="6.72442">
        <ele>472.9</ele>
        <time>2017-12-17T10:35:14.000Z</time>
      </trkpt>
      <trkpt lat="47.51224" lon="6.72447">
        <ele>470.1</ele>
        <time>2017-12-17T10:35:15.000Z</time>
      </trkpt>
      <trkpt lat="47.5122" lon="6.72454">
        <ele>469.9</ele>
        <time>2017-12-17T10:35:16.000Z</time>
      </trkpt>
      <trkpt lat="47.51217" lon="6.72459">
        <ele>469.6</ele>
        <time>2017-12-17T10:35:17.000Z</time>
      </trkpt>
      <trkpt lat="47.51212" lon="6.72465">
        <ele>466.7</ele>
        <time>2017-12-17T10:35:18.000Z</time>
      </trkpt>
      <trkpt lat="47.51209" lon="6.72471">
        <ele>466.5</ele>
        <time>2017-12-17T10:35:19.000Z</time>
      </trkpt>
      <trkpt lat="47.51205" lon="6.72478">
        <ele>466.3</ele>
        <time>2017-12-17T10:35:20.000Z</time>
      </trkpt>
      <trkpt lat="47.51202" lon="6.72487">
        <ele>466.3</ele>
        <time>2017-12-17T10:35:21.000Z</time>
      </trkpt>
      <trkpt lat="47.51198" lon="6.72495">
        <ele>466.3</ele>
        <time>2017-12-17T10:35:22.000Z</time>
      </trkpt>
      <trkpt lat="47.51195" lon="6.72501">
        <ele>466.2</ele>
        <time>2017-12-17T10:35:23.000Z</time>
      </trkpt>
      <trkpt lat="47.51189" lon="6.72513">
        <ele>466.1</ele>
        <time>2017-12-17T10:35:24.000Z</time>
      </trkpt>
      <trkpt lat="47.51184" lon="6.7252">
        <ele>466</ele>
        <time>2017-12-17T10:35:25.000Z</time>
      </trkpt>
      <trkpt lat="47.51182" lon="6.72526">
        <ele>466</ele>
        <time>2017-12-17T10:35:26.000Z</time>
      </trkpt>
      <trkpt lat="47.51178" lon="6.72532">
        <ele>466.4</ele>
        <time>2017-12-17T10:35:27.000Z</time>
      </trkpt>
      <trkpt lat="47.51172" lon="6.72539">
        <ele>466.9</ele>
        <time>2017-12-17T10:35:28.000Z</time>
      </trkpt>
      <trkpt lat="47.5117" lon="6.72542">
        <ele>466.9</ele>
        <time>2017-12-17T10:35:29.000Z</time>
      </trkpt>
      <trkpt lat="47.51168" lon="6.72547">
        <ele>467</ele>
        <time>2017-12-17T10:35:30.000Z</time>
      </trkpt>
      <trkpt lat="47.51166" lon="6.72552">
        <ele>467.1</ele>
        <time>2017-12-17T10:35:31.000Z</time>
      </trkpt>
      <trkpt lat="47.51165" lon="6.72556">
        <ele>467.1</ele>
        <time>2017-12-17T10:35:32.000Z</time>
      </trkpt>
      <trkpt lat="47.51161" lon="6.72561">
        <ele>467.2</ele>
        <time>2017-12-17T10:35:33.000Z</time>
      </trkpt>
      <trkpt lat="47.51157" lon="6.72567">
        <ele>467.3</ele>
        <time>2017-12-17T10:35:34.000Z</time>
      </trkpt>
      <trkpt lat="47.51153" lon="6.72573">
        <ele>467.5</ele>
        <time>2017-12-17T10:35:35.000Z</time>
      </trkpt>
      <trkpt lat="47.51143" lon="6.72586">
        <ele>467.6</ele>
        <time>2017-12-17T10:35:36.000Z</time>
      </trkpt>
      <trkpt lat="47.51135" lon="6.72594">
        <ele>467.8</ele>
        <time>2017-12-17T10:35:37.000Z</time>
      </trkpt>
      <trkpt lat="47.5113" lon="6.72597">
        <ele>467.8</ele>
        <time>2017-12-17T10:35:38.000Z</time>
      </trkpt>
      <trkpt lat="47.51123" lon="6.72601">
        <ele>469.8</ele>
        <time>2017-12-17T10:35:39.000Z</time>
      </trkpt>
      <trkpt lat="47.51118" lon="6.72605">
        <ele>471</ele>
        <time>2017-12-17T10:35:40.000Z</time>
      </trkpt>
      <trkpt lat="47.51114" lon="6.72611">
        <ele>471.1</ele>
        <time>2017-12-17T10:35:41.000Z</time>
      </trkpt>
      <trkpt lat="47.51106" lon="6.72621">
        <ele>471.3</ele>
        <time>2017-12-17T10:35:42.000Z</time>
      </trkpt>
      <trkpt lat="47.51102" lon="6.72624">
        <ele>471.5</ele>
        <time>2017-12-17T10:35:43.000Z</time>
      </trkpt>
      <trkpt lat="47.51097" lon="6.72628">
        <ele>471.6</ele>
        <time>2017-12-17T10:35:44.000Z</time>
      </trkpt>
      <trkpt lat="47.51094" lon="6.72631">
        <ele>471.8</ele>
        <time>2017-12-17T10:35:45.000Z</time>
      </trkpt>
      <trkpt lat="47.5109" lon="6.72635">
        <ele>472.5</ele>
        <time>2017-12-17T10:35:46.000Z</time>
      </trkpt>
      <trkpt lat="47.51087" lon="6.72638">
        <ele>471.5</ele>
        <time>2017-12-17T10:35:47.000Z</time>
      </trkpt>
      <trkpt lat="47.51083" lon="6.72639">
        <ele>471.4</ele>
        <time>2017-12-17T10:35:48.000Z</time>
      </trkpt>
      <trkpt lat="47.51079" lon="6.7264">
        <ele>471.4</ele>
        <time>2017-12-17T10:35:49.000Z</time>
      </trkpt>
      <trkpt lat="47.51073" lon="6.72643">
        <ele>471.4</ele>
        <time>2017-12-17T10:35:50.000Z</time>
      </trkpt>
      <trkpt lat="47.51068" lon="6.72646">
        <ele>471.4</ele>
        <time>2017-12-17T10:35:51.000Z</time>
      </trkpt>
      <trkpt lat="47.51064" lon="6.72649">
        <ele>471.3</ele>
        <time>2017-12-17T10:35:52.000Z</time>
      </trkpt>
      <trkpt lat="47.51061" lon="6.72651">
        <ele>471.2</ele>
        <time>2017-12-17T10:35:53.000Z</time>
      </trkpt>
      <trkpt lat="47.5106" lon="6.72655">
        <ele>469</ele>
        <time>2017-12-17T10:36:07.000Z</time>
      </trkpt>
      <trkpt lat="47.51057" lon="6.7266">
        <ele>468.9</ele>
        <time>2017-12-17T10:36:08.000Z</time>
      </trkpt>
      <trkpt lat="47.51053" lon="6.72662">
        <ele>468.8</ele>
        <time>2017-12-17T10:36:09.000Z</time>
      </trkpt>
      <trkpt lat="47.51046" lon="6.72665">
        <ele>468.7</ele>
        <time>2017-12-17T10:36:10.000Z</time>
      </trkpt>
      <trkpt lat="47.51041" lon="6.72672">
        <ele>468.6</ele>
        <time>2017-12-17T10:36:11.000Z</time>
      </trkpt>
      <trkpt lat="47.51036" lon="6.72678">
        <ele>468.7</ele>
        <time>2017-12-17T10:36:12.000Z</time>
      </trkpt>
      <trkpt lat="47.51034" lon="6.72682">
        <ele>469</ele>
        <time>2017-12-17T10:36:16.000Z</time>
      </trkpt>
      <trkpt lat="47.51033" lon="6.72684">
        <ele>469.2</ele>
        <time>2017-12-17T10:36:17.000Z</time>
      </trkpt>
      <trkpt lat="47.51032" lon="6.72686">
        <ele>469.6</ele>
        <time>2017-12-17T10:36:19.000Z</time>
      </trkpt>
      <trkpt lat="47.51028" lon="6.72689">
        <ele>469.7</ele>
        <time>2017-12-17T10:36:20.000Z</time>
      </trkpt>
      <trkpt lat="47.51025" lon="6.72692">
        <ele>469.9</ele>
        <time>2017-12-17T10:36:21.000Z</time>
      </trkpt>
      <trkpt lat="47.51023" lon="6.72695">
        <ele>470</ele>
        <time>2017-12-17T10:36:22.000Z</time>
      </trkpt>
      <trkpt lat="47.51021" lon="6.727">
        <ele>469.9</ele>
        <time>2017-12-17T10:36:25.000Z</time>
      </trkpt>
      <trkpt lat="47.51017" lon="6.72706">
        <ele>469.9</ele>
        <time>2017-12-17T10:36:26.000Z</time>
      </trkpt>
      <trkpt lat="47.51012" lon="6.72712">
        <ele>470</ele>
        <time>2017-12-17T10:36:27.000Z</time>
      </trkpt>
      <trkpt lat="47.51007" lon="6.72718">
        <ele>470.1</ele>
        <time>2017-12-17T10:36:28.000Z</time>
      </trkpt>
      <trkpt lat="47.51004" lon="6.7272">
        <ele>470.3</ele>
        <time>2017-12-17T10:36:29.000Z</time>
      </trkpt>
      <trkpt lat="47.51001" lon="6.72723">
        <ele>470.4</ele>
        <time>2017-12-17T10:36:30.000Z</time>
      </trkpt>
      <trkpt lat="47.50998" lon="6.72726">
        <ele>470.6</ele>
        <time>2017-12-17T10:36:31.000Z</time>
      </trkpt>
      <trkpt lat="47.50995" lon="6.72729">
        <ele>470.7</ele>
        <time>2017-12-17T10:36:32.000Z</time>
      </trkpt>
      <trkpt lat="47.50992" lon="6.72734">
        <ele>471.1</ele>
        <time>2017-12-17T10:36:37.000Z</time>
      </trkpt>
      <trkpt lat="47.50993" lon="6.72738">
        <ele>471</ele>
        <time>2017-12-17T10:36:38.000Z</time>
      </trkpt>
      <trkpt lat="47.50991" lon="6.72743">
        <ele>470.8</ele>
        <time>2017-12-17T10:36:39.000Z</time>
      </trkpt>
      <trkpt lat="47.50988" lon="6.72749">
        <ele>470.8</ele>
        <time>2017-12-17T10:36:40.000Z</time>
      </trkpt>
      <trkpt lat="47.50985" lon="6.72754">
        <ele>470.8</ele>
        <time>2017-12-17T10:36:41.000Z</time>
      </trkpt>
      <trkpt lat="47.50981" lon="6.72761">
        <ele>470.7</ele>
        <time>2017-12-17T10:36:42.000Z</time>
      </trkpt>
      <trkpt lat="47.50977" lon="6.72767">
        <ele>470.5</ele>
        <time>2017-12-17T10:36:43.000Z</time>
      </trkpt>
      <trkpt lat="47.50974" lon="6.72774">
        <ele>470.5</ele>
        <time>2017-12-17T10:36:44.000Z</time>
      </trkpt>
      <trkpt lat="47.50969" lon="6.72781">
        <ele>470.5</ele>
        <time>2017-12-17T10:36:45.000Z</time>
      </trkpt>
      <trkpt lat="47.50966" lon="6.72786">
        <ele>470.4</ele>
        <time>2017-12-17T10:36:46.000Z</time>
      </trkpt>
      <trkpt lat="47.50963" lon="6.7279">
        <ele>470.4</ele>
        <time>2017-12-17T10:36:47.000Z</time>
      </trkpt>
      <trkpt lat="47.5096" lon="6.72795">
        <ele>470.4</ele>
        <time>2017-12-17T10:36:48.000Z</time>
      </trkpt>
      <trkpt lat="47.50956" lon="6.728">
        <ele>470.4</ele>
        <time>2017-12-17T10:36:49.000Z</time>
      </trkpt>
      <trkpt lat="47.50953" lon="6.72805">
        <ele>470.3</ele>
        <time>2017-12-17T10:36:50.000Z</time>
      </trkpt>
      <trkpt lat="47.50952" lon="6.7281">
        <ele>470.2</ele>
        <time>2017-12-17T10:36:51.000Z</time>
      </trkpt>
      <trkpt lat="47.50951" lon="6.72813">
        <ele>470.2</ele>
        <time>2017-12-17T10:36:52.000Z</time>
      </trkpt>
      <trkpt lat="47.5095" lon="6.72817">
        <ele>470.1</ele>
        <time>2017-12-17T10:36:53.000Z</time>
      </trkpt>
      <trkpt lat="47.50948" lon="6.72821">
        <ele>470.1</ele>
        <time>2017-12-17T10:36:54.000Z</time>
      </trkpt>
      <trkpt lat="47.50945" lon="6.72824">
        <ele>470.1</ele>
        <time>2017-12-17T10:36:55.000Z</time>
      </trkpt>
      <trkpt lat="47.50943" lon="6.72828">
        <ele>470.1</ele>
        <time>2017-12-17T10:36:56.000Z</time>
      </trkpt>
      <trkpt lat="47.50941" lon="6.72832">
        <ele>470.2</ele>
        <time>2017-12-17T10:36:57.000Z</time>
      </trkpt>
      <trkpt lat="47.5094" lon="6.72836">
        <ele>470.3</ele>
        <time>2017-12-17T10:36:58.000Z</time>
      </trkpt>
      <trkpt lat="47.50938" lon="6.72841">
        <ele>470.5</ele>
        <time>2017-12-17T10:37:00.000Z</time>
      </trkpt>
      <trkpt lat="47.50936" lon="6.72846">
        <ele>470.6</ele>
        <time>2017-12-17T10:37:01.000Z</time>
      </trkpt>
      <trkpt lat="47.50935" lon="6.72851">
        <ele>470.5</ele>
        <time>2017-12-17T10:37:02.000Z</time>
      </trkpt>
      <trkpt lat="47.50933" lon="6.72856">
        <ele>470.4</ele>
        <time>2017-12-17T10:37:03.000Z</time>
      </trkpt>
      <trkpt lat="47.50931" lon="6.72859">
        <ele>470.4</ele>
        <time>2017-12-17T10:37:04.000Z</time>
      </trkpt>
      <trkpt lat="47.50929" lon="6.72862">
        <ele>470.4</ele>
        <time>2017-12-17T10:37:05.000Z</time>
      </trkpt>
      <trkpt lat="47.50927" lon="6.72866">
        <ele>470.4</ele>
        <time>2017-12-17T10:37:06.000Z</time>
      </trkpt>
      <trkpt lat="47.50924" lon="6.72871">
        <ele>470.5</ele>
        <time>2017-12-17T10:37:07.000Z</time>
      </trkpt>
      <trkpt lat="47.50921" lon="6.72877">
        <ele>470.7</ele>
        <time>2017-12-17T10:37:08.000Z</time>
      </trkpt>
      <trkpt lat="47.50919" lon="6.72882">
        <ele>470.7</ele>
        <time>2017-12-17T10:37:09.000Z</time>
      </trkpt>
      <trkpt lat="47.50916" lon="6.72887">
        <ele>470.7</ele>
        <time>2017-12-17T10:37:10.000Z</time>
      </trkpt>
      <trkpt lat="47.50915" lon="6.72891">
        <ele>470.7</ele>
        <time>2017-12-17T10:37:11.000Z</time>
      </trkpt>
      <trkpt lat="47.50913" lon="6.72895">
        <ele>470.6</ele>
        <time>2017-12-17T10:37:12.000Z</time>
      </trkpt>
      <trkpt lat="47.50911" lon="6.72901">
        <ele>470.5</ele>
        <time>2017-12-17T10:37:13.000Z</time>
      </trkpt>
      <trkpt lat="47.5091" lon="6.72906">
        <ele>470.4</ele>
        <time>2017-12-17T10:37:14.000Z</time>
      </trkpt>
      <trkpt lat="47.50909" lon="6.72912">
        <ele>470.3</ele>
        <time>2017-12-17T10:37:15.000Z</time>
      </trkpt>
      <trkpt lat="47.50907" lon="6.72916">
        <ele>470.2</ele>
        <time>2017-12-17T10:37:16.000Z</time>
      </trkpt>
      <trkpt lat="47.50905" lon="6.7292">
        <ele>470.1</ele>
        <time>2017-12-17T10:37:17.000Z</time>
      </trkpt>
      <trkpt lat="47.50904" lon="6.72924">
        <ele>470</ele>
        <time>2017-12-17T10:37:18.000Z</time>
      </trkpt>
      <trkpt lat="47.50902" lon="6.7293">
        <ele>469.9</ele>
        <time>2017-12-17T10:37:19.000Z</time>
      </trkpt>
      <trkpt lat="47.509" lon="6.72935">
        <ele>469.9</ele>
        <time>2017-12-17T10:37:20.000Z</time>
      </trkpt>
      <trkpt lat="47.50899" lon="6.72941">
        <ele>469.9</ele>
        <time>2017-12-17T10:37:21.000Z</time>
      </trkpt>
      <trkpt lat="47.50898" lon="6.72947">
        <ele>469.8</ele>
        <time>2017-12-17T10:37:22.000Z</time>
      </trkpt>
      <trkpt lat="47.50896" lon="6.72953">
        <ele>469.7</ele>
        <time>2017-12-17T10:37:23.000Z</time>
      </trkpt>
      <trkpt lat="47.50895" lon="6.72958">
        <ele>469.6</ele>
        <time>2017-12-17T10:37:24.000Z</time>
      </trkpt>
      <trkpt lat="47.50894" lon="6.72964">
        <ele>469.6</ele>
        <time>2017-12-17T10:37:25.000Z</time>
      </trkpt>
      <trkpt lat="47.50892" lon="6.72971">
        <ele>469.6</ele>
        <time>2017-12-17T10:37:26.000Z</time>
      </trkpt>
      <trkpt lat="47.50891" lon="6.72979">
        <ele>469.6</ele>
        <time>2017-12-17T10:37:27.000Z</time>
      </trkpt>
      <trkpt lat="47.5089" lon="6.72986">
        <ele>469.7</ele>
        <time>2017-12-17T10:37:28.000Z</time>
      </trkpt>
      <trkpt lat="47.50888" lon="6.72992">
        <ele>469.7</ele>
        <time>2017-12-17T10:37:29.000Z</time>
      </trkpt>
      <trkpt lat="47.50887" lon="6.72997">
        <ele>469.7</ele>
        <time>2017-12-17T10:37:30.000Z</time>
      </trkpt>
      <trkpt lat="47.50885" lon="6.73002">
        <ele>469.7</ele>
        <time>2017-12-17T10:37:31.000Z</time>
      </trkpt>
      <trkpt lat="47.50883" lon="6.73008">
        <ele>469.6</ele>
        <time>2017-12-17T10:37:32.000Z</time>
      </trkpt>
      <trkpt lat="47.50882" lon="6.73014">
        <ele>469.7</ele>
        <time>2017-12-17T10:37:33.000Z</time>
      </trkpt>
      <trkpt lat="47.5088" lon="6.7302">
        <ele>469.8</ele>
        <time>2017-12-17T10:37:34.000Z</time>
      </trkpt>
      <trkpt lat="47.50878" lon="6.73027">
        <ele>469.9</ele>
        <time>2017-12-17T10:37:35.000Z</time>
      </trkpt>
      <trkpt lat="47.50876" lon="6.73036">
        <ele>470.2</ele>
        <time>2017-12-17T10:37:36.000Z</time>
      </trkpt>
      <trkpt lat="47.50874" lon="6.73043">
        <ele>472.3</ele>
        <time>2017-12-17T10:37:37.000Z</time>
      </trkpt>
      <trkpt lat="47.50874" lon="6.7305">
        <ele>472.6</ele>
        <time>2017-12-17T10:37:38.000Z</time>
      </trkpt>
      <trkpt lat="47.50873" lon="6.73066">
        <ele>472.6</ele>
        <time>2017-12-17T10:37:39.000Z</time>
      </trkpt>
      <trkpt lat="47.50872" lon="6.73076">
        <ele>472.9</ele>
        <time>2017-12-17T10:37:40.000Z</time>
      </trkpt>
      <trkpt lat="47.5087" lon="6.73085">
        <ele>473.1</ele>
        <time>2017-12-17T10:37:41.000Z</time>
      </trkpt>
      <trkpt lat="47.50867" lon="6.7309">
        <ele>473.2</ele>
        <time>2017-12-17T10:37:42.000Z</time>
      </trkpt>
      <trkpt lat="47.50865" lon="6.73097">
        <ele>473.4</ele>
        <time>2017-12-17T10:37:43.000Z</time>
      </trkpt>
      <trkpt lat="47.50862" lon="6.73101">
        <ele>473.5</ele>
        <time>2017-12-17T10:37:44.000Z</time>
      </trkpt>
      <trkpt lat="47.50859" lon="6.73106">
        <ele>473.6</ele>
        <time>2017-12-17T10:37:45.000Z</time>
      </trkpt>
      <trkpt lat="47.50855" lon="6.73113">
        <ele>473.7</ele>
        <time>2017-12-17T10:37:46.000Z</time>
      </trkpt>
      <trkpt lat="47.50853" lon="6.73118">
        <ele>473.8</ele>
        <time>2017-12-17T10:37:47.000Z</time>
      </trkpt>
      <trkpt lat="47.50852" lon="6.73123">
        <ele>473.9</ele>
        <time>2017-12-17T10:37:48.000Z</time>
      </trkpt>
      <trkpt lat="47.5085" lon="6.73128">
        <ele>474</ele>
        <time>2017-12-17T10:37:49.000Z</time>
      </trkpt>
      <trkpt lat="47.50849" lon="6.73132">
        <ele>474</ele>
        <time>2017-12-17T10:37:50.000Z</time>
      </trkpt>
      <trkpt lat="47.50848" lon="6.73136">
        <ele>474</ele>
        <time>2017-12-17T10:37:51.000Z</time>
      </trkpt>
      <trkpt lat="47.50848" lon="6.73141">
        <ele>474.1</ele>
        <time>2017-12-17T10:37:52.000Z</time>
      </trkpt>
      <trkpt lat="47.50849" lon="6.73145">
        <ele>474</ele>
        <time>2017-12-17T10:37:53.000Z</time>
      </trkpt>
      <trkpt lat="47.50848" lon="6.7315">
        <ele>473.9</ele>
        <time>2017-12-17T10:37:54.000Z</time>
      </trkpt>
      <trkpt lat="47.50847" lon="6.73155">
        <ele>473.8</ele>
        <time>2017-12-17T10:37:55.000Z</time>
      </trkpt>
      <trkpt lat="47.50845" lon="6.7316">
        <ele>473.7</ele>
        <time>2017-12-17T10:37:56.000Z</time>
      </trkpt>
      <trkpt lat="47.50842" lon="6.73166">
        <ele>472.1</ele>
        <time>2017-12-17T10:37:57.000Z</time>
      </trkpt>
      <trkpt lat="47.50839" lon="6.73172">
        <ele>470</ele>
        <time>2017-12-17T10:37:58.000Z</time>
      </trkpt>
      <trkpt lat="47.50833" lon="6.73177">
        <ele>467.7</ele>
        <time>2017-12-17T10:37:59.000Z</time>
      </trkpt>
      <trkpt lat="47.50827" lon="6.73183">
        <ele>466.4</ele>
        <time>2017-12-17T10:38:00.000Z</time>
      </trkpt>
      <trkpt lat="47.50821" lon="6.73189">
        <ele>466.7</ele>
        <time>2017-12-17T10:38:01.000Z</time>
      </trkpt>
      <trkpt lat="47.50816" lon="6.73196">
        <ele>466.7</ele>
        <time>2017-12-17T10:38:02.000Z</time>
      </trkpt>
      <trkpt lat="47.50811" lon="6.73203">
        <ele>467.9</ele>
        <time>2017-12-17T10:38:03.000Z</time>
      </trkpt>
      <trkpt lat="47.50808" lon="6.73208">
        <ele>467.8</ele>
        <time>2017-12-17T10:38:04.000Z</time>
      </trkpt>
      <trkpt lat="47.50803" lon="6.73215">
        <ele>467.1</ele>
        <time>2017-12-17T10:38:05.000Z</time>
      </trkpt>
      <trkpt lat="47.50798" lon="6.73221">
        <ele>466.3</ele>
        <time>2017-12-17T10:38:06.000Z</time>
      </trkpt>
      <trkpt lat="47.50793" lon="6.73229">
        <ele>466</ele>
        <time>2017-12-17T10:38:07.000Z</time>
      </trkpt>
      <trkpt lat="47.50786" lon="6.73243">
        <ele>465.5</ele>
        <time>2017-12-17T10:38:08.000Z</time>
      </trkpt>
      <trkpt lat="47.5078" lon="6.73251">
        <ele>464.3</ele>
        <time>2017-12-17T10:38:09.000Z</time>
      </trkpt>
      <trkpt lat="47.50776" lon="6.73257">
        <ele>462.9</ele>
        <time>2017-12-17T10:38:10.000Z</time>
      </trkpt>
      <trkpt lat="47.50771" lon="6.73262">
        <ele>462.2</ele>
        <time>2017-12-17T10:38:11.000Z</time>
      </trkpt>
      <trkpt lat="47.50766" lon="6.73268">
        <ele>461.5</ele>
        <time>2017-12-17T10:38:12.000Z</time>
      </trkpt>
      <trkpt lat="47.50761" lon="6.73274">
        <ele>460.8</ele>
        <time>2017-12-17T10:38:13.000Z</time>
      </trkpt>
      <trkpt lat="47.50754" lon="6.73285">
        <ele>459.9</ele>
        <time>2017-12-17T10:38:14.000Z</time>
      </trkpt>
      <trkpt lat="47.50751" lon="6.73292">
        <ele>459.2</ele>
        <time>2017-12-17T10:38:15.000Z</time>
      </trkpt>
      <trkpt lat="47.50747" lon="6.73298">
        <ele>456.8</ele>
        <time>2017-12-17T10:38:16.000Z</time>
      </trkpt>
      <trkpt lat="47.50744" lon="6.73301">
        <ele>456.7</ele>
        <time>2017-12-17T10:38:17.000Z</time>
      </trkpt>
      <trkpt lat="47.50737" lon="6.73307">
        <ele>456.6</ele>
        <time>2017-12-17T10:38:18.000Z</time>
      </trkpt>
      <trkpt lat="47.50734" lon="6.73312">
        <ele>456.5</ele>
        <time>2017-12-17T10:38:19.000Z</time>
      </trkpt>
      <trkpt lat="47.50731" lon="6.73322">
        <ele>456.3</ele>
        <time>2017-12-17T10:38:20.000Z</time>
      </trkpt>
      <trkpt lat="47.50729" lon="6.73327">
        <ele>455.7</ele>
        <time>2017-12-17T10:38:21.000Z</time>
      </trkpt>
      <trkpt lat="47.50728" lon="6.73334">
        <ele>455.4</ele>
        <time>2017-12-17T10:38:22.000Z</time>
      </trkpt>
      <trkpt lat="47.50723" lon="6.73342">
        <ele>452.4</ele>
        <time>2017-12-17T10:38:23.000Z</time>
      </trkpt>
      <trkpt lat="47.5072" lon="6.73345">
        <ele>452.1</ele>
        <time>2017-12-17T10:38:24.000Z</time>
      </trkpt>
      <trkpt lat="47.50715" lon="6.73348">
        <ele>451.9</ele>
        <time>2017-12-17T10:38:25.000Z</time>
      </trkpt>
      <trkpt lat="47.50707" lon="6.73354">
        <ele>451.7</ele>
        <time>2017-12-17T10:38:26.000Z</time>
      </trkpt>
      <trkpt lat="47.50704" lon="6.73361">
        <ele>451.5</ele>
        <time>2017-12-17T10:38:27.000Z</time>
      </trkpt>
      <trkpt lat="47.50702" lon="6.73367">
        <ele>450.5</ele>
        <time>2017-12-17T10:38:28.000Z</time>
      </trkpt>
      <trkpt lat="47.50699" lon="6.73374">
        <ele>449.4</ele>
        <time>2017-12-17T10:38:29.000Z</time>
      </trkpt>
      <trkpt lat="47.50696" lon="6.73381">
        <ele>448</ele>
        <time>2017-12-17T10:38:30.000Z</time>
      </trkpt>
      <trkpt lat="47.50694" lon="6.73389">
        <ele>447.6</ele>
        <time>2017-12-17T10:38:31.000Z</time>
      </trkpt>
      <trkpt lat="47.50693" lon="6.734">
        <ele>447.2</ele>
        <time>2017-12-17T10:38:32.000Z</time>
      </trkpt>
      <trkpt lat="47.50689" lon="6.73408">
        <ele>446.8</ele>
        <time>2017-12-17T10:38:33.000Z</time>
      </trkpt>
      <trkpt lat="47.50683" lon="6.73423">
        <ele>447.4</ele>
        <time>2017-12-17T10:38:34.000Z</time>
      </trkpt>
      <trkpt lat="47.50682" lon="6.73432">
        <ele>447.5</ele>
        <time>2017-12-17T10:38:35.000Z</time>
      </trkpt>
      <trkpt lat="47.50679" lon="6.73444">
        <ele>447.5</ele>
        <time>2017-12-17T10:38:36.000Z</time>
      </trkpt>
      <trkpt lat="47.50676" lon="6.73451">
        <ele>446.8</ele>
        <time>2017-12-17T10:38:37.000Z</time>
      </trkpt>
      <trkpt lat="47.50672" lon="6.73457">
        <ele>447.1</ele>
        <time>2017-12-17T10:38:38.000Z</time>
      </trkpt>
      <trkpt lat="47.50669" lon="6.73463">
        <ele>447.1</ele>
        <time>2017-12-17T10:38:39.000Z</time>
      </trkpt>
      <trkpt lat="47.50667" lon="6.73468">
        <ele>447.1</ele>
        <time>2017-12-17T10:38:40.000Z</time>
      </trkpt>
      <trkpt lat="47.50664" lon="6.73472">
        <ele>447.1</ele>
        <time>2017-12-17T10:38:41.000Z</time>
      </trkpt>
      <trkpt lat="47.50662" lon="6.73477">
        <ele>447</ele>
        <time>2017-12-17T10:38:42.000Z</time>
      </trkpt>
      <trkpt lat="47.5066" lon="6.73481">
        <ele>446.8</ele>
        <time>2017-12-17T10:38:43.000Z</time>
      </trkpt>
      <trkpt lat="47.50658" lon="6.73485">
        <ele>444.1</ele>
        <time>2017-12-17T10:38:44.000Z</time>
      </trkpt>
      <trkpt lat="47.50656" lon="6.7349">
        <ele>443.8</ele>
        <time>2017-12-17T10:38:45.000Z</time>
      </trkpt>
      <trkpt lat="47.50654" lon="6.73495">
        <ele>443.6</ele>
        <time>2017-12-17T10:38:46.000Z</time>
      </trkpt>
      <trkpt lat="47.50653" lon="6.73498">
        <ele>443.3</ele>
        <time>2017-12-17T10:38:47.000Z</time>
      </trkpt>
      <trkpt lat="47.50651" lon="6.73504">
        <ele>442.7</ele>
        <time>2017-12-17T10:38:49.000Z</time>
      </trkpt>
      <trkpt lat="47.5065" lon="6.73507">
        <ele>442.2</ele>
        <time>2017-12-17T10:38:50.000Z</time>
      </trkpt>
      <trkpt lat="47.5065" lon="6.73511">
        <ele>441.9</ele>
        <time>2017-12-17T10:38:51.000Z</time>
      </trkpt>
      <trkpt lat="47.50649" lon="6.73514">
        <ele>441.5</ele>
        <time>2017-12-17T10:38:52.000Z</time>
      </trkpt>
      <trkpt lat="47.50645" lon="6.73519">
        <ele>440.6</ele>
        <time>2017-12-17T10:38:54.000Z</time>
      </trkpt>
      <trkpt lat="47.50643" lon="6.73522">
        <ele>436</ele>
        <time>2017-12-17T10:38:55.000Z</time>
      </trkpt>
      <trkpt lat="47.50641" lon="6.73527">
        <ele>431.8</ele>
        <time>2017-12-17T10:38:56.000Z</time>
      </trkpt>
      <trkpt lat="47.50639" lon="6.73531">
        <ele>431.4</ele>
        <time>2017-12-17T10:38:57.000Z</time>
      </trkpt>
      <trkpt lat="47.50636" lon="6.73535">
        <ele>431</ele>
        <time>2017-12-17T10:38:58.000Z</time>
      </trkpt>
      <trkpt lat="47.50633" lon="6.73538">
        <ele>430.7</ele>
        <time>2017-12-17T10:38:59.000Z</time>
      </trkpt>
      <trkpt lat="47.50632" lon="6.73541">
        <ele>429.9</ele>
        <time>2017-12-17T10:39:01.000Z</time>
      </trkpt>
      <trkpt lat="47.50631" lon="6.73546">
        <ele>429.5</ele>
        <time>2017-12-17T10:39:02.000Z</time>
      </trkpt>
      <trkpt lat="47.50633" lon="6.73551">
        <ele>428.4</ele>
        <time>2017-12-17T10:39:06.000Z</time>
      </trkpt>
      <trkpt lat="47.50634" lon="6.73552">
        <ele>428.3</ele>
        <time>2017-12-17T10:39:07.000Z</time>
      </trkpt>
      <trkpt lat="47.50632" lon="6.73557">
        <ele>427.4</ele>
        <time>2017-12-17T10:39:14.000Z</time>
      </trkpt>
      <trkpt lat="47.50631" lon="6.73558">
        <ele>427</ele>
        <time>2017-12-17T10:39:15.000Z</time>
      </trkpt>
      <trkpt lat="47.50628" lon="6.73564">
        <ele>425.8</ele>
        <time>2017-12-17T10:39:23.000Z</time>
      </trkpt>
      <trkpt lat="47.50628" lon="6.73566">
        <ele>425.7</ele>
        <time>2017-12-17T10:39:24.000Z</time>
      </trkpt>
      <trkpt lat="47.50626" lon="6.73571">
        <ele>427</ele>
        <time>2017-12-17T10:39:41.000Z</time>
      </trkpt>
      <trkpt lat="47.50625" lon="6.73571">
        <ele>427.1</ele>
        <time>2017-12-17T10:39:42.000Z</time>
      </trkpt>
      <trkpt lat="47.5062" lon="6.73569">
        <ele>427.4</ele>
        <time>2017-12-17T10:39:52.000Z</time>
      </trkpt>
      <trkpt lat="47.50619" lon="6.73564">
        <ele>427.5</ele>
        <time>2017-12-17T10:39:53.000Z</time>
      </trkpt>
      <trkpt lat="47.50622" lon="6.73568">
        <ele>427.7</ele>
        <time>2017-12-17T10:40:45.000Z</time>
      </trkpt>
      <trkpt lat="47.50623" lon="6.73569">
        <ele>427.5</ele>
        <time>2017-12-17T10:40:46.000Z</time>
      </trkpt>
      <trkpt lat="47.50624" lon="6.73575">
        <ele>427.1</ele>
        <time>2017-12-17T10:40:49.000Z</time>
      </trkpt>
      <trkpt lat="47.50625" lon="6.73577">
        <ele>427.1</ele>
        <time>2017-12-17T10:40:50.000Z</time>
      </trkpt>
      <trkpt lat="47.50627" lon="6.73582">
        <ele>427</ele>
        <time>2017-12-17T10:40:52.000Z</time>
      </trkpt>
      <trkpt lat="47.50629" lon="6.73585">
        <ele>427</ele>
        <time>2017-12-17T10:40:53.000Z</time>
      </trkpt>
      <trkpt lat="47.50631" lon="6.73589">
        <ele>427</ele>
        <time>2017-12-17T10:40:54.000Z</time>
      </trkpt>
      <trkpt lat="47.50634" lon="6.73593">
        <ele>427</ele>
        <time>2017-12-17T10:40:55.000Z</time>
      </trkpt>
      <trkpt lat="47.50636" lon="6.73596">
        <ele>426.9</ele>
        <time>2017-12-17T10:40:56.000Z</time>
      </trkpt>
      <trkpt lat="47.50639" lon="6.73599">
        <ele>426.9</ele>
        <time>2017-12-17T10:40:57.000Z</time>
      </trkpt>
      <trkpt lat="47.50642" lon="6.73603">
        <ele>426.8</ele>
        <time>2017-12-17T10:40:58.000Z</time>
      </trkpt>
      <trkpt lat="47.50645" lon="6.73608">
        <ele>426.7</ele>
        <time>2017-12-17T10:40:59.000Z</time>
      </trkpt>
      <trkpt lat="47.50648" lon="6.73612">
        <ele>426.6</ele>
        <time>2017-12-17T10:41:00.000Z</time>
      </trkpt>
      <trkpt lat="47.50652" lon="6.73617">
        <ele>426.5</ele>
        <time>2017-12-17T10:41:01.000Z</time>
      </trkpt>
      <trkpt lat="47.50654" lon="6.73621">
        <ele>426.4</ele>
        <time>2017-12-17T10:41:02.000Z</time>
      </trkpt>
      <trkpt lat="47.50655" lon="6.73623">
        <ele>426.3</ele>
        <time>2017-12-17T10:41:03.000Z</time>
      </trkpt>
      <trkpt lat="47.50656" lon="6.73627">
        <ele>426.2</ele>
        <time>2017-12-17T10:41:04.000Z</time>
      </trkpt>
      <trkpt lat="47.50656" lon="6.73632">
        <ele>426.1</ele>
        <time>2017-12-17T10:41:05.000Z</time>
      </trkpt>
      <trkpt lat="47.50656" lon="6.73637">
        <ele>425.9</ele>
        <time>2017-12-17T10:41:06.000Z</time>
      </trkpt>
      <trkpt lat="47.50656" lon="6.73642">
        <ele>425.8</ele>
        <time>2017-12-17T10:41:07.000Z</time>
      </trkpt>
      <trkpt lat="47.50656" lon="6.73648">
        <ele>425.6</ele>
        <time>2017-12-17T10:41:08.000Z</time>
      </trkpt>
      <trkpt lat="47.50656" lon="6.73654">
        <ele>423.7</ele>
        <time>2017-12-17T10:41:09.000Z</time>
      </trkpt>
      <trkpt lat="47.50656" lon="6.73659">
        <ele>422.3</ele>
        <time>2017-12-17T10:41:10.000Z</time>
      </trkpt>
      <trkpt lat="47.50656" lon="6.73664">
        <ele>421.4</ele>
        <time>2017-12-17T10:41:11.000Z</time>
      </trkpt>
      <trkpt lat="47.50656" lon="6.73669">
        <ele>420.8</ele>
        <time>2017-12-17T10:41:12.000Z</time>
      </trkpt>
      <trkpt lat="47.50656" lon="6.73675">
        <ele>420.5</ele>
        <time>2017-12-17T10:41:13.000Z</time>
      </trkpt>
      <trkpt lat="47.50657" lon="6.73681">
        <ele>420.3</ele>
        <time>2017-12-17T10:41:14.000Z</time>
      </trkpt>
      <trkpt lat="47.50657" lon="6.73688">
        <ele>420</ele>
        <time>2017-12-17T10:41:15.000Z</time>
      </trkpt>
      <trkpt lat="47.50657" lon="6.73694">
        <ele>419.7</ele>
        <time>2017-12-17T10:41:16.000Z</time>
      </trkpt>
      <trkpt lat="47.50656" lon="6.737">
        <ele>419.5</ele>
        <time>2017-12-17T10:41:17.000Z</time>
      </trkpt>
      <trkpt lat="47.50656" lon="6.73707">
        <ele>419.3</ele>
        <time>2017-12-17T10:41:18.000Z</time>
      </trkpt>
      <trkpt lat="47.50657" lon="6.73714">
        <ele>419.1</ele>
        <time>2017-12-17T10:41:19.000Z</time>
      </trkpt>
      <trkpt lat="47.50656" lon="6.7372">
        <ele>418.8</ele>
        <time>2017-12-17T10:41:20.000Z</time>
      </trkpt>
      <trkpt lat="47.50656" lon="6.73727">
        <ele>418.6</ele>
        <time>2017-12-17T10:41:21.000Z</time>
      </trkpt>
      <trkpt lat="47.50656" lon="6.73734">
        <ele>418.4</ele>
        <time>2017-12-17T10:41:22.000Z</time>
      </trkpt>
      <trkpt lat="47.50656" lon="6.73741">
        <ele>418.2</ele>
        <time>2017-12-17T10:41:23.000Z</time>
      </trkpt>
      <trkpt lat="47.50656" lon="6.73748">
        <ele>417.9</ele>
        <time>2017-12-17T10:41:24.000Z</time>
      </trkpt>
      <trkpt lat="47.50656" lon="6.73754">
        <ele>417.4</ele>
        <time>2017-12-17T10:41:25.000Z</time>
      </trkpt>
      <trkpt lat="47.50656" lon="6.73761">
        <ele>417.1</ele>
        <time>2017-12-17T10:41:26.000Z</time>
      </trkpt>
      <trkpt lat="47.50656" lon="6.73768">
        <ele>417</ele>
        <time>2017-12-17T10:41:27.000Z</time>
      </trkpt>
      <trkpt lat="47.50656" lon="6.73774">
        <ele>416.6</ele>
        <time>2017-12-17T10:41:28.000Z</time>
      </trkpt>
      <trkpt lat="47.50656" lon="6.73781">
        <ele>416.5</ele>
        <time>2017-12-17T10:41:29.000Z</time>
      </trkpt>
      <trkpt lat="47.50655" lon="6.73788">
        <ele>416.5</ele>
        <time>2017-12-17T10:41:30.000Z</time>
      </trkpt>
      <trkpt lat="47.50655" lon="6.73794">
        <ele>416.6</ele>
        <time>2017-12-17T10:41:31.000Z</time>
      </trkpt>
      <trkpt lat="47.50655" lon="6.73801">
        <ele>416.5</ele>
        <time>2017-12-17T10:41:32.000Z</time>
      </trkpt>
      <trkpt lat="47.50654" lon="6.73809">
        <ele>416.5</ele>
        <time>2017-12-17T10:41:33.000Z</time>
      </trkpt>
      <trkpt lat="47.50654" lon="6.73816">
        <ele>416.6</ele>
        <time>2017-12-17T10:41:34.000Z</time>
      </trkpt>
      <trkpt lat="47.50652" lon="6.73824">
        <ele>416.7</ele>
        <time>2017-12-17T10:41:35.000Z</time>
      </trkpt>
      <trkpt lat="47.50651" lon="6.73831">
        <ele>416.8</ele>
        <time>2017-12-17T10:41:36.000Z</time>
      </trkpt>
      <trkpt lat="47.5065" lon="6.73838">
        <ele>416.6</ele>
        <time>2017-12-17T10:41:37.000Z</time>
      </trkpt>
      <trkpt lat="47.50649" lon="6.73845">
        <ele>416.3</ele>
        <time>2017-12-17T10:41:38.000Z</time>
      </trkpt>
      <trkpt lat="47.50648" lon="6.73851">
        <ele>416</ele>
        <time>2017-12-17T10:41:39.000Z</time>
      </trkpt>
      <trkpt lat="47.50646" lon="6.73858">
        <ele>415.6</ele>
        <time>2017-12-17T10:41:40.000Z</time>
      </trkpt>
      <trkpt lat="47.50644" lon="6.73864">
        <ele>415.2</ele>
        <time>2017-12-17T10:41:41.000Z</time>
      </trkpt>
      <trkpt lat="47.50642" lon="6.73871">
        <ele>414.8</ele>
        <time>2017-12-17T10:41:42.000Z</time>
      </trkpt>
      <trkpt lat="47.5064" lon="6.73878">
        <ele>414.4</ele>
        <time>2017-12-17T10:41:43.000Z</time>
      </trkpt>
      <trkpt lat="47.50638" lon="6.73884">
        <ele>414</ele>
        <time>2017-12-17T10:41:44.000Z</time>
      </trkpt>
      <trkpt lat="47.50635" lon="6.7389">
        <ele>413.6</ele>
        <time>2017-12-17T10:41:45.000Z</time>
      </trkpt>
      <trkpt lat="47.50633" lon="6.73895">
        <ele>413.2</ele>
        <time>2017-12-17T10:41:46.000Z</time>
      </trkpt>
      <trkpt lat="47.5063" lon="6.73901">
        <ele>412.8</ele>
        <time>2017-12-17T10:41:47.000Z</time>
      </trkpt>
      <trkpt lat="47.50628" lon="6.73906">
        <ele>412.4</ele>
        <time>2017-12-17T10:41:48.000Z</time>
      </trkpt>
      <trkpt lat="47.50625" lon="6.73912">
        <ele>412.3</ele>
        <time>2017-12-17T10:41:49.000Z</time>
      </trkpt>
      <trkpt lat="47.50622" lon="6.73918">
        <ele>412</ele>
        <time>2017-12-17T10:41:50.000Z</time>
      </trkpt>
      <trkpt lat="47.5062" lon="6.73924">
        <ele>411.9</ele>
        <time>2017-12-17T10:41:51.000Z</time>
      </trkpt>
      <trkpt lat="47.50618" lon="6.73931">
        <ele>411.9</ele>
        <time>2017-12-17T10:41:52.000Z</time>
      </trkpt>
      <trkpt lat="47.50616" lon="6.73937">
        <ele>411.9</ele>
        <time>2017-12-17T10:41:53.000Z</time>
      </trkpt>
      <trkpt lat="47.50614" lon="6.73943">
        <ele>412.5</ele>
        <time>2017-12-17T10:41:54.000Z</time>
      </trkpt>
      <trkpt lat="47.50612" lon="6.73948">
        <ele>413.1</ele>
        <time>2017-12-17T10:41:55.000Z</time>
      </trkpt>
      <trkpt lat="47.50609" lon="6.73954">
        <ele>413.7</ele>
        <time>2017-12-17T10:41:56.000Z</time>
      </trkpt>
      <trkpt lat="47.50607" lon="6.7396">
        <ele>414</ele>
        <time>2017-12-17T10:41:57.000Z</time>
      </trkpt>
      <trkpt lat="47.50604" lon="6.73967">
        <ele>414.6</ele>
        <time>2017-12-17T10:41:58.000Z</time>
      </trkpt>
      <trkpt lat="47.50601" lon="6.73974">
        <ele>415.4</ele>
        <time>2017-12-17T10:41:59.000Z</time>
      </trkpt>
      <trkpt lat="47.50598" lon="6.73981">
        <ele>415.9</ele>
        <time>2017-12-17T10:42:00.000Z</time>
      </trkpt>
      <trkpt lat="47.50596" lon="6.73988">
        <ele>416.2</ele>
        <time>2017-12-17T10:42:01.000Z</time>
      </trkpt>
      <trkpt lat="47.50593" lon="6.73995">
        <ele>416.6</ele>
        <time>2017-12-17T10:42:02.000Z</time>
      </trkpt>
      <trkpt lat="47.5059" lon="6.74003">
        <ele>416.3</ele>
        <time>2017-12-17T10:42:03.000Z</time>
      </trkpt>
      <trkpt lat="47.50587" lon="6.7401">
        <ele>416.2</ele>
        <time>2017-12-17T10:42:04.000Z</time>
      </trkpt>
      <trkpt lat="47.50583" lon="6.74017">
        <ele>416.2</ele>
        <time>2017-12-17T10:42:05.000Z</time>
      </trkpt>
      <trkpt lat="47.50581" lon="6.74022">
        <ele>416.2</ele>
        <time>2017-12-17T10:42:06.000Z</time>
      </trkpt>
      <trkpt lat="47.50577" lon="6.74028">
        <ele>415.8</ele>
        <time>2017-12-17T10:42:07.000Z</time>
      </trkpt>
      <trkpt lat="47.50574" lon="6.74034">
        <ele>415.6</ele>
        <time>2017-12-17T10:42:08.000Z</time>
      </trkpt>
      <trkpt lat="47.50572" lon="6.74039">
        <ele>415.6</ele>
        <time>2017-12-17T10:42:09.000Z</time>
      </trkpt>
      <trkpt lat="47.50569" lon="6.74045">
        <ele>415.6</ele>
        <time>2017-12-17T10:42:10.000Z</time>
      </trkpt>
      <trkpt lat="47.50566" lon="6.74052">
        <ele>415.5</ele>
        <time>2017-12-17T10:42:11.000Z</time>
      </trkpt>
      <trkpt lat="47.50563" lon="6.74059">
        <ele>416.1</ele>
        <time>2017-12-17T10:42:12.000Z</time>
      </trkpt>
      <trkpt lat="47.5056" lon="6.74065">
        <ele>416.9</ele>
        <time>2017-12-17T10:42:13.000Z</time>
      </trkpt>
      <trkpt lat="47.50558" lon="6.74071">
        <ele>417.3</ele>
        <time>2017-12-17T10:42:14.000Z</time>
      </trkpt>
      <trkpt lat="47.50555" lon="6.74076">
        <ele>417.8</ele>
        <time>2017-12-17T10:42:15.000Z</time>
      </trkpt>
      <trkpt lat="47.50553" lon="6.74082">
        <ele>418.2</ele>
        <time>2017-12-17T10:42:16.000Z</time>
      </trkpt>
      <trkpt lat="47.5055" lon="6.74088">
        <ele>418.5</ele>
        <time>2017-12-17T10:42:17.000Z</time>
      </trkpt>
      <trkpt lat="47.50547" lon="6.74094">
        <ele>419.6</ele>
        <time>2017-12-17T10:42:18.000Z</time>
      </trkpt>
      <trkpt lat="47.50544" lon="6.741">
        <ele>420</ele>
        <time>2017-12-17T10:42:19.000Z</time>
      </trkpt>
      <trkpt lat="47.50541" lon="6.74107">
        <ele>419.3</ele>
        <time>2017-12-17T10:42:20.000Z</time>
      </trkpt>
      <trkpt lat="47.50537" lon="6.74114">
        <ele>419.2</ele>
        <time>2017-12-17T10:42:21.000Z</time>
      </trkpt>
      <trkpt lat="47.50535" lon="6.7412">
        <ele>419.1</ele>
        <time>2017-12-17T10:42:22.000Z</time>
      </trkpt>
      <trkpt lat="47.50534" lon="6.74125">
        <ele>419</ele>
        <time>2017-12-17T10:42:23.000Z</time>
      </trkpt>
      <trkpt lat="47.50532" lon="6.7413">
        <ele>418.8</ele>
        <time>2017-12-17T10:42:24.000Z</time>
      </trkpt>
      <trkpt lat="47.50529" lon="6.74134">
        <ele>418.7</ele>
        <time>2017-12-17T10:42:25.000Z</time>
      </trkpt>
      <trkpt lat="47.50526" lon="6.74138">
        <ele>418.6</ele>
        <time>2017-12-17T10:42:26.000Z</time>
      </trkpt>
      <trkpt lat="47.50523" lon="6.74141">
        <ele>418.4</ele>
        <time>2017-12-17T10:42:27.000Z</time>
      </trkpt>
      <trkpt lat="47.50521" lon="6.74144">
        <ele>418.2</ele>
        <time>2017-12-17T10:42:28.000Z</time>
      </trkpt>
      <trkpt lat="47.50518" lon="6.74148">
        <ele>418.1</ele>
        <time>2017-12-17T10:42:29.000Z</time>
      </trkpt>
      <trkpt lat="47.50516" lon="6.74152">
        <ele>418</ele>
        <time>2017-12-17T10:42:30.000Z</time>
      </trkpt>
      <trkpt lat="47.50514" lon="6.74157">
        <ele>417.9</ele>
        <time>2017-12-17T10:42:31.000Z</time>
      </trkpt>
      <trkpt lat="47.50511" lon="6.7416">
        <ele>417.7</ele>
        <time>2017-12-17T10:42:32.000Z</time>
      </trkpt>
      <trkpt lat="47.5051" lon="6.74163">
        <ele>417.5</ele>
        <time>2017-12-17T10:42:33.000Z</time>
      </trkpt>
      <trkpt lat="47.50506" lon="6.74169">
        <ele>417.1</ele>
        <time>2017-12-17T10:42:34.000Z</time>
      </trkpt>
      <trkpt lat="47.50504" lon="6.74173">
        <ele>416.9</ele>
        <time>2017-12-17T10:42:35.000Z</time>
      </trkpt>
      <trkpt lat="47.50503" lon="6.74178">
        <ele>416.7</ele>
        <time>2017-12-17T10:42:36.000Z</time>
      </trkpt>
      <trkpt lat="47.50501" lon="6.74185">
        <ele>416.4</ele>
        <time>2017-12-17T10:42:37.000Z</time>
      </trkpt>
      <trkpt lat="47.505" lon="6.74188">
        <ele>416.2</ele>
        <time>2017-12-17T10:42:38.000Z</time>
      </trkpt>
      <trkpt lat="47.50498" lon="6.7419">
        <ele>416</ele>
        <time>2017-12-17T10:42:39.000Z</time>
      </trkpt>
      <trkpt lat="47.50497" lon="6.74194">
        <ele>415.7</ele>
        <time>2017-12-17T10:42:40.000Z</time>
      </trkpt>
      <trkpt lat="47.50496" lon="6.74196">
        <ele>415.3</ele>
        <time>2017-12-17T10:42:41.000Z</time>
      </trkpt>
      <trkpt lat="47.50495" lon="6.74199">
        <ele>414.9</ele>
        <time>2017-12-17T10:42:42.000Z</time>
      </trkpt>
      <trkpt lat="47.50494" lon="6.74204">
        <ele>414.6</ele>
        <time>2017-12-17T10:42:43.000Z</time>
      </trkpt>
      <trkpt lat="47.50493" lon="6.74208">
        <ele>414.3</ele>
        <time>2017-12-17T10:42:44.000Z</time>
      </trkpt>
      <trkpt lat="47.50492" lon="6.74212">
        <ele>414</ele>
        <time>2017-12-17T10:42:45.000Z</time>
      </trkpt>
      <trkpt lat="47.5049" lon="6.74217">
        <ele>413.6</ele>
        <time>2017-12-17T10:42:46.000Z</time>
      </trkpt>
      <trkpt lat="47.50488" lon="6.74221">
        <ele>413.3</ele>
        <time>2017-12-17T10:42:47.000Z</time>
      </trkpt>
      <trkpt lat="47.50488" lon="6.74226">
        <ele>413.1</ele>
        <time>2017-12-17T10:42:48.000Z</time>
      </trkpt>
      <trkpt lat="47.50486" lon="6.7423">
        <ele>412.7</ele>
        <time>2017-12-17T10:42:49.000Z</time>
      </trkpt>
      <trkpt lat="47.50485" lon="6.74235">
        <ele>409.8</ele>
        <time>2017-12-17T10:42:50.000Z</time>
      </trkpt>
      <trkpt lat="47.50483" lon="6.74241">
        <ele>407.4</ele>
        <time>2017-12-17T10:42:51.000Z</time>
      </trkpt>
      <trkpt lat="47.5048" lon="6.74247">
        <ele>407.2</ele>
        <time>2017-12-17T10:42:52.000Z</time>
      </trkpt>
      <trkpt lat="47.50478" lon="6.74254">
        <ele>406.9</ele>
        <time>2017-12-17T10:42:53.000Z</time>
      </trkpt>
      <trkpt lat="47.50477" lon="6.74259">
        <ele>406.8</ele>
        <time>2017-12-17T10:42:54.000Z</time>
      </trkpt>
      <trkpt lat="47.50473" lon="6.74264">
        <ele>404.8</ele>
        <time>2017-12-17T10:42:55.000Z</time>
      </trkpt>
      <trkpt lat="47.50471" lon="6.74269">
        <ele>402.7</ele>
        <time>2017-12-17T10:42:56.000Z</time>
      </trkpt>
      <trkpt lat="47.50468" lon="6.74275">
        <ele>401.5</ele>
        <time>2017-12-17T10:42:57.000Z</time>
      </trkpt>
      <trkpt lat="47.50466" lon="6.74282">
        <ele>400.5</ele>
        <time>2017-12-17T10:42:58.000Z</time>
      </trkpt>
      <trkpt lat="47.50463" lon="6.7429">
        <ele>399.2</ele>
        <time>2017-12-17T10:42:59.000Z</time>
      </trkpt>
      <trkpt lat="47.50459" lon="6.74297">
        <ele>399.2</ele>
        <time>2017-12-17T10:43:00.000Z</time>
      </trkpt>
      <trkpt lat="47.50456" lon="6.74304">
        <ele>398.9</ele>
        <time>2017-12-17T10:43:01.000Z</time>
      </trkpt>
      <trkpt lat="47.50453" lon="6.74311">
        <ele>398.5</ele>
        <time>2017-12-17T10:43:02.000Z</time>
      </trkpt>
      <trkpt lat="47.5045" lon="6.74318">
        <ele>398.8</ele>
        <time>2017-12-17T10:43:03.000Z</time>
      </trkpt>
      <trkpt lat="47.50446" lon="6.74324">
        <ele>399.1</ele>
        <time>2017-12-17T10:43:04.000Z</time>
      </trkpt>
      <trkpt lat="47.50443" lon="6.74331">
        <ele>399.9</ele>
        <time>2017-12-17T10:43:05.000Z</time>
      </trkpt>
      <trkpt lat="47.50439" lon="6.7434">
        <ele>400.1</ele>
        <time>2017-12-17T10:43:06.000Z</time>
      </trkpt>
      <trkpt lat="47.50437" lon="6.74345">
        <ele>400.1</ele>
        <time>2017-12-17T10:43:07.000Z</time>
      </trkpt>
      <trkpt lat="47.50433" lon="6.74353">
        <ele>400.6</ele>
        <time>2017-12-17T10:43:08.000Z</time>
      </trkpt>
      <trkpt lat="47.5043" lon="6.74358">
        <ele>401.1</ele>
        <time>2017-12-17T10:43:09.000Z</time>
      </trkpt>
      <trkpt lat="47.50427" lon="6.74363">
        <ele>401.9</ele>
        <time>2017-12-17T10:43:10.000Z</time>
      </trkpt>
      <trkpt lat="47.50424" lon="6.74369">
        <ele>404.2</ele>
        <time>2017-12-17T10:43:11.000Z</time>
      </trkpt>
      <trkpt lat="47.50422" lon="6.74375">
        <ele>405.1</ele>
        <time>2017-12-17T10:43:12.000Z</time>
      </trkpt>
      <trkpt lat="47.50419" lon="6.74381">
        <ele>405.8</ele>
        <time>2017-12-17T10:43:13.000Z</time>
      </trkpt>
      <trkpt lat="47.50416" lon="6.74389">
        <ele>406.9</ele>
        <time>2017-12-17T10:43:14.000Z</time>
      </trkpt>
      <trkpt lat="47.50411" lon="6.74395">
        <ele>408.5</ele>
        <time>2017-12-17T10:43:15.000Z</time>
      </trkpt>
      <trkpt lat="47.50406" lon="6.74403">
        <ele>409.7</ele>
        <time>2017-12-17T10:43:16.000Z</time>
      </trkpt>
      <trkpt lat="47.50401" lon="6.74411">
        <ele>410.2</ele>
        <time>2017-12-17T10:43:17.000Z</time>
      </trkpt>
      <trkpt lat="47.50397" lon="6.74417">
        <ele>409.5</ele>
        <time>2017-12-17T10:43:18.000Z</time>
      </trkpt>
      <trkpt lat="47.50394" lon="6.74423">
        <ele>409.7</ele>
        <time>2017-12-17T10:43:19.000Z</time>
      </trkpt>
      <trkpt lat="47.50389" lon="6.7443">
        <ele>409.3</ele>
        <time>2017-12-17T10:43:20.000Z</time>
      </trkpt>
      <trkpt lat="47.50387" lon="6.74437">
        <ele>409.3</ele>
        <time>2017-12-17T10:43:21.000Z</time>
      </trkpt>
      <trkpt lat="47.50384" lon="6.74444">
        <ele>408.8</ele>
        <time>2017-12-17T10:43:22.000Z</time>
      </trkpt>
      <trkpt lat="47.50382" lon="6.74452">
        <ele>408.3</ele>
        <time>2017-12-17T10:43:23.000Z</time>
      </trkpt>
      <trkpt lat="47.50379" lon="6.7446">
        <ele>407.6</ele>
        <time>2017-12-17T10:43:24.000Z</time>
      </trkpt>
      <trkpt lat="47.50377" lon="6.74468">
        <ele>406.4</ele>
        <time>2017-12-17T10:43:25.000Z</time>
      </trkpt>
      <trkpt lat="47.50376" lon="6.74474">
        <ele>404.5</ele>
        <time>2017-12-17T10:43:26.000Z</time>
      </trkpt>
      <trkpt lat="47.50376" lon="6.74481">
        <ele>402.6</ele>
        <time>2017-12-17T10:43:27.000Z</time>
      </trkpt>
      <trkpt lat="47.50376" lon="6.74489">
        <ele>401.4</ele>
        <time>2017-12-17T10:43:28.000Z</time>
      </trkpt>
      <trkpt lat="47.50376" lon="6.74496">
        <ele>400.4</ele>
        <time>2017-12-17T10:43:29.000Z</time>
      </trkpt>
      <trkpt lat="47.50377" lon="6.74504">
        <ele>399.5</ele>
        <time>2017-12-17T10:43:30.000Z</time>
      </trkpt>
      <trkpt lat="47.50379" lon="6.74511">
        <ele>399</ele>
        <time>2017-12-17T10:43:31.000Z</time>
      </trkpt>
      <trkpt lat="47.5038" lon="6.74518">
        <ele>398.8</ele>
        <time>2017-12-17T10:43:32.000Z</time>
      </trkpt>
      <trkpt lat="47.50382" lon="6.74525">
        <ele>399.8</ele>
        <time>2017-12-17T10:43:33.000Z</time>
      </trkpt>
      <trkpt lat="47.50383" lon="6.74532">
        <ele>400.3</ele>
        <time>2017-12-17T10:43:34.000Z</time>
      </trkpt>
      <trkpt lat="47.50385" lon="6.74539">
        <ele>401.5</ele>
        <time>2017-12-17T10:43:35.000Z</time>
      </trkpt>
      <trkpt lat="47.50386" lon="6.74547">
        <ele>402.1</ele>
        <time>2017-12-17T10:43:36.000Z</time>
      </trkpt>
      <trkpt lat="47.50387" lon="6.74554">
        <ele>402.8</ele>
        <time>2017-12-17T10:43:37.000Z</time>
      </trkpt>
      <trkpt lat="47.50389" lon="6.74561">
        <ele>403.6</ele>
        <time>2017-12-17T10:43:38.000Z</time>
      </trkpt>
      <trkpt lat="47.5039" lon="6.74569">
        <ele>404</ele>
        <time>2017-12-17T10:43:39.000Z</time>
      </trkpt>
      <trkpt lat="47.50391" lon="6.74576">
        <ele>404.1</ele>
        <time>2017-12-17T10:43:40.000Z</time>
      </trkpt>
      <trkpt lat="47.50392" lon="6.74585">
        <ele>403.8</ele>
        <time>2017-12-17T10:43:41.000Z</time>
      </trkpt>
      <trkpt lat="47.50393" lon="6.74593">
        <ele>403.6</ele>
        <time>2017-12-17T10:43:42.000Z</time>
      </trkpt>
      <trkpt lat="47.50394" lon="6.74601">
        <ele>403.9</ele>
        <time>2017-12-17T10:43:43.000Z</time>
      </trkpt>
      <trkpt lat="47.50397" lon="6.74609">
        <ele>403.8</ele>
        <time>2017-12-17T10:43:44.000Z</time>
      </trkpt>
      <trkpt lat="47.50398" lon="6.74617">
        <ele>405</ele>
        <time>2017-12-17T10:43:45.000Z</time>
      </trkpt>
      <trkpt lat="47.50398" lon="6.74625">
        <ele>405.8</ele>
        <time>2017-12-17T10:43:46.000Z</time>
      </trkpt>
      <trkpt lat="47.50398" lon="6.74633">
        <ele>406.3</ele>
        <time>2017-12-17T10:43:47.000Z</time>
      </trkpt>
      <trkpt lat="47.50399" lon="6.74642">
        <ele>406.8</ele>
        <time>2017-12-17T10:43:48.000Z</time>
      </trkpt>
      <trkpt lat="47.504" lon="6.74649">
        <ele>407.2</ele>
        <time>2017-12-17T10:43:49.000Z</time>
      </trkpt>
      <trkpt lat="47.50401" lon="6.74656">
        <ele>407.2</ele>
        <time>2017-12-17T10:43:50.000Z</time>
      </trkpt>
      <trkpt lat="47.50401" lon="6.74663">
        <ele>407.1</ele>
        <time>2017-12-17T10:43:51.000Z</time>
      </trkpt>
      <trkpt lat="47.50401" lon="6.74672">
        <ele>407.3</ele>
        <time>2017-12-17T10:43:52.000Z</time>
      </trkpt>
      <trkpt lat="47.504" lon="6.7468">
        <ele>407.7</ele>
        <time>2017-12-17T10:43:53.000Z</time>
      </trkpt>
      <trkpt lat="47.50398" lon="6.74687">
        <ele>406.9</ele>
        <time>2017-12-17T10:43:54.000Z</time>
      </trkpt>
      <trkpt lat="47.50395" lon="6.74696">
        <ele>406.4</ele>
        <time>2017-12-17T10:43:55.000Z</time>
      </trkpt>
      <trkpt lat="47.50393" lon="6.74703">
        <ele>406.6</ele>
        <time>2017-12-17T10:43:56.000Z</time>
      </trkpt>
      <trkpt lat="47.50391" lon="6.7471">
        <ele>407.1</ele>
        <time>2017-12-17T10:43:57.000Z</time>
      </trkpt>
      <trkpt lat="47.50389" lon="6.74718">
        <ele>407.7</ele>
        <time>2017-12-17T10:43:58.000Z</time>
      </trkpt>
      <trkpt lat="47.50388" lon="6.74725">
        <ele>407.7</ele>
        <time>2017-12-17T10:43:59.000Z</time>
      </trkpt>
      <trkpt lat="47.50385" lon="6.74733">
        <ele>407.4</ele>
        <time>2017-12-17T10:44:00.000Z</time>
      </trkpt>
      <trkpt lat="47.50383" lon="6.7474">
        <ele>407</ele>
        <time>2017-12-17T10:44:01.000Z</time>
      </trkpt>
      <trkpt lat="47.5038" lon="6.74749">
        <ele>406.5</ele>
        <time>2017-12-17T10:44:02.000Z</time>
      </trkpt>
      <trkpt lat="47.50377" lon="6.74758">
        <ele>406.3</ele>
        <time>2017-12-17T10:44:03.000Z</time>
      </trkpt>
      <trkpt lat="47.50374" lon="6.74766">
        <ele>406.1</ele>
        <time>2017-12-17T10:44:04.000Z</time>
      </trkpt>
      <trkpt lat="47.50372" lon="6.74773">
        <ele>405.8</ele>
        <time>2017-12-17T10:44:05.000Z</time>
      </trkpt>
      <trkpt lat="47.50369" lon="6.74781">
        <ele>405.5</ele>
        <time>2017-12-17T10:44:06.000Z</time>
      </trkpt>
      <trkpt lat="47.50367" lon="6.7479">
        <ele>405</ele>
        <time>2017-12-17T10:44:07.000Z</time>
      </trkpt>
      <trkpt lat="47.50364" lon="6.74798">
        <ele>404.6</ele>
        <time>2017-12-17T10:44:08.000Z</time>
      </trkpt>
      <trkpt lat="47.50362" lon="6.74806">
        <ele>404.3</ele>
        <time>2017-12-17T10:44:09.000Z</time>
      </trkpt>
      <trkpt lat="47.50359" lon="6.74814">
        <ele>404.1</ele>
        <time>2017-12-17T10:44:10.000Z</time>
      </trkpt>
      <trkpt lat="47.50356" lon="6.74823">
        <ele>404</ele>
        <time>2017-12-17T10:44:11.000Z</time>
      </trkpt>
      <trkpt lat="47.50354" lon="6.74831">
        <ele>403.7</ele>
        <time>2017-12-17T10:44:12.000Z</time>
      </trkpt>
      <trkpt lat="47.5035" lon="6.74847">
        <ele>403.4</ele>
        <time>2017-12-17T10:44:14.000Z</time>
      </trkpt>
      <trkpt lat="47.50347" lon="6.74856">
        <ele>402.6</ele>
        <time>2017-12-17T10:44:15.000Z</time>
      </trkpt>
      <trkpt lat="47.50345" lon="6.74864">
        <ele>401.6</ele>
        <time>2017-12-17T10:44:16.000Z</time>
      </trkpt>
      <trkpt lat="47.50343" lon="6.74873">
        <ele>400.7</ele>
        <time>2017-12-17T10:44:17.000Z</time>
      </trkpt>
      <trkpt lat="47.50339" lon="6.74889">
        <ele>399.8</ele>
        <time>2017-12-17T10:44:19.000Z</time>
      </trkpt>
      <trkpt lat="47.50337" lon="6.74898">
        <ele>399.4</ele>
        <time>2017-12-17T10:44:20.000Z</time>
      </trkpt>
      <trkpt lat="47.50335" lon="6.74906">
        <ele>398.2</ele>
        <time>2017-12-17T10:44:21.000Z</time>
      </trkpt>
      <trkpt lat="47.50333" lon="6.74914">
        <ele>397.4</ele>
        <time>2017-12-17T10:44:22.000Z</time>
      </trkpt>
      <trkpt lat="47.50331" lon="6.74923">
        <ele>397.2</ele>
        <time>2017-12-17T10:44:23.000Z</time>
      </trkpt>
      <trkpt lat="47.50329" lon="6.7493">
        <ele>397.1</ele>
        <time>2017-12-17T10:44:24.000Z</time>
      </trkpt>
      <trkpt lat="47.50326" lon="6.74939">
        <ele>397.5</ele>
        <time>2017-12-17T10:44:25.000Z</time>
      </trkpt>
      <trkpt lat="47.50324" lon="6.74948">
        <ele>397.8</ele>
        <time>2017-12-17T10:44:26.000Z</time>
      </trkpt>
      <trkpt lat="47.50322" lon="6.74956">
        <ele>397.7</ele>
        <time>2017-12-17T10:44:27.000Z</time>
      </trkpt>
      <trkpt lat="47.50319" lon="6.74965">
        <ele>397.1</ele>
        <time>2017-12-17T10:44:28.000Z</time>
      </trkpt>
      <trkpt lat="47.50314" lon="6.74982">
        <ele>395.9</ele>
        <time>2017-12-17T10:44:30.000Z</time>
      </trkpt>
      <trkpt lat="47.5031" lon="6.74991">
        <ele>395.1</ele>
        <time>2017-12-17T10:44:31.000Z</time>
      </trkpt>
      <trkpt lat="47.50304" lon="6.74998">
        <ele>394.7</ele>
        <time>2017-12-17T10:44:32.000Z</time>
      </trkpt>
      <trkpt lat="47.50299" lon="6.75004">
        <ele>394.8</ele>
        <time>2017-12-17T10:44:33.000Z</time>
      </trkpt>
      <trkpt lat="47.50294" lon="6.75008">
        <ele>394.5</ele>
        <time>2017-12-17T10:44:34.000Z</time>
      </trkpt>
      <trkpt lat="47.50289" lon="6.75013">
        <ele>394.3</ele>
        <time>2017-12-17T10:44:35.000Z</time>
      </trkpt>
      <trkpt lat="47.50284" lon="6.75015">
        <ele>394</ele>
        <time>2017-12-17T10:44:36.000Z</time>
      </trkpt>
      <trkpt lat="47.50279" lon="6.75017">
        <ele>393.7</ele>
        <time>2017-12-17T10:44:37.000Z</time>
      </trkpt>
      <trkpt lat="47.50274" lon="6.75021">
        <ele>392.8</ele>
        <time>2017-12-17T10:44:38.000Z</time>
      </trkpt>
      <trkpt lat="47.50268" lon="6.75024">
        <ele>392.2</ele>
        <time>2017-12-17T10:44:39.000Z</time>
      </trkpt>
      <trkpt lat="47.50263" lon="6.75021">
        <ele>391.7</ele>
        <time>2017-12-17T10:44:40.000Z</time>
      </trkpt>
      <trkpt lat="47.50254" lon="6.75014">
        <ele>391.1</ele>
        <time>2017-12-17T10:44:42.000Z</time>
      </trkpt>
      <trkpt lat="47.50251" lon="6.75005">
        <ele>390.7</ele>
        <time>2017-12-17T10:44:43.000Z</time>
      </trkpt>
      <trkpt lat="47.50248" lon="6.74995">
        <ele>389.3</ele>
        <time>2017-12-17T10:44:44.000Z</time>
      </trkpt>
      <trkpt lat="47.50245" lon="6.74985">
        <ele>387.8</ele>
        <time>2017-12-17T10:44:45.000Z</time>
      </trkpt>
      <trkpt lat="47.50239" lon="6.74978">
        <ele>386.4</ele>
        <time>2017-12-17T10:44:46.000Z</time>
      </trkpt>
      <trkpt lat="47.50235" lon="6.74973">
        <ele>384.9</ele>
        <time>2017-12-17T10:44:47.000Z</time>
      </trkpt>
      <trkpt lat="47.50233" lon="6.74969">
        <ele>384.8</ele>
        <time>2017-12-17T10:44:48.000Z</time>
      </trkpt>
      <trkpt lat="47.50231" lon="6.74966">
        <ele>384.7</ele>
        <time>2017-12-17T10:44:49.000Z</time>
      </trkpt>
      <trkpt lat="47.50228" lon="6.74966">
        <ele>382.8</ele>
        <time>2017-12-17T10:44:51.000Z</time>
      </trkpt>
      <trkpt lat="47.50226" lon="6.74968">
        <ele>381.3</ele>
        <time>2017-12-17T10:44:52.000Z</time>
      </trkpt>
      <trkpt lat="47.50223" lon="6.74971">
        <ele>379.9</ele>
        <time>2017-12-17T10:44:53.000Z</time>
      </trkpt>
      <trkpt lat="47.50219" lon="6.74975">
        <ele>379</ele>
        <time>2017-12-17T10:44:54.000Z</time>
      </trkpt>
      <trkpt lat="47.50215" lon="6.74979">
        <ele>377.8</ele>
        <time>2017-12-17T10:44:55.000Z</time>
      </trkpt>
      <trkpt lat="47.50211" lon="6.74983">
        <ele>377.5</ele>
        <time>2017-12-17T10:44:56.000Z</time>
      </trkpt>
      <trkpt lat="47.50207" lon="6.74989">
        <ele>376.8</ele>
        <time>2017-12-17T10:44:57.000Z</time>
      </trkpt>
      <trkpt lat="47.50205" lon="6.74995">
        <ele>376.4</ele>
        <time>2017-12-17T10:44:58.000Z</time>
      </trkpt>
      <trkpt lat="47.50203" lon="6.75001">
        <ele>376.3</ele>
        <time>2017-12-17T10:44:59.000Z</time>
      </trkpt>
      <trkpt lat="47.50202" lon="6.75007">
        <ele>375.6</ele>
        <time>2017-12-17T10:45:00.000Z</time>
      </trkpt>
      <trkpt lat="47.502" lon="6.75014">
        <ele>375.5</ele>
        <time>2017-12-17T10:45:01.000Z</time>
      </trkpt>
      <trkpt lat="47.50199" lon="6.7502">
        <ele>375.5</ele>
        <time>2017-12-17T10:45:02.000Z</time>
      </trkpt>
      <trkpt lat="47.50198" lon="6.75027">
        <ele>375.9</ele>
        <time>2017-12-17T10:45:03.000Z</time>
      </trkpt>
      <trkpt lat="47.50197" lon="6.75034">
        <ele>375.7</ele>
        <time>2017-12-17T10:45:04.000Z</time>
      </trkpt>
      <trkpt lat="47.50196" lon="6.75042">
        <ele>375.3</ele>
        <time>2017-12-17T10:45:05.000Z</time>
      </trkpt>
      <trkpt lat="47.50196" lon="6.75049">
        <ele>375.1</ele>
        <time>2017-12-17T10:45:06.000Z</time>
      </trkpt>
      <trkpt lat="47.50195" lon="6.75056">
        <ele>375</ele>
        <time>2017-12-17T10:45:07.000Z</time>
      </trkpt>
      <trkpt lat="47.50194" lon="6.75063">
        <ele>375.1</ele>
        <time>2017-12-17T10:45:08.000Z</time>
      </trkpt>
      <trkpt lat="47.50193" lon="6.75072">
        <ele>375.5</ele>
        <time>2017-12-17T10:45:09.000Z</time>
      </trkpt>
      <trkpt lat="47.50192" lon="6.75081">
        <ele>375.5</ele>
        <time>2017-12-17T10:45:10.000Z</time>
      </trkpt>
      <trkpt lat="47.50191" lon="6.75089">
        <ele>375.2</ele>
        <time>2017-12-17T10:45:11.000Z</time>
      </trkpt>
      <trkpt lat="47.50189" lon="6.75097">
        <ele>375</ele>
        <time>2017-12-17T10:45:12.000Z</time>
      </trkpt>
      <trkpt lat="47.50188" lon="6.75105">
        <ele>375.3</ele>
        <time>2017-12-17T10:45:13.000Z</time>
      </trkpt>
      <trkpt lat="47.50185" lon="6.75113">
        <ele>375.5</ele>
        <time>2017-12-17T10:45:14.000Z</time>
      </trkpt>
      <trkpt lat="47.50182" lon="6.7512">
        <ele>375</ele>
        <time>2017-12-17T10:45:15.000Z</time>
      </trkpt>
      <trkpt lat="47.50178" lon="6.75127">
        <ele>374.8</ele>
        <time>2017-12-17T10:45:16.000Z</time>
      </trkpt>
      <trkpt lat="47.50172" lon="6.75133">
        <ele>374.5</ele>
        <time>2017-12-17T10:45:17.000Z</time>
      </trkpt>
      <trkpt lat="47.50167" lon="6.75139">
        <ele>374.1</ele>
        <time>2017-12-17T10:45:18.000Z</time>
      </trkpt>
      <trkpt lat="47.50162" lon="6.75143">
        <ele>373.2</ele>
        <time>2017-12-17T10:45:19.000Z</time>
      </trkpt>
      <trkpt lat="47.50156" lon="6.75148">
        <ele>372.5</ele>
        <time>2017-12-17T10:45:20.000Z</time>
      </trkpt>
      <trkpt lat="47.50151" lon="6.75152">
        <ele>371.9</ele>
        <time>2017-12-17T10:45:21.000Z</time>
      </trkpt>
      <trkpt lat="47.50146" lon="6.75156">
        <ele>372</ele>
        <time>2017-12-17T10:45:22.000Z</time>
      </trkpt>
      <trkpt lat="47.50141" lon="6.7516">
        <ele>372.2</ele>
        <time>2017-12-17T10:45:23.000Z</time>
      </trkpt>
      <trkpt lat="47.50135" lon="6.75165">
        <ele>372.3</ele>
        <time>2017-12-17T10:45:24.000Z</time>
      </trkpt>
      <trkpt lat="47.5013" lon="6.75168">
        <ele>372.5</ele>
        <time>2017-12-17T10:45:25.000Z</time>
      </trkpt>
      <trkpt lat="47.50125" lon="6.75172">
        <ele>371.8</ele>
        <time>2017-12-17T10:45:26.000Z</time>
      </trkpt>
      <trkpt lat="47.5012" lon="6.75175">
        <ele>370.9</ele>
        <time>2017-12-17T10:45:27.000Z</time>
      </trkpt>
      <trkpt lat="47.50116" lon="6.75178">
        <ele>370</ele>
        <time>2017-12-17T10:45:28.000Z</time>
      </trkpt>
      <trkpt lat="47.50112" lon="6.75181">
        <ele>368.9</ele>
        <time>2017-12-17T10:45:29.000Z</time>
      </trkpt>
      <trkpt lat="47.50108" lon="6.75183">
        <ele>368.7</ele>
        <time>2017-12-17T10:45:30.000Z</time>
      </trkpt>
      <trkpt lat="47.50104" lon="6.75185">
        <ele>368.1</ele>
        <time>2017-12-17T10:45:31.000Z</time>
      </trkpt>
      <trkpt lat="47.50099" lon="6.75188">
        <ele>367.4</ele>
        <time>2017-12-17T10:45:32.000Z</time>
      </trkpt>
      <trkpt lat="47.50095" lon="6.75189">
        <ele>366.4</ele>
        <time>2017-12-17T10:45:33.000Z</time>
      </trkpt>
      <trkpt lat="47.5009" lon="6.75191">
        <ele>366.1</ele>
        <time>2017-12-17T10:45:34.000Z</time>
      </trkpt>
      <trkpt lat="47.50086" lon="6.75192">
        <ele>365.8</ele>
        <time>2017-12-17T10:45:35.000Z</time>
      </trkpt>
      <trkpt lat="47.50081" lon="6.75194">
        <ele>365.1</ele>
        <time>2017-12-17T10:45:36.000Z</time>
      </trkpt>
      <trkpt lat="47.50076" lon="6.75195">
        <ele>363.7</ele>
        <time>2017-12-17T10:45:37.000Z</time>
      </trkpt>
      <trkpt lat="47.50072" lon="6.75197">
        <ele>363.1</ele>
        <time>2017-12-17T10:45:38.000Z</time>
      </trkpt>
      <trkpt lat="47.50067" lon="6.75197">
        <ele>362.8</ele>
        <time>2017-12-17T10:45:39.000Z</time>
      </trkpt>
      <trkpt lat="47.50062" lon="6.75198">
        <ele>363.1</ele>
        <time>2017-12-17T10:45:40.000Z</time>
      </trkpt>
      <trkpt lat="47.50057" lon="6.75199">
        <ele>363.8</ele>
        <time>2017-12-17T10:45:41.000Z</time>
      </trkpt>
      <trkpt lat="47.50052" lon="6.752">
        <ele>365.1</ele>
        <time>2017-12-17T10:45:42.000Z</time>
      </trkpt>
      <trkpt lat="47.50047" lon="6.75201">
        <ele>366.3</ele>
        <time>2017-12-17T10:45:43.000Z</time>
      </trkpt>
      <trkpt lat="47.50042" lon="6.75202">
        <ele>367</ele>
        <time>2017-12-17T10:45:44.000Z</time>
      </trkpt>
      <trkpt lat="47.50037" lon="6.75203">
        <ele>367</ele>
        <time>2017-12-17T10:45:45.000Z</time>
      </trkpt>
      <trkpt lat="47.50032" lon="6.75206">
        <ele>366.9</ele>
        <time>2017-12-17T10:45:46.000Z</time>
      </trkpt>
      <trkpt lat="47.50029" lon="6.75211">
        <ele>367.1</ele>
        <time>2017-12-17T10:45:47.000Z</time>
      </trkpt>
      <trkpt lat="47.50024" lon="6.75216">
        <ele>367.3</ele>
        <time>2017-12-17T10:45:48.000Z</time>
      </trkpt>
      <trkpt lat="47.5002" lon="6.75223">
        <ele>367.2</ele>
        <time>2017-12-17T10:45:49.000Z</time>
      </trkpt>
      <trkpt lat="47.50016" lon="6.75228">
        <ele>367.8</ele>
        <time>2017-12-17T10:45:50.000Z</time>
      </trkpt>
      <trkpt lat="47.50014" lon="6.75234">
        <ele>368.9</ele>
        <time>2017-12-17T10:45:51.000Z</time>
      </trkpt>
      <trkpt lat="47.50011" lon="6.75241">
        <ele>369.8</ele>
        <time>2017-12-17T10:45:52.000Z</time>
      </trkpt>
      <trkpt lat="47.50009" lon="6.75246">
        <ele>370.5</ele>
        <time>2017-12-17T10:45:53.000Z</time>
      </trkpt>
      <trkpt lat="47.50007" lon="6.75253">
        <ele>370.9</ele>
        <time>2017-12-17T10:45:54.000Z</time>
      </trkpt>
      <trkpt lat="47.50006" lon="6.7526">
        <ele>371.9</ele>
        <time>2017-12-17T10:45:55.000Z</time>
      </trkpt>
      <trkpt lat="47.50006" lon="6.75266">
        <ele>372.2</ele>
        <time>2017-12-17T10:45:56.000Z</time>
      </trkpt>
      <trkpt lat="47.50006" lon="6.75272">
        <ele>372.6</ele>
        <time>2017-12-17T10:45:57.000Z</time>
      </trkpt>
      <trkpt lat="47.50006" lon="6.75278">
        <ele>372.5</ele>
        <time>2017-12-17T10:45:58.000Z</time>
      </trkpt>
      <trkpt lat="47.50007" lon="6.75284">
        <ele>372.5</ele>
        <time>2017-12-17T10:45:59.000Z</time>
      </trkpt>
      <trkpt lat="47.50007" lon="6.7529">
        <ele>372.3</ele>
        <time>2017-12-17T10:46:00.000Z</time>
      </trkpt>
      <trkpt lat="47.50008" lon="6.75297">
        <ele>372</ele>
        <time>2017-12-17T10:46:01.000Z</time>
      </trkpt>
      <trkpt lat="47.50008" lon="6.75305">
        <ele>371.9</ele>
        <time>2017-12-17T10:46:02.000Z</time>
      </trkpt>
      <trkpt lat="47.50009" lon="6.75312">
        <ele>371.7</ele>
        <time>2017-12-17T10:46:03.000Z</time>
      </trkpt>
      <trkpt lat="47.5001" lon="6.75318">
        <ele>371.3</ele>
        <time>2017-12-17T10:46:04.000Z</time>
      </trkpt>
      <trkpt lat="47.5001" lon="6.75324">
        <ele>371.2</ele>
        <time>2017-12-17T10:46:05.000Z</time>
      </trkpt>
      <trkpt lat="47.50011" lon="6.75331">
        <ele>370.9</ele>
        <time>2017-12-17T10:46:06.000Z</time>
      </trkpt>
      <trkpt lat="47.50011" lon="6.75336">
        <ele>370.9</ele>
        <time>2017-12-17T10:46:07.000Z</time>
      </trkpt>
      <trkpt lat="47.50012" lon="6.75341">
        <ele>370.6</ele>
        <time>2017-12-17T10:46:08.000Z</time>
      </trkpt>
      <trkpt lat="47.50011" lon="6.75346">
        <ele>370.5</ele>
        <time>2017-12-17T10:46:09.000Z</time>
      </trkpt>
      <trkpt lat="47.50011" lon="6.75351">
        <ele>370.6</ele>
        <time>2017-12-17T10:46:10.000Z</time>
      </trkpt>
      <trkpt lat="47.50009" lon="6.75359">
        <ele>371.7</ele>
        <time>2017-12-17T10:46:11.000Z</time>
      </trkpt>
      <trkpt lat="47.50008" lon="6.75366">
        <ele>371.7</ele>
        <time>2017-12-17T10:46:12.000Z</time>
      </trkpt>
      <trkpt lat="47.50008" lon="6.75372">
        <ele>371.7</ele>
        <time>2017-12-17T10:46:13.000Z</time>
      </trkpt>
      <trkpt lat="47.50005" lon="6.75377">
        <ele>371.7</ele>
        <time>2017-12-17T10:46:14.000Z</time>
      </trkpt>
      <trkpt lat="47.50004" lon="6.75382">
        <ele>371.7</ele>
        <time>2017-12-17T10:46:15.000Z</time>
      </trkpt>
      <trkpt lat="47.5" lon="6.75389">
        <ele>371.6</ele>
        <time>2017-12-17T10:46:17.000Z</time>
      </trkpt>
      <trkpt lat="47.49998" lon="6.75392">
        <ele>371.6</ele>
        <time>2017-12-17T10:46:18.000Z</time>
      </trkpt>
      <trkpt lat="47.49997" lon="6.75394">
        <ele>371.5</ele>
        <time>2017-12-17T10:46:19.000Z</time>
      </trkpt>
      <trkpt lat="47.49995" lon="6.75397">
        <ele>371.4</ele>
        <time>2017-12-17T10:46:20.000Z</time>
      </trkpt>
      <trkpt lat="47.49994" lon="6.75401">
        <ele>371.3</ele>
        <time>2017-12-17T10:46:21.000Z</time>
      </trkpt>
      <trkpt lat="47.49992" lon="6.75404">
        <ele>371.2</ele>
        <time>2017-12-17T10:46:22.000Z</time>
      </trkpt>
      <trkpt lat="47.49991" lon="6.75407">
        <ele>371</ele>
        <time>2017-12-17T10:46:23.000Z</time>
      </trkpt>
      <trkpt lat="47.4999" lon="6.75411">
        <ele>370.7</ele>
        <time>2017-12-17T10:46:25.000Z</time>
      </trkpt>
      <trkpt lat="47.49989" lon="6.75413">
        <ele>370.6</ele>
        <time>2017-12-17T10:46:26.000Z</time>
      </trkpt>
      <trkpt lat="47.49989" lon="6.75413">
        <ele>371.4</ele>
        <time>2017-12-17T10:47:27.000Z</time>
      </trkpt>
      <trkpt lat="47.49993" lon="6.75424">
        <ele>371.3</ele>
        <time>2017-12-17T10:47:28.000Z</time>
      </trkpt>
      <trkpt lat="47.49998" lon="6.75428">
        <ele>371.2</ele>
        <time>2017-12-17T10:47:30.000Z</time>
      </trkpt>
      <trkpt lat="47.5" lon="6.7543">
        <ele>371.1</ele>
        <time>2017-12-17T10:47:31.000Z</time>
      </trkpt>
      <trkpt lat="47.50003" lon="6.75436">
        <ele>370.9</ele>
        <time>2017-12-17T10:47:33.000Z</time>
      </trkpt>
      <trkpt lat="47.50009" lon="6.75446">
        <ele>370.9</ele>
        <time>2017-12-17T10:47:37.000Z</time>
      </trkpt>
      <trkpt lat="47.5001" lon="6.7545">
        <ele>370.9</ele>
        <time>2017-12-17T10:47:38.000Z</time>
      </trkpt>
      <trkpt lat="47.50011" lon="6.75453">
        <ele>370.9</ele>
        <time>2017-12-17T10:47:39.000Z</time>
      </trkpt>
      <trkpt lat="47.50014" lon="6.75459">
        <ele>371</ele>
        <time>2017-12-17T10:47:41.000Z</time>
      </trkpt>
      <trkpt lat="47.50015" lon="6.75462">
        <ele>371.1</ele>
        <time>2017-12-17T10:47:42.000Z</time>
      </trkpt>
      <trkpt lat="47.50016" lon="6.75466">
        <ele>371.2</ele>
        <time>2017-12-17T10:47:43.000Z</time>
      </trkpt>
      <trkpt lat="47.50018" lon="6.75469">
        <ele>371.2</ele>
        <time>2017-12-17T10:47:44.000Z</time>
      </trkpt>
      <trkpt lat="47.50018" lon="6.75473">
        <ele>371.3</ele>
        <time>2017-12-17T10:47:45.000Z</time>
      </trkpt>
      <trkpt lat="47.50018" lon="6.75477">
        <ele>371.5</ele>
        <time>2017-12-17T10:47:46.000Z</time>
      </trkpt>
      <trkpt lat="47.50019" lon="6.7548">
        <ele>371.7</ele>
        <time>2017-12-17T10:47:47.000Z</time>
      </trkpt>
      <trkpt lat="47.50019" lon="6.75486">
        <ele>372</ele>
        <time>2017-12-17T10:47:49.000Z</time>
      </trkpt>
      <trkpt lat="47.50019" lon="6.7549">
        <ele>372.2</ele>
        <time>2017-12-17T10:47:50.000Z</time>
      </trkpt>
      <trkpt lat="47.50019" lon="6.75495">
        <ele>372.4</ele>
        <time>2017-12-17T10:47:51.000Z</time>
      </trkpt>
      <trkpt lat="47.50018" lon="6.75497">
        <ele>372.6</ele>
        <time>2017-12-17T10:47:52.000Z</time>
      </trkpt>
      <trkpt lat="47.50018" lon="6.75503">
        <ele>372.9</ele>
        <time>2017-12-17T10:47:54.000Z</time>
      </trkpt>
      <trkpt lat="47.50017" lon="6.75506">
        <ele>373</ele>
        <time>2017-12-17T10:47:55.000Z</time>
      </trkpt>
      <trkpt lat="47.50017" lon="6.7551">
        <ele>373.1</ele>
        <time>2017-12-17T10:47:56.000Z</time>
      </trkpt>
      <trkpt lat="47.50017" lon="6.75514">
        <ele>373.2</ele>
        <time>2017-12-17T10:47:57.000Z</time>
      </trkpt>
      <trkpt lat="47.50018" lon="6.75519">
        <ele>373.6</ele>
        <time>2017-12-17T10:47:59.000Z</time>
      </trkpt>
      <trkpt lat="47.50018" lon="6.75522">
        <ele>373.6</ele>
        <time>2017-12-17T10:48:00.000Z</time>
      </trkpt>
      <trkpt lat="47.50018" lon="6.75528">
        <ele>373.8</ele>
        <time>2017-12-17T10:48:02.000Z</time>
      </trkpt>
      <trkpt lat="47.50018" lon="6.7553">
        <ele>373.9</ele>
        <time>2017-12-17T10:48:03.000Z</time>
      </trkpt>
      <trkpt lat="47.5002" lon="6.75535">
        <ele>374</ele>
        <time>2017-12-17T10:48:05.000Z</time>
      </trkpt>
      <trkpt lat="47.5002" lon="6.75537">
        <ele>374.1</ele>
        <time>2017-12-17T10:48:06.000Z</time>
      </trkpt>
      <trkpt lat="47.50022" lon="6.75541">
        <ele>374.3</ele>
        <time>2017-12-17T10:48:08.000Z</time>
      </trkpt>
      <trkpt lat="47.50023" lon="6.75544">
        <ele>374.4</ele>
        <time>2017-12-17T10:48:09.000Z</time>
      </trkpt>
      <trkpt lat="47.50025" lon="6.75549">
        <ele>374.4</ele>
        <time>2017-12-17T10:48:11.000Z</time>
      </trkpt>
      <trkpt lat="47.50026" lon="6.75552">
        <ele>374.5</ele>
        <time>2017-12-17T10:48:12.000Z</time>
      </trkpt>
      <trkpt lat="47.50028" lon="6.75558">
        <ele>374.8</ele>
        <time>2017-12-17T10:48:15.000Z</time>
      </trkpt>
      <trkpt lat="47.50029" lon="6.7556">
        <ele>374.8</ele>
        <time>2017-12-17T10:48:16.000Z</time>
      </trkpt>
      <trkpt lat="47.5003" lon="6.75565">
        <ele>375.2</ele>
        <time>2017-12-17T10:48:18.000Z</time>
      </trkpt>
      <trkpt lat="47.50031" lon="6.75568">
        <ele>375.3</ele>
        <time>2017-12-17T10:48:19.000Z</time>
      </trkpt>
      <trkpt lat="47.50032" lon="6.75571">
        <ele>375.5</ele>
        <time>2017-12-17T10:48:20.000Z</time>
      </trkpt>
      <trkpt lat="47.50033" lon="6.75575">
        <ele>375.6</ele>
        <time>2017-12-17T10:48:21.000Z</time>
      </trkpt>
      <trkpt lat="47.50034" lon="6.7558">
        <ele>376</ele>
        <time>2017-12-17T10:48:23.000Z</time>
      </trkpt>
      <trkpt lat="47.50035" lon="6.75583">
        <ele>376.2</ele>
        <time>2017-12-17T10:48:24.000Z</time>
      </trkpt>
      <trkpt lat="47.50037" lon="6.75588">
        <ele>376.4</ele>
        <time>2017-12-17T10:48:26.000Z</time>
      </trkpt>
      <trkpt lat="47.50038" lon="6.7559">
        <ele>376.5</ele>
        <time>2017-12-17T10:48:27.000Z</time>
      </trkpt>
      <trkpt lat="47.5004" lon="6.75593">
        <ele>376.6</ele>
        <time>2017-12-17T10:48:28.000Z</time>
      </trkpt>
      <trkpt lat="47.50041" lon="6.75595">
        <ele>376.6</ele>
        <time>2017-12-17T10:48:29.000Z</time>
      </trkpt>
      <trkpt lat="47.50043" lon="6.75598">
        <ele>376.7</ele>
        <time>2017-12-17T10:48:30.000Z</time>
      </trkpt>
      <trkpt lat="47.50044" lon="6.756">
        <ele>376.8</ele>
        <time>2017-12-17T10:48:31.000Z</time>
      </trkpt>
      <trkpt lat="47.50047" lon="6.75604">
        <ele>377.1</ele>
        <time>2017-12-17T10:48:33.000Z</time>
      </trkpt>
      <trkpt lat="47.50048" lon="6.75606">
        <ele>377.2</ele>
        <time>2017-12-17T10:48:34.000Z</time>
      </trkpt>
      <trkpt lat="47.5005" lon="6.75609">
        <ele>377.4</ele>
        <time>2017-12-17T10:48:35.000Z</time>
      </trkpt>
      <trkpt lat="47.50051" lon="6.75612">
        <ele>377.6</ele>
        <time>2017-12-17T10:48:36.000Z</time>
      </trkpt>
      <trkpt lat="47.50052" lon="6.75617">
        <ele>377.9</ele>
        <time>2017-12-17T10:48:38.000Z</time>
      </trkpt>
      <trkpt lat="47.50054" lon="6.7562">
        <ele>378.1</ele>
        <time>2017-12-17T10:48:39.000Z</time>
      </trkpt>
      <trkpt lat="47.50055" lon="6.75624">
        <ele>378.2</ele>
        <time>2017-12-17T10:48:40.000Z</time>
      </trkpt>
      <trkpt lat="47.50055" lon="6.75627">
        <ele>378.3</ele>
        <time>2017-12-17T10:48:41.000Z</time>
      </trkpt>
      <trkpt lat="47.50057" lon="6.75631">
        <ele>378.5</ele>
        <time>2017-12-17T10:48:42.000Z</time>
      </trkpt>
      <trkpt lat="47.50058" lon="6.75635">
        <ele>378.6</ele>
        <time>2017-12-17T10:48:43.000Z</time>
      </trkpt>
      <trkpt lat="47.50059" lon="6.7564">
        <ele>378.7</ele>
        <time>2017-12-17T10:48:45.000Z</time>
      </trkpt>
      <trkpt lat="47.50061" lon="6.75642">
        <ele>378.8</ele>
        <time>2017-12-17T10:48:46.000Z</time>
      </trkpt>
      <trkpt lat="47.50063" lon="6.75647">
        <ele>378.9</ele>
        <time>2017-12-17T10:48:49.000Z</time>
      </trkpt>
      <trkpt lat="47.50064" lon="6.7565">
        <ele>378.9</ele>
        <time>2017-12-17T10:48:50.000Z</time>
      </trkpt>
      <trkpt lat="47.50065" lon="6.75653">
        <ele>378.9</ele>
        <time>2017-12-17T10:48:51.000Z</time>
      </trkpt>
      <trkpt lat="47.50066" lon="6.75656">
        <ele>379</ele>
        <time>2017-12-17T10:48:52.000Z</time>
      </trkpt>
      <trkpt lat="47.50069" lon="6.7566">
        <ele>379.1</ele>
        <time>2017-12-17T10:48:54.000Z</time>
      </trkpt>
      <trkpt lat="47.50069" lon="6.75661">
        <ele>379.2</ele>
        <time>2017-12-17T10:48:55.000Z</time>
      </trkpt>
      <trkpt lat="47.50069" lon="6.75662">
        <ele>379.7</ele>
        <time>2017-12-17T10:49:00.000Z</time>
      </trkpt>
      <trkpt lat="47.50073" lon="6.75673">
        <ele>379.9</ele>
        <time>2017-12-17T10:49:01.000Z</time>
      </trkpt>
      <trkpt lat="47.50075" lon="6.75677">
        <ele>380.2</ele>
        <time>2017-12-17T10:49:03.000Z</time>
      </trkpt>
      <trkpt lat="47.50076" lon="6.75678">
        <ele>380.3</ele>
        <time>2017-12-17T10:49:04.000Z</time>
      </trkpt>
      <trkpt lat="47.50079" lon="6.75681">
        <ele>380.4</ele>
        <time>2017-12-17T10:49:06.000Z</time>
      </trkpt>
      <trkpt lat="47.5008" lon="6.75682">
        <ele>380.5</ele>
        <time>2017-12-17T10:49:07.000Z</time>
      </trkpt>
      <trkpt lat="47.50083" lon="6.75685">
        <ele>380.7</ele>
        <time>2017-12-17T10:49:09.000Z</time>
      </trkpt>
      <trkpt lat="47.50085" lon="6.75687">
        <ele>380.8</ele>
        <time>2017-12-17T10:49:10.000Z</time>
      </trkpt>
      <trkpt lat="47.50088" lon="6.75691">
        <ele>380.9</ele>
        <time>2017-12-17T10:49:12.000Z</time>
      </trkpt>
      <trkpt lat="47.50089" lon="6.75692">
        <ele>380.9</ele>
        <time>2017-12-17T10:49:13.000Z</time>
      </trkpt>
      <trkpt lat="47.50091" lon="6.75695">
        <ele>381.1</ele>
        <time>2017-12-17T10:49:16.000Z</time>
      </trkpt>
      <trkpt lat="47.50093" lon="6.75697">
        <ele>381.2</ele>
        <time>2017-12-17T10:49:17.000Z</time>
      </trkpt>
      <trkpt lat="47.50096" lon="6.757">
        <ele>381.7</ele>
        <time>2017-12-17T10:49:20.000Z</time>
      </trkpt>
      <trkpt lat="47.50097" lon="6.75702">
        <ele>381.8</ele>
        <time>2017-12-17T10:49:21.000Z</time>
      </trkpt>
      <trkpt lat="47.50098" lon="6.75705">
        <ele>382</ele>
        <time>2017-12-17T10:49:22.000Z</time>
      </trkpt>
      <trkpt lat="47.501" lon="6.75708">
        <ele>382.2</ele>
        <time>2017-12-17T10:49:23.000Z</time>
      </trkpt>
      <trkpt lat="47.50102" lon="6.75712">
        <ele>382.6</ele>
        <time>2017-12-17T10:49:25.000Z</time>
      </trkpt>
      <trkpt lat="47.50103" lon="6.75715">
        <ele>382.7</ele>
        <time>2017-12-17T10:49:26.000Z</time>
      </trkpt>
      <trkpt lat="47.50104" lon="6.75716">
        <ele>384.9</ele>
        <time>2017-12-17T10:49:40.000Z</time>
      </trkpt>
      <trkpt lat="47.50119" lon="6.75733">
        <ele>384.9</ele>
        <time>2017-12-17T10:49:41.000Z</time>
      </trkpt>
      <trkpt lat="47.50119" lon="6.75733">
        <ele>385.2</ele>
        <time>2017-12-17T10:49:43.000Z</time>
      </trkpt>
      <trkpt lat="47.50127" lon="6.75742">
        <ele>385.4</ele>
        <time>2017-12-17T10:49:44.000Z</time>
      </trkpt>
      <trkpt lat="47.50127" lon="6.75742">
        <ele>385.7</ele>
        <time>2017-12-17T10:49:45.000Z</time>
      </trkpt>
      <trkpt lat="47.50131" lon="6.75748">
        <ele>386</ele>
        <time>2017-12-17T10:49:46.000Z</time>
      </trkpt>
      <trkpt lat="47.50134" lon="6.75753">
        <ele>386.6</ele>
        <time>2017-12-17T10:49:48.000Z</time>
      </trkpt>
      <trkpt lat="47.50135" lon="6.75754">
        <ele>386.9</ele>
        <time>2017-12-17T10:49:49.000Z</time>
      </trkpt>
      <trkpt lat="47.50138" lon="6.75758">
        <ele>387.4</ele>
        <time>2017-12-17T10:49:51.000Z</time>
      </trkpt>
      <trkpt lat="47.50139" lon="6.7576">
        <ele>387.7</ele>
        <time>2017-12-17T10:49:52.000Z</time>
      </trkpt>
      <trkpt lat="47.50142" lon="6.75762">
        <ele>388.1</ele>
        <time>2017-12-17T10:49:54.000Z</time>
      </trkpt>
      <trkpt lat="47.50143" lon="6.75764">
        <ele>388.2</ele>
        <time>2017-12-17T10:49:55.000Z</time>
      </trkpt>
      <trkpt lat="47.50145" lon="6.75765">
        <ele>388.3</ele>
        <time>2017-12-17T10:49:56.000Z</time>
      </trkpt>
      <trkpt lat="47.50148" lon="6.75768">
        <ele>388.5</ele>
        <time>2017-12-17T10:49:57.000Z</time>
      </trkpt>
      <trkpt lat="47.50151" lon="6.75773">
        <ele>388.7</ele>
        <time>2017-12-17T10:49:59.000Z</time>
      </trkpt>
      <trkpt lat="47.50152" lon="6.75775">
        <ele>388.9</ele>
        <time>2017-12-17T10:50:00.000Z</time>
      </trkpt>
      <trkpt lat="47.50156" lon="6.75779">
        <ele>389.1</ele>
        <time>2017-12-17T10:50:02.000Z</time>
      </trkpt>
      <trkpt lat="47.50157" lon="6.75782">
        <ele>389.3</ele>
        <time>2017-12-17T10:50:03.000Z</time>
      </trkpt>
      <trkpt lat="47.50158" lon="6.75786">
        <ele>389.4</ele>
        <time>2017-12-17T10:50:04.000Z</time>
      </trkpt>
      <trkpt lat="47.50159" lon="6.75788">
        <ele>389.6</ele>
        <time>2017-12-17T10:50:05.000Z</time>
      </trkpt>
      <trkpt lat="47.5016" lon="6.75793">
        <ele>390.2</ele>
        <time>2017-12-17T10:50:08.000Z</time>
      </trkpt>
      <trkpt lat="47.50161" lon="6.75795">
        <ele>390.3</ele>
        <time>2017-12-17T10:50:09.000Z</time>
      </trkpt>
      <trkpt lat="47.50164" lon="6.758">
        <ele>390.7</ele>
        <time>2017-12-17T10:50:12.000Z</time>
      </trkpt>
      <trkpt lat="47.50165" lon="6.75801">
        <ele>390.8</ele>
        <time>2017-12-17T10:50:13.000Z</time>
      </trkpt>
      <trkpt lat="47.50168" lon="6.75804">
        <ele>391</ele>
        <time>2017-12-17T10:50:15.000Z</time>
      </trkpt>
      <trkpt lat="47.5017" lon="6.75806">
        <ele>391.2</ele>
        <time>2017-12-17T10:50:16.000Z</time>
      </trkpt>
      <trkpt lat="47.50174" lon="6.75811">
        <ele>391.5</ele>
        <time>2017-12-17T10:50:18.000Z</time>
      </trkpt>
      <trkpt lat="47.50175" lon="6.75812">
        <ele>391.6</ele>
        <time>2017-12-17T10:50:19.000Z</time>
      </trkpt>
      <trkpt lat="47.50177" lon="6.75817">
        <ele>391.9</ele>
        <time>2017-12-17T10:50:22.000Z</time>
      </trkpt>
      <trkpt lat="47.50178" lon="6.7582">
        <ele>391.9</ele>
        <time>2017-12-17T10:50:23.000Z</time>
      </trkpt>
      <trkpt lat="47.5018" lon="6.75826">
        <ele>392.2</ele>
        <time>2017-12-17T10:50:25.000Z</time>
      </trkpt>
      <trkpt lat="47.50181" lon="6.75827">
        <ele>392.4</ele>
        <time>2017-12-17T10:50:26.000Z</time>
      </trkpt>
      <trkpt lat="47.50182" lon="6.75832">
        <ele>392.8</ele>
        <time>2017-12-17T10:50:28.000Z</time>
      </trkpt>
      <trkpt lat="47.50182" lon="6.75834">
        <ele>393</ele>
        <time>2017-12-17T10:50:29.000Z</time>
      </trkpt>
      <trkpt lat="47.50185" lon="6.75839">
        <ele>393.4</ele>
        <time>2017-12-17T10:50:31.000Z</time>
      </trkpt>
      <trkpt lat="47.50185" lon="6.75842">
        <ele>393.6</ele>
        <time>2017-12-17T10:50:32.000Z</time>
      </trkpt>
      <trkpt lat="47.50186" lon="6.75847">
        <ele>393.8</ele>
        <time>2017-12-17T10:50:34.000Z</time>
      </trkpt>
      <trkpt lat="47.50187" lon="6.75849">
        <ele>394</ele>
        <time>2017-12-17T10:50:35.000Z</time>
      </trkpt>
      <trkpt lat="47.50189" lon="6.75855">
        <ele>394.4</ele>
        <time>2017-12-17T10:50:37.000Z</time>
      </trkpt>
      <trkpt lat="47.5019" lon="6.75857">
        <ele>394.5</ele>
        <time>2017-12-17T10:50:38.000Z</time>
      </trkpt>
      <trkpt lat="47.50193" lon="6.75861">
        <ele>394.8</ele>
        <time>2017-12-17T10:50:40.000Z</time>
      </trkpt>
      <trkpt lat="47.50194" lon="6.75863">
        <ele>394.9</ele>
        <time>2017-12-17T10:50:41.000Z</time>
      </trkpt>
      <trkpt lat="47.50195" lon="6.75865">
        <ele>394.9</ele>
        <time>2017-12-17T10:50:42.000Z</time>
      </trkpt>
      <trkpt lat="47.50197" lon="6.75867">
        <ele>395</ele>
        <time>2017-12-17T10:50:43.000Z</time>
      </trkpt>
      <trkpt lat="47.50199" lon="6.75872">
        <ele>395.3</ele>
        <time>2017-12-17T10:50:45.000Z</time>
      </trkpt>
      <trkpt lat="47.502" lon="6.75875">
        <ele>395.3</ele>
        <time>2017-12-17T10:50:46.000Z</time>
      </trkpt>
      <trkpt lat="47.50202" lon="6.75879">
        <ele>395.5</ele>
        <time>2017-12-17T10:50:48.000Z</time>
      </trkpt>
      <trkpt lat="47.50204" lon="6.75881">
        <ele>395.7</ele>
        <time>2017-12-17T10:50:49.000Z</time>
      </trkpt>
      <trkpt lat="47.50205" lon="6.75887">
        <ele>396.5</ele>
        <time>2017-12-17T10:50:52.000Z</time>
      </trkpt>
      <trkpt lat="47.50205" lon="6.75889">
        <ele>396.7</ele>
        <time>2017-12-17T10:50:53.000Z</time>
      </trkpt>
      <trkpt lat="47.50206" lon="6.75895">
        <ele>397.3</ele>
        <time>2017-12-17T10:50:56.000Z</time>
      </trkpt>
      <trkpt lat="47.50207" lon="6.75896">
        <ele>397.5</ele>
        <time>2017-12-17T10:50:57.000Z</time>
      </trkpt>
      <trkpt lat="47.50208" lon="6.75902">
        <ele>398.2</ele>
        <time>2017-12-17T10:51:00.000Z</time>
      </trkpt>
      <trkpt lat="47.50209" lon="6.75904">
        <ele>398.4</ele>
        <time>2017-12-17T10:51:01.000Z</time>
      </trkpt>
      <trkpt lat="47.50211" lon="6.7591">
        <ele>398.7</ele>
        <time>2017-12-17T10:51:03.000Z</time>
      </trkpt>
      <trkpt lat="47.50211" lon="6.75912">
        <ele>398.9</ele>
        <time>2017-12-17T10:51:04.000Z</time>
      </trkpt>
      <trkpt lat="47.50212" lon="6.75916">
        <ele>399.2</ele>
        <time>2017-12-17T10:51:06.000Z</time>
      </trkpt>
      <trkpt lat="47.50213" lon="6.75918">
        <ele>399.3</ele>
        <time>2017-12-17T10:51:07.000Z</time>
      </trkpt>
      <trkpt lat="47.50214" lon="6.75924">
        <ele>399.6</ele>
        <time>2017-12-17T10:51:09.000Z</time>
      </trkpt>
      <trkpt lat="47.50214" lon="6.75926">
        <ele>399.7</ele>
        <time>2017-12-17T10:51:10.000Z</time>
      </trkpt>
      <trkpt lat="47.50215" lon="6.75931">
        <ele>400.1</ele>
        <time>2017-12-17T10:51:13.000Z</time>
      </trkpt>
      <trkpt lat="47.50216" lon="6.75934">
        <ele>400.2</ele>
        <time>2017-12-17T10:51:14.000Z</time>
      </trkpt>
      <trkpt lat="47.50217" lon="6.75937">
        <ele>400.4</ele>
        <time>2017-12-17T10:51:15.000Z</time>
      </trkpt>
      <trkpt lat="47.50218" lon="6.7594">
        <ele>400.6</ele>
        <time>2017-12-17T10:51:16.000Z</time>
      </trkpt>
      <trkpt lat="47.5022" lon="6.75944">
        <ele>401.1</ele>
        <time>2017-12-17T10:51:19.000Z</time>
      </trkpt>
      <trkpt lat="47.50222" lon="6.75946">
        <ele>401.3</ele>
        <time>2017-12-17T10:51:20.000Z</time>
      </trkpt>
      <trkpt lat="47.50222" lon="6.75951">
        <ele>401.8</ele>
        <time>2017-12-17T10:51:23.000Z</time>
      </trkpt>
      <trkpt lat="47.50223" lon="6.75953">
        <ele>402</ele>
        <time>2017-12-17T10:51:24.000Z</time>
      </trkpt>
      <trkpt lat="47.50225" lon="6.75957">
        <ele>402.5</ele>
        <time>2017-12-17T10:51:27.000Z</time>
      </trkpt>
      <trkpt lat="47.50226" lon="6.7596">
        <ele>402.6</ele>
        <time>2017-12-17T10:51:28.000Z</time>
      </trkpt>
      <trkpt lat="47.50226" lon="6.75964">
        <ele>402.9</ele>
        <time>2017-12-17T10:51:30.000Z</time>
      </trkpt>
      <trkpt lat="47.50227" lon="6.75967">
        <ele>402.9</ele>
        <time>2017-12-17T10:51:31.000Z</time>
      </trkpt>
      <trkpt lat="47.50227" lon="6.75973">
        <ele>403.4</ele>
        <time>2017-12-17T10:51:35.000Z</time>
      </trkpt>
      <trkpt lat="47.50228" lon="6.75975">
        <ele>403.5</ele>
        <time>2017-12-17T10:51:36.000Z</time>
      </trkpt>
      <trkpt lat="47.5023" lon="6.75981">
        <ele>404.1</ele>
        <time>2017-12-17T10:51:41.000Z</time>
      </trkpt>
      <trkpt lat="47.50231" lon="6.75982">
        <ele>404.1</ele>
        <time>2017-12-17T10:51:42.000Z</time>
      </trkpt>
      <trkpt lat="47.50231" lon="6.75988">
        <ele>404.3</ele>
        <time>2017-12-17T10:51:46.000Z</time>
      </trkpt>
      <trkpt lat="47.5023" lon="6.7599">
        <ele>404.5</ele>
        <time>2017-12-17T10:51:47.000Z</time>
      </trkpt>
      <trkpt lat="47.50226" lon="6.75993">
        <ele>404.8</ele>
        <time>2017-12-17T10:51:51.000Z</time>
      </trkpt>
      <trkpt lat="47.50225" lon="6.75994">
        <ele>405</ele>
        <time>2017-12-17T10:51:52.000Z</time>
      </trkpt>
      <trkpt lat="47.50221" lon="6.75996">
        <ele>405.6</ele>
        <time>2017-12-17T10:52:01.000Z</time>
      </trkpt>
      <trkpt lat="47.5022" lon="6.75997">
        <ele>405.7</ele>
        <time>2017-12-17T10:52:02.000Z</time>
      </trkpt>
      <trkpt lat="47.50217" lon="6.75999">
        <ele>406.3</ele>
        <time>2017-12-17T10:52:06.000Z</time>
      </trkpt>
      <trkpt lat="47.50216" lon="6.76">
        <ele>406.5</ele>
        <time>2017-12-17T10:52:07.000Z</time>
      </trkpt>
      <trkpt lat="47.50213" lon="6.76001">
        <ele>407.2</ele>
        <time>2017-12-17T10:52:12.000Z</time>
      </trkpt>
      <trkpt lat="47.50211" lon="6.76002">
        <ele>407.4</ele>
        <time>2017-12-17T10:52:13.000Z</time>
      </trkpt>
      <trkpt lat="47.50208" lon="6.76003">
        <ele>407.9</ele>
        <time>2017-12-17T10:52:18.000Z</time>
      </trkpt>
      <trkpt lat="47.50207" lon="6.76003">
        <ele>408</ele>
        <time>2017-12-17T10:52:19.000Z</time>
      </trkpt>
      <trkpt lat="47.50203" lon="6.76005">
        <ele>408.8</ele>
        <time>2017-12-17T10:52:27.000Z</time>
      </trkpt>
      <trkpt lat="47.50202" lon="6.76006">
        <ele>408.9</ele>
        <time>2017-12-17T10:52:28.000Z</time>
      </trkpt>
      <trkpt lat="47.50198" lon="6.76008">
        <ele>409.4</ele>
        <time>2017-12-17T10:52:32.000Z</time>
      </trkpt>
      <trkpt lat="47.50197" lon="6.76008">
        <ele>409.6</ele>
        <time>2017-12-17T10:52:33.000Z</time>
      </trkpt>
      <trkpt lat="47.50193" lon="6.76008">
        <ele>411.2</ele>
        <time>2017-12-17T10:52:41.000Z</time>
      </trkpt>
      <trkpt lat="47.50192" lon="6.76008">
        <ele>411.5</ele>
        <time>2017-12-17T10:52:42.000Z</time>
      </trkpt>
      <trkpt lat="47.50188" lon="6.76009">
        <ele>412.1</ele>
        <time>2017-12-17T10:52:44.000Z</time>
      </trkpt>
      <trkpt lat="47.50187" lon="6.76009">
        <ele>412.4</ele>
        <time>2017-12-17T10:52:45.000Z</time>
      </trkpt>
      <trkpt lat="47.50182" lon="6.7601">
        <ele>413.6</ele>
        <time>2017-12-17T10:52:49.000Z</time>
      </trkpt>
      <trkpt lat="47.50182" lon="6.7601">
        <ele>413.9</ele>
        <time>2017-12-17T10:52:50.000Z</time>
      </trkpt>
      <trkpt lat="47.50178" lon="6.76009">
        <ele>415.8</ele>
        <time>2017-12-17T10:52:57.000Z</time>
      </trkpt>
      <trkpt lat="47.50177" lon="6.76009">
        <ele>416</ele>
        <time>2017-12-17T10:52:58.000Z</time>
      </trkpt>
      <trkpt lat="47.50173" lon="6.7601">
        <ele>416.8</ele>
        <time>2017-12-17T10:53:01.000Z</time>
      </trkpt>
      <trkpt lat="47.50172" lon="6.76011">
        <ele>417.1</ele>
        <time>2017-12-17T10:53:02.000Z</time>
      </trkpt>
      <trkpt lat="47.50168" lon="6.76012">
        <ele>418.2</ele>
        <time>2017-12-17T10:53:06.000Z</time>
      </trkpt>
      <trkpt lat="47.50167" lon="6.76012">
        <ele>418.6</ele>
        <time>2017-12-17T10:53:07.000Z</time>
      </trkpt>
      <trkpt lat="47.50163" lon="6.76011">
        <ele>420.1</ele>
        <time>2017-12-17T10:53:12.000Z</time>
      </trkpt>
      <trkpt lat="47.50162" lon="6.76011">
        <ele>420.4</ele>
        <time>2017-12-17T10:53:13.000Z</time>
      </trkpt>
      <trkpt lat="47.50159" lon="6.76013">
        <ele>421.2</ele>
        <time>2017-12-17T10:53:18.000Z</time>
      </trkpt>
      <trkpt lat="47.50158" lon="6.76013">
        <ele>421.3</ele>
        <time>2017-12-17T10:53:19.000Z</time>
      </trkpt>
      <trkpt lat="47.50153" lon="6.76016">
        <ele>421.7</ele>
        <time>2017-12-17T10:53:24.000Z</time>
      </trkpt>
      <trkpt lat="47.50153" lon="6.76016">
        <ele>421.8</ele>
        <time>2017-12-17T10:53:25.000Z</time>
      </trkpt>
      <trkpt lat="47.50149" lon="6.76019">
        <ele>422.8</ele>
        <time>2017-12-17T10:53:31.000Z</time>
      </trkpt>
      <trkpt lat="47.50148" lon="6.7602">
        <ele>422.9</ele>
        <time>2017-12-17T10:53:32.000Z</time>
      </trkpt>
      <trkpt lat="47.50145" lon="6.76022">
        <ele>423.8</ele>
        <time>2017-12-17T10:53:37.000Z</time>
      </trkpt>
      <trkpt lat="47.50144" lon="6.76022">
        <ele>424</ele>
        <time>2017-12-17T10:53:38.000Z</time>
      </trkpt>
      <trkpt lat="47.5014" lon="6.76023">
        <ele>425</ele>
        <time>2017-12-17T10:53:41.000Z</time>
      </trkpt>
      <trkpt lat="47.50137" lon="6.76024">
        <ele>425.3</ele>
        <time>2017-12-17T10:53:42.000Z</time>
      </trkpt>
      <trkpt lat="47.50133" lon="6.76026">
        <ele>426.3</ele>
        <time>2017-12-17T10:53:46.000Z</time>
      </trkpt>
      <trkpt lat="47.50132" lon="6.76026">
        <ele>426.6</ele>
        <time>2017-12-17T10:53:47.000Z</time>
      </trkpt>
      <trkpt lat="47.50129" lon="6.76028">
        <ele>427.2</ele>
        <time>2017-12-17T10:53:50.000Z</time>
      </trkpt>
      <trkpt lat="47.50128" lon="6.76028">
        <ele>427.3</ele>
        <time>2017-12-17T10:53:51.000Z</time>
      </trkpt>
      <trkpt lat="47.50125" lon="6.76031">
        <ele>427.5</ele>
        <time>2017-12-17T10:53:56.000Z</time>
      </trkpt>
      <trkpt lat="47.50123" lon="6.76032">
        <ele>427.6</ele>
        <time>2017-12-17T10:53:57.000Z</time>
      </trkpt>
      <trkpt lat="47.5012" lon="6.76033">
        <ele>427.9</ele>
        <time>2017-12-17T10:54:01.000Z</time>
      </trkpt>
      <trkpt lat="47.50119" lon="6.76033">
        <ele>428.1</ele>
        <time>2017-12-17T10:54:02.000Z</time>
      </trkpt>
      <trkpt lat="47.50115" lon="6.76033">
        <ele>428.4</ele>
        <time>2017-12-17T10:54:06.000Z</time>
      </trkpt>
      <trkpt lat="47.50114" lon="6.76033">
        <ele>428.4</ele>
        <time>2017-12-17T10:54:07.000Z</time>
      </trkpt>
      <trkpt lat="47.5011" lon="6.76036">
        <ele>428.8</ele>
        <time>2017-12-17T10:54:11.000Z</time>
      </trkpt>
      <trkpt lat="47.5011" lon="6.76037">
        <ele>428.8</ele>
        <time>2017-12-17T10:54:12.000Z</time>
      </trkpt>
      <trkpt lat="47.50112" lon="6.76042">
        <ele>428.9</ele>
        <time>2017-12-17T10:54:16.000Z</time>
      </trkpt>
      <trkpt lat="47.50112" lon="6.76044">
        <ele>428.9</ele>
        <time>2017-12-17T10:54:17.000Z</time>
      </trkpt>
      <trkpt lat="47.50115" lon="6.76048">
        <ele>428.5</ele>
        <time>2017-12-17T10:54:21.000Z</time>
      </trkpt>
      <trkpt lat="47.50116" lon="6.7605">
        <ele>428.4</ele>
        <time>2017-12-17T10:54:22.000Z</time>
      </trkpt>
      <trkpt lat="47.50117" lon="6.76055">
        <ele>428.3</ele>
        <time>2017-12-17T10:54:25.000Z</time>
      </trkpt>
      <trkpt lat="47.50118" lon="6.76057">
        <ele>428.3</ele>
        <time>2017-12-17T10:54:26.000Z</time>
      </trkpt>
      <trkpt lat="47.5012" lon="6.76061">
        <ele>428.3</ele>
        <time>2017-12-17T10:54:27.000Z</time>
      </trkpt>
      <trkpt lat="47.5012" lon="6.76064">
        <ele>428.3</ele>
        <time>2017-12-17T10:54:28.000Z</time>
      </trkpt>
      <trkpt lat="47.50119" lon="6.7607">
        <ele>428.2</ele>
        <time>2017-12-17T10:54:30.000Z</time>
      </trkpt>
      <trkpt lat="47.5012" lon="6.76073">
        <ele>428.1</ele>
        <time>2017-12-17T10:54:31.000Z</time>
      </trkpt>
      <trkpt lat="47.50121" lon="6.76079">
        <ele>427.5</ele>
        <time>2017-12-17T10:54:34.000Z</time>
      </trkpt>
      <trkpt lat="47.50121" lon="6.76082">
        <ele>427.4</ele>
        <time>2017-12-17T10:54:35.000Z</time>
      </trkpt>
      <trkpt lat="47.50122" lon="6.76087">
        <ele>426.8</ele>
        <time>2017-12-17T10:54:38.000Z</time>
      </trkpt>
      <trkpt lat="47.50124" lon="6.7609">
        <ele>426.7</ele>
        <time>2017-12-17T10:54:39.000Z</time>
      </trkpt>
      <trkpt lat="47.50126" lon="6.76094">
        <ele>426.4</ele>
        <time>2017-12-17T10:54:42.000Z</time>
      </trkpt>
      <trkpt lat="47.50128" lon="6.76096">
        <ele>426.3</ele>
        <time>2017-12-17T10:54:43.000Z</time>
      </trkpt>
      <trkpt lat="47.50129" lon="6.761">
        <ele>425.9</ele>
        <time>2017-12-17T10:54:45.000Z</time>
      </trkpt>
      <trkpt lat="47.5013" lon="6.76101">
        <ele>425.6</ele>
        <time>2017-12-17T10:54:46.000Z</time>
      </trkpt>
      <trkpt lat="47.5013" lon="6.76107">
        <ele>424.6</ele>
        <time>2017-12-17T10:54:49.000Z</time>
      </trkpt>
      <trkpt lat="47.5013" lon="6.76108">
        <ele>424.3</ele>
        <time>2017-12-17T10:54:50.000Z</time>
      </trkpt>
      <trkpt lat="47.5013" lon="6.76115">
        <ele>423.4</ele>
        <time>2017-12-17T10:54:53.000Z</time>
      </trkpt>
      <trkpt lat="47.5013" lon="6.76117">
        <ele>423.1</ele>
        <time>2017-12-17T10:54:54.000Z</time>
      </trkpt>
      <trkpt lat="47.50131" lon="6.7612">
        <ele>422.8</ele>
        <time>2017-12-17T10:54:55.000Z</time>
      </trkpt>
      <trkpt lat="47.50132" lon="6.76122">
        <ele>422.5</ele>
        <time>2017-12-17T10:54:56.000Z</time>
      </trkpt>
      <trkpt lat="47.50132" lon="6.76126">
        <ele>422.1</ele>
        <time>2017-12-17T10:54:58.000Z</time>
      </trkpt>
      <trkpt lat="47.50132" lon="6.7613">
        <ele>421.9</ele>
        <time>2017-12-17T10:54:59.000Z</time>
      </trkpt>
      <trkpt lat="47.50132" lon="6.76136">
        <ele>421.2</ele>
        <time>2017-12-17T10:55:02.000Z</time>
      </trkpt>
      <trkpt lat="47.50132" lon="6.76139">
        <ele>420.9</ele>
        <time>2017-12-17T10:55:03.000Z</time>
      </trkpt>
      <trkpt lat="47.50132" lon="6.76143">
        <ele>420.6</ele>
        <time>2017-12-17T10:55:04.000Z</time>
      </trkpt>
      <trkpt lat="47.50131" lon="6.76148">
        <ele>420.5</ele>
        <time>2017-12-17T10:55:05.000Z</time>
      </trkpt>
      <trkpt lat="47.50132" lon="6.76153">
        <ele>419.9</ele>
        <time>2017-12-17T10:55:08.000Z</time>
      </trkpt>
      <trkpt lat="47.50133" lon="6.76156">
        <ele>419.8</ele>
        <time>2017-12-17T10:55:09.000Z</time>
      </trkpt>
      <trkpt lat="47.50133" lon="6.76159">
        <ele>419.7</ele>
        <time>2017-12-17T10:55:10.000Z</time>
      </trkpt>
      <trkpt lat="47.50132" lon="6.76163">
        <ele>419.6</ele>
        <time>2017-12-17T10:55:11.000Z</time>
      </trkpt>
      <trkpt lat="47.50132" lon="6.76167">
        <ele>419.6</ele>
        <time>2017-12-17T10:55:12.000Z</time>
      </trkpt>
      <trkpt lat="47.50132" lon="6.76171">
        <ele>419.7</ele>
        <time>2017-12-17T10:55:13.000Z</time>
      </trkpt>
      <trkpt lat="47.50132" lon="6.76175">
        <ele>419.8</ele>
        <time>2017-12-17T10:55:14.000Z</time>
      </trkpt>
      <trkpt lat="47.50132" lon="6.76178">
        <ele>419.9</ele>
        <time>2017-12-17T10:55:15.000Z</time>
      </trkpt>
      <trkpt lat="47.50134" lon="6.76182">
        <ele>420.3</ele>
        <time>2017-12-17T10:55:18.000Z</time>
      </trkpt>
      <trkpt lat="47.50133" lon="6.76187">
        <ele>420.7</ele>
        <time>2017-12-17T10:55:19.000Z</time>
      </trkpt>
      <trkpt lat="47.50134" lon="6.7619">
        <ele>421.1</ele>
        <time>2017-12-17T10:55:20.000Z</time>
      </trkpt>
      <trkpt lat="47.50135" lon="6.76194">
        <ele>421.5</ele>
        <time>2017-12-17T10:55:21.000Z</time>
      </trkpt>
      <trkpt lat="47.50137" lon="6.762">
        <ele>422.8</ele>
        <time>2017-12-17T10:55:24.000Z</time>
      </trkpt>
      <trkpt lat="47.50137" lon="6.76203">
        <ele>423.2</ele>
        <time>2017-12-17T10:55:25.000Z</time>
      </trkpt>
      <trkpt lat="47.50137" lon="6.76206">
        <ele>423.7</ele>
        <time>2017-12-17T10:55:26.000Z</time>
      </trkpt>
      <trkpt lat="47.50136" lon="6.7621">
        <ele>424.1</ele>
        <time>2017-12-17T10:55:27.000Z</time>
      </trkpt>
      <trkpt lat="47.5014" lon="6.76219">
        <ele>424.6</ele>
        <time>2017-12-17T10:55:28.000Z</time>
      </trkpt>
      <trkpt lat="47.50142" lon="6.76225">
        <ele>425</ele>
        <time>2017-12-17T10:55:29.000Z</time>
      </trkpt>
      <trkpt lat="47.50143" lon="6.76228">
        <ele>425.5</ele>
        <time>2017-12-17T10:55:30.000Z</time>
      </trkpt>
      <trkpt lat="47.50144" lon="6.76233">
        <ele>426</ele>
        <time>2017-12-17T10:55:31.000Z</time>
      </trkpt>
      <trkpt lat="47.50145" lon="6.76238">
        <ele>426.4</ele>
        <time>2017-12-17T10:55:32.000Z</time>
      </trkpt>
      <trkpt lat="47.50144" lon="6.76241">
        <ele>426.9</ele>
        <time>2017-12-17T10:55:33.000Z</time>
      </trkpt>
      <trkpt lat="47.50143" lon="6.76246">
        <ele>428.3</ele>
        <time>2017-12-17T10:55:36.000Z</time>
      </trkpt>
      <trkpt lat="47.50143" lon="6.76248">
        <ele>428.7</ele>
        <time>2017-12-17T10:55:37.000Z</time>
      </trkpt>
      <trkpt lat="47.50142" lon="6.76254">
        <ele>429.8</ele>
        <time>2017-12-17T10:55:40.000Z</time>
      </trkpt>
      <trkpt lat="47.50142" lon="6.76258">
        <ele>430.1</ele>
        <time>2017-12-17T10:55:41.000Z</time>
      </trkpt>
      <trkpt lat="47.50143" lon="6.76264">
        <ele>430.6</ele>
        <time>2017-12-17T10:55:44.000Z</time>
      </trkpt>
      <trkpt lat="47.50144" lon="6.76266">
        <ele>430.7</ele>
        <time>2017-12-17T10:55:45.000Z</time>
      </trkpt>
      <trkpt lat="47.50145" lon="6.76272">
        <ele>430.9</ele>
        <time>2017-12-17T10:55:47.000Z</time>
      </trkpt>
      <trkpt lat="47.50145" lon="6.76274">
        <ele>431</ele>
        <time>2017-12-17T10:55:48.000Z</time>
      </trkpt>
      <trkpt lat="47.50147" lon="6.7628">
        <ele>431</ele>
        <time>2017-12-17T10:55:50.000Z</time>
      </trkpt>
      <trkpt lat="47.50148" lon="6.76283">
        <ele>431.1</ele>
        <time>2017-12-17T10:55:51.000Z</time>
      </trkpt>
      <trkpt lat="47.50147" lon="6.76289">
        <ele>431.5</ele>
        <time>2017-12-17T10:55:54.000Z</time>
      </trkpt>
      <trkpt lat="47.50147" lon="6.76292">
        <ele>431.7</ele>
        <time>2017-12-17T10:55:55.000Z</time>
      </trkpt>
      <trkpt lat="47.50146" lon="6.76298">
        <ele>432.1</ele>
        <time>2017-12-17T10:55:57.000Z</time>
      </trkpt>
      <trkpt lat="47.50147" lon="6.76299">
        <ele>432.2</ele>
        <time>2017-12-17T10:55:58.000Z</time>
      </trkpt>
      <trkpt lat="47.50148" lon="6.76305">
        <ele>432.3</ele>
        <time>2017-12-17T10:56:00.000Z</time>
      </trkpt>
      <trkpt lat="47.50149" lon="6.76308">
        <ele>432.4</ele>
        <time>2017-12-17T10:56:01.000Z</time>
      </trkpt>
      <trkpt lat="47.5015" lon="6.7631">
        <ele>432.4</ele>
        <time>2017-12-17T10:56:02.000Z</time>
      </trkpt>
      <trkpt lat="47.50151" lon="6.76315">
        <ele>432.3</ele>
        <time>2017-12-17T10:56:03.000Z</time>
      </trkpt>
      <trkpt lat="47.50153" lon="6.76319">
        <ele>432.2</ele>
        <time>2017-12-17T10:56:04.000Z</time>
      </trkpt>
      <trkpt lat="47.50154" lon="6.76322">
        <ele>432.1</ele>
        <time>2017-12-17T10:56:05.000Z</time>
      </trkpt>
      <trkpt lat="47.50156" lon="6.76327">
        <ele>432</ele>
        <time>2017-12-17T10:56:07.000Z</time>
      </trkpt>
      <trkpt lat="47.50157" lon="6.76329">
        <ele>432</ele>
        <time>2017-12-17T10:56:08.000Z</time>
      </trkpt>
      <trkpt lat="47.5016" lon="6.76334">
        <ele>431.8</ele>
        <time>2017-12-17T10:56:10.000Z</time>
      </trkpt>
      <trkpt lat="47.50162" lon="6.76336">
        <ele>431.8</ele>
        <time>2017-12-17T10:56:11.000Z</time>
      </trkpt>
      <trkpt lat="47.50163" lon="6.7634">
        <ele>431.7</ele>
        <time>2017-12-17T10:56:13.000Z</time>
      </trkpt>
      <trkpt lat="47.50164" lon="6.76342">
        <ele>431.6</ele>
        <time>2017-12-17T10:56:14.000Z</time>
      </trkpt>
      <trkpt lat="47.50166" lon="6.76347">
        <ele>431.5</ele>
        <time>2017-12-17T10:56:18.000Z</time>
      </trkpt>
      <trkpt lat="47.50167" lon="6.7635">
        <ele>431.5</ele>
        <time>2017-12-17T10:56:19.000Z</time>
      </trkpt>
      <trkpt lat="47.50168" lon="6.76354">
        <ele>431.5</ele>
        <time>2017-12-17T10:56:20.000Z</time>
      </trkpt>
      <trkpt lat="47.50169" lon="6.76359">
        <ele>431.5</ele>
        <time>2017-12-17T10:56:21.000Z</time>
      </trkpt>
      <trkpt lat="47.5017" lon="6.76362">
        <ele>431.5</ele>
        <time>2017-12-17T10:56:22.000Z</time>
      </trkpt>
      <trkpt lat="47.5017" lon="6.76366">
        <ele>431.5</ele>
        <time>2017-12-17T10:56:23.000Z</time>
      </trkpt>
      <trkpt lat="47.5017" lon="6.76371">
        <ele>431.5</ele>
        <time>2017-12-17T10:56:24.000Z</time>
      </trkpt>
      <trkpt lat="47.50171" lon="6.76376">
        <ele>431.5</ele>
        <time>2017-12-17T10:56:25.000Z</time>
      </trkpt>
      <trkpt lat="47.50174" lon="6.76379">
        <ele>431.5</ele>
        <time>2017-12-17T10:56:29.000Z</time>
      </trkpt>
      <trkpt lat="47.50174" lon="6.76382">
        <ele>431.6</ele>
        <time>2017-12-17T10:56:30.000Z</time>
      </trkpt>
      <trkpt lat="47.50175" lon="6.76385">
        <ele>431.7</ele>
        <time>2017-12-17T10:56:31.000Z</time>
      </trkpt>
      <trkpt lat="47.50177" lon="6.76389">
        <ele>431.8</ele>
        <time>2017-12-17T10:56:32.000Z</time>
      </trkpt>
      <trkpt lat="47.50178" lon="6.76394">
        <ele>431.9</ele>
        <time>2017-12-17T10:56:34.000Z</time>
      </trkpt>
      <trkpt lat="47.50179" lon="6.76398">
        <ele>432</ele>
        <time>2017-12-17T10:56:35.000Z</time>
      </trkpt>
      <trkpt lat="47.5018" lon="6.76404">
        <ele>432.2</ele>
        <time>2017-12-17T10:56:36.000Z</time>
      </trkpt>
      <trkpt lat="47.50181" lon="6.76408">
        <ele>432.3</ele>
        <time>2017-12-17T10:56:37.000Z</time>
      </trkpt>
      <trkpt lat="47.50184" lon="6.76418">
        <ele>432.5</ele>
        <time>2017-12-17T10:56:38.000Z</time>
      </trkpt>
      <trkpt lat="47.50184" lon="6.76424">
        <ele>432.6</ele>
        <time>2017-12-17T10:56:39.000Z</time>
      </trkpt>
      <trkpt lat="47.50186" lon="6.76428">
        <ele>432.8</ele>
        <time>2017-12-17T10:56:40.000Z</time>
      </trkpt>
      <trkpt lat="47.50188" lon="6.7643">
        <ele>433</ele>
        <time>2017-12-17T10:56:41.000Z</time>
      </trkpt>
      <trkpt lat="47.5019" lon="6.76433">
        <ele>433.2</ele>
        <time>2017-12-17T10:56:42.000Z</time>
      </trkpt>
      <trkpt lat="47.50191" lon="6.76438">
        <ele>433.2</ele>
        <time>2017-12-17T10:56:43.000Z</time>
      </trkpt>
      <trkpt lat="47.50192" lon="6.76441">
        <ele>433.3</ele>
        <time>2017-12-17T10:56:44.000Z</time>
      </trkpt>
      <trkpt lat="47.50193" lon="6.76447">
        <ele>433.5</ele>
        <time>2017-12-17T10:56:46.000Z</time>
      </trkpt>
      <trkpt lat="47.50193" lon="6.7645">
        <ele>433.7</ele>
        <time>2017-12-17T10:56:47.000Z</time>
      </trkpt>
      <trkpt lat="47.50196" lon="6.76455">
        <ele>434</ele>
        <time>2017-12-17T10:56:50.000Z</time>
      </trkpt>
      <trkpt lat="47.50197" lon="6.76457">
        <ele>434.1</ele>
        <time>2017-12-17T10:56:51.000Z</time>
      </trkpt>
      <trkpt lat="47.502" lon="6.76461">
        <ele>434.1</ele>
        <time>2017-12-17T10:56:53.000Z</time>
      </trkpt>
      <trkpt lat="47.50201" lon="6.76463">
        <ele>434.1</ele>
        <time>2017-12-17T10:56:54.000Z</time>
      </trkpt>
      <trkpt lat="47.50202" lon="6.76467">
        <ele>434.2</ele>
        <time>2017-12-17T10:56:56.000Z</time>
      </trkpt>
      <trkpt lat="47.50203" lon="6.76469">
        <ele>434.2</ele>
        <time>2017-12-17T10:56:57.000Z</time>
      </trkpt>
      <trkpt lat="47.50205" lon="6.76474">
        <ele>434.5</ele>
        <time>2017-12-17T10:56:59.000Z</time>
      </trkpt>
      <trkpt lat="47.50205" lon="6.76476">
        <ele>434.6</ele>
        <time>2017-12-17T10:57:00.000Z</time>
      </trkpt>
      <trkpt lat="47.50207" lon="6.76482">
        <ele>435</ele>
        <time>2017-12-17T10:57:03.000Z</time>
      </trkpt>
      <trkpt lat="47.50208" lon="6.76483">
        <ele>435.1</ele>
        <time>2017-12-17T10:57:04.000Z</time>
      </trkpt>
      <trkpt lat="47.5021" lon="6.76488">
        <ele>435.4</ele>
        <time>2017-12-17T10:57:11.000Z</time>
      </trkpt>
      <trkpt lat="47.5021" lon="6.76488">
        <ele>435.5</ele>
        <time>2017-12-17T10:57:12.000Z</time>
      </trkpt>
      <trkpt lat="47.5021" lon="6.76493">
        <ele>435.4</ele>
        <time>2017-12-17T10:57:15.000Z</time>
      </trkpt>
      <trkpt lat="47.50213" lon="6.76497">
        <ele>435.3</ele>
        <time>2017-12-17T10:57:16.000Z</time>
      </trkpt>
      <trkpt lat="47.50215" lon="6.76502">
        <ele>435.3</ele>
        <time>2017-12-17T10:57:17.000Z</time>
      </trkpt>
      <trkpt lat="47.50217" lon="6.76504">
        <ele>435.4</ele>
        <time>2017-12-17T10:57:18.000Z</time>
      </trkpt>
      <trkpt lat="47.50219" lon="6.76509">
        <ele>435.2</ele>
        <time>2017-12-17T10:57:20.000Z</time>
      </trkpt>
      <trkpt lat="47.5022" lon="6.7651">
        <ele>435.2</ele>
        <time>2017-12-17T10:57:21.000Z</time>
      </trkpt>
      <trkpt lat="47.50221" lon="6.76513">
        <ele>435.3</ele>
        <time>2017-12-17T10:57:24.000Z</time>
      </trkpt>
      <trkpt lat="47.50222" lon="6.76516">
        <ele>435.4</ele>
        <time>2017-12-17T10:57:25.000Z</time>
      </trkpt>
      <trkpt lat="47.50224" lon="6.76522">
        <ele>435.5</ele>
        <time>2017-12-17T10:57:27.000Z</time>
      </trkpt>
      <trkpt lat="47.50224" lon="6.76525">
        <ele>435.5</ele>
        <time>2017-12-17T10:57:28.000Z</time>
      </trkpt>
      <trkpt lat="47.50224" lon="6.76531">
        <ele>435.6</ele>
        <time>2017-12-17T10:57:31.000Z</time>
      </trkpt>
      <trkpt lat="47.50224" lon="6.76533">
        <ele>435.7</ele>
        <time>2017-12-17T10:57:32.000Z</time>
      </trkpt>
      <trkpt lat="47.50226" lon="6.76536">
        <ele>435.6</ele>
        <time>2017-12-17T10:57:34.000Z</time>
      </trkpt>
      <trkpt lat="47.50227" lon="6.76538">
        <ele>435.6</ele>
        <time>2017-12-17T10:57:35.000Z</time>
      </trkpt>
      <trkpt lat="47.50228" lon="6.76544">
        <ele>436.1</ele>
        <time>2017-12-17T10:57:38.000Z</time>
      </trkpt>
      <trkpt lat="47.50229" lon="6.76546">
        <ele>436.3</ele>
        <time>2017-12-17T10:57:39.000Z</time>
      </trkpt>
      <trkpt lat="47.50229" lon="6.7655">
        <ele>436.5</ele>
        <time>2017-12-17T10:57:43.000Z</time>
      </trkpt>
      <trkpt lat="47.50227" lon="6.76554">
        <ele>436.5</ele>
        <time>2017-12-17T10:57:44.000Z</time>
      </trkpt>
      <trkpt lat="47.50224" lon="6.76556">
        <ele>436.6</ele>
        <time>2017-12-17T10:57:48.000Z</time>
      </trkpt>
      <trkpt lat="47.50223" lon="6.76556">
        <ele>436.5</ele>
        <time>2017-12-17T10:57:49.000Z</time>
      </trkpt>
      <trkpt lat="47.50219" lon="6.76558">
        <ele>436.4</ele>
        <time>2017-12-17T10:57:54.000Z</time>
      </trkpt>
      <trkpt lat="47.50218" lon="6.76558">
        <ele>436.5</ele>
        <time>2017-12-17T10:57:55.000Z</time>
      </trkpt>
      <trkpt lat="47.50215" lon="6.76559">
        <ele>436.9</ele>
        <time>2017-12-17T10:57:57.000Z</time>
      </trkpt>
      <trkpt lat="47.50213" lon="6.76559">
        <ele>437.1</ele>
        <time>2017-12-17T10:57:58.000Z</time>
      </trkpt>
      <trkpt lat="47.50209" lon="6.76561">
        <ele>437.4</ele>
        <time>2017-12-17T10:58:01.000Z</time>
      </trkpt>
      <trkpt lat="47.50208" lon="6.76561">
        <ele>437.5</ele>
        <time>2017-12-17T10:58:02.000Z</time>
      </trkpt>
      <trkpt lat="47.50204" lon="6.76561">
        <ele>437.7</ele>
        <time>2017-12-17T10:58:04.000Z</time>
      </trkpt>
      <trkpt lat="47.50203" lon="6.76562">
        <ele>437.7</ele>
        <time>2017-12-17T10:58:05.000Z</time>
      </trkpt>
      <trkpt lat="47.502" lon="6.76564">
        <ele>438</ele>
        <time>2017-12-17T10:58:08.000Z</time>
      </trkpt>
      <trkpt lat="47.50199" lon="6.76566">
        <ele>438</ele>
        <time>2017-12-17T10:58:09.000Z</time>
      </trkpt>
      <trkpt lat="47.50198" lon="6.76573">
        <ele>438.4</ele>
        <time>2017-12-17T10:58:14.000Z</time>
      </trkpt>
      <trkpt lat="47.50198" lon="6.76574">
        <ele>438.5</ele>
        <time>2017-12-17T10:58:15.000Z</time>
      </trkpt>
      <trkpt lat="47.502" lon="6.7658">
        <ele>438.4</ele>
        <time>2017-12-17T10:58:18.000Z</time>
      </trkpt>
      <trkpt lat="47.502" lon="6.76582">
        <ele>438.3</ele>
        <time>2017-12-17T10:58:19.000Z</time>
      </trkpt>
      <trkpt lat="47.502" lon="6.76587">
        <ele>438.3</ele>
        <time>2017-12-17T10:58:21.000Z</time>
      </trkpt>
      <trkpt lat="47.502" lon="6.76589">
        <ele>438.4</ele>
        <time>2017-12-17T10:58:22.000Z</time>
      </trkpt>
      <trkpt lat="47.502" lon="6.76595">
        <ele>438.7</ele>
        <time>2017-12-17T10:58:25.000Z</time>
      </trkpt>
      <trkpt lat="47.502" lon="6.76598">
        <ele>438.8</ele>
        <time>2017-12-17T10:58:26.000Z</time>
      </trkpt>
      <trkpt lat="47.50199" lon="6.76604">
        <ele>439.2</ele>
        <time>2017-12-17T10:58:29.000Z</time>
      </trkpt>
      <trkpt lat="47.50199" lon="6.76607">
        <ele>439.4</ele>
        <time>2017-12-17T10:58:30.000Z</time>
      </trkpt>
      <trkpt lat="47.502" lon="6.76613">
        <ele>439.9</ele>
        <time>2017-12-17T10:58:33.000Z</time>
      </trkpt>
      <trkpt lat="47.50201" lon="6.76616">
        <ele>440.1</ele>
        <time>2017-12-17T10:58:34.000Z</time>
      </trkpt>
      <trkpt lat="47.50201" lon="6.7662">
        <ele>440.5</ele>
        <time>2017-12-17T10:58:36.000Z</time>
      </trkpt>
      <trkpt lat="47.50201" lon="6.76623">
        <ele>440.6</ele>
        <time>2017-12-17T10:58:37.000Z</time>
      </trkpt>
      <trkpt lat="47.50202" lon="6.76629">
        <ele>441.2</ele>
        <time>2017-12-17T10:58:40.000Z</time>
      </trkpt>
      <trkpt lat="47.50202" lon="6.7663">
        <ele>441.4</ele>
        <time>2017-12-17T10:58:41.000Z</time>
      </trkpt>
      <trkpt lat="47.50203" lon="6.76634">
        <ele>441.8</ele>
        <time>2017-12-17T10:58:43.000Z</time>
      </trkpt>
      <trkpt lat="47.50204" lon="6.76637">
        <ele>442</ele>
        <time>2017-12-17T10:58:44.000Z</time>
      </trkpt>
      <trkpt lat="47.50205" lon="6.7664">
        <ele>442.1</ele>
        <time>2017-12-17T10:58:45.000Z</time>
      </trkpt>
      <trkpt lat="47.50205" lon="6.76643">
        <ele>442.3</ele>
        <time>2017-12-17T10:58:46.000Z</time>
      </trkpt>
      <trkpt lat="47.50206" lon="6.76649">
        <ele>442.5</ele>
        <time>2017-12-17T10:58:49.000Z</time>
      </trkpt>
      <trkpt lat="47.50206" lon="6.76651">
        <ele>442.6</ele>
        <time>2017-12-17T10:58:50.000Z</time>
      </trkpt>
      <trkpt lat="47.50207" lon="6.76656">
        <ele>442.9</ele>
        <time>2017-12-17T10:58:53.000Z</time>
      </trkpt>
      <trkpt lat="47.50207" lon="6.76658">
        <ele>443.1</ele>
        <time>2017-12-17T10:58:54.000Z</time>
      </trkpt>
      <trkpt lat="47.50209" lon="6.76663">
        <ele>443.4</ele>
        <time>2017-12-17T10:58:56.000Z</time>
      </trkpt>
      <trkpt lat="47.5021" lon="6.76666">
        <ele>443.6</ele>
        <time>2017-12-17T10:58:57.000Z</time>
      </trkpt>
      <trkpt lat="47.50211" lon="6.76671">
        <ele>444</ele>
        <time>2017-12-17T10:58:59.000Z</time>
      </trkpt>
      <trkpt lat="47.50212" lon="6.76673">
        <ele>444.1</ele>
        <time>2017-12-17T10:59:00.000Z</time>
      </trkpt>
      <trkpt lat="47.50213" lon="6.76678">
        <ele>444.5</ele>
        <time>2017-12-17T10:59:02.000Z</time>
      </trkpt>
      <trkpt lat="47.50213" lon="6.76681">
        <ele>444.7</ele>
        <time>2017-12-17T10:59:03.000Z</time>
      </trkpt>
      <trkpt lat="47.50214" lon="6.76686">
        <ele>445.5</ele>
        <time>2017-12-17T10:59:07.000Z</time>
      </trkpt>
      <trkpt lat="47.50215" lon="6.76688">
        <ele>445.7</ele>
        <time>2017-12-17T10:59:08.000Z</time>
      </trkpt>
      <trkpt lat="47.50217" lon="6.76693">
        <ele>446.3</ele>
        <time>2017-12-17T10:59:11.000Z</time>
      </trkpt>
      <trkpt lat="47.50218" lon="6.76695">
        <ele>446.5</ele>
        <time>2017-12-17T10:59:12.000Z</time>
      </trkpt>
      <trkpt lat="47.5022" lon="6.767">
        <ele>446.9</ele>
        <time>2017-12-17T10:59:15.000Z</time>
      </trkpt>
      <trkpt lat="47.50221" lon="6.76702">
        <ele>446.9</ele>
        <time>2017-12-17T10:59:16.000Z</time>
      </trkpt>
      <trkpt lat="47.50222" lon="6.76706">
        <ele>447.2</ele>
        <time>2017-12-17T10:59:20.000Z</time>
      </trkpt>
      <trkpt lat="47.50223" lon="6.76708">
        <ele>447.3</ele>
        <time>2017-12-17T10:59:21.000Z</time>
      </trkpt>
      <trkpt lat="47.50225" lon="6.76714">
        <ele>447.5</ele>
        <time>2017-12-17T10:59:23.000Z</time>
      </trkpt>
      <trkpt lat="47.50226" lon="6.76715">
        <ele>447.5</ele>
        <time>2017-12-17T10:59:24.000Z</time>
      </trkpt>
      <trkpt lat="47.50229" lon="6.7672">
        <ele>447.9</ele>
        <time>2017-12-17T10:59:27.000Z</time>
      </trkpt>
      <trkpt lat="47.5023" lon="6.76722">
        <ele>448</ele>
        <time>2017-12-17T10:59:28.000Z</time>
      </trkpt>
      <trkpt lat="47.50233" lon="6.76727">
        <ele>448.1</ele>
        <time>2017-12-17T10:59:30.000Z</time>
      </trkpt>
      <trkpt lat="47.50234" lon="6.7673">
        <ele>448.3</ele>
        <time>2017-12-17T10:59:31.000Z</time>
      </trkpt>
      <trkpt lat="47.50237" lon="6.76735">
        <ele>448.5</ele>
        <time>2017-12-17T10:59:33.000Z</time>
      </trkpt>
      <trkpt lat="47.50237" lon="6.76737">
        <ele>448.7</ele>
        <time>2017-12-17T10:59:34.000Z</time>
      </trkpt>
      <trkpt lat="47.50239" lon="6.7674">
        <ele>449.1</ele>
        <time>2017-12-17T10:59:36.000Z</time>
      </trkpt>
      <trkpt lat="47.50241" lon="6.76743">
        <ele>449.2</ele>
        <time>2017-12-17T10:59:37.000Z</time>
      </trkpt>
      <trkpt lat="47.50243" lon="6.76746">
        <ele>449.4</ele>
        <time>2017-12-17T10:59:38.000Z</time>
      </trkpt>
      <trkpt lat="47.50246" lon="6.76748">
        <ele>449.5</ele>
        <time>2017-12-17T10:59:39.000Z</time>
      </trkpt>
      <trkpt lat="47.50248" lon="6.7675">
        <ele>449.5</ele>
        <time>2017-12-17T10:59:40.000Z</time>
      </trkpt>
      <trkpt lat="47.50251" lon="6.7675">
        <ele>449.6</ele>
        <time>2017-12-17T10:59:41.000Z</time>
      </trkpt>
      <trkpt lat="47.50254" lon="6.7675">
        <ele>449.6</ele>
        <time>2017-12-17T10:59:42.000Z</time>
      </trkpt>
      <trkpt lat="47.50257" lon="6.7675">
        <ele>449.7</ele>
        <time>2017-12-17T10:59:43.000Z</time>
      </trkpt>
      <trkpt lat="47.5026" lon="6.76749">
        <ele>449.7</ele>
        <time>2017-12-17T10:59:44.000Z</time>
      </trkpt>
      <trkpt lat="47.50263" lon="6.76747">
        <ele>449.8</ele>
        <time>2017-12-17T10:59:45.000Z</time>
      </trkpt>
      <trkpt lat="47.50266" lon="6.76746">
        <ele>449.8</ele>
        <time>2017-12-17T10:59:46.000Z</time>
      </trkpt>
      <trkpt lat="47.50268" lon="6.76746">
        <ele>449.9</ele>
        <time>2017-12-17T10:59:47.000Z</time>
      </trkpt>
      <trkpt lat="47.50271" lon="6.76745">
        <ele>450</ele>
        <time>2017-12-17T10:59:48.000Z</time>
      </trkpt>
      <trkpt lat="47.50274" lon="6.76744">
        <ele>449.9</ele>
        <time>2017-12-17T10:59:49.000Z</time>
      </trkpt>
      <trkpt lat="47.50277" lon="6.76744">
        <ele>449.8</ele>
        <time>2017-12-17T10:59:50.000Z</time>
      </trkpt>
      <trkpt lat="47.50281" lon="6.76743">
        <ele>449.7</ele>
        <time>2017-12-17T10:59:51.000Z</time>
      </trkpt>
      <trkpt lat="47.50284" lon="6.76742">
        <ele>449.5</ele>
        <time>2017-12-17T10:59:52.000Z</time>
      </trkpt>
      <trkpt lat="47.50287" lon="6.7674">
        <ele>449.4</ele>
        <time>2017-12-17T10:59:53.000Z</time>
      </trkpt>
      <trkpt lat="47.50291" lon="6.7674">
        <ele>449.3</ele>
        <time>2017-12-17T10:59:54.000Z</time>
      </trkpt>
      <trkpt lat="47.50294" lon="6.76738">
        <ele>449.2</ele>
        <time>2017-12-17T10:59:55.000Z</time>
      </trkpt>
      <trkpt lat="47.50297" lon="6.76737">
        <ele>449</ele>
        <time>2017-12-17T10:59:56.000Z</time>
      </trkpt>
      <trkpt lat="47.503" lon="6.76737">
        <ele>448.9</ele>
        <time>2017-12-17T10:59:57.000Z</time>
      </trkpt>
      <trkpt lat="47.50303" lon="6.76736">
        <ele>448.8</ele>
        <time>2017-12-17T10:59:58.000Z</time>
      </trkpt>
      <trkpt lat="47.50306" lon="6.76735">
        <ele>448.7</ele>
        <time>2017-12-17T10:59:59.000Z</time>
      </trkpt>
      <trkpt lat="47.50309" lon="6.76735">
        <ele>448.6</ele>
        <time>2017-12-17T11:00:00.000Z</time>
      </trkpt>
      <trkpt lat="47.50312" lon="6.76734">
        <ele>448.5</ele>
        <time>2017-12-17T11:00:01.000Z</time>
      </trkpt>
      <trkpt lat="47.50316" lon="6.76733">
        <ele>448.5</ele>
        <time>2017-12-17T11:00:02.000Z</time>
      </trkpt>
      <trkpt lat="47.50319" lon="6.76731">
        <ele>448.4</ele>
        <time>2017-12-17T11:00:03.000Z</time>
      </trkpt>
      <trkpt lat="47.50322" lon="6.7673">
        <ele>448.4</ele>
        <time>2017-12-17T11:00:04.000Z</time>
      </trkpt>
      <trkpt lat="47.50326" lon="6.76728">
        <ele>448.3</ele>
        <time>2017-12-17T11:00:05.000Z</time>
      </trkpt>
      <trkpt lat="47.5033" lon="6.76727">
        <ele>448.2</ele>
        <time>2017-12-17T11:00:06.000Z</time>
      </trkpt>
      <trkpt lat="47.50333" lon="6.76727">
        <ele>448.1</ele>
        <time>2017-12-17T11:00:07.000Z</time>
      </trkpt>
      <trkpt lat="47.50335" lon="6.76726">
        <ele>448</ele>
        <time>2017-12-17T11:00:08.000Z</time>
      </trkpt>
      <trkpt lat="47.50338" lon="6.76725">
        <ele>448</ele>
        <time>2017-12-17T11:00:09.000Z</time>
      </trkpt>
      <trkpt lat="47.50342" lon="6.76723">
        <ele>448</ele>
        <time>2017-12-17T11:00:10.000Z</time>
      </trkpt>
      <trkpt lat="47.50345" lon="6.76721">
        <ele>448.1</ele>
        <time>2017-12-17T11:00:11.000Z</time>
      </trkpt>
      <trkpt lat="47.50348" lon="6.76719">
        <ele>448.1</ele>
        <time>2017-12-17T11:00:12.000Z</time>
      </trkpt>
      <trkpt lat="47.5035" lon="6.76718">
        <ele>448</ele>
        <time>2017-12-17T11:00:13.000Z</time>
      </trkpt>
      <trkpt lat="47.50353" lon="6.76717">
        <ele>448</ele>
        <time>2017-12-17T11:00:14.000Z</time>
      </trkpt>
      <trkpt lat="47.50356" lon="6.76716">
        <ele>448</ele>
        <time>2017-12-17T11:00:15.000Z</time>
      </trkpt>
      <trkpt lat="47.50359" lon="6.76715">
        <ele>447.9</ele>
        <time>2017-12-17T11:00:16.000Z</time>
      </trkpt>
      <trkpt lat="47.50362" lon="6.76714">
        <ele>447.9</ele>
        <time>2017-12-17T11:00:17.000Z</time>
      </trkpt>
      <trkpt lat="47.50365" lon="6.76713">
        <ele>447.9</ele>
        <time>2017-12-17T11:00:18.000Z</time>
      </trkpt>
      <trkpt lat="47.50368" lon="6.76712">
        <ele>447.9</ele>
        <time>2017-12-17T11:00:19.000Z</time>
      </trkpt>
      <trkpt lat="47.50372" lon="6.76712">
        <ele>447.8</ele>
        <time>2017-12-17T11:00:20.000Z</time>
      </trkpt>
      <trkpt lat="47.50375" lon="6.76711">
        <ele>447.8</ele>
        <time>2017-12-17T11:00:21.000Z</time>
      </trkpt>
      <trkpt lat="47.50379" lon="6.76709">
        <ele>447.8</ele>
        <time>2017-12-17T11:00:22.000Z</time>
      </trkpt>
      <trkpt lat="47.50382" lon="6.76707">
        <ele>447.8</ele>
        <time>2017-12-17T11:00:23.000Z</time>
      </trkpt>
      <trkpt lat="47.50384" lon="6.76706">
        <ele>447.8</ele>
        <time>2017-12-17T11:00:24.000Z</time>
      </trkpt>
      <trkpt lat="47.50387" lon="6.76704">
        <ele>447.9</ele>
        <time>2017-12-17T11:00:25.000Z</time>
      </trkpt>
      <trkpt lat="47.50389" lon="6.76703">
        <ele>447.9</ele>
        <time>2017-12-17T11:00:26.000Z</time>
      </trkpt>
      <trkpt lat="47.50391" lon="6.76702">
        <ele>447.8</ele>
        <time>2017-12-17T11:00:27.000Z</time>
      </trkpt>
      <trkpt lat="47.50393" lon="6.76701">
        <ele>447.8</ele>
        <time>2017-12-17T11:00:28.000Z</time>
      </trkpt>
      <trkpt lat="47.50397" lon="6.767">
        <ele>447.8</ele>
        <time>2017-12-17T11:00:29.000Z</time>
      </trkpt>
      <trkpt lat="47.504" lon="6.76698">
        <ele>447.8</ele>
        <time>2017-12-17T11:00:30.000Z</time>
      </trkpt>
      <trkpt lat="47.50403" lon="6.76696">
        <ele>447.9</ele>
        <time>2017-12-17T11:00:31.000Z</time>
      </trkpt>
      <trkpt lat="47.50407" lon="6.76694">
        <ele>448</ele>
        <time>2017-12-17T11:00:32.000Z</time>
      </trkpt>
      <trkpt lat="47.50409" lon="6.76692">
        <ele>448.1</ele>
        <time>2017-12-17T11:00:33.000Z</time>
      </trkpt>
      <trkpt lat="47.50411" lon="6.76691">
        <ele>448.1</ele>
        <time>2017-12-17T11:00:34.000Z</time>
      </trkpt>
      <trkpt lat="47.50414" lon="6.7669">
        <ele>448.2</ele>
        <time>2017-12-17T11:00:35.000Z</time>
      </trkpt>
      <trkpt lat="47.50417" lon="6.76688">
        <ele>448.2</ele>
        <time>2017-12-17T11:00:36.000Z</time>
      </trkpt>
      <trkpt lat="47.50419" lon="6.76688">
        <ele>448.2</ele>
        <time>2017-12-17T11:00:37.000Z</time>
      </trkpt>
      <trkpt lat="47.50422" lon="6.76686">
        <ele>448.3</ele>
        <time>2017-12-17T11:00:38.000Z</time>
      </trkpt>
      <trkpt lat="47.50424" lon="6.76685">
        <ele>448.3</ele>
        <time>2017-12-17T11:00:39.000Z</time>
      </trkpt>
      <trkpt lat="47.50427" lon="6.76684">
        <ele>448.3</ele>
        <time>2017-12-17T11:00:40.000Z</time>
      </trkpt>
      <trkpt lat="47.50429" lon="6.76683">
        <ele>448.2</ele>
        <time>2017-12-17T11:00:41.000Z</time>
      </trkpt>
      <trkpt lat="47.50432" lon="6.76682">
        <ele>448.2</ele>
        <time>2017-12-17T11:00:42.000Z</time>
      </trkpt>
      <trkpt lat="47.50434" lon="6.76681">
        <ele>448.1</ele>
        <time>2017-12-17T11:00:43.000Z</time>
      </trkpt>
      <trkpt lat="47.50437" lon="6.76679">
        <ele>448.1</ele>
        <time>2017-12-17T11:00:44.000Z</time>
      </trkpt>
      <trkpt lat="47.5044" lon="6.76678">
        <ele>448.1</ele>
        <time>2017-12-17T11:00:45.000Z</time>
      </trkpt>
      <trkpt lat="47.50443" lon="6.76676">
        <ele>448.1</ele>
        <time>2017-12-17T11:00:46.000Z</time>
      </trkpt>
      <trkpt lat="47.50445" lon="6.76674">
        <ele>448.2</ele>
        <time>2017-12-17T11:00:47.000Z</time>
      </trkpt>
      <trkpt lat="47.50448" lon="6.76673">
        <ele>448.2</ele>
        <time>2017-12-17T11:00:48.000Z</time>
      </trkpt>
      <trkpt lat="47.5045" lon="6.76671">
        <ele>448.2</ele>
        <time>2017-12-17T11:00:49.000Z</time>
      </trkpt>
      <trkpt lat="47.50453" lon="6.7667">
        <ele>448.2</ele>
        <time>2017-12-17T11:00:50.000Z</time>
      </trkpt>
      <trkpt lat="47.50456" lon="6.76668">
        <ele>448.2</ele>
        <time>2017-12-17T11:00:51.000Z</time>
      </trkpt>
      <trkpt lat="47.50458" lon="6.76667">
        <ele>448.2</ele>
        <time>2017-12-17T11:00:52.000Z</time>
      </trkpt>
      <trkpt lat="47.50461" lon="6.76666">
        <ele>448.1</ele>
        <time>2017-12-17T11:00:53.000Z</time>
      </trkpt>
      <trkpt lat="47.50463" lon="6.76665">
        <ele>448.1</ele>
        <time>2017-12-17T11:00:54.000Z</time>
      </trkpt>
      <trkpt lat="47.50466" lon="6.76664">
        <ele>448.2</ele>
        <time>2017-12-17T11:00:55.000Z</time>
      </trkpt>
      <trkpt lat="47.50468" lon="6.76662">
        <ele>448.2</ele>
        <time>2017-12-17T11:00:56.000Z</time>
      </trkpt>
      <trkpt lat="47.50471" lon="6.76661">
        <ele>448.2</ele>
        <time>2017-12-17T11:00:57.000Z</time>
      </trkpt>
      <trkpt lat="47.50474" lon="6.7666">
        <ele>448.2</ele>
        <time>2017-12-17T11:00:58.000Z</time>
      </trkpt>
      <trkpt lat="47.50476" lon="6.76659">
        <ele>448.1</ele>
        <time>2017-12-17T11:00:59.000Z</time>
      </trkpt>
      <trkpt lat="47.50479" lon="6.76658">
        <ele>448.1</ele>
        <time>2017-12-17T11:01:00.000Z</time>
      </trkpt>
      <trkpt lat="47.50481" lon="6.76657">
        <ele>448</ele>
        <time>2017-12-17T11:01:01.000Z</time>
      </trkpt>
      <trkpt lat="47.50484" lon="6.76656">
        <ele>448</ele>
        <time>2017-12-17T11:01:02.000Z</time>
      </trkpt>
      <trkpt lat="47.50487" lon="6.76655">
        <ele>448</ele>
        <time>2017-12-17T11:01:03.000Z</time>
      </trkpt>
      <trkpt lat="47.50489" lon="6.76654">
        <ele>448</ele>
        <time>2017-12-17T11:01:04.000Z</time>
      </trkpt>
      <trkpt lat="47.50492" lon="6.76654">
        <ele>448</ele>
        <time>2017-12-17T11:01:05.000Z</time>
      </trkpt>
      <trkpt lat="47.50494" lon="6.76654">
        <ele>448</ele>
        <time>2017-12-17T11:01:06.000Z</time>
      </trkpt>
      <trkpt lat="47.50497" lon="6.76653">
        <ele>448</ele>
        <time>2017-12-17T11:01:07.000Z</time>
      </trkpt>
      <trkpt lat="47.50499" lon="6.76652">
        <ele>448</ele>
        <time>2017-12-17T11:01:08.000Z</time>
      </trkpt>
      <trkpt lat="47.50501" lon="6.76652">
        <ele>447.9</ele>
        <time>2017-12-17T11:01:09.000Z</time>
      </trkpt>
      <trkpt lat="47.50504" lon="6.76651">
        <ele>447.9</ele>
        <time>2017-12-17T11:01:10.000Z</time>
      </trkpt>
      <trkpt lat="47.50507" lon="6.76651">
        <ele>447.9</ele>
        <time>2017-12-17T11:01:11.000Z</time>
      </trkpt>
      <trkpt lat="47.50509" lon="6.76651">
        <ele>447.9</ele>
        <time>2017-12-17T11:01:12.000Z</time>
      </trkpt>
      <trkpt lat="47.50511" lon="6.76652">
        <ele>447.9</ele>
        <time>2017-12-17T11:01:13.000Z</time>
      </trkpt>
      <trkpt lat="47.50512" lon="6.76655">
        <ele>447.9</ele>
        <time>2017-12-17T11:01:14.000Z</time>
      </trkpt>
      <trkpt lat="47.50514" lon="6.7666">
        <ele>447.9</ele>
        <time>2017-12-17T11:01:15.000Z</time>
      </trkpt>
      <trkpt lat="47.50514" lon="6.76664">
        <ele>448.4</ele>
        <time>2017-12-17T11:01:16.000Z</time>
      </trkpt>
      <trkpt lat="47.50515" lon="6.7667">
        <ele>448.2</ele>
        <time>2017-12-17T11:01:17.000Z</time>
      </trkpt>
      <trkpt lat="47.50516" lon="6.76677">
        <ele>448.4</ele>
        <time>2017-12-17T11:01:18.000Z</time>
      </trkpt>
      <trkpt lat="47.5052" lon="6.76685">
        <ele>448.5</ele>
        <time>2017-12-17T11:01:19.000Z</time>
      </trkpt>
      <trkpt lat="47.50524" lon="6.76688">
        <ele>448.2</ele>
        <time>2017-12-17T11:01:20.000Z</time>
      </trkpt>
      <trkpt lat="47.50528" lon="6.76689">
        <ele>448.5</ele>
        <time>2017-12-17T11:01:21.000Z</time>
      </trkpt>
      <trkpt lat="47.50532" lon="6.76689">
        <ele>448.4</ele>
        <time>2017-12-17T11:01:22.000Z</time>
      </trkpt>
      <trkpt lat="47.50535" lon="6.76688">
        <ele>448.3</ele>
        <time>2017-12-17T11:01:23.000Z</time>
      </trkpt>
      <trkpt lat="47.50538" lon="6.76688">
        <ele>448.3</ele>
        <time>2017-12-17T11:01:24.000Z</time>
      </trkpt>
      <trkpt lat="47.50542" lon="6.76688">
        <ele>448.2</ele>
        <time>2017-12-17T11:01:25.000Z</time>
      </trkpt>
      <trkpt lat="47.50544" lon="6.76688">
        <ele>448.2</ele>
        <time>2017-12-17T11:01:26.000Z</time>
      </trkpt>
      <trkpt lat="47.50547" lon="6.76687">
        <ele>448.1</ele>
        <time>2017-12-17T11:01:27.000Z</time>
      </trkpt>
      <trkpt lat="47.50551" lon="6.76687">
        <ele>448</ele>
        <time>2017-12-17T11:01:28.000Z</time>
      </trkpt>
      <trkpt lat="47.50555" lon="6.76686">
        <ele>447.9</ele>
        <time>2017-12-17T11:01:29.000Z</time>
      </trkpt>
      <trkpt lat="47.50558" lon="6.76685">
        <ele>447.8</ele>
        <time>2017-12-17T11:01:30.000Z</time>
      </trkpt>
      <trkpt lat="47.50562" lon="6.76683">
        <ele>447.8</ele>
        <time>2017-12-17T11:01:31.000Z</time>
      </trkpt>
      <trkpt lat="47.50565" lon="6.76682">
        <ele>447.8</ele>
        <time>2017-12-17T11:01:32.000Z</time>
      </trkpt>
      <trkpt lat="47.50568" lon="6.7668">
        <ele>447.8</ele>
        <time>2017-12-17T11:01:33.000Z</time>
      </trkpt>
      <trkpt lat="47.50572" lon="6.76679">
        <ele>447.8</ele>
        <time>2017-12-17T11:01:34.000Z</time>
      </trkpt>
      <trkpt lat="47.50576" lon="6.76678">
        <ele>447.9</ele>
        <time>2017-12-17T11:01:35.000Z</time>
      </trkpt>
      <trkpt lat="47.5058" lon="6.76676">
        <ele>448</ele>
        <time>2017-12-17T11:01:36.000Z</time>
      </trkpt>
      <trkpt lat="47.50584" lon="6.76676">
        <ele>448</ele>
        <time>2017-12-17T11:01:37.000Z</time>
      </trkpt>
      <trkpt lat="47.50588" lon="6.76675">
        <ele>448.4</ele>
        <time>2017-12-17T11:01:38.000Z</time>
      </trkpt>
      <trkpt lat="47.50592" lon="6.76674">
        <ele>448.5</ele>
        <time>2017-12-17T11:01:39.000Z</time>
      </trkpt>
      <trkpt lat="47.50597" lon="6.76672">
        <ele>448.1</ele>
        <time>2017-12-17T11:01:40.000Z</time>
      </trkpt>
      <trkpt lat="47.506" lon="6.76671">
        <ele>447.6</ele>
        <time>2017-12-17T11:01:41.000Z</time>
      </trkpt>
      <trkpt lat="47.50604" lon="6.7667">
        <ele>447.3</ele>
        <time>2017-12-17T11:01:42.000Z</time>
      </trkpt>
      <trkpt lat="47.50609" lon="6.76669">
        <ele>446.8</ele>
        <time>2017-12-17T11:01:43.000Z</time>
      </trkpt>
      <trkpt lat="47.50614" lon="6.76667">
        <ele>446.8</ele>
        <time>2017-12-17T11:01:44.000Z</time>
      </trkpt>
      <trkpt lat="47.50619" lon="6.76666">
        <ele>447</ele>
        <time>2017-12-17T11:01:45.000Z</time>
      </trkpt>
      <trkpt lat="47.50625" lon="6.76663">
        <ele>447.5</ele>
        <time>2017-12-17T11:01:46.000Z</time>
      </trkpt>
      <trkpt lat="47.50631" lon="6.76662">
        <ele>447.8</ele>
        <time>2017-12-17T11:01:47.000Z</time>
      </trkpt>
      <trkpt lat="47.50637" lon="6.7666">
        <ele>448.1</ele>
        <time>2017-12-17T11:01:48.000Z</time>
      </trkpt>
      <trkpt lat="47.50643" lon="6.76658">
        <ele>448.4</ele>
        <time>2017-12-17T11:01:49.000Z</time>
      </trkpt>
      <trkpt lat="47.50649" lon="6.76657">
        <ele>448</ele>
        <time>2017-12-17T11:01:50.000Z</time>
      </trkpt>
      <trkpt lat="47.50655" lon="6.76656">
        <ele>447.3</ele>
        <time>2017-12-17T11:01:51.000Z</time>
      </trkpt>
      <trkpt lat="47.5066" lon="6.76652">
        <ele>447.1</ele>
        <time>2017-12-17T11:01:52.000Z</time>
      </trkpt>
      <trkpt lat="47.50665" lon="6.76646">
        <ele>446.8</ele>
        <time>2017-12-17T11:01:53.000Z</time>
      </trkpt>
      <trkpt lat="47.5067" lon="6.76642">
        <ele>446.8</ele>
        <time>2017-12-17T11:01:54.000Z</time>
      </trkpt>
      <trkpt lat="47.50676" lon="6.76638">
        <ele>446.6</ele>
        <time>2017-12-17T11:01:55.000Z</time>
      </trkpt>
      <trkpt lat="47.50681" lon="6.76636">
        <ele>446</ele>
        <time>2017-12-17T11:01:56.000Z</time>
      </trkpt>
      <trkpt lat="47.50686" lon="6.76634">
        <ele>444.9</ele>
        <time>2017-12-17T11:01:57.000Z</time>
      </trkpt>
      <trkpt lat="47.5069" lon="6.76631">
        <ele>444.5</ele>
        <time>2017-12-17T11:01:58.000Z</time>
      </trkpt>
      <trkpt lat="47.50695" lon="6.7663">
        <ele>444.2</ele>
        <time>2017-12-17T11:01:59.000Z</time>
      </trkpt>
      <trkpt lat="47.507" lon="6.7663">
        <ele>443.6</ele>
        <time>2017-12-17T11:02:00.000Z</time>
      </trkpt>
      <trkpt lat="47.50705" lon="6.76631">
        <ele>443</ele>
        <time>2017-12-17T11:02:01.000Z</time>
      </trkpt>
      <trkpt lat="47.5071" lon="6.76631">
        <ele>442.4</ele>
        <time>2017-12-17T11:02:02.000Z</time>
      </trkpt>
      <trkpt lat="47.50714" lon="6.76632">
        <ele>442.4</ele>
        <time>2017-12-17T11:02:03.000Z</time>
      </trkpt>
      <trkpt lat="47.50719" lon="6.76632">
        <ele>442.3</ele>
        <time>2017-12-17T11:02:04.000Z</time>
      </trkpt>
      <trkpt lat="47.50723" lon="6.76633">
        <ele>442.3</ele>
        <time>2017-12-17T11:02:05.000Z</time>
      </trkpt>
      <trkpt lat="47.50727" lon="6.76634">
        <ele>442.3</ele>
        <time>2017-12-17T11:02:06.000Z</time>
      </trkpt>
      <trkpt lat="47.5073" lon="6.76634">
        <ele>442.3</ele>
        <time>2017-12-17T11:02:07.000Z</time>
      </trkpt>
      <trkpt lat="47.50733" lon="6.76636">
        <ele>442.3</ele>
        <time>2017-12-17T11:02:08.000Z</time>
      </trkpt>
      <trkpt lat="47.50736" lon="6.76637">
        <ele>442.2</ele>
        <time>2017-12-17T11:02:09.000Z</time>
      </trkpt>
      <trkpt lat="47.50739" lon="6.76639">
        <ele>442.2</ele>
        <time>2017-12-17T11:02:10.000Z</time>
      </trkpt>
      <trkpt lat="47.50743" lon="6.76642">
        <ele>442.2</ele>
        <time>2017-12-17T11:02:11.000Z</time>
      </trkpt>
      <trkpt lat="47.50746" lon="6.76646">
        <ele>442.2</ele>
        <time>2017-12-17T11:02:12.000Z</time>
      </trkpt>
      <trkpt lat="47.50749" lon="6.76649">
        <ele>443</ele>
        <time>2017-12-17T11:02:13.000Z</time>
      </trkpt>
      <trkpt lat="47.5075" lon="6.76653">
        <ele>443.6</ele>
        <time>2017-12-17T11:02:14.000Z</time>
      </trkpt>
      <trkpt lat="47.50752" lon="6.76658">
        <ele>444.4</ele>
        <time>2017-12-17T11:02:15.000Z</time>
      </trkpt>
      <trkpt lat="47.50754" lon="6.76663">
        <ele>445.3</ele>
        <time>2017-12-17T11:02:16.000Z</time>
      </trkpt>
      <trkpt lat="47.50756" lon="6.76668">
        <ele>445.6</ele>
        <time>2017-12-17T11:02:17.000Z</time>
      </trkpt>
      <trkpt lat="47.50759" lon="6.76674">
        <ele>445.5</ele>
        <time>2017-12-17T11:02:18.000Z</time>
      </trkpt>
      <trkpt lat="47.50761" lon="6.7668">
        <ele>445.8</ele>
        <time>2017-12-17T11:02:19.000Z</time>
      </trkpt>
      <trkpt lat="47.50764" lon="6.76686">
        <ele>445.5</ele>
        <time>2017-12-17T11:02:20.000Z</time>
      </trkpt>
      <trkpt lat="47.50767" lon="6.76691">
        <ele>445.6</ele>
        <time>2017-12-17T11:02:21.000Z</time>
      </trkpt>
      <trkpt lat="47.50771" lon="6.76698">
        <ele>445.6</ele>
        <time>2017-12-17T11:02:22.000Z</time>
      </trkpt>
      <trkpt lat="47.50774" lon="6.76704">
        <ele>445.5</ele>
        <time>2017-12-17T11:02:23.000Z</time>
      </trkpt>
      <trkpt lat="47.50777" lon="6.7671">
        <ele>445.4</ele>
        <time>2017-12-17T11:02:24.000Z</time>
      </trkpt>
      <trkpt lat="47.5078" lon="6.76715">
        <ele>445</ele>
        <time>2017-12-17T11:02:25.000Z</time>
      </trkpt>
      <trkpt lat="47.50782" lon="6.7672">
        <ele>444.4</ele>
        <time>2017-12-17T11:02:26.000Z</time>
      </trkpt>
      <trkpt lat="47.50783" lon="6.76726">
        <ele>444.2</ele>
        <time>2017-12-17T11:02:27.000Z</time>
      </trkpt>
      <trkpt lat="47.50783" lon="6.76733">
        <ele>444.6</ele>
        <time>2017-12-17T11:02:28.000Z</time>
      </trkpt>
      <trkpt lat="47.50783" lon="6.76739">
        <ele>444.5</ele>
        <time>2017-12-17T11:02:29.000Z</time>
      </trkpt>
      <trkpt lat="47.50784" lon="6.76747">
        <ele>443.6</ele>
        <time>2017-12-17T11:02:30.000Z</time>
      </trkpt>
      <trkpt lat="47.50786" lon="6.76753">
        <ele>443.4</ele>
        <time>2017-12-17T11:02:31.000Z</time>
      </trkpt>
      <trkpt lat="47.50789" lon="6.7676">
        <ele>443.2</ele>
        <time>2017-12-17T11:02:32.000Z</time>
      </trkpt>
      <trkpt lat="47.50791" lon="6.76767">
        <ele>442.9</ele>
        <time>2017-12-17T11:02:33.000Z</time>
      </trkpt>
      <trkpt lat="47.50794" lon="6.76774">
        <ele>442.8</ele>
        <time>2017-12-17T11:02:34.000Z</time>
      </trkpt>
      <trkpt lat="47.50797" lon="6.7678">
        <ele>443.2</ele>
        <time>2017-12-17T11:02:35.000Z</time>
      </trkpt>
      <trkpt lat="47.50801" lon="6.76788">
        <ele>443.2</ele>
        <time>2017-12-17T11:02:36.000Z</time>
      </trkpt>
      <trkpt lat="47.50805" lon="6.76795">
        <ele>443</ele>
        <time>2017-12-17T11:02:37.000Z</time>
      </trkpt>
      <trkpt lat="47.50809" lon="6.76804">
        <ele>442.7</ele>
        <time>2017-12-17T11:02:38.000Z</time>
      </trkpt>
      <trkpt lat="47.50813" lon="6.76812">
        <ele>442.8</ele>
        <time>2017-12-17T11:02:39.000Z</time>
      </trkpt>
      <trkpt lat="47.50816" lon="6.76819">
        <ele>442.8</ele>
        <time>2017-12-17T11:02:40.000Z</time>
      </trkpt>
      <trkpt lat="47.50819" lon="6.76827">
        <ele>443.1</ele>
        <time>2017-12-17T11:02:41.000Z</time>
      </trkpt>
      <trkpt lat="47.50824" lon="6.76835">
        <ele>443</ele>
        <time>2017-12-17T11:02:42.000Z</time>
      </trkpt>
      <trkpt lat="47.50828" lon="6.76842">
        <ele>442.9</ele>
        <time>2017-12-17T11:02:43.000Z</time>
      </trkpt>
      <trkpt lat="47.50832" lon="6.7685">
        <ele>442.5</ele>
        <time>2017-12-17T11:02:44.000Z</time>
      </trkpt>
      <trkpt lat="47.50837" lon="6.76857">
        <ele>441.7</ele>
        <time>2017-12-17T11:02:45.000Z</time>
      </trkpt>
      <trkpt lat="47.50842" lon="6.76864">
        <ele>441.2</ele>
        <time>2017-12-17T11:02:46.000Z</time>
      </trkpt>
      <trkpt lat="47.50847" lon="6.76871">
        <ele>440.6</ele>
        <time>2017-12-17T11:02:47.000Z</time>
      </trkpt>
      <trkpt lat="47.50853" lon="6.76878">
        <ele>440.2</ele>
        <time>2017-12-17T11:02:48.000Z</time>
      </trkpt>
      <trkpt lat="47.50859" lon="6.76885">
        <ele>439.7</ele>
        <time>2017-12-17T11:02:49.000Z</time>
      </trkpt>
      <trkpt lat="47.50864" lon="6.76891">
        <ele>439.6</ele>
        <time>2017-12-17T11:02:50.000Z</time>
      </trkpt>
      <trkpt lat="47.50868" lon="6.76896">
        <ele>439.2</ele>
        <time>2017-12-17T11:02:51.000Z</time>
      </trkpt>
      <trkpt lat="47.50873" lon="6.76902">
        <ele>439.2</ele>
        <time>2017-12-17T11:02:52.000Z</time>
      </trkpt>
      <trkpt lat="47.50877" lon="6.76907">
        <ele>438.9</ele>
        <time>2017-12-17T11:02:53.000Z</time>
      </trkpt>
      <trkpt lat="47.50882" lon="6.76912">
        <ele>438.4</ele>
        <time>2017-12-17T11:02:54.000Z</time>
      </trkpt>
      <trkpt lat="47.50886" lon="6.76915">
        <ele>438.2</ele>
        <time>2017-12-17T11:02:55.000Z</time>
      </trkpt>
      <trkpt lat="47.5089" lon="6.7692">
        <ele>438</ele>
        <time>2017-12-17T11:02:56.000Z</time>
      </trkpt>
      <trkpt lat="47.50894" lon="6.76923">
        <ele>438.2</ele>
        <time>2017-12-17T11:02:57.000Z</time>
      </trkpt>
      <trkpt lat="47.50899" lon="6.76927">
        <ele>438.3</ele>
        <time>2017-12-17T11:02:58.000Z</time>
      </trkpt>
      <trkpt lat="47.50904" lon="6.76929">
        <ele>438.4</ele>
        <time>2017-12-17T11:02:59.000Z</time>
      </trkpt>
      <trkpt lat="47.50909" lon="6.76931">
        <ele>438.5</ele>
        <time>2017-12-17T11:03:00.000Z</time>
      </trkpt>
      <trkpt lat="47.50913" lon="6.76934">
        <ele>438.3</ele>
        <time>2017-12-17T11:03:01.000Z</time>
      </trkpt>
      <trkpt lat="47.50919" lon="6.76936">
        <ele>438.1</ele>
        <time>2017-12-17T11:03:02.000Z</time>
      </trkpt>
      <trkpt lat="47.50924" lon="6.76938">
        <ele>437.4</ele>
        <time>2017-12-17T11:03:03.000Z</time>
      </trkpt>
      <trkpt lat="47.50929" lon="6.76938">
        <ele>436.4</ele>
        <time>2017-12-17T11:03:04.000Z</time>
      </trkpt>
      <trkpt lat="47.50934" lon="6.7694">
        <ele>435.7</ele>
        <time>2017-12-17T11:03:05.000Z</time>
      </trkpt>
      <trkpt lat="47.5094" lon="6.76941">
        <ele>434.4</ele>
        <time>2017-12-17T11:03:06.000Z</time>
      </trkpt>
      <trkpt lat="47.50946" lon="6.7694">
        <ele>432.8</ele>
        <time>2017-12-17T11:03:07.000Z</time>
      </trkpt>
      <trkpt lat="47.50952" lon="6.76939">
        <ele>431.4</ele>
        <time>2017-12-17T11:03:08.000Z</time>
      </trkpt>
      <trkpt lat="47.50958" lon="6.76938">
        <ele>430.3</ele>
        <time>2017-12-17T11:03:09.000Z</time>
      </trkpt>
      <trkpt lat="47.50963" lon="6.76938">
        <ele>429.5</ele>
        <time>2017-12-17T11:03:10.000Z</time>
      </trkpt>
      <trkpt lat="47.50969" lon="6.76938">
        <ele>430.2</ele>
        <time>2017-12-17T11:03:11.000Z</time>
      </trkpt>
      <trkpt lat="47.50976" lon="6.76939">
        <ele>429.2</ele>
        <time>2017-12-17T11:03:12.000Z</time>
      </trkpt>
      <trkpt lat="47.50983" lon="6.76939">
        <ele>428</ele>
        <time>2017-12-17T11:03:13.000Z</time>
      </trkpt>
      <trkpt lat="47.50988" lon="6.76938">
        <ele>427.1</ele>
        <time>2017-12-17T11:03:14.000Z</time>
      </trkpt>
      <trkpt lat="47.50993" lon="6.76937">
        <ele>426.6</ele>
        <time>2017-12-17T11:03:15.000Z</time>
      </trkpt>
      <trkpt lat="47.50999" lon="6.76937">
        <ele>426.1</ele>
        <time>2017-12-17T11:03:16.000Z</time>
      </trkpt>
      <trkpt lat="47.51003" lon="6.76937">
        <ele>425.4</ele>
        <time>2017-12-17T11:03:17.000Z</time>
      </trkpt>
      <trkpt lat="47.5101" lon="6.76939">
        <ele>424.5</ele>
        <time>2017-12-17T11:03:18.000Z</time>
      </trkpt>
      <trkpt lat="47.51015" lon="6.76942">
        <ele>424.3</ele>
        <time>2017-12-17T11:03:19.000Z</time>
      </trkpt>
      <trkpt lat="47.5102" lon="6.76945">
        <ele>423.8</ele>
        <time>2017-12-17T11:03:20.000Z</time>
      </trkpt>
      <trkpt lat="47.51026" lon="6.76949">
        <ele>424.3</ele>
        <time>2017-12-17T11:03:21.000Z</time>
      </trkpt>
      <trkpt lat="47.51031" lon="6.76953">
        <ele>424.5</ele>
        <time>2017-12-17T11:03:22.000Z</time>
      </trkpt>
      <trkpt lat="47.51036" lon="6.76958">
        <ele>425.2</ele>
        <time>2017-12-17T11:03:23.000Z</time>
      </trkpt>
      <trkpt lat="47.51041" lon="6.76962">
        <ele>425.3</ele>
        <time>2017-12-17T11:03:24.000Z</time>
      </trkpt>
      <trkpt lat="47.51046" lon="6.76966">
        <ele>425.3</ele>
        <time>2017-12-17T11:03:25.000Z</time>
      </trkpt>
      <trkpt lat="47.5105" lon="6.76971">
        <ele>424.9</ele>
        <time>2017-12-17T11:03:26.000Z</time>
      </trkpt>
      <trkpt lat="47.51055" lon="6.76975">
        <ele>425</ele>
        <time>2017-12-17T11:03:27.000Z</time>
      </trkpt>
      <trkpt lat="47.51059" lon="6.76979">
        <ele>425.1</ele>
        <time>2017-12-17T11:03:28.000Z</time>
      </trkpt>
      <trkpt lat="47.51064" lon="6.76983">
        <ele>425.1</ele>
        <time>2017-12-17T11:03:29.000Z</time>
      </trkpt>
      <trkpt lat="47.51069" lon="6.76987">
        <ele>424.9</ele>
        <time>2017-12-17T11:03:30.000Z</time>
      </trkpt>
      <trkpt lat="47.51073" lon="6.76991">
        <ele>425</ele>
        <time>2017-12-17T11:03:31.000Z</time>
      </trkpt>
      <trkpt lat="47.51078" lon="6.76995">
        <ele>424.5</ele>
        <time>2017-12-17T11:03:32.000Z</time>
      </trkpt>
      <trkpt lat="47.51082" lon="6.76999">
        <ele>424.5</ele>
        <time>2017-12-17T11:03:33.000Z</time>
      </trkpt>
      <trkpt lat="47.51085" lon="6.77002">
        <ele>424.8</ele>
        <time>2017-12-17T11:03:34.000Z</time>
      </trkpt>
      <trkpt lat="47.51089" lon="6.77006">
        <ele>424.7</ele>
        <time>2017-12-17T11:03:35.000Z</time>
      </trkpt>
      <trkpt lat="47.51093" lon="6.77011">
        <ele>425</ele>
        <time>2017-12-17T11:03:36.000Z</time>
      </trkpt>
      <trkpt lat="47.51098" lon="6.77015">
        <ele>425.4</ele>
        <time>2017-12-17T11:03:37.000Z</time>
      </trkpt>
      <trkpt lat="47.51103" lon="6.7702">
        <ele>425.7</ele>
        <time>2017-12-17T11:03:38.000Z</time>
      </trkpt>
      <trkpt lat="47.51109" lon="6.77025">
        <ele>425.4</ele>
        <time>2017-12-17T11:03:39.000Z</time>
      </trkpt>
      <trkpt lat="47.51114" lon="6.77029">
        <ele>425.1</ele>
        <time>2017-12-17T11:03:40.000Z</time>
      </trkpt>
      <trkpt lat="47.51119" lon="6.77033">
        <ele>425.2</ele>
        <time>2017-12-17T11:03:41.000Z</time>
      </trkpt>
      <trkpt lat="47.51123" lon="6.77036">
        <ele>425.7</ele>
        <time>2017-12-17T11:03:42.000Z</time>
      </trkpt>
      <trkpt lat="47.51126" lon="6.77039">
        <ele>425.8</ele>
        <time>2017-12-17T11:03:43.000Z</time>
      </trkpt>
      <trkpt lat="47.51129" lon="6.77042">
        <ele>425.8</ele>
        <time>2017-12-17T11:03:44.000Z</time>
      </trkpt>
      <trkpt lat="47.51134" lon="6.77046">
        <ele>424.3</ele>
        <time>2017-12-17T11:03:45.000Z</time>
      </trkpt>
      <trkpt lat="47.51137" lon="6.7705">
        <ele>424.3</ele>
        <time>2017-12-17T11:03:46.000Z</time>
      </trkpt>
      <trkpt lat="47.5114" lon="6.77053">
        <ele>423.8</ele>
        <time>2017-12-17T11:03:47.000Z</time>
      </trkpt>
      <trkpt lat="47.51144" lon="6.77056">
        <ele>423.1</ele>
        <time>2017-12-17T11:03:48.000Z</time>
      </trkpt>
      <trkpt lat="47.51149" lon="6.7706">
        <ele>422.7</ele>
        <time>2017-12-17T11:03:49.000Z</time>
      </trkpt>
      <trkpt lat="47.51154" lon="6.77065">
        <ele>422.1</ele>
        <time>2017-12-17T11:03:50.000Z</time>
      </trkpt>
      <trkpt lat="47.51158" lon="6.7707">
        <ele>421.8</ele>
        <time>2017-12-17T11:03:51.000Z</time>
      </trkpt>
      <trkpt lat="47.51162" lon="6.77074">
        <ele>422.2</ele>
        <time>2017-12-17T11:03:52.000Z</time>
      </trkpt>
      <trkpt lat="47.51166" lon="6.77079">
        <ele>422.7</ele>
        <time>2017-12-17T11:03:53.000Z</time>
      </trkpt>
      <trkpt lat="47.51168" lon="6.77083">
        <ele>423.4</ele>
        <time>2017-12-17T11:03:54.000Z</time>
      </trkpt>
      <trkpt lat="47.51171" lon="6.77088">
        <ele>424.3</ele>
        <time>2017-12-17T11:03:55.000Z</time>
      </trkpt>
      <trkpt lat="47.51173" lon="6.77092">
        <ele>425.2</ele>
        <time>2017-12-17T11:03:56.000Z</time>
      </trkpt>
      <trkpt lat="47.51175" lon="6.77096">
        <ele>426.5</ele>
        <time>2017-12-17T11:03:57.000Z</time>
      </trkpt>
      <trkpt lat="47.51177" lon="6.77101">
        <ele>426.7</ele>
        <time>2017-12-17T11:03:58.000Z</time>
      </trkpt>
      <trkpt lat="47.5118" lon="6.77107">
        <ele>427.5</ele>
        <time>2017-12-17T11:03:59.000Z</time>
      </trkpt>
      <trkpt lat="47.51182" lon="6.77112">
        <ele>428.4</ele>
        <time>2017-12-17T11:04:00.000Z</time>
      </trkpt>
      <trkpt lat="47.51185" lon="6.77118">
        <ele>428.5</ele>
        <time>2017-12-17T11:04:01.000Z</time>
      </trkpt>
      <trkpt lat="47.51187" lon="6.77122">
        <ele>428.6</ele>
        <time>2017-12-17T11:04:02.000Z</time>
      </trkpt>
      <trkpt lat="47.5119" lon="6.77127">
        <ele>428.6</ele>
        <time>2017-12-17T11:04:03.000Z</time>
      </trkpt>
      <trkpt lat="47.51192" lon="6.77131">
        <ele>428.7</ele>
        <time>2017-12-17T11:04:04.000Z</time>
      </trkpt>
      <trkpt lat="47.51194" lon="6.77135">
        <ele>428.7</ele>
        <time>2017-12-17T11:04:05.000Z</time>
      </trkpt>
      <trkpt lat="47.51196" lon="6.77138">
        <ele>428.8</ele>
        <time>2017-12-17T11:04:06.000Z</time>
      </trkpt>
      <trkpt lat="47.51199" lon="6.77143">
        <ele>428.8</ele>
        <time>2017-12-17T11:04:07.000Z</time>
      </trkpt>
      <trkpt lat="47.51201" lon="6.77148">
        <ele>428.9</ele>
        <time>2017-12-17T11:04:08.000Z</time>
      </trkpt>
      <trkpt lat="47.51203" lon="6.77152">
        <ele>428.9</ele>
        <time>2017-12-17T11:04:09.000Z</time>
      </trkpt>
      <trkpt lat="47.51205" lon="6.77155">
        <ele>429.1</ele>
        <time>2017-12-17T11:04:10.000Z</time>
      </trkpt>
      <trkpt lat="47.51208" lon="6.77159">
        <ele>429.1</ele>
        <time>2017-12-17T11:04:11.000Z</time>
      </trkpt>
      <trkpt lat="47.5121" lon="6.77163">
        <ele>429.2</ele>
        <time>2017-12-17T11:04:12.000Z</time>
      </trkpt>
      <trkpt lat="47.51212" lon="6.77168">
        <ele>429.3</ele>
        <time>2017-12-17T11:04:13.000Z</time>
      </trkpt>
      <trkpt lat="47.51213" lon="6.77171">
        <ele>429.5</ele>
        <time>2017-12-17T11:04:14.000Z</time>
      </trkpt>
      <trkpt lat="47.51215" lon="6.77174">
        <ele>429.6</ele>
        <time>2017-12-17T11:04:15.000Z</time>
      </trkpt>
      <trkpt lat="47.51216" lon="6.77177">
        <ele>429.9</ele>
        <time>2017-12-17T11:04:16.000Z</time>
      </trkpt>
      <trkpt lat="47.51217" lon="6.7718">
        <ele>430.1</ele>
        <time>2017-12-17T11:04:17.000Z</time>
      </trkpt>
      <trkpt lat="47.5122" lon="6.77185">
        <ele>430.2</ele>
        <time>2017-12-17T11:04:18.000Z</time>
      </trkpt>
      <trkpt lat="47.51221" lon="6.77187">
        <ele>430.3</ele>
        <time>2017-12-17T11:04:19.000Z</time>
      </trkpt>
      <trkpt lat="47.51222" lon="6.77191">
        <ele>430.5</ele>
        <time>2017-12-17T11:04:20.000Z</time>
      </trkpt>
      <trkpt lat="47.51224" lon="6.77194">
        <ele>430.6</ele>
        <time>2017-12-17T11:04:21.000Z</time>
      </trkpt>
      <trkpt lat="47.51225" lon="6.77198">
        <ele>430.8</ele>
        <time>2017-12-17T11:04:22.000Z</time>
      </trkpt>
      <trkpt lat="47.51227" lon="6.77202">
        <ele>431</ele>
        <time>2017-12-17T11:04:23.000Z</time>
      </trkpt>
      <trkpt lat="47.5123" lon="6.77207">
        <ele>431.1</ele>
        <time>2017-12-17T11:04:24.000Z</time>
      </trkpt>
      <trkpt lat="47.51232" lon="6.77211">
        <ele>431.2</ele>
        <time>2017-12-17T11:04:25.000Z</time>
      </trkpt>
      <trkpt lat="47.51233" lon="6.77214">
        <ele>431.4</ele>
        <time>2017-12-17T11:04:26.000Z</time>
      </trkpt>
      <trkpt lat="47.51234" lon="6.77218">
        <ele>431.6</ele>
        <time>2017-12-17T11:04:27.000Z</time>
      </trkpt>
      <trkpt lat="47.51236" lon="6.77221">
        <ele>431.8</ele>
        <time>2017-12-17T11:04:28.000Z</time>
      </trkpt>
      <trkpt lat="47.51237" lon="6.77225">
        <ele>431.9</ele>
        <time>2017-12-17T11:04:29.000Z</time>
      </trkpt>
      <trkpt lat="47.51239" lon="6.7723">
        <ele>432</ele>
        <time>2017-12-17T11:04:30.000Z</time>
      </trkpt>
      <trkpt lat="47.51241" lon="6.77234">
        <ele>432.1</ele>
        <time>2017-12-17T11:04:31.000Z</time>
      </trkpt>
      <trkpt lat="47.51243" lon="6.77238">
        <ele>432.3</ele>
        <time>2017-12-17T11:04:32.000Z</time>
      </trkpt>
      <trkpt lat="47.51245" lon="6.77241">
        <ele>432.5</ele>
        <time>2017-12-17T11:04:33.000Z</time>
      </trkpt>
      <trkpt lat="47.51248" lon="6.77245">
        <ele>432.6</ele>
        <time>2017-12-17T11:04:34.000Z</time>
      </trkpt>
      <trkpt lat="47.51251" lon="6.77249">
        <ele>432.8</ele>
        <time>2017-12-17T11:04:35.000Z</time>
      </trkpt>
      <trkpt lat="47.51253" lon="6.77252">
        <ele>433</ele>
        <time>2017-12-17T11:04:36.000Z</time>
      </trkpt>
      <trkpt lat="47.51256" lon="6.77256">
        <ele>433</ele>
        <time>2017-12-17T11:04:37.000Z</time>
      </trkpt>
      <trkpt lat="47.51258" lon="6.77259">
        <ele>433.1</ele>
        <time>2017-12-17T11:04:38.000Z</time>
      </trkpt>
      <trkpt lat="47.51262" lon="6.77261">
        <ele>434</ele>
        <time>2017-12-17T11:04:39.000Z</time>
      </trkpt>
      <trkpt lat="47.51266" lon="6.77264">
        <ele>434.5</ele>
        <time>2017-12-17T11:04:40.000Z</time>
      </trkpt>
      <trkpt lat="47.5127" lon="6.77266">
        <ele>434.8</ele>
        <time>2017-12-17T11:04:41.000Z</time>
      </trkpt>
      <trkpt lat="47.51274" lon="6.77268">
        <ele>435.4</ele>
        <time>2017-12-17T11:04:42.000Z</time>
      </trkpt>
      <trkpt lat="47.5128" lon="6.77272">
        <ele>435</ele>
        <time>2017-12-17T11:04:43.000Z</time>
      </trkpt>
      <trkpt lat="47.51285" lon="6.77274">
        <ele>434.6</ele>
        <time>2017-12-17T11:04:44.000Z</time>
      </trkpt>
      <trkpt lat="47.5129" lon="6.77276">
        <ele>434.5</ele>
        <time>2017-12-17T11:04:45.000Z</time>
      </trkpt>
      <trkpt lat="47.51296" lon="6.77279">
        <ele>434.1</ele>
        <time>2017-12-17T11:04:46.000Z</time>
      </trkpt>
      <trkpt lat="47.51301" lon="6.77282">
        <ele>433.5</ele>
        <time>2017-12-17T11:04:47.000Z</time>
      </trkpt>
      <trkpt lat="47.51306" lon="6.77284">
        <ele>432.3</ele>
        <time>2017-12-17T11:04:48.000Z</time>
      </trkpt>
      <trkpt lat="47.51311" lon="6.77286">
        <ele>431.4</ele>
        <time>2017-12-17T11:04:49.000Z</time>
      </trkpt>
      <trkpt lat="47.51317" lon="6.77289">
        <ele>430.2</ele>
        <time>2017-12-17T11:04:50.000Z</time>
      </trkpt>
      <trkpt lat="47.51322" lon="6.7729">
        <ele>429.5</ele>
        <time>2017-12-17T11:04:51.000Z</time>
      </trkpt>
      <trkpt lat="47.51328" lon="6.77289">
        <ele>430.1</ele>
        <time>2017-12-17T11:04:52.000Z</time>
      </trkpt>
      <trkpt lat="47.51335" lon="6.77288">
        <ele>430.5</ele>
        <time>2017-12-17T11:04:53.000Z</time>
      </trkpt>
      <trkpt lat="47.51342" lon="6.77284">
        <ele>430.7</ele>
        <time>2017-12-17T11:04:54.000Z</time>
      </trkpt>
      <trkpt lat="47.51349" lon="6.7728">
        <ele>430.8</ele>
        <time>2017-12-17T11:04:55.000Z</time>
      </trkpt>
      <trkpt lat="47.51356" lon="6.77274">
        <ele>430.7</ele>
        <time>2017-12-17T11:04:56.000Z</time>
      </trkpt>
      <trkpt lat="47.51362" lon="6.77267">
        <ele>430.2</ele>
        <time>2017-12-17T11:04:57.000Z</time>
      </trkpt>
      <trkpt lat="47.51368" lon="6.77261">
        <ele>429.5</ele>
        <time>2017-12-17T11:04:58.000Z</time>
      </trkpt>
      <trkpt lat="47.51376" lon="6.77255">
        <ele>428.8</ele>
        <time>2017-12-17T11:04:59.000Z</time>
      </trkpt>
      <trkpt lat="47.51383" lon="6.77249">
        <ele>428.3</ele>
        <time>2017-12-17T11:05:00.000Z</time>
      </trkpt>
      <trkpt lat="47.5139" lon="6.77243">
        <ele>427.8</ele>
        <time>2017-12-17T11:05:01.000Z</time>
      </trkpt>
      <trkpt lat="47.51398" lon="6.77238">
        <ele>427</ele>
        <time>2017-12-17T11:05:02.000Z</time>
      </trkpt>
      <trkpt lat="47.51406" lon="6.77233">
        <ele>426.8</ele>
        <time>2017-12-17T11:05:03.000Z</time>
      </trkpt>
      <trkpt lat="47.51414" lon="6.77228">
        <ele>426.5</ele>
        <time>2017-12-17T11:05:04.000Z</time>
      </trkpt>
      <trkpt lat="47.51422" lon="6.77224">
        <ele>425.9</ele>
        <time>2017-12-17T11:05:05.000Z</time>
      </trkpt>
      <trkpt lat="47.51429" lon="6.7722">
        <ele>425.6</ele>
        <time>2017-12-17T11:05:06.000Z</time>
      </trkpt>
      <trkpt lat="47.51437" lon="6.77216">
        <ele>425.5</ele>
        <time>2017-12-17T11:05:07.000Z</time>
      </trkpt>
      <trkpt lat="47.51445" lon="6.77212">
        <ele>425.3</ele>
        <time>2017-12-17T11:05:08.000Z</time>
      </trkpt>
      <trkpt lat="47.51453" lon="6.77209">
        <ele>424.9</ele>
        <time>2017-12-17T11:05:09.000Z</time>
      </trkpt>
      <trkpt lat="47.51459" lon="6.77207">
        <ele>424.5</ele>
        <time>2017-12-17T11:05:10.000Z</time>
      </trkpt>
      <trkpt lat="47.51465" lon="6.77204">
        <ele>424.3</ele>
        <time>2017-12-17T11:05:11.000Z</time>
      </trkpt>
      <trkpt lat="47.5147" lon="6.77202">
        <ele>424.2</ele>
        <time>2017-12-17T11:05:12.000Z</time>
      </trkpt>
      <trkpt lat="47.51473" lon="6.77202">
        <ele>424.1</ele>
        <time>2017-12-17T11:05:13.000Z</time>
      </trkpt>
      <trkpt lat="47.51477" lon="6.77205">
        <ele>423.6</ele>
        <time>2017-12-17T11:05:14.000Z</time>
      </trkpt>
      <trkpt lat="47.51479" lon="6.77208">
        <ele>423.1</ele>
        <time>2017-12-17T11:05:15.000Z</time>
      </trkpt>
      <trkpt lat="47.5148" lon="6.77213">
        <ele>423.1</ele>
        <time>2017-12-17T11:05:16.000Z</time>
      </trkpt>
      <trkpt lat="47.51482" lon="6.77221">
        <ele>423.1</ele>
        <time>2017-12-17T11:05:17.000Z</time>
      </trkpt>
      <trkpt lat="47.51484" lon="6.77229">
        <ele>423.4</ele>
        <time>2017-12-17T11:05:18.000Z</time>
      </trkpt>
      <trkpt lat="47.51484" lon="6.77238">
        <ele>423.5</ele>
        <time>2017-12-17T11:05:19.000Z</time>
      </trkpt>
      <trkpt lat="47.51484" lon="6.77244">
        <ele>423.1</ele>
        <time>2017-12-17T11:05:20.000Z</time>
      </trkpt>
      <trkpt lat="47.51484" lon="6.77251">
        <ele>423.2</ele>
        <time>2017-12-17T11:05:21.000Z</time>
      </trkpt>
      <trkpt lat="47.51484" lon="6.77257">
        <ele>423</ele>
        <time>2017-12-17T11:05:22.000Z</time>
      </trkpt>
      <trkpt lat="47.51484" lon="6.77264">
        <ele>422.9</ele>
        <time>2017-12-17T11:05:23.000Z</time>
      </trkpt>
      <trkpt lat="47.51484" lon="6.77271">
        <ele>422.5</ele>
        <time>2017-12-17T11:05:24.000Z</time>
      </trkpt>
      <trkpt lat="47.51483" lon="6.77277">
        <ele>422.2</ele>
        <time>2017-12-17T11:05:25.000Z</time>
      </trkpt>
      <trkpt lat="47.51483" lon="6.77283">
        <ele>422.2</ele>
        <time>2017-12-17T11:05:26.000Z</time>
      </trkpt>
      <trkpt lat="47.51483" lon="6.77289">
        <ele>422.4</ele>
        <time>2017-12-17T11:05:27.000Z</time>
      </trkpt>
      <trkpt lat="47.51483" lon="6.77296">
        <ele>422.2</ele>
        <time>2017-12-17T11:05:28.000Z</time>
      </trkpt>
      <trkpt lat="47.51483" lon="6.77301">
        <ele>422.6</ele>
        <time>2017-12-17T11:05:29.000Z</time>
      </trkpt>
      <trkpt lat="47.51484" lon="6.77307">
        <ele>422.9</ele>
        <time>2017-12-17T11:05:29.999Z</time>
      </trkpt>
      <trkpt lat="47.51485" lon="6.77312">
        <ele>423</ele>
        <time>2017-12-17T11:05:30.999Z</time>
      </trkpt>
      <trkpt lat="47.51487" lon="6.77316">
        <ele>423.2</ele>
        <time>2017-12-17T11:05:31.999Z</time>
      </trkpt>
      <trkpt lat="47.5149" lon="6.77318">
        <ele>423.3</ele>
        <time>2017-12-17T11:05:32.999Z</time>
      </trkpt>
      <trkpt lat="47.51493" lon="6.77321">
        <ele>423.4</ele>
        <time>2017-12-17T11:05:33.999Z</time>
      </trkpt>
      <trkpt lat="47.51495" lon="6.77323">
        <ele>423.4</ele>
        <time>2017-12-17T11:05:34.999Z</time>
      </trkpt>
      <trkpt lat="47.51498" lon="6.77326">
        <ele>423.5</ele>
        <time>2017-12-17T11:05:35.999Z</time>
      </trkpt>
      <trkpt lat="47.51501" lon="6.77328">
        <ele>423.5</ele>
        <time>2017-12-17T11:05:36.999Z</time>
      </trkpt>
      <trkpt lat="47.51506" lon="6.77332">
        <ele>423.6</ele>
        <time>2017-12-17T11:05:37.999Z</time>
      </trkpt>
      <trkpt lat="47.5151" lon="6.77335">
        <ele>423.6</ele>
        <time>2017-12-17T11:05:38.999Z</time>
      </trkpt>
      <trkpt lat="47.51513" lon="6.77337">
        <ele>423.6</ele>
        <time>2017-12-17T11:05:39.999Z</time>
      </trkpt>
      <trkpt lat="47.51515" lon="6.7734">
        <ele>423.7</ele>
        <time>2017-12-17T11:05:40.999Z</time>
      </trkpt>
      <trkpt lat="47.51518" lon="6.77343">
        <ele>423.7</ele>
        <time>2017-12-17T11:05:41.999Z</time>
      </trkpt>
      <trkpt lat="47.5152" lon="6.77345">
        <ele>423.8</ele>
        <time>2017-12-17T11:05:42.999Z</time>
      </trkpt>
      <trkpt lat="47.51523" lon="6.77347">
        <ele>423.9</ele>
        <time>2017-12-17T11:05:43.999Z</time>
      </trkpt>
      <trkpt lat="47.51525" lon="6.7735">
        <ele>424</ele>
        <time>2017-12-17T11:05:44.999Z</time>
      </trkpt>
      <trkpt lat="47.51527" lon="6.77352">
        <ele>424.2</ele>
        <time>2017-12-17T11:05:45.999Z</time>
      </trkpt>
      <trkpt lat="47.5153" lon="6.77355">
        <ele>424.4</ele>
        <time>2017-12-17T11:05:46.999Z</time>
      </trkpt>
      <trkpt lat="47.51533" lon="6.77358">
        <ele>424.6</ele>
        <time>2017-12-17T11:05:47.999Z</time>
      </trkpt>
      <trkpt lat="47.51536" lon="6.77361">
        <ele>424.8</ele>
        <time>2017-12-17T11:05:48.999Z</time>
      </trkpt>
      <trkpt lat="47.51538" lon="6.77363">
        <ele>425</ele>
        <time>2017-12-17T11:05:49.999Z</time>
      </trkpt>
      <trkpt lat="47.51541" lon="6.77366">
        <ele>425.2</ele>
        <time>2017-12-17T11:05:50.999Z</time>
      </trkpt>
      <trkpt lat="47.51543" lon="6.77368">
        <ele>425.3</ele>
        <time>2017-12-17T11:05:51.999Z</time>
      </trkpt>
      <trkpt lat="47.51545" lon="6.77371">
        <ele>425.4</ele>
        <time>2017-12-17T11:05:52.999Z</time>
      </trkpt>
      <trkpt lat="47.51548" lon="6.77375">
        <ele>425.6</ele>
        <time>2017-12-17T11:05:54.999Z</time>
      </trkpt>
      <trkpt lat="47.5155" lon="6.77378">
        <ele>425.7</ele>
        <time>2017-12-17T11:05:55.999Z</time>
      </trkpt>
      <trkpt lat="47.51553" lon="6.77381">
        <ele>425.9</ele>
        <time>2017-12-17T11:05:57.999Z</time>
      </trkpt>
      <trkpt lat="47.51554" lon="6.77383">
        <ele>425.9</ele>
        <time>2017-12-17T11:05:58.999Z</time>
      </trkpt>
      <trkpt lat="47.51556" lon="6.77385">
        <ele>425.9</ele>
        <time>2017-12-17T11:06:00.999Z</time>
      </trkpt>
      <trkpt lat="47.51558" lon="6.77387">
        <ele>426</ele>
        <time>2017-12-17T11:06:01.999Z</time>
      </trkpt>
      <trkpt lat="47.5156" lon="6.7739">
        <ele>426.1</ele>
        <time>2017-12-17T11:06:02.999Z</time>
      </trkpt>
      <trkpt lat="47.51562" lon="6.77392">
        <ele>426.1</ele>
        <time>2017-12-17T11:06:03.999Z</time>
      </trkpt>
      <trkpt lat="47.51563" lon="6.77394">
        <ele>426.1</ele>
        <time>2017-12-17T11:06:04.999Z</time>
      </trkpt>
      <trkpt lat="47.51566" lon="6.77397">
        <ele>426.1</ele>
        <time>2017-12-17T11:06:05.999Z</time>
      </trkpt>
      <trkpt lat="47.51568" lon="6.774">
        <ele>426.1</ele>
        <time>2017-12-17T11:06:06.999Z</time>
      </trkpt>
      <trkpt lat="47.51569" lon="6.77402">
        <ele>426.1</ele>
        <time>2017-12-17T11:06:07.999Z</time>
      </trkpt>
      <trkpt lat="47.51571" lon="6.77404">
        <ele>426.2</ele>
        <time>2017-12-17T11:06:08.999Z</time>
      </trkpt>
      <trkpt lat="47.51574" lon="6.77408">
        <ele>426.3</ele>
        <time>2017-12-17T11:06:09.999Z</time>
      </trkpt>
      <trkpt lat="47.51577" lon="6.7741">
        <ele>426.4</ele>
        <time>2017-12-17T11:06:10.999Z</time>
      </trkpt>
      <trkpt lat="47.51579" lon="6.77412">
        <ele>426.5</ele>
        <time>2017-12-17T11:06:11.999Z</time>
      </trkpt>
      <trkpt lat="47.51581" lon="6.77415">
        <ele>426.7</ele>
        <time>2017-12-17T11:06:12.999Z</time>
      </trkpt>
      <trkpt lat="47.51584" lon="6.77418">
        <ele>426.9</ele>
        <time>2017-12-17T11:06:13.999Z</time>
      </trkpt>
      <trkpt lat="47.51585" lon="6.7742">
        <ele>427.1</ele>
        <time>2017-12-17T11:06:14.999Z</time>
      </trkpt>
      <trkpt lat="47.51587" lon="6.77423">
        <ele>427.3</ele>
        <time>2017-12-17T11:06:15.999Z</time>
      </trkpt>
      <trkpt lat="47.51589" lon="6.77425">
        <ele>427.4</ele>
        <time>2017-12-17T11:06:16.999Z</time>
      </trkpt>
      <trkpt lat="47.51591" lon="6.77428">
        <ele>427.4</ele>
        <time>2017-12-17T11:06:17.999Z</time>
      </trkpt>
      <trkpt lat="47.51593" lon="6.7743">
        <ele>427.6</ele>
        <time>2017-12-17T11:06:18.999Z</time>
      </trkpt>
      <trkpt lat="47.51595" lon="6.77432">
        <ele>427.7</ele>
        <time>2017-12-17T11:06:19.999Z</time>
      </trkpt>
      <trkpt lat="47.51598" lon="6.77435">
        <ele>428.1</ele>
        <time>2017-12-17T11:06:21.999Z</time>
      </trkpt>
      <trkpt lat="47.516" lon="6.77437">
        <ele>428.2</ele>
        <time>2017-12-17T11:06:22.999Z</time>
      </trkpt>
      <trkpt lat="47.51602" lon="6.77439">
        <ele>428.4</ele>
        <time>2017-12-17T11:06:23.999Z</time>
      </trkpt>
      <trkpt lat="47.51604" lon="6.77442">
        <ele>428.6</ele>
        <time>2017-12-17T11:06:24.999Z</time>
      </trkpt>
      <trkpt lat="47.51606" lon="6.77445">
        <ele>428.8</ele>
        <time>2017-12-17T11:06:25.999Z</time>
      </trkpt>
      <trkpt lat="47.51608" lon="6.77448">
        <ele>428.9</ele>
        <time>2017-12-17T11:06:26.999Z</time>
      </trkpt>
      <trkpt lat="47.51609" lon="6.77451">
        <ele>429.1</ele>
        <time>2017-12-17T11:06:27.999Z</time>
      </trkpt>
      <trkpt lat="47.51611" lon="6.77454">
        <ele>429.3</ele>
        <time>2017-12-17T11:06:28.999Z</time>
      </trkpt>
      <trkpt lat="47.51612" lon="6.77457">
        <ele>429.5</ele>
        <time>2017-12-17T11:06:29.999Z</time>
      </trkpt>
      <trkpt lat="47.51613" lon="6.7746">
        <ele>429.6</ele>
        <time>2017-12-17T11:06:30.999Z</time>
      </trkpt>
      <trkpt lat="47.51616" lon="6.77462">
        <ele>429.8</ele>
        <time>2017-12-17T11:06:32.999Z</time>
      </trkpt>
      <trkpt lat="47.51618" lon="6.77464">
        <ele>429.9</ele>
        <time>2017-12-17T11:06:33.999Z</time>
      </trkpt>
      <trkpt lat="47.5162" lon="6.77468">
        <ele>430.1</ele>
        <time>2017-12-17T11:06:35.999Z</time>
      </trkpt>
      <trkpt lat="47.51622" lon="6.77471">
        <ele>430.1</ele>
        <time>2017-12-17T11:06:36.999Z</time>
      </trkpt>
      <trkpt lat="47.51624" lon="6.77473">
        <ele>430.2</ele>
        <time>2017-12-17T11:06:37.999Z</time>
      </trkpt>
      <trkpt lat="47.51625" lon="6.77476">
        <ele>430.3</ele>
        <time>2017-12-17T11:06:38.999Z</time>
      </trkpt>
      <trkpt lat="47.51628" lon="6.7748">
        <ele>430.3</ele>
        <time>2017-12-17T11:06:40.999Z</time>
      </trkpt>
      <trkpt lat="47.51629" lon="6.77482">
        <ele>430.3</ele>
        <time>2017-12-17T11:06:41.999Z</time>
      </trkpt>
      <trkpt lat="47.51632" lon="6.77485">
        <ele>430.4</ele>
        <time>2017-12-17T11:06:43.999Z</time>
      </trkpt>
      <trkpt lat="47.51634" lon="6.77488">
        <ele>430.5</ele>
        <time>2017-12-17T11:06:44.999Z</time>
      </trkpt>
      <trkpt lat="47.51636" lon="6.77491">
        <ele>430.6</ele>
        <time>2017-12-17T11:06:45.999Z</time>
      </trkpt>
      <trkpt lat="47.51639" lon="6.77493">
        <ele>430.6</ele>
        <time>2017-12-17T11:06:46.999Z</time>
      </trkpt>
      <trkpt lat="47.51642" lon="6.77496">
        <ele>430.7</ele>
        <time>2017-12-17T11:06:47.999Z</time>
      </trkpt>
      <trkpt lat="47.51644" lon="6.77498">
        <ele>430.7</ele>
        <time>2017-12-17T11:06:48.999Z</time>
      </trkpt>
      <trkpt lat="47.51647" lon="6.77501">
        <ele>430.8</ele>
        <time>2017-12-17T11:06:49.999Z</time>
      </trkpt>
      <trkpt lat="47.5165" lon="6.77503">
        <ele>430.9</ele>
        <time>2017-12-17T11:06:50.999Z</time>
      </trkpt>
      <trkpt lat="47.51652" lon="6.77506">
        <ele>431</ele>
        <time>2017-12-17T11:06:51.999Z</time>
      </trkpt>
      <trkpt lat="47.51655" lon="6.77509">
        <ele>431.1</ele>
        <time>2017-12-17T11:06:52.999Z</time>
      </trkpt>
      <trkpt lat="47.51658" lon="6.77512">
        <ele>431.2</ele>
        <time>2017-12-17T11:06:53.999Z</time>
      </trkpt>
      <trkpt lat="47.51659" lon="6.77515">
        <ele>431.3</ele>
        <time>2017-12-17T11:06:54.999Z</time>
      </trkpt>
      <trkpt lat="47.51661" lon="6.77517">
        <ele>431.5</ele>
        <time>2017-12-17T11:06:55.999Z</time>
      </trkpt>
      <trkpt lat="47.51662" lon="6.77519">
        <ele>431.6</ele>
        <time>2017-12-17T11:06:56.999Z</time>
      </trkpt>
      <trkpt lat="47.51664" lon="6.77522">
        <ele>431.8</ele>
        <time>2017-12-17T11:06:57.999Z</time>
      </trkpt>
      <trkpt lat="47.51667" lon="6.77525">
        <ele>432</ele>
        <time>2017-12-17T11:06:58.999Z</time>
      </trkpt>
      <trkpt lat="47.51668" lon="6.77527">
        <ele>432.2</ele>
        <time>2017-12-17T11:06:59.999Z</time>
      </trkpt>
      <trkpt lat="47.5167" lon="6.77529">
        <ele>432.4</ele>
        <time>2017-12-17T11:07:00.999Z</time>
      </trkpt>
      <trkpt lat="47.51674" lon="6.77532">
        <ele>432.6</ele>
        <time>2017-12-17T11:07:02.999Z</time>
      </trkpt>
      <trkpt lat="47.51676" lon="6.77534">
        <ele>432.8</ele>
        <time>2017-12-17T11:07:03.999Z</time>
      </trkpt>
      <trkpt lat="47.51679" lon="6.77537">
        <ele>433</ele>
        <time>2017-12-17T11:07:04.999Z</time>
      </trkpt>
      <trkpt lat="47.5168" lon="6.77539">
        <ele>433.1</ele>
        <time>2017-12-17T11:07:05.999Z</time>
      </trkpt>
      <trkpt lat="47.51682" lon="6.77541">
        <ele>433.3</ele>
        <time>2017-12-17T11:07:06.999Z</time>
      </trkpt>
      <trkpt lat="47.51684" lon="6.77544">
        <ele>433.5</ele>
        <time>2017-12-17T11:07:07.999Z</time>
      </trkpt>
      <trkpt lat="47.51687" lon="6.77547">
        <ele>433.7</ele>
        <time>2017-12-17T11:07:09.999Z</time>
      </trkpt>
      <trkpt lat="47.51689" lon="6.77549">
        <ele>433.8</ele>
        <time>2017-12-17T11:07:10.999Z</time>
      </trkpt>
      <trkpt lat="47.51692" lon="6.77553">
        <ele>434</ele>
        <time>2017-12-17T11:07:12.999Z</time>
      </trkpt>
      <trkpt lat="47.51694" lon="6.77555">
        <ele>434.1</ele>
        <time>2017-12-17T11:07:13.999Z</time>
      </trkpt>
      <trkpt lat="47.51697" lon="6.77558">
        <ele>434.1</ele>
        <time>2017-12-17T11:07:15.999Z</time>
      </trkpt>
      <trkpt lat="47.51699" lon="6.77556">
        <ele>434.2</ele>
        <time>2017-12-17T11:07:16.999Z</time>
      </trkpt>
      <trkpt lat="47.517" lon="6.77552">
        <ele>434.2</ele>
        <time>2017-12-17T11:07:17.999Z</time>
      </trkpt>
      <trkpt lat="47.51704" lon="6.77548">
        <ele>434.2</ele>
        <time>2017-12-17T11:07:18.999Z</time>
      </trkpt>
      <trkpt lat="47.51708" lon="6.77546">
        <ele>434.8</ele>
        <time>2017-12-17T11:07:27.999Z</time>
      </trkpt>
      <trkpt lat="47.51713" lon="6.77534">
        <ele>434.9</ele>
        <time>2017-12-17T11:07:28.999Z</time>
      </trkpt>
      <trkpt lat="47.51714" lon="6.7753">
        <ele>434.9</ele>
        <time>2017-12-17T11:07:29.999Z</time>
      </trkpt>
      <trkpt lat="47.51714" lon="6.77526">
        <ele>435</ele>
        <time>2017-12-17T11:07:30.999Z</time>
      </trkpt>
      <trkpt lat="47.51715" lon="6.77523">
        <ele>434.9</ele>
        <time>2017-12-17T11:07:31.999Z</time>
      </trkpt>
      <trkpt lat="47.51716" lon="6.77519">
        <ele>435</ele>
        <time>2017-12-17T11:07:32.999Z</time>
      </trkpt>
      <trkpt lat="47.51717" lon="6.77516">
        <ele>435</ele>
        <time>2017-12-17T11:07:33.999Z</time>
      </trkpt>
      <trkpt lat="47.51719" lon="6.77511">
        <ele>435.1</ele>
        <time>2017-12-17T11:07:34.999Z</time>
      </trkpt>
      <trkpt lat="47.5172" lon="6.77507">
        <ele>435.2</ele>
        <time>2017-12-17T11:07:35.999Z</time>
      </trkpt>
      <trkpt lat="47.51721" lon="6.77503">
        <ele>435.3</ele>
        <time>2017-12-17T11:07:36.999Z</time>
      </trkpt>
      <trkpt lat="47.51722" lon="6.77499">
        <ele>435.4</ele>
        <time>2017-12-17T11:07:37.999Z</time>
      </trkpt>
      <trkpt lat="47.51724" lon="6.77496">
        <ele>435.5</ele>
        <time>2017-12-17T11:07:38.999Z</time>
      </trkpt>
      <trkpt lat="47.51726" lon="6.77491">
        <ele>435.7</ele>
        <time>2017-12-17T11:07:40.999Z</time>
      </trkpt>
      <trkpt lat="47.51726" lon="6.77488">
        <ele>435.8</ele>
        <time>2017-12-17T11:07:41.999Z</time>
      </trkpt>
      <trkpt lat="47.51727" lon="6.77484">
        <ele>436.1</ele>
        <time>2017-12-17T11:07:43.999Z</time>
      </trkpt>
      <trkpt lat="47.51728" lon="6.77482">
        <ele>436.2</ele>
        <time>2017-12-17T11:07:44.999Z</time>
      </trkpt>
      <trkpt lat="47.51731" lon="6.77481">
        <ele>436.3</ele>
        <time>2017-12-17T11:07:45.999Z</time>
      </trkpt>
      <trkpt lat="47.51735" lon="6.77481">
        <ele>436.3</ele>
        <time>2017-12-17T11:07:46.999Z</time>
      </trkpt>
      <trkpt lat="47.51738" lon="6.77481">
        <ele>436.4</ele>
        <time>2017-12-17T11:07:47.999Z</time>
      </trkpt>
      <trkpt lat="47.5174" lon="6.77481">
        <ele>436.5</ele>
        <time>2017-12-17T11:07:48.999Z</time>
      </trkpt>
      <trkpt lat="47.51742" lon="6.7748">
        <ele>436.5</ele>
        <time>2017-12-17T11:07:49.999Z</time>
      </trkpt>
      <trkpt lat="47.51745" lon="6.7748">
        <ele>436.6</ele>
        <time>2017-12-17T11:07:50.999Z</time>
      </trkpt>
      <trkpt lat="47.51747" lon="6.77479">
        <ele>436.7</ele>
        <time>2017-12-17T11:07:51.999Z</time>
      </trkpt>
      <trkpt lat="47.51749" lon="6.77478">
        <ele>436.8</ele>
        <time>2017-12-17T11:07:52.999Z</time>
      </trkpt>
      <trkpt lat="47.51753" lon="6.77478">
        <ele>436.9</ele>
        <time>2017-12-17T11:07:54.999Z</time>
      </trkpt>
      <trkpt lat="47.51755" lon="6.77479">
        <ele>436.9</ele>
        <time>2017-12-17T11:07:55.999Z</time>
      </trkpt>
      <trkpt lat="47.51759" lon="6.7748">
        <ele>436.9</ele>
        <time>2017-12-17T11:07:57.999Z</time>
      </trkpt>
      <trkpt lat="47.5176" lon="6.7748">
        <ele>436.8</ele>
        <time>2017-12-17T11:07:58.999Z</time>
      </trkpt>
      <trkpt lat="47.51764" lon="6.7748">
        <ele>436.7</ele>
        <time>2017-12-17T11:08:00.999Z</time>
      </trkpt>
      <trkpt lat="47.51767" lon="6.7748">
        <ele>436.6</ele>
        <time>2017-12-17T11:08:01.999Z</time>
      </trkpt>
      <trkpt lat="47.5177" lon="6.77481">
        <ele>436.6</ele>
        <time>2017-12-17T11:08:02.999Z</time>
      </trkpt>
      <trkpt lat="47.51773" lon="6.77483">
        <ele>436.5</ele>
        <time>2017-12-17T11:08:03.999Z</time>
      </trkpt>
      <trkpt lat="47.51776" lon="6.77484">
        <ele>436.4</ele>
        <time>2017-12-17T11:08:04.999Z</time>
      </trkpt>
      <trkpt lat="47.51783" lon="6.77488">
        <ele>436.4</ele>
        <time>2017-12-17T11:08:05.999Z</time>
      </trkpt>
      <trkpt lat="47.51788" lon="6.77491">
        <ele>436.3</ele>
        <time>2017-12-17T11:08:06.999Z</time>
      </trkpt>
      <trkpt lat="47.51793" lon="6.77492">
        <ele>436.3</ele>
        <time>2017-12-17T11:08:07.999Z</time>
      </trkpt>
      <trkpt lat="47.51797" lon="6.77493">
        <ele>436.3</ele>
        <time>2017-12-17T11:08:08.999Z</time>
      </trkpt>
      <trkpt lat="47.51801" lon="6.77493">
        <ele>436.2</ele>
        <time>2017-12-17T11:08:09.999Z</time>
      </trkpt>
      <trkpt lat="47.51805" lon="6.77489">
        <ele>435.8</ele>
        <time>2017-12-17T11:08:10.999Z</time>
      </trkpt>
      <trkpt lat="47.51806" lon="6.77485">
        <ele>435.8</ele>
        <time>2017-12-17T11:08:11.999Z</time>
      </trkpt>
      <trkpt lat="47.51805" lon="6.77478">
        <ele>435.4</ele>
        <time>2017-12-17T11:08:12.999Z</time>
      </trkpt>
      <trkpt lat="47.51805" lon="6.77471">
        <ele>435.7</ele>
        <time>2017-12-17T11:08:13.999Z</time>
      </trkpt>
      <trkpt lat="47.51807" lon="6.77474">
        <ele>437.5</ele>
        <time>2017-12-17T11:10:10.999Z</time>
      </trkpt>
      <trkpt lat="47.51801" lon="6.77479">
        <ele>437.4</ele>
        <time>2017-12-17T11:10:11.999Z</time>
      </trkpt>
      <trkpt lat="47.51805" lon="6.77477">
        <ele>435.6</ele>
        <time>2017-12-17T11:11:07.999Z</time>
      </trkpt>
      <trkpt lat="47.51806" lon="6.77477">
        <ele>435.6</ele>
        <time>2017-12-17T11:11:08.999Z</time>
      </trkpt>
      <trkpt lat="47.51802" lon="6.77479">
        <ele>434.5</ele>
        <time>2017-12-17T11:20:17.999Z</time>
      </trkpt>
      <trkpt lat="47.51801" lon="6.77479">
        <ele>434.5</ele>
        <time>2017-12-17T11:20:18.999Z</time>
      </trkpt>
      <trkpt lat="47.51805" lon="6.77477">
        <ele>434.8</ele>
        <time>2017-12-17T11:21:36.999Z</time>
      </trkpt>
      <trkpt lat="47.51805" lon="6.77477">
        <ele>434.7</ele>
        <time>2017-12-17T11:21:37.999Z</time>
      </trkpt>
      <trkpt lat="47.51806" lon="6.77477">
        <ele>431.9</ele>
        <time>2017-12-17T11:23:42.999Z</time>
      </trkpt>
      <trkpt lat="47.51811" lon="6.77481">
        <ele>432</ele>
        <time>2017-12-17T11:23:50.999Z</time>
      </trkpt>
      <trkpt lat="47.51812" lon="6.77482">
        <ele>434.3</ele>
        <time>2017-12-17T11:25:19.999Z</time>
      </trkpt>
    </trkseg>
  </trk>
</gpx>